<?xml version="1.0" encoding="UTF-8" standalone="no" ?>
<gpx xmlns="http://www.topografix.com/GPX/1/1" xmlns:xsi="http://www.w3.org/2001/XMLSchema-instance" xsi:schemaLocation="http://www.topografix.com/GPX/1/1 http://www.topografix.com/GPX/1/1/gpx.xsd" version="1.1" creator="VisuGPX - https://www.visugpx.com">
  <metadata>
    <name>Briis Bullion 2014</name>
  </metadata>
  <trk>
    <name><![CDATA[Briis Bullion 2014_1]]></name>
    <trkseg>
      <trkpt lat="48.61502" lon="2.10764">
        <ele>120</ele>
        <time>2010-03-19T09:53:34Z</time>
      </trkpt>
      <trkpt lat="48.61508" lon="2.10723">
        <ele>116</ele>
        <time>2010-03-19T09:54:24Z</time>
      </trkpt>
      <trkpt lat="48.61509" lon="2.10721">
        <ele>115</ele>
        <time>2010-03-19T09:54:25Z</time>
      </trkpt>
      <trkpt lat="48.61509" lon="2.10719">
        <ele>114</ele>
        <time>2010-03-19T09:54:26Z</time>
      </trkpt>
      <trkpt lat="48.6151" lon="2.10718">
        <ele>114</ele>
        <time>2010-03-19T09:54:27Z</time>
      </trkpt>
      <trkpt lat="48.6151" lon="2.10715">
        <ele>114</ele>
        <time>2010-03-19T09:54:29Z</time>
      </trkpt>
      <trkpt lat="48.61511" lon="2.10713">
        <ele>113</ele>
        <time>2010-03-19T09:54:30Z</time>
      </trkpt>
      <trkpt lat="48.61511" lon="2.10711">
        <ele>113</ele>
        <time>2010-03-19T09:54:31Z</time>
      </trkpt>
      <trkpt lat="48.6151" lon="2.10709">
        <ele>113</ele>
        <time>2010-03-19T09:54:32Z</time>
      </trkpt>
      <trkpt lat="48.6151" lon="2.10707">
        <ele>113</ele>
        <time>2010-03-19T09:54:33Z</time>
      </trkpt>
      <trkpt lat="48.61507" lon="2.10704">
        <ele>113</ele>
        <time>2010-03-19T09:54:35Z</time>
      </trkpt>
      <trkpt lat="48.61506" lon="2.10703">
        <ele>113</ele>
        <time>2010-03-19T09:54:36Z</time>
      </trkpt>
      <trkpt lat="48.61505" lon="2.10702">
        <ele>113</ele>
        <time>2010-03-19T09:54:37Z</time>
      </trkpt>
      <trkpt lat="48.61504" lon="2.10701">
        <ele>113</ele>
        <time>2010-03-19T09:54:38Z</time>
      </trkpt>
      <trkpt lat="48.61502" lon="2.107">
        <ele>113</ele>
        <time>2010-03-19T09:54:39Z</time>
      </trkpt>
      <trkpt lat="48.61501" lon="2.107">
        <ele>113</ele>
        <time>2010-03-19T09:54:40Z</time>
      </trkpt>
      <trkpt lat="48.615" lon="2.10699">
        <ele>113</ele>
        <time>2010-03-19T09:54:41Z</time>
      </trkpt>
      <trkpt lat="48.61498" lon="2.10699">
        <ele>113</ele>
        <time>2010-03-19T09:54:42Z</time>
      </trkpt>
      <trkpt lat="48.61497" lon="2.10698">
        <ele>113</ele>
        <time>2010-03-19T09:54:43Z</time>
      </trkpt>
      <trkpt lat="48.61496" lon="2.10697">
        <ele>113</ele>
        <time>2010-03-19T09:54:44Z</time>
      </trkpt>
      <trkpt lat="48.61494" lon="2.10696">
        <ele>113</ele>
        <time>2010-03-19T09:54:45Z</time>
      </trkpt>
      <trkpt lat="48.61493" lon="2.10695">
        <ele>113</ele>
        <time>2010-03-19T09:54:46Z</time>
      </trkpt>
      <trkpt lat="48.61491" lon="2.10695">
        <ele>113</ele>
        <time>2010-03-19T09:54:47Z</time>
      </trkpt>
      <trkpt lat="48.6149" lon="2.10694">
        <ele>113</ele>
        <time>2010-03-19T09:54:48Z</time>
      </trkpt>
      <trkpt lat="48.61489" lon="2.10693">
        <ele>113</ele>
        <time>2010-03-19T09:54:49Z</time>
      </trkpt>
      <trkpt lat="48.61488" lon="2.10692">
        <ele>113</ele>
        <time>2010-03-19T09:54:50Z</time>
      </trkpt>
      <trkpt lat="48.61485" lon="2.10691">
        <ele>113</ele>
        <time>2010-03-19T09:54:52Z</time>
      </trkpt>
      <trkpt lat="48.61484" lon="2.10691">
        <ele>113</ele>
        <time>2010-03-19T09:54:53Z</time>
      </trkpt>
      <trkpt lat="48.61481" lon="2.10688">
        <ele>113</ele>
        <time>2010-03-19T09:54:55Z</time>
      </trkpt>
      <trkpt lat="48.6148" lon="2.10685">
        <ele>113</ele>
        <time>2010-03-19T09:54:57Z</time>
      </trkpt>
      <trkpt lat="48.61478" lon="2.10684">
        <ele>113</ele>
        <time>2010-03-19T09:54:58Z</time>
      </trkpt>
      <trkpt lat="48.61476" lon="2.10681">
        <ele>113</ele>
        <time>2010-03-19T09:55:00Z</time>
      </trkpt>
      <trkpt lat="48.61475" lon="2.1068">
        <ele>113</ele>
        <time>2010-03-19T09:55:01Z</time>
      </trkpt>
      <trkpt lat="48.61473" lon="2.10678">
        <ele>113</ele>
        <time>2010-03-19T09:55:02Z</time>
      </trkpt>
      <trkpt lat="48.61473" lon="2.10676">
        <ele>113</ele>
        <time>2010-03-19T09:55:03Z</time>
      </trkpt>
      <trkpt lat="48.61472" lon="2.10675">
        <ele>112</ele>
        <time>2010-03-19T09:55:04Z</time>
      </trkpt>
      <trkpt lat="48.6147" lon="2.10673">
        <ele>112</ele>
        <time>2010-03-19T09:55:05Z</time>
      </trkpt>
      <trkpt lat="48.61469" lon="2.10671">
        <ele>112</ele>
        <time>2010-03-19T09:55:06Z</time>
      </trkpt>
      <trkpt lat="48.61468" lon="2.1067">
        <ele>112</ele>
        <time>2010-03-19T09:55:07Z</time>
      </trkpt>
      <trkpt lat="48.61467" lon="2.10668">
        <ele>112</ele>
        <time>2010-03-19T09:55:08Z</time>
      </trkpt>
      <trkpt lat="48.61466" lon="2.10666">
        <ele>112</ele>
        <time>2010-03-19T09:55:09Z</time>
      </trkpt>
      <trkpt lat="48.61465" lon="2.10665">
        <ele>112</ele>
        <time>2010-03-19T09:55:10Z</time>
      </trkpt>
      <trkpt lat="48.61463" lon="2.10662">
        <ele>112</ele>
        <time>2010-03-19T09:55:12Z</time>
      </trkpt>
      <trkpt lat="48.61462" lon="2.1066">
        <ele>112</ele>
        <time>2010-03-19T09:55:13Z</time>
      </trkpt>
      <trkpt lat="48.6146" lon="2.10657">
        <ele>112</ele>
        <time>2010-03-19T09:55:15Z</time>
      </trkpt>
      <trkpt lat="48.61457" lon="2.10654">
        <ele>112</ele>
        <time>2010-03-19T09:55:17Z</time>
      </trkpt>
      <trkpt lat="48.61456" lon="2.10651">
        <ele>112</ele>
        <time>2010-03-19T09:55:19Z</time>
      </trkpt>
      <trkpt lat="48.61454" lon="2.10648">
        <ele>112</ele>
        <time>2010-03-19T09:55:21Z</time>
      </trkpt>
      <trkpt lat="48.61452" lon="2.10645">
        <ele>112</ele>
        <time>2010-03-19T09:55:23Z</time>
      </trkpt>
      <trkpt lat="48.61451" lon="2.10643">
        <ele>112</ele>
        <time>2010-03-19T09:55:24Z</time>
      </trkpt>
      <trkpt lat="48.61449" lon="2.10642">
        <ele>112</ele>
        <time>2010-03-19T09:55:25Z</time>
      </trkpt>
      <trkpt lat="48.61449" lon="2.1064">
        <ele>112</ele>
        <time>2010-03-19T09:55:26Z</time>
      </trkpt>
      <trkpt lat="48.61447" lon="2.10637">
        <ele>112</ele>
        <time>2010-03-19T09:55:28Z</time>
      </trkpt>
      <trkpt lat="48.61445" lon="2.10634">
        <ele>112</ele>
        <time>2010-03-19T09:55:30Z</time>
      </trkpt>
      <trkpt lat="48.61444" lon="2.10632">
        <ele>112</ele>
        <time>2010-03-19T09:55:32Z</time>
      </trkpt>
      <trkpt lat="48.61442" lon="2.1063">
        <ele>112</ele>
        <time>2010-03-19T09:55:34Z</time>
      </trkpt>
      <trkpt lat="48.6144" lon="2.10628">
        <ele>112</ele>
        <time>2010-03-19T09:55:36Z</time>
      </trkpt>
      <trkpt lat="48.61439" lon="2.10625">
        <ele>112</ele>
        <time>2010-03-19T09:55:38Z</time>
      </trkpt>
      <trkpt lat="48.61438" lon="2.10623">
        <ele>112</ele>
        <time>2010-03-19T09:55:40Z</time>
      </trkpt>
      <trkpt lat="48.61436" lon="2.1062">
        <ele>112</ele>
        <time>2010-03-19T09:55:42Z</time>
      </trkpt>
      <trkpt lat="48.61434" lon="2.10617">
        <ele>112</ele>
        <time>2010-03-19T09:55:44Z</time>
      </trkpt>
      <trkpt lat="48.61432" lon="2.10615">
        <ele>112</ele>
        <time>2010-03-19T09:55:46Z</time>
      </trkpt>
      <trkpt lat="48.61431" lon="2.10612">
        <ele>112</ele>
        <time>2010-03-19T09:55:48Z</time>
      </trkpt>
      <trkpt lat="48.61429" lon="2.1061">
        <ele>112</ele>
        <time>2010-03-19T09:55:50Z</time>
      </trkpt>
      <trkpt lat="48.61428" lon="2.10608">
        <ele>112</ele>
        <time>2010-03-19T09:55:52Z</time>
      </trkpt>
      <trkpt lat="48.61427" lon="2.10606">
        <ele>112</ele>
        <time>2010-03-19T09:55:54Z</time>
      </trkpt>
      <trkpt lat="48.61424" lon="2.10604">
        <ele>112</ele>
        <time>2010-03-19T09:56:21Z</time>
      </trkpt>
      <trkpt lat="48.61423" lon="2.10603">
        <ele>111</ele>
        <time>2010-03-19T09:56:22Z</time>
      </trkpt>
      <trkpt lat="48.61421" lon="2.106">
        <ele>111</ele>
        <time>2010-03-19T09:56:24Z</time>
      </trkpt>
      <trkpt lat="48.6142" lon="2.10597">
        <ele>111</ele>
        <time>2010-03-19T09:56:26Z</time>
      </trkpt>
      <trkpt lat="48.61419" lon="2.10595">
        <ele>111</ele>
        <time>2010-03-19T09:56:27Z</time>
      </trkpt>
      <trkpt lat="48.61416" lon="2.10592">
        <ele>111</ele>
        <time>2010-03-19T09:56:29Z</time>
      </trkpt>
      <trkpt lat="48.61415" lon="2.10591">
        <ele>111</ele>
        <time>2010-03-19T09:56:30Z</time>
      </trkpt>
      <trkpt lat="48.61414" lon="2.10589">
        <ele>111</ele>
        <time>2010-03-19T09:56:31Z</time>
      </trkpt>
      <trkpt lat="48.61412" lon="2.10586">
        <ele>110</ele>
        <time>2010-03-19T09:56:33Z</time>
      </trkpt>
      <trkpt lat="48.61412" lon="2.10584">
        <ele>110</ele>
        <time>2010-03-19T09:56:34Z</time>
      </trkpt>
      <trkpt lat="48.61411" lon="2.10582">
        <ele>110</ele>
        <time>2010-03-19T09:56:35Z</time>
      </trkpt>
      <trkpt lat="48.61411" lon="2.1058">
        <ele>110</ele>
        <time>2010-03-19T09:56:36Z</time>
      </trkpt>
      <trkpt lat="48.61411" lon="2.10579">
        <ele>110</ele>
        <time>2010-03-19T09:56:37Z</time>
      </trkpt>
      <trkpt lat="48.61411" lon="2.10577">
        <ele>110</ele>
        <time>2010-03-19T09:56:38Z</time>
      </trkpt>
      <trkpt lat="48.61411" lon="2.10575">
        <ele>110</ele>
        <time>2010-03-19T09:56:39Z</time>
      </trkpt>
      <trkpt lat="48.61411" lon="2.10573">
        <ele>110</ele>
        <time>2010-03-19T09:56:40Z</time>
      </trkpt>
      <trkpt lat="48.61411" lon="2.10572">
        <ele>110</ele>
        <time>2010-03-19T09:56:41Z</time>
      </trkpt>
      <trkpt lat="48.61411" lon="2.1057">
        <ele>110</ele>
        <time>2010-03-19T09:56:42Z</time>
      </trkpt>
      <trkpt lat="48.61411" lon="2.10567">
        <ele>110</ele>
        <time>2010-03-19T09:56:43Z</time>
      </trkpt>
      <trkpt lat="48.61411" lon="2.10566">
        <ele>109</ele>
        <time>2010-03-19T09:56:44Z</time>
      </trkpt>
      <trkpt lat="48.61411" lon="2.10564">
        <ele>109</ele>
        <time>2010-03-19T09:56:45Z</time>
      </trkpt>
      <trkpt lat="48.61411" lon="2.10561">
        <ele>109</ele>
        <time>2010-03-19T09:56:47Z</time>
      </trkpt>
      <trkpt lat="48.61411" lon="2.10559">
        <ele>109</ele>
        <time>2010-03-19T09:56:48Z</time>
      </trkpt>
      <trkpt lat="48.61411" lon="2.10558">
        <ele>109</ele>
        <time>2010-03-19T09:56:49Z</time>
      </trkpt>
      <trkpt lat="48.61412" lon="2.10556">
        <ele>109</ele>
        <time>2010-03-19T09:56:50Z</time>
      </trkpt>
      <trkpt lat="48.61412" lon="2.10554">
        <ele>109</ele>
        <time>2010-03-19T09:56:51Z</time>
      </trkpt>
      <trkpt lat="48.61412" lon="2.10552">
        <ele>109</ele>
        <time>2010-03-19T09:56:52Z</time>
      </trkpt>
      <trkpt lat="48.61413" lon="2.1055">
        <ele>109</ele>
        <time>2010-03-19T09:56:53Z</time>
      </trkpt>
      <trkpt lat="48.61413" lon="2.10548">
        <ele>108</ele>
        <time>2010-03-19T09:56:54Z</time>
      </trkpt>
      <trkpt lat="48.61413" lon="2.10545">
        <ele>108</ele>
        <time>2010-03-19T09:56:55Z</time>
      </trkpt>
      <trkpt lat="48.61413" lon="2.10543">
        <ele>108</ele>
        <time>2010-03-19T09:56:56Z</time>
      </trkpt>
      <trkpt lat="48.61413" lon="2.10541">
        <ele>108</ele>
        <time>2010-03-19T09:56:57Z</time>
      </trkpt>
      <trkpt lat="48.61414" lon="2.10539">
        <ele>108</ele>
        <time>2010-03-19T09:56:58Z</time>
      </trkpt>
      <trkpt lat="48.61414" lon="2.10536">
        <ele>108</ele>
        <time>2010-03-19T09:56:59Z</time>
      </trkpt>
      <trkpt lat="48.61414" lon="2.10534">
        <ele>108</ele>
        <time>2010-03-19T09:57:00Z</time>
      </trkpt>
      <trkpt lat="48.61414" lon="2.10532">
        <ele>108</ele>
        <time>2010-03-19T09:57:01Z</time>
      </trkpt>
      <trkpt lat="48.61415" lon="2.1053">
        <ele>108</ele>
        <time>2010-03-19T09:57:02Z</time>
      </trkpt>
      <trkpt lat="48.61415" lon="2.10528">
        <ele>108</ele>
        <time>2010-03-19T09:57:03Z</time>
      </trkpt>
      <trkpt lat="48.61415" lon="2.10527">
        <ele>108</ele>
        <time>2010-03-19T09:57:04Z</time>
      </trkpt>
      <trkpt lat="48.61416" lon="2.10525">
        <ele>108</ele>
        <time>2010-03-19T09:57:05Z</time>
      </trkpt>
      <trkpt lat="48.61416" lon="2.10523">
        <ele>108</ele>
        <time>2010-03-19T09:57:06Z</time>
      </trkpt>
      <trkpt lat="48.61416" lon="2.10521">
        <ele>108</ele>
        <time>2010-03-19T09:57:08Z</time>
      </trkpt>
      <trkpt lat="48.61417" lon="2.10519">
        <ele>108</ele>
        <time>2010-03-19T09:57:08Z</time>
      </trkpt>
      <trkpt lat="48.61418" lon="2.10517">
        <ele>108</ele>
        <time>2010-03-19T09:57:09Z</time>
      </trkpt>
      <trkpt lat="48.61418" lon="2.10515">
        <ele>108</ele>
        <time>2010-03-19T09:57:10Z</time>
      </trkpt>
      <trkpt lat="48.61419" lon="2.10513">
        <ele>108</ele>
        <time>2010-03-19T09:57:11Z</time>
      </trkpt>
      <trkpt lat="48.61419" lon="2.10511">
        <ele>108</ele>
        <time>2010-03-19T09:57:12Z</time>
      </trkpt>
      <trkpt lat="48.61419" lon="2.10509">
        <ele>108</ele>
        <time>2010-03-19T09:57:13Z</time>
      </trkpt>
      <trkpt lat="48.6142" lon="2.10507">
        <ele>108</ele>
        <time>2010-03-19T09:57:14Z</time>
      </trkpt>
      <trkpt lat="48.6142" lon="2.10506">
        <ele>108</ele>
        <time>2010-03-19T09:57:15Z</time>
      </trkpt>
      <trkpt lat="48.61421" lon="2.10504">
        <ele>108</ele>
        <time>2010-03-19T09:57:16Z</time>
      </trkpt>
      <trkpt lat="48.61422" lon="2.10503">
        <ele>108</ele>
        <time>2010-03-19T09:57:17Z</time>
      </trkpt>
      <trkpt lat="48.61422" lon="2.10501">
        <ele>108</ele>
        <time>2010-03-19T09:57:18Z</time>
      </trkpt>
      <trkpt lat="48.61422" lon="2.10499">
        <ele>108</ele>
        <time>2010-03-19T09:57:19Z</time>
      </trkpt>
      <trkpt lat="48.61423" lon="2.10497">
        <ele>108</ele>
        <time>2010-03-19T09:57:20Z</time>
      </trkpt>
      <trkpt lat="48.61423" lon="2.10495">
        <ele>108</ele>
        <time>2010-03-19T09:57:21Z</time>
      </trkpt>
      <trkpt lat="48.61424" lon="2.10494">
        <ele>108</ele>
        <time>2010-03-19T09:57:22Z</time>
      </trkpt>
      <trkpt lat="48.61424" lon="2.10492">
        <ele>108</ele>
        <time>2010-03-19T09:57:23Z</time>
      </trkpt>
      <trkpt lat="48.61425" lon="2.1049">
        <ele>108</ele>
        <time>2010-03-19T09:57:24Z</time>
      </trkpt>
      <trkpt lat="48.61426" lon="2.10488">
        <ele>108</ele>
        <time>2010-03-19T09:57:25Z</time>
      </trkpt>
      <trkpt lat="48.61427" lon="2.10486">
        <ele>108</ele>
        <time>2010-03-19T09:57:26Z</time>
      </trkpt>
      <trkpt lat="48.61427" lon="2.10484">
        <ele>108</ele>
        <time>2010-03-19T09:57:27Z</time>
      </trkpt>
      <trkpt lat="48.61428" lon="2.10482">
        <ele>108</ele>
        <time>2010-03-19T09:57:28Z</time>
      </trkpt>
      <trkpt lat="48.61428" lon="2.1048">
        <ele>108</ele>
        <time>2010-03-19T09:57:29Z</time>
      </trkpt>
      <trkpt lat="48.61429" lon="2.10478">
        <ele>108</ele>
        <time>2010-03-19T09:57:30Z</time>
      </trkpt>
      <trkpt lat="48.6143" lon="2.10477">
        <ele>108</ele>
        <time>2010-03-19T09:57:31Z</time>
      </trkpt>
      <trkpt lat="48.61431" lon="2.10475">
        <ele>108</ele>
        <time>2010-03-19T09:57:32Z</time>
      </trkpt>
      <trkpt lat="48.61432" lon="2.10473">
        <ele>108</ele>
        <time>2010-03-19T09:57:33Z</time>
      </trkpt>
      <trkpt lat="48.61432" lon="2.10471">
        <ele>108</ele>
        <time>2010-03-19T09:57:34Z</time>
      </trkpt>
      <trkpt lat="48.61433" lon="2.1047">
        <ele>108</ele>
        <time>2010-03-19T09:57:35Z</time>
      </trkpt>
      <trkpt lat="48.61434" lon="2.10468">
        <ele>108</ele>
        <time>2010-03-19T09:57:36Z</time>
      </trkpt>
      <trkpt lat="48.61435" lon="2.10466">
        <ele>108</ele>
        <time>2010-03-19T09:57:37Z</time>
      </trkpt>
      <trkpt lat="48.61437" lon="2.10463">
        <ele>108</ele>
        <time>2010-03-19T09:57:39Z</time>
      </trkpt>
      <trkpt lat="48.61439" lon="2.1046">
        <ele>108</ele>
        <time>2010-03-19T09:57:41Z</time>
      </trkpt>
      <trkpt lat="48.6144" lon="2.10459">
        <ele>108</ele>
        <time>2010-03-19T09:57:42Z</time>
      </trkpt>
      <trkpt lat="48.61441" lon="2.10456">
        <ele>108</ele>
        <time>2010-03-19T09:57:44Z</time>
      </trkpt>
      <trkpt lat="48.61442" lon="2.10454">
        <ele>108</ele>
        <time>2010-03-19T09:57:45Z</time>
      </trkpt>
      <trkpt lat="48.61443" lon="2.10451">
        <ele>108</ele>
        <time>2010-03-19T09:57:46Z</time>
      </trkpt>
      <trkpt lat="48.61443" lon="2.10448">
        <ele>108</ele>
        <time>2010-03-19T09:57:47Z</time>
      </trkpt>
      <trkpt lat="48.61444" lon="2.10445">
        <ele>108</ele>
        <time>2010-03-19T09:57:48Z</time>
      </trkpt>
      <trkpt lat="48.61445" lon="2.10442">
        <ele>108</ele>
        <time>2010-03-19T09:57:49Z</time>
      </trkpt>
      <trkpt lat="48.61446" lon="2.1044">
        <ele>108</ele>
        <time>2010-03-19T09:57:50Z</time>
      </trkpt>
      <trkpt lat="48.61447" lon="2.10438">
        <ele>108</ele>
        <time>2010-03-19T09:57:51Z</time>
      </trkpt>
      <trkpt lat="48.61448" lon="2.10436">
        <ele>108</ele>
        <time>2010-03-19T09:57:52Z</time>
      </trkpt>
      <trkpt lat="48.61449" lon="2.10435">
        <ele>108</ele>
        <time>2010-03-19T09:57:53Z</time>
      </trkpt>
      <trkpt lat="48.6145" lon="2.10433">
        <ele>108</ele>
        <time>2010-03-19T09:57:54Z</time>
      </trkpt>
      <trkpt lat="48.61451" lon="2.10431">
        <ele>108</ele>
        <time>2010-03-19T09:57:55Z</time>
      </trkpt>
      <trkpt lat="48.61452" lon="2.10429">
        <ele>108</ele>
        <time>2010-03-19T09:57:56Z</time>
      </trkpt>
      <trkpt lat="48.61453" lon="2.10427">
        <ele>108</ele>
        <time>2010-03-19T09:57:57Z</time>
      </trkpt>
      <trkpt lat="48.61454" lon="2.10425">
        <ele>108</ele>
        <time>2010-03-19T09:57:58Z</time>
      </trkpt>
      <trkpt lat="48.61455" lon="2.10423">
        <ele>108</ele>
        <time>2010-03-19T09:57:59Z</time>
      </trkpt>
      <trkpt lat="48.61456" lon="2.10422">
        <ele>108</ele>
        <time>2010-03-19T09:58:00Z</time>
      </trkpt>
      <trkpt lat="48.61457" lon="2.1042">
        <ele>108</ele>
        <time>2010-03-19T09:58:01Z</time>
      </trkpt>
      <trkpt lat="48.6146" lon="2.10417">
        <ele>108</ele>
        <time>2010-03-19T09:58:03Z</time>
      </trkpt>
      <trkpt lat="48.61461" lon="2.10416">
        <ele>108</ele>
        <time>2010-03-19T09:58:04Z</time>
      </trkpt>
      <trkpt lat="48.61462" lon="2.10414">
        <ele>108</ele>
        <time>2010-03-19T09:58:05Z</time>
      </trkpt>
      <trkpt lat="48.61463" lon="2.10412">
        <ele>108</ele>
        <time>2010-03-19T09:58:06Z</time>
      </trkpt>
      <trkpt lat="48.61464" lon="2.10411">
        <ele>108</ele>
        <time>2010-03-19T09:58:07Z</time>
      </trkpt>
      <trkpt lat="48.61465" lon="2.10409">
        <ele>108</ele>
        <time>2010-03-19T09:58:08Z</time>
      </trkpt>
      <trkpt lat="48.61466" lon="2.10408">
        <ele>108</ele>
        <time>2010-03-19T09:58:09Z</time>
      </trkpt>
      <trkpt lat="48.61468" lon="2.10407">
        <ele>108</ele>
        <time>2010-03-19T09:58:10Z</time>
      </trkpt>
      <trkpt lat="48.61469" lon="2.10406">
        <ele>108</ele>
        <time>2010-03-19T09:58:11Z</time>
      </trkpt>
      <trkpt lat="48.61471" lon="2.10404">
        <ele>108</ele>
        <time>2010-03-19T09:58:13Z</time>
      </trkpt>
      <trkpt lat="48.61472" lon="2.10402">
        <ele>108</ele>
        <time>2010-03-19T09:58:14Z</time>
      </trkpt>
      <trkpt lat="48.61473" lon="2.10401">
        <ele>108</ele>
        <time>2010-03-19T09:58:15Z</time>
      </trkpt>
      <trkpt lat="48.61473" lon="2.10399">
        <ele>108</ele>
        <time>2010-03-19T09:58:16Z</time>
      </trkpt>
      <trkpt lat="48.61473" lon="2.10397">
        <ele>108</ele>
        <time>2010-03-19T09:58:17Z</time>
      </trkpt>
      <trkpt lat="48.61474" lon="2.10395">
        <ele>108</ele>
        <time>2010-03-19T09:58:18Z</time>
      </trkpt>
      <trkpt lat="48.61477" lon="2.10392">
        <ele>108</ele>
        <time>2010-03-19T09:58:20Z</time>
      </trkpt>
      <trkpt lat="48.61478" lon="2.1039">
        <ele>108</ele>
        <time>2010-03-19T09:58:21Z</time>
      </trkpt>
      <trkpt lat="48.61478" lon="2.10389">
        <ele>108</ele>
        <time>2010-03-19T09:58:22Z</time>
      </trkpt>
      <trkpt lat="48.6148" lon="2.10387">
        <ele>108</ele>
        <time>2010-03-19T09:58:23Z</time>
      </trkpt>
      <trkpt lat="48.61481" lon="2.10385">
        <ele>108</ele>
        <time>2010-03-19T09:58:24Z</time>
      </trkpt>
      <trkpt lat="48.61481" lon="2.10384">
        <ele>108</ele>
        <time>2010-03-19T09:58:25Z</time>
      </trkpt>
      <trkpt lat="48.61483" lon="2.10382">
        <ele>108</ele>
        <time>2010-03-19T09:58:26Z</time>
      </trkpt>
      <trkpt lat="48.61484" lon="2.10381">
        <ele>108</ele>
        <time>2010-03-19T09:58:27Z</time>
      </trkpt>
      <trkpt lat="48.61485" lon="2.10379">
        <ele>108</ele>
        <time>2010-03-19T09:58:28Z</time>
      </trkpt>
      <trkpt lat="48.61486" lon="2.10377">
        <ele>108</ele>
        <time>2010-03-19T09:58:29Z</time>
      </trkpt>
      <trkpt lat="48.61487" lon="2.10375">
        <ele>108</ele>
        <time>2010-03-19T09:58:30Z</time>
      </trkpt>
      <trkpt lat="48.61488" lon="2.10373">
        <ele>108</ele>
        <time>2010-03-19T09:58:31Z</time>
      </trkpt>
      <trkpt lat="48.61489" lon="2.10371">
        <ele>108</ele>
        <time>2010-03-19T09:58:32Z</time>
      </trkpt>
      <trkpt lat="48.61489" lon="2.10369">
        <ele>108</ele>
        <time>2010-03-19T09:58:33Z</time>
      </trkpt>
      <trkpt lat="48.61491" lon="2.10368">
        <ele>108</ele>
        <time>2010-03-19T09:58:34Z</time>
      </trkpt>
      <trkpt lat="48.61492" lon="2.10366">
        <ele>108</ele>
        <time>2010-03-19T09:58:35Z</time>
      </trkpt>
      <trkpt lat="48.61493" lon="2.10364">
        <ele>108</ele>
        <time>2010-03-19T09:58:36Z</time>
      </trkpt>
      <trkpt lat="48.61494" lon="2.10363">
        <ele>108</ele>
        <time>2010-03-19T09:58:37Z</time>
      </trkpt>
      <trkpt lat="48.61495" lon="2.10361">
        <ele>108</ele>
        <time>2010-03-19T09:58:38Z</time>
      </trkpt>
      <trkpt lat="48.61496" lon="2.1036">
        <ele>108</ele>
        <time>2010-03-19T09:58:39Z</time>
      </trkpt>
      <trkpt lat="48.61498" lon="2.10357">
        <ele>108</ele>
        <time>2010-03-19T09:58:41Z</time>
      </trkpt>
      <trkpt lat="48.615" lon="2.10355">
        <ele>108</ele>
        <time>2010-03-19T09:58:43Z</time>
      </trkpt>
      <trkpt lat="48.61501" lon="2.10352">
        <ele>108</ele>
        <time>2010-03-19T09:58:45Z</time>
      </trkpt>
      <trkpt lat="48.61502" lon="2.10349">
        <ele>108</ele>
        <time>2010-03-19T09:58:47Z</time>
      </trkpt>
      <trkpt lat="48.61504" lon="2.10347">
        <ele>108</ele>
        <time>2010-03-19T09:58:49Z</time>
      </trkpt>
      <trkpt lat="48.61505" lon="2.10343">
        <ele>108</ele>
        <time>2010-03-19T09:58:51Z</time>
      </trkpt>
      <trkpt lat="48.61507" lon="2.1034">
        <ele>108</ele>
        <time>2010-03-19T09:58:53Z</time>
      </trkpt>
      <trkpt lat="48.61507" lon="2.10339">
        <ele>108</ele>
        <time>2010-03-19T09:58:54Z</time>
      </trkpt>
      <trkpt lat="48.61509" lon="2.10337">
        <ele>108</ele>
        <time>2010-03-19T09:58:55Z</time>
      </trkpt>
      <trkpt lat="48.61509" lon="2.10335">
        <ele>108</ele>
        <time>2010-03-19T09:58:56Z</time>
      </trkpt>
      <trkpt lat="48.6151" lon="2.10333">
        <ele>108</ele>
        <time>2010-03-19T09:58:57Z</time>
      </trkpt>
      <trkpt lat="48.61511" lon="2.10332">
        <ele>108</ele>
        <time>2010-03-19T09:58:58Z</time>
      </trkpt>
      <trkpt lat="48.61512" lon="2.1033">
        <ele>108</ele>
        <time>2010-03-19T09:58:59Z</time>
      </trkpt>
      <trkpt lat="48.61512" lon="2.10328">
        <ele>108</ele>
        <time>2010-03-19T09:59:00Z</time>
      </trkpt>
      <trkpt lat="48.61513" lon="2.10326">
        <ele>108</ele>
        <time>2010-03-19T09:59:01Z</time>
      </trkpt>
      <trkpt lat="48.61513" lon="2.10324">
        <ele>108</ele>
        <time>2010-03-19T09:59:02Z</time>
      </trkpt>
      <trkpt lat="48.61514" lon="2.10322">
        <ele>108</ele>
        <time>2010-03-19T09:59:03Z</time>
      </trkpt>
      <trkpt lat="48.61514" lon="2.1032">
        <ele>108</ele>
        <time>2010-03-19T09:59:04Z</time>
      </trkpt>
      <trkpt lat="48.61515" lon="2.10318">
        <ele>108</ele>
        <time>2010-03-19T09:59:05Z</time>
      </trkpt>
      <trkpt lat="48.61515" lon="2.10316">
        <ele>108</ele>
        <time>2010-03-19T09:59:06Z</time>
      </trkpt>
      <trkpt lat="48.61516" lon="2.10314">
        <ele>108</ele>
        <time>2010-03-19T09:59:07Z</time>
      </trkpt>
      <trkpt lat="48.61517" lon="2.10312">
        <ele>108</ele>
        <time>2010-03-19T09:59:08Z</time>
      </trkpt>
      <trkpt lat="48.61518" lon="2.1031">
        <ele>108</ele>
        <time>2010-03-19T09:59:09Z</time>
      </trkpt>
      <trkpt lat="48.61518" lon="2.10308">
        <ele>108</ele>
        <time>2010-03-19T09:59:10Z</time>
      </trkpt>
      <trkpt lat="48.61518" lon="2.10306">
        <ele>108</ele>
        <time>2010-03-19T09:59:11Z</time>
      </trkpt>
      <trkpt lat="48.61519" lon="2.10304">
        <ele>108</ele>
        <time>2010-03-19T09:59:12Z</time>
      </trkpt>
      <trkpt lat="48.6152" lon="2.10302">
        <ele>108</ele>
        <time>2010-03-19T09:59:13Z</time>
      </trkpt>
      <trkpt lat="48.6152" lon="2.103">
        <ele>108</ele>
        <time>2010-03-19T09:59:14Z</time>
      </trkpt>
      <trkpt lat="48.61521" lon="2.10298">
        <ele>108</ele>
        <time>2010-03-19T09:59:15Z</time>
      </trkpt>
      <trkpt lat="48.61521" lon="2.10296">
        <ele>108</ele>
        <time>2010-03-19T09:59:16Z</time>
      </trkpt>
      <trkpt lat="48.61522" lon="2.10294">
        <ele>108</ele>
        <time>2010-03-19T09:59:17Z</time>
      </trkpt>
      <trkpt lat="48.61522" lon="2.10292">
        <ele>108</ele>
        <time>2010-03-19T09:59:18Z</time>
      </trkpt>
      <trkpt lat="48.61523" lon="2.1029">
        <ele>108</ele>
        <time>2010-03-19T09:59:19Z</time>
      </trkpt>
      <trkpt lat="48.61523" lon="2.10289">
        <ele>108</ele>
        <time>2010-03-19T09:59:20Z</time>
      </trkpt>
      <trkpt lat="48.61525" lon="2.10287">
        <ele>108</ele>
        <time>2010-03-19T09:59:21Z</time>
      </trkpt>
      <trkpt lat="48.61525" lon="2.10285">
        <ele>108</ele>
        <time>2010-03-19T09:59:22Z</time>
      </trkpt>
      <trkpt lat="48.61526" lon="2.10283">
        <ele>108</ele>
        <time>2010-03-19T09:59:23Z</time>
      </trkpt>
      <trkpt lat="48.61526" lon="2.10281">
        <ele>108</ele>
        <time>2010-03-19T09:59:24Z</time>
      </trkpt>
      <trkpt lat="48.61527" lon="2.10279">
        <ele>108</ele>
        <time>2010-03-19T09:59:25Z</time>
      </trkpt>
      <trkpt lat="48.61527" lon="2.10277">
        <ele>108</ele>
        <time>2010-03-19T09:59:26Z</time>
      </trkpt>
      <trkpt lat="48.61528" lon="2.10275">
        <ele>108</ele>
        <time>2010-03-19T09:59:27Z</time>
      </trkpt>
      <trkpt lat="48.61529" lon="2.10273">
        <ele>108</ele>
        <time>2010-03-19T09:59:28Z</time>
      </trkpt>
      <trkpt lat="48.61529" lon="2.10271">
        <ele>108</ele>
        <time>2010-03-19T09:59:29Z</time>
      </trkpt>
      <trkpt lat="48.6153" lon="2.10269">
        <ele>108</ele>
        <time>2010-03-19T09:59:30Z</time>
      </trkpt>
      <trkpt lat="48.6153" lon="2.10267">
        <ele>108</ele>
        <time>2010-03-19T09:59:31Z</time>
      </trkpt>
      <trkpt lat="48.61531" lon="2.10265">
        <ele>108</ele>
        <time>2010-03-19T09:59:32Z</time>
      </trkpt>
      <trkpt lat="48.61531" lon="2.10263">
        <ele>108</ele>
        <time>2010-03-19T09:59:33Z</time>
      </trkpt>
      <trkpt lat="48.61532" lon="2.10261">
        <ele>108</ele>
        <time>2010-03-19T09:59:34Z</time>
      </trkpt>
      <trkpt lat="48.61533" lon="2.10259">
        <ele>108</ele>
        <time>2010-03-19T09:59:35Z</time>
      </trkpt>
      <trkpt lat="48.61534" lon="2.10257">
        <ele>108</ele>
        <time>2010-03-19T09:59:36Z</time>
      </trkpt>
      <trkpt lat="48.61535" lon="2.10255">
        <ele>108</ele>
        <time>2010-03-19T09:59:37Z</time>
      </trkpt>
      <trkpt lat="48.61535" lon="2.10253">
        <ele>108</ele>
        <time>2010-03-19T09:59:38Z</time>
      </trkpt>
      <trkpt lat="48.61535" lon="2.1025">
        <ele>108</ele>
        <time>2010-03-19T09:59:39Z</time>
      </trkpt>
      <trkpt lat="48.61536" lon="2.10249">
        <ele>108</ele>
        <time>2010-03-19T09:59:40Z</time>
      </trkpt>
      <trkpt lat="48.61536" lon="2.10247">
        <ele>108</ele>
        <time>2010-03-19T09:59:41Z</time>
      </trkpt>
      <trkpt lat="48.61537" lon="2.10245">
        <ele>108</ele>
        <time>2010-03-19T09:59:42Z</time>
      </trkpt>
      <trkpt lat="48.61538" lon="2.10243">
        <ele>108</ele>
        <time>2010-03-19T09:59:43Z</time>
      </trkpt>
      <trkpt lat="48.61538" lon="2.10241">
        <ele>108</ele>
        <time>2010-03-19T09:59:44Z</time>
      </trkpt>
      <trkpt lat="48.61539" lon="2.10238">
        <ele>108</ele>
        <time>2010-03-19T09:59:45Z</time>
      </trkpt>
      <trkpt lat="48.61539" lon="2.10236">
        <ele>108</ele>
        <time>2010-03-19T09:59:46Z</time>
      </trkpt>
      <trkpt lat="48.6154" lon="2.10234">
        <ele>108</ele>
        <time>2010-03-19T09:59:47Z</time>
      </trkpt>
      <trkpt lat="48.6154" lon="2.10232">
        <ele>108</ele>
        <time>2010-03-19T09:59:48Z</time>
      </trkpt>
      <trkpt lat="48.61541" lon="2.1023">
        <ele>108</ele>
        <time>2010-03-19T09:59:49Z</time>
      </trkpt>
      <trkpt lat="48.61542" lon="2.10228">
        <ele>108</ele>
        <time>2010-03-19T09:59:50Z</time>
      </trkpt>
      <trkpt lat="48.61542" lon="2.10226">
        <ele>108</ele>
        <time>2010-03-19T09:59:51Z</time>
      </trkpt>
      <trkpt lat="48.61543" lon="2.10224">
        <ele>108</ele>
        <time>2010-03-19T09:59:52Z</time>
      </trkpt>
      <trkpt lat="48.61543" lon="2.10222">
        <ele>108</ele>
        <time>2010-03-19T09:59:53Z</time>
      </trkpt>
      <trkpt lat="48.61544" lon="2.10219">
        <ele>108</ele>
        <time>2010-03-19T09:59:54Z</time>
      </trkpt>
      <trkpt lat="48.61544" lon="2.10217">
        <ele>108</ele>
        <time>2010-03-19T09:59:55Z</time>
      </trkpt>
      <trkpt lat="48.61544" lon="2.10215">
        <ele>109</ele>
        <time>2010-03-19T09:59:56Z</time>
      </trkpt>
      <trkpt lat="48.61545" lon="2.10213">
        <ele>109</ele>
        <time>2010-03-19T09:59:58Z</time>
      </trkpt>
      <trkpt lat="48.61546" lon="2.1021">
        <ele>109</ele>
        <time>2010-03-19T09:59:58Z</time>
      </trkpt>
      <trkpt lat="48.61546" lon="2.10209">
        <ele>109</ele>
        <time>2010-03-19T09:59:59Z</time>
      </trkpt>
      <trkpt lat="48.61547" lon="2.10206">
        <ele>109</ele>
        <time>2010-03-19T10:00:00Z</time>
      </trkpt>
      <trkpt lat="48.61547" lon="2.10204">
        <ele>109</ele>
        <time>2010-03-19T10:00:01Z</time>
      </trkpt>
      <trkpt lat="48.61548" lon="2.10202">
        <ele>109</ele>
        <time>2010-03-19T10:00:02Z</time>
      </trkpt>
      <trkpt lat="48.61549" lon="2.102">
        <ele>109</ele>
        <time>2010-03-19T10:00:03Z</time>
      </trkpt>
      <trkpt lat="48.6155" lon="2.10199">
        <ele>109</ele>
        <time>2010-03-19T10:00:04Z</time>
      </trkpt>
      <trkpt lat="48.61551" lon="2.10197">
        <ele>109</ele>
        <time>2010-03-19T10:00:05Z</time>
      </trkpt>
      <trkpt lat="48.61552" lon="2.10196">
        <ele>109</ele>
        <time>2010-03-19T10:00:06Z</time>
      </trkpt>
      <trkpt lat="48.61554" lon="2.10194">
        <ele>109</ele>
        <time>2010-03-19T10:00:07Z</time>
      </trkpt>
      <trkpt lat="48.61554" lon="2.10192">
        <ele>110</ele>
        <time>2010-03-19T10:00:08Z</time>
      </trkpt>
      <trkpt lat="48.61555" lon="2.10191">
        <ele>110</ele>
        <time>2010-03-19T10:00:09Z</time>
      </trkpt>
      <trkpt lat="48.61556" lon="2.10189">
        <ele>110</ele>
        <time>2010-03-19T10:00:10Z</time>
      </trkpt>
      <trkpt lat="48.61556" lon="2.10187">
        <ele>110</ele>
        <time>2010-03-19T10:00:11Z</time>
      </trkpt>
      <trkpt lat="48.61557" lon="2.10184">
        <ele>110</ele>
        <time>2010-03-19T10:00:12Z</time>
      </trkpt>
      <trkpt lat="48.61557" lon="2.10182">
        <ele>110</ele>
        <time>2010-03-19T10:00:13Z</time>
      </trkpt>
      <trkpt lat="48.61558" lon="2.1018">
        <ele>110</ele>
        <time>2010-03-19T10:00:14Z</time>
      </trkpt>
      <trkpt lat="48.61559" lon="2.10178">
        <ele>110</ele>
        <time>2010-03-19T10:00:15Z</time>
      </trkpt>
      <trkpt lat="48.61559" lon="2.10176">
        <ele>110</ele>
        <time>2010-03-19T10:00:16Z</time>
      </trkpt>
      <trkpt lat="48.61559" lon="2.10174">
        <ele>110</ele>
        <time>2010-03-19T10:00:17Z</time>
      </trkpt>
      <trkpt lat="48.6156" lon="2.10171">
        <ele>110</ele>
        <time>2010-03-19T10:00:18Z</time>
      </trkpt>
      <trkpt lat="48.6156" lon="2.10169">
        <ele>110</ele>
        <time>2010-03-19T10:00:19Z</time>
      </trkpt>
      <trkpt lat="48.6156" lon="2.10167">
        <ele>110</ele>
        <time>2010-03-19T10:00:20Z</time>
      </trkpt>
      <trkpt lat="48.61561" lon="2.10164">
        <ele>110</ele>
        <time>2010-03-19T10:00:21Z</time>
      </trkpt>
      <trkpt lat="48.61561" lon="2.10162">
        <ele>110</ele>
        <time>2010-03-19T10:00:22Z</time>
      </trkpt>
      <trkpt lat="48.61561" lon="2.1016">
        <ele>110</ele>
        <time>2010-03-19T10:00:23Z</time>
      </trkpt>
      <trkpt lat="48.61562" lon="2.10157">
        <ele>110</ele>
        <time>2010-03-19T10:00:24Z</time>
      </trkpt>
      <trkpt lat="48.61562" lon="2.10155">
        <ele>110</ele>
        <time>2010-03-19T10:00:25Z</time>
      </trkpt>
      <trkpt lat="48.61563" lon="2.10152">
        <ele>110</ele>
        <time>2010-03-19T10:00:26Z</time>
      </trkpt>
      <trkpt lat="48.61563" lon="2.1015">
        <ele>110</ele>
        <time>2010-03-19T10:00:27Z</time>
      </trkpt>
      <trkpt lat="48.61563" lon="2.10148">
        <ele>110</ele>
        <time>2010-03-19T10:00:28Z</time>
      </trkpt>
      <trkpt lat="48.61564" lon="2.10145">
        <ele>111</ele>
        <time>2010-03-19T10:00:29Z</time>
      </trkpt>
      <trkpt lat="48.61564" lon="2.10142">
        <ele>111</ele>
        <time>2010-03-19T10:00:30Z</time>
      </trkpt>
      <trkpt lat="48.61565" lon="2.1014">
        <ele>111</ele>
        <time>2010-03-19T10:00:31Z</time>
      </trkpt>
      <trkpt lat="48.61565" lon="2.10138">
        <ele>111</ele>
        <time>2010-03-19T10:00:32Z</time>
      </trkpt>
      <trkpt lat="48.61566" lon="2.10136">
        <ele>111</ele>
        <time>2010-03-19T10:00:33Z</time>
      </trkpt>
      <trkpt lat="48.61566" lon="2.10134">
        <ele>111</ele>
        <time>2010-03-19T10:00:34Z</time>
      </trkpt>
      <trkpt lat="48.61566" lon="2.10131">
        <ele>111</ele>
        <time>2010-03-19T10:00:35Z</time>
      </trkpt>
      <trkpt lat="48.61567" lon="2.10129">
        <ele>111</ele>
        <time>2010-03-19T10:00:36Z</time>
      </trkpt>
      <trkpt lat="48.61567" lon="2.10126">
        <ele>111</ele>
        <time>2010-03-19T10:00:37Z</time>
      </trkpt>
      <trkpt lat="48.61567" lon="2.10124">
        <ele>111</ele>
        <time>2010-03-19T10:00:38Z</time>
      </trkpt>
      <trkpt lat="48.61568" lon="2.10121">
        <ele>111</ele>
        <time>2010-03-19T10:00:39Z</time>
      </trkpt>
      <trkpt lat="48.61568" lon="2.10119">
        <ele>111</ele>
        <time>2010-03-19T10:00:40Z</time>
      </trkpt>
      <trkpt lat="48.61568" lon="2.10117">
        <ele>111</ele>
        <time>2010-03-19T10:00:41Z</time>
      </trkpt>
      <trkpt lat="48.61568" lon="2.10115">
        <ele>111</ele>
        <time>2010-03-19T10:00:42Z</time>
      </trkpt>
      <trkpt lat="48.61569" lon="2.10112">
        <ele>111</ele>
        <time>2010-03-19T10:00:43Z</time>
      </trkpt>
      <trkpt lat="48.61569" lon="2.1011">
        <ele>111</ele>
        <time>2010-03-19T10:00:44Z</time>
      </trkpt>
      <trkpt lat="48.6157" lon="2.10107">
        <ele>112</ele>
        <time>2010-03-19T10:00:45Z</time>
      </trkpt>
      <trkpt lat="48.6157" lon="2.10105">
        <ele>112</ele>
        <time>2010-03-19T10:00:46Z</time>
      </trkpt>
      <trkpt lat="48.6157" lon="2.10102">
        <ele>112</ele>
        <time>2010-03-19T10:00:47Z</time>
      </trkpt>
      <trkpt lat="48.6157" lon="2.101">
        <ele>112</ele>
        <time>2010-03-19T10:00:48Z</time>
      </trkpt>
      <trkpt lat="48.61571" lon="2.10098">
        <ele>112</ele>
        <time>2010-03-19T10:00:49Z</time>
      </trkpt>
      <trkpt lat="48.61571" lon="2.10095">
        <ele>112</ele>
        <time>2010-03-19T10:00:50Z</time>
      </trkpt>
      <trkpt lat="48.61572" lon="2.10093">
        <ele>112</ele>
        <time>2010-03-19T10:00:51Z</time>
      </trkpt>
      <trkpt lat="48.61572" lon="2.10091">
        <ele>112</ele>
        <time>2010-03-19T10:00:52Z</time>
      </trkpt>
      <trkpt lat="48.61572" lon="2.10088">
        <ele>112</ele>
        <time>2010-03-19T10:00:53Z</time>
      </trkpt>
      <trkpt lat="48.61572" lon="2.10086">
        <ele>112</ele>
        <time>2010-03-19T10:00:54Z</time>
      </trkpt>
      <trkpt lat="48.61573" lon="2.10084">
        <ele>112</ele>
        <time>2010-03-19T10:00:55Z</time>
      </trkpt>
      <trkpt lat="48.61573" lon="2.10082">
        <ele>112</ele>
        <time>2010-03-19T10:00:56Z</time>
      </trkpt>
      <trkpt lat="48.61573" lon="2.10079">
        <ele>112</ele>
        <time>2010-03-19T10:00:57Z</time>
      </trkpt>
      <trkpt lat="48.61573" lon="2.10077">
        <ele>112</ele>
        <time>2010-03-19T10:00:58Z</time>
      </trkpt>
      <trkpt lat="48.61573" lon="2.10074">
        <ele>112</ele>
        <time>2010-03-19T10:00:59Z</time>
      </trkpt>
      <trkpt lat="48.61573" lon="2.10072">
        <ele>112</ele>
        <time>2010-03-19T10:01:00Z</time>
      </trkpt>
      <trkpt lat="48.61573" lon="2.10069">
        <ele>112</ele>
        <time>2010-03-19T10:01:01Z</time>
      </trkpt>
      <trkpt lat="48.61574" lon="2.10067">
        <ele>112</ele>
        <time>2010-03-19T10:01:02Z</time>
      </trkpt>
      <trkpt lat="48.61575" lon="2.10065">
        <ele>112</ele>
        <time>2010-03-19T10:01:03Z</time>
      </trkpt>
      <trkpt lat="48.61575" lon="2.10062">
        <ele>112</ele>
        <time>2010-03-19T10:01:04Z</time>
      </trkpt>
      <trkpt lat="48.61575" lon="2.1006">
        <ele>112</ele>
        <time>2010-03-19T10:01:05Z</time>
      </trkpt>
      <trkpt lat="48.61575" lon="2.10057">
        <ele>112</ele>
        <time>2010-03-19T10:01:06Z</time>
      </trkpt>
      <trkpt lat="48.61575" lon="2.10055">
        <ele>112</ele>
        <time>2010-03-19T10:01:07Z</time>
      </trkpt>
      <trkpt lat="48.61575" lon="2.10052">
        <ele>112</ele>
        <time>2010-03-19T10:01:08Z</time>
      </trkpt>
      <trkpt lat="48.61576" lon="2.1005">
        <ele>112</ele>
        <time>2010-03-19T10:01:09Z</time>
      </trkpt>
      <trkpt lat="48.61576" lon="2.10048">
        <ele>112</ele>
        <time>2010-03-19T10:01:10Z</time>
      </trkpt>
      <trkpt lat="48.61576" lon="2.10045">
        <ele>112</ele>
        <time>2010-03-19T10:01:11Z</time>
      </trkpt>
      <trkpt lat="48.61576" lon="2.10043">
        <ele>112</ele>
        <time>2010-03-19T10:01:12Z</time>
      </trkpt>
      <trkpt lat="48.61576" lon="2.1004">
        <ele>112</ele>
        <time>2010-03-19T10:01:13Z</time>
      </trkpt>
      <trkpt lat="48.61576" lon="2.10038">
        <ele>112</ele>
        <time>2010-03-19T10:01:14Z</time>
      </trkpt>
      <trkpt lat="48.61576" lon="2.10036">
        <ele>112</ele>
        <time>2010-03-19T10:01:15Z</time>
      </trkpt>
      <trkpt lat="48.61576" lon="2.10033">
        <ele>112</ele>
        <time>2010-03-19T10:01:16Z</time>
      </trkpt>
      <trkpt lat="48.61577" lon="2.10031">
        <ele>112</ele>
        <time>2010-03-19T10:01:17Z</time>
      </trkpt>
      <trkpt lat="48.61577" lon="2.10029">
        <ele>112</ele>
        <time>2010-03-19T10:01:18Z</time>
      </trkpt>
      <trkpt lat="48.61577" lon="2.10026">
        <ele>113</ele>
        <time>2010-03-19T10:01:19Z</time>
      </trkpt>
      <trkpt lat="48.61578" lon="2.10024">
        <ele>113</ele>
        <time>2010-03-19T10:01:20Z</time>
      </trkpt>
      <trkpt lat="48.61578" lon="2.10022">
        <ele>113</ele>
        <time>2010-03-19T10:01:21Z</time>
      </trkpt>
      <trkpt lat="48.61578" lon="2.10019">
        <ele>113</ele>
        <time>2010-03-19T10:01:22Z</time>
      </trkpt>
      <trkpt lat="48.61578" lon="2.10017">
        <ele>113</ele>
        <time>2010-03-19T10:01:23Z</time>
      </trkpt>
      <trkpt lat="48.61578" lon="2.10014">
        <ele>113</ele>
        <time>2010-03-19T10:01:24Z</time>
      </trkpt>
      <trkpt lat="48.61578" lon="2.10012">
        <ele>113</ele>
        <time>2010-03-19T10:01:25Z</time>
      </trkpt>
      <trkpt lat="48.61578" lon="2.10009">
        <ele>113</ele>
        <time>2010-03-19T10:01:26Z</time>
      </trkpt>
      <trkpt lat="48.61578" lon="2.10007">
        <ele>113</ele>
        <time>2010-03-19T10:01:27Z</time>
      </trkpt>
      <trkpt lat="48.61579" lon="2.10004">
        <ele>113</ele>
        <time>2010-03-19T10:01:28Z</time>
      </trkpt>
      <trkpt lat="48.61579" lon="2.10002">
        <ele>113</ele>
        <time>2010-03-19T10:01:29Z</time>
      </trkpt>
      <trkpt lat="48.61579" lon="2.09999">
        <ele>113</ele>
        <time>2010-03-19T10:01:30Z</time>
      </trkpt>
      <trkpt lat="48.61579" lon="2.09997">
        <ele>114</ele>
        <time>2010-03-19T10:01:31Z</time>
      </trkpt>
      <trkpt lat="48.61579" lon="2.09995">
        <ele>114</ele>
        <time>2010-03-19T10:01:32Z</time>
      </trkpt>
      <trkpt lat="48.6158" lon="2.09992">
        <ele>114</ele>
        <time>2010-03-19T10:01:33Z</time>
      </trkpt>
      <trkpt lat="48.6158" lon="2.0999">
        <ele>114</ele>
        <time>2010-03-19T10:01:34Z</time>
      </trkpt>
      <trkpt lat="48.6158" lon="2.09987">
        <ele>114</ele>
        <time>2010-03-19T10:01:35Z</time>
      </trkpt>
      <trkpt lat="48.6158" lon="2.09985">
        <ele>114</ele>
        <time>2010-03-19T10:01:36Z</time>
      </trkpt>
      <trkpt lat="48.6158" lon="2.09983">
        <ele>114</ele>
        <time>2010-03-19T10:01:37Z</time>
      </trkpt>
      <trkpt lat="48.6158" lon="2.0998">
        <ele>114</ele>
        <time>2010-03-19T10:01:38Z</time>
      </trkpt>
      <trkpt lat="48.6158" lon="2.09978">
        <ele>114</ele>
        <time>2010-03-19T10:01:39Z</time>
      </trkpt>
      <trkpt lat="48.61581" lon="2.09976">
        <ele>114</ele>
        <time>2010-03-19T10:01:40Z</time>
      </trkpt>
      <trkpt lat="48.61581" lon="2.09974">
        <ele>114</ele>
        <time>2010-03-19T10:01:41Z</time>
      </trkpt>
      <trkpt lat="48.61581" lon="2.09971">
        <ele>114</ele>
        <time>2010-03-19T10:01:42Z</time>
      </trkpt>
      <trkpt lat="48.61581" lon="2.09969">
        <ele>114</ele>
        <time>2010-03-19T10:01:43Z</time>
      </trkpt>
      <trkpt lat="48.61581" lon="2.09967">
        <ele>114</ele>
        <time>2010-03-19T10:01:44Z</time>
      </trkpt>
      <trkpt lat="48.61581" lon="2.09964">
        <ele>114</ele>
        <time>2010-03-19T10:01:45Z</time>
      </trkpt>
      <trkpt lat="48.61581" lon="2.09962">
        <ele>114</ele>
        <time>2010-03-19T10:01:46Z</time>
      </trkpt>
      <trkpt lat="48.61581" lon="2.0996">
        <ele>114</ele>
        <time>2010-03-19T10:01:47Z</time>
      </trkpt>
      <trkpt lat="48.61581" lon="2.09957">
        <ele>114</ele>
        <time>2010-03-19T10:01:48Z</time>
      </trkpt>
      <trkpt lat="48.61582" lon="2.09955">
        <ele>114</ele>
        <time>2010-03-19T10:01:49Z</time>
      </trkpt>
      <trkpt lat="48.61583" lon="2.09953">
        <ele>114</ele>
        <time>2010-03-19T10:01:50Z</time>
      </trkpt>
      <trkpt lat="48.61583" lon="2.0995">
        <ele>114</ele>
        <time>2010-03-19T10:01:51Z</time>
      </trkpt>
      <trkpt lat="48.61583" lon="2.09948">
        <ele>114</ele>
        <time>2010-03-19T10:01:52Z</time>
      </trkpt>
      <trkpt lat="48.61583" lon="2.09946">
        <ele>114</ele>
        <time>2010-03-19T10:01:53Z</time>
      </trkpt>
      <trkpt lat="48.61583" lon="2.09943">
        <ele>114</ele>
        <time>2010-03-19T10:01:54Z</time>
      </trkpt>
      <trkpt lat="48.61583" lon="2.09941">
        <ele>114</ele>
        <time>2010-03-19T10:01:55Z</time>
      </trkpt>
      <trkpt lat="48.61583" lon="2.09939">
        <ele>115</ele>
        <time>2010-03-19T10:01:56Z</time>
      </trkpt>
      <trkpt lat="48.61583" lon="2.09936">
        <ele>115</ele>
        <time>2010-03-19T10:01:57Z</time>
      </trkpt>
      <trkpt lat="48.61583" lon="2.09934">
        <ele>115</ele>
        <time>2010-03-19T10:01:58Z</time>
      </trkpt>
      <trkpt lat="48.61583" lon="2.09931">
        <ele>115</ele>
        <time>2010-03-19T10:01:59Z</time>
      </trkpt>
      <trkpt lat="48.61583" lon="2.09929">
        <ele>115</ele>
        <time>2010-03-19T10:02:00Z</time>
      </trkpt>
      <trkpt lat="48.61583" lon="2.09927">
        <ele>115</ele>
        <time>2010-03-19T10:02:01Z</time>
      </trkpt>
      <trkpt lat="48.61583" lon="2.09925">
        <ele>115</ele>
        <time>2010-03-19T10:02:02Z</time>
      </trkpt>
      <trkpt lat="48.61583" lon="2.09922">
        <ele>115</ele>
        <time>2010-03-19T10:02:03Z</time>
      </trkpt>
      <trkpt lat="48.61583" lon="2.0992">
        <ele>115</ele>
        <time>2010-03-19T10:02:04Z</time>
      </trkpt>
      <trkpt lat="48.61583" lon="2.09917">
        <ele>115</ele>
        <time>2010-03-19T10:02:05Z</time>
      </trkpt>
      <trkpt lat="48.61583" lon="2.09915">
        <ele>115</ele>
        <time>2010-03-19T10:02:06Z</time>
      </trkpt>
      <trkpt lat="48.61583" lon="2.09913">
        <ele>115</ele>
        <time>2010-03-19T10:02:07Z</time>
      </trkpt>
      <trkpt lat="48.61583" lon="2.09911">
        <ele>115</ele>
        <time>2010-03-19T10:02:08Z</time>
      </trkpt>
      <trkpt lat="48.61583" lon="2.09908">
        <ele>115</ele>
        <time>2010-03-19T10:02:09Z</time>
      </trkpt>
      <trkpt lat="48.61583" lon="2.09906">
        <ele>115</ele>
        <time>2010-03-19T10:02:10Z</time>
      </trkpt>
      <trkpt lat="48.61583" lon="2.09904">
        <ele>115</ele>
        <time>2010-03-19T10:02:11Z</time>
      </trkpt>
      <trkpt lat="48.61583" lon="2.09901">
        <ele>115</ele>
        <time>2010-03-19T10:02:12Z</time>
      </trkpt>
      <trkpt lat="48.61583" lon="2.09899">
        <ele>115</ele>
        <time>2010-03-19T10:02:13Z</time>
      </trkpt>
      <trkpt lat="48.61583" lon="2.09897">
        <ele>115</ele>
        <time>2010-03-19T10:02:14Z</time>
      </trkpt>
      <trkpt lat="48.61583" lon="2.09895">
        <ele>115</ele>
        <time>2010-03-19T10:02:15Z</time>
      </trkpt>
      <trkpt lat="48.61583" lon="2.09892">
        <ele>115</ele>
        <time>2010-03-19T10:02:16Z</time>
      </trkpt>
      <trkpt lat="48.61583" lon="2.0989">
        <ele>115</ele>
        <time>2010-03-19T10:02:17Z</time>
      </trkpt>
      <trkpt lat="48.61583" lon="2.09888">
        <ele>116</ele>
        <time>2010-03-19T10:02:18Z</time>
      </trkpt>
      <trkpt lat="48.61583" lon="2.09886">
        <ele>116</ele>
        <time>2010-03-19T10:02:19Z</time>
      </trkpt>
      <trkpt lat="48.61583" lon="2.09883">
        <ele>116</ele>
        <time>2010-03-19T10:02:20Z</time>
      </trkpt>
      <trkpt lat="48.61583" lon="2.09881">
        <ele>116</ele>
        <time>2010-03-19T10:02:21Z</time>
      </trkpt>
      <trkpt lat="48.61583" lon="2.09879">
        <ele>116</ele>
        <time>2010-03-19T10:02:22Z</time>
      </trkpt>
      <trkpt lat="48.61583" lon="2.09877">
        <ele>116</ele>
        <time>2010-03-19T10:02:23Z</time>
      </trkpt>
      <trkpt lat="48.61583" lon="2.09874">
        <ele>116</ele>
        <time>2010-03-19T10:02:24Z</time>
      </trkpt>
      <trkpt lat="48.61583" lon="2.09872">
        <ele>116</ele>
        <time>2010-03-19T10:02:25Z</time>
      </trkpt>
      <trkpt lat="48.61583" lon="2.0987">
        <ele>116</ele>
        <time>2010-03-19T10:02:26Z</time>
      </trkpt>
      <trkpt lat="48.61583" lon="2.09868">
        <ele>116</ele>
        <time>2010-03-19T10:02:27Z</time>
      </trkpt>
      <trkpt lat="48.61583" lon="2.09865">
        <ele>116</ele>
        <time>2010-03-19T10:02:29Z</time>
      </trkpt>
      <trkpt lat="48.61583" lon="2.09861">
        <ele>116</ele>
        <time>2010-03-19T10:02:35Z</time>
      </trkpt>
      <trkpt lat="48.61583" lon="2.09857">
        <ele>116</ele>
        <time>2010-03-19T10:02:36Z</time>
      </trkpt>
      <trkpt lat="48.61583" lon="2.09853">
        <ele>116</ele>
        <time>2010-03-19T10:02:37Z</time>
      </trkpt>
      <trkpt lat="48.61583" lon="2.09849">
        <ele>116</ele>
        <time>2010-03-19T10:02:38Z</time>
      </trkpt>
      <trkpt lat="48.61583" lon="2.09845">
        <ele>116</ele>
        <time>2010-03-19T10:02:39Z</time>
      </trkpt>
      <trkpt lat="48.61582" lon="2.09841">
        <ele>116</ele>
        <time>2010-03-19T10:02:40Z</time>
      </trkpt>
      <trkpt lat="48.61581" lon="2.09839">
        <ele>116</ele>
        <time>2010-03-19T10:02:41Z</time>
      </trkpt>
      <trkpt lat="48.61581" lon="2.09836">
        <ele>116</ele>
        <time>2010-03-19T10:02:42Z</time>
      </trkpt>
      <trkpt lat="48.61581" lon="2.09833">
        <ele>116</ele>
        <time>2010-03-19T10:02:43Z</time>
      </trkpt>
      <trkpt lat="48.61581" lon="2.09831">
        <ele>116</ele>
        <time>2010-03-19T10:02:44Z</time>
      </trkpt>
      <trkpt lat="48.61581" lon="2.09828">
        <ele>116</ele>
        <time>2010-03-19T10:02:45Z</time>
      </trkpt>
      <trkpt lat="48.61581" lon="2.09826">
        <ele>116</ele>
        <time>2010-03-19T10:02:46Z</time>
      </trkpt>
      <trkpt lat="48.61581" lon="2.09824">
        <ele>116</ele>
        <time>2010-03-19T10:02:47Z</time>
      </trkpt>
      <trkpt lat="48.61581" lon="2.09821">
        <ele>116</ele>
        <time>2010-03-19T10:02:48Z</time>
      </trkpt>
      <trkpt lat="48.61581" lon="2.09819">
        <ele>116</ele>
        <time>2010-03-19T10:02:49Z</time>
      </trkpt>
      <trkpt lat="48.61581" lon="2.09817">
        <ele>116</ele>
        <time>2010-03-19T10:02:50Z</time>
      </trkpt>
      <trkpt lat="48.61581" lon="2.09814">
        <ele>116</ele>
        <time>2010-03-19T10:02:51Z</time>
      </trkpt>
      <trkpt lat="48.61581" lon="2.09812">
        <ele>116</ele>
        <time>2010-03-19T10:02:52Z</time>
      </trkpt>
      <trkpt lat="48.61581" lon="2.0981">
        <ele>116</ele>
        <time>2010-03-19T10:02:53Z</time>
      </trkpt>
      <trkpt lat="48.61581" lon="2.09807">
        <ele>116</ele>
        <time>2010-03-19T10:02:54Z</time>
      </trkpt>
      <trkpt lat="48.61581" lon="2.09805">
        <ele>116</ele>
        <time>2010-03-19T10:02:55Z</time>
      </trkpt>
      <trkpt lat="48.6158" lon="2.09803">
        <ele>116</ele>
        <time>2010-03-19T10:02:56Z</time>
      </trkpt>
      <trkpt lat="48.6158" lon="2.09801">
        <ele>116</ele>
        <time>2010-03-19T10:02:57Z</time>
      </trkpt>
      <trkpt lat="48.6158" lon="2.09798">
        <ele>117</ele>
        <time>2010-03-19T10:02:58Z</time>
      </trkpt>
      <trkpt lat="48.6158" lon="2.09796">
        <ele>117</ele>
        <time>2010-03-19T10:02:59Z</time>
      </trkpt>
      <trkpt lat="48.6158" lon="2.09793">
        <ele>117</ele>
        <time>2010-03-19T10:03:00Z</time>
      </trkpt>
      <trkpt lat="48.6158" lon="2.09791">
        <ele>117</ele>
        <time>2010-03-19T10:03:01Z</time>
      </trkpt>
      <trkpt lat="48.61579" lon="2.09789">
        <ele>117</ele>
        <time>2010-03-19T10:03:02Z</time>
      </trkpt>
      <trkpt lat="48.61579" lon="2.09786">
        <ele>117</ele>
        <time>2010-03-19T10:03:03Z</time>
      </trkpt>
      <trkpt lat="48.61579" lon="2.09784">
        <ele>117</ele>
        <time>2010-03-19T10:03:04Z</time>
      </trkpt>
      <trkpt lat="48.61579" lon="2.09782">
        <ele>117</ele>
        <time>2010-03-19T10:03:05Z</time>
      </trkpt>
      <trkpt lat="48.61579" lon="2.09779">
        <ele>117</ele>
        <time>2010-03-19T10:03:06Z</time>
      </trkpt>
      <trkpt lat="48.61578" lon="2.09776">
        <ele>117</ele>
        <time>2010-03-19T10:03:07Z</time>
      </trkpt>
      <trkpt lat="48.61578" lon="2.09774">
        <ele>117</ele>
        <time>2010-03-19T10:03:08Z</time>
      </trkpt>
      <trkpt lat="48.61578" lon="2.09771">
        <ele>117</ele>
        <time>2010-03-19T10:03:09Z</time>
      </trkpt>
      <trkpt lat="48.61578" lon="2.09769">
        <ele>117</ele>
        <time>2010-03-19T10:03:10Z</time>
      </trkpt>
      <trkpt lat="48.61577" lon="2.09767">
        <ele>117</ele>
        <time>2010-03-19T10:03:11Z</time>
      </trkpt>
      <trkpt lat="48.61577" lon="2.09765">
        <ele>117</ele>
        <time>2010-03-19T10:03:12Z</time>
      </trkpt>
      <trkpt lat="48.61577" lon="2.09762">
        <ele>117</ele>
        <time>2010-03-19T10:03:13Z</time>
      </trkpt>
      <trkpt lat="48.61577" lon="2.0976">
        <ele>117</ele>
        <time>2010-03-19T10:03:14Z</time>
      </trkpt>
      <trkpt lat="48.61576" lon="2.09758">
        <ele>118</ele>
        <time>2010-03-19T10:03:15Z</time>
      </trkpt>
      <trkpt lat="48.61576" lon="2.09756">
        <ele>118</ele>
        <time>2010-03-19T10:03:16Z</time>
      </trkpt>
      <trkpt lat="48.61576" lon="2.09753">
        <ele>118</ele>
        <time>2010-03-19T10:03:17Z</time>
      </trkpt>
      <trkpt lat="48.61576" lon="2.09751">
        <ele>118</ele>
        <time>2010-03-19T10:03:18Z</time>
      </trkpt>
      <trkpt lat="48.61576" lon="2.09749">
        <ele>118</ele>
        <time>2010-03-19T10:03:19Z</time>
      </trkpt>
      <trkpt lat="48.61575" lon="2.09746">
        <ele>118</ele>
        <time>2010-03-19T10:03:20Z</time>
      </trkpt>
      <trkpt lat="48.61575" lon="2.09744">
        <ele>118</ele>
        <time>2010-03-19T10:03:21Z</time>
      </trkpt>
      <trkpt lat="48.61575" lon="2.09742">
        <ele>118</ele>
        <time>2010-03-19T10:03:22Z</time>
      </trkpt>
      <trkpt lat="48.61575" lon="2.09739">
        <ele>118</ele>
        <time>2010-03-19T10:03:23Z</time>
      </trkpt>
      <trkpt lat="48.61575" lon="2.09737">
        <ele>118</ele>
        <time>2010-03-19T10:03:24Z</time>
      </trkpt>
      <trkpt lat="48.61574" lon="2.09735">
        <ele>118</ele>
        <time>2010-03-19T10:03:25Z</time>
      </trkpt>
      <trkpt lat="48.61573" lon="2.09733">
        <ele>118</ele>
        <time>2010-03-19T10:03:26Z</time>
      </trkpt>
      <trkpt lat="48.61573" lon="2.0973">
        <ele>118</ele>
        <time>2010-03-19T10:03:27Z</time>
      </trkpt>
      <trkpt lat="48.61573" lon="2.09728">
        <ele>118</ele>
        <time>2010-03-19T10:03:28Z</time>
      </trkpt>
      <trkpt lat="48.61573" lon="2.09726">
        <ele>118</ele>
        <time>2010-03-19T10:03:29Z</time>
      </trkpt>
      <trkpt lat="48.61572" lon="2.09723">
        <ele>118</ele>
        <time>2010-03-19T10:03:30Z</time>
      </trkpt>
      <trkpt lat="48.61572" lon="2.09721">
        <ele>118</ele>
        <time>2010-03-19T10:03:31Z</time>
      </trkpt>
      <trkpt lat="48.61572" lon="2.09719">
        <ele>118</ele>
        <time>2010-03-19T10:03:32Z</time>
      </trkpt>
      <trkpt lat="48.61571" lon="2.09717">
        <ele>118</ele>
        <time>2010-03-19T10:03:33Z</time>
      </trkpt>
      <trkpt lat="48.61571" lon="2.09714">
        <ele>118</ele>
        <time>2010-03-19T10:03:34Z</time>
      </trkpt>
      <trkpt lat="48.61571" lon="2.09712">
        <ele>118</ele>
        <time>2010-03-19T10:03:35Z</time>
      </trkpt>
      <trkpt lat="48.6157" lon="2.0971">
        <ele>118</ele>
        <time>2010-03-19T10:03:36Z</time>
      </trkpt>
      <trkpt lat="48.6157" lon="2.09707">
        <ele>118</ele>
        <time>2010-03-19T10:03:37Z</time>
      </trkpt>
      <trkpt lat="48.61569" lon="2.09705">
        <ele>118</ele>
        <time>2010-03-19T10:03:38Z</time>
      </trkpt>
      <trkpt lat="48.61569" lon="2.09703">
        <ele>118</ele>
        <time>2010-03-19T10:03:39Z</time>
      </trkpt>
      <trkpt lat="48.61569" lon="2.09701">
        <ele>118</ele>
        <time>2010-03-19T10:03:40Z</time>
      </trkpt>
      <trkpt lat="48.61568" lon="2.09699">
        <ele>118</ele>
        <time>2010-03-19T10:03:41Z</time>
      </trkpt>
      <trkpt lat="48.61568" lon="2.09697">
        <ele>118</ele>
        <time>2010-03-19T10:03:42Z</time>
      </trkpt>
      <trkpt lat="48.61567" lon="2.09694">
        <ele>118</ele>
        <time>2010-03-19T10:03:43Z</time>
      </trkpt>
      <trkpt lat="48.61567" lon="2.09692">
        <ele>118</ele>
        <time>2010-03-19T10:03:44Z</time>
      </trkpt>
      <trkpt lat="48.61567" lon="2.09689">
        <ele>118</ele>
        <time>2010-03-19T10:03:45Z</time>
      </trkpt>
      <trkpt lat="48.61566" lon="2.09687">
        <ele>118</ele>
        <time>2010-03-19T10:03:46Z</time>
      </trkpt>
      <trkpt lat="48.61566" lon="2.09685">
        <ele>118</ele>
        <time>2010-03-19T10:03:47Z</time>
      </trkpt>
      <trkpt lat="48.61565" lon="2.09683">
        <ele>118</ele>
        <time>2010-03-19T10:03:48Z</time>
      </trkpt>
      <trkpt lat="48.61565" lon="2.09681">
        <ele>118</ele>
        <time>2010-03-19T10:03:49Z</time>
      </trkpt>
      <trkpt lat="48.61564" lon="2.09678">
        <ele>118</ele>
        <time>2010-03-19T10:03:50Z</time>
      </trkpt>
      <trkpt lat="48.61564" lon="2.09676">
        <ele>118</ele>
        <time>2010-03-19T10:03:51Z</time>
      </trkpt>
      <trkpt lat="48.61563" lon="2.09674">
        <ele>118</ele>
        <time>2010-03-19T10:03:52Z</time>
      </trkpt>
      <trkpt lat="48.61563" lon="2.09671">
        <ele>118</ele>
        <time>2010-03-19T10:03:53Z</time>
      </trkpt>
      <trkpt lat="48.61562" lon="2.09669">
        <ele>119</ele>
        <time>2010-03-19T10:03:54Z</time>
      </trkpt>
      <trkpt lat="48.61562" lon="2.09667">
        <ele>119</ele>
        <time>2010-03-19T10:03:55Z</time>
      </trkpt>
      <trkpt lat="48.61562" lon="2.09665">
        <ele>119</ele>
        <time>2010-03-19T10:03:56Z</time>
      </trkpt>
      <trkpt lat="48.61561" lon="2.09663">
        <ele>119</ele>
        <time>2010-03-19T10:03:57Z</time>
      </trkpt>
      <trkpt lat="48.6156" lon="2.09661">
        <ele>119</ele>
        <time>2010-03-19T10:03:58Z</time>
      </trkpt>
      <trkpt lat="48.6156" lon="2.09658">
        <ele>119</ele>
        <time>2010-03-19T10:03:59Z</time>
      </trkpt>
      <trkpt lat="48.6156" lon="2.09656">
        <ele>119</ele>
        <time>2010-03-19T10:04:00Z</time>
      </trkpt>
      <trkpt lat="48.61559" lon="2.09654">
        <ele>119</ele>
        <time>2010-03-19T10:04:01Z</time>
      </trkpt>
      <trkpt lat="48.61559" lon="2.09652">
        <ele>119</ele>
        <time>2010-03-19T10:04:02Z</time>
      </trkpt>
      <trkpt lat="48.61559" lon="2.09649">
        <ele>119</ele>
        <time>2010-03-19T10:04:03Z</time>
      </trkpt>
      <trkpt lat="48.61558" lon="2.09647">
        <ele>119</ele>
        <time>2010-03-19T10:04:04Z</time>
      </trkpt>
      <trkpt lat="48.61557" lon="2.09645">
        <ele>119</ele>
        <time>2010-03-19T10:04:05Z</time>
      </trkpt>
      <trkpt lat="48.61557" lon="2.09643">
        <ele>119</ele>
        <time>2010-03-19T10:04:06Z</time>
      </trkpt>
      <trkpt lat="48.61556" lon="2.0964">
        <ele>119</ele>
        <time>2010-03-19T10:04:07Z</time>
      </trkpt>
      <trkpt lat="48.61556" lon="2.09638">
        <ele>119</ele>
        <time>2010-03-19T10:04:08Z</time>
      </trkpt>
      <trkpt lat="48.61555" lon="2.09635">
        <ele>119</ele>
        <time>2010-03-19T10:04:09Z</time>
      </trkpt>
      <trkpt lat="48.61555" lon="2.09633">
        <ele>119</ele>
        <time>2010-03-19T10:04:10Z</time>
      </trkpt>
      <trkpt lat="48.61554" lon="2.09631">
        <ele>119</ele>
        <time>2010-03-19T10:04:11Z</time>
      </trkpt>
      <trkpt lat="48.61554" lon="2.09629">
        <ele>119</ele>
        <time>2010-03-19T10:04:12Z</time>
      </trkpt>
      <trkpt lat="48.61553" lon="2.09627">
        <ele>119</ele>
        <time>2010-03-19T10:04:13Z</time>
      </trkpt>
      <trkpt lat="48.61553" lon="2.09624">
        <ele>119</ele>
        <time>2010-03-19T10:04:14Z</time>
      </trkpt>
      <trkpt lat="48.61552" lon="2.09622">
        <ele>119</ele>
        <time>2010-03-19T10:04:15Z</time>
      </trkpt>
      <trkpt lat="48.61552" lon="2.0962">
        <ele>119</ele>
        <time>2010-03-19T10:04:16Z</time>
      </trkpt>
      <trkpt lat="48.61551" lon="2.09617">
        <ele>119</ele>
        <time>2010-03-19T10:04:17Z</time>
      </trkpt>
      <trkpt lat="48.61551" lon="2.09615">
        <ele>119</ele>
        <time>2010-03-19T10:04:18Z</time>
      </trkpt>
      <trkpt lat="48.61551" lon="2.09613">
        <ele>119</ele>
        <time>2010-03-19T10:04:19Z</time>
      </trkpt>
      <trkpt lat="48.6155" lon="2.09611">
        <ele>119</ele>
        <time>2010-03-19T10:04:20Z</time>
      </trkpt>
      <trkpt lat="48.61549" lon="2.09609">
        <ele>119</ele>
        <time>2010-03-19T10:04:21Z</time>
      </trkpt>
      <trkpt lat="48.61549" lon="2.09607">
        <ele>120</ele>
        <time>2010-03-19T10:04:22Z</time>
      </trkpt>
      <trkpt lat="48.61548" lon="2.09604">
        <ele>120</ele>
        <time>2010-03-19T10:04:23Z</time>
      </trkpt>
      <trkpt lat="48.61547" lon="2.09602">
        <ele>120</ele>
        <time>2010-03-19T10:04:24Z</time>
      </trkpt>
      <trkpt lat="48.61547" lon="2.096">
        <ele>120</ele>
        <time>2010-03-19T10:04:25Z</time>
      </trkpt>
      <trkpt lat="48.61546" lon="2.09597">
        <ele>120</ele>
        <time>2010-03-19T10:04:26Z</time>
      </trkpt>
      <trkpt lat="48.61546" lon="2.09595">
        <ele>120</ele>
        <time>2010-03-19T10:04:27Z</time>
      </trkpt>
      <trkpt lat="48.61546" lon="2.09592">
        <ele>120</ele>
        <time>2010-03-19T10:04:28Z</time>
      </trkpt>
      <trkpt lat="48.61545" lon="2.0959">
        <ele>120</ele>
        <time>2010-03-19T10:04:29Z</time>
      </trkpt>
      <trkpt lat="48.61544" lon="2.09588">
        <ele>120</ele>
        <time>2010-03-19T10:04:30Z</time>
      </trkpt>
      <trkpt lat="48.61544" lon="2.09585">
        <ele>120</ele>
        <time>2010-03-19T10:04:31Z</time>
      </trkpt>
      <trkpt lat="48.61544" lon="2.09583">
        <ele>120</ele>
        <time>2010-03-19T10:04:32Z</time>
      </trkpt>
      <trkpt lat="48.61543" lon="2.09581">
        <ele>120</ele>
        <time>2010-03-19T10:04:33Z</time>
      </trkpt>
      <trkpt lat="48.61543" lon="2.09578">
        <ele>120</ele>
        <time>2010-03-19T10:04:34Z</time>
      </trkpt>
      <trkpt lat="48.61542" lon="2.09576">
        <ele>120</ele>
        <time>2010-03-19T10:04:35Z</time>
      </trkpt>
      <trkpt lat="48.61541" lon="2.09573">
        <ele>120</ele>
        <time>2010-03-19T10:04:36Z</time>
      </trkpt>
      <trkpt lat="48.61541" lon="2.09571">
        <ele>120</ele>
        <time>2010-03-19T10:04:37Z</time>
      </trkpt>
      <trkpt lat="48.6154" lon="2.09568">
        <ele>120</ele>
        <time>2010-03-19T10:04:38Z</time>
      </trkpt>
      <trkpt lat="48.61539" lon="2.09566">
        <ele>120</ele>
        <time>2010-03-19T10:04:39Z</time>
      </trkpt>
      <trkpt lat="48.61539" lon="2.09563">
        <ele>120</ele>
        <time>2010-03-19T10:04:40Z</time>
      </trkpt>
      <trkpt lat="48.61539" lon="2.09561">
        <ele>120</ele>
        <time>2010-03-19T10:04:41Z</time>
      </trkpt>
      <trkpt lat="48.61538" lon="2.09559">
        <ele>120</ele>
        <time>2010-03-19T10:04:42Z</time>
      </trkpt>
      <trkpt lat="48.61538" lon="2.09557">
        <ele>120</ele>
        <time>2010-03-19T10:04:43Z</time>
      </trkpt>
      <trkpt lat="48.61537" lon="2.09555">
        <ele>120</ele>
        <time>2010-03-19T10:04:44Z</time>
      </trkpt>
      <trkpt lat="48.61537" lon="2.09553">
        <ele>120</ele>
        <time>2010-03-19T10:04:45Z</time>
      </trkpt>
      <trkpt lat="48.61536" lon="2.09551">
        <ele>120</ele>
        <time>2010-03-19T10:04:46Z</time>
      </trkpt>
      <trkpt lat="48.61536" lon="2.09549">
        <ele>120</ele>
        <time>2010-03-19T10:04:47Z</time>
      </trkpt>
      <trkpt lat="48.61535" lon="2.09547">
        <ele>120</ele>
        <time>2010-03-19T10:04:48Z</time>
      </trkpt>
      <trkpt lat="48.61535" lon="2.09544">
        <ele>120</ele>
        <time>2010-03-19T10:04:49Z</time>
      </trkpt>
      <trkpt lat="48.61535" lon="2.09542">
        <ele>120</ele>
        <time>2010-03-19T10:04:50Z</time>
      </trkpt>
      <trkpt lat="48.61534" lon="2.0954">
        <ele>120</ele>
        <time>2010-03-19T10:04:51Z</time>
      </trkpt>
      <trkpt lat="48.61533" lon="2.09537">
        <ele>120</ele>
        <time>2010-03-19T10:04:52Z</time>
      </trkpt>
      <trkpt lat="48.61532" lon="2.09534">
        <ele>120</ele>
        <time>2010-03-19T10:04:53Z</time>
      </trkpt>
      <trkpt lat="48.61531" lon="2.09531">
        <ele>120</ele>
        <time>2010-03-19T10:04:54Z</time>
      </trkpt>
      <trkpt lat="48.61531" lon="2.09528">
        <ele>121</ele>
        <time>2010-03-19T10:04:55Z</time>
      </trkpt>
      <trkpt lat="48.6153" lon="2.09525">
        <ele>121</ele>
        <time>2010-03-19T10:04:56Z</time>
      </trkpt>
      <trkpt lat="48.6153" lon="2.09523">
        <ele>121</ele>
        <time>2010-03-19T10:04:58Z</time>
      </trkpt>
      <trkpt lat="48.61529" lon="2.0952">
        <ele>121</ele>
        <time>2010-03-19T10:04:58Z</time>
      </trkpt>
      <trkpt lat="48.61528" lon="2.09518">
        <ele>121</ele>
        <time>2010-03-19T10:04:59Z</time>
      </trkpt>
      <trkpt lat="48.61527" lon="2.09515">
        <ele>121</ele>
        <time>2010-03-19T10:05:00Z</time>
      </trkpt>
      <trkpt lat="48.61527" lon="2.09513">
        <ele>121</ele>
        <time>2010-03-19T10:05:01Z</time>
      </trkpt>
      <trkpt lat="48.61526" lon="2.0951">
        <ele>121</ele>
        <time>2010-03-19T10:05:02Z</time>
      </trkpt>
      <trkpt lat="48.61525" lon="2.09508">
        <ele>121</ele>
        <time>2010-03-19T10:05:03Z</time>
      </trkpt>
      <trkpt lat="48.61525" lon="2.09505">
        <ele>121</ele>
        <time>2010-03-19T10:05:04Z</time>
      </trkpt>
      <trkpt lat="48.61524" lon="2.09503">
        <ele>121</ele>
        <time>2010-03-19T10:05:05Z</time>
      </trkpt>
      <trkpt lat="48.61523" lon="2.095">
        <ele>121</ele>
        <time>2010-03-19T10:05:06Z</time>
      </trkpt>
      <trkpt lat="48.61523" lon="2.09497">
        <ele>121</ele>
        <time>2010-03-19T10:05:07Z</time>
      </trkpt>
      <trkpt lat="48.61522" lon="2.09495">
        <ele>121</ele>
        <time>2010-03-19T10:05:08Z</time>
      </trkpt>
      <trkpt lat="48.61522" lon="2.09493">
        <ele>121</ele>
        <time>2010-03-19T10:05:09Z</time>
      </trkpt>
      <trkpt lat="48.61521" lon="2.0949">
        <ele>121</ele>
        <time>2010-03-19T10:05:10Z</time>
      </trkpt>
      <trkpt lat="48.6152" lon="2.09489">
        <ele>121</ele>
        <time>2010-03-19T10:05:11Z</time>
      </trkpt>
      <trkpt lat="48.6152" lon="2.09486">
        <ele>121</ele>
        <time>2010-03-19T10:05:12Z</time>
      </trkpt>
      <trkpt lat="48.61519" lon="2.09484">
        <ele>121</ele>
        <time>2010-03-19T10:05:13Z</time>
      </trkpt>
      <trkpt lat="48.61519" lon="2.09482">
        <ele>121</ele>
        <time>2010-03-19T10:05:14Z</time>
      </trkpt>
      <trkpt lat="48.61518" lon="2.0948">
        <ele>121</ele>
        <time>2010-03-19T10:05:15Z</time>
      </trkpt>
      <trkpt lat="48.61518" lon="2.09477">
        <ele>121</ele>
        <time>2010-03-19T10:05:16Z</time>
      </trkpt>
      <trkpt lat="48.61517" lon="2.09475">
        <ele>121</ele>
        <time>2010-03-19T10:05:17Z</time>
      </trkpt>
      <trkpt lat="48.61517" lon="2.09473">
        <ele>121</ele>
        <time>2010-03-19T10:05:18Z</time>
      </trkpt>
      <trkpt lat="48.61517" lon="2.09471">
        <ele>121</ele>
        <time>2010-03-19T10:05:19Z</time>
      </trkpt>
      <trkpt lat="48.61516" lon="2.09468">
        <ele>121</ele>
        <time>2010-03-19T10:05:20Z</time>
      </trkpt>
      <trkpt lat="48.61515" lon="2.09466">
        <ele>121</ele>
        <time>2010-03-19T10:05:21Z</time>
      </trkpt>
      <trkpt lat="48.61515" lon="2.09464">
        <ele>121</ele>
        <time>2010-03-19T10:05:22Z</time>
      </trkpt>
      <trkpt lat="48.61515" lon="2.09462">
        <ele>121</ele>
        <time>2010-03-19T10:05:23Z</time>
      </trkpt>
      <trkpt lat="48.61514" lon="2.09459">
        <ele>121</ele>
        <time>2010-03-19T10:05:24Z</time>
      </trkpt>
      <trkpt lat="48.61514" lon="2.09457">
        <ele>121</ele>
        <time>2010-03-19T10:05:25Z</time>
      </trkpt>
      <trkpt lat="48.61513" lon="2.09455">
        <ele>121</ele>
        <time>2010-03-19T10:05:26Z</time>
      </trkpt>
      <trkpt lat="48.61513" lon="2.09452">
        <ele>121</ele>
        <time>2010-03-19T10:05:27Z</time>
      </trkpt>
      <trkpt lat="48.61512" lon="2.0945">
        <ele>121</ele>
        <time>2010-03-19T10:05:28Z</time>
      </trkpt>
      <trkpt lat="48.61512" lon="2.09448">
        <ele>121</ele>
        <time>2010-03-19T10:05:29Z</time>
      </trkpt>
      <trkpt lat="48.61512" lon="2.09446">
        <ele>122</ele>
        <time>2010-03-19T10:05:30Z</time>
      </trkpt>
      <trkpt lat="48.61511" lon="2.09443">
        <ele>122</ele>
        <time>2010-03-19T10:05:31Z</time>
      </trkpt>
      <trkpt lat="48.61511" lon="2.09441">
        <ele>122</ele>
        <time>2010-03-19T10:05:32Z</time>
      </trkpt>
      <trkpt lat="48.6151" lon="2.09439">
        <ele>122</ele>
        <time>2010-03-19T10:05:33Z</time>
      </trkpt>
      <trkpt lat="48.6151" lon="2.09437">
        <ele>122</ele>
        <time>2010-03-19T10:05:34Z</time>
      </trkpt>
      <trkpt lat="48.61509" lon="2.09435">
        <ele>122</ele>
        <time>2010-03-19T10:05:35Z</time>
      </trkpt>
      <trkpt lat="48.61509" lon="2.09432">
        <ele>122</ele>
        <time>2010-03-19T10:05:36Z</time>
      </trkpt>
      <trkpt lat="48.61509" lon="2.0943">
        <ele>122</ele>
        <time>2010-03-19T10:05:37Z</time>
      </trkpt>
      <trkpt lat="48.61508" lon="2.09428">
        <ele>122</ele>
        <time>2010-03-19T10:05:38Z</time>
      </trkpt>
      <trkpt lat="48.61507" lon="2.09425">
        <ele>122</ele>
        <time>2010-03-19T10:05:39Z</time>
      </trkpt>
      <trkpt lat="48.61507" lon="2.09423">
        <ele>122</ele>
        <time>2010-03-19T10:05:40Z</time>
      </trkpt>
      <trkpt lat="48.61506" lon="2.09421">
        <ele>122</ele>
        <time>2010-03-19T10:05:41Z</time>
      </trkpt>
      <trkpt lat="48.61506" lon="2.09419">
        <ele>122</ele>
        <time>2010-03-19T10:05:42Z</time>
      </trkpt>
      <trkpt lat="48.61506" lon="2.09416">
        <ele>122</ele>
        <time>2010-03-19T10:05:43Z</time>
      </trkpt>
      <trkpt lat="48.61505" lon="2.09414">
        <ele>122</ele>
        <time>2010-03-19T10:05:44Z</time>
      </trkpt>
      <trkpt lat="48.61505" lon="2.09412">
        <ele>122</ele>
        <time>2010-03-19T10:05:45Z</time>
      </trkpt>
      <trkpt lat="48.61504" lon="2.09409">
        <ele>122</ele>
        <time>2010-03-19T10:05:46Z</time>
      </trkpt>
      <trkpt lat="48.61504" lon="2.09407">
        <ele>122</ele>
        <time>2010-03-19T10:05:47Z</time>
      </trkpt>
      <trkpt lat="48.61504" lon="2.09405">
        <ele>122</ele>
        <time>2010-03-19T10:05:48Z</time>
      </trkpt>
      <trkpt lat="48.61503" lon="2.09403">
        <ele>122</ele>
        <time>2010-03-19T10:05:49Z</time>
      </trkpt>
      <trkpt lat="48.61503" lon="2.09401">
        <ele>122</ele>
        <time>2010-03-19T10:05:50Z</time>
      </trkpt>
      <trkpt lat="48.61502" lon="2.09398">
        <ele>122</ele>
        <time>2010-03-19T10:05:51Z</time>
      </trkpt>
      <trkpt lat="48.61502" lon="2.09396">
        <ele>122</ele>
        <time>2010-03-19T10:05:52Z</time>
      </trkpt>
      <trkpt lat="48.61501" lon="2.09394">
        <ele>122</ele>
        <time>2010-03-19T10:05:53Z</time>
      </trkpt>
      <trkpt lat="48.61501" lon="2.09392">
        <ele>122</ele>
        <time>2010-03-19T10:05:54Z</time>
      </trkpt>
      <trkpt lat="48.61501" lon="2.09389">
        <ele>122</ele>
        <time>2010-03-19T10:05:55Z</time>
      </trkpt>
      <trkpt lat="48.615" lon="2.09387">
        <ele>122</ele>
        <time>2010-03-19T10:05:56Z</time>
      </trkpt>
      <trkpt lat="48.61499" lon="2.09385">
        <ele>123</ele>
        <time>2010-03-19T10:05:57Z</time>
      </trkpt>
      <trkpt lat="48.61499" lon="2.09383">
        <ele>123</ele>
        <time>2010-03-19T10:05:58Z</time>
      </trkpt>
      <trkpt lat="48.61498" lon="2.0938">
        <ele>123</ele>
        <time>2010-03-19T10:05:59Z</time>
      </trkpt>
      <trkpt lat="48.61498" lon="2.09378">
        <ele>123</ele>
        <time>2010-03-19T10:06:00Z</time>
      </trkpt>
      <trkpt lat="48.61497" lon="2.09376">
        <ele>123</ele>
        <time>2010-03-19T10:06:01Z</time>
      </trkpt>
      <trkpt lat="48.61497" lon="2.09373">
        <ele>123</ele>
        <time>2010-03-19T10:06:02Z</time>
      </trkpt>
      <trkpt lat="48.61497" lon="2.09371">
        <ele>123</ele>
        <time>2010-03-19T10:06:03Z</time>
      </trkpt>
      <trkpt lat="48.61496" lon="2.09369">
        <ele>123</ele>
        <time>2010-03-19T10:06:04Z</time>
      </trkpt>
      <trkpt lat="48.61496" lon="2.09367">
        <ele>123</ele>
        <time>2010-03-19T10:06:05Z</time>
      </trkpt>
      <trkpt lat="48.61496" lon="2.09364">
        <ele>123</ele>
        <time>2010-03-19T10:06:06Z</time>
      </trkpt>
      <trkpt lat="48.61495" lon="2.09362">
        <ele>123</ele>
        <time>2010-03-19T10:06:07Z</time>
      </trkpt>
      <trkpt lat="48.61495" lon="2.0936">
        <ele>123</ele>
        <time>2010-03-19T10:06:08Z</time>
      </trkpt>
      <trkpt lat="48.61494" lon="2.09358">
        <ele>123</ele>
        <time>2010-03-19T10:06:09Z</time>
      </trkpt>
      <trkpt lat="48.61494" lon="2.09355">
        <ele>123</ele>
        <time>2010-03-19T10:06:10Z</time>
      </trkpt>
      <trkpt lat="48.61493" lon="2.09353">
        <ele>123</ele>
        <time>2010-03-19T10:06:11Z</time>
      </trkpt>
      <trkpt lat="48.61493" lon="2.0935">
        <ele>123</ele>
        <time>2010-03-19T10:06:12Z</time>
      </trkpt>
      <trkpt lat="48.61493" lon="2.09348">
        <ele>123</ele>
        <time>2010-03-19T10:06:13Z</time>
      </trkpt>
      <trkpt lat="48.61492" lon="2.09346">
        <ele>123</ele>
        <time>2010-03-19T10:06:14Z</time>
      </trkpt>
      <trkpt lat="48.61491" lon="2.09344">
        <ele>123</ele>
        <time>2010-03-19T10:06:15Z</time>
      </trkpt>
      <trkpt lat="48.61491" lon="2.09342">
        <ele>123</ele>
        <time>2010-03-19T10:06:16Z</time>
      </trkpt>
      <trkpt lat="48.6149" lon="2.09339">
        <ele>123</ele>
        <time>2010-03-19T10:06:17Z</time>
      </trkpt>
      <trkpt lat="48.61489" lon="2.09337">
        <ele>123</ele>
        <time>2010-03-19T10:06:18Z</time>
      </trkpt>
      <trkpt lat="48.61489" lon="2.09335">
        <ele>123</ele>
        <time>2010-03-19T10:06:19Z</time>
      </trkpt>
      <trkpt lat="48.61489" lon="2.09333">
        <ele>123</ele>
        <time>2010-03-19T10:06:20Z</time>
      </trkpt>
      <trkpt lat="48.61489" lon="2.09331">
        <ele>123</ele>
        <time>2010-03-19T10:06:21Z</time>
      </trkpt>
      <trkpt lat="48.61488" lon="2.09328">
        <ele>123</ele>
        <time>2010-03-19T10:06:22Z</time>
      </trkpt>
      <trkpt lat="48.61488" lon="2.09326">
        <ele>123</ele>
        <time>2010-03-19T10:06:23Z</time>
      </trkpt>
      <trkpt lat="48.61487" lon="2.09324">
        <ele>124</ele>
        <time>2010-03-19T10:06:24Z</time>
      </trkpt>
      <trkpt lat="48.61487" lon="2.09322">
        <ele>124</ele>
        <time>2010-03-19T10:06:25Z</time>
      </trkpt>
      <trkpt lat="48.61486" lon="2.09319">
        <ele>124</ele>
        <time>2010-03-19T10:06:26Z</time>
      </trkpt>
      <trkpt lat="48.61486" lon="2.09317">
        <ele>124</ele>
        <time>2010-03-19T10:06:27Z</time>
      </trkpt>
      <trkpt lat="48.61485" lon="2.09315">
        <ele>124</ele>
        <time>2010-03-19T10:06:28Z</time>
      </trkpt>
      <trkpt lat="48.61485" lon="2.09313">
        <ele>124</ele>
        <time>2010-03-19T10:06:29Z</time>
      </trkpt>
      <trkpt lat="48.61485" lon="2.09311">
        <ele>124</ele>
        <time>2010-03-19T10:06:30Z</time>
      </trkpt>
      <trkpt lat="48.61484" lon="2.09309">
        <ele>124</ele>
        <time>2010-03-19T10:06:31Z</time>
      </trkpt>
      <trkpt lat="48.61483" lon="2.09306">
        <ele>124</ele>
        <time>2010-03-19T10:06:32Z</time>
      </trkpt>
      <trkpt lat="48.61483" lon="2.09304">
        <ele>124</ele>
        <time>2010-03-19T10:06:33Z</time>
      </trkpt>
      <trkpt lat="48.61482" lon="2.09302">
        <ele>124</ele>
        <time>2010-03-19T10:06:34Z</time>
      </trkpt>
      <trkpt lat="48.61482" lon="2.093">
        <ele>124</ele>
        <time>2010-03-19T10:06:35Z</time>
      </trkpt>
      <trkpt lat="48.61481" lon="2.09297">
        <ele>124</ele>
        <time>2010-03-19T10:06:36Z</time>
      </trkpt>
      <trkpt lat="48.61481" lon="2.09295">
        <ele>124</ele>
        <time>2010-03-19T10:06:37Z</time>
      </trkpt>
      <trkpt lat="48.61481" lon="2.09293">
        <ele>124</ele>
        <time>2010-03-19T10:06:38Z</time>
      </trkpt>
      <trkpt lat="48.6148" lon="2.09291">
        <ele>124</ele>
        <time>2010-03-19T10:06:39Z</time>
      </trkpt>
      <trkpt lat="48.6148" lon="2.09289">
        <ele>124</ele>
        <time>2010-03-19T10:06:40Z</time>
      </trkpt>
      <trkpt lat="48.61479" lon="2.09286">
        <ele>124</ele>
        <time>2010-03-19T10:06:41Z</time>
      </trkpt>
      <trkpt lat="48.61479" lon="2.09284">
        <ele>124</ele>
        <time>2010-03-19T10:06:42Z</time>
      </trkpt>
      <trkpt lat="48.61478" lon="2.09282">
        <ele>124</ele>
        <time>2010-03-19T10:06:43Z</time>
      </trkpt>
      <trkpt lat="48.61478" lon="2.0928">
        <ele>124</ele>
        <time>2010-03-19T10:06:44Z</time>
      </trkpt>
      <trkpt lat="48.61478" lon="2.09278">
        <ele>124</ele>
        <time>2010-03-19T10:06:45Z</time>
      </trkpt>
      <trkpt lat="48.61477" lon="2.09275">
        <ele>124</ele>
        <time>2010-03-19T10:06:46Z</time>
      </trkpt>
      <trkpt lat="48.61477" lon="2.09273">
        <ele>124</ele>
        <time>2010-03-19T10:06:47Z</time>
      </trkpt>
      <trkpt lat="48.61476" lon="2.09271">
        <ele>124</ele>
        <time>2010-03-19T10:06:48Z</time>
      </trkpt>
      <trkpt lat="48.61476" lon="2.09268">
        <ele>124</ele>
        <time>2010-03-19T10:06:49Z</time>
      </trkpt>
      <trkpt lat="48.61475" lon="2.09266">
        <ele>124</ele>
        <time>2010-03-19T10:06:50Z</time>
      </trkpt>
      <trkpt lat="48.61474" lon="2.09264">
        <ele>124</ele>
        <time>2010-03-19T10:06:51Z</time>
      </trkpt>
      <trkpt lat="48.61473" lon="2.09262">
        <ele>124</ele>
        <time>2010-03-19T10:06:52Z</time>
      </trkpt>
      <trkpt lat="48.61473" lon="2.09261">
        <ele>124</ele>
        <time>2010-03-19T10:06:53Z</time>
      </trkpt>
      <trkpt lat="48.61473" lon="2.09258">
        <ele>124</ele>
        <time>2010-03-19T10:06:54Z</time>
      </trkpt>
      <trkpt lat="48.61473" lon="2.09256">
        <ele>124</ele>
        <time>2010-03-19T10:06:55Z</time>
      </trkpt>
      <trkpt lat="48.61472" lon="2.09254">
        <ele>124</ele>
        <time>2010-03-19T10:06:56Z</time>
      </trkpt>
      <trkpt lat="48.61472" lon="2.09252">
        <ele>125</ele>
        <time>2010-03-19T10:06:57Z</time>
      </trkpt>
      <trkpt lat="48.61472" lon="2.0925">
        <ele>125</ele>
        <time>2010-03-19T10:06:58Z</time>
      </trkpt>
      <trkpt lat="48.61471" lon="2.09247">
        <ele>125</ele>
        <time>2010-03-19T10:06:59Z</time>
      </trkpt>
      <trkpt lat="48.61471" lon="2.09245">
        <ele>125</ele>
        <time>2010-03-19T10:07:00Z</time>
      </trkpt>
      <trkpt lat="48.6147" lon="2.09243">
        <ele>125</ele>
        <time>2010-03-19T10:07:01Z</time>
      </trkpt>
      <trkpt lat="48.6147" lon="2.09241">
        <ele>125</ele>
        <time>2010-03-19T10:07:02Z</time>
      </trkpt>
      <trkpt lat="48.6147" lon="2.09239">
        <ele>125</ele>
        <time>2010-03-19T10:07:03Z</time>
      </trkpt>
      <trkpt lat="48.61469" lon="2.09236">
        <ele>125</ele>
        <time>2010-03-19T10:07:04Z</time>
      </trkpt>
      <trkpt lat="48.61469" lon="2.09234">
        <ele>125</ele>
        <time>2010-03-19T10:07:05Z</time>
      </trkpt>
      <trkpt lat="48.61469" lon="2.09232">
        <ele>125</ele>
        <time>2010-03-19T10:07:06Z</time>
      </trkpt>
      <trkpt lat="48.61468" lon="2.09229">
        <ele>125</ele>
        <time>2010-03-19T10:07:07Z</time>
      </trkpt>
      <trkpt lat="48.61468" lon="2.09227">
        <ele>125</ele>
        <time>2010-03-19T10:07:08Z</time>
      </trkpt>
      <trkpt lat="48.61467" lon="2.09225">
        <ele>125</ele>
        <time>2010-03-19T10:07:09Z</time>
      </trkpt>
      <trkpt lat="48.61466" lon="2.09223">
        <ele>126</ele>
        <time>2010-03-19T10:07:10Z</time>
      </trkpt>
      <trkpt lat="48.61466" lon="2.09221">
        <ele>126</ele>
        <time>2010-03-19T10:07:11Z</time>
      </trkpt>
      <trkpt lat="48.61465" lon="2.09219">
        <ele>126</ele>
        <time>2010-03-19T10:07:12Z</time>
      </trkpt>
      <trkpt lat="48.61465" lon="2.09217">
        <ele>126</ele>
        <time>2010-03-19T10:07:13Z</time>
      </trkpt>
      <trkpt lat="48.61465" lon="2.09215">
        <ele>126</ele>
        <time>2010-03-19T10:07:14Z</time>
      </trkpt>
      <trkpt lat="48.61465" lon="2.09213">
        <ele>126</ele>
        <time>2010-03-19T10:07:15Z</time>
      </trkpt>
      <trkpt lat="48.61464" lon="2.09211">
        <ele>126</ele>
        <time>2010-03-19T10:07:16Z</time>
      </trkpt>
      <trkpt lat="48.61464" lon="2.09208">
        <ele>126</ele>
        <time>2010-03-19T10:07:17Z</time>
      </trkpt>
      <trkpt lat="48.61464" lon="2.09206">
        <ele>126</ele>
        <time>2010-03-19T10:07:18Z</time>
      </trkpt>
      <trkpt lat="48.61463" lon="2.09204">
        <ele>126</ele>
        <time>2010-03-19T10:07:19Z</time>
      </trkpt>
      <trkpt lat="48.61463" lon="2.09201">
        <ele>126</ele>
        <time>2010-03-19T10:07:20Z</time>
      </trkpt>
      <trkpt lat="48.61462" lon="2.09199">
        <ele>126</ele>
        <time>2010-03-19T10:07:21Z</time>
      </trkpt>
      <trkpt lat="48.61462" lon="2.09197">
        <ele>126</ele>
        <time>2010-03-19T10:07:22Z</time>
      </trkpt>
      <trkpt lat="48.6146" lon="2.09196">
        <ele>126</ele>
        <time>2010-03-19T10:07:23Z</time>
      </trkpt>
      <trkpt lat="48.61459" lon="2.09195">
        <ele>127</ele>
        <time>2010-03-19T10:07:24Z</time>
      </trkpt>
      <trkpt lat="48.61457" lon="2.09194">
        <ele>127</ele>
        <time>2010-03-19T10:07:25Z</time>
      </trkpt>
      <trkpt lat="48.61456" lon="2.09193">
        <ele>127</ele>
        <time>2010-03-19T10:07:26Z</time>
      </trkpt>
      <trkpt lat="48.61454" lon="2.09193">
        <ele>127</ele>
        <time>2010-03-19T10:07:27Z</time>
      </trkpt>
      <trkpt lat="48.61452" lon="2.09193">
        <ele>127</ele>
        <time>2010-03-19T10:07:28Z</time>
      </trkpt>
      <trkpt lat="48.61451" lon="2.09192">
        <ele>127</ele>
        <time>2010-03-19T10:07:29Z</time>
      </trkpt>
      <trkpt lat="48.61449" lon="2.09192">
        <ele>127</ele>
        <time>2010-03-19T10:07:30Z</time>
      </trkpt>
      <trkpt lat="48.61448" lon="2.09191">
        <ele>127</ele>
        <time>2010-03-19T10:07:31Z</time>
      </trkpt>
      <trkpt lat="48.61446" lon="2.09191">
        <ele>127</ele>
        <time>2010-03-19T10:07:32Z</time>
      </trkpt>
      <trkpt lat="48.61444" lon="2.09191">
        <ele>127</ele>
        <time>2010-03-19T10:07:33Z</time>
      </trkpt>
      <trkpt lat="48.61443" lon="2.09191">
        <ele>127</ele>
        <time>2010-03-19T10:07:34Z</time>
      </trkpt>
      <trkpt lat="48.61441" lon="2.09191">
        <ele>127</ele>
        <time>2010-03-19T10:07:35Z</time>
      </trkpt>
      <trkpt lat="48.6144" lon="2.09191">
        <ele>127</ele>
        <time>2010-03-19T10:07:36Z</time>
      </trkpt>
      <trkpt lat="48.61438" lon="2.09191">
        <ele>127</ele>
        <time>2010-03-19T10:07:37Z</time>
      </trkpt>
      <trkpt lat="48.61437" lon="2.09192">
        <ele>127</ele>
        <time>2010-03-19T10:07:38Z</time>
      </trkpt>
      <trkpt lat="48.61435" lon="2.09192">
        <ele>127</ele>
        <time>2010-03-19T10:07:39Z</time>
      </trkpt>
      <trkpt lat="48.61433" lon="2.09192">
        <ele>127</ele>
        <time>2010-03-19T10:07:40Z</time>
      </trkpt>
      <trkpt lat="48.61432" lon="2.09193">
        <ele>127</ele>
        <time>2010-03-19T10:07:41Z</time>
      </trkpt>
      <trkpt lat="48.6143" lon="2.09193">
        <ele>127</ele>
        <time>2010-03-19T10:07:42Z</time>
      </trkpt>
      <trkpt lat="48.61428" lon="2.09193">
        <ele>127</ele>
        <time>2010-03-19T10:07:43Z</time>
      </trkpt>
      <trkpt lat="48.61427" lon="2.09193">
        <ele>127</ele>
        <time>2010-03-19T10:07:44Z</time>
      </trkpt>
      <trkpt lat="48.61425" lon="2.09194">
        <ele>127</ele>
        <time>2010-03-19T10:07:45Z</time>
      </trkpt>
      <trkpt lat="48.61423" lon="2.09194">
        <ele>127</ele>
        <time>2010-03-19T10:07:46Z</time>
      </trkpt>
      <trkpt lat="48.61422" lon="2.09195">
        <ele>127</ele>
        <time>2010-03-19T10:07:47Z</time>
      </trkpt>
      <trkpt lat="48.61421" lon="2.09195">
        <ele>127</ele>
        <time>2010-03-19T10:07:48Z</time>
      </trkpt>
      <trkpt lat="48.61419" lon="2.09196">
        <ele>127</ele>
        <time>2010-03-19T10:07:49Z</time>
      </trkpt>
      <trkpt lat="48.61419" lon="2.09197">
        <ele>127</ele>
        <time>2010-03-19T10:07:50Z</time>
      </trkpt>
      <trkpt lat="48.61417" lon="2.09198">
        <ele>127</ele>
        <time>2010-03-19T10:07:51Z</time>
      </trkpt>
      <trkpt lat="48.61415" lon="2.09199">
        <ele>127</ele>
        <time>2010-03-19T10:07:52Z</time>
      </trkpt>
      <trkpt lat="48.61414" lon="2.092">
        <ele>127</ele>
        <time>2010-03-19T10:07:53Z</time>
      </trkpt>
      <trkpt lat="48.61412" lon="2.092">
        <ele>127</ele>
        <time>2010-03-19T10:07:54Z</time>
      </trkpt>
      <trkpt lat="48.61411" lon="2.09201">
        <ele>127</ele>
        <time>2010-03-19T10:07:55Z</time>
      </trkpt>
      <trkpt lat="48.61408" lon="2.09202">
        <ele>127</ele>
        <time>2010-03-19T10:07:56Z</time>
      </trkpt>
      <trkpt lat="48.61407" lon="2.09203">
        <ele>127</ele>
        <time>2010-03-19T10:07:57Z</time>
      </trkpt>
      <trkpt lat="48.61405" lon="2.09203">
        <ele>127</ele>
        <time>2010-03-19T10:07:58Z</time>
      </trkpt>
      <trkpt lat="48.61404" lon="2.09204">
        <ele>127</ele>
        <time>2010-03-19T10:07:59Z</time>
      </trkpt>
      <trkpt lat="48.61403" lon="2.09205">
        <ele>127</ele>
        <time>2010-03-19T10:08:00Z</time>
      </trkpt>
      <trkpt lat="48.614" lon="2.09206">
        <ele>127</ele>
        <time>2010-03-19T10:08:01Z</time>
      </trkpt>
      <trkpt lat="48.61399" lon="2.09206">
        <ele>127</ele>
        <time>2010-03-19T10:08:02Z</time>
      </trkpt>
      <trkpt lat="48.61397" lon="2.09208">
        <ele>127</ele>
        <time>2010-03-19T10:08:03Z</time>
      </trkpt>
      <trkpt lat="48.61396" lon="2.09209">
        <ele>127</ele>
        <time>2010-03-19T10:08:04Z</time>
      </trkpt>
      <trkpt lat="48.61394" lon="2.0921">
        <ele>127</ele>
        <time>2010-03-19T10:08:05Z</time>
      </trkpt>
      <trkpt lat="48.61392" lon="2.0921">
        <ele>127</ele>
        <time>2010-03-19T10:08:06Z</time>
      </trkpt>
      <trkpt lat="48.61391" lon="2.0921">
        <ele>127</ele>
        <time>2010-03-19T10:08:07Z</time>
      </trkpt>
      <trkpt lat="48.61389" lon="2.09211">
        <ele>127</ele>
        <time>2010-03-19T10:08:08Z</time>
      </trkpt>
      <trkpt lat="48.61388" lon="2.09211">
        <ele>127</ele>
        <time>2010-03-19T10:08:09Z</time>
      </trkpt>
      <trkpt lat="48.61386" lon="2.09211">
        <ele>127</ele>
        <time>2010-03-19T10:08:10Z</time>
      </trkpt>
      <trkpt lat="48.61385" lon="2.09211">
        <ele>127</ele>
        <time>2010-03-19T10:08:11Z</time>
      </trkpt>
      <trkpt lat="48.61383" lon="2.09212">
        <ele>127</ele>
        <time>2010-03-19T10:08:12Z</time>
      </trkpt>
      <trkpt lat="48.61382" lon="2.09213">
        <ele>127</ele>
        <time>2010-03-19T10:08:13Z</time>
      </trkpt>
      <trkpt lat="48.6138" lon="2.09214">
        <ele>127</ele>
        <time>2010-03-19T10:08:14Z</time>
      </trkpt>
      <trkpt lat="48.61379" lon="2.09214">
        <ele>127</ele>
        <time>2010-03-19T10:08:15Z</time>
      </trkpt>
      <trkpt lat="48.61378" lon="2.09215">
        <ele>127</ele>
        <time>2010-03-19T10:08:16Z</time>
      </trkpt>
      <trkpt lat="48.61376" lon="2.09214">
        <ele>127</ele>
        <time>2010-03-19T10:08:17Z</time>
      </trkpt>
      <trkpt lat="48.61375" lon="2.09214">
        <ele>127</ele>
        <time>2010-03-19T10:08:18Z</time>
      </trkpt>
      <trkpt lat="48.61373" lon="2.09213">
        <ele>127</ele>
        <time>2010-03-19T10:08:19Z</time>
      </trkpt>
      <trkpt lat="48.61372" lon="2.09211">
        <ele>127</ele>
        <time>2010-03-19T10:08:20Z</time>
      </trkpt>
      <trkpt lat="48.61372" lon="2.09209">
        <ele>127</ele>
        <time>2010-03-19T10:08:21Z</time>
      </trkpt>
      <trkpt lat="48.61371" lon="2.09207">
        <ele>127</ele>
        <time>2010-03-19T10:08:22Z</time>
      </trkpt>
      <trkpt lat="48.61371" lon="2.09205">
        <ele>127</ele>
        <time>2010-03-19T10:08:23Z</time>
      </trkpt>
      <trkpt lat="48.61371" lon="2.09204">
        <ele>127</ele>
        <time>2010-03-19T10:08:24Z</time>
      </trkpt>
      <trkpt lat="48.6137" lon="2.09202">
        <ele>127</ele>
        <time>2010-03-19T10:08:25Z</time>
      </trkpt>
      <trkpt lat="48.6137" lon="2.092">
        <ele>127</ele>
        <time>2010-03-19T10:08:26Z</time>
      </trkpt>
      <trkpt lat="48.6137" lon="2.09198">
        <ele>127</ele>
        <time>2010-03-19T10:08:27Z</time>
      </trkpt>
      <trkpt lat="48.6137" lon="2.09196">
        <ele>127</ele>
        <time>2010-03-19T10:08:28Z</time>
      </trkpt>
      <trkpt lat="48.6137" lon="2.09194">
        <ele>127</ele>
        <time>2010-03-19T10:08:29Z</time>
      </trkpt>
      <trkpt lat="48.6137" lon="2.09191">
        <ele>127</ele>
        <time>2010-03-19T10:08:30Z</time>
      </trkpt>
      <trkpt lat="48.61369" lon="2.09189">
        <ele>127</ele>
        <time>2010-03-19T10:08:31Z</time>
      </trkpt>
      <trkpt lat="48.61369" lon="2.09187">
        <ele>127</ele>
        <time>2010-03-19T10:08:32Z</time>
      </trkpt>
      <trkpt lat="48.61369" lon="2.09185">
        <ele>127</ele>
        <time>2010-03-19T10:08:33Z</time>
      </trkpt>
      <trkpt lat="48.61369" lon="2.09183">
        <ele>127</ele>
        <time>2010-03-19T10:08:34Z</time>
      </trkpt>
      <trkpt lat="48.61369" lon="2.09181">
        <ele>127</ele>
        <time>2010-03-19T10:08:35Z</time>
      </trkpt>
      <trkpt lat="48.61369" lon="2.09179">
        <ele>127</ele>
        <time>2010-03-19T10:08:36Z</time>
      </trkpt>
      <trkpt lat="48.61369" lon="2.09177">
        <ele>127</ele>
        <time>2010-03-19T10:08:37Z</time>
      </trkpt>
      <trkpt lat="48.61369" lon="2.09175">
        <ele>127</ele>
        <time>2010-03-19T10:08:38Z</time>
      </trkpt>
      <trkpt lat="48.61369" lon="2.09173">
        <ele>127</ele>
        <time>2010-03-19T10:08:39Z</time>
      </trkpt>
      <trkpt lat="48.61368" lon="2.09171">
        <ele>127</ele>
        <time>2010-03-19T10:08:40Z</time>
      </trkpt>
      <trkpt lat="48.61368" lon="2.09169">
        <ele>127</ele>
        <time>2010-03-19T10:08:41Z</time>
      </trkpt>
      <trkpt lat="48.61368" lon="2.09166">
        <ele>127</ele>
        <time>2010-03-19T10:08:42Z</time>
      </trkpt>
      <trkpt lat="48.61367" lon="2.09164">
        <ele>127</ele>
        <time>2010-03-19T10:08:43Z</time>
      </trkpt>
      <trkpt lat="48.61367" lon="2.09162">
        <ele>127</ele>
        <time>2010-03-19T10:08:44Z</time>
      </trkpt>
      <trkpt lat="48.61367" lon="2.0916">
        <ele>127</ele>
        <time>2010-03-19T10:08:45Z</time>
      </trkpt>
      <trkpt lat="48.61366" lon="2.09158">
        <ele>127</ele>
        <time>2010-03-19T10:08:46Z</time>
      </trkpt>
      <trkpt lat="48.61366" lon="2.09156">
        <ele>127</ele>
        <time>2010-03-19T10:08:47Z</time>
      </trkpt>
      <trkpt lat="48.61366" lon="2.09154">
        <ele>127</ele>
        <time>2010-03-19T10:08:48Z</time>
      </trkpt>
      <trkpt lat="48.61365" lon="2.0915">
        <ele>127</ele>
        <time>2010-03-19T10:08:49Z</time>
      </trkpt>
      <trkpt lat="48.61365" lon="2.09147">
        <ele>127</ele>
        <time>2010-03-19T10:08:50Z</time>
      </trkpt>
      <trkpt lat="48.61364" lon="2.09145">
        <ele>127</ele>
        <time>2010-03-19T10:08:51Z</time>
      </trkpt>
      <trkpt lat="48.61364" lon="2.09143">
        <ele>127</ele>
        <time>2010-03-19T10:08:52Z</time>
      </trkpt>
      <trkpt lat="48.61364" lon="2.09141">
        <ele>127</ele>
        <time>2010-03-19T10:08:53Z</time>
      </trkpt>
      <trkpt lat="48.61364" lon="2.09139">
        <ele>127</ele>
        <time>2010-03-19T10:08:54Z</time>
      </trkpt>
      <trkpt lat="48.61364" lon="2.09137">
        <ele>127</ele>
        <time>2010-03-19T10:08:55Z</time>
      </trkpt>
      <trkpt lat="48.61363" lon="2.09135">
        <ele>127</ele>
        <time>2010-03-19T10:08:56Z</time>
      </trkpt>
      <trkpt lat="48.61363" lon="2.09133">
        <ele>127</ele>
        <time>2010-03-19T10:08:57Z</time>
      </trkpt>
      <trkpt lat="48.61363" lon="2.09131">
        <ele>127</ele>
        <time>2010-03-19T10:08:58Z</time>
      </trkpt>
      <trkpt lat="48.61362" lon="2.09128">
        <ele>127</ele>
        <time>2010-03-19T10:08:59Z</time>
      </trkpt>
      <trkpt lat="48.61362" lon="2.09126">
        <ele>127</ele>
        <time>2010-03-19T10:09:00Z</time>
      </trkpt>
      <trkpt lat="48.61362" lon="2.09124">
        <ele>127</ele>
        <time>2010-03-19T10:09:01Z</time>
      </trkpt>
      <trkpt lat="48.61361" lon="2.09122">
        <ele>127</ele>
        <time>2010-03-19T10:09:02Z</time>
      </trkpt>
      <trkpt lat="48.61361" lon="2.0912">
        <ele>127</ele>
        <time>2010-03-19T10:09:03Z</time>
      </trkpt>
      <trkpt lat="48.61361" lon="2.09118">
        <ele>127</ele>
        <time>2010-03-19T10:09:04Z</time>
      </trkpt>
      <trkpt lat="48.61361" lon="2.09116">
        <ele>127</ele>
        <time>2010-03-19T10:09:05Z</time>
      </trkpt>
      <trkpt lat="48.6136" lon="2.09113">
        <ele>127</ele>
        <time>2010-03-19T10:09:06Z</time>
      </trkpt>
      <trkpt lat="48.6136" lon="2.0911">
        <ele>127</ele>
        <time>2010-03-19T10:09:07Z</time>
      </trkpt>
      <trkpt lat="48.6136" lon="2.09108">
        <ele>127</ele>
        <time>2010-03-19T10:09:08Z</time>
      </trkpt>
      <trkpt lat="48.6136" lon="2.09106">
        <ele>127</ele>
        <time>2010-03-19T10:09:09Z</time>
      </trkpt>
      <trkpt lat="48.6136" lon="2.09104">
        <ele>127</ele>
        <time>2010-03-19T10:09:10Z</time>
      </trkpt>
      <trkpt lat="48.6136" lon="2.09102">
        <ele>127</ele>
        <time>2010-03-19T10:09:11Z</time>
      </trkpt>
      <trkpt lat="48.61359" lon="2.091">
        <ele>127</ele>
        <time>2010-03-19T10:09:12Z</time>
      </trkpt>
      <trkpt lat="48.61359" lon="2.09098">
        <ele>127</ele>
        <time>2010-03-19T10:09:13Z</time>
      </trkpt>
      <trkpt lat="48.61359" lon="2.09096">
        <ele>127</ele>
        <time>2010-03-19T10:09:14Z</time>
      </trkpt>
      <trkpt lat="48.61359" lon="2.09093">
        <ele>127</ele>
        <time>2010-03-19T10:09:15Z</time>
      </trkpt>
      <trkpt lat="48.61359" lon="2.09091">
        <ele>127</ele>
        <time>2010-03-19T10:09:16Z</time>
      </trkpt>
      <trkpt lat="48.61358" lon="2.09089">
        <ele>127</ele>
        <time>2010-03-19T10:09:17Z</time>
      </trkpt>
      <trkpt lat="48.61358" lon="2.09086">
        <ele>127</ele>
        <time>2010-03-19T10:09:18Z</time>
      </trkpt>
      <trkpt lat="48.61358" lon="2.09085">
        <ele>127</ele>
        <time>2010-03-19T10:09:19Z</time>
      </trkpt>
      <trkpt lat="48.61357" lon="2.09082">
        <ele>127</ele>
        <time>2010-03-19T10:09:20Z</time>
      </trkpt>
      <trkpt lat="48.61357" lon="2.0908">
        <ele>127</ele>
        <time>2010-03-19T10:09:21Z</time>
      </trkpt>
      <trkpt lat="48.61357" lon="2.09077">
        <ele>127</ele>
        <time>2010-03-19T10:09:22Z</time>
      </trkpt>
      <trkpt lat="48.61356" lon="2.09075">
        <ele>127</ele>
        <time>2010-03-19T10:09:23Z</time>
      </trkpt>
      <trkpt lat="48.61356" lon="2.09073">
        <ele>127</ele>
        <time>2010-03-19T10:09:24Z</time>
      </trkpt>
      <trkpt lat="48.61356" lon="2.09071">
        <ele>127</ele>
        <time>2010-03-19T10:09:25Z</time>
      </trkpt>
      <trkpt lat="48.61356" lon="2.09069">
        <ele>127</ele>
        <time>2010-03-19T10:09:26Z</time>
      </trkpt>
      <trkpt lat="48.61356" lon="2.09067">
        <ele>127</ele>
        <time>2010-03-19T10:09:27Z</time>
      </trkpt>
      <trkpt lat="48.61355" lon="2.09065">
        <ele>127</ele>
        <time>2010-03-19T10:09:28Z</time>
      </trkpt>
      <trkpt lat="48.61355" lon="2.09063">
        <ele>127</ele>
        <time>2010-03-19T10:09:29Z</time>
      </trkpt>
      <trkpt lat="48.61354" lon="2.09061">
        <ele>127</ele>
        <time>2010-03-19T10:09:30Z</time>
      </trkpt>
      <trkpt lat="48.61354" lon="2.09058">
        <ele>127</ele>
        <time>2010-03-19T10:09:31Z</time>
      </trkpt>
      <trkpt lat="48.61354" lon="2.09056">
        <ele>127</ele>
        <time>2010-03-19T10:09:32Z</time>
      </trkpt>
      <trkpt lat="48.61354" lon="2.09054">
        <ele>127</ele>
        <time>2010-03-19T10:09:33Z</time>
      </trkpt>
      <trkpt lat="48.61353" lon="2.09052">
        <ele>127</ele>
        <time>2010-03-19T10:09:34Z</time>
      </trkpt>
      <trkpt lat="48.61353" lon="2.09049">
        <ele>127</ele>
        <time>2010-03-19T10:09:35Z</time>
      </trkpt>
      <trkpt lat="48.61353" lon="2.09047">
        <ele>127</ele>
        <time>2010-03-19T10:09:36Z</time>
      </trkpt>
      <trkpt lat="48.61353" lon="2.09045">
        <ele>127</ele>
        <time>2010-03-19T10:09:37Z</time>
      </trkpt>
      <trkpt lat="48.61353" lon="2.09043">
        <ele>127</ele>
        <time>2010-03-19T10:09:38Z</time>
      </trkpt>
      <trkpt lat="48.61352" lon="2.09041">
        <ele>127</ele>
        <time>2010-03-19T10:09:39Z</time>
      </trkpt>
      <trkpt lat="48.61352" lon="2.09039">
        <ele>127</ele>
        <time>2010-03-19T10:09:40Z</time>
      </trkpt>
      <trkpt lat="48.61352" lon="2.09037">
        <ele>127</ele>
        <time>2010-03-19T10:09:41Z</time>
      </trkpt>
      <trkpt lat="48.61352" lon="2.09035">
        <ele>126</ele>
        <time>2010-03-19T10:09:42Z</time>
      </trkpt>
      <trkpt lat="48.61352" lon="2.09033">
        <ele>126</ele>
        <time>2010-03-19T10:09:43Z</time>
      </trkpt>
      <trkpt lat="48.61353" lon="2.0903">
        <ele>126</ele>
        <time>2010-03-19T10:09:44Z</time>
      </trkpt>
      <trkpt lat="48.61352" lon="2.09027">
        <ele>126</ele>
        <time>2010-03-19T10:09:45Z</time>
      </trkpt>
      <trkpt lat="48.61351" lon="2.09024">
        <ele>126</ele>
        <time>2010-03-19T10:09:46Z</time>
      </trkpt>
      <trkpt lat="48.6135" lon="2.09022">
        <ele>126</ele>
        <time>2010-03-19T10:09:47Z</time>
      </trkpt>
      <trkpt lat="48.61349" lon="2.09019">
        <ele>126</ele>
        <time>2010-03-19T10:09:48Z</time>
      </trkpt>
      <trkpt lat="48.61349" lon="2.09016">
        <ele>126</ele>
        <time>2010-03-19T10:09:49Z</time>
      </trkpt>
      <trkpt lat="48.61349" lon="2.09014">
        <ele>126</ele>
        <time>2010-03-19T10:09:50Z</time>
      </trkpt>
      <trkpt lat="48.61349" lon="2.09012">
        <ele>126</ele>
        <time>2010-03-19T10:09:51Z</time>
      </trkpt>
      <trkpt lat="48.6135" lon="2.0901">
        <ele>126</ele>
        <time>2010-03-19T10:09:52Z</time>
      </trkpt>
      <trkpt lat="48.6135" lon="2.09008">
        <ele>126</ele>
        <time>2010-03-19T10:09:53Z</time>
      </trkpt>
      <trkpt lat="48.61351" lon="2.09006">
        <ele>126</ele>
        <time>2010-03-19T10:09:54Z</time>
      </trkpt>
      <trkpt lat="48.61351" lon="2.09003">
        <ele>126</ele>
        <time>2010-03-19T10:09:55Z</time>
      </trkpt>
      <trkpt lat="48.61352" lon="2.09001">
        <ele>126</ele>
        <time>2010-03-19T10:09:56Z</time>
      </trkpt>
      <trkpt lat="48.61352" lon="2.08999">
        <ele>126</ele>
        <time>2010-03-19T10:09:57Z</time>
      </trkpt>
      <trkpt lat="48.61353" lon="2.08997">
        <ele>126</ele>
        <time>2010-03-19T10:09:58Z</time>
      </trkpt>
      <trkpt lat="48.61353" lon="2.08995">
        <ele>126</ele>
        <time>2010-03-19T10:09:59Z</time>
      </trkpt>
      <trkpt lat="48.61354" lon="2.08993">
        <ele>126</ele>
        <time>2010-03-19T10:10:00Z</time>
      </trkpt>
      <trkpt lat="48.61354" lon="2.08991">
        <ele>126</ele>
        <time>2010-03-19T10:10:01Z</time>
      </trkpt>
      <trkpt lat="48.61354" lon="2.08988">
        <ele>126</ele>
        <time>2010-03-19T10:10:02Z</time>
      </trkpt>
      <trkpt lat="48.61355" lon="2.08986">
        <ele>126</ele>
        <time>2010-03-19T10:10:03Z</time>
      </trkpt>
      <trkpt lat="48.61356" lon="2.08984">
        <ele>126</ele>
        <time>2010-03-19T10:10:04Z</time>
      </trkpt>
      <trkpt lat="48.61356" lon="2.08982">
        <ele>126</ele>
        <time>2010-03-19T10:10:05Z</time>
      </trkpt>
      <trkpt lat="48.61357" lon="2.0898">
        <ele>126</ele>
        <time>2010-03-19T10:10:06Z</time>
      </trkpt>
      <trkpt lat="48.61358" lon="2.08978">
        <ele>126</ele>
        <time>2010-03-19T10:10:07Z</time>
      </trkpt>
      <trkpt lat="48.61359" lon="2.08976">
        <ele>126</ele>
        <time>2010-03-19T10:10:08Z</time>
      </trkpt>
      <trkpt lat="48.6136" lon="2.08974">
        <ele>126</ele>
        <time>2010-03-19T10:10:09Z</time>
      </trkpt>
      <trkpt lat="48.61361" lon="2.08972">
        <ele>126</ele>
        <time>2010-03-19T10:10:10Z</time>
      </trkpt>
      <trkpt lat="48.61362" lon="2.0897">
        <ele>126</ele>
        <time>2010-03-19T10:10:11Z</time>
      </trkpt>
      <trkpt lat="48.61363" lon="2.08968">
        <ele>126</ele>
        <time>2010-03-19T10:10:12Z</time>
      </trkpt>
      <trkpt lat="48.61364" lon="2.08966">
        <ele>126</ele>
        <time>2010-03-19T10:10:13Z</time>
      </trkpt>
      <trkpt lat="48.61365" lon="2.08964">
        <ele>126</ele>
        <time>2010-03-19T10:10:14Z</time>
      </trkpt>
      <trkpt lat="48.61366" lon="2.08962">
        <ele>126</ele>
        <time>2010-03-19T10:10:15Z</time>
      </trkpt>
      <trkpt lat="48.61367" lon="2.08961">
        <ele>127</ele>
        <time>2010-03-19T10:10:16Z</time>
      </trkpt>
      <trkpt lat="48.61368" lon="2.08959">
        <ele>127</ele>
        <time>2010-03-19T10:10:17Z</time>
      </trkpt>
      <trkpt lat="48.61369" lon="2.08957">
        <ele>127</ele>
        <time>2010-03-19T10:10:18Z</time>
      </trkpt>
      <trkpt lat="48.6137" lon="2.08955">
        <ele>127</ele>
        <time>2010-03-19T10:10:19Z</time>
      </trkpt>
      <trkpt lat="48.61371" lon="2.08953">
        <ele>127</ele>
        <time>2010-03-19T10:10:20Z</time>
      </trkpt>
      <trkpt lat="48.61372" lon="2.08951">
        <ele>127</ele>
        <time>2010-03-19T10:10:21Z</time>
      </trkpt>
      <trkpt lat="48.61372" lon="2.08949">
        <ele>127</ele>
        <time>2010-03-19T10:10:22Z</time>
      </trkpt>
      <trkpt lat="48.61373" lon="2.08947">
        <ele>127</ele>
        <time>2010-03-19T10:10:23Z</time>
      </trkpt>
      <trkpt lat="48.61374" lon="2.08945">
        <ele>127</ele>
        <time>2010-03-19T10:10:24Z</time>
      </trkpt>
      <trkpt lat="48.61374" lon="2.08943">
        <ele>127</ele>
        <time>2010-03-19T10:10:25Z</time>
      </trkpt>
      <trkpt lat="48.61374" lon="2.08941">
        <ele>127</ele>
        <time>2010-03-19T10:10:26Z</time>
      </trkpt>
      <trkpt lat="48.61374" lon="2.08938">
        <ele>127</ele>
        <time>2010-03-19T10:10:27Z</time>
      </trkpt>
      <trkpt lat="48.61375" lon="2.08936">
        <ele>128</ele>
        <time>2010-03-19T10:10:28Z</time>
      </trkpt>
      <trkpt lat="48.61375" lon="2.08933">
        <ele>128</ele>
        <time>2010-03-19T10:10:29Z</time>
      </trkpt>
      <trkpt lat="48.61375" lon="2.08931">
        <ele>128</ele>
        <time>2010-03-19T10:10:30Z</time>
      </trkpt>
      <trkpt lat="48.61374" lon="2.08929">
        <ele>128</ele>
        <time>2010-03-19T10:10:31Z</time>
      </trkpt>
      <trkpt lat="48.61374" lon="2.08926">
        <ele>128</ele>
        <time>2010-03-19T10:10:32Z</time>
      </trkpt>
      <trkpt lat="48.61374" lon="2.08924">
        <ele>128</ele>
        <time>2010-03-19T10:10:33Z</time>
      </trkpt>
      <trkpt lat="48.61374" lon="2.08922">
        <ele>128</ele>
        <time>2010-03-19T10:10:34Z</time>
      </trkpt>
      <trkpt lat="48.61373" lon="2.08919">
        <ele>128</ele>
        <time>2010-03-19T10:10:35Z</time>
      </trkpt>
      <trkpt lat="48.61373" lon="2.08917">
        <ele>128</ele>
        <time>2010-03-19T10:10:36Z</time>
      </trkpt>
      <trkpt lat="48.61373" lon="2.08914">
        <ele>128</ele>
        <time>2010-03-19T10:10:37Z</time>
      </trkpt>
      <trkpt lat="48.61372" lon="2.08912">
        <ele>128</ele>
        <time>2010-03-19T10:10:38Z</time>
      </trkpt>
      <trkpt lat="48.61372" lon="2.0891">
        <ele>128</ele>
        <time>2010-03-19T10:10:39Z</time>
      </trkpt>
      <trkpt lat="48.61371" lon="2.08908">
        <ele>129</ele>
        <time>2010-03-19T10:10:40Z</time>
      </trkpt>
      <trkpt lat="48.61371" lon="2.08906">
        <ele>129</ele>
        <time>2010-03-19T10:10:41Z</time>
      </trkpt>
      <trkpt lat="48.61371" lon="2.08904">
        <ele>129</ele>
        <time>2010-03-19T10:10:42Z</time>
      </trkpt>
      <trkpt lat="48.6137" lon="2.08901">
        <ele>129</ele>
        <time>2010-03-19T10:10:43Z</time>
      </trkpt>
      <trkpt lat="48.6137" lon="2.08899">
        <ele>129</ele>
        <time>2010-03-19T10:10:44Z</time>
      </trkpt>
      <trkpt lat="48.6137" lon="2.08897">
        <ele>129</ele>
        <time>2010-03-19T10:10:45Z</time>
      </trkpt>
      <trkpt lat="48.61369" lon="2.08895">
        <ele>129</ele>
        <time>2010-03-19T10:10:46Z</time>
      </trkpt>
      <trkpt lat="48.61369" lon="2.08892">
        <ele>129</ele>
        <time>2010-03-19T10:10:47Z</time>
      </trkpt>
      <trkpt lat="48.61369" lon="2.0889">
        <ele>129</ele>
        <time>2010-03-19T10:10:48Z</time>
      </trkpt>
      <trkpt lat="48.61368" lon="2.08888">
        <ele>129</ele>
        <time>2010-03-19T10:10:49Z</time>
      </trkpt>
      <trkpt lat="48.61368" lon="2.08886">
        <ele>129</ele>
        <time>2010-03-19T10:10:50Z</time>
      </trkpt>
      <trkpt lat="48.61367" lon="2.08884">
        <ele>129</ele>
        <time>2010-03-19T10:10:51Z</time>
      </trkpt>
      <trkpt lat="48.61367" lon="2.08882">
        <ele>129</ele>
        <time>2010-03-19T10:10:52Z</time>
      </trkpt>
      <trkpt lat="48.61367" lon="2.08879">
        <ele>129</ele>
        <time>2010-03-19T10:10:53Z</time>
      </trkpt>
      <trkpt lat="48.61367" lon="2.08877">
        <ele>129</ele>
        <time>2010-03-19T10:10:54Z</time>
      </trkpt>
      <trkpt lat="48.61366" lon="2.08875">
        <ele>129</ele>
        <time>2010-03-19T10:10:55Z</time>
      </trkpt>
      <trkpt lat="48.61366" lon="2.08873">
        <ele>129</ele>
        <time>2010-03-19T10:10:56Z</time>
      </trkpt>
      <trkpt lat="48.61366" lon="2.08871">
        <ele>129</ele>
        <time>2010-03-19T10:10:57Z</time>
      </trkpt>
      <trkpt lat="48.61366" lon="2.08869">
        <ele>129</ele>
        <time>2010-03-19T10:10:58Z</time>
      </trkpt>
      <trkpt lat="48.61365" lon="2.08866">
        <ele>129</ele>
        <time>2010-03-19T10:10:59Z</time>
      </trkpt>
      <trkpt lat="48.61365" lon="2.08864">
        <ele>129</ele>
        <time>2010-03-19T10:11:00Z</time>
      </trkpt>
      <trkpt lat="48.61365" lon="2.08862">
        <ele>129</ele>
        <time>2010-03-19T10:11:01Z</time>
      </trkpt>
      <trkpt lat="48.61364" lon="2.0886">
        <ele>129</ele>
        <time>2010-03-19T10:11:02Z</time>
      </trkpt>
      <trkpt lat="48.61364" lon="2.08858">
        <ele>129</ele>
        <time>2010-03-19T10:11:03Z</time>
      </trkpt>
      <trkpt lat="48.61364" lon="2.08856">
        <ele>130</ele>
        <time>2010-03-19T10:11:04Z</time>
      </trkpt>
      <trkpt lat="48.61364" lon="2.08853">
        <ele>130</ele>
        <time>2010-03-19T10:11:05Z</time>
      </trkpt>
      <trkpt lat="48.61363" lon="2.08851">
        <ele>130</ele>
        <time>2010-03-19T10:11:06Z</time>
      </trkpt>
      <trkpt lat="48.61363" lon="2.08849">
        <ele>130</ele>
        <time>2010-03-19T10:11:07Z</time>
      </trkpt>
      <trkpt lat="48.61363" lon="2.08846">
        <ele>130</ele>
        <time>2010-03-19T10:11:08Z</time>
      </trkpt>
      <trkpt lat="48.61362" lon="2.08844">
        <ele>130</ele>
        <time>2010-03-19T10:11:09Z</time>
      </trkpt>
      <trkpt lat="48.61362" lon="2.08841">
        <ele>130</ele>
        <time>2010-03-19T10:11:10Z</time>
      </trkpt>
      <trkpt lat="48.61362" lon="2.08839">
        <ele>130</ele>
        <time>2010-03-19T10:11:11Z</time>
      </trkpt>
      <trkpt lat="48.61362" lon="2.08837">
        <ele>130</ele>
        <time>2010-03-19T10:11:12Z</time>
      </trkpt>
      <trkpt lat="48.61361" lon="2.08834">
        <ele>130</ele>
        <time>2010-03-19T10:11:13Z</time>
      </trkpt>
      <trkpt lat="48.61361" lon="2.08832">
        <ele>130</ele>
        <time>2010-03-19T10:11:14Z</time>
      </trkpt>
      <trkpt lat="48.61361" lon="2.0883">
        <ele>130</ele>
        <time>2010-03-19T10:11:15Z</time>
      </trkpt>
      <trkpt lat="48.61361" lon="2.08827">
        <ele>130</ele>
        <time>2010-03-19T10:11:16Z</time>
      </trkpt>
      <trkpt lat="48.61361" lon="2.08825">
        <ele>131</ele>
        <time>2010-03-19T10:11:17Z</time>
      </trkpt>
      <trkpt lat="48.6136" lon="2.08823">
        <ele>131</ele>
        <time>2010-03-19T10:11:18Z</time>
      </trkpt>
      <trkpt lat="48.6136" lon="2.0882">
        <ele>131</ele>
        <time>2010-03-19T10:11:19Z</time>
      </trkpt>
      <trkpt lat="48.6136" lon="2.08818">
        <ele>131</ele>
        <time>2010-03-19T10:11:20Z</time>
      </trkpt>
      <trkpt lat="48.6136" lon="2.08816">
        <ele>131</ele>
        <time>2010-03-19T10:11:21Z</time>
      </trkpt>
      <trkpt lat="48.6136" lon="2.08814">
        <ele>131</ele>
        <time>2010-03-19T10:11:22Z</time>
      </trkpt>
      <trkpt lat="48.61359" lon="2.08811">
        <ele>131</ele>
        <time>2010-03-19T10:11:23Z</time>
      </trkpt>
      <trkpt lat="48.61359" lon="2.08809">
        <ele>131</ele>
        <time>2010-03-19T10:11:24Z</time>
      </trkpt>
      <trkpt lat="48.61359" lon="2.08806">
        <ele>131</ele>
        <time>2010-03-19T10:11:25Z</time>
      </trkpt>
      <trkpt lat="48.61359" lon="2.08804">
        <ele>131</ele>
        <time>2010-03-19T10:11:26Z</time>
      </trkpt>
      <trkpt lat="48.61359" lon="2.08802">
        <ele>131</ele>
        <time>2010-03-19T10:11:27Z</time>
      </trkpt>
      <trkpt lat="48.6136" lon="2.08799">
        <ele>131</ele>
        <time>2010-03-19T10:11:28Z</time>
      </trkpt>
      <trkpt lat="48.6136" lon="2.08797">
        <ele>131</ele>
        <time>2010-03-19T10:11:29Z</time>
      </trkpt>
      <trkpt lat="48.6136" lon="2.08795">
        <ele>131</ele>
        <time>2010-03-19T10:11:30Z</time>
      </trkpt>
      <trkpt lat="48.6136" lon="2.08793">
        <ele>131</ele>
        <time>2010-03-19T10:11:31Z</time>
      </trkpt>
      <trkpt lat="48.61361" lon="2.08791">
        <ele>131</ele>
        <time>2010-03-19T10:11:32Z</time>
      </trkpt>
      <trkpt lat="48.61361" lon="2.08788">
        <ele>131</ele>
        <time>2010-03-19T10:11:33Z</time>
      </trkpt>
      <trkpt lat="48.61361" lon="2.08786">
        <ele>131</ele>
        <time>2010-03-19T10:11:34Z</time>
      </trkpt>
      <trkpt lat="48.61361" lon="2.08784">
        <ele>131</ele>
        <time>2010-03-19T10:11:35Z</time>
      </trkpt>
      <trkpt lat="48.61362" lon="2.08782">
        <ele>131</ele>
        <time>2010-03-19T10:11:36Z</time>
      </trkpt>
      <trkpt lat="48.61362" lon="2.08779">
        <ele>131</ele>
        <time>2010-03-19T10:11:37Z</time>
      </trkpt>
      <trkpt lat="48.61363" lon="2.08777">
        <ele>131</ele>
        <time>2010-03-19T10:11:38Z</time>
      </trkpt>
      <trkpt lat="48.61363" lon="2.08775">
        <ele>131</ele>
        <time>2010-03-19T10:11:39Z</time>
      </trkpt>
      <trkpt lat="48.61364" lon="2.08772">
        <ele>131</ele>
        <time>2010-03-19T10:11:40Z</time>
      </trkpt>
      <trkpt lat="48.61364" lon="2.0877">
        <ele>131</ele>
        <time>2010-03-19T10:11:41Z</time>
      </trkpt>
      <trkpt lat="48.61364" lon="2.08768">
        <ele>131</ele>
        <time>2010-03-19T10:11:42Z</time>
      </trkpt>
      <trkpt lat="48.61365" lon="2.08765">
        <ele>131</ele>
        <time>2010-03-19T10:11:43Z</time>
      </trkpt>
      <trkpt lat="48.61366" lon="2.08763">
        <ele>131</ele>
        <time>2010-03-19T10:11:44Z</time>
      </trkpt>
      <trkpt lat="48.61366" lon="2.0876">
        <ele>131</ele>
        <time>2010-03-19T10:11:45Z</time>
      </trkpt>
      <trkpt lat="48.61367" lon="2.08758">
        <ele>132</ele>
        <time>2010-03-19T10:11:46Z</time>
      </trkpt>
      <trkpt lat="48.61367" lon="2.08756">
        <ele>132</ele>
        <time>2010-03-19T10:11:47Z</time>
      </trkpt>
      <trkpt lat="48.61368" lon="2.08754">
        <ele>132</ele>
        <time>2010-03-19T10:11:48Z</time>
      </trkpt>
      <trkpt lat="48.61369" lon="2.08752">
        <ele>132</ele>
        <time>2010-03-19T10:11:49Z</time>
      </trkpt>
      <trkpt lat="48.6137" lon="2.0875">
        <ele>133</ele>
        <time>2010-03-19T10:11:50Z</time>
      </trkpt>
      <trkpt lat="48.6137" lon="2.08747">
        <ele>133</ele>
        <time>2010-03-19T10:11:51Z</time>
      </trkpt>
      <trkpt lat="48.61371" lon="2.08745">
        <ele>133</ele>
        <time>2010-03-19T10:11:52Z</time>
      </trkpt>
      <trkpt lat="48.61371" lon="2.08743">
        <ele>133</ele>
        <time>2010-03-19T10:11:53Z</time>
      </trkpt>
      <trkpt lat="48.61372" lon="2.0874">
        <ele>134</ele>
        <time>2010-03-19T10:11:54Z</time>
      </trkpt>
      <trkpt lat="48.61372" lon="2.08738">
        <ele>134</ele>
        <time>2010-03-19T10:11:55Z</time>
      </trkpt>
      <trkpt lat="48.61373" lon="2.08736">
        <ele>134</ele>
        <time>2010-03-19T10:11:56Z</time>
      </trkpt>
      <trkpt lat="48.61374" lon="2.08734">
        <ele>134</ele>
        <time>2010-03-19T10:11:57Z</time>
      </trkpt>
      <trkpt lat="48.61374" lon="2.08732">
        <ele>134</ele>
        <time>2010-03-19T10:11:58Z</time>
      </trkpt>
      <trkpt lat="48.61375" lon="2.08729">
        <ele>134</ele>
        <time>2010-03-19T10:11:59Z</time>
      </trkpt>
      <trkpt lat="48.61375" lon="2.08727">
        <ele>134</ele>
        <time>2010-03-19T10:12:00Z</time>
      </trkpt>
      <trkpt lat="48.61376" lon="2.08725">
        <ele>134</ele>
        <time>2010-03-19T10:12:01Z</time>
      </trkpt>
      <trkpt lat="48.61377" lon="2.08723">
        <ele>134</ele>
        <time>2010-03-19T10:12:02Z</time>
      </trkpt>
      <trkpt lat="48.61377" lon="2.08721">
        <ele>134</ele>
        <time>2010-03-19T10:12:03Z</time>
      </trkpt>
      <trkpt lat="48.61378" lon="2.08719">
        <ele>134</ele>
        <time>2010-03-19T10:12:04Z</time>
      </trkpt>
      <trkpt lat="48.61378" lon="2.08717">
        <ele>134</ele>
        <time>2010-03-19T10:12:05Z</time>
      </trkpt>
      <trkpt lat="48.61379" lon="2.08715">
        <ele>134</ele>
        <time>2010-03-19T10:12:06Z</time>
      </trkpt>
      <trkpt lat="48.6138" lon="2.08713">
        <ele>134</ele>
        <time>2010-03-19T10:12:07Z</time>
      </trkpt>
      <trkpt lat="48.6138" lon="2.08711">
        <ele>134</ele>
        <time>2010-03-19T10:12:08Z</time>
      </trkpt>
      <trkpt lat="48.61381" lon="2.08709">
        <ele>134</ele>
        <time>2010-03-19T10:12:09Z</time>
      </trkpt>
      <trkpt lat="48.61382" lon="2.08706">
        <ele>134</ele>
        <time>2010-03-19T10:12:10Z</time>
      </trkpt>
      <trkpt lat="48.61383" lon="2.08704">
        <ele>134</ele>
        <time>2010-03-19T10:12:11Z</time>
      </trkpt>
      <trkpt lat="48.61384" lon="2.08702">
        <ele>134</ele>
        <time>2010-03-19T10:12:12Z</time>
      </trkpt>
      <trkpt lat="48.61385" lon="2.087">
        <ele>134</ele>
        <time>2010-03-19T10:12:13Z</time>
      </trkpt>
      <trkpt lat="48.61386" lon="2.08699">
        <ele>134</ele>
        <time>2010-03-19T10:12:14Z</time>
      </trkpt>
      <trkpt lat="48.61387" lon="2.08697">
        <ele>134</ele>
        <time>2010-03-19T10:12:15Z</time>
      </trkpt>
      <trkpt lat="48.61388" lon="2.08695">
        <ele>134</ele>
        <time>2010-03-19T10:12:17Z</time>
      </trkpt>
      <trkpt lat="48.61389" lon="2.08694">
        <ele>136</ele>
        <time>2010-03-19T10:12:26Z</time>
      </trkpt>
      <trkpt lat="48.6139" lon="2.08694">
        <ele>137</ele>
        <time>2010-03-19T10:12:28Z</time>
      </trkpt>
      <trkpt lat="48.61391" lon="2.08692">
        <ele>139</ele>
        <time>2010-03-19T10:12:30Z</time>
      </trkpt>
      <trkpt lat="48.61392" lon="2.08689">
        <ele>139</ele>
        <time>2010-03-19T10:12:31Z</time>
      </trkpt>
      <trkpt lat="48.61393" lon="2.08686">
        <ele>140</ele>
        <time>2010-03-19T10:12:32Z</time>
      </trkpt>
      <trkpt lat="48.61395" lon="2.08684">
        <ele>140</ele>
        <time>2010-03-19T10:12:33Z</time>
      </trkpt>
      <trkpt lat="48.61396" lon="2.08681">
        <ele>140</ele>
        <time>2010-03-19T10:12:34Z</time>
      </trkpt>
      <trkpt lat="48.61396" lon="2.08679">
        <ele>140</ele>
        <time>2010-03-19T10:12:35Z</time>
      </trkpt>
      <trkpt lat="48.61397" lon="2.08677">
        <ele>140</ele>
        <time>2010-03-19T10:12:36Z</time>
      </trkpt>
      <trkpt lat="48.61398" lon="2.08675">
        <ele>140</ele>
        <time>2010-03-19T10:12:37Z</time>
      </trkpt>
      <trkpt lat="48.61399" lon="2.08672">
        <ele>140</ele>
        <time>2010-03-19T10:12:38Z</time>
      </trkpt>
      <trkpt lat="48.61399" lon="2.08671">
        <ele>140</ele>
        <time>2010-03-19T10:12:39Z</time>
      </trkpt>
      <trkpt lat="48.614" lon="2.08669">
        <ele>140</ele>
        <time>2010-03-19T10:12:40Z</time>
      </trkpt>
      <trkpt lat="48.61401" lon="2.08667">
        <ele>140</ele>
        <time>2010-03-19T10:12:41Z</time>
      </trkpt>
      <trkpt lat="48.61402" lon="2.08665">
        <ele>140</ele>
        <time>2010-03-19T10:12:42Z</time>
      </trkpt>
      <trkpt lat="48.61403" lon="2.08664">
        <ele>140</ele>
        <time>2010-03-19T10:12:43Z</time>
      </trkpt>
      <trkpt lat="48.61403" lon="2.08662">
        <ele>140</ele>
        <time>2010-03-19T10:12:44Z</time>
      </trkpt>
      <trkpt lat="48.61404" lon="2.0866">
        <ele>140</ele>
        <time>2010-03-19T10:12:45Z</time>
      </trkpt>
      <trkpt lat="48.61405" lon="2.08658">
        <ele>140</ele>
        <time>2010-03-19T10:12:46Z</time>
      </trkpt>
      <trkpt lat="48.61405" lon="2.08656">
        <ele>140</ele>
        <time>2010-03-19T10:12:47Z</time>
      </trkpt>
      <trkpt lat="48.61406" lon="2.08654">
        <ele>140</ele>
        <time>2010-03-19T10:12:48Z</time>
      </trkpt>
      <trkpt lat="48.61407" lon="2.08652">
        <ele>140</ele>
        <time>2010-03-19T10:12:49Z</time>
      </trkpt>
      <trkpt lat="48.61407" lon="2.0865">
        <ele>140</ele>
        <time>2010-03-19T10:12:50Z</time>
      </trkpt>
      <trkpt lat="48.61408" lon="2.08648">
        <ele>140</ele>
        <time>2010-03-19T10:12:51Z</time>
      </trkpt>
      <trkpt lat="48.61409" lon="2.08646">
        <ele>140</ele>
        <time>2010-03-19T10:12:52Z</time>
      </trkpt>
      <trkpt lat="48.6141" lon="2.08644">
        <ele>140</ele>
        <time>2010-03-19T10:12:53Z</time>
      </trkpt>
      <trkpt lat="48.61411" lon="2.08642">
        <ele>140</ele>
        <time>2010-03-19T10:12:54Z</time>
      </trkpt>
      <trkpt lat="48.61411" lon="2.0864">
        <ele>140</ele>
        <time>2010-03-19T10:12:55Z</time>
      </trkpt>
      <trkpt lat="48.61411" lon="2.08638">
        <ele>140</ele>
        <time>2010-03-19T10:12:56Z</time>
      </trkpt>
      <trkpt lat="48.61411" lon="2.08636">
        <ele>140</ele>
        <time>2010-03-19T10:12:57Z</time>
      </trkpt>
      <trkpt lat="48.6141" lon="2.08634">
        <ele>140</ele>
        <time>2010-03-19T10:12:59Z</time>
      </trkpt>
      <trkpt lat="48.61409" lon="2.08639">
        <ele>140</ele>
        <time>2010-03-19T10:13:02Z</time>
      </trkpt>
      <trkpt lat="48.61408" lon="2.08642">
        <ele>140</ele>
        <time>2010-03-19T10:13:03Z</time>
      </trkpt>
      <trkpt lat="48.61407" lon="2.08645">
        <ele>140</ele>
        <time>2010-03-19T10:13:04Z</time>
      </trkpt>
      <trkpt lat="48.61407" lon="2.08643">
        <ele>140</ele>
        <time>2010-03-19T10:13:08Z</time>
      </trkpt>
      <trkpt lat="48.61408" lon="2.08641">
        <ele>140</ele>
        <time>2010-03-19T10:13:09Z</time>
      </trkpt>
      <trkpt lat="48.61409" lon="2.08639">
        <ele>140</ele>
        <time>2010-03-19T10:13:10Z</time>
      </trkpt>
      <trkpt lat="48.61409" lon="2.08637">
        <ele>140</ele>
        <time>2010-03-19T10:13:11Z</time>
      </trkpt>
      <trkpt lat="48.61408" lon="2.08635">
        <ele>140</ele>
        <time>2010-03-19T10:13:13Z</time>
      </trkpt>
      <trkpt lat="48.61406" lon="2.08634">
        <ele>140</ele>
        <time>2010-03-19T10:13:14Z</time>
      </trkpt>
      <trkpt lat="48.61403" lon="2.08634">
        <ele>140</ele>
        <time>2010-03-19T10:13:15Z</time>
      </trkpt>
      <trkpt lat="48.61399" lon="2.08633">
        <ele>140</ele>
        <time>2010-03-19T10:13:16Z</time>
      </trkpt>
      <trkpt lat="48.61395" lon="2.08632">
        <ele>140</ele>
        <time>2010-03-19T10:13:17Z</time>
      </trkpt>
      <trkpt lat="48.61391" lon="2.08632">
        <ele>140</ele>
        <time>2010-03-19T10:13:18Z</time>
      </trkpt>
      <trkpt lat="48.61386" lon="2.08631">
        <ele>140</ele>
        <time>2010-03-19T10:13:19Z</time>
      </trkpt>
      <trkpt lat="48.61382" lon="2.08631">
        <ele>140</ele>
        <time>2010-03-19T10:13:20Z</time>
      </trkpt>
      <trkpt lat="48.61378" lon="2.0863">
        <ele>140</ele>
        <time>2010-03-19T10:13:21Z</time>
      </trkpt>
      <trkpt lat="48.61375" lon="2.08629">
        <ele>140</ele>
        <time>2010-03-19T10:13:22Z</time>
      </trkpt>
      <trkpt lat="48.61374" lon="2.08628">
        <ele>140</ele>
        <time>2010-03-19T10:13:23Z</time>
      </trkpt>
      <trkpt lat="48.61372" lon="2.08627">
        <ele>140</ele>
        <time>2010-03-19T10:13:24Z</time>
      </trkpt>
      <trkpt lat="48.6137" lon="2.08628">
        <ele>140</ele>
        <time>2010-03-19T10:13:25Z</time>
      </trkpt>
      <trkpt lat="48.61367" lon="2.08629">
        <ele>140</ele>
        <time>2010-03-19T10:13:26Z</time>
      </trkpt>
      <trkpt lat="48.61366" lon="2.08629">
        <ele>140</ele>
        <time>2010-03-19T10:13:27Z</time>
      </trkpt>
      <trkpt lat="48.61364" lon="2.08628">
        <ele>140</ele>
        <time>2010-03-19T10:13:28Z</time>
      </trkpt>
      <trkpt lat="48.61363" lon="2.08628">
        <ele>140</ele>
        <time>2010-03-19T10:13:29Z</time>
      </trkpt>
      <trkpt lat="48.61361" lon="2.08627">
        <ele>140</ele>
        <time>2010-03-19T10:13:30Z</time>
      </trkpt>
      <trkpt lat="48.6136" lon="2.08627">
        <ele>140</ele>
        <time>2010-03-19T10:13:31Z</time>
      </trkpt>
      <trkpt lat="48.61358" lon="2.08627">
        <ele>140</ele>
        <time>2010-03-19T10:13:32Z</time>
      </trkpt>
      <trkpt lat="48.61357" lon="2.08626">
        <ele>140</ele>
        <time>2010-03-19T10:13:33Z</time>
      </trkpt>
      <trkpt lat="48.61355" lon="2.08626">
        <ele>140</ele>
        <time>2010-03-19T10:13:34Z</time>
      </trkpt>
      <trkpt lat="48.61354" lon="2.08625">
        <ele>140</ele>
        <time>2010-03-19T10:13:35Z</time>
      </trkpt>
      <trkpt lat="48.61353" lon="2.08623">
        <ele>140</ele>
        <time>2010-03-19T10:13:36Z</time>
      </trkpt>
      <trkpt lat="48.61351" lon="2.08623">
        <ele>140</ele>
        <time>2010-03-19T10:13:37Z</time>
      </trkpt>
      <trkpt lat="48.61349" lon="2.08622">
        <ele>139</ele>
        <time>2010-03-19T10:13:38Z</time>
      </trkpt>
      <trkpt lat="48.61348" lon="2.08622">
        <ele>139</ele>
        <time>2010-03-19T10:13:39Z</time>
      </trkpt>
      <trkpt lat="48.61347" lon="2.08621">
        <ele>138</ele>
        <time>2010-03-19T10:13:40Z</time>
      </trkpt>
      <trkpt lat="48.61346" lon="2.08621">
        <ele>138</ele>
        <time>2010-03-19T10:13:41Z</time>
      </trkpt>
      <trkpt lat="48.61345" lon="2.08621">
        <ele>138</ele>
        <time>2010-03-19T10:13:42Z</time>
      </trkpt>
      <trkpt lat="48.61343" lon="2.08621">
        <ele>138</ele>
        <time>2010-03-19T10:13:43Z</time>
      </trkpt>
      <trkpt lat="48.61341" lon="2.0862">
        <ele>138</ele>
        <time>2010-03-19T10:13:44Z</time>
      </trkpt>
      <trkpt lat="48.6134" lon="2.0862">
        <ele>138</ele>
        <time>2010-03-19T10:13:45Z</time>
      </trkpt>
      <trkpt lat="48.61338" lon="2.0862">
        <ele>138</ele>
        <time>2010-03-19T10:13:46Z</time>
      </trkpt>
      <trkpt lat="48.61337" lon="2.0862">
        <ele>138</ele>
        <time>2010-03-19T10:13:47Z</time>
      </trkpt>
      <trkpt lat="48.61336" lon="2.08619">
        <ele>138</ele>
        <time>2010-03-19T10:13:48Z</time>
      </trkpt>
      <trkpt lat="48.61334" lon="2.08619">
        <ele>138</ele>
        <time>2010-03-19T10:13:49Z</time>
      </trkpt>
      <trkpt lat="48.61333" lon="2.08619">
        <ele>138</ele>
        <time>2010-03-19T10:13:50Z</time>
      </trkpt>
      <trkpt lat="48.61331" lon="2.08619">
        <ele>138</ele>
        <time>2010-03-19T10:13:51Z</time>
      </trkpt>
      <trkpt lat="48.6133" lon="2.08618">
        <ele>138</ele>
        <time>2010-03-19T10:13:52Z</time>
      </trkpt>
      <trkpt lat="48.61329" lon="2.08617">
        <ele>138</ele>
        <time>2010-03-19T10:13:53Z</time>
      </trkpt>
      <trkpt lat="48.61327" lon="2.08617">
        <ele>138</ele>
        <time>2010-03-19T10:13:54Z</time>
      </trkpt>
      <trkpt lat="48.61325" lon="2.08616">
        <ele>138</ele>
        <time>2010-03-19T10:13:55Z</time>
      </trkpt>
      <trkpt lat="48.61324" lon="2.08614">
        <ele>137</ele>
        <time>2010-03-19T10:13:56Z</time>
      </trkpt>
      <trkpt lat="48.61323" lon="2.08613">
        <ele>137</ele>
        <time>2010-03-19T10:13:57Z</time>
      </trkpt>
      <trkpt lat="48.61322" lon="2.08612">
        <ele>137</ele>
        <time>2010-03-19T10:13:58Z</time>
      </trkpt>
      <trkpt lat="48.6132" lon="2.0861">
        <ele>137</ele>
        <time>2010-03-19T10:14:00Z</time>
      </trkpt>
      <trkpt lat="48.61317" lon="2.08608">
        <ele>136</ele>
        <time>2010-03-19T10:14:02Z</time>
      </trkpt>
      <trkpt lat="48.61315" lon="2.08606">
        <ele>136</ele>
        <time>2010-03-19T10:14:04Z</time>
      </trkpt>
      <trkpt lat="48.61313" lon="2.08604">
        <ele>136</ele>
        <time>2010-03-19T10:14:06Z</time>
      </trkpt>
      <trkpt lat="48.61312" lon="2.08602">
        <ele>135</ele>
        <time>2010-03-19T10:14:07Z</time>
      </trkpt>
      <trkpt lat="48.61311" lon="2.08601">
        <ele>135</ele>
        <time>2010-03-19T10:14:08Z</time>
      </trkpt>
      <trkpt lat="48.61309" lon="2.08601">
        <ele>135</ele>
        <time>2010-03-19T10:14:09Z</time>
      </trkpt>
      <trkpt lat="48.61308" lon="2.086">
        <ele>135</ele>
        <time>2010-03-19T10:14:10Z</time>
      </trkpt>
      <trkpt lat="48.61307" lon="2.08599">
        <ele>134</ele>
        <time>2010-03-19T10:14:11Z</time>
      </trkpt>
      <trkpt lat="48.61306" lon="2.08598">
        <ele>134</ele>
        <time>2010-03-19T10:14:12Z</time>
      </trkpt>
      <trkpt lat="48.61305" lon="2.08597">
        <ele>134</ele>
        <time>2010-03-19T10:14:13Z</time>
      </trkpt>
      <trkpt lat="48.61303" lon="2.08596">
        <ele>134</ele>
        <time>2010-03-19T10:14:14Z</time>
      </trkpt>
      <trkpt lat="48.61301" lon="2.08596">
        <ele>134</ele>
        <time>2010-03-19T10:14:15Z</time>
      </trkpt>
      <trkpt lat="48.613" lon="2.08595">
        <ele>133</ele>
        <time>2010-03-19T10:14:16Z</time>
      </trkpt>
      <trkpt lat="48.61298" lon="2.08594">
        <ele>133</ele>
        <time>2010-03-19T10:14:17Z</time>
      </trkpt>
      <trkpt lat="48.61297" lon="2.08594">
        <ele>133</ele>
        <time>2010-03-19T10:14:18Z</time>
      </trkpt>
      <trkpt lat="48.61296" lon="2.08593">
        <ele>132</ele>
        <time>2010-03-19T10:14:19Z</time>
      </trkpt>
      <trkpt lat="48.61295" lon="2.08592">
        <ele>132</ele>
        <time>2010-03-19T10:14:20Z</time>
      </trkpt>
      <trkpt lat="48.61293" lon="2.08591">
        <ele>132</ele>
        <time>2010-03-19T10:14:21Z</time>
      </trkpt>
      <trkpt lat="48.61291" lon="2.0859">
        <ele>132</ele>
        <time>2010-03-19T10:14:22Z</time>
      </trkpt>
      <trkpt lat="48.6129" lon="2.08589">
        <ele>131</ele>
        <time>2010-03-19T10:14:23Z</time>
      </trkpt>
      <trkpt lat="48.61289" lon="2.08588">
        <ele>131</ele>
        <time>2010-03-19T10:14:24Z</time>
      </trkpt>
      <trkpt lat="48.61288" lon="2.08587">
        <ele>131</ele>
        <time>2010-03-19T10:14:25Z</time>
      </trkpt>
      <trkpt lat="48.61287" lon="2.08586">
        <ele>131</ele>
        <time>2010-03-19T10:14:26Z</time>
      </trkpt>
      <trkpt lat="48.61285" lon="2.08585">
        <ele>131</ele>
        <time>2010-03-19T10:14:27Z</time>
      </trkpt>
      <trkpt lat="48.61283" lon="2.08584">
        <ele>131</ele>
        <time>2010-03-19T10:14:28Z</time>
      </trkpt>
      <trkpt lat="48.61282" lon="2.08583">
        <ele>131</ele>
        <time>2010-03-19T10:14:29Z</time>
      </trkpt>
      <trkpt lat="48.61281" lon="2.08582">
        <ele>131</ele>
        <time>2010-03-19T10:14:30Z</time>
      </trkpt>
      <trkpt lat="48.6128" lon="2.08581">
        <ele>131</ele>
        <time>2010-03-19T10:14:31Z</time>
      </trkpt>
      <trkpt lat="48.61279" lon="2.0858">
        <ele>131</ele>
        <time>2010-03-19T10:14:33Z</time>
      </trkpt>
      <trkpt lat="48.61276" lon="2.08579">
        <ele>131</ele>
        <time>2010-03-19T10:14:35Z</time>
      </trkpt>
      <trkpt lat="48.61275" lon="2.08578">
        <ele>130</ele>
        <time>2010-03-19T10:14:36Z</time>
      </trkpt>
      <trkpt lat="48.61273" lon="2.08576">
        <ele>130</ele>
        <time>2010-03-19T10:14:37Z</time>
      </trkpt>
      <trkpt lat="48.61272" lon="2.08576">
        <ele>130</ele>
        <time>2010-03-19T10:14:38Z</time>
      </trkpt>
      <trkpt lat="48.61271" lon="2.08575">
        <ele>130</ele>
        <time>2010-03-19T10:14:39Z</time>
      </trkpt>
      <trkpt lat="48.61269" lon="2.08573">
        <ele>130</ele>
        <time>2010-03-19T10:14:40Z</time>
      </trkpt>
      <trkpt lat="48.61268" lon="2.08572">
        <ele>130</ele>
        <time>2010-03-19T10:14:41Z</time>
      </trkpt>
      <trkpt lat="48.61266" lon="2.08571">
        <ele>130</ele>
        <time>2010-03-19T10:14:42Z</time>
      </trkpt>
      <trkpt lat="48.61265" lon="2.0857">
        <ele>130</ele>
        <time>2010-03-19T10:14:43Z</time>
      </trkpt>
      <trkpt lat="48.61263" lon="2.08569">
        <ele>129</ele>
        <time>2010-03-19T10:14:45Z</time>
      </trkpt>
      <trkpt lat="48.61262" lon="2.08568">
        <ele>129</ele>
        <time>2010-03-19T10:14:46Z</time>
      </trkpt>
      <trkpt lat="48.61261" lon="2.08568">
        <ele>129</ele>
        <time>2010-03-19T10:14:47Z</time>
      </trkpt>
      <trkpt lat="48.61259" lon="2.08567">
        <ele>129</ele>
        <time>2010-03-19T10:14:48Z</time>
      </trkpt>
      <trkpt lat="48.61258" lon="2.08566">
        <ele>129</ele>
        <time>2010-03-19T10:14:49Z</time>
      </trkpt>
      <trkpt lat="48.61257" lon="2.08565">
        <ele>129</ele>
        <time>2010-03-19T10:14:50Z</time>
      </trkpt>
      <trkpt lat="48.61256" lon="2.08564">
        <ele>129</ele>
        <time>2010-03-19T10:14:51Z</time>
      </trkpt>
      <trkpt lat="48.61255" lon="2.08563">
        <ele>129</ele>
        <time>2010-03-19T10:14:52Z</time>
      </trkpt>
      <trkpt lat="48.61252" lon="2.08561">
        <ele>128</ele>
        <time>2010-03-19T10:14:54Z</time>
      </trkpt>
      <trkpt lat="48.6125" lon="2.08559">
        <ele>128</ele>
        <time>2010-03-19T10:14:56Z</time>
      </trkpt>
      <trkpt lat="48.61249" lon="2.08557">
        <ele>128</ele>
        <time>2010-03-19T10:14:57Z</time>
      </trkpt>
      <trkpt lat="48.61248" lon="2.08556">
        <ele>127</ele>
        <time>2010-03-19T10:14:58Z</time>
      </trkpt>
      <trkpt lat="48.61246" lon="2.08553">
        <ele>127</ele>
        <time>2010-03-19T10:15:00Z</time>
      </trkpt>
      <trkpt lat="48.61244" lon="2.0855">
        <ele>127</ele>
        <time>2010-03-19T10:15:02Z</time>
      </trkpt>
      <trkpt lat="48.61243" lon="2.08548">
        <ele>127</ele>
        <time>2010-03-19T10:15:03Z</time>
      </trkpt>
      <trkpt lat="48.61242" lon="2.08547">
        <ele>127</ele>
        <time>2010-03-19T10:15:04Z</time>
      </trkpt>
      <trkpt lat="48.6124" lon="2.08545">
        <ele>126</ele>
        <time>2010-03-19T10:15:05Z</time>
      </trkpt>
      <trkpt lat="48.61239" lon="2.08543">
        <ele>126</ele>
        <time>2010-03-19T10:15:06Z</time>
      </trkpt>
      <trkpt lat="48.61237" lon="2.08542">
        <ele>126</ele>
        <time>2010-03-19T10:15:07Z</time>
      </trkpt>
      <trkpt lat="48.61236" lon="2.0854">
        <ele>126</ele>
        <time>2010-03-19T10:15:08Z</time>
      </trkpt>
      <trkpt lat="48.61234" lon="2.08539">
        <ele>126</ele>
        <time>2010-03-19T10:15:10Z</time>
      </trkpt>
      <trkpt lat="48.61232" lon="2.08535">
        <ele>126</ele>
        <time>2010-03-19T10:15:11Z</time>
      </trkpt>
      <trkpt lat="48.61231" lon="2.08534">
        <ele>126</ele>
        <time>2010-03-19T10:15:12Z</time>
      </trkpt>
      <trkpt lat="48.61229" lon="2.08531">
        <ele>125</ele>
        <time>2010-03-19T10:15:14Z</time>
      </trkpt>
      <trkpt lat="48.61228" lon="2.08529">
        <ele>125</ele>
        <time>2010-03-19T10:15:15Z</time>
      </trkpt>
      <trkpt lat="48.61226" lon="2.08526">
        <ele>125</ele>
        <time>2010-03-19T10:15:17Z</time>
      </trkpt>
      <trkpt lat="48.61226" lon="2.08524">
        <ele>125</ele>
        <time>2010-03-19T10:15:18Z</time>
      </trkpt>
      <trkpt lat="48.61224" lon="2.08523">
        <ele>125</ele>
        <time>2010-03-19T10:15:19Z</time>
      </trkpt>
      <trkpt lat="48.61222" lon="2.0852">
        <ele>125</ele>
        <time>2010-03-19T10:15:21Z</time>
      </trkpt>
      <trkpt lat="48.61221" lon="2.08518">
        <ele>125</ele>
        <time>2010-03-19T10:15:22Z</time>
      </trkpt>
      <trkpt lat="48.6122" lon="2.08516">
        <ele>125</ele>
        <time>2010-03-19T10:15:23Z</time>
      </trkpt>
      <trkpt lat="48.61218" lon="2.08514">
        <ele>125</ele>
        <time>2010-03-19T10:15:24Z</time>
      </trkpt>
      <trkpt lat="48.61217" lon="2.08513">
        <ele>125</ele>
        <time>2010-03-19T10:15:25Z</time>
      </trkpt>
      <trkpt lat="48.61216" lon="2.08511">
        <ele>125</ele>
        <time>2010-03-19T10:15:26Z</time>
      </trkpt>
      <trkpt lat="48.61214" lon="2.08509">
        <ele>125</ele>
        <time>2010-03-19T10:15:27Z</time>
      </trkpt>
      <trkpt lat="48.61213" lon="2.08506">
        <ele>125</ele>
        <time>2010-03-19T10:15:29Z</time>
      </trkpt>
      <trkpt lat="48.61212" lon="2.08505">
        <ele>125</ele>
        <time>2010-03-19T10:15:30Z</time>
      </trkpt>
      <trkpt lat="48.61211" lon="2.08503">
        <ele>125</ele>
        <time>2010-03-19T10:15:31Z</time>
      </trkpt>
      <trkpt lat="48.61209" lon="2.085">
        <ele>125</ele>
        <time>2010-03-19T10:15:33Z</time>
      </trkpt>
      <trkpt lat="48.61209" lon="2.08498">
        <ele>125</ele>
        <time>2010-03-19T10:15:34Z</time>
      </trkpt>
      <trkpt lat="48.61207" lon="2.08495">
        <ele>125</ele>
        <time>2010-03-19T10:15:36Z</time>
      </trkpt>
      <trkpt lat="48.61206" lon="2.08493">
        <ele>125</ele>
        <time>2010-03-19T10:15:37Z</time>
      </trkpt>
      <trkpt lat="48.61205" lon="2.08491">
        <ele>125</ele>
        <time>2010-03-19T10:15:38Z</time>
      </trkpt>
      <trkpt lat="48.61205" lon="2.08489">
        <ele>125</ele>
        <time>2010-03-19T10:15:39Z</time>
      </trkpt>
      <trkpt lat="48.61204" lon="2.08488">
        <ele>125</ele>
        <time>2010-03-19T10:15:40Z</time>
      </trkpt>
      <trkpt lat="48.61202" lon="2.08486">
        <ele>125</ele>
        <time>2010-03-19T10:15:41Z</time>
      </trkpt>
      <trkpt lat="48.61201" lon="2.08483">
        <ele>125</ele>
        <time>2010-03-19T10:15:42Z</time>
      </trkpt>
      <trkpt lat="48.612" lon="2.08481">
        <ele>125</ele>
        <time>2010-03-19T10:15:43Z</time>
      </trkpt>
      <trkpt lat="48.612" lon="2.08479">
        <ele>125</ele>
        <time>2010-03-19T10:15:44Z</time>
      </trkpt>
      <trkpt lat="48.61199" lon="2.08477">
        <ele>125</ele>
        <time>2010-03-19T10:15:45Z</time>
      </trkpt>
      <trkpt lat="48.61199" lon="2.08475">
        <ele>125</ele>
        <time>2010-03-19T10:15:46Z</time>
      </trkpt>
      <trkpt lat="48.61198" lon="2.08473">
        <ele>125</ele>
        <time>2010-03-19T10:15:47Z</time>
      </trkpt>
      <trkpt lat="48.61198" lon="2.08471">
        <ele>125</ele>
        <time>2010-03-19T10:15:48Z</time>
      </trkpt>
      <trkpt lat="48.61198" lon="2.08469">
        <ele>125</ele>
        <time>2010-03-19T10:15:49Z</time>
      </trkpt>
      <trkpt lat="48.61197" lon="2.08467">
        <ele>125</ele>
        <time>2010-03-19T10:15:50Z</time>
      </trkpt>
      <trkpt lat="48.61197" lon="2.08465">
        <ele>125</ele>
        <time>2010-03-19T10:15:51Z</time>
      </trkpt>
      <trkpt lat="48.61197" lon="2.08462">
        <ele>125</ele>
        <time>2010-03-19T10:15:52Z</time>
      </trkpt>
      <trkpt lat="48.61197" lon="2.0846">
        <ele>125</ele>
        <time>2010-03-19T10:15:53Z</time>
      </trkpt>
      <trkpt lat="48.61196" lon="2.08458">
        <ele>125</ele>
        <time>2010-03-19T10:15:54Z</time>
      </trkpt>
      <trkpt lat="48.61196" lon="2.08456">
        <ele>125</ele>
        <time>2010-03-19T10:15:55Z</time>
      </trkpt>
      <trkpt lat="48.61195" lon="2.08455">
        <ele>125</ele>
        <time>2010-03-19T10:15:56Z</time>
      </trkpt>
      <trkpt lat="48.61195" lon="2.08453">
        <ele>125</ele>
        <time>2010-03-19T10:15:57Z</time>
      </trkpt>
      <trkpt lat="48.61194" lon="2.08451">
        <ele>125</ele>
        <time>2010-03-19T10:15:58Z</time>
      </trkpt>
      <trkpt lat="48.61193" lon="2.0845">
        <ele>125</ele>
        <time>2010-03-19T10:15:59Z</time>
      </trkpt>
      <trkpt lat="48.61193" lon="2.08448">
        <ele>125</ele>
        <time>2010-03-19T10:16:00Z</time>
      </trkpt>
      <trkpt lat="48.61193" lon="2.08446">
        <ele>125</ele>
        <time>2010-03-19T10:16:01Z</time>
      </trkpt>
      <trkpt lat="48.61192" lon="2.08444">
        <ele>125</ele>
        <time>2010-03-19T10:16:02Z</time>
      </trkpt>
      <trkpt lat="48.61192" lon="2.08442">
        <ele>125</ele>
        <time>2010-03-19T10:16:03Z</time>
      </trkpt>
      <trkpt lat="48.61191" lon="2.0844">
        <ele>125</ele>
        <time>2010-03-19T10:16:04Z</time>
      </trkpt>
      <trkpt lat="48.61191" lon="2.08438">
        <ele>125</ele>
        <time>2010-03-19T10:16:05Z</time>
      </trkpt>
      <trkpt lat="48.6119" lon="2.08437">
        <ele>125</ele>
        <time>2010-03-19T10:16:06Z</time>
      </trkpt>
      <trkpt lat="48.6119" lon="2.08435">
        <ele>125</ele>
        <time>2010-03-19T10:16:07Z</time>
      </trkpt>
      <trkpt lat="48.6119" lon="2.08433">
        <ele>125</ele>
        <time>2010-03-19T10:16:08Z</time>
      </trkpt>
      <trkpt lat="48.6119" lon="2.08431">
        <ele>125</ele>
        <time>2010-03-19T10:16:09Z</time>
      </trkpt>
      <trkpt lat="48.61189" lon="2.08429">
        <ele>125</ele>
        <time>2010-03-19T10:16:10Z</time>
      </trkpt>
      <trkpt lat="48.61189" lon="2.08426">
        <ele>125</ele>
        <time>2010-03-19T10:16:11Z</time>
      </trkpt>
      <trkpt lat="48.61189" lon="2.08424">
        <ele>125</ele>
        <time>2010-03-19T10:16:12Z</time>
      </trkpt>
      <trkpt lat="48.61188" lon="2.08422">
        <ele>125</ele>
        <time>2010-03-19T10:16:13Z</time>
      </trkpt>
      <trkpt lat="48.61187" lon="2.08419">
        <ele>125</ele>
        <time>2010-03-19T10:16:14Z</time>
      </trkpt>
      <trkpt lat="48.61187" lon="2.08417">
        <ele>125</ele>
        <time>2010-03-19T10:16:15Z</time>
      </trkpt>
      <trkpt lat="48.61187" lon="2.08415">
        <ele>125</ele>
        <time>2010-03-19T10:16:16Z</time>
      </trkpt>
      <trkpt lat="48.61187" lon="2.08413">
        <ele>125</ele>
        <time>2010-03-19T10:16:17Z</time>
      </trkpt>
      <trkpt lat="48.61187" lon="2.08411">
        <ele>125</ele>
        <time>2010-03-19T10:16:18Z</time>
      </trkpt>
      <trkpt lat="48.61187" lon="2.08408">
        <ele>125</ele>
        <time>2010-03-19T10:16:19Z</time>
      </trkpt>
      <trkpt lat="48.61187" lon="2.08405">
        <ele>125</ele>
        <time>2010-03-19T10:16:20Z</time>
      </trkpt>
      <trkpt lat="48.61186" lon="2.08403">
        <ele>125</ele>
        <time>2010-03-19T10:16:21Z</time>
      </trkpt>
      <trkpt lat="48.61186" lon="2.08401">
        <ele>125</ele>
        <time>2010-03-19T10:16:22Z</time>
      </trkpt>
      <trkpt lat="48.61186" lon="2.08398">
        <ele>125</ele>
        <time>2010-03-19T10:16:23Z</time>
      </trkpt>
      <trkpt lat="48.61186" lon="2.08395">
        <ele>125</ele>
        <time>2010-03-19T10:16:24Z</time>
      </trkpt>
      <trkpt lat="48.61186" lon="2.08391">
        <ele>125</ele>
        <time>2010-03-19T10:16:25Z</time>
      </trkpt>
      <trkpt lat="48.61186" lon="2.08388">
        <ele>125</ele>
        <time>2010-03-19T10:16:26Z</time>
      </trkpt>
      <trkpt lat="48.61185" lon="2.08386">
        <ele>125</ele>
        <time>2010-03-19T10:16:27Z</time>
      </trkpt>
      <trkpt lat="48.61185" lon="2.08383">
        <ele>125</ele>
        <time>2010-03-19T10:16:28Z</time>
      </trkpt>
      <trkpt lat="48.61185" lon="2.08381">
        <ele>125</ele>
        <time>2010-03-19T10:16:29Z</time>
      </trkpt>
      <trkpt lat="48.61185" lon="2.08378">
        <ele>125</ele>
        <time>2010-03-19T10:16:30Z</time>
      </trkpt>
      <trkpt lat="48.61185" lon="2.08376">
        <ele>125</ele>
        <time>2010-03-19T10:16:31Z</time>
      </trkpt>
      <trkpt lat="48.61185" lon="2.08373">
        <ele>125</ele>
        <time>2010-03-19T10:16:32Z</time>
      </trkpt>
      <trkpt lat="48.61185" lon="2.08371">
        <ele>125</ele>
        <time>2010-03-19T10:16:33Z</time>
      </trkpt>
      <trkpt lat="48.61185" lon="2.08368">
        <ele>125</ele>
        <time>2010-03-19T10:16:34Z</time>
      </trkpt>
      <trkpt lat="48.61185" lon="2.08365">
        <ele>125</ele>
        <time>2010-03-19T10:16:35Z</time>
      </trkpt>
      <trkpt lat="48.61185" lon="2.08363">
        <ele>125</ele>
        <time>2010-03-19T10:16:36Z</time>
      </trkpt>
      <trkpt lat="48.61186" lon="2.0836">
        <ele>125</ele>
        <time>2010-03-19T10:16:37Z</time>
      </trkpt>
      <trkpt lat="48.61186" lon="2.08358">
        <ele>125</ele>
        <time>2010-03-19T10:16:38Z</time>
      </trkpt>
      <trkpt lat="48.61187" lon="2.08356">
        <ele>125</ele>
        <time>2010-03-19T10:16:39Z</time>
      </trkpt>
      <trkpt lat="48.61187" lon="2.08354">
        <ele>125</ele>
        <time>2010-03-19T10:16:40Z</time>
      </trkpt>
      <trkpt lat="48.61188" lon="2.08352">
        <ele>125</ele>
        <time>2010-03-19T10:16:41Z</time>
      </trkpt>
      <trkpt lat="48.61188" lon="2.08348">
        <ele>125</ele>
        <time>2010-03-19T10:16:42Z</time>
      </trkpt>
      <trkpt lat="48.61189" lon="2.08346">
        <ele>125</ele>
        <time>2010-03-19T10:16:43Z</time>
      </trkpt>
      <trkpt lat="48.61189" lon="2.08344">
        <ele>125</ele>
        <time>2010-03-19T10:16:44Z</time>
      </trkpt>
      <trkpt lat="48.6119" lon="2.08341">
        <ele>125</ele>
        <time>2010-03-19T10:16:46Z</time>
      </trkpt>
      <trkpt lat="48.61191" lon="2.08339">
        <ele>125</ele>
        <time>2010-03-19T10:16:47Z</time>
      </trkpt>
      <trkpt lat="48.61192" lon="2.08337">
        <ele>125</ele>
        <time>2010-03-19T10:16:48Z</time>
      </trkpt>
      <trkpt lat="48.61193" lon="2.08335">
        <ele>125</ele>
        <time>2010-03-19T10:16:49Z</time>
      </trkpt>
      <trkpt lat="48.61193" lon="2.08333">
        <ele>125</ele>
        <time>2010-03-19T10:16:50Z</time>
      </trkpt>
      <trkpt lat="48.61195" lon="2.0833">
        <ele>125</ele>
        <time>2010-03-19T10:16:52Z</time>
      </trkpt>
      <trkpt lat="48.61196" lon="2.08328">
        <ele>125</ele>
        <time>2010-03-19T10:16:53Z</time>
      </trkpt>
      <trkpt lat="48.61197" lon="2.08325">
        <ele>125</ele>
        <time>2010-03-19T10:16:55Z</time>
      </trkpt>
      <trkpt lat="48.61199" lon="2.08322">
        <ele>125</ele>
        <time>2010-03-19T10:16:57Z</time>
      </trkpt>
      <trkpt lat="48.612" lon="2.0832">
        <ele>125</ele>
        <time>2010-03-19T10:16:58Z</time>
      </trkpt>
      <trkpt lat="48.612" lon="2.08318">
        <ele>125</ele>
        <time>2010-03-19T10:16:59Z</time>
      </trkpt>
      <trkpt lat="48.61201" lon="2.08316">
        <ele>125</ele>
        <time>2010-03-19T10:17:00Z</time>
      </trkpt>
      <trkpt lat="48.61201" lon="2.08314">
        <ele>125</ele>
        <time>2010-03-19T10:17:01Z</time>
      </trkpt>
      <trkpt lat="48.61202" lon="2.08313">
        <ele>125</ele>
        <time>2010-03-19T10:17:02Z</time>
      </trkpt>
      <trkpt lat="48.61202" lon="2.0831">
        <ele>125</ele>
        <time>2010-03-19T10:17:03Z</time>
      </trkpt>
      <trkpt lat="48.61204" lon="2.08308">
        <ele>125</ele>
        <time>2010-03-19T10:17:05Z</time>
      </trkpt>
      <trkpt lat="48.61206" lon="2.08304">
        <ele>125</ele>
        <time>2010-03-19T10:17:07Z</time>
      </trkpt>
      <trkpt lat="48.61207" lon="2.08301">
        <ele>125</ele>
        <time>2010-03-19T10:17:09Z</time>
      </trkpt>
      <trkpt lat="48.61208" lon="2.08299">
        <ele>125</ele>
        <time>2010-03-19T10:17:10Z</time>
      </trkpt>
      <trkpt lat="48.61208" lon="2.08296">
        <ele>125</ele>
        <time>2010-03-19T10:17:11Z</time>
      </trkpt>
      <trkpt lat="48.61209" lon="2.08295">
        <ele>125</ele>
        <time>2010-03-19T10:17:12Z</time>
      </trkpt>
      <trkpt lat="48.61209" lon="2.08293">
        <ele>125</ele>
        <time>2010-03-19T10:17:13Z</time>
      </trkpt>
      <trkpt lat="48.6121" lon="2.08291">
        <ele>125</ele>
        <time>2010-03-19T10:17:14Z</time>
      </trkpt>
      <trkpt lat="48.61211" lon="2.08288">
        <ele>125</ele>
        <time>2010-03-19T10:17:15Z</time>
      </trkpt>
      <trkpt lat="48.61212" lon="2.08286">
        <ele>125</ele>
        <time>2010-03-19T10:17:16Z</time>
      </trkpt>
      <trkpt lat="48.61213" lon="2.08284">
        <ele>125</ele>
        <time>2010-03-19T10:17:17Z</time>
      </trkpt>
      <trkpt lat="48.61213" lon="2.08281">
        <ele>125</ele>
        <time>2010-03-19T10:17:18Z</time>
      </trkpt>
      <trkpt lat="48.61214" lon="2.08279">
        <ele>125</ele>
        <time>2010-03-19T10:17:19Z</time>
      </trkpt>
      <trkpt lat="48.61215" lon="2.08277">
        <ele>125</ele>
        <time>2010-03-19T10:17:20Z</time>
      </trkpt>
      <trkpt lat="48.61215" lon="2.08275">
        <ele>125</ele>
        <time>2010-03-19T10:17:21Z</time>
      </trkpt>
      <trkpt lat="48.61216" lon="2.08273">
        <ele>125</ele>
        <time>2010-03-19T10:17:22Z</time>
      </trkpt>
      <trkpt lat="48.61216" lon="2.0827">
        <ele>125</ele>
        <time>2010-03-19T10:17:23Z</time>
      </trkpt>
      <trkpt lat="48.61217" lon="2.08267">
        <ele>125</ele>
        <time>2010-03-19T10:17:24Z</time>
      </trkpt>
      <trkpt lat="48.61217" lon="2.08265">
        <ele>125</ele>
        <time>2010-03-19T10:17:25Z</time>
      </trkpt>
      <trkpt lat="48.61218" lon="2.08263">
        <ele>125</ele>
        <time>2010-03-19T10:17:26Z</time>
      </trkpt>
      <trkpt lat="48.61219" lon="2.08261">
        <ele>125</ele>
        <time>2010-03-19T10:17:27Z</time>
      </trkpt>
      <trkpt lat="48.6122" lon="2.08259">
        <ele>125</ele>
        <time>2010-03-19T10:17:28Z</time>
      </trkpt>
      <trkpt lat="48.61221" lon="2.08257">
        <ele>125</ele>
        <time>2010-03-19T10:17:29Z</time>
      </trkpt>
      <trkpt lat="48.61221" lon="2.08254">
        <ele>125</ele>
        <time>2010-03-19T10:17:30Z</time>
      </trkpt>
      <trkpt lat="48.61222" lon="2.08252">
        <ele>125</ele>
        <time>2010-03-19T10:17:31Z</time>
      </trkpt>
      <trkpt lat="48.61223" lon="2.0825">
        <ele>125</ele>
        <time>2010-03-19T10:17:32Z</time>
      </trkpt>
      <trkpt lat="48.61223" lon="2.08248">
        <ele>125</ele>
        <time>2010-03-19T10:17:33Z</time>
      </trkpt>
      <trkpt lat="48.61224" lon="2.08247">
        <ele>125</ele>
        <time>2010-03-19T10:17:34Z</time>
      </trkpt>
      <trkpt lat="48.61224" lon="2.08245">
        <ele>125</ele>
        <time>2010-03-19T10:17:35Z</time>
      </trkpt>
      <trkpt lat="48.61226" lon="2.08242">
        <ele>125</ele>
        <time>2010-03-19T10:17:37Z</time>
      </trkpt>
      <trkpt lat="48.61227" lon="2.0824">
        <ele>125</ele>
        <time>2010-03-19T10:17:38Z</time>
      </trkpt>
      <trkpt lat="48.61228" lon="2.08238">
        <ele>125</ele>
        <time>2010-03-19T10:17:39Z</time>
      </trkpt>
      <trkpt lat="48.61229" lon="2.08236">
        <ele>125</ele>
        <time>2010-03-19T10:17:40Z</time>
      </trkpt>
      <trkpt lat="48.61229" lon="2.08234">
        <ele>125</ele>
        <time>2010-03-19T10:17:41Z</time>
      </trkpt>
      <trkpt lat="48.6123" lon="2.08232">
        <ele>125</ele>
        <time>2010-03-19T10:17:42Z</time>
      </trkpt>
      <trkpt lat="48.6123" lon="2.0823">
        <ele>125</ele>
        <time>2010-03-19T10:17:43Z</time>
      </trkpt>
      <trkpt lat="48.61231" lon="2.08228">
        <ele>125</ele>
        <time>2010-03-19T10:17:44Z</time>
      </trkpt>
      <trkpt lat="48.61232" lon="2.08225">
        <ele>125</ele>
        <time>2010-03-19T10:17:45Z</time>
      </trkpt>
      <trkpt lat="48.61232" lon="2.08223">
        <ele>125</ele>
        <time>2010-03-19T10:17:46Z</time>
      </trkpt>
      <trkpt lat="48.61233" lon="2.08221">
        <ele>125</ele>
        <time>2010-03-19T10:17:47Z</time>
      </trkpt>
      <trkpt lat="48.61234" lon="2.08219">
        <ele>125</ele>
        <time>2010-03-19T10:17:48Z</time>
      </trkpt>
      <trkpt lat="48.61235" lon="2.08217">
        <ele>125</ele>
        <time>2010-03-19T10:17:49Z</time>
      </trkpt>
      <trkpt lat="48.61235" lon="2.08215">
        <ele>125</ele>
        <time>2010-03-19T10:17:50Z</time>
      </trkpt>
      <trkpt lat="48.61237" lon="2.08213">
        <ele>125</ele>
        <time>2010-03-19T10:17:51Z</time>
      </trkpt>
      <trkpt lat="48.61237" lon="2.08211">
        <ele>125</ele>
        <time>2010-03-19T10:17:52Z</time>
      </trkpt>
      <trkpt lat="48.61237" lon="2.08209">
        <ele>125</ele>
        <time>2010-03-19T10:17:53Z</time>
      </trkpt>
      <trkpt lat="48.61238" lon="2.08208">
        <ele>125</ele>
        <time>2010-03-19T10:17:54Z</time>
      </trkpt>
      <trkpt lat="48.61238" lon="2.08205">
        <ele>124</ele>
        <time>2010-03-19T10:17:55Z</time>
      </trkpt>
      <trkpt lat="48.61238" lon="2.08203">
        <ele>124</ele>
        <time>2010-03-19T10:17:56Z</time>
      </trkpt>
      <trkpt lat="48.61238" lon="2.082">
        <ele>124</ele>
        <time>2010-03-19T10:17:57Z</time>
      </trkpt>
      <trkpt lat="48.61238" lon="2.08197">
        <ele>123</ele>
        <time>2010-03-19T10:17:58Z</time>
      </trkpt>
      <trkpt lat="48.61238" lon="2.08195">
        <ele>123</ele>
        <time>2010-03-19T10:17:59Z</time>
      </trkpt>
      <trkpt lat="48.61238" lon="2.08192">
        <ele>123</ele>
        <time>2010-03-19T10:18:00Z</time>
      </trkpt>
      <trkpt lat="48.61238" lon="2.0819">
        <ele>123</ele>
        <time>2010-03-19T10:18:01Z</time>
      </trkpt>
      <trkpt lat="48.61237" lon="2.08188">
        <ele>122</ele>
        <time>2010-03-19T10:18:02Z</time>
      </trkpt>
      <trkpt lat="48.61237" lon="2.08186">
        <ele>122</ele>
        <time>2010-03-19T10:18:03Z</time>
      </trkpt>
      <trkpt lat="48.61236" lon="2.08184">
        <ele>122</ele>
        <time>2010-03-19T10:18:04Z</time>
      </trkpt>
      <trkpt lat="48.61236" lon="2.08182">
        <ele>121</ele>
        <time>2010-03-19T10:18:05Z</time>
      </trkpt>
      <trkpt lat="48.61236" lon="2.0818">
        <ele>121</ele>
        <time>2010-03-19T10:18:06Z</time>
      </trkpt>
      <trkpt lat="48.61235" lon="2.08178">
        <ele>121</ele>
        <time>2010-03-19T10:18:07Z</time>
      </trkpt>
      <trkpt lat="48.61235" lon="2.08176">
        <ele>121</ele>
        <time>2010-03-19T10:18:08Z</time>
      </trkpt>
      <trkpt lat="48.61234" lon="2.08174">
        <ele>121</ele>
        <time>2010-03-19T10:18:09Z</time>
      </trkpt>
      <trkpt lat="48.61234" lon="2.08172">
        <ele>121</ele>
        <time>2010-03-19T10:18:10Z</time>
      </trkpt>
      <trkpt lat="48.61233" lon="2.08171">
        <ele>121</ele>
        <time>2010-03-19T10:18:11Z</time>
      </trkpt>
      <trkpt lat="48.61232" lon="2.08169">
        <ele>120</ele>
        <time>2010-03-19T10:18:12Z</time>
      </trkpt>
      <trkpt lat="48.61231" lon="2.08166">
        <ele>120</ele>
        <time>2010-03-19T10:18:13Z</time>
      </trkpt>
      <trkpt lat="48.61231" lon="2.08164">
        <ele>120</ele>
        <time>2010-03-19T10:18:14Z</time>
      </trkpt>
      <trkpt lat="48.6123" lon="2.08162">
        <ele>120</ele>
        <time>2010-03-19T10:18:15Z</time>
      </trkpt>
      <trkpt lat="48.61229" lon="2.08158">
        <ele>120</ele>
        <time>2010-03-19T10:18:16Z</time>
      </trkpt>
      <trkpt lat="48.61227" lon="2.08154">
        <ele>120</ele>
        <time>2010-03-19T10:18:17Z</time>
      </trkpt>
      <trkpt lat="48.61227" lon="2.08152">
        <ele>120</ele>
        <time>2010-03-19T10:18:18Z</time>
      </trkpt>
      <trkpt lat="48.61226" lon="2.0815">
        <ele>120</ele>
        <time>2010-03-19T10:18:19Z</time>
      </trkpt>
      <trkpt lat="48.61225" lon="2.08147">
        <ele>120</ele>
        <time>2010-03-19T10:18:20Z</time>
      </trkpt>
      <trkpt lat="48.61224" lon="2.08145">
        <ele>120</ele>
        <time>2010-03-19T10:18:21Z</time>
      </trkpt>
      <trkpt lat="48.61224" lon="2.08142">
        <ele>120</ele>
        <time>2010-03-19T10:18:22Z</time>
      </trkpt>
      <trkpt lat="48.61223" lon="2.0814">
        <ele>120</ele>
        <time>2010-03-19T10:18:23Z</time>
      </trkpt>
      <trkpt lat="48.61222" lon="2.08138">
        <ele>120</ele>
        <time>2010-03-19T10:18:24Z</time>
      </trkpt>
      <trkpt lat="48.61221" lon="2.08136">
        <ele>120</ele>
        <time>2010-03-19T10:18:25Z</time>
      </trkpt>
      <trkpt lat="48.61221" lon="2.08133">
        <ele>121</ele>
        <time>2010-03-19T10:18:26Z</time>
      </trkpt>
      <trkpt lat="48.61219" lon="2.0813">
        <ele>121</ele>
        <time>2010-03-19T10:18:27Z</time>
      </trkpt>
      <trkpt lat="48.61219" lon="2.08128">
        <ele>121</ele>
        <time>2010-03-19T10:18:28Z</time>
      </trkpt>
      <trkpt lat="48.61218" lon="2.08125">
        <ele>121</ele>
        <time>2010-03-19T10:18:29Z</time>
      </trkpt>
      <trkpt lat="48.61217" lon="2.08122">
        <ele>121</ele>
        <time>2010-03-19T10:18:30Z</time>
      </trkpt>
      <trkpt lat="48.61216" lon="2.0812">
        <ele>121</ele>
        <time>2010-03-19T10:18:31Z</time>
      </trkpt>
      <trkpt lat="48.61216" lon="2.08118">
        <ele>121</ele>
        <time>2010-03-19T10:18:32Z</time>
      </trkpt>
      <trkpt lat="48.61216" lon="2.08116">
        <ele>121</ele>
        <time>2010-03-19T10:18:33Z</time>
      </trkpt>
      <trkpt lat="48.61216" lon="2.08114">
        <ele>121</ele>
        <time>2010-03-19T10:18:34Z</time>
      </trkpt>
      <trkpt lat="48.61215" lon="2.08112">
        <ele>121</ele>
        <time>2010-03-19T10:18:35Z</time>
      </trkpt>
      <trkpt lat="48.61215" lon="2.0811">
        <ele>121</ele>
        <time>2010-03-19T10:18:37Z</time>
      </trkpt>
      <trkpt lat="48.61214" lon="2.08108">
        <ele>121</ele>
        <time>2010-03-19T10:18:41Z</time>
      </trkpt>
      <trkpt lat="48.61214" lon="2.08105">
        <ele>122</ele>
        <time>2010-03-19T10:18:43Z</time>
      </trkpt>
      <trkpt lat="48.61213" lon="2.08103">
        <ele>122</ele>
        <time>2010-03-19T10:18:44Z</time>
      </trkpt>
      <trkpt lat="48.61213" lon="2.08101">
        <ele>122</ele>
        <time>2010-03-19T10:18:45Z</time>
      </trkpt>
      <trkpt lat="48.61212" lon="2.08099">
        <ele>122</ele>
        <time>2010-03-19T10:18:46Z</time>
      </trkpt>
      <trkpt lat="48.61212" lon="2.08096">
        <ele>122</ele>
        <time>2010-03-19T10:18:47Z</time>
      </trkpt>
      <trkpt lat="48.61211" lon="2.08094">
        <ele>122</ele>
        <time>2010-03-19T10:18:48Z</time>
      </trkpt>
      <trkpt lat="48.61211" lon="2.08092">
        <ele>122</ele>
        <time>2010-03-19T10:18:49Z</time>
      </trkpt>
      <trkpt lat="48.6121" lon="2.0809">
        <ele>122</ele>
        <time>2010-03-19T10:18:50Z</time>
      </trkpt>
      <trkpt lat="48.61209" lon="2.08087">
        <ele>123</ele>
        <time>2010-03-19T10:18:51Z</time>
      </trkpt>
      <trkpt lat="48.61209" lon="2.08085">
        <ele>123</ele>
        <time>2010-03-19T10:18:52Z</time>
      </trkpt>
      <trkpt lat="48.61209" lon="2.08083">
        <ele>123</ele>
        <time>2010-03-19T10:18:53Z</time>
      </trkpt>
      <trkpt lat="48.61209" lon="2.0808">
        <ele>123</ele>
        <time>2010-03-19T10:18:54Z</time>
      </trkpt>
      <trkpt lat="48.61208" lon="2.08076">
        <ele>124</ele>
        <time>2010-03-19T10:18:55Z</time>
      </trkpt>
      <trkpt lat="48.61208" lon="2.08074">
        <ele>125</ele>
        <time>2010-03-19T10:18:56Z</time>
      </trkpt>
      <trkpt lat="48.61208" lon="2.08072">
        <ele>126</ele>
        <time>2010-03-19T10:18:57Z</time>
      </trkpt>
      <trkpt lat="48.61208" lon="2.08069">
        <ele>126</ele>
        <time>2010-03-19T10:18:58Z</time>
      </trkpt>
      <trkpt lat="48.61208" lon="2.08067">
        <ele>126</ele>
        <time>2010-03-19T10:18:59Z</time>
      </trkpt>
      <trkpt lat="48.61208" lon="2.08065">
        <ele>126</ele>
        <time>2010-03-19T10:19:00Z</time>
      </trkpt>
      <trkpt lat="48.61208" lon="2.08063">
        <ele>126</ele>
        <time>2010-03-19T10:19:01Z</time>
      </trkpt>
      <trkpt lat="48.61208" lon="2.08061">
        <ele>126</ele>
        <time>2010-03-19T10:19:02Z</time>
      </trkpt>
      <trkpt lat="48.61208" lon="2.08059">
        <ele>126</ele>
        <time>2010-03-19T10:19:03Z</time>
      </trkpt>
      <trkpt lat="48.61208" lon="2.08056">
        <ele>126</ele>
        <time>2010-03-19T10:19:04Z</time>
      </trkpt>
      <trkpt lat="48.61208" lon="2.08053">
        <ele>126</ele>
        <time>2010-03-19T10:19:05Z</time>
      </trkpt>
      <trkpt lat="48.61208" lon="2.08051">
        <ele>126</ele>
        <time>2010-03-19T10:19:06Z</time>
      </trkpt>
      <trkpt lat="48.61208" lon="2.08049">
        <ele>126</ele>
        <time>2010-03-19T10:19:07Z</time>
      </trkpt>
      <trkpt lat="48.61207" lon="2.08047">
        <ele>126</ele>
        <time>2010-03-19T10:19:08Z</time>
      </trkpt>
      <trkpt lat="48.61207" lon="2.08044">
        <ele>126</ele>
        <time>2010-03-19T10:19:09Z</time>
      </trkpt>
      <trkpt lat="48.61207" lon="2.08042">
        <ele>126</ele>
        <time>2010-03-19T10:19:10Z</time>
      </trkpt>
      <trkpt lat="48.61207" lon="2.0804">
        <ele>126</ele>
        <time>2010-03-19T10:19:11Z</time>
      </trkpt>
      <trkpt lat="48.61207" lon="2.08038">
        <ele>126</ele>
        <time>2010-03-19T10:19:12Z</time>
      </trkpt>
      <trkpt lat="48.61206" lon="2.08036">
        <ele>126</ele>
        <time>2010-03-19T10:19:13Z</time>
      </trkpt>
      <trkpt lat="48.61206" lon="2.08034">
        <ele>126</ele>
        <time>2010-03-19T10:19:14Z</time>
      </trkpt>
      <trkpt lat="48.61206" lon="2.0803">
        <ele>126</ele>
        <time>2010-03-19T10:19:16Z</time>
      </trkpt>
      <trkpt lat="48.61206" lon="2.08029">
        <ele>126</ele>
        <time>2010-03-19T10:19:17Z</time>
      </trkpt>
      <trkpt lat="48.61206" lon="2.08026">
        <ele>126</ele>
        <time>2010-03-19T10:19:18Z</time>
      </trkpt>
      <trkpt lat="48.61205" lon="2.08024">
        <ele>126</ele>
        <time>2010-03-19T10:19:19Z</time>
      </trkpt>
      <trkpt lat="48.61205" lon="2.08021">
        <ele>126</ele>
        <time>2010-03-19T10:19:21Z</time>
      </trkpt>
      <trkpt lat="48.61205" lon="2.08018">
        <ele>125</ele>
        <time>2010-03-19T10:19:23Z</time>
      </trkpt>
      <trkpt lat="48.61205" lon="2.08016">
        <ele>125</ele>
        <time>2010-03-19T10:19:24Z</time>
      </trkpt>
      <trkpt lat="48.61205" lon="2.08014">
        <ele>125</ele>
        <time>2010-03-19T10:19:25Z</time>
      </trkpt>
      <trkpt lat="48.61204" lon="2.08011">
        <ele>125</ele>
        <time>2010-03-19T10:19:26Z</time>
      </trkpt>
      <trkpt lat="48.61203" lon="2.08008">
        <ele>125</ele>
        <time>2010-03-19T10:19:27Z</time>
      </trkpt>
      <trkpt lat="48.61203" lon="2.08006">
        <ele>125</ele>
        <time>2010-03-19T10:19:28Z</time>
      </trkpt>
      <trkpt lat="48.61202" lon="2.08003">
        <ele>125</ele>
        <time>2010-03-19T10:19:29Z</time>
      </trkpt>
      <trkpt lat="48.61201" lon="2.08001">
        <ele>125</ele>
        <time>2010-03-19T10:19:30Z</time>
      </trkpt>
      <trkpt lat="48.61201" lon="2.07999">
        <ele>125</ele>
        <time>2010-03-19T10:19:31Z</time>
      </trkpt>
      <trkpt lat="48.612" lon="2.07997">
        <ele>125</ele>
        <time>2010-03-19T10:19:32Z</time>
      </trkpt>
      <trkpt lat="48.612" lon="2.07994">
        <ele>125</ele>
        <time>2010-03-19T10:19:33Z</time>
      </trkpt>
      <trkpt lat="48.61199" lon="2.07992">
        <ele>125</ele>
        <time>2010-03-19T10:19:34Z</time>
      </trkpt>
      <trkpt lat="48.61198" lon="2.07988">
        <ele>124</ele>
        <time>2010-03-19T10:19:36Z</time>
      </trkpt>
      <trkpt lat="48.61198" lon="2.07986">
        <ele>124</ele>
        <time>2010-03-19T10:19:37Z</time>
      </trkpt>
      <trkpt lat="48.61197" lon="2.07984">
        <ele>123</ele>
        <time>2010-03-19T10:19:38Z</time>
      </trkpt>
      <trkpt lat="48.61197" lon="2.07983">
        <ele>123</ele>
        <time>2010-03-19T10:19:39Z</time>
      </trkpt>
      <trkpt lat="48.61196" lon="2.0798">
        <ele>123</ele>
        <time>2010-03-19T10:19:40Z</time>
      </trkpt>
      <trkpt lat="48.61195" lon="2.07979">
        <ele>122</ele>
        <time>2010-03-19T10:19:41Z</time>
      </trkpt>
      <trkpt lat="48.61195" lon="2.07977">
        <ele>122</ele>
        <time>2010-03-19T10:19:42Z</time>
      </trkpt>
      <trkpt lat="48.61193" lon="2.07974">
        <ele>122</ele>
        <time>2010-03-19T10:19:43Z</time>
      </trkpt>
      <trkpt lat="48.61192" lon="2.07972">
        <ele>122</ele>
        <time>2010-03-19T10:19:44Z</time>
      </trkpt>
      <trkpt lat="48.61192" lon="2.0797">
        <ele>122</ele>
        <time>2010-03-19T10:19:45Z</time>
      </trkpt>
      <trkpt lat="48.61191" lon="2.07968">
        <ele>122</ele>
        <time>2010-03-19T10:19:46Z</time>
      </trkpt>
      <trkpt lat="48.6119" lon="2.07966">
        <ele>122</ele>
        <time>2010-03-19T10:19:47Z</time>
      </trkpt>
      <trkpt lat="48.61189" lon="2.07963">
        <ele>122</ele>
        <time>2010-03-19T10:19:48Z</time>
      </trkpt>
      <trkpt lat="48.61189" lon="2.07962">
        <ele>122</ele>
        <time>2010-03-19T10:19:49Z</time>
      </trkpt>
      <trkpt lat="48.61188" lon="2.0796">
        <ele>122</ele>
        <time>2010-03-19T10:19:50Z</time>
      </trkpt>
      <trkpt lat="48.61187" lon="2.07957">
        <ele>122</ele>
        <time>2010-03-19T10:19:51Z</time>
      </trkpt>
      <trkpt lat="48.61186" lon="2.07955">
        <ele>122</ele>
        <time>2010-03-19T10:19:52Z</time>
      </trkpt>
      <trkpt lat="48.61185" lon="2.07953">
        <ele>122</ele>
        <time>2010-03-19T10:19:53Z</time>
      </trkpt>
      <trkpt lat="48.61185" lon="2.07951">
        <ele>122</ele>
        <time>2010-03-19T10:19:54Z</time>
      </trkpt>
      <trkpt lat="48.61184" lon="2.07948">
        <ele>122</ele>
        <time>2010-03-19T10:19:55Z</time>
      </trkpt>
      <trkpt lat="48.61184" lon="2.07946">
        <ele>122</ele>
        <time>2010-03-19T10:19:56Z</time>
      </trkpt>
      <trkpt lat="48.61183" lon="2.07944">
        <ele>122</ele>
        <time>2010-03-19T10:19:57Z</time>
      </trkpt>
      <trkpt lat="48.61182" lon="2.07941">
        <ele>122</ele>
        <time>2010-03-19T10:19:58Z</time>
      </trkpt>
      <trkpt lat="48.61181" lon="2.07939">
        <ele>122</ele>
        <time>2010-03-19T10:19:59Z</time>
      </trkpt>
      <trkpt lat="48.6118" lon="2.07937">
        <ele>122</ele>
        <time>2010-03-19T10:20:00Z</time>
      </trkpt>
      <trkpt lat="48.61179" lon="2.07934">
        <ele>122</ele>
        <time>2010-03-19T10:20:01Z</time>
      </trkpt>
      <trkpt lat="48.61179" lon="2.07932">
        <ele>122</ele>
        <time>2010-03-19T10:20:02Z</time>
      </trkpt>
      <trkpt lat="48.61177" lon="2.0793">
        <ele>122</ele>
        <time>2010-03-19T10:20:03Z</time>
      </trkpt>
      <trkpt lat="48.61177" lon="2.07928">
        <ele>122</ele>
        <time>2010-03-19T10:20:04Z</time>
      </trkpt>
      <trkpt lat="48.61176" lon="2.07926">
        <ele>122</ele>
        <time>2010-03-19T10:20:05Z</time>
      </trkpt>
      <trkpt lat="48.61175" lon="2.07923">
        <ele>122</ele>
        <time>2010-03-19T10:20:06Z</time>
      </trkpt>
      <trkpt lat="48.61174" lon="2.07921">
        <ele>122</ele>
        <time>2010-03-19T10:20:07Z</time>
      </trkpt>
      <trkpt lat="48.61174" lon="2.07919">
        <ele>122</ele>
        <time>2010-03-19T10:20:08Z</time>
      </trkpt>
      <trkpt lat="48.61173" lon="2.07916">
        <ele>122</ele>
        <time>2010-03-19T10:20:09Z</time>
      </trkpt>
      <trkpt lat="48.61172" lon="2.07913">
        <ele>122</ele>
        <time>2010-03-19T10:20:10Z</time>
      </trkpt>
      <trkpt lat="48.61172" lon="2.07911">
        <ele>122</ele>
        <time>2010-03-19T10:20:11Z</time>
      </trkpt>
      <trkpt lat="48.61171" lon="2.07909">
        <ele>122</ele>
        <time>2010-03-19T10:20:12Z</time>
      </trkpt>
      <trkpt lat="48.61169" lon="2.07906">
        <ele>122</ele>
        <time>2010-03-19T10:20:13Z</time>
      </trkpt>
      <trkpt lat="48.61169" lon="2.07904">
        <ele>122</ele>
        <time>2010-03-19T10:20:14Z</time>
      </trkpt>
      <trkpt lat="48.61168" lon="2.07901">
        <ele>122</ele>
        <time>2010-03-19T10:20:15Z</time>
      </trkpt>
      <trkpt lat="48.61168" lon="2.07899">
        <ele>122</ele>
        <time>2010-03-19T10:20:16Z</time>
      </trkpt>
      <trkpt lat="48.61167" lon="2.07897">
        <ele>122</ele>
        <time>2010-03-19T10:20:17Z</time>
      </trkpt>
      <trkpt lat="48.61166" lon="2.07895">
        <ele>122</ele>
        <time>2010-03-19T10:20:18Z</time>
      </trkpt>
      <trkpt lat="48.61165" lon="2.07893">
        <ele>122</ele>
        <time>2010-03-19T10:20:19Z</time>
      </trkpt>
      <trkpt lat="48.61164" lon="2.07891">
        <ele>122</ele>
        <time>2010-03-19T10:20:20Z</time>
      </trkpt>
      <trkpt lat="48.61163" lon="2.07887">
        <ele>123</ele>
        <time>2010-03-19T10:20:22Z</time>
      </trkpt>
      <trkpt lat="48.61162" lon="2.07885">
        <ele>123</ele>
        <time>2010-03-19T10:20:23Z</time>
      </trkpt>
      <trkpt lat="48.61161" lon="2.07883">
        <ele>123</ele>
        <time>2010-03-19T10:20:24Z</time>
      </trkpt>
      <trkpt lat="48.6116" lon="2.07881">
        <ele>123</ele>
        <time>2010-03-19T10:20:25Z</time>
      </trkpt>
      <trkpt lat="48.6116" lon="2.07879">
        <ele>123</ele>
        <time>2010-03-19T10:20:26Z</time>
      </trkpt>
      <trkpt lat="48.61159" lon="2.07877">
        <ele>123</ele>
        <time>2010-03-19T10:20:27Z</time>
      </trkpt>
      <trkpt lat="48.61158" lon="2.07875">
        <ele>123</ele>
        <time>2010-03-19T10:20:28Z</time>
      </trkpt>
      <trkpt lat="48.61158" lon="2.07873">
        <ele>123</ele>
        <time>2010-03-19T10:20:29Z</time>
      </trkpt>
      <trkpt lat="48.61157" lon="2.07872">
        <ele>123</ele>
        <time>2010-03-19T10:20:30Z</time>
      </trkpt>
      <trkpt lat="48.61156" lon="2.0787">
        <ele>123</ele>
        <time>2010-03-19T10:20:31Z</time>
      </trkpt>
      <trkpt lat="48.61156" lon="2.07868">
        <ele>123</ele>
        <time>2010-03-19T10:20:32Z</time>
      </trkpt>
      <trkpt lat="48.61155" lon="2.07866">
        <ele>123</ele>
        <time>2010-03-19T10:20:33Z</time>
      </trkpt>
      <trkpt lat="48.61155" lon="2.07864">
        <ele>123</ele>
        <time>2010-03-19T10:20:34Z</time>
      </trkpt>
      <trkpt lat="48.61153" lon="2.07861">
        <ele>123</ele>
        <time>2010-03-19T10:20:35Z</time>
      </trkpt>
      <trkpt lat="48.61152" lon="2.07859">
        <ele>123</ele>
        <time>2010-03-19T10:20:36Z</time>
      </trkpt>
      <trkpt lat="48.61151" lon="2.07856">
        <ele>123</ele>
        <time>2010-03-19T10:20:37Z</time>
      </trkpt>
      <trkpt lat="48.6115" lon="2.07854">
        <ele>123</ele>
        <time>2010-03-19T10:20:38Z</time>
      </trkpt>
      <trkpt lat="48.61149" lon="2.07852">
        <ele>123</ele>
        <time>2010-03-19T10:20:39Z</time>
      </trkpt>
      <trkpt lat="48.61148" lon="2.07849">
        <ele>123</ele>
        <time>2010-03-19T10:20:40Z</time>
      </trkpt>
      <trkpt lat="48.61147" lon="2.07847">
        <ele>123</ele>
        <time>2010-03-19T10:20:41Z</time>
      </trkpt>
      <trkpt lat="48.61146" lon="2.07844">
        <ele>123</ele>
        <time>2010-03-19T10:20:42Z</time>
      </trkpt>
      <trkpt lat="48.61145" lon="2.07842">
        <ele>123</ele>
        <time>2010-03-19T10:20:43Z</time>
      </trkpt>
      <trkpt lat="48.61143" lon="2.0784">
        <ele>123</ele>
        <time>2010-03-19T10:20:44Z</time>
      </trkpt>
      <trkpt lat="48.61142" lon="2.07837">
        <ele>123</ele>
        <time>2010-03-19T10:20:46Z</time>
      </trkpt>
      <trkpt lat="48.6114" lon="2.07836">
        <ele>123</ele>
        <time>2010-03-19T10:20:47Z</time>
      </trkpt>
      <trkpt lat="48.61139" lon="2.07834">
        <ele>123</ele>
        <time>2010-03-19T10:20:48Z</time>
      </trkpt>
      <trkpt lat="48.61138" lon="2.07832">
        <ele>123</ele>
        <time>2010-03-19T10:20:49Z</time>
      </trkpt>
      <trkpt lat="48.61137" lon="2.0783">
        <ele>123</ele>
        <time>2010-03-19T10:20:50Z</time>
      </trkpt>
      <trkpt lat="48.61135" lon="2.07827">
        <ele>123</ele>
        <time>2010-03-19T10:20:52Z</time>
      </trkpt>
      <trkpt lat="48.61133" lon="2.07825">
        <ele>123</ele>
        <time>2010-03-19T10:20:54Z</time>
      </trkpt>
      <trkpt lat="48.61131" lon="2.07823">
        <ele>123</ele>
        <time>2010-03-19T10:20:55Z</time>
      </trkpt>
      <trkpt lat="48.6113" lon="2.07822">
        <ele>123</ele>
        <time>2010-03-19T10:20:56Z</time>
      </trkpt>
      <trkpt lat="48.61129" lon="2.0782">
        <ele>123</ele>
        <time>2010-03-19T10:20:57Z</time>
      </trkpt>
      <trkpt lat="48.61127" lon="2.07819">
        <ele>123</ele>
        <time>2010-03-19T10:20:58Z</time>
      </trkpt>
      <trkpt lat="48.61126" lon="2.07817">
        <ele>123</ele>
        <time>2010-03-19T10:20:59Z</time>
      </trkpt>
      <trkpt lat="48.61125" lon="2.07816">
        <ele>123</ele>
        <time>2010-03-19T10:21:00Z</time>
      </trkpt>
      <trkpt lat="48.61124" lon="2.07814">
        <ele>123</ele>
        <time>2010-03-19T10:21:01Z</time>
      </trkpt>
      <trkpt lat="48.61123" lon="2.07813">
        <ele>123</ele>
        <time>2010-03-19T10:21:02Z</time>
      </trkpt>
      <trkpt lat="48.61121" lon="2.07812">
        <ele>123</ele>
        <time>2010-03-19T10:21:03Z</time>
      </trkpt>
      <trkpt lat="48.61119" lon="2.07811">
        <ele>123</ele>
        <time>2010-03-19T10:21:04Z</time>
      </trkpt>
      <trkpt lat="48.61118" lon="2.0781">
        <ele>123</ele>
        <time>2010-03-19T10:21:05Z</time>
      </trkpt>
      <trkpt lat="48.61117" lon="2.07809">
        <ele>123</ele>
        <time>2010-03-19T10:21:06Z</time>
      </trkpt>
      <trkpt lat="48.61116" lon="2.07808">
        <ele>123</ele>
        <time>2010-03-19T10:21:07Z</time>
      </trkpt>
      <trkpt lat="48.61115" lon="2.07807">
        <ele>123</ele>
        <time>2010-03-19T10:21:08Z</time>
      </trkpt>
      <trkpt lat="48.61113" lon="2.07806">
        <ele>123</ele>
        <time>2010-03-19T10:21:09Z</time>
      </trkpt>
      <trkpt lat="48.61111" lon="2.07804">
        <ele>123</ele>
        <time>2010-03-19T10:21:10Z</time>
      </trkpt>
      <trkpt lat="48.6111" lon="2.07803">
        <ele>123</ele>
        <time>2010-03-19T10:21:11Z</time>
      </trkpt>
      <trkpt lat="48.61108" lon="2.07801">
        <ele>123</ele>
        <time>2010-03-19T10:21:12Z</time>
      </trkpt>
      <trkpt lat="48.61106" lon="2.07801">
        <ele>123</ele>
        <time>2010-03-19T10:21:13Z</time>
      </trkpt>
      <trkpt lat="48.61105" lon="2.078">
        <ele>123</ele>
        <time>2010-03-19T10:21:14Z</time>
      </trkpt>
      <trkpt lat="48.61103" lon="2.07798">
        <ele>123</ele>
        <time>2010-03-19T10:21:15Z</time>
      </trkpt>
      <trkpt lat="48.61102" lon="2.07797">
        <ele>123</ele>
        <time>2010-03-19T10:21:16Z</time>
      </trkpt>
      <trkpt lat="48.611" lon="2.07796">
        <ele>123</ele>
        <time>2010-03-19T10:21:17Z</time>
      </trkpt>
      <trkpt lat="48.61099" lon="2.07794">
        <ele>123</ele>
        <time>2010-03-19T10:21:18Z</time>
      </trkpt>
      <trkpt lat="48.61098" lon="2.07793">
        <ele>123</ele>
        <time>2010-03-19T10:21:19Z</time>
      </trkpt>
      <trkpt lat="48.61097" lon="2.07792">
        <ele>123</ele>
        <time>2010-03-19T10:21:20Z</time>
      </trkpt>
      <trkpt lat="48.61095" lon="2.07791">
        <ele>123</ele>
        <time>2010-03-19T10:21:21Z</time>
      </trkpt>
      <trkpt lat="48.61094" lon="2.07791">
        <ele>123</ele>
        <time>2010-03-19T10:21:22Z</time>
      </trkpt>
      <trkpt lat="48.61093" lon="2.0779">
        <ele>123</ele>
        <time>2010-03-19T10:21:23Z</time>
      </trkpt>
      <trkpt lat="48.61092" lon="2.07789">
        <ele>123</ele>
        <time>2010-03-19T10:21:24Z</time>
      </trkpt>
      <trkpt lat="48.6109" lon="2.07788">
        <ele>123</ele>
        <time>2010-03-19T10:21:25Z</time>
      </trkpt>
      <trkpt lat="48.61089" lon="2.07786">
        <ele>123</ele>
        <time>2010-03-19T10:21:26Z</time>
      </trkpt>
      <trkpt lat="48.61087" lon="2.07785">
        <ele>123</ele>
        <time>2010-03-19T10:21:27Z</time>
      </trkpt>
      <trkpt lat="48.61086" lon="2.07784">
        <ele>123</ele>
        <time>2010-03-19T10:21:28Z</time>
      </trkpt>
      <trkpt lat="48.61085" lon="2.07782">
        <ele>123</ele>
        <time>2010-03-19T10:21:29Z</time>
      </trkpt>
      <trkpt lat="48.61083" lon="2.07781">
        <ele>123</ele>
        <time>2010-03-19T10:21:30Z</time>
      </trkpt>
      <trkpt lat="48.61082" lon="2.0778">
        <ele>123</ele>
        <time>2010-03-19T10:21:31Z</time>
      </trkpt>
      <trkpt lat="48.61081" lon="2.07778">
        <ele>123</ele>
        <time>2010-03-19T10:21:32Z</time>
      </trkpt>
      <trkpt lat="48.61079" lon="2.07777">
        <ele>123</ele>
        <time>2010-03-19T10:21:33Z</time>
      </trkpt>
      <trkpt lat="48.61077" lon="2.07776">
        <ele>123</ele>
        <time>2010-03-19T10:21:34Z</time>
      </trkpt>
      <trkpt lat="48.61076" lon="2.07775">
        <ele>123</ele>
        <time>2010-03-19T10:21:35Z</time>
      </trkpt>
      <trkpt lat="48.61075" lon="2.07773">
        <ele>123</ele>
        <time>2010-03-19T10:21:36Z</time>
      </trkpt>
      <trkpt lat="48.61074" lon="2.07772">
        <ele>123</ele>
        <time>2010-03-19T10:21:37Z</time>
      </trkpt>
      <trkpt lat="48.61072" lon="2.07771">
        <ele>123</ele>
        <time>2010-03-19T10:21:38Z</time>
      </trkpt>
      <trkpt lat="48.61071" lon="2.0777">
        <ele>123</ele>
        <time>2010-03-19T10:21:39Z</time>
      </trkpt>
      <trkpt lat="48.61069" lon="2.07768">
        <ele>123</ele>
        <time>2010-03-19T10:21:40Z</time>
      </trkpt>
      <trkpt lat="48.61068" lon="2.07767">
        <ele>122</ele>
        <time>2010-03-19T10:21:41Z</time>
      </trkpt>
      <trkpt lat="48.61067" lon="2.07766">
        <ele>122</ele>
        <time>2010-03-19T10:21:42Z</time>
      </trkpt>
      <trkpt lat="48.61066" lon="2.07764">
        <ele>122</ele>
        <time>2010-03-19T10:21:43Z</time>
      </trkpt>
      <trkpt lat="48.61064" lon="2.07763">
        <ele>122</ele>
        <time>2010-03-19T10:21:44Z</time>
      </trkpt>
      <trkpt lat="48.61063" lon="2.07762">
        <ele>122</ele>
        <time>2010-03-19T10:21:45Z</time>
      </trkpt>
      <trkpt lat="48.61061" lon="2.07761">
        <ele>122</ele>
        <time>2010-03-19T10:21:46Z</time>
      </trkpt>
      <trkpt lat="48.6106" lon="2.07759">
        <ele>122</ele>
        <time>2010-03-19T10:21:47Z</time>
      </trkpt>
      <trkpt lat="48.61059" lon="2.07757">
        <ele>122</ele>
        <time>2010-03-19T10:21:48Z</time>
      </trkpt>
      <trkpt lat="48.61057" lon="2.07756">
        <ele>122</ele>
        <time>2010-03-19T10:21:49Z</time>
      </trkpt>
      <trkpt lat="48.61056" lon="2.07755">
        <ele>122</ele>
        <time>2010-03-19T10:21:50Z</time>
      </trkpt>
      <trkpt lat="48.61055" lon="2.07754">
        <ele>122</ele>
        <time>2010-03-19T10:21:51Z</time>
      </trkpt>
      <trkpt lat="48.61053" lon="2.07752">
        <ele>122</ele>
        <time>2010-03-19T10:21:52Z</time>
      </trkpt>
      <trkpt lat="48.61052" lon="2.07751">
        <ele>122</ele>
        <time>2010-03-19T10:21:53Z</time>
      </trkpt>
      <trkpt lat="48.61051" lon="2.0775">
        <ele>122</ele>
        <time>2010-03-19T10:21:54Z</time>
      </trkpt>
      <trkpt lat="48.6105" lon="2.07749">
        <ele>122</ele>
        <time>2010-03-19T10:21:55Z</time>
      </trkpt>
      <trkpt lat="48.61049" lon="2.07747">
        <ele>122</ele>
        <time>2010-03-19T10:21:56Z</time>
      </trkpt>
      <trkpt lat="48.61047" lon="2.07746">
        <ele>122</ele>
        <time>2010-03-19T10:21:57Z</time>
      </trkpt>
      <trkpt lat="48.61045" lon="2.07745">
        <ele>122</ele>
        <time>2010-03-19T10:21:58Z</time>
      </trkpt>
      <trkpt lat="48.61045" lon="2.07744">
        <ele>121</ele>
        <time>2010-03-19T10:21:59Z</time>
      </trkpt>
      <trkpt lat="48.61042" lon="2.07741">
        <ele>121</ele>
        <time>2010-03-19T10:22:01Z</time>
      </trkpt>
      <trkpt lat="48.61041" lon="2.07739">
        <ele>121</ele>
        <time>2010-03-19T10:22:02Z</time>
      </trkpt>
      <trkpt lat="48.61039" lon="2.07736">
        <ele>121</ele>
        <time>2010-03-19T10:22:04Z</time>
      </trkpt>
      <trkpt lat="48.61037" lon="2.07735">
        <ele>121</ele>
        <time>2010-03-19T10:22:05Z</time>
      </trkpt>
      <trkpt lat="48.61037" lon="2.07733">
        <ele>121</ele>
        <time>2010-03-19T10:22:06Z</time>
      </trkpt>
      <trkpt lat="48.61036" lon="2.07732">
        <ele>121</ele>
        <time>2010-03-19T10:22:07Z</time>
      </trkpt>
      <trkpt lat="48.61034" lon="2.0773">
        <ele>121</ele>
        <time>2010-03-19T10:22:08Z</time>
      </trkpt>
      <trkpt lat="48.61034" lon="2.07728">
        <ele>121</ele>
        <time>2010-03-19T10:22:09Z</time>
      </trkpt>
      <trkpt lat="48.61032" lon="2.07726">
        <ele>120</ele>
        <time>2010-03-19T10:22:11Z</time>
      </trkpt>
      <trkpt lat="48.61029" lon="2.07722">
        <ele>120</ele>
        <time>2010-03-19T10:22:13Z</time>
      </trkpt>
      <trkpt lat="48.61029" lon="2.0772">
        <ele>120</ele>
        <time>2010-03-19T10:22:14Z</time>
      </trkpt>
      <trkpt lat="48.61028" lon="2.07719">
        <ele>120</ele>
        <time>2010-03-19T10:22:15Z</time>
      </trkpt>
      <trkpt lat="48.61027" lon="2.07717">
        <ele>120</ele>
        <time>2010-03-19T10:22:16Z</time>
      </trkpt>
      <trkpt lat="48.61025" lon="2.07716">
        <ele>120</ele>
        <time>2010-03-19T10:22:17Z</time>
      </trkpt>
      <trkpt lat="48.61024" lon="2.07715">
        <ele>119</ele>
        <time>2010-03-19T10:22:18Z</time>
      </trkpt>
      <trkpt lat="48.61023" lon="2.07714">
        <ele>119</ele>
        <time>2010-03-19T10:22:19Z</time>
      </trkpt>
      <trkpt lat="48.61021" lon="2.07714">
        <ele>119</ele>
        <time>2010-03-19T10:22:20Z</time>
      </trkpt>
      <trkpt lat="48.6102" lon="2.07713">
        <ele>119</ele>
        <time>2010-03-19T10:22:21Z</time>
      </trkpt>
      <trkpt lat="48.61018" lon="2.07713">
        <ele>119</ele>
        <time>2010-03-19T10:22:22Z</time>
      </trkpt>
      <trkpt lat="48.61017" lon="2.07711">
        <ele>119</ele>
        <time>2010-03-19T10:22:23Z</time>
      </trkpt>
      <trkpt lat="48.61015" lon="2.0771">
        <ele>119</ele>
        <time>2010-03-19T10:22:24Z</time>
      </trkpt>
      <trkpt lat="48.61013" lon="2.07709">
        <ele>119</ele>
        <time>2010-03-19T10:22:25Z</time>
      </trkpt>
      <trkpt lat="48.61012" lon="2.07707">
        <ele>119</ele>
        <time>2010-03-19T10:22:26Z</time>
      </trkpt>
      <trkpt lat="48.61011" lon="2.07706">
        <ele>119</ele>
        <time>2010-03-19T10:22:27Z</time>
      </trkpt>
      <trkpt lat="48.6101" lon="2.07704">
        <ele>119</ele>
        <time>2010-03-19T10:22:28Z</time>
      </trkpt>
      <trkpt lat="48.61008" lon="2.07702">
        <ele>119</ele>
        <time>2010-03-19T10:22:29Z</time>
      </trkpt>
      <trkpt lat="48.61007" lon="2.07701">
        <ele>119</ele>
        <time>2010-03-19T10:22:30Z</time>
      </trkpt>
      <trkpt lat="48.61007" lon="2.07699">
        <ele>119</ele>
        <time>2010-03-19T10:22:31Z</time>
      </trkpt>
      <trkpt lat="48.61005" lon="2.07697">
        <ele>119</ele>
        <time>2010-03-19T10:22:32Z</time>
      </trkpt>
      <trkpt lat="48.61004" lon="2.07695">
        <ele>119</ele>
        <time>2010-03-19T10:22:33Z</time>
      </trkpt>
      <trkpt lat="48.61003" lon="2.07694">
        <ele>119</ele>
        <time>2010-03-19T10:22:34Z</time>
      </trkpt>
      <trkpt lat="48.61001" lon="2.07693">
        <ele>119</ele>
        <time>2010-03-19T10:22:35Z</time>
      </trkpt>
      <trkpt lat="48.61" lon="2.07692">
        <ele>119</ele>
        <time>2010-03-19T10:22:36Z</time>
      </trkpt>
      <trkpt lat="48.60998" lon="2.07691">
        <ele>119</ele>
        <time>2010-03-19T10:22:37Z</time>
      </trkpt>
      <trkpt lat="48.60996" lon="2.07689">
        <ele>118</ele>
        <time>2010-03-19T10:22:38Z</time>
      </trkpt>
      <trkpt lat="48.60995" lon="2.07687">
        <ele>118</ele>
        <time>2010-03-19T10:22:39Z</time>
      </trkpt>
      <trkpt lat="48.60993" lon="2.07684">
        <ele>118</ele>
        <time>2010-03-19T10:22:41Z</time>
      </trkpt>
      <trkpt lat="48.60992" lon="2.07682">
        <ele>118</ele>
        <time>2010-03-19T10:22:42Z</time>
      </trkpt>
      <trkpt lat="48.60991" lon="2.0768">
        <ele>118</ele>
        <time>2010-03-19T10:22:43Z</time>
      </trkpt>
      <trkpt lat="48.6099" lon="2.07679">
        <ele>118</ele>
        <time>2010-03-19T10:22:44Z</time>
      </trkpt>
      <trkpt lat="48.60988" lon="2.07677">
        <ele>118</ele>
        <time>2010-03-19T10:22:45Z</time>
      </trkpt>
      <trkpt lat="48.60987" lon="2.07676">
        <ele>118</ele>
        <time>2010-03-19T10:22:46Z</time>
      </trkpt>
      <trkpt lat="48.60986" lon="2.07674">
        <ele>118</ele>
        <time>2010-03-19T10:22:47Z</time>
      </trkpt>
      <trkpt lat="48.60985" lon="2.07672">
        <ele>118</ele>
        <time>2010-03-19T10:22:48Z</time>
      </trkpt>
      <trkpt lat="48.60984" lon="2.0767">
        <ele>118</ele>
        <time>2010-03-19T10:22:49Z</time>
      </trkpt>
      <trkpt lat="48.60983" lon="2.07668">
        <ele>118</ele>
        <time>2010-03-19T10:22:50Z</time>
      </trkpt>
      <trkpt lat="48.60982" lon="2.07667">
        <ele>118</ele>
        <time>2010-03-19T10:22:51Z</time>
      </trkpt>
      <trkpt lat="48.60981" lon="2.07665">
        <ele>118</ele>
        <time>2010-03-19T10:22:52Z</time>
      </trkpt>
      <trkpt lat="48.60979" lon="2.07664">
        <ele>118</ele>
        <time>2010-03-19T10:22:53Z</time>
      </trkpt>
      <trkpt lat="48.60978" lon="2.07662">
        <ele>118</ele>
        <time>2010-03-19T10:22:54Z</time>
      </trkpt>
      <trkpt lat="48.60977" lon="2.07661">
        <ele>118</ele>
        <time>2010-03-19T10:22:55Z</time>
      </trkpt>
      <trkpt lat="48.60976" lon="2.07659">
        <ele>118</ele>
        <time>2010-03-19T10:22:56Z</time>
      </trkpt>
      <trkpt lat="48.60975" lon="2.07658">
        <ele>118</ele>
        <time>2010-03-19T10:22:57Z</time>
      </trkpt>
      <trkpt lat="48.60973" lon="2.07655">
        <ele>118</ele>
        <time>2010-03-19T10:22:59Z</time>
      </trkpt>
      <trkpt lat="48.6097" lon="2.07652">
        <ele>118</ele>
        <time>2010-03-19T10:23:01Z</time>
      </trkpt>
      <trkpt lat="48.60969" lon="2.0765">
        <ele>118</ele>
        <time>2010-03-19T10:23:02Z</time>
      </trkpt>
      <trkpt lat="48.60968" lon="2.07649">
        <ele>118</ele>
        <time>2010-03-19T10:23:03Z</time>
      </trkpt>
      <trkpt lat="48.60966" lon="2.07647">
        <ele>118</ele>
        <time>2010-03-19T10:23:04Z</time>
      </trkpt>
      <trkpt lat="48.60965" lon="2.07645">
        <ele>118</ele>
        <time>2010-03-19T10:23:05Z</time>
      </trkpt>
      <trkpt lat="48.60963" lon="2.07644">
        <ele>118</ele>
        <time>2010-03-19T10:23:06Z</time>
      </trkpt>
      <trkpt lat="48.60962" lon="2.07642">
        <ele>118</ele>
        <time>2010-03-19T10:23:07Z</time>
      </trkpt>
      <trkpt lat="48.60961" lon="2.0764">
        <ele>118</ele>
        <time>2010-03-19T10:23:08Z</time>
      </trkpt>
      <trkpt lat="48.6096" lon="2.07638">
        <ele>118</ele>
        <time>2010-03-19T10:23:09Z</time>
      </trkpt>
      <trkpt lat="48.60958" lon="2.07637">
        <ele>118</ele>
        <time>2010-03-19T10:23:10Z</time>
      </trkpt>
      <trkpt lat="48.60957" lon="2.07635">
        <ele>118</ele>
        <time>2010-03-19T10:23:11Z</time>
      </trkpt>
      <trkpt lat="48.60955" lon="2.07633">
        <ele>118</ele>
        <time>2010-03-19T10:23:12Z</time>
      </trkpt>
      <trkpt lat="48.60954" lon="2.07631">
        <ele>118</ele>
        <time>2010-03-19T10:23:13Z</time>
      </trkpt>
      <trkpt lat="48.60953" lon="2.0763">
        <ele>118</ele>
        <time>2010-03-19T10:23:14Z</time>
      </trkpt>
      <trkpt lat="48.60952" lon="2.07628">
        <ele>118</ele>
        <time>2010-03-19T10:23:15Z</time>
      </trkpt>
      <trkpt lat="48.60951" lon="2.07627">
        <ele>118</ele>
        <time>2010-03-19T10:23:16Z</time>
      </trkpt>
      <trkpt lat="48.6095" lon="2.07625">
        <ele>118</ele>
        <time>2010-03-19T10:23:17Z</time>
      </trkpt>
      <trkpt lat="48.60949" lon="2.07624">
        <ele>118</ele>
        <time>2010-03-19T10:23:18Z</time>
      </trkpt>
      <trkpt lat="48.60947" lon="2.07622">
        <ele>118</ele>
        <time>2010-03-19T10:23:19Z</time>
      </trkpt>
      <trkpt lat="48.60946" lon="2.0762">
        <ele>118</ele>
        <time>2010-03-19T10:23:20Z</time>
      </trkpt>
      <trkpt lat="48.60944" lon="2.07619">
        <ele>118</ele>
        <time>2010-03-19T10:23:21Z</time>
      </trkpt>
      <trkpt lat="48.60943" lon="2.07618">
        <ele>118</ele>
        <time>2010-03-19T10:23:22Z</time>
      </trkpt>
      <trkpt lat="48.60941" lon="2.07617">
        <ele>118</ele>
        <time>2010-03-19T10:23:23Z</time>
      </trkpt>
      <trkpt lat="48.6094" lon="2.07616">
        <ele>118</ele>
        <time>2010-03-19T10:23:24Z</time>
      </trkpt>
      <trkpt lat="48.60938" lon="2.07615">
        <ele>118</ele>
        <time>2010-03-19T10:23:25Z</time>
      </trkpt>
      <trkpt lat="48.60937" lon="2.07614">
        <ele>118</ele>
        <time>2010-03-19T10:23:26Z</time>
      </trkpt>
      <trkpt lat="48.60936" lon="2.07612">
        <ele>118</ele>
        <time>2010-03-19T10:23:27Z</time>
      </trkpt>
      <trkpt lat="48.60934" lon="2.07611">
        <ele>118</ele>
        <time>2010-03-19T10:23:28Z</time>
      </trkpt>
      <trkpt lat="48.60933" lon="2.07611">
        <ele>118</ele>
        <time>2010-03-19T10:23:29Z</time>
      </trkpt>
      <trkpt lat="48.60931" lon="2.0761">
        <ele>118</ele>
        <time>2010-03-19T10:23:30Z</time>
      </trkpt>
      <trkpt lat="48.60929" lon="2.07609">
        <ele>118</ele>
        <time>2010-03-19T10:23:31Z</time>
      </trkpt>
      <trkpt lat="48.60928" lon="2.07608">
        <ele>118</ele>
        <time>2010-03-19T10:23:32Z</time>
      </trkpt>
      <trkpt lat="48.60927" lon="2.07608">
        <ele>118</ele>
        <time>2010-03-19T10:23:33Z</time>
      </trkpt>
      <trkpt lat="48.60925" lon="2.07607">
        <ele>118</ele>
        <time>2010-03-19T10:23:34Z</time>
      </trkpt>
      <trkpt lat="48.60924" lon="2.07606">
        <ele>118</ele>
        <time>2010-03-19T10:23:35Z</time>
      </trkpt>
      <trkpt lat="48.60922" lon="2.07606">
        <ele>118</ele>
        <time>2010-03-19T10:23:36Z</time>
      </trkpt>
      <trkpt lat="48.60921" lon="2.07605">
        <ele>118</ele>
        <time>2010-03-19T10:23:37Z</time>
      </trkpt>
      <trkpt lat="48.60919" lon="2.07604">
        <ele>118</ele>
        <time>2010-03-19T10:23:38Z</time>
      </trkpt>
      <trkpt lat="48.60918" lon="2.07603">
        <ele>118</ele>
        <time>2010-03-19T10:23:39Z</time>
      </trkpt>
      <trkpt lat="48.60917" lon="2.07603">
        <ele>118</ele>
        <time>2010-03-19T10:23:40Z</time>
      </trkpt>
      <trkpt lat="48.60915" lon="2.07602">
        <ele>118</ele>
        <time>2010-03-19T10:23:41Z</time>
      </trkpt>
      <trkpt lat="48.60913" lon="2.07601">
        <ele>118</ele>
        <time>2010-03-19T10:23:42Z</time>
      </trkpt>
      <trkpt lat="48.60912" lon="2.076">
        <ele>118</ele>
        <time>2010-03-19T10:23:43Z</time>
      </trkpt>
      <trkpt lat="48.6091" lon="2.076">
        <ele>118</ele>
        <time>2010-03-19T10:23:44Z</time>
      </trkpt>
      <trkpt lat="48.60909" lon="2.07599">
        <ele>118</ele>
        <time>2010-03-19T10:23:45Z</time>
      </trkpt>
      <trkpt lat="48.60907" lon="2.07599">
        <ele>118</ele>
        <time>2010-03-19T10:23:46Z</time>
      </trkpt>
      <trkpt lat="48.60905" lon="2.07598">
        <ele>118</ele>
        <time>2010-03-19T10:23:47Z</time>
      </trkpt>
      <trkpt lat="48.60904" lon="2.07598">
        <ele>118</ele>
        <time>2010-03-19T10:23:48Z</time>
      </trkpt>
      <trkpt lat="48.60903" lon="2.07597">
        <ele>118</ele>
        <time>2010-03-19T10:23:49Z</time>
      </trkpt>
      <trkpt lat="48.60901" lon="2.07597">
        <ele>118</ele>
        <time>2010-03-19T10:23:50Z</time>
      </trkpt>
      <trkpt lat="48.609" lon="2.07596">
        <ele>118</ele>
        <time>2010-03-19T10:23:51Z</time>
      </trkpt>
      <trkpt lat="48.60897" lon="2.07595">
        <ele>118</ele>
        <time>2010-03-19T10:23:52Z</time>
      </trkpt>
      <trkpt lat="48.60896" lon="2.07594">
        <ele>118</ele>
        <time>2010-03-19T10:23:53Z</time>
      </trkpt>
      <trkpt lat="48.60892" lon="2.07593">
        <ele>118</ele>
        <time>2010-03-19T10:23:54Z</time>
      </trkpt>
      <trkpt lat="48.60889" lon="2.07592">
        <ele>118</ele>
        <time>2010-03-19T10:23:55Z</time>
      </trkpt>
      <trkpt lat="48.60885" lon="2.07591">
        <ele>118</ele>
        <time>2010-03-19T10:23:56Z</time>
      </trkpt>
      <trkpt lat="48.60881" lon="2.07589">
        <ele>118</ele>
        <time>2010-03-19T10:23:57Z</time>
      </trkpt>
      <trkpt lat="48.60878" lon="2.07588">
        <ele>118</ele>
        <time>2010-03-19T10:23:58Z</time>
      </trkpt>
      <trkpt lat="48.60875" lon="2.07587">
        <ele>118</ele>
        <time>2010-03-19T10:23:59Z</time>
      </trkpt>
      <trkpt lat="48.6087" lon="2.07586">
        <ele>118</ele>
        <time>2010-03-19T10:24:00Z</time>
      </trkpt>
      <trkpt lat="48.60866" lon="2.07585">
        <ele>118</ele>
        <time>2010-03-19T10:24:01Z</time>
      </trkpt>
      <trkpt lat="48.60862" lon="2.07583">
        <ele>118</ele>
        <time>2010-03-19T10:24:02Z</time>
      </trkpt>
      <trkpt lat="48.60857" lon="2.07581">
        <ele>118</ele>
        <time>2010-03-19T10:24:03Z</time>
      </trkpt>
      <trkpt lat="48.60853" lon="2.0758">
        <ele>118</ele>
        <time>2010-03-19T10:24:04Z</time>
      </trkpt>
      <trkpt lat="48.60849" lon="2.07578">
        <ele>118</ele>
        <time>2010-03-19T10:24:05Z</time>
      </trkpt>
      <trkpt lat="48.60845" lon="2.07577">
        <ele>118</ele>
        <time>2010-03-19T10:24:06Z</time>
      </trkpt>
      <trkpt lat="48.6084" lon="2.07575">
        <ele>118</ele>
        <time>2010-03-19T10:24:07Z</time>
      </trkpt>
      <trkpt lat="48.60836" lon="2.07574">
        <ele>118</ele>
        <time>2010-03-19T10:24:08Z</time>
      </trkpt>
      <trkpt lat="48.60831" lon="2.07572">
        <ele>118</ele>
        <time>2010-03-19T10:24:09Z</time>
      </trkpt>
      <trkpt lat="48.60827" lon="2.0757">
        <ele>118</ele>
        <time>2010-03-19T10:24:10Z</time>
      </trkpt>
      <trkpt lat="48.60822" lon="2.07568">
        <ele>118</ele>
        <time>2010-03-19T10:24:11Z</time>
      </trkpt>
      <trkpt lat="48.60818" lon="2.07566">
        <ele>118</ele>
        <time>2010-03-19T10:24:12Z</time>
      </trkpt>
      <trkpt lat="48.60813" lon="2.07564">
        <ele>118</ele>
        <time>2010-03-19T10:24:13Z</time>
      </trkpt>
      <trkpt lat="48.60808" lon="2.07562">
        <ele>118</ele>
        <time>2010-03-19T10:24:14Z</time>
      </trkpt>
      <trkpt lat="48.60804" lon="2.07559">
        <ele>118</ele>
        <time>2010-03-19T10:24:15Z</time>
      </trkpt>
      <trkpt lat="48.60799" lon="2.07557">
        <ele>118</ele>
        <time>2010-03-19T10:24:16Z</time>
      </trkpt>
      <trkpt lat="48.60795" lon="2.07554">
        <ele>118</ele>
        <time>2010-03-19T10:24:17Z</time>
      </trkpt>
      <trkpt lat="48.6079" lon="2.07553">
        <ele>118</ele>
        <time>2010-03-19T10:24:18Z</time>
      </trkpt>
      <trkpt lat="48.60786" lon="2.07551">
        <ele>118</ele>
        <time>2010-03-19T10:24:19Z</time>
      </trkpt>
      <trkpt lat="48.60781" lon="2.07549">
        <ele>118</ele>
        <time>2010-03-19T10:24:20Z</time>
      </trkpt>
      <trkpt lat="48.60776" lon="2.07547">
        <ele>118</ele>
        <time>2010-03-19T10:24:21Z</time>
      </trkpt>
      <trkpt lat="48.60771" lon="2.07545">
        <ele>118</ele>
        <time>2010-03-19T10:24:22Z</time>
      </trkpt>
      <trkpt lat="48.60766" lon="2.07544">
        <ele>118</ele>
        <time>2010-03-19T10:24:23Z</time>
      </trkpt>
      <trkpt lat="48.60761" lon="2.07542">
        <ele>118</ele>
        <time>2010-03-19T10:24:24Z</time>
      </trkpt>
      <trkpt lat="48.60756" lon="2.0754">
        <ele>118</ele>
        <time>2010-03-19T10:24:25Z</time>
      </trkpt>
      <trkpt lat="48.60751" lon="2.07538">
        <ele>118</ele>
        <time>2010-03-19T10:24:26Z</time>
      </trkpt>
      <trkpt lat="48.60745" lon="2.07536">
        <ele>118</ele>
        <time>2010-03-19T10:24:27Z</time>
      </trkpt>
      <trkpt lat="48.6074" lon="2.07534">
        <ele>118</ele>
        <time>2010-03-19T10:24:28Z</time>
      </trkpt>
      <trkpt lat="48.60736" lon="2.07532">
        <ele>118</ele>
        <time>2010-03-19T10:24:29Z</time>
      </trkpt>
      <trkpt lat="48.60731" lon="2.07531">
        <ele>118</ele>
        <time>2010-03-19T10:24:30Z</time>
      </trkpt>
      <trkpt lat="48.60726" lon="2.07529">
        <ele>118</ele>
        <time>2010-03-19T10:24:31Z</time>
      </trkpt>
      <trkpt lat="48.60721" lon="2.07528">
        <ele>118</ele>
        <time>2010-03-19T10:24:32Z</time>
      </trkpt>
      <trkpt lat="48.60716" lon="2.07526">
        <ele>118</ele>
        <time>2010-03-19T10:24:33Z</time>
      </trkpt>
      <trkpt lat="48.60712" lon="2.07524">
        <ele>118</ele>
        <time>2010-03-19T10:24:34Z</time>
      </trkpt>
      <trkpt lat="48.60707" lon="2.07523">
        <ele>118</ele>
        <time>2010-03-19T10:24:35Z</time>
      </trkpt>
      <trkpt lat="48.60703" lon="2.0752">
        <ele>118</ele>
        <time>2010-03-19T10:24:36Z</time>
      </trkpt>
      <trkpt lat="48.60698" lon="2.07518">
        <ele>118</ele>
        <time>2010-03-19T10:24:37Z</time>
      </trkpt>
      <trkpt lat="48.60693" lon="2.07516">
        <ele>118</ele>
        <time>2010-03-19T10:24:38Z</time>
      </trkpt>
      <trkpt lat="48.60689" lon="2.07514">
        <ele>118</ele>
        <time>2010-03-19T10:24:39Z</time>
      </trkpt>
      <trkpt lat="48.60685" lon="2.07512">
        <ele>118</ele>
        <time>2010-03-19T10:24:40Z</time>
      </trkpt>
      <trkpt lat="48.60681" lon="2.0751">
        <ele>118</ele>
        <time>2010-03-19T10:24:41Z</time>
      </trkpt>
      <trkpt lat="48.60677" lon="2.07509">
        <ele>118</ele>
        <time>2010-03-19T10:24:42Z</time>
      </trkpt>
      <trkpt lat="48.60673" lon="2.07507">
        <ele>118</ele>
        <time>2010-03-19T10:24:43Z</time>
      </trkpt>
      <trkpt lat="48.6067" lon="2.07506">
        <ele>118</ele>
        <time>2010-03-19T10:24:44Z</time>
      </trkpt>
      <trkpt lat="48.60666" lon="2.07505">
        <ele>118</ele>
        <time>2010-03-19T10:24:45Z</time>
      </trkpt>
      <trkpt lat="48.60663" lon="2.07504">
        <ele>118</ele>
        <time>2010-03-19T10:24:46Z</time>
      </trkpt>
      <trkpt lat="48.60659" lon="2.07502">
        <ele>118</ele>
        <time>2010-03-19T10:24:47Z</time>
      </trkpt>
      <trkpt lat="48.60656" lon="2.07501">
        <ele>118</ele>
        <time>2010-03-19T10:24:48Z</time>
      </trkpt>
      <trkpt lat="48.60653" lon="2.075">
        <ele>118</ele>
        <time>2010-03-19T10:24:49Z</time>
      </trkpt>
      <trkpt lat="48.60649" lon="2.07498">
        <ele>118</ele>
        <time>2010-03-19T10:24:50Z</time>
      </trkpt>
      <trkpt lat="48.60645" lon="2.07497">
        <ele>118</ele>
        <time>2010-03-19T10:24:51Z</time>
      </trkpt>
      <trkpt lat="48.60641" lon="2.07496">
        <ele>118</ele>
        <time>2010-03-19T10:24:52Z</time>
      </trkpt>
      <trkpt lat="48.60638" lon="2.07494">
        <ele>118</ele>
        <time>2010-03-19T10:24:53Z</time>
      </trkpt>
      <trkpt lat="48.60635" lon="2.07493">
        <ele>118</ele>
        <time>2010-03-19T10:24:54Z</time>
      </trkpt>
      <trkpt lat="48.60631" lon="2.07491">
        <ele>118</ele>
        <time>2010-03-19T10:24:55Z</time>
      </trkpt>
      <trkpt lat="48.60627" lon="2.0749">
        <ele>118</ele>
        <time>2010-03-19T10:24:56Z</time>
      </trkpt>
      <trkpt lat="48.60624" lon="2.0749">
        <ele>118</ele>
        <time>2010-03-19T10:24:57Z</time>
      </trkpt>
      <trkpt lat="48.6062" lon="2.07488">
        <ele>118</ele>
        <time>2010-03-19T10:24:58Z</time>
      </trkpt>
      <trkpt lat="48.60617" lon="2.07487">
        <ele>118</ele>
        <time>2010-03-19T10:24:59Z</time>
      </trkpt>
      <trkpt lat="48.60614" lon="2.07486">
        <ele>118</ele>
        <time>2010-03-19T10:25:00Z</time>
      </trkpt>
      <trkpt lat="48.60612" lon="2.07485">
        <ele>118</ele>
        <time>2010-03-19T10:25:01Z</time>
      </trkpt>
      <trkpt lat="48.60609" lon="2.07484">
        <ele>118</ele>
        <time>2010-03-19T10:25:02Z</time>
      </trkpt>
      <trkpt lat="48.60606" lon="2.07483">
        <ele>118</ele>
        <time>2010-03-19T10:25:03Z</time>
      </trkpt>
      <trkpt lat="48.60603" lon="2.07482">
        <ele>118</ele>
        <time>2010-03-19T10:25:04Z</time>
      </trkpt>
      <trkpt lat="48.606" lon="2.07482">
        <ele>118</ele>
        <time>2010-03-19T10:25:05Z</time>
      </trkpt>
      <trkpt lat="48.60596" lon="2.07481">
        <ele>118</ele>
        <time>2010-03-19T10:25:06Z</time>
      </trkpt>
      <trkpt lat="48.60593" lon="2.0748">
        <ele>118</ele>
        <time>2010-03-19T10:25:07Z</time>
      </trkpt>
      <trkpt lat="48.6059" lon="2.07479">
        <ele>118</ele>
        <time>2010-03-19T10:25:08Z</time>
      </trkpt>
      <trkpt lat="48.60587" lon="2.07478">
        <ele>118</ele>
        <time>2010-03-19T10:25:09Z</time>
      </trkpt>
      <trkpt lat="48.60584" lon="2.07477">
        <ele>118</ele>
        <time>2010-03-19T10:25:10Z</time>
      </trkpt>
      <trkpt lat="48.60581" lon="2.07475">
        <ele>118</ele>
        <time>2010-03-19T10:25:11Z</time>
      </trkpt>
      <trkpt lat="48.60578" lon="2.07474">
        <ele>118</ele>
        <time>2010-03-19T10:25:12Z</time>
      </trkpt>
      <trkpt lat="48.60574" lon="2.07473">
        <ele>118</ele>
        <time>2010-03-19T10:25:13Z</time>
      </trkpt>
      <trkpt lat="48.60571" lon="2.07471">
        <ele>118</ele>
        <time>2010-03-19T10:25:14Z</time>
      </trkpt>
      <trkpt lat="48.60567" lon="2.0747">
        <ele>118</ele>
        <time>2010-03-19T10:25:15Z</time>
      </trkpt>
      <trkpt lat="48.60564" lon="2.07468">
        <ele>118</ele>
        <time>2010-03-19T10:25:16Z</time>
      </trkpt>
      <trkpt lat="48.6056" lon="2.07467">
        <ele>118</ele>
        <time>2010-03-19T10:25:17Z</time>
      </trkpt>
      <trkpt lat="48.60557" lon="2.07465">
        <ele>118</ele>
        <time>2010-03-19T10:25:18Z</time>
      </trkpt>
      <trkpt lat="48.60553" lon="2.07464">
        <ele>118</ele>
        <time>2010-03-19T10:25:19Z</time>
      </trkpt>
      <trkpt lat="48.6055" lon="2.07463">
        <ele>118</ele>
        <time>2010-03-19T10:25:20Z</time>
      </trkpt>
      <trkpt lat="48.60546" lon="2.07463">
        <ele>118</ele>
        <time>2010-03-19T10:25:21Z</time>
      </trkpt>
      <trkpt lat="48.60542" lon="2.07463">
        <ele>118</ele>
        <time>2010-03-19T10:25:22Z</time>
      </trkpt>
      <trkpt lat="48.6054" lon="2.07462">
        <ele>118</ele>
        <time>2010-03-19T10:25:23Z</time>
      </trkpt>
      <trkpt lat="48.60537" lon="2.07461">
        <ele>118</ele>
        <time>2010-03-19T10:25:24Z</time>
      </trkpt>
      <trkpt lat="48.60534" lon="2.0746">
        <ele>118</ele>
        <time>2010-03-19T10:25:25Z</time>
      </trkpt>
      <trkpt lat="48.60531" lon="2.07459">
        <ele>118</ele>
        <time>2010-03-19T10:25:26Z</time>
      </trkpt>
      <trkpt lat="48.60529" lon="2.07457">
        <ele>118</ele>
        <time>2010-03-19T10:25:27Z</time>
      </trkpt>
      <trkpt lat="48.60526" lon="2.07456">
        <ele>118</ele>
        <time>2010-03-19T10:25:28Z</time>
      </trkpt>
      <trkpt lat="48.60524" lon="2.07455">
        <ele>118</ele>
        <time>2010-03-19T10:25:29Z</time>
      </trkpt>
      <trkpt lat="48.60522" lon="2.07454">
        <ele>118</ele>
        <time>2010-03-19T10:25:30Z</time>
      </trkpt>
      <trkpt lat="48.6052" lon="2.07453">
        <ele>118</ele>
        <time>2010-03-19T10:25:31Z</time>
      </trkpt>
      <trkpt lat="48.60519" lon="2.07453">
        <ele>118</ele>
        <time>2010-03-19T10:25:32Z</time>
      </trkpt>
      <trkpt lat="48.60518" lon="2.07453">
        <ele>118</ele>
        <time>2010-03-19T10:25:33Z</time>
      </trkpt>
      <trkpt lat="48.60516" lon="2.07452">
        <ele>118</ele>
        <time>2010-03-19T10:25:34Z</time>
      </trkpt>
      <trkpt lat="48.60515" lon="2.07452">
        <ele>118</ele>
        <time>2010-03-19T10:25:35Z</time>
      </trkpt>
      <trkpt lat="48.60514" lon="2.07452">
        <ele>118</ele>
        <time>2010-03-19T10:25:36Z</time>
      </trkpt>
      <trkpt lat="48.60512" lon="2.07452">
        <ele>118</ele>
        <time>2010-03-19T10:25:37Z</time>
      </trkpt>
      <trkpt lat="48.6051" lon="2.07451">
        <ele>118</ele>
        <time>2010-03-19T10:25:38Z</time>
      </trkpt>
      <trkpt lat="48.60509" lon="2.07451">
        <ele>118</ele>
        <time>2010-03-19T10:25:39Z</time>
      </trkpt>
      <trkpt lat="48.60508" lon="2.07451">
        <ele>117</ele>
        <time>2010-03-19T10:25:40Z</time>
      </trkpt>
      <trkpt lat="48.60506" lon="2.0745">
        <ele>117</ele>
        <time>2010-03-19T10:25:41Z</time>
      </trkpt>
      <trkpt lat="48.60505" lon="2.0745">
        <ele>117</ele>
        <time>2010-03-19T10:25:42Z</time>
      </trkpt>
      <trkpt lat="48.60504" lon="2.07449">
        <ele>117</ele>
        <time>2010-03-19T10:25:43Z</time>
      </trkpt>
      <trkpt lat="48.60502" lon="2.07448">
        <ele>117</ele>
        <time>2010-03-19T10:25:44Z</time>
      </trkpt>
      <trkpt lat="48.60501" lon="2.07448">
        <ele>117</ele>
        <time>2010-03-19T10:25:45Z</time>
      </trkpt>
      <trkpt lat="48.60499" lon="2.07447">
        <ele>117</ele>
        <time>2010-03-19T10:25:46Z</time>
      </trkpt>
      <trkpt lat="48.60498" lon="2.07447">
        <ele>117</ele>
        <time>2010-03-19T10:25:47Z</time>
      </trkpt>
      <trkpt lat="48.60497" lon="2.07446">
        <ele>117</ele>
        <time>2010-03-19T10:25:48Z</time>
      </trkpt>
      <trkpt lat="48.60496" lon="2.07446">
        <ele>117</ele>
        <time>2010-03-19T10:25:49Z</time>
      </trkpt>
      <trkpt lat="48.60494" lon="2.07445">
        <ele>117</ele>
        <time>2010-03-19T10:25:50Z</time>
      </trkpt>
      <trkpt lat="48.60493" lon="2.07445">
        <ele>116</ele>
        <time>2010-03-19T10:25:51Z</time>
      </trkpt>
      <trkpt lat="48.60492" lon="2.07444">
        <ele>116</ele>
        <time>2010-03-19T10:25:52Z</time>
      </trkpt>
      <trkpt lat="48.6049" lon="2.07443">
        <ele>116</ele>
        <time>2010-03-19T10:25:53Z</time>
      </trkpt>
      <trkpt lat="48.60489" lon="2.07442">
        <ele>116</ele>
        <time>2010-03-19T10:25:54Z</time>
      </trkpt>
      <trkpt lat="48.60487" lon="2.07441">
        <ele>116</ele>
        <time>2010-03-19T10:25:55Z</time>
      </trkpt>
      <trkpt lat="48.60485" lon="2.0744">
        <ele>116</ele>
        <time>2010-03-19T10:25:56Z</time>
      </trkpt>
      <trkpt lat="48.60485" lon="2.07439">
        <ele>116</ele>
        <time>2010-03-19T10:25:57Z</time>
      </trkpt>
      <trkpt lat="48.60484" lon="2.07439">
        <ele>116</ele>
        <time>2010-03-19T10:25:58Z</time>
      </trkpt>
      <trkpt lat="48.60482" lon="2.07437">
        <ele>116</ele>
        <time>2010-03-19T10:25:59Z</time>
      </trkpt>
      <trkpt lat="48.6048" lon="2.07434">
        <ele>116</ele>
        <time>2010-03-19T10:26:01Z</time>
      </trkpt>
      <trkpt lat="48.6048" lon="2.07433">
        <ele>116</ele>
        <time>2010-03-19T10:26:02Z</time>
      </trkpt>
      <trkpt lat="48.60479" lon="2.07431">
        <ele>116</ele>
        <time>2010-03-19T10:26:03Z</time>
      </trkpt>
      <trkpt lat="48.60479" lon="2.07429">
        <ele>116</ele>
        <time>2010-03-19T10:26:04Z</time>
      </trkpt>
      <trkpt lat="48.60479" lon="2.07427">
        <ele>116</ele>
        <time>2010-03-19T10:26:05Z</time>
      </trkpt>
      <trkpt lat="48.60478" lon="2.07424">
        <ele>116</ele>
        <time>2010-03-19T10:26:06Z</time>
      </trkpt>
      <trkpt lat="48.60478" lon="2.07422">
        <ele>116</ele>
        <time>2010-03-19T10:26:07Z</time>
      </trkpt>
      <trkpt lat="48.60478" lon="2.07419">
        <ele>116</ele>
        <time>2010-03-19T10:26:08Z</time>
      </trkpt>
      <trkpt lat="48.60478" lon="2.07417">
        <ele>116</ele>
        <time>2010-03-19T10:26:09Z</time>
      </trkpt>
      <trkpt lat="48.60477" lon="2.07414">
        <ele>116</ele>
        <time>2010-03-19T10:26:10Z</time>
      </trkpt>
      <trkpt lat="48.60477" lon="2.07412">
        <ele>116</ele>
        <time>2010-03-19T10:26:11Z</time>
      </trkpt>
      <trkpt lat="48.60477" lon="2.0741">
        <ele>116</ele>
        <time>2010-03-19T10:26:12Z</time>
      </trkpt>
      <trkpt lat="48.60477" lon="2.07407">
        <ele>116</ele>
        <time>2010-03-19T10:26:13Z</time>
      </trkpt>
      <trkpt lat="48.60477" lon="2.07405">
        <ele>116</ele>
        <time>2010-03-19T10:26:14Z</time>
      </trkpt>
      <trkpt lat="48.60477" lon="2.07403">
        <ele>116</ele>
        <time>2010-03-19T10:26:15Z</time>
      </trkpt>
      <trkpt lat="48.60477" lon="2.07401">
        <ele>116</ele>
        <time>2010-03-19T10:26:16Z</time>
      </trkpt>
      <trkpt lat="48.60477" lon="2.07399">
        <ele>116</ele>
        <time>2010-03-19T10:26:17Z</time>
      </trkpt>
      <trkpt lat="48.60477" lon="2.07397">
        <ele>116</ele>
        <time>2010-03-19T10:26:18Z</time>
      </trkpt>
      <trkpt lat="48.60477" lon="2.07395">
        <ele>116</ele>
        <time>2010-03-19T10:26:19Z</time>
      </trkpt>
      <trkpt lat="48.60477" lon="2.07393">
        <ele>116</ele>
        <time>2010-03-19T10:26:20Z</time>
      </trkpt>
      <trkpt lat="48.60476" lon="2.0739">
        <ele>116</ele>
        <time>2010-03-19T10:26:21Z</time>
      </trkpt>
      <trkpt lat="48.60476" lon="2.07388">
        <ele>116</ele>
        <time>2010-03-19T10:26:22Z</time>
      </trkpt>
      <trkpt lat="48.60476" lon="2.07385">
        <ele>116</ele>
        <time>2010-03-19T10:26:23Z</time>
      </trkpt>
      <trkpt lat="48.60475" lon="2.07382">
        <ele>116</ele>
        <time>2010-03-19T10:26:24Z</time>
      </trkpt>
      <trkpt lat="48.60475" lon="2.07379">
        <ele>116</ele>
        <time>2010-03-19T10:26:25Z</time>
      </trkpt>
      <trkpt lat="48.60475" lon="2.07376">
        <ele>116</ele>
        <time>2010-03-19T10:26:26Z</time>
      </trkpt>
      <trkpt lat="48.60475" lon="2.07373">
        <ele>116</ele>
        <time>2010-03-19T10:26:27Z</time>
      </trkpt>
      <trkpt lat="48.60475" lon="2.07371">
        <ele>116</ele>
        <time>2010-03-19T10:26:28Z</time>
      </trkpt>
      <trkpt lat="48.60476" lon="2.07368">
        <ele>116</ele>
        <time>2010-03-19T10:26:29Z</time>
      </trkpt>
      <trkpt lat="48.60476" lon="2.07365">
        <ele>115</ele>
        <time>2010-03-19T10:26:30Z</time>
      </trkpt>
      <trkpt lat="48.60475" lon="2.07362">
        <ele>115</ele>
        <time>2010-03-19T10:26:31Z</time>
      </trkpt>
      <trkpt lat="48.60475" lon="2.07359">
        <ele>115</ele>
        <time>2010-03-19T10:26:32Z</time>
      </trkpt>
      <trkpt lat="48.60476" lon="2.07357">
        <ele>115</ele>
        <time>2010-03-19T10:26:33Z</time>
      </trkpt>
      <trkpt lat="48.60475" lon="2.07354">
        <ele>114</ele>
        <time>2010-03-19T10:26:34Z</time>
      </trkpt>
      <trkpt lat="48.60475" lon="2.07351">
        <ele>114</ele>
        <time>2010-03-19T10:26:35Z</time>
      </trkpt>
      <trkpt lat="48.60475" lon="2.07349">
        <ele>114</ele>
        <time>2010-03-19T10:26:36Z</time>
      </trkpt>
      <trkpt lat="48.60476" lon="2.07347">
        <ele>114</ele>
        <time>2010-03-19T10:26:37Z</time>
      </trkpt>
      <trkpt lat="48.60476" lon="2.07346">
        <ele>114</ele>
        <time>2010-03-19T10:26:38Z</time>
      </trkpt>
      <trkpt lat="48.60476" lon="2.07344">
        <ele>114</ele>
        <time>2010-03-19T10:26:39Z</time>
      </trkpt>
      <trkpt lat="48.60476" lon="2.07342">
        <ele>114</ele>
        <time>2010-03-19T10:26:40Z</time>
      </trkpt>
      <trkpt lat="48.60476" lon="2.0734">
        <ele>113</ele>
        <time>2010-03-19T10:26:41Z</time>
      </trkpt>
      <trkpt lat="48.60476" lon="2.07337">
        <ele>113</ele>
        <time>2010-03-19T10:26:42Z</time>
      </trkpt>
      <trkpt lat="48.60476" lon="2.07335">
        <ele>113</ele>
        <time>2010-03-19T10:26:43Z</time>
      </trkpt>
      <trkpt lat="48.60476" lon="2.07333">
        <ele>113</ele>
        <time>2010-03-19T10:26:44Z</time>
      </trkpt>
      <trkpt lat="48.60475" lon="2.07331">
        <ele>112</ele>
        <time>2010-03-19T10:26:45Z</time>
      </trkpt>
      <trkpt lat="48.60475" lon="2.07328">
        <ele>112</ele>
        <time>2010-03-19T10:26:46Z</time>
      </trkpt>
      <trkpt lat="48.60475" lon="2.07326">
        <ele>112</ele>
        <time>2010-03-19T10:26:47Z</time>
      </trkpt>
      <trkpt lat="48.60475" lon="2.07324">
        <ele>112</ele>
        <time>2010-03-19T10:26:48Z</time>
      </trkpt>
      <trkpt lat="48.60475" lon="2.07321">
        <ele>112</ele>
        <time>2010-03-19T10:26:49Z</time>
      </trkpt>
      <trkpt lat="48.60475" lon="2.07318">
        <ele>112</ele>
        <time>2010-03-19T10:26:50Z</time>
      </trkpt>
      <trkpt lat="48.60475" lon="2.07316">
        <ele>112</ele>
        <time>2010-03-19T10:26:51Z</time>
      </trkpt>
      <trkpt lat="48.60474" lon="2.07313">
        <ele>112</ele>
        <time>2010-03-19T10:26:52Z</time>
      </trkpt>
      <trkpt lat="48.60474" lon="2.0731">
        <ele>112</ele>
        <time>2010-03-19T10:26:53Z</time>
      </trkpt>
      <trkpt lat="48.60474" lon="2.07307">
        <ele>112</ele>
        <time>2010-03-19T10:26:54Z</time>
      </trkpt>
      <trkpt lat="48.60474" lon="2.07305">
        <ele>112</ele>
        <time>2010-03-19T10:26:55Z</time>
      </trkpt>
      <trkpt lat="48.60473" lon="2.07302">
        <ele>112</ele>
        <time>2010-03-19T10:26:56Z</time>
      </trkpt>
      <trkpt lat="48.60473" lon="2.07299">
        <ele>112</ele>
        <time>2010-03-19T10:26:57Z</time>
      </trkpt>
      <trkpt lat="48.60472" lon="2.07296">
        <ele>112</ele>
        <time>2010-03-19T10:26:58Z</time>
      </trkpt>
      <trkpt lat="48.60472" lon="2.07294">
        <ele>112</ele>
        <time>2010-03-19T10:26:59Z</time>
      </trkpt>
      <trkpt lat="48.60472" lon="2.07292">
        <ele>112</ele>
        <time>2010-03-19T10:27:00Z</time>
      </trkpt>
      <trkpt lat="48.60472" lon="2.07289">
        <ele>112</ele>
        <time>2010-03-19T10:27:01Z</time>
      </trkpt>
      <trkpt lat="48.60472" lon="2.07287">
        <ele>111</ele>
        <time>2010-03-19T10:27:02Z</time>
      </trkpt>
      <trkpt lat="48.60472" lon="2.07284">
        <ele>111</ele>
        <time>2010-03-19T10:27:03Z</time>
      </trkpt>
      <trkpt lat="48.60472" lon="2.07281">
        <ele>111</ele>
        <time>2010-03-19T10:27:04Z</time>
      </trkpt>
      <trkpt lat="48.60472" lon="2.07279">
        <ele>111</ele>
        <time>2010-03-19T10:27:05Z</time>
      </trkpt>
      <trkpt lat="48.60472" lon="2.07276">
        <ele>111</ele>
        <time>2010-03-19T10:27:06Z</time>
      </trkpt>
      <trkpt lat="48.60471" lon="2.07274">
        <ele>111</ele>
        <time>2010-03-19T10:27:07Z</time>
      </trkpt>
      <trkpt lat="48.60471" lon="2.07271">
        <ele>111</ele>
        <time>2010-03-19T10:27:08Z</time>
      </trkpt>
      <trkpt lat="48.60471" lon="2.07268">
        <ele>111</ele>
        <time>2010-03-19T10:27:09Z</time>
      </trkpt>
      <trkpt lat="48.60471" lon="2.07266">
        <ele>111</ele>
        <time>2010-03-19T10:27:10Z</time>
      </trkpt>
      <trkpt lat="48.60471" lon="2.07263">
        <ele>111</ele>
        <time>2010-03-19T10:27:11Z</time>
      </trkpt>
      <trkpt lat="48.60471" lon="2.0726">
        <ele>111</ele>
        <time>2010-03-19T10:27:12Z</time>
      </trkpt>
      <trkpt lat="48.60471" lon="2.07258">
        <ele>111</ele>
        <time>2010-03-19T10:27:13Z</time>
      </trkpt>
      <trkpt lat="48.60471" lon="2.07255">
        <ele>111</ele>
        <time>2010-03-19T10:27:14Z</time>
      </trkpt>
      <trkpt lat="48.60471" lon="2.07253">
        <ele>111</ele>
        <time>2010-03-19T10:27:15Z</time>
      </trkpt>
      <trkpt lat="48.60471" lon="2.0725">
        <ele>111</ele>
        <time>2010-03-19T10:27:16Z</time>
      </trkpt>
      <trkpt lat="48.60471" lon="2.07248">
        <ele>111</ele>
        <time>2010-03-19T10:27:17Z</time>
      </trkpt>
      <trkpt lat="48.60471" lon="2.07245">
        <ele>111</ele>
        <time>2010-03-19T10:27:18Z</time>
      </trkpt>
      <trkpt lat="48.60471" lon="2.07243">
        <ele>111</ele>
        <time>2010-03-19T10:27:19Z</time>
      </trkpt>
      <trkpt lat="48.60471" lon="2.0724">
        <ele>111</ele>
        <time>2010-03-19T10:27:20Z</time>
      </trkpt>
      <trkpt lat="48.60471" lon="2.07238">
        <ele>111</ele>
        <time>2010-03-19T10:27:21Z</time>
      </trkpt>
      <trkpt lat="48.60471" lon="2.07236">
        <ele>111</ele>
        <time>2010-03-19T10:27:22Z</time>
      </trkpt>
      <trkpt lat="48.60471" lon="2.07233">
        <ele>111</ele>
        <time>2010-03-19T10:27:23Z</time>
      </trkpt>
      <trkpt lat="48.60469" lon="2.07231">
        <ele>111</ele>
        <time>2010-03-19T10:27:24Z</time>
      </trkpt>
      <trkpt lat="48.60469" lon="2.07229">
        <ele>111</ele>
        <time>2010-03-19T10:27:25Z</time>
      </trkpt>
      <trkpt lat="48.60469" lon="2.07226">
        <ele>111</ele>
        <time>2010-03-19T10:27:26Z</time>
      </trkpt>
      <trkpt lat="48.60469" lon="2.07224">
        <ele>111</ele>
        <time>2010-03-19T10:27:27Z</time>
      </trkpt>
      <trkpt lat="48.60469" lon="2.07221">
        <ele>111</ele>
        <time>2010-03-19T10:27:28Z</time>
      </trkpt>
      <trkpt lat="48.60469" lon="2.07219">
        <ele>111</ele>
        <time>2010-03-19T10:27:29Z</time>
      </trkpt>
      <trkpt lat="48.60469" lon="2.07217">
        <ele>111</ele>
        <time>2010-03-19T10:27:30Z</time>
      </trkpt>
      <trkpt lat="48.60469" lon="2.07214">
        <ele>111</ele>
        <time>2010-03-19T10:27:31Z</time>
      </trkpt>
      <trkpt lat="48.60468" lon="2.07212">
        <ele>111</ele>
        <time>2010-03-19T10:27:32Z</time>
      </trkpt>
      <trkpt lat="48.60468" lon="2.0721">
        <ele>111</ele>
        <time>2010-03-19T10:27:33Z</time>
      </trkpt>
      <trkpt lat="48.60468" lon="2.07208">
        <ele>111</ele>
        <time>2010-03-19T10:27:34Z</time>
      </trkpt>
      <trkpt lat="48.60468" lon="2.07206">
        <ele>111</ele>
        <time>2010-03-19T10:27:35Z</time>
      </trkpt>
      <trkpt lat="48.60468" lon="2.07203">
        <ele>111</ele>
        <time>2010-03-19T10:27:36Z</time>
      </trkpt>
      <trkpt lat="48.60468" lon="2.07201">
        <ele>111</ele>
        <time>2010-03-19T10:27:37Z</time>
      </trkpt>
      <trkpt lat="48.60468" lon="2.07198">
        <ele>111</ele>
        <time>2010-03-19T10:27:38Z</time>
      </trkpt>
      <trkpt lat="48.60467" lon="2.07196">
        <ele>111</ele>
        <time>2010-03-19T10:27:39Z</time>
      </trkpt>
      <trkpt lat="48.60467" lon="2.07193">
        <ele>111</ele>
        <time>2010-03-19T10:27:40Z</time>
      </trkpt>
      <trkpt lat="48.60467" lon="2.0719">
        <ele>111</ele>
        <time>2010-03-19T10:27:41Z</time>
      </trkpt>
      <trkpt lat="48.60467" lon="2.07188">
        <ele>111</ele>
        <time>2010-03-19T10:27:42Z</time>
      </trkpt>
      <trkpt lat="48.60467" lon="2.07185">
        <ele>111</ele>
        <time>2010-03-19T10:27:43Z</time>
      </trkpt>
      <trkpt lat="48.60468" lon="2.07183">
        <ele>111</ele>
        <time>2010-03-19T10:27:44Z</time>
      </trkpt>
      <trkpt lat="48.60468" lon="2.07181">
        <ele>111</ele>
        <time>2010-03-19T10:27:45Z</time>
      </trkpt>
      <trkpt lat="48.60468" lon="2.07178">
        <ele>111</ele>
        <time>2010-03-19T10:27:46Z</time>
      </trkpt>
      <trkpt lat="48.60468" lon="2.07176">
        <ele>111</ele>
        <time>2010-03-19T10:27:47Z</time>
      </trkpt>
      <trkpt lat="48.60468" lon="2.07173">
        <ele>111</ele>
        <time>2010-03-19T10:27:48Z</time>
      </trkpt>
      <trkpt lat="48.60468" lon="2.07171">
        <ele>111</ele>
        <time>2010-03-19T10:27:49Z</time>
      </trkpt>
      <trkpt lat="48.60468" lon="2.07168">
        <ele>111</ele>
        <time>2010-03-19T10:27:50Z</time>
      </trkpt>
      <trkpt lat="48.60468" lon="2.07166">
        <ele>111</ele>
        <time>2010-03-19T10:27:51Z</time>
      </trkpt>
      <trkpt lat="48.60468" lon="2.07163">
        <ele>111</ele>
        <time>2010-03-19T10:27:52Z</time>
      </trkpt>
      <trkpt lat="48.60468" lon="2.07161">
        <ele>111</ele>
        <time>2010-03-19T10:27:53Z</time>
      </trkpt>
      <trkpt lat="48.60467" lon="2.07158">
        <ele>111</ele>
        <time>2010-03-19T10:27:54Z</time>
      </trkpt>
      <trkpt lat="48.60467" lon="2.07155">
        <ele>111</ele>
        <time>2010-03-19T10:27:55Z</time>
      </trkpt>
      <trkpt lat="48.60467" lon="2.07153">
        <ele>111</ele>
        <time>2010-03-19T10:27:56Z</time>
      </trkpt>
      <trkpt lat="48.60467" lon="2.0715">
        <ele>111</ele>
        <time>2010-03-19T10:27:57Z</time>
      </trkpt>
      <trkpt lat="48.60467" lon="2.07148">
        <ele>111</ele>
        <time>2010-03-19T10:27:58Z</time>
      </trkpt>
      <trkpt lat="48.60467" lon="2.07145">
        <ele>111</ele>
        <time>2010-03-19T10:27:59Z</time>
      </trkpt>
      <trkpt lat="48.60466" lon="2.07142">
        <ele>111</ele>
        <time>2010-03-19T10:28:00Z</time>
      </trkpt>
      <trkpt lat="48.60466" lon="2.07139">
        <ele>111</ele>
        <time>2010-03-19T10:28:01Z</time>
      </trkpt>
      <trkpt lat="48.60466" lon="2.07137">
        <ele>111</ele>
        <time>2010-03-19T10:28:02Z</time>
      </trkpt>
      <trkpt lat="48.60466" lon="2.07134">
        <ele>111</ele>
        <time>2010-03-19T10:28:03Z</time>
      </trkpt>
      <trkpt lat="48.60466" lon="2.07131">
        <ele>111</ele>
        <time>2010-03-19T10:28:04Z</time>
      </trkpt>
      <trkpt lat="48.60466" lon="2.07128">
        <ele>111</ele>
        <time>2010-03-19T10:28:05Z</time>
      </trkpt>
      <trkpt lat="48.60466" lon="2.07126">
        <ele>111</ele>
        <time>2010-03-19T10:28:06Z</time>
      </trkpt>
      <trkpt lat="48.60465" lon="2.07123">
        <ele>111</ele>
        <time>2010-03-19T10:28:07Z</time>
      </trkpt>
      <trkpt lat="48.60465" lon="2.0712">
        <ele>111</ele>
        <time>2010-03-19T10:28:08Z</time>
      </trkpt>
      <trkpt lat="48.60465" lon="2.07118">
        <ele>111</ele>
        <time>2010-03-19T10:28:09Z</time>
      </trkpt>
      <trkpt lat="48.60464" lon="2.07115">
        <ele>111</ele>
        <time>2010-03-19T10:28:10Z</time>
      </trkpt>
      <trkpt lat="48.60464" lon="2.07112">
        <ele>111</ele>
        <time>2010-03-19T10:28:11Z</time>
      </trkpt>
      <trkpt lat="48.60464" lon="2.07109">
        <ele>111</ele>
        <time>2010-03-19T10:28:12Z</time>
      </trkpt>
      <trkpt lat="48.60464" lon="2.07106">
        <ele>111</ele>
        <time>2010-03-19T10:28:13Z</time>
      </trkpt>
      <trkpt lat="48.60464" lon="2.07104">
        <ele>111</ele>
        <time>2010-03-19T10:28:14Z</time>
      </trkpt>
      <trkpt lat="48.60463" lon="2.07101">
        <ele>111</ele>
        <time>2010-03-19T10:28:15Z</time>
      </trkpt>
      <trkpt lat="48.60463" lon="2.07099">
        <ele>111</ele>
        <time>2010-03-19T10:28:16Z</time>
      </trkpt>
      <trkpt lat="48.60463" lon="2.07096">
        <ele>111</ele>
        <time>2010-03-19T10:28:17Z</time>
      </trkpt>
      <trkpt lat="48.60463" lon="2.07094">
        <ele>111</ele>
        <time>2010-03-19T10:28:18Z</time>
      </trkpt>
      <trkpt lat="48.60463" lon="2.07091">
        <ele>111</ele>
        <time>2010-03-19T10:28:19Z</time>
      </trkpt>
      <trkpt lat="48.60463" lon="2.07089">
        <ele>111</ele>
        <time>2010-03-19T10:28:20Z</time>
      </trkpt>
      <trkpt lat="48.60463" lon="2.07086">
        <ele>111</ele>
        <time>2010-03-19T10:28:21Z</time>
      </trkpt>
      <trkpt lat="48.60463" lon="2.07084">
        <ele>111</ele>
        <time>2010-03-19T10:28:22Z</time>
      </trkpt>
      <trkpt lat="48.60463" lon="2.07082">
        <ele>111</ele>
        <time>2010-03-19T10:28:23Z</time>
      </trkpt>
      <trkpt lat="48.60462" lon="2.07079">
        <ele>111</ele>
        <time>2010-03-19T10:28:24Z</time>
      </trkpt>
      <trkpt lat="48.60461" lon="2.07077">
        <ele>111</ele>
        <time>2010-03-19T10:28:25Z</time>
      </trkpt>
      <trkpt lat="48.60461" lon="2.07074">
        <ele>111</ele>
        <time>2010-03-19T10:28:26Z</time>
      </trkpt>
      <trkpt lat="48.60461" lon="2.07072">
        <ele>111</ele>
        <time>2010-03-19T10:28:27Z</time>
      </trkpt>
      <trkpt lat="48.60461" lon="2.0707">
        <ele>111</ele>
        <time>2010-03-19T10:28:28Z</time>
      </trkpt>
      <trkpt lat="48.60461" lon="2.07067">
        <ele>111</ele>
        <time>2010-03-19T10:28:29Z</time>
      </trkpt>
      <trkpt lat="48.60461" lon="2.07065">
        <ele>111</ele>
        <time>2010-03-19T10:28:30Z</time>
      </trkpt>
      <trkpt lat="48.60461" lon="2.07063">
        <ele>111</ele>
        <time>2010-03-19T10:28:31Z</time>
      </trkpt>
      <trkpt lat="48.60461" lon="2.0706">
        <ele>111</ele>
        <time>2010-03-19T10:28:32Z</time>
      </trkpt>
      <trkpt lat="48.60461" lon="2.07058">
        <ele>111</ele>
        <time>2010-03-19T10:28:33Z</time>
      </trkpt>
      <trkpt lat="48.60461" lon="2.07056">
        <ele>111</ele>
        <time>2010-03-19T10:28:34Z</time>
      </trkpt>
      <trkpt lat="48.60462" lon="2.07053">
        <ele>111</ele>
        <time>2010-03-19T10:28:35Z</time>
      </trkpt>
      <trkpt lat="48.60463" lon="2.07051">
        <ele>111</ele>
        <time>2010-03-19T10:28:36Z</time>
      </trkpt>
      <trkpt lat="48.60463" lon="2.07048">
        <ele>111</ele>
        <time>2010-03-19T10:28:37Z</time>
      </trkpt>
      <trkpt lat="48.60463" lon="2.07046">
        <ele>111</ele>
        <time>2010-03-19T10:28:38Z</time>
      </trkpt>
      <trkpt lat="48.60464" lon="2.07044">
        <ele>111</ele>
        <time>2010-03-19T10:28:39Z</time>
      </trkpt>
      <trkpt lat="48.60465" lon="2.07042">
        <ele>111</ele>
        <time>2010-03-19T10:28:40Z</time>
      </trkpt>
      <trkpt lat="48.60466" lon="2.07041">
        <ele>111</ele>
        <time>2010-03-19T10:28:41Z</time>
      </trkpt>
      <trkpt lat="48.60467" lon="2.07038">
        <ele>111</ele>
        <time>2010-03-19T10:28:42Z</time>
      </trkpt>
      <trkpt lat="48.60468" lon="2.07036">
        <ele>111</ele>
        <time>2010-03-19T10:28:43Z</time>
      </trkpt>
      <trkpt lat="48.60469" lon="2.07034">
        <ele>111</ele>
        <time>2010-03-19T10:28:44Z</time>
      </trkpt>
      <trkpt lat="48.60469" lon="2.07033">
        <ele>111</ele>
        <time>2010-03-19T10:28:45Z</time>
      </trkpt>
      <trkpt lat="48.60471" lon="2.07031">
        <ele>111</ele>
        <time>2010-03-19T10:28:46Z</time>
      </trkpt>
      <trkpt lat="48.60472" lon="2.07029">
        <ele>111</ele>
        <time>2010-03-19T10:28:47Z</time>
      </trkpt>
      <trkpt lat="48.60473" lon="2.07028">
        <ele>111</ele>
        <time>2010-03-19T10:28:48Z</time>
      </trkpt>
      <trkpt lat="48.60474" lon="2.07026">
        <ele>111</ele>
        <time>2010-03-19T10:28:49Z</time>
      </trkpt>
      <trkpt lat="48.60475" lon="2.07025">
        <ele>111</ele>
        <time>2010-03-19T10:28:50Z</time>
      </trkpt>
      <trkpt lat="48.60477" lon="2.07022">
        <ele>111</ele>
        <time>2010-03-19T10:28:52Z</time>
      </trkpt>
      <trkpt lat="48.60478" lon="2.0702">
        <ele>111</ele>
        <time>2010-03-19T10:28:53Z</time>
      </trkpt>
      <trkpt lat="48.60479" lon="2.07018">
        <ele>111</ele>
        <time>2010-03-19T10:28:54Z</time>
      </trkpt>
      <trkpt lat="48.6048" lon="2.07016">
        <ele>111</ele>
        <time>2010-03-19T10:28:55Z</time>
      </trkpt>
      <trkpt lat="48.60481" lon="2.07014">
        <ele>111</ele>
        <time>2010-03-19T10:28:56Z</time>
      </trkpt>
      <trkpt lat="48.60482" lon="2.07012">
        <ele>111</ele>
        <time>2010-03-19T10:28:57Z</time>
      </trkpt>
      <trkpt lat="48.60483" lon="2.0701">
        <ele>111</ele>
        <time>2010-03-19T10:28:58Z</time>
      </trkpt>
      <trkpt lat="48.60484" lon="2.07008">
        <ele>111</ele>
        <time>2010-03-19T10:28:59Z</time>
      </trkpt>
      <trkpt lat="48.60485" lon="2.07006">
        <ele>111</ele>
        <time>2010-03-19T10:29:00Z</time>
      </trkpt>
      <trkpt lat="48.60485" lon="2.07004">
        <ele>111</ele>
        <time>2010-03-19T10:29:01Z</time>
      </trkpt>
      <trkpt lat="48.60487" lon="2.07003">
        <ele>111</ele>
        <time>2010-03-19T10:29:02Z</time>
      </trkpt>
      <trkpt lat="48.60489" lon="2.07">
        <ele>111</ele>
        <time>2010-03-19T10:29:04Z</time>
      </trkpt>
      <trkpt lat="48.6049" lon="2.06997">
        <ele>111</ele>
        <time>2010-03-19T10:29:06Z</time>
      </trkpt>
      <trkpt lat="48.60491" lon="2.06995">
        <ele>111</ele>
        <time>2010-03-19T10:29:08Z</time>
      </trkpt>
      <trkpt lat="48.60492" lon="2.06993">
        <ele>111</ele>
        <time>2010-03-19T10:29:12Z</time>
      </trkpt>
      <trkpt lat="48.60492" lon="2.06991">
        <ele>111</ele>
        <time>2010-03-19T10:29:13Z</time>
      </trkpt>
      <trkpt lat="48.60493" lon="2.06989">
        <ele>111</ele>
        <time>2010-03-19T10:29:14Z</time>
      </trkpt>
      <trkpt lat="48.60493" lon="2.06986">
        <ele>111</ele>
        <time>2010-03-19T10:29:15Z</time>
      </trkpt>
      <trkpt lat="48.60493" lon="2.06984">
        <ele>111</ele>
        <time>2010-03-19T10:29:16Z</time>
      </trkpt>
      <trkpt lat="48.60494" lon="2.06982">
        <ele>111</ele>
        <time>2010-03-19T10:29:17Z</time>
      </trkpt>
      <trkpt lat="48.60494" lon="2.0698">
        <ele>111</ele>
        <time>2010-03-19T10:29:18Z</time>
      </trkpt>
      <trkpt lat="48.60494" lon="2.06978">
        <ele>111</ele>
        <time>2010-03-19T10:29:19Z</time>
      </trkpt>
      <trkpt lat="48.60495" lon="2.06976">
        <ele>111</ele>
        <time>2010-03-19T10:29:20Z</time>
      </trkpt>
      <trkpt lat="48.60495" lon="2.06974">
        <ele>111</ele>
        <time>2010-03-19T10:29:21Z</time>
      </trkpt>
      <trkpt lat="48.60496" lon="2.06972">
        <ele>111</ele>
        <time>2010-03-19T10:29:22Z</time>
      </trkpt>
      <trkpt lat="48.60497" lon="2.0697">
        <ele>111</ele>
        <time>2010-03-19T10:29:23Z</time>
      </trkpt>
      <trkpt lat="48.60497" lon="2.06968">
        <ele>110</ele>
        <time>2010-03-19T10:29:24Z</time>
      </trkpt>
      <trkpt lat="48.60498" lon="2.06966">
        <ele>110</ele>
        <time>2010-03-19T10:29:25Z</time>
      </trkpt>
      <trkpt lat="48.60498" lon="2.06964">
        <ele>110</ele>
        <time>2010-03-19T10:29:26Z</time>
      </trkpt>
      <trkpt lat="48.60499" lon="2.06962">
        <ele>110</ele>
        <time>2010-03-19T10:29:27Z</time>
      </trkpt>
      <trkpt lat="48.60499" lon="2.0696">
        <ele>110</ele>
        <time>2010-03-19T10:29:28Z</time>
      </trkpt>
      <trkpt lat="48.605" lon="2.06958">
        <ele>110</ele>
        <time>2010-03-19T10:29:29Z</time>
      </trkpt>
      <trkpt lat="48.605" lon="2.06955">
        <ele>110</ele>
        <time>2010-03-19T10:29:30Z</time>
      </trkpt>
      <trkpt lat="48.60501" lon="2.06953">
        <ele>110</ele>
        <time>2010-03-19T10:29:31Z</time>
      </trkpt>
      <trkpt lat="48.60501" lon="2.06951">
        <ele>110</ele>
        <time>2010-03-19T10:29:32Z</time>
      </trkpt>
      <trkpt lat="48.60501" lon="2.06949">
        <ele>110</ele>
        <time>2010-03-19T10:29:33Z</time>
      </trkpt>
      <trkpt lat="48.60502" lon="2.06947">
        <ele>110</ele>
        <time>2010-03-19T10:29:34Z</time>
      </trkpt>
      <trkpt lat="48.60503" lon="2.06945">
        <ele>110</ele>
        <time>2010-03-19T10:29:35Z</time>
      </trkpt>
      <trkpt lat="48.60503" lon="2.06943">
        <ele>110</ele>
        <time>2010-03-19T10:29:36Z</time>
      </trkpt>
      <trkpt lat="48.60503" lon="2.0694">
        <ele>110</ele>
        <time>2010-03-19T10:29:37Z</time>
      </trkpt>
      <trkpt lat="48.60504" lon="2.06938">
        <ele>110</ele>
        <time>2010-03-19T10:29:38Z</time>
      </trkpt>
      <trkpt lat="48.60505" lon="2.06936">
        <ele>110</ele>
        <time>2010-03-19T10:29:39Z</time>
      </trkpt>
      <trkpt lat="48.60505" lon="2.06934">
        <ele>110</ele>
        <time>2010-03-19T10:29:40Z</time>
      </trkpt>
      <trkpt lat="48.60506" lon="2.06932">
        <ele>110</ele>
        <time>2010-03-19T10:29:41Z</time>
      </trkpt>
      <trkpt lat="48.60506" lon="2.0693">
        <ele>110</ele>
        <time>2010-03-19T10:29:42Z</time>
      </trkpt>
      <trkpt lat="48.60507" lon="2.06928">
        <ele>110</ele>
        <time>2010-03-19T10:29:43Z</time>
      </trkpt>
      <trkpt lat="48.60507" lon="2.06925">
        <ele>110</ele>
        <time>2010-03-19T10:29:44Z</time>
      </trkpt>
      <trkpt lat="48.60508" lon="2.06923">
        <ele>110</ele>
        <time>2010-03-19T10:29:45Z</time>
      </trkpt>
      <trkpt lat="48.60508" lon="2.06921">
        <ele>110</ele>
        <time>2010-03-19T10:29:46Z</time>
      </trkpt>
      <trkpt lat="48.60509" lon="2.06919">
        <ele>110</ele>
        <time>2010-03-19T10:29:47Z</time>
      </trkpt>
      <trkpt lat="48.60509" lon="2.06917">
        <ele>110</ele>
        <time>2010-03-19T10:29:48Z</time>
      </trkpt>
      <trkpt lat="48.60509" lon="2.06914">
        <ele>110</ele>
        <time>2010-03-19T10:29:49Z</time>
      </trkpt>
      <trkpt lat="48.6051" lon="2.06912">
        <ele>110</ele>
        <time>2010-03-19T10:29:50Z</time>
      </trkpt>
      <trkpt lat="48.60511" lon="2.0691">
        <ele>110</ele>
        <time>2010-03-19T10:29:51Z</time>
      </trkpt>
      <trkpt lat="48.60511" lon="2.06908">
        <ele>110</ele>
        <time>2010-03-19T10:29:52Z</time>
      </trkpt>
      <trkpt lat="48.60512" lon="2.06905">
        <ele>110</ele>
        <time>2010-03-19T10:29:53Z</time>
      </trkpt>
      <trkpt lat="48.60513" lon="2.06903">
        <ele>110</ele>
        <time>2010-03-19T10:29:54Z</time>
      </trkpt>
      <trkpt lat="48.60513" lon="2.06901">
        <ele>110</ele>
        <time>2010-03-19T10:29:55Z</time>
      </trkpt>
      <trkpt lat="48.60513" lon="2.06899">
        <ele>109</ele>
        <time>2010-03-19T10:29:56Z</time>
      </trkpt>
      <trkpt lat="48.60514" lon="2.06897">
        <ele>109</ele>
        <time>2010-03-19T10:29:57Z</time>
      </trkpt>
      <trkpt lat="48.60514" lon="2.06895">
        <ele>109</ele>
        <time>2010-03-19T10:29:58Z</time>
      </trkpt>
      <trkpt lat="48.60515" lon="2.06892">
        <ele>109</ele>
        <time>2010-03-19T10:29:59Z</time>
      </trkpt>
      <trkpt lat="48.60515" lon="2.0689">
        <ele>109</ele>
        <time>2010-03-19T10:30:00Z</time>
      </trkpt>
      <trkpt lat="48.60516" lon="2.06888">
        <ele>109</ele>
        <time>2010-03-19T10:30:01Z</time>
      </trkpt>
      <trkpt lat="48.60516" lon="2.06886">
        <ele>109</ele>
        <time>2010-03-19T10:30:02Z</time>
      </trkpt>
      <trkpt lat="48.60517" lon="2.06884">
        <ele>109</ele>
        <time>2010-03-19T10:30:03Z</time>
      </trkpt>
      <trkpt lat="48.60517" lon="2.06882">
        <ele>108</ele>
        <time>2010-03-19T10:30:04Z</time>
      </trkpt>
      <trkpt lat="48.60518" lon="2.0688">
        <ele>108</ele>
        <time>2010-03-19T10:30:05Z</time>
      </trkpt>
      <trkpt lat="48.60518" lon="2.06878">
        <ele>108</ele>
        <time>2010-03-19T10:30:06Z</time>
      </trkpt>
      <trkpt lat="48.60519" lon="2.06876">
        <ele>108</ele>
        <time>2010-03-19T10:30:07Z</time>
      </trkpt>
      <trkpt lat="48.6052" lon="2.06874">
        <ele>108</ele>
        <time>2010-03-19T10:30:08Z</time>
      </trkpt>
      <trkpt lat="48.6052" lon="2.06872">
        <ele>108</ele>
        <time>2010-03-19T10:30:09Z</time>
      </trkpt>
      <trkpt lat="48.60521" lon="2.0687">
        <ele>108</ele>
        <time>2010-03-19T10:30:10Z</time>
      </trkpt>
      <trkpt lat="48.60521" lon="2.06868">
        <ele>108</ele>
        <time>2010-03-19T10:30:11Z</time>
      </trkpt>
      <trkpt lat="48.60522" lon="2.06866">
        <ele>107</ele>
        <time>2010-03-19T10:30:12Z</time>
      </trkpt>
      <trkpt lat="48.60522" lon="2.06864">
        <ele>107</ele>
        <time>2010-03-19T10:30:13Z</time>
      </trkpt>
      <trkpt lat="48.60523" lon="2.06861">
        <ele>107</ele>
        <time>2010-03-19T10:30:14Z</time>
      </trkpt>
      <trkpt lat="48.60523" lon="2.06859">
        <ele>107</ele>
        <time>2010-03-19T10:30:15Z</time>
      </trkpt>
      <trkpt lat="48.60523" lon="2.06858">
        <ele>107</ele>
        <time>2010-03-19T10:30:16Z</time>
      </trkpt>
      <trkpt lat="48.60523" lon="2.06856">
        <ele>107</ele>
        <time>2010-03-19T10:30:17Z</time>
      </trkpt>
      <trkpt lat="48.60524" lon="2.06854">
        <ele>107</ele>
        <time>2010-03-19T10:30:18Z</time>
      </trkpt>
      <trkpt lat="48.60524" lon="2.06852">
        <ele>107</ele>
        <time>2010-03-19T10:30:19Z</time>
      </trkpt>
      <trkpt lat="48.60523" lon="2.0685">
        <ele>107</ele>
        <time>2010-03-19T10:30:20Z</time>
      </trkpt>
      <trkpt lat="48.60523" lon="2.06848">
        <ele>107</ele>
        <time>2010-03-19T10:30:21Z</time>
      </trkpt>
      <trkpt lat="48.60522" lon="2.06846">
        <ele>107</ele>
        <time>2010-03-19T10:30:22Z</time>
      </trkpt>
      <trkpt lat="48.60521" lon="2.06843">
        <ele>107</ele>
        <time>2010-03-19T10:30:24Z</time>
      </trkpt>
      <trkpt lat="48.60519" lon="2.06841">
        <ele>107</ele>
        <time>2010-03-19T10:30:26Z</time>
      </trkpt>
      <trkpt lat="48.60517" lon="2.0684">
        <ele>107</ele>
        <time>2010-03-19T10:30:27Z</time>
      </trkpt>
      <trkpt lat="48.60516" lon="2.06839">
        <ele>107</ele>
        <time>2010-03-19T10:30:28Z</time>
      </trkpt>
      <trkpt lat="48.60515" lon="2.06838">
        <ele>107</ele>
        <time>2010-03-19T10:30:29Z</time>
      </trkpt>
      <trkpt lat="48.60514" lon="2.06837">
        <ele>107</ele>
        <time>2010-03-19T10:30:30Z</time>
      </trkpt>
      <trkpt lat="48.60513" lon="2.06835">
        <ele>107</ele>
        <time>2010-03-19T10:30:31Z</time>
      </trkpt>
      <trkpt lat="48.60512" lon="2.06833">
        <ele>107</ele>
        <time>2010-03-19T10:30:32Z</time>
      </trkpt>
      <trkpt lat="48.60511" lon="2.06832">
        <ele>107</ele>
        <time>2010-03-19T10:30:33Z</time>
      </trkpt>
      <trkpt lat="48.60511" lon="2.0683">
        <ele>107</ele>
        <time>2010-03-19T10:30:34Z</time>
      </trkpt>
      <trkpt lat="48.6051" lon="2.06828">
        <ele>107</ele>
        <time>2010-03-19T10:30:35Z</time>
      </trkpt>
      <trkpt lat="48.60509" lon="2.06826">
        <ele>107</ele>
        <time>2010-03-19T10:30:36Z</time>
      </trkpt>
      <trkpt lat="48.60508" lon="2.06824">
        <ele>107</ele>
        <time>2010-03-19T10:30:37Z</time>
      </trkpt>
      <trkpt lat="48.60506" lon="2.06821">
        <ele>107</ele>
        <time>2010-03-19T10:30:39Z</time>
      </trkpt>
      <trkpt lat="48.60505" lon="2.0682">
        <ele>107</ele>
        <time>2010-03-19T10:30:40Z</time>
      </trkpt>
      <trkpt lat="48.60505" lon="2.06818">
        <ele>107</ele>
        <time>2010-03-19T10:30:41Z</time>
      </trkpt>
      <trkpt lat="48.60504" lon="2.06816">
        <ele>107</ele>
        <time>2010-03-19T10:30:42Z</time>
      </trkpt>
      <trkpt lat="48.60503" lon="2.06814">
        <ele>107</ele>
        <time>2010-03-19T10:30:43Z</time>
      </trkpt>
      <trkpt lat="48.60503" lon="2.06813">
        <ele>107</ele>
        <time>2010-03-19T10:30:44Z</time>
      </trkpt>
      <trkpt lat="48.60502" lon="2.06811">
        <ele>107</ele>
        <time>2010-03-19T10:30:45Z</time>
      </trkpt>
      <trkpt lat="48.60502" lon="2.06809">
        <ele>107</ele>
        <time>2010-03-19T10:30:46Z</time>
      </trkpt>
      <trkpt lat="48.60501" lon="2.06807">
        <ele>107</ele>
        <time>2010-03-19T10:30:47Z</time>
      </trkpt>
      <trkpt lat="48.60501" lon="2.06805">
        <ele>107</ele>
        <time>2010-03-19T10:30:48Z</time>
      </trkpt>
      <trkpt lat="48.605" lon="2.06804">
        <ele>107</ele>
        <time>2010-03-19T10:30:49Z</time>
      </trkpt>
      <trkpt lat="48.605" lon="2.06802">
        <ele>107</ele>
        <time>2010-03-19T10:30:50Z</time>
      </trkpt>
      <trkpt lat="48.60499" lon="2.068">
        <ele>107</ele>
        <time>2010-03-19T10:30:51Z</time>
      </trkpt>
      <trkpt lat="48.60498" lon="2.06799">
        <ele>107</ele>
        <time>2010-03-19T10:30:52Z</time>
      </trkpt>
      <trkpt lat="48.60497" lon="2.06797">
        <ele>107</ele>
        <time>2010-03-19T10:30:53Z</time>
      </trkpt>
      <trkpt lat="48.60497" lon="2.06795">
        <ele>107</ele>
        <time>2010-03-19T10:30:54Z</time>
      </trkpt>
      <trkpt lat="48.60497" lon="2.06792">
        <ele>107</ele>
        <time>2010-03-19T10:30:55Z</time>
      </trkpt>
      <trkpt lat="48.60497" lon="2.0679">
        <ele>107</ele>
        <time>2010-03-19T10:30:56Z</time>
      </trkpt>
      <trkpt lat="48.60498" lon="2.06788">
        <ele>107</ele>
        <time>2010-03-19T10:30:57Z</time>
      </trkpt>
      <trkpt lat="48.60499" lon="2.06786">
        <ele>107</ele>
        <time>2010-03-19T10:30:58Z</time>
      </trkpt>
      <trkpt lat="48.605" lon="2.06784">
        <ele>107</ele>
        <time>2010-03-19T10:30:59Z</time>
      </trkpt>
      <trkpt lat="48.605" lon="2.06782">
        <ele>107</ele>
        <time>2010-03-19T10:31:00Z</time>
      </trkpt>
      <trkpt lat="48.605" lon="2.0678">
        <ele>107</ele>
        <time>2010-03-19T10:31:01Z</time>
      </trkpt>
      <trkpt lat="48.605" lon="2.06778">
        <ele>107</ele>
        <time>2010-03-19T10:31:02Z</time>
      </trkpt>
      <trkpt lat="48.60501" lon="2.06775">
        <ele>107</ele>
        <time>2010-03-19T10:31:03Z</time>
      </trkpt>
      <trkpt lat="48.60501" lon="2.06773">
        <ele>107</ele>
        <time>2010-03-19T10:31:04Z</time>
      </trkpt>
      <trkpt lat="48.60501" lon="2.06771">
        <ele>107</ele>
        <time>2010-03-19T10:31:05Z</time>
      </trkpt>
      <trkpt lat="48.60501" lon="2.06769">
        <ele>107</ele>
        <time>2010-03-19T10:31:06Z</time>
      </trkpt>
      <trkpt lat="48.605" lon="2.06768">
        <ele>107</ele>
        <time>2010-03-19T10:31:07Z</time>
      </trkpt>
      <trkpt lat="48.605" lon="2.06764">
        <ele>107</ele>
        <time>2010-03-19T10:31:09Z</time>
      </trkpt>
      <trkpt lat="48.605" lon="2.06762">
        <ele>107</ele>
        <time>2010-03-19T10:31:10Z</time>
      </trkpt>
      <trkpt lat="48.60499" lon="2.0676">
        <ele>107</ele>
        <time>2010-03-19T10:31:12Z</time>
      </trkpt>
      <trkpt lat="48.60498" lon="2.0676">
        <ele>107</ele>
        <time>2010-03-19T10:31:20Z</time>
      </trkpt>
      <trkpt lat="48.60495" lon="2.06759">
        <ele>107</ele>
        <time>2010-03-19T10:31:22Z</time>
      </trkpt>
      <trkpt lat="48.60493" lon="2.06759">
        <ele>107</ele>
        <time>2010-03-19T10:31:23Z</time>
      </trkpt>
      <trkpt lat="48.60492" lon="2.06759">
        <ele>107</ele>
        <time>2010-03-19T10:31:24Z</time>
      </trkpt>
      <trkpt lat="48.6049" lon="2.06758">
        <ele>107</ele>
        <time>2010-03-19T10:31:25Z</time>
      </trkpt>
      <trkpt lat="48.60488" lon="2.06757">
        <ele>107</ele>
        <time>2010-03-19T10:31:26Z</time>
      </trkpt>
      <trkpt lat="48.60485" lon="2.06755">
        <ele>107</ele>
        <time>2010-03-19T10:31:27Z</time>
      </trkpt>
      <trkpt lat="48.60484" lon="2.06754">
        <ele>107</ele>
        <time>2010-03-19T10:31:28Z</time>
      </trkpt>
      <trkpt lat="48.60483" lon="2.06753">
        <ele>106</ele>
        <time>2010-03-19T10:31:30Z</time>
      </trkpt>
      <trkpt lat="48.60484" lon="2.0675">
        <ele>106</ele>
        <time>2010-03-19T10:31:38Z</time>
      </trkpt>
      <trkpt lat="48.60485" lon="2.06749">
        <ele>106</ele>
        <time>2010-03-19T10:31:39Z</time>
      </trkpt>
      <trkpt lat="48.60488" lon="2.06747">
        <ele>106</ele>
        <time>2010-03-19T10:31:40Z</time>
      </trkpt>
      <trkpt lat="48.60489" lon="2.06746">
        <ele>106</ele>
        <time>2010-03-19T10:31:41Z</time>
      </trkpt>
      <trkpt lat="48.6049" lon="2.06744">
        <ele>106</ele>
        <time>2010-03-19T10:31:42Z</time>
      </trkpt>
      <trkpt lat="48.60488" lon="2.06745">
        <ele>106</ele>
        <time>2010-03-19T10:31:54Z</time>
      </trkpt>
      <trkpt lat="48.60485" lon="2.06745">
        <ele>106</ele>
        <time>2010-03-19T10:31:56Z</time>
      </trkpt>
      <trkpt lat="48.60484" lon="2.06744">
        <ele>106</ele>
        <time>2010-03-19T10:31:57Z</time>
      </trkpt>
      <trkpt lat="48.60482" lon="2.06743">
        <ele>106</ele>
        <time>2010-03-19T10:31:58Z</time>
      </trkpt>
      <trkpt lat="48.60478" lon="2.06742">
        <ele>106</ele>
        <time>2010-03-19T10:31:59Z</time>
      </trkpt>
      <trkpt lat="48.60475" lon="2.0674">
        <ele>106</ele>
        <time>2010-03-19T10:32:00Z</time>
      </trkpt>
      <trkpt lat="48.60472" lon="2.06739">
        <ele>106</ele>
        <time>2010-03-19T10:32:01Z</time>
      </trkpt>
      <trkpt lat="48.60469" lon="2.06737">
        <ele>106</ele>
        <time>2010-03-19T10:32:02Z</time>
      </trkpt>
      <trkpt lat="48.60467" lon="2.06735">
        <ele>106</ele>
        <time>2010-03-19T10:32:03Z</time>
      </trkpt>
      <trkpt lat="48.60464" lon="2.06732">
        <ele>106</ele>
        <time>2010-03-19T10:32:04Z</time>
      </trkpt>
      <trkpt lat="48.60461" lon="2.06731">
        <ele>106</ele>
        <time>2010-03-19T10:32:05Z</time>
      </trkpt>
      <trkpt lat="48.60458" lon="2.0673">
        <ele>106</ele>
        <time>2010-03-19T10:32:06Z</time>
      </trkpt>
      <trkpt lat="48.60456" lon="2.0673">
        <ele>106</ele>
        <time>2010-03-19T10:32:07Z</time>
      </trkpt>
      <trkpt lat="48.60453" lon="2.06729">
        <ele>106</ele>
        <time>2010-03-19T10:32:08Z</time>
      </trkpt>
      <trkpt lat="48.6045" lon="2.06728">
        <ele>106</ele>
        <time>2010-03-19T10:32:09Z</time>
      </trkpt>
      <trkpt lat="48.60448" lon="2.06728">
        <ele>106</ele>
        <time>2010-03-19T10:32:10Z</time>
      </trkpt>
      <trkpt lat="48.60445" lon="2.06729">
        <ele>106</ele>
        <time>2010-03-19T10:32:11Z</time>
      </trkpt>
      <trkpt lat="48.60442" lon="2.0673">
        <ele>106</ele>
        <time>2010-03-19T10:32:12Z</time>
      </trkpt>
      <trkpt lat="48.6044" lon="2.06731">
        <ele>106</ele>
        <time>2010-03-19T10:32:13Z</time>
      </trkpt>
      <trkpt lat="48.60437" lon="2.06732">
        <ele>106</ele>
        <time>2010-03-19T10:32:14Z</time>
      </trkpt>
      <trkpt lat="48.60435" lon="2.06732">
        <ele>106</ele>
        <time>2010-03-19T10:32:15Z</time>
      </trkpt>
      <trkpt lat="48.60433" lon="2.06732">
        <ele>106</ele>
        <time>2010-03-19T10:32:16Z</time>
      </trkpt>
      <trkpt lat="48.60431" lon="2.06734">
        <ele>106</ele>
        <time>2010-03-19T10:32:17Z</time>
      </trkpt>
      <trkpt lat="48.60429" lon="2.06735">
        <ele>106</ele>
        <time>2010-03-19T10:32:18Z</time>
      </trkpt>
      <trkpt lat="48.60427" lon="2.06736">
        <ele>106</ele>
        <time>2010-03-19T10:32:19Z</time>
      </trkpt>
      <trkpt lat="48.60425" lon="2.06736">
        <ele>106</ele>
        <time>2010-03-19T10:32:20Z</time>
      </trkpt>
      <trkpt lat="48.60424" lon="2.06736">
        <ele>106</ele>
        <time>2010-03-19T10:32:21Z</time>
      </trkpt>
      <trkpt lat="48.60423" lon="2.06735">
        <ele>106</ele>
        <time>2010-03-19T10:32:22Z</time>
      </trkpt>
      <trkpt lat="48.60421" lon="2.06734">
        <ele>106</ele>
        <time>2010-03-19T10:32:23Z</time>
      </trkpt>
      <trkpt lat="48.6042" lon="2.06734">
        <ele>106</ele>
        <time>2010-03-19T10:32:24Z</time>
      </trkpt>
      <trkpt lat="48.60418" lon="2.06733">
        <ele>106</ele>
        <time>2010-03-19T10:32:25Z</time>
      </trkpt>
      <trkpt lat="48.60417" lon="2.06733">
        <ele>106</ele>
        <time>2010-03-19T10:32:26Z</time>
      </trkpt>
      <trkpt lat="48.60416" lon="2.06733">
        <ele>106</ele>
        <time>2010-03-19T10:32:27Z</time>
      </trkpt>
      <trkpt lat="48.60415" lon="2.06733">
        <ele>106</ele>
        <time>2010-03-19T10:32:28Z</time>
      </trkpt>
      <trkpt lat="48.60413" lon="2.06732">
        <ele>106</ele>
        <time>2010-03-19T10:32:29Z</time>
      </trkpt>
      <trkpt lat="48.60411" lon="2.06732">
        <ele>106</ele>
        <time>2010-03-19T10:32:30Z</time>
      </trkpt>
      <trkpt lat="48.6041" lon="2.06732">
        <ele>105</ele>
        <time>2010-03-19T10:32:31Z</time>
      </trkpt>
      <trkpt lat="48.60408" lon="2.06731">
        <ele>105</ele>
        <time>2010-03-19T10:32:32Z</time>
      </trkpt>
      <trkpt lat="48.60407" lon="2.06731">
        <ele>105</ele>
        <time>2010-03-19T10:32:33Z</time>
      </trkpt>
      <trkpt lat="48.60406" lon="2.06731">
        <ele>104</ele>
        <time>2010-03-19T10:32:34Z</time>
      </trkpt>
      <trkpt lat="48.60404" lon="2.06731">
        <ele>104</ele>
        <time>2010-03-19T10:32:35Z</time>
      </trkpt>
      <trkpt lat="48.60403" lon="2.06731">
        <ele>104</ele>
        <time>2010-03-19T10:32:37Z</time>
      </trkpt>
      <trkpt lat="48.60401" lon="2.06731">
        <ele>103</ele>
        <time>2010-03-19T10:32:37Z</time>
      </trkpt>
      <trkpt lat="48.604" lon="2.06732">
        <ele>103</ele>
        <time>2010-03-19T10:32:38Z</time>
      </trkpt>
      <trkpt lat="48.60398" lon="2.06731">
        <ele>103</ele>
        <time>2010-03-19T10:32:39Z</time>
      </trkpt>
      <trkpt lat="48.60396" lon="2.06731">
        <ele>102</ele>
        <time>2010-03-19T10:32:40Z</time>
      </trkpt>
      <trkpt lat="48.60395" lon="2.06731">
        <ele>102</ele>
        <time>2010-03-19T10:32:41Z</time>
      </trkpt>
      <trkpt lat="48.60393" lon="2.0673">
        <ele>102</ele>
        <time>2010-03-19T10:32:42Z</time>
      </trkpt>
      <trkpt lat="48.60392" lon="2.0673">
        <ele>102</ele>
        <time>2010-03-19T10:32:43Z</time>
      </trkpt>
      <trkpt lat="48.6039" lon="2.06729">
        <ele>102</ele>
        <time>2010-03-19T10:32:44Z</time>
      </trkpt>
      <trkpt lat="48.60389" lon="2.06729">
        <ele>102</ele>
        <time>2010-03-19T10:32:45Z</time>
      </trkpt>
      <trkpt lat="48.60387" lon="2.06728">
        <ele>101</ele>
        <time>2010-03-19T10:32:46Z</time>
      </trkpt>
      <trkpt lat="48.60386" lon="2.06727">
        <ele>101</ele>
        <time>2010-03-19T10:32:47Z</time>
      </trkpt>
      <trkpt lat="48.60384" lon="2.06727">
        <ele>101</ele>
        <time>2010-03-19T10:32:48Z</time>
      </trkpt>
      <trkpt lat="48.60382" lon="2.06727">
        <ele>101</ele>
        <time>2010-03-19T10:32:49Z</time>
      </trkpt>
      <trkpt lat="48.60381" lon="2.06727">
        <ele>101</ele>
        <time>2010-03-19T10:32:50Z</time>
      </trkpt>
      <trkpt lat="48.60379" lon="2.06727">
        <ele>101</ele>
        <time>2010-03-19T10:32:51Z</time>
      </trkpt>
      <trkpt lat="48.60378" lon="2.06727">
        <ele>101</ele>
        <time>2010-03-19T10:32:52Z</time>
      </trkpt>
      <trkpt lat="48.60376" lon="2.06727">
        <ele>101</ele>
        <time>2010-03-19T10:32:53Z</time>
      </trkpt>
      <trkpt lat="48.60375" lon="2.06726">
        <ele>100</ele>
        <time>2010-03-19T10:32:54Z</time>
      </trkpt>
      <trkpt lat="48.60374" lon="2.06726">
        <ele>100</ele>
        <time>2010-03-19T10:32:55Z</time>
      </trkpt>
      <trkpt lat="48.60372" lon="2.06725">
        <ele>100</ele>
        <time>2010-03-19T10:32:56Z</time>
      </trkpt>
      <trkpt lat="48.6037" lon="2.06725">
        <ele>100</ele>
        <time>2010-03-19T10:32:57Z</time>
      </trkpt>
      <trkpt lat="48.60369" lon="2.06724">
        <ele>100</ele>
        <time>2010-03-19T10:32:58Z</time>
      </trkpt>
      <trkpt lat="48.60368" lon="2.06723">
        <ele>99</ele>
        <time>2010-03-19T10:32:59Z</time>
      </trkpt>
      <trkpt lat="48.60366" lon="2.06722">
        <ele>99</ele>
        <time>2010-03-19T10:33:00Z</time>
      </trkpt>
      <trkpt lat="48.60365" lon="2.06721">
        <ele>99</ele>
        <time>2010-03-19T10:33:01Z</time>
      </trkpt>
      <trkpt lat="48.60364" lon="2.0672">
        <ele>99</ele>
        <time>2010-03-19T10:33:02Z</time>
      </trkpt>
      <trkpt lat="48.60361" lon="2.06719">
        <ele>99</ele>
        <time>2010-03-19T10:33:04Z</time>
      </trkpt>
      <trkpt lat="48.6036" lon="2.06719">
        <ele>99</ele>
        <time>2010-03-19T10:33:05Z</time>
      </trkpt>
      <trkpt lat="48.60358" lon="2.06719">
        <ele>99</ele>
        <time>2010-03-19T10:33:06Z</time>
      </trkpt>
      <trkpt lat="48.60356" lon="2.06719">
        <ele>99</ele>
        <time>2010-03-19T10:33:07Z</time>
      </trkpt>
      <trkpt lat="48.60353" lon="2.0672">
        <ele>99</ele>
        <time>2010-03-19T10:33:08Z</time>
      </trkpt>
      <trkpt lat="48.60352" lon="2.0672">
        <ele>99</ele>
        <time>2010-03-19T10:33:09Z</time>
      </trkpt>
      <trkpt lat="48.60349" lon="2.06719">
        <ele>99</ele>
        <time>2010-03-19T10:33:10Z</time>
      </trkpt>
      <trkpt lat="48.60348" lon="2.06717">
        <ele>99</ele>
        <time>2010-03-19T10:33:11Z</time>
      </trkpt>
      <trkpt lat="48.60348" lon="2.06715">
        <ele>99</ele>
        <time>2010-03-19T10:33:12Z</time>
      </trkpt>
      <trkpt lat="48.60346" lon="2.06712">
        <ele>99</ele>
        <time>2010-03-19T10:33:13Z</time>
      </trkpt>
      <trkpt lat="48.60345" lon="2.0671">
        <ele>99</ele>
        <time>2010-03-19T10:33:14Z</time>
      </trkpt>
      <trkpt lat="48.60344" lon="2.06708">
        <ele>99</ele>
        <time>2010-03-19T10:33:15Z</time>
      </trkpt>
      <trkpt lat="48.60342" lon="2.06708">
        <ele>99</ele>
        <time>2010-03-19T10:33:17Z</time>
      </trkpt>
      <trkpt lat="48.6034" lon="2.0671">
        <ele>101</ele>
        <time>2010-03-19T10:33:19Z</time>
      </trkpt>
      <trkpt lat="48.60339" lon="2.0671">
        <ele>102</ele>
        <time>2010-03-19T10:33:20Z</time>
      </trkpt>
      <trkpt lat="48.60337" lon="2.0671">
        <ele>103</ele>
        <time>2010-03-19T10:33:21Z</time>
      </trkpt>
      <trkpt lat="48.60336" lon="2.0671">
        <ele>104</ele>
        <time>2010-03-19T10:33:22Z</time>
      </trkpt>
      <trkpt lat="48.60334" lon="2.0671">
        <ele>104</ele>
        <time>2010-03-19T10:33:23Z</time>
      </trkpt>
      <trkpt lat="48.60333" lon="2.06709">
        <ele>104</ele>
        <time>2010-03-19T10:33:24Z</time>
      </trkpt>
      <trkpt lat="48.60332" lon="2.06708">
        <ele>104</ele>
        <time>2010-03-19T10:33:25Z</time>
      </trkpt>
      <trkpt lat="48.60331" lon="2.06708">
        <ele>104</ele>
        <time>2010-03-19T10:33:26Z</time>
      </trkpt>
      <trkpt lat="48.60329" lon="2.06707">
        <ele>104</ele>
        <time>2010-03-19T10:33:27Z</time>
      </trkpt>
      <trkpt lat="48.60327" lon="2.06706">
        <ele>105</ele>
        <time>2010-03-19T10:33:28Z</time>
      </trkpt>
      <trkpt lat="48.60326" lon="2.06705">
        <ele>105</ele>
        <time>2010-03-19T10:33:29Z</time>
      </trkpt>
      <trkpt lat="48.60325" lon="2.06705">
        <ele>105</ele>
        <time>2010-03-19T10:33:30Z</time>
      </trkpt>
      <trkpt lat="48.60323" lon="2.06705">
        <ele>105</ele>
        <time>2010-03-19T10:33:31Z</time>
      </trkpt>
      <trkpt lat="48.60321" lon="2.06705">
        <ele>105</ele>
        <time>2010-03-19T10:33:33Z</time>
      </trkpt>
      <trkpt lat="48.60319" lon="2.06705">
        <ele>105</ele>
        <time>2010-03-19T10:33:35Z</time>
      </trkpt>
      <trkpt lat="48.60318" lon="2.06704">
        <ele>105</ele>
        <time>2010-03-19T10:33:36Z</time>
      </trkpt>
      <trkpt lat="48.60316" lon="2.06703">
        <ele>105</ele>
        <time>2010-03-19T10:33:38Z</time>
      </trkpt>
      <trkpt lat="48.60315" lon="2.06703">
        <ele>105</ele>
        <time>2010-03-19T10:33:39Z</time>
      </trkpt>
      <trkpt lat="48.60313" lon="2.06702">
        <ele>105</ele>
        <time>2010-03-19T10:33:40Z</time>
      </trkpt>
      <trkpt lat="48.60311" lon="2.067">
        <ele>105</ele>
        <time>2010-03-19T10:33:42Z</time>
      </trkpt>
      <trkpt lat="48.6031" lon="2.06699">
        <ele>105</ele>
        <time>2010-03-19T10:33:43Z</time>
      </trkpt>
      <trkpt lat="48.60309" lon="2.06698">
        <ele>105</ele>
        <time>2010-03-19T10:33:44Z</time>
      </trkpt>
      <trkpt lat="48.60308" lon="2.06699">
        <ele>105</ele>
        <time>2010-03-19T10:33:45Z</time>
      </trkpt>
      <trkpt lat="48.60307" lon="2.06698">
        <ele>105</ele>
        <time>2010-03-19T10:33:46Z</time>
      </trkpt>
      <trkpt lat="48.60305" lon="2.06698">
        <ele>105</ele>
        <time>2010-03-19T10:33:47Z</time>
      </trkpt>
      <trkpt lat="48.60303" lon="2.06696">
        <ele>105</ele>
        <time>2010-03-19T10:33:49Z</time>
      </trkpt>
      <trkpt lat="48.60302" lon="2.06695">
        <ele>105</ele>
        <time>2010-03-19T10:33:50Z</time>
      </trkpt>
      <trkpt lat="48.603" lon="2.06694">
        <ele>105</ele>
        <time>2010-03-19T10:33:51Z</time>
      </trkpt>
      <trkpt lat="48.60299" lon="2.06692">
        <ele>105</ele>
        <time>2010-03-19T10:33:52Z</time>
      </trkpt>
      <trkpt lat="48.60298" lon="2.06691">
        <ele>105</ele>
        <time>2010-03-19T10:33:53Z</time>
      </trkpt>
      <trkpt lat="48.60295" lon="2.06689">
        <ele>105</ele>
        <time>2010-03-19T10:33:55Z</time>
      </trkpt>
      <trkpt lat="48.60293" lon="2.06687">
        <ele>105</ele>
        <time>2010-03-19T10:33:57Z</time>
      </trkpt>
      <trkpt lat="48.60292" lon="2.06686">
        <ele>105</ele>
        <time>2010-03-19T10:33:58Z</time>
      </trkpt>
      <trkpt lat="48.60291" lon="2.06685">
        <ele>105</ele>
        <time>2010-03-19T10:33:59Z</time>
      </trkpt>
      <trkpt lat="48.60289" lon="2.06684">
        <ele>105</ele>
        <time>2010-03-19T10:34:00Z</time>
      </trkpt>
      <trkpt lat="48.60287" lon="2.06683">
        <ele>105</ele>
        <time>2010-03-19T10:34:01Z</time>
      </trkpt>
      <trkpt lat="48.60286" lon="2.06682">
        <ele>105</ele>
        <time>2010-03-19T10:34:02Z</time>
      </trkpt>
      <trkpt lat="48.60284" lon="2.06681">
        <ele>105</ele>
        <time>2010-03-19T10:34:03Z</time>
      </trkpt>
      <trkpt lat="48.60283" lon="2.0668">
        <ele>105</ele>
        <time>2010-03-19T10:34:04Z</time>
      </trkpt>
      <trkpt lat="48.60282" lon="2.06679">
        <ele>105</ele>
        <time>2010-03-19T10:34:05Z</time>
      </trkpt>
      <trkpt lat="48.6028" lon="2.06677">
        <ele>105</ele>
        <time>2010-03-19T10:34:06Z</time>
      </trkpt>
      <trkpt lat="48.60278" lon="2.06676">
        <ele>105</ele>
        <time>2010-03-19T10:34:07Z</time>
      </trkpt>
      <trkpt lat="48.60277" lon="2.06675">
        <ele>105</ele>
        <time>2010-03-19T10:34:08Z</time>
      </trkpt>
      <trkpt lat="48.60275" lon="2.06674">
        <ele>105</ele>
        <time>2010-03-19T10:34:09Z</time>
      </trkpt>
      <trkpt lat="48.60274" lon="2.06673">
        <ele>105</ele>
        <time>2010-03-19T10:34:10Z</time>
      </trkpt>
      <trkpt lat="48.60272" lon="2.06671">
        <ele>105</ele>
        <time>2010-03-19T10:34:11Z</time>
      </trkpt>
      <trkpt lat="48.60271" lon="2.0667">
        <ele>105</ele>
        <time>2010-03-19T10:34:12Z</time>
      </trkpt>
      <trkpt lat="48.6027" lon="2.06668">
        <ele>105</ele>
        <time>2010-03-19T10:34:13Z</time>
      </trkpt>
      <trkpt lat="48.60268" lon="2.06667">
        <ele>105</ele>
        <time>2010-03-19T10:34:14Z</time>
      </trkpt>
      <trkpt lat="48.60267" lon="2.06666">
        <ele>105</ele>
        <time>2010-03-19T10:34:15Z</time>
      </trkpt>
      <trkpt lat="48.60265" lon="2.06665">
        <ele>105</ele>
        <time>2010-03-19T10:34:16Z</time>
      </trkpt>
      <trkpt lat="48.60263" lon="2.06663">
        <ele>105</ele>
        <time>2010-03-19T10:34:17Z</time>
      </trkpt>
      <trkpt lat="48.60262" lon="2.06662">
        <ele>105</ele>
        <time>2010-03-19T10:34:18Z</time>
      </trkpt>
      <trkpt lat="48.6026" lon="2.06661">
        <ele>105</ele>
        <time>2010-03-19T10:34:19Z</time>
      </trkpt>
      <trkpt lat="48.60259" lon="2.0666">
        <ele>105</ele>
        <time>2010-03-19T10:34:20Z</time>
      </trkpt>
      <trkpt lat="48.60257" lon="2.06658">
        <ele>105</ele>
        <time>2010-03-19T10:34:21Z</time>
      </trkpt>
      <trkpt lat="48.60255" lon="2.06657">
        <ele>105</ele>
        <time>2010-03-19T10:34:22Z</time>
      </trkpt>
      <trkpt lat="48.60254" lon="2.06656">
        <ele>105</ele>
        <time>2010-03-19T10:34:23Z</time>
      </trkpt>
      <trkpt lat="48.60252" lon="2.06655">
        <ele>105</ele>
        <time>2010-03-19T10:34:24Z</time>
      </trkpt>
      <trkpt lat="48.6025" lon="2.06653">
        <ele>105</ele>
        <time>2010-03-19T10:34:25Z</time>
      </trkpt>
      <trkpt lat="48.60249" lon="2.06652">
        <ele>105</ele>
        <time>2010-03-19T10:34:26Z</time>
      </trkpt>
      <trkpt lat="48.60247" lon="2.06651">
        <ele>105</ele>
        <time>2010-03-19T10:34:27Z</time>
      </trkpt>
      <trkpt lat="48.60245" lon="2.06649">
        <ele>105</ele>
        <time>2010-03-19T10:34:29Z</time>
      </trkpt>
      <trkpt lat="48.60244" lon="2.06647">
        <ele>105</ele>
        <time>2010-03-19T10:34:30Z</time>
      </trkpt>
      <trkpt lat="48.60242" lon="2.06646">
        <ele>105</ele>
        <time>2010-03-19T10:34:31Z</time>
      </trkpt>
      <trkpt lat="48.60241" lon="2.06645">
        <ele>105</ele>
        <time>2010-03-19T10:34:32Z</time>
      </trkpt>
      <trkpt lat="48.60239" lon="2.06644">
        <ele>105</ele>
        <time>2010-03-19T10:34:34Z</time>
      </trkpt>
      <trkpt lat="48.60238" lon="2.06643">
        <ele>105</ele>
        <time>2010-03-19T10:34:35Z</time>
      </trkpt>
      <trkpt lat="48.60236" lon="2.06642">
        <ele>105</ele>
        <time>2010-03-19T10:34:36Z</time>
      </trkpt>
      <trkpt lat="48.60234" lon="2.06641">
        <ele>105</ele>
        <time>2010-03-19T10:34:37Z</time>
      </trkpt>
      <trkpt lat="48.60233" lon="2.06639">
        <ele>105</ele>
        <time>2010-03-19T10:34:38Z</time>
      </trkpt>
      <trkpt lat="48.60232" lon="2.06638">
        <ele>105</ele>
        <time>2010-03-19T10:34:39Z</time>
      </trkpt>
      <trkpt lat="48.60231" lon="2.06637">
        <ele>105</ele>
        <time>2010-03-19T10:34:40Z</time>
      </trkpt>
      <trkpt lat="48.60229" lon="2.06636">
        <ele>105</ele>
        <time>2010-03-19T10:34:41Z</time>
      </trkpt>
      <trkpt lat="48.60228" lon="2.06635">
        <ele>105</ele>
        <time>2010-03-19T10:34:42Z</time>
      </trkpt>
      <trkpt lat="48.60226" lon="2.06634">
        <ele>105</ele>
        <time>2010-03-19T10:34:43Z</time>
      </trkpt>
      <trkpt lat="48.60225" lon="2.06633">
        <ele>105</ele>
        <time>2010-03-19T10:34:44Z</time>
      </trkpt>
      <trkpt lat="48.60223" lon="2.06632">
        <ele>105</ele>
        <time>2010-03-19T10:34:45Z</time>
      </trkpt>
      <trkpt lat="48.60221" lon="2.06631">
        <ele>105</ele>
        <time>2010-03-19T10:34:46Z</time>
      </trkpt>
      <trkpt lat="48.6022" lon="2.0663">
        <ele>105</ele>
        <time>2010-03-19T10:34:47Z</time>
      </trkpt>
      <trkpt lat="48.60219" lon="2.0663">
        <ele>105</ele>
        <time>2010-03-19T10:34:48Z</time>
      </trkpt>
      <trkpt lat="48.60218" lon="2.06629">
        <ele>105</ele>
        <time>2010-03-19T10:34:49Z</time>
      </trkpt>
      <trkpt lat="48.60217" lon="2.06629">
        <ele>105</ele>
        <time>2010-03-19T10:34:50Z</time>
      </trkpt>
      <trkpt lat="48.60214" lon="2.06628">
        <ele>105</ele>
        <time>2010-03-19T10:34:51Z</time>
      </trkpt>
      <trkpt lat="48.60212" lon="2.06626">
        <ele>105</ele>
        <time>2010-03-19T10:34:52Z</time>
      </trkpt>
      <trkpt lat="48.6021" lon="2.06625">
        <ele>105</ele>
        <time>2010-03-19T10:34:53Z</time>
      </trkpt>
      <trkpt lat="48.60209" lon="2.06624">
        <ele>105</ele>
        <time>2010-03-19T10:34:54Z</time>
      </trkpt>
      <trkpt lat="48.60207" lon="2.06623">
        <ele>105</ele>
        <time>2010-03-19T10:34:55Z</time>
      </trkpt>
      <trkpt lat="48.60205" lon="2.06622">
        <ele>105</ele>
        <time>2010-03-19T10:34:56Z</time>
      </trkpt>
      <trkpt lat="48.60203" lon="2.06621">
        <ele>105</ele>
        <time>2010-03-19T10:34:57Z</time>
      </trkpt>
      <trkpt lat="48.60202" lon="2.0662">
        <ele>105</ele>
        <time>2010-03-19T10:34:58Z</time>
      </trkpt>
      <trkpt lat="48.60201" lon="2.06619">
        <ele>105</ele>
        <time>2010-03-19T10:34:59Z</time>
      </trkpt>
      <trkpt lat="48.60199" lon="2.06617">
        <ele>105</ele>
        <time>2010-03-19T10:35:00Z</time>
      </trkpt>
      <trkpt lat="48.60197" lon="2.06616">
        <ele>105</ele>
        <time>2010-03-19T10:35:01Z</time>
      </trkpt>
      <trkpt lat="48.60196" lon="2.06614">
        <ele>105</ele>
        <time>2010-03-19T10:35:02Z</time>
      </trkpt>
      <trkpt lat="48.60195" lon="2.06613">
        <ele>105</ele>
        <time>2010-03-19T10:35:03Z</time>
      </trkpt>
      <trkpt lat="48.60194" lon="2.06611">
        <ele>105</ele>
        <time>2010-03-19T10:35:04Z</time>
      </trkpt>
      <trkpt lat="48.60193" lon="2.06609">
        <ele>105</ele>
        <time>2010-03-19T10:35:05Z</time>
      </trkpt>
      <trkpt lat="48.60192" lon="2.06608">
        <ele>105</ele>
        <time>2010-03-19T10:35:06Z</time>
      </trkpt>
      <trkpt lat="48.60191" lon="2.06606">
        <ele>105</ele>
        <time>2010-03-19T10:35:07Z</time>
      </trkpt>
      <trkpt lat="48.60191" lon="2.06604">
        <ele>105</ele>
        <time>2010-03-19T10:35:08Z</time>
      </trkpt>
      <trkpt lat="48.60189" lon="2.06602">
        <ele>105</ele>
        <time>2010-03-19T10:35:09Z</time>
      </trkpt>
      <trkpt lat="48.60188" lon="2.066">
        <ele>105</ele>
        <time>2010-03-19T10:35:10Z</time>
      </trkpt>
      <trkpt lat="48.60188" lon="2.06598">
        <ele>105</ele>
        <time>2010-03-19T10:35:11Z</time>
      </trkpt>
      <trkpt lat="48.60187" lon="2.06596">
        <ele>105</ele>
        <time>2010-03-19T10:35:12Z</time>
      </trkpt>
      <trkpt lat="48.60187" lon="2.06594">
        <ele>105</ele>
        <time>2010-03-19T10:35:13Z</time>
      </trkpt>
      <trkpt lat="48.60186" lon="2.06592">
        <ele>105</ele>
        <time>2010-03-19T10:35:14Z</time>
      </trkpt>
      <trkpt lat="48.60186" lon="2.06589">
        <ele>105</ele>
        <time>2010-03-19T10:35:15Z</time>
      </trkpt>
      <trkpt lat="48.60185" lon="2.06587">
        <ele>105</ele>
        <time>2010-03-19T10:35:16Z</time>
      </trkpt>
      <trkpt lat="48.60184" lon="2.06585">
        <ele>105</ele>
        <time>2010-03-19T10:35:17Z</time>
      </trkpt>
      <trkpt lat="48.60183" lon="2.06583">
        <ele>105</ele>
        <time>2010-03-19T10:35:18Z</time>
      </trkpt>
      <trkpt lat="48.60183" lon="2.06581">
        <ele>105</ele>
        <time>2010-03-19T10:35:19Z</time>
      </trkpt>
      <trkpt lat="48.60182" lon="2.06579">
        <ele>105</ele>
        <time>2010-03-19T10:35:20Z</time>
      </trkpt>
      <trkpt lat="48.60181" lon="2.06577">
        <ele>105</ele>
        <time>2010-03-19T10:35:21Z</time>
      </trkpt>
      <trkpt lat="48.60181" lon="2.06575">
        <ele>105</ele>
        <time>2010-03-19T10:35:22Z</time>
      </trkpt>
      <trkpt lat="48.60181" lon="2.06573">
        <ele>105</ele>
        <time>2010-03-19T10:35:23Z</time>
      </trkpt>
      <trkpt lat="48.60181" lon="2.06571">
        <ele>105</ele>
        <time>2010-03-19T10:35:24Z</time>
      </trkpt>
      <trkpt lat="48.6018" lon="2.06569">
        <ele>105</ele>
        <time>2010-03-19T10:35:25Z</time>
      </trkpt>
      <trkpt lat="48.6018" lon="2.06567">
        <ele>105</ele>
        <time>2010-03-19T10:35:26Z</time>
      </trkpt>
      <trkpt lat="48.60179" lon="2.06565">
        <ele>105</ele>
        <time>2010-03-19T10:35:27Z</time>
      </trkpt>
      <trkpt lat="48.60178" lon="2.06563">
        <ele>105</ele>
        <time>2010-03-19T10:35:28Z</time>
      </trkpt>
      <trkpt lat="48.60178" lon="2.0656">
        <ele>105</ele>
        <time>2010-03-19T10:35:29Z</time>
      </trkpt>
      <trkpt lat="48.60177" lon="2.06558">
        <ele>105</ele>
        <time>2010-03-19T10:35:30Z</time>
      </trkpt>
      <trkpt lat="48.60177" lon="2.06556">
        <ele>105</ele>
        <time>2010-03-19T10:35:31Z</time>
      </trkpt>
      <trkpt lat="48.60176" lon="2.06554">
        <ele>105</ele>
        <time>2010-03-19T10:35:32Z</time>
      </trkpt>
      <trkpt lat="48.60176" lon="2.06552">
        <ele>105</ele>
        <time>2010-03-19T10:35:33Z</time>
      </trkpt>
      <trkpt lat="48.60175" lon="2.06549">
        <ele>105</ele>
        <time>2010-03-19T10:35:34Z</time>
      </trkpt>
      <trkpt lat="48.60175" lon="2.06547">
        <ele>105</ele>
        <time>2010-03-19T10:35:35Z</time>
      </trkpt>
      <trkpt lat="48.60173" lon="2.06545">
        <ele>105</ele>
        <time>2010-03-19T10:35:36Z</time>
      </trkpt>
      <trkpt lat="48.60173" lon="2.06542">
        <ele>105</ele>
        <time>2010-03-19T10:35:37Z</time>
      </trkpt>
      <trkpt lat="48.60173" lon="2.0654">
        <ele>105</ele>
        <time>2010-03-19T10:35:38Z</time>
      </trkpt>
      <trkpt lat="48.60172" lon="2.06539">
        <ele>105</ele>
        <time>2010-03-19T10:35:39Z</time>
      </trkpt>
      <trkpt lat="48.60172" lon="2.06537">
        <ele>105</ele>
        <time>2010-03-19T10:35:40Z</time>
      </trkpt>
      <trkpt lat="48.60171" lon="2.06535">
        <ele>105</ele>
        <time>2010-03-19T10:35:41Z</time>
      </trkpt>
      <trkpt lat="48.6017" lon="2.06533">
        <ele>105</ele>
        <time>2010-03-19T10:35:42Z</time>
      </trkpt>
      <trkpt lat="48.6017" lon="2.0653">
        <ele>105</ele>
        <time>2010-03-19T10:35:43Z</time>
      </trkpt>
      <trkpt lat="48.60169" lon="2.06528">
        <ele>105</ele>
        <time>2010-03-19T10:35:44Z</time>
      </trkpt>
      <trkpt lat="48.60169" lon="2.06526">
        <ele>105</ele>
        <time>2010-03-19T10:35:45Z</time>
      </trkpt>
      <trkpt lat="48.60168" lon="2.06524">
        <ele>105</ele>
        <time>2010-03-19T10:35:46Z</time>
      </trkpt>
      <trkpt lat="48.60168" lon="2.06522">
        <ele>105</ele>
        <time>2010-03-19T10:35:47Z</time>
      </trkpt>
      <trkpt lat="48.60167" lon="2.0652">
        <ele>105</ele>
        <time>2010-03-19T10:35:48Z</time>
      </trkpt>
      <trkpt lat="48.60167" lon="2.06517">
        <ele>105</ele>
        <time>2010-03-19T10:35:49Z</time>
      </trkpt>
      <trkpt lat="48.60167" lon="2.06515">
        <ele>105</ele>
        <time>2010-03-19T10:35:50Z</time>
      </trkpt>
      <trkpt lat="48.60166" lon="2.06513">
        <ele>105</ele>
        <time>2010-03-19T10:35:51Z</time>
      </trkpt>
      <trkpt lat="48.60165" lon="2.0651">
        <ele>105</ele>
        <time>2010-03-19T10:35:52Z</time>
      </trkpt>
      <trkpt lat="48.60164" lon="2.06507">
        <ele>105</ele>
        <time>2010-03-19T10:35:53Z</time>
      </trkpt>
      <trkpt lat="48.60163" lon="2.06505">
        <ele>105</ele>
        <time>2010-03-19T10:35:54Z</time>
      </trkpt>
      <trkpt lat="48.60163" lon="2.06503">
        <ele>105</ele>
        <time>2010-03-19T10:35:55Z</time>
      </trkpt>
      <trkpt lat="48.60162" lon="2.065">
        <ele>105</ele>
        <time>2010-03-19T10:35:56Z</time>
      </trkpt>
      <trkpt lat="48.60161" lon="2.06497">
        <ele>105</ele>
        <time>2010-03-19T10:35:57Z</time>
      </trkpt>
      <trkpt lat="48.6016" lon="2.06494">
        <ele>105</ele>
        <time>2010-03-19T10:35:58Z</time>
      </trkpt>
      <trkpt lat="48.60159" lon="2.06492">
        <ele>105</ele>
        <time>2010-03-19T10:35:59Z</time>
      </trkpt>
      <trkpt lat="48.60159" lon="2.06489">
        <ele>105</ele>
        <time>2010-03-19T10:36:00Z</time>
      </trkpt>
      <trkpt lat="48.60158" lon="2.06487">
        <ele>105</ele>
        <time>2010-03-19T10:36:01Z</time>
      </trkpt>
      <trkpt lat="48.60157" lon="2.06485">
        <ele>105</ele>
        <time>2010-03-19T10:36:02Z</time>
      </trkpt>
      <trkpt lat="48.60157" lon="2.06483">
        <ele>105</ele>
        <time>2010-03-19T10:36:03Z</time>
      </trkpt>
      <trkpt lat="48.60156" lon="2.06481">
        <ele>105</ele>
        <time>2010-03-19T10:36:05Z</time>
      </trkpt>
      <trkpt lat="48.60155" lon="2.06478">
        <ele>105</ele>
        <time>2010-03-19T10:36:06Z</time>
      </trkpt>
      <trkpt lat="48.60155" lon="2.06475">
        <ele>105</ele>
        <time>2010-03-19T10:36:07Z</time>
      </trkpt>
      <trkpt lat="48.60154" lon="2.06472">
        <ele>105</ele>
        <time>2010-03-19T10:36:08Z</time>
      </trkpt>
      <trkpt lat="48.60153" lon="2.0647">
        <ele>105</ele>
        <time>2010-03-19T10:36:09Z</time>
      </trkpt>
      <trkpt lat="48.60152" lon="2.06467">
        <ele>105</ele>
        <time>2010-03-19T10:36:10Z</time>
      </trkpt>
      <trkpt lat="48.60152" lon="2.06465">
        <ele>105</ele>
        <time>2010-03-19T10:36:11Z</time>
      </trkpt>
      <trkpt lat="48.60151" lon="2.06462">
        <ele>105</ele>
        <time>2010-03-19T10:36:12Z</time>
      </trkpt>
      <trkpt lat="48.6015" lon="2.0646">
        <ele>105</ele>
        <time>2010-03-19T10:36:13Z</time>
      </trkpt>
      <trkpt lat="48.60149" lon="2.06458">
        <ele>105</ele>
        <time>2010-03-19T10:36:14Z</time>
      </trkpt>
      <trkpt lat="48.60149" lon="2.06455">
        <ele>105</ele>
        <time>2010-03-19T10:36:15Z</time>
      </trkpt>
      <trkpt lat="48.60148" lon="2.06452">
        <ele>105</ele>
        <time>2010-03-19T10:36:16Z</time>
      </trkpt>
      <trkpt lat="48.60147" lon="2.0645">
        <ele>105</ele>
        <time>2010-03-19T10:36:17Z</time>
      </trkpt>
      <trkpt lat="48.60147" lon="2.06448">
        <ele>105</ele>
        <time>2010-03-19T10:36:18Z</time>
      </trkpt>
      <trkpt lat="48.60146" lon="2.06446">
        <ele>105</ele>
        <time>2010-03-19T10:36:19Z</time>
      </trkpt>
      <trkpt lat="48.60146" lon="2.06444">
        <ele>105</ele>
        <time>2010-03-19T10:36:20Z</time>
      </trkpt>
      <trkpt lat="48.60146" lon="2.06441">
        <ele>105</ele>
        <time>2010-03-19T10:36:21Z</time>
      </trkpt>
      <trkpt lat="48.60145" lon="2.06439">
        <ele>105</ele>
        <time>2010-03-19T10:36:22Z</time>
      </trkpt>
      <trkpt lat="48.60145" lon="2.06436">
        <ele>105</ele>
        <time>2010-03-19T10:36:23Z</time>
      </trkpt>
      <trkpt lat="48.60144" lon="2.06434">
        <ele>105</ele>
        <time>2010-03-19T10:36:24Z</time>
      </trkpt>
      <trkpt lat="48.60144" lon="2.06432">
        <ele>105</ele>
        <time>2010-03-19T10:36:25Z</time>
      </trkpt>
      <trkpt lat="48.60144" lon="2.0643">
        <ele>105</ele>
        <time>2010-03-19T10:36:26Z</time>
      </trkpt>
      <trkpt lat="48.60143" lon="2.06428">
        <ele>105</ele>
        <time>2010-03-19T10:36:27Z</time>
      </trkpt>
      <trkpt lat="48.60142" lon="2.06425">
        <ele>105</ele>
        <time>2010-03-19T10:36:28Z</time>
      </trkpt>
      <trkpt lat="48.60141" lon="2.0642">
        <ele>105</ele>
        <time>2010-03-19T10:36:29Z</time>
      </trkpt>
      <trkpt lat="48.60139" lon="2.06416">
        <ele>105</ele>
        <time>2010-03-19T10:36:30Z</time>
      </trkpt>
      <trkpt lat="48.60138" lon="2.0641">
        <ele>105</ele>
        <time>2010-03-19T10:36:31Z</time>
      </trkpt>
      <trkpt lat="48.60137" lon="2.06405">
        <ele>105</ele>
        <time>2010-03-19T10:36:32Z</time>
      </trkpt>
      <trkpt lat="48.60135" lon="2.064">
        <ele>105</ele>
        <time>2010-03-19T10:36:33Z</time>
      </trkpt>
      <trkpt lat="48.60134" lon="2.06395">
        <ele>105</ele>
        <time>2010-03-19T10:36:34Z</time>
      </trkpt>
      <trkpt lat="48.60133" lon="2.0639">
        <ele>105</ele>
        <time>2010-03-19T10:36:35Z</time>
      </trkpt>
      <trkpt lat="48.60131" lon="2.06386">
        <ele>105</ele>
        <time>2010-03-19T10:36:36Z</time>
      </trkpt>
      <trkpt lat="48.6013" lon="2.06382">
        <ele>105</ele>
        <time>2010-03-19T10:36:37Z</time>
      </trkpt>
      <trkpt lat="48.60129" lon="2.06377">
        <ele>105</ele>
        <time>2010-03-19T10:36:38Z</time>
      </trkpt>
      <trkpt lat="48.60127" lon="2.06373">
        <ele>105</ele>
        <time>2010-03-19T10:36:39Z</time>
      </trkpt>
      <trkpt lat="48.60126" lon="2.06368">
        <ele>105</ele>
        <time>2010-03-19T10:36:40Z</time>
      </trkpt>
      <trkpt lat="48.60124" lon="2.06361">
        <ele>105</ele>
        <time>2010-03-19T10:36:41Z</time>
      </trkpt>
      <trkpt lat="48.60122" lon="2.06354">
        <ele>105</ele>
        <time>2010-03-19T10:36:42Z</time>
      </trkpt>
      <trkpt lat="48.6012" lon="2.06347">
        <ele>105</ele>
        <time>2010-03-19T10:36:43Z</time>
      </trkpt>
      <trkpt lat="48.60119" lon="2.0634">
        <ele>105</ele>
        <time>2010-03-19T10:36:44Z</time>
      </trkpt>
      <trkpt lat="48.60117" lon="2.06334">
        <ele>105</ele>
        <time>2010-03-19T10:36:45Z</time>
      </trkpt>
      <trkpt lat="48.60115" lon="2.06329">
        <ele>105</ele>
        <time>2010-03-19T10:36:46Z</time>
      </trkpt>
      <trkpt lat="48.60114" lon="2.06324">
        <ele>105</ele>
        <time>2010-03-19T10:36:47Z</time>
      </trkpt>
      <trkpt lat="48.60112" lon="2.06319">
        <ele>105</ele>
        <time>2010-03-19T10:36:48Z</time>
      </trkpt>
      <trkpt lat="48.60111" lon="2.06314">
        <ele>105</ele>
        <time>2010-03-19T10:36:49Z</time>
      </trkpt>
      <trkpt lat="48.6011" lon="2.0631">
        <ele>105</ele>
        <time>2010-03-19T10:36:50Z</time>
      </trkpt>
      <trkpt lat="48.60108" lon="2.06306">
        <ele>105</ele>
        <time>2010-03-19T10:36:51Z</time>
      </trkpt>
      <trkpt lat="48.60106" lon="2.06301">
        <ele>105</ele>
        <time>2010-03-19T10:36:52Z</time>
      </trkpt>
      <trkpt lat="48.60104" lon="2.06295">
        <ele>105</ele>
        <time>2010-03-19T10:36:53Z</time>
      </trkpt>
      <trkpt lat="48.60102" lon="2.06289">
        <ele>105</ele>
        <time>2010-03-19T10:36:54Z</time>
      </trkpt>
      <trkpt lat="48.60101" lon="2.06283">
        <ele>105</ele>
        <time>2010-03-19T10:36:55Z</time>
      </trkpt>
      <trkpt lat="48.60099" lon="2.06277">
        <ele>105</ele>
        <time>2010-03-19T10:36:56Z</time>
      </trkpt>
      <trkpt lat="48.60098" lon="2.06269">
        <ele>105</ele>
        <time>2010-03-19T10:36:57Z</time>
      </trkpt>
      <trkpt lat="48.60096" lon="2.06262">
        <ele>105</ele>
        <time>2010-03-19T10:36:58Z</time>
      </trkpt>
      <trkpt lat="48.60094" lon="2.06255">
        <ele>105</ele>
        <time>2010-03-19T10:36:59Z</time>
      </trkpt>
      <trkpt lat="48.60092" lon="2.06249">
        <ele>105</ele>
        <time>2010-03-19T10:37:00Z</time>
      </trkpt>
      <trkpt lat="48.6009" lon="2.06243">
        <ele>105</ele>
        <time>2010-03-19T10:37:01Z</time>
      </trkpt>
      <trkpt lat="48.60088" lon="2.06238">
        <ele>105</ele>
        <time>2010-03-19T10:37:02Z</time>
      </trkpt>
      <trkpt lat="48.60086" lon="2.06232">
        <ele>105</ele>
        <time>2010-03-19T10:37:03Z</time>
      </trkpt>
      <trkpt lat="48.60085" lon="2.06225">
        <ele>105</ele>
        <time>2010-03-19T10:37:04Z</time>
      </trkpt>
      <trkpt lat="48.60083" lon="2.06219">
        <ele>105</ele>
        <time>2010-03-19T10:37:05Z</time>
      </trkpt>
      <trkpt lat="48.60081" lon="2.06212">
        <ele>105</ele>
        <time>2010-03-19T10:37:06Z</time>
      </trkpt>
      <trkpt lat="48.6008" lon="2.06207">
        <ele>105</ele>
        <time>2010-03-19T10:37:07Z</time>
      </trkpt>
      <trkpt lat="48.60079" lon="2.06201">
        <ele>105</ele>
        <time>2010-03-19T10:37:08Z</time>
      </trkpt>
      <trkpt lat="48.60078" lon="2.06196">
        <ele>105</ele>
        <time>2010-03-19T10:37:09Z</time>
      </trkpt>
      <trkpt lat="48.60077" lon="2.06191">
        <ele>105</ele>
        <time>2010-03-19T10:37:10Z</time>
      </trkpt>
      <trkpt lat="48.60076" lon="2.06185">
        <ele>105</ele>
        <time>2010-03-19T10:37:11Z</time>
      </trkpt>
      <trkpt lat="48.60074" lon="2.06179">
        <ele>105</ele>
        <time>2010-03-19T10:37:12Z</time>
      </trkpt>
      <trkpt lat="48.60072" lon="2.06174">
        <ele>105</ele>
        <time>2010-03-19T10:37:13Z</time>
      </trkpt>
      <trkpt lat="48.6007" lon="2.06169">
        <ele>105</ele>
        <time>2010-03-19T10:37:14Z</time>
      </trkpt>
      <trkpt lat="48.60068" lon="2.06164">
        <ele>106</ele>
        <time>2010-03-19T10:37:15Z</time>
      </trkpt>
      <trkpt lat="48.60065" lon="2.06158">
        <ele>106</ele>
        <time>2010-03-19T10:37:16Z</time>
      </trkpt>
      <trkpt lat="48.60063" lon="2.06152">
        <ele>106</ele>
        <time>2010-03-19T10:37:17Z</time>
      </trkpt>
      <trkpt lat="48.60062" lon="2.06146">
        <ele>107</ele>
        <time>2010-03-19T10:37:18Z</time>
      </trkpt>
      <trkpt lat="48.6006" lon="2.06139">
        <ele>107</ele>
        <time>2010-03-19T10:37:19Z</time>
      </trkpt>
      <trkpt lat="48.60057" lon="2.06133">
        <ele>108</ele>
        <time>2010-03-19T10:37:20Z</time>
      </trkpt>
      <trkpt lat="48.60056" lon="2.06126">
        <ele>108</ele>
        <time>2010-03-19T10:37:21Z</time>
      </trkpt>
      <trkpt lat="48.60054" lon="2.0612">
        <ele>109</ele>
        <time>2010-03-19T10:37:22Z</time>
      </trkpt>
      <trkpt lat="48.60052" lon="2.06115">
        <ele>109</ele>
        <time>2010-03-19T10:37:23Z</time>
      </trkpt>
      <trkpt lat="48.60051" lon="2.06109">
        <ele>110</ele>
        <time>2010-03-19T10:37:24Z</time>
      </trkpt>
      <trkpt lat="48.60049" lon="2.06104">
        <ele>110</ele>
        <time>2010-03-19T10:37:25Z</time>
      </trkpt>
      <trkpt lat="48.60047" lon="2.06099">
        <ele>111</ele>
        <time>2010-03-19T10:37:26Z</time>
      </trkpt>
      <trkpt lat="48.60046" lon="2.06094">
        <ele>111</ele>
        <time>2010-03-19T10:37:27Z</time>
      </trkpt>
      <trkpt lat="48.60044" lon="2.06088">
        <ele>111</ele>
        <time>2010-03-19T10:37:28Z</time>
      </trkpt>
      <trkpt lat="48.60043" lon="2.06083">
        <ele>112</ele>
        <time>2010-03-19T10:37:29Z</time>
      </trkpt>
      <trkpt lat="48.6004" lon="2.06078">
        <ele>112</ele>
        <time>2010-03-19T10:37:30Z</time>
      </trkpt>
      <trkpt lat="48.60039" lon="2.06073">
        <ele>113</ele>
        <time>2010-03-19T10:37:31Z</time>
      </trkpt>
      <trkpt lat="48.60038" lon="2.06068">
        <ele>113</ele>
        <time>2010-03-19T10:37:32Z</time>
      </trkpt>
      <trkpt lat="48.60036" lon="2.06064">
        <ele>113</ele>
        <time>2010-03-19T10:37:33Z</time>
      </trkpt>
      <trkpt lat="48.60035" lon="2.0606">
        <ele>113</ele>
        <time>2010-03-19T10:37:34Z</time>
      </trkpt>
      <trkpt lat="48.60032" lon="2.06056">
        <ele>113</ele>
        <time>2010-03-19T10:37:35Z</time>
      </trkpt>
      <trkpt lat="48.6003" lon="2.0605">
        <ele>113</ele>
        <time>2010-03-19T10:37:36Z</time>
      </trkpt>
      <trkpt lat="48.60029" lon="2.06045">
        <ele>113</ele>
        <time>2010-03-19T10:37:37Z</time>
      </trkpt>
      <trkpt lat="48.60027" lon="2.06039">
        <ele>114</ele>
        <time>2010-03-19T10:37:38Z</time>
      </trkpt>
      <trkpt lat="48.60025" lon="2.06034">
        <ele>114</ele>
        <time>2010-03-19T10:37:39Z</time>
      </trkpt>
      <trkpt lat="48.60023" lon="2.0603">
        <ele>114</ele>
        <time>2010-03-19T10:37:40Z</time>
      </trkpt>
      <trkpt lat="48.60022" lon="2.06025">
        <ele>115</ele>
        <time>2010-03-19T10:37:41Z</time>
      </trkpt>
      <trkpt lat="48.60021" lon="2.06019">
        <ele>115</ele>
        <time>2010-03-19T10:37:42Z</time>
      </trkpt>
      <trkpt lat="48.60019" lon="2.06014">
        <ele>115</ele>
        <time>2010-03-19T10:37:43Z</time>
      </trkpt>
      <trkpt lat="48.60018" lon="2.06009">
        <ele>115</ele>
        <time>2010-03-19T10:37:44Z</time>
      </trkpt>
      <trkpt lat="48.60015" lon="2.06003">
        <ele>116</ele>
        <time>2010-03-19T10:37:45Z</time>
      </trkpt>
      <trkpt lat="48.60014" lon="2.05998">
        <ele>116</ele>
        <time>2010-03-19T10:37:46Z</time>
      </trkpt>
      <trkpt lat="48.60012" lon="2.05993">
        <ele>116</ele>
        <time>2010-03-19T10:37:47Z</time>
      </trkpt>
      <trkpt lat="48.6001" lon="2.05988">
        <ele>116</ele>
        <time>2010-03-19T10:37:48Z</time>
      </trkpt>
      <trkpt lat="48.60008" lon="2.05983">
        <ele>116</ele>
        <time>2010-03-19T10:37:49Z</time>
      </trkpt>
      <trkpt lat="48.60006" lon="2.05977">
        <ele>116</ele>
        <time>2010-03-19T10:37:50Z</time>
      </trkpt>
      <trkpt lat="48.60004" lon="2.05972">
        <ele>116</ele>
        <time>2010-03-19T10:37:51Z</time>
      </trkpt>
      <trkpt lat="48.60003" lon="2.05967">
        <ele>116</ele>
        <time>2010-03-19T10:37:52Z</time>
      </trkpt>
      <trkpt lat="48.60002" lon="2.05962">
        <ele>116</ele>
        <time>2010-03-19T10:37:53Z</time>
      </trkpt>
      <trkpt lat="48.6" lon="2.05958">
        <ele>117</ele>
        <time>2010-03-19T10:37:54Z</time>
      </trkpt>
      <trkpt lat="48.59999" lon="2.05953">
        <ele>117</ele>
        <time>2010-03-19T10:37:55Z</time>
      </trkpt>
      <trkpt lat="48.59997" lon="2.05947">
        <ele>117</ele>
        <time>2010-03-19T10:37:56Z</time>
      </trkpt>
      <trkpt lat="48.59995" lon="2.05942">
        <ele>117</ele>
        <time>2010-03-19T10:37:57Z</time>
      </trkpt>
      <trkpt lat="48.59993" lon="2.05936">
        <ele>117</ele>
        <time>2010-03-19T10:37:58Z</time>
      </trkpt>
      <trkpt lat="48.59991" lon="2.0593">
        <ele>117</ele>
        <time>2010-03-19T10:37:59Z</time>
      </trkpt>
      <trkpt lat="48.59989" lon="2.05925">
        <ele>117</ele>
        <time>2010-03-19T10:38:00Z</time>
      </trkpt>
      <trkpt lat="48.59987" lon="2.05919">
        <ele>117</ele>
        <time>2010-03-19T10:38:01Z</time>
      </trkpt>
      <trkpt lat="48.59985" lon="2.05913">
        <ele>117</ele>
        <time>2010-03-19T10:38:02Z</time>
      </trkpt>
      <trkpt lat="48.59983" lon="2.05908">
        <ele>117</ele>
        <time>2010-03-19T10:38:03Z</time>
      </trkpt>
      <trkpt lat="48.59982" lon="2.05902">
        <ele>117</ele>
        <time>2010-03-19T10:38:04Z</time>
      </trkpt>
      <trkpt lat="48.5998" lon="2.05897">
        <ele>117</ele>
        <time>2010-03-19T10:38:05Z</time>
      </trkpt>
      <trkpt lat="48.59979" lon="2.05892">
        <ele>117</ele>
        <time>2010-03-19T10:38:06Z</time>
      </trkpt>
      <trkpt lat="48.59977" lon="2.05887">
        <ele>118</ele>
        <time>2010-03-19T10:38:07Z</time>
      </trkpt>
      <trkpt lat="48.59975" lon="2.05882">
        <ele>118</ele>
        <time>2010-03-19T10:38:08Z</time>
      </trkpt>
      <trkpt lat="48.59974" lon="2.05877">
        <ele>118</ele>
        <time>2010-03-19T10:38:09Z</time>
      </trkpt>
      <trkpt lat="48.59973" lon="2.0587">
        <ele>118</ele>
        <time>2010-03-19T10:38:10Z</time>
      </trkpt>
      <trkpt lat="48.59972" lon="2.05863">
        <ele>118</ele>
        <time>2010-03-19T10:38:11Z</time>
      </trkpt>
      <trkpt lat="48.5997" lon="2.05856">
        <ele>119</ele>
        <time>2010-03-19T10:38:12Z</time>
      </trkpt>
      <trkpt lat="48.59968" lon="2.0585">
        <ele>119</ele>
        <time>2010-03-19T10:38:13Z</time>
      </trkpt>
      <trkpt lat="48.59966" lon="2.05843">
        <ele>119</ele>
        <time>2010-03-19T10:38:14Z</time>
      </trkpt>
      <trkpt lat="48.59964" lon="2.05836">
        <ele>119</ele>
        <time>2010-03-19T10:38:15Z</time>
      </trkpt>
      <trkpt lat="48.59964" lon="2.05828">
        <ele>119</ele>
        <time>2010-03-19T10:38:16Z</time>
      </trkpt>
      <trkpt lat="48.59965" lon="2.05819">
        <ele>119</ele>
        <time>2010-03-19T10:38:17Z</time>
      </trkpt>
      <trkpt lat="48.59968" lon="2.0581">
        <ele>119</ele>
        <time>2010-03-19T10:38:18Z</time>
      </trkpt>
      <trkpt lat="48.59972" lon="2.05804">
        <ele>119</ele>
        <time>2010-03-19T10:38:19Z</time>
      </trkpt>
      <trkpt lat="48.59976" lon="2.05798">
        <ele>119</ele>
        <time>2010-03-19T10:38:20Z</time>
      </trkpt>
      <trkpt lat="48.59981" lon="2.05793">
        <ele>119</ele>
        <time>2010-03-19T10:38:21Z</time>
      </trkpt>
      <trkpt lat="48.59986" lon="2.05788">
        <ele>119</ele>
        <time>2010-03-19T10:38:22Z</time>
      </trkpt>
      <trkpt lat="48.5999" lon="2.05783">
        <ele>119</ele>
        <time>2010-03-19T10:38:23Z</time>
      </trkpt>
      <trkpt lat="48.59995" lon="2.05779">
        <ele>119</ele>
        <time>2010-03-19T10:38:24Z</time>
      </trkpt>
      <trkpt lat="48.6" lon="2.05774">
        <ele>119</ele>
        <time>2010-03-19T10:38:25Z</time>
      </trkpt>
      <trkpt lat="48.60005" lon="2.05769">
        <ele>119</ele>
        <time>2010-03-19T10:38:26Z</time>
      </trkpt>
      <trkpt lat="48.6001" lon="2.05764">
        <ele>119</ele>
        <time>2010-03-19T10:38:27Z</time>
      </trkpt>
      <trkpt lat="48.60014" lon="2.0576">
        <ele>119</ele>
        <time>2010-03-19T10:38:28Z</time>
      </trkpt>
      <trkpt lat="48.60019" lon="2.05755">
        <ele>119</ele>
        <time>2010-03-19T10:38:29Z</time>
      </trkpt>
      <trkpt lat="48.60024" lon="2.0575">
        <ele>119</ele>
        <time>2010-03-19T10:38:30Z</time>
      </trkpt>
      <trkpt lat="48.60029" lon="2.05746">
        <ele>119</ele>
        <time>2010-03-19T10:38:31Z</time>
      </trkpt>
      <trkpt lat="48.60033" lon="2.05741">
        <ele>119</ele>
        <time>2010-03-19T10:38:32Z</time>
      </trkpt>
      <trkpt lat="48.60037" lon="2.05736">
        <ele>119</ele>
        <time>2010-03-19T10:38:33Z</time>
      </trkpt>
      <trkpt lat="48.60041" lon="2.05733">
        <ele>119</ele>
        <time>2010-03-19T10:38:34Z</time>
      </trkpt>
      <trkpt lat="48.60046" lon="2.05728">
        <ele>119</ele>
        <time>2010-03-19T10:38:35Z</time>
      </trkpt>
      <trkpt lat="48.6005" lon="2.05724">
        <ele>119</ele>
        <time>2010-03-19T10:38:36Z</time>
      </trkpt>
      <trkpt lat="48.60054" lon="2.05719">
        <ele>119</ele>
        <time>2010-03-19T10:38:37Z</time>
      </trkpt>
      <trkpt lat="48.60058" lon="2.05714">
        <ele>119</ele>
        <time>2010-03-19T10:38:38Z</time>
      </trkpt>
      <trkpt lat="48.60062" lon="2.0571">
        <ele>119</ele>
        <time>2010-03-19T10:38:39Z</time>
      </trkpt>
      <trkpt lat="48.60065" lon="2.05706">
        <ele>119</ele>
        <time>2010-03-19T10:38:40Z</time>
      </trkpt>
      <trkpt lat="48.60069" lon="2.05702">
        <ele>119</ele>
        <time>2010-03-19T10:38:41Z</time>
      </trkpt>
      <trkpt lat="48.60071" lon="2.05698">
        <ele>119</ele>
        <time>2010-03-19T10:38:42Z</time>
      </trkpt>
      <trkpt lat="48.60073" lon="2.05694">
        <ele>119</ele>
        <time>2010-03-19T10:38:43Z</time>
      </trkpt>
      <trkpt lat="48.60076" lon="2.05691">
        <ele>119</ele>
        <time>2010-03-19T10:38:44Z</time>
      </trkpt>
      <trkpt lat="48.60079" lon="2.05687">
        <ele>119</ele>
        <time>2010-03-19T10:38:45Z</time>
      </trkpt>
      <trkpt lat="48.60081" lon="2.05683">
        <ele>119</ele>
        <time>2010-03-19T10:38:46Z</time>
      </trkpt>
      <trkpt lat="48.60084" lon="2.05679">
        <ele>119</ele>
        <time>2010-03-19T10:38:47Z</time>
      </trkpt>
      <trkpt lat="48.60087" lon="2.05673">
        <ele>119</ele>
        <time>2010-03-19T10:38:48Z</time>
      </trkpt>
      <trkpt lat="48.6009" lon="2.05667">
        <ele>119</ele>
        <time>2010-03-19T10:38:49Z</time>
      </trkpt>
      <trkpt lat="48.60093" lon="2.05662">
        <ele>119</ele>
        <time>2010-03-19T10:38:50Z</time>
      </trkpt>
      <trkpt lat="48.60096" lon="2.05656">
        <ele>119</ele>
        <time>2010-03-19T10:38:51Z</time>
      </trkpt>
      <trkpt lat="48.60098" lon="2.05653">
        <ele>119</ele>
        <time>2010-03-19T10:38:52Z</time>
      </trkpt>
      <trkpt lat="48.60102" lon="2.0565">
        <ele>119</ele>
        <time>2010-03-19T10:38:53Z</time>
      </trkpt>
      <trkpt lat="48.60104" lon="2.05647">
        <ele>119</ele>
        <time>2010-03-19T10:38:54Z</time>
      </trkpt>
      <trkpt lat="48.60107" lon="2.05644">
        <ele>119</ele>
        <time>2010-03-19T10:38:55Z</time>
      </trkpt>
      <trkpt lat="48.6011" lon="2.05642">
        <ele>119</ele>
        <time>2010-03-19T10:38:56Z</time>
      </trkpt>
      <trkpt lat="48.60113" lon="2.05639">
        <ele>119</ele>
        <time>2010-03-19T10:38:57Z</time>
      </trkpt>
      <trkpt lat="48.60116" lon="2.05637">
        <ele>119</ele>
        <time>2010-03-19T10:38:58Z</time>
      </trkpt>
      <trkpt lat="48.60118" lon="2.05634">
        <ele>119</ele>
        <time>2010-03-19T10:38:59Z</time>
      </trkpt>
      <trkpt lat="48.6012" lon="2.05631">
        <ele>119</ele>
        <time>2010-03-19T10:39:00Z</time>
      </trkpt>
      <trkpt lat="48.60122" lon="2.05628">
        <ele>119</ele>
        <time>2010-03-19T10:39:01Z</time>
      </trkpt>
      <trkpt lat="48.60125" lon="2.05624">
        <ele>119</ele>
        <time>2010-03-19T10:39:02Z</time>
      </trkpt>
      <trkpt lat="48.60127" lon="2.0562">
        <ele>119</ele>
        <time>2010-03-19T10:39:03Z</time>
      </trkpt>
      <trkpt lat="48.6013" lon="2.05616">
        <ele>119</ele>
        <time>2010-03-19T10:39:04Z</time>
      </trkpt>
      <trkpt lat="48.60131" lon="2.05611">
        <ele>119</ele>
        <time>2010-03-19T10:39:05Z</time>
      </trkpt>
      <trkpt lat="48.60134" lon="2.05608">
        <ele>119</ele>
        <time>2010-03-19T10:39:06Z</time>
      </trkpt>
      <trkpt lat="48.60136" lon="2.05604">
        <ele>119</ele>
        <time>2010-03-19T10:39:07Z</time>
      </trkpt>
      <trkpt lat="48.60138" lon="2.056">
        <ele>119</ele>
        <time>2010-03-19T10:39:08Z</time>
      </trkpt>
      <trkpt lat="48.60141" lon="2.05597">
        <ele>119</ele>
        <time>2010-03-19T10:39:09Z</time>
      </trkpt>
      <trkpt lat="48.60143" lon="2.05592">
        <ele>119</ele>
        <time>2010-03-19T10:39:10Z</time>
      </trkpt>
      <trkpt lat="48.60146" lon="2.05588">
        <ele>119</ele>
        <time>2010-03-19T10:39:11Z</time>
      </trkpt>
      <trkpt lat="48.60148" lon="2.05584">
        <ele>119</ele>
        <time>2010-03-19T10:39:12Z</time>
      </trkpt>
      <trkpt lat="48.60151" lon="2.05579">
        <ele>119</ele>
        <time>2010-03-19T10:39:13Z</time>
      </trkpt>
      <trkpt lat="48.60153" lon="2.05575">
        <ele>119</ele>
        <time>2010-03-19T10:39:14Z</time>
      </trkpt>
      <trkpt lat="48.60155" lon="2.05572">
        <ele>119</ele>
        <time>2010-03-19T10:39:15Z</time>
      </trkpt>
      <trkpt lat="48.60156" lon="2.05568">
        <ele>119</ele>
        <time>2010-03-19T10:39:16Z</time>
      </trkpt>
      <trkpt lat="48.60157" lon="2.05565">
        <ele>119</ele>
        <time>2010-03-19T10:39:17Z</time>
      </trkpt>
      <trkpt lat="48.60157" lon="2.05561">
        <ele>119</ele>
        <time>2010-03-19T10:39:18Z</time>
      </trkpt>
      <trkpt lat="48.60156" lon="2.05557">
        <ele>119</ele>
        <time>2010-03-19T10:39:19Z</time>
      </trkpt>
      <trkpt lat="48.60155" lon="2.05554">
        <ele>119</ele>
        <time>2010-03-19T10:39:20Z</time>
      </trkpt>
      <trkpt lat="48.60154" lon="2.05549">
        <ele>119</ele>
        <time>2010-03-19T10:39:21Z</time>
      </trkpt>
      <trkpt lat="48.60152" lon="2.05544">
        <ele>119</ele>
        <time>2010-03-19T10:39:22Z</time>
      </trkpt>
      <trkpt lat="48.60151" lon="2.05538">
        <ele>119</ele>
        <time>2010-03-19T10:39:23Z</time>
      </trkpt>
      <trkpt lat="48.60149" lon="2.0553">
        <ele>119</ele>
        <time>2010-03-19T10:39:24Z</time>
      </trkpt>
      <trkpt lat="48.60147" lon="2.05522">
        <ele>119</ele>
        <time>2010-03-19T10:39:25Z</time>
      </trkpt>
      <trkpt lat="48.60146" lon="2.05515">
        <ele>119</ele>
        <time>2010-03-19T10:39:26Z</time>
      </trkpt>
      <trkpt lat="48.60145" lon="2.05507">
        <ele>119</ele>
        <time>2010-03-19T10:39:27Z</time>
      </trkpt>
      <trkpt lat="48.60144" lon="2.055">
        <ele>119</ele>
        <time>2010-03-19T10:39:28Z</time>
      </trkpt>
      <trkpt lat="48.60142" lon="2.05492">
        <ele>119</ele>
        <time>2010-03-19T10:39:29Z</time>
      </trkpt>
      <trkpt lat="48.6014" lon="2.05484">
        <ele>119</ele>
        <time>2010-03-19T10:39:30Z</time>
      </trkpt>
      <trkpt lat="48.60139" lon="2.05476">
        <ele>119</ele>
        <time>2010-03-19T10:39:31Z</time>
      </trkpt>
      <trkpt lat="48.60138" lon="2.05469">
        <ele>119</ele>
        <time>2010-03-19T10:39:32Z</time>
      </trkpt>
      <trkpt lat="48.60136" lon="2.05461">
        <ele>119</ele>
        <time>2010-03-19T10:39:33Z</time>
      </trkpt>
      <trkpt lat="48.60134" lon="2.05452">
        <ele>119</ele>
        <time>2010-03-19T10:39:34Z</time>
      </trkpt>
      <trkpt lat="48.60132" lon="2.05445">
        <ele>119</ele>
        <time>2010-03-19T10:39:35Z</time>
      </trkpt>
      <trkpt lat="48.6013" lon="2.05437">
        <ele>119</ele>
        <time>2010-03-19T10:39:36Z</time>
      </trkpt>
      <trkpt lat="48.60128" lon="2.05429">
        <ele>119</ele>
        <time>2010-03-19T10:39:37Z</time>
      </trkpt>
      <trkpt lat="48.60127" lon="2.0542">
        <ele>119</ele>
        <time>2010-03-19T10:39:38Z</time>
      </trkpt>
      <trkpt lat="48.60125" lon="2.05412">
        <ele>119</ele>
        <time>2010-03-19T10:39:39Z</time>
      </trkpt>
      <trkpt lat="48.60123" lon="2.05403">
        <ele>119</ele>
        <time>2010-03-19T10:39:40Z</time>
      </trkpt>
      <trkpt lat="48.60122" lon="2.05394">
        <ele>119</ele>
        <time>2010-03-19T10:39:41Z</time>
      </trkpt>
      <trkpt lat="48.6012" lon="2.05385">
        <ele>119</ele>
        <time>2010-03-19T10:39:42Z</time>
      </trkpt>
      <trkpt lat="48.60119" lon="2.05376">
        <ele>119</ele>
        <time>2010-03-19T10:39:43Z</time>
      </trkpt>
      <trkpt lat="48.60117" lon="2.05367">
        <ele>119</ele>
        <time>2010-03-19T10:39:44Z</time>
      </trkpt>
      <trkpt lat="48.60114" lon="2.05358">
        <ele>119</ele>
        <time>2010-03-19T10:39:45Z</time>
      </trkpt>
      <trkpt lat="48.60112" lon="2.05348">
        <ele>119</ele>
        <time>2010-03-19T10:39:46Z</time>
      </trkpt>
      <trkpt lat="48.6011" lon="2.0534">
        <ele>119</ele>
        <time>2010-03-19T10:39:47Z</time>
      </trkpt>
      <trkpt lat="48.60108" lon="2.0533">
        <ele>119</ele>
        <time>2010-03-19T10:39:48Z</time>
      </trkpt>
      <trkpt lat="48.60106" lon="2.05319">
        <ele>119</ele>
        <time>2010-03-19T10:39:49Z</time>
      </trkpt>
      <trkpt lat="48.60104" lon="2.05306">
        <ele>119</ele>
        <time>2010-03-19T10:39:50Z</time>
      </trkpt>
      <trkpt lat="48.60101" lon="2.05292">
        <ele>119</ele>
        <time>2010-03-19T10:39:51Z</time>
      </trkpt>
      <trkpt lat="48.60098" lon="2.05279">
        <ele>120</ele>
        <time>2010-03-19T10:39:52Z</time>
      </trkpt>
      <trkpt lat="48.60095" lon="2.05264">
        <ele>120</ele>
        <time>2010-03-19T10:39:53Z</time>
      </trkpt>
      <trkpt lat="48.60091" lon="2.0525">
        <ele>121</ele>
        <time>2010-03-19T10:39:54Z</time>
      </trkpt>
      <trkpt lat="48.60087" lon="2.05236">
        <ele>121</ele>
        <time>2010-03-19T10:39:55Z</time>
      </trkpt>
      <trkpt lat="48.60085" lon="2.05223">
        <ele>121</ele>
        <time>2010-03-19T10:39:56Z</time>
      </trkpt>
      <trkpt lat="48.60081" lon="2.05211">
        <ele>122</ele>
        <time>2010-03-19T10:39:57Z</time>
      </trkpt>
      <trkpt lat="48.6008" lon="2.05201">
        <ele>122</ele>
        <time>2010-03-19T10:39:58Z</time>
      </trkpt>
      <trkpt lat="48.60078" lon="2.05191">
        <ele>123</ele>
        <time>2010-03-19T10:39:59Z</time>
      </trkpt>
      <trkpt lat="48.60076" lon="2.05181">
        <ele>123</ele>
        <time>2010-03-19T10:40:00Z</time>
      </trkpt>
      <trkpt lat="48.60074" lon="2.0517">
        <ele>124</ele>
        <time>2010-03-19T10:40:01Z</time>
      </trkpt>
      <trkpt lat="48.60072" lon="2.0516">
        <ele>125</ele>
        <time>2010-03-19T10:40:02Z</time>
      </trkpt>
      <trkpt lat="48.6007" lon="2.05151">
        <ele>125</ele>
        <time>2010-03-19T10:40:03Z</time>
      </trkpt>
      <trkpt lat="48.60068" lon="2.05142">
        <ele>125</ele>
        <time>2010-03-19T10:40:04Z</time>
      </trkpt>
      <trkpt lat="48.60066" lon="2.05133">
        <ele>126</ele>
        <time>2010-03-19T10:40:05Z</time>
      </trkpt>
      <trkpt lat="48.60064" lon="2.05124">
        <ele>126</ele>
        <time>2010-03-19T10:40:06Z</time>
      </trkpt>
      <trkpt lat="48.60062" lon="2.05115">
        <ele>126</ele>
        <time>2010-03-19T10:40:07Z</time>
      </trkpt>
      <trkpt lat="48.6006" lon="2.05106">
        <ele>126</ele>
        <time>2010-03-19T10:40:08Z</time>
      </trkpt>
      <trkpt lat="48.60058" lon="2.05097">
        <ele>126</ele>
        <time>2010-03-19T10:40:09Z</time>
      </trkpt>
      <trkpt lat="48.60057" lon="2.05088">
        <ele>126</ele>
        <time>2010-03-19T10:40:10Z</time>
      </trkpt>
      <trkpt lat="48.60055" lon="2.0508">
        <ele>126</ele>
        <time>2010-03-19T10:40:11Z</time>
      </trkpt>
      <trkpt lat="48.60052" lon="2.05072">
        <ele>126</ele>
        <time>2010-03-19T10:40:12Z</time>
      </trkpt>
      <trkpt lat="48.60048" lon="2.05065">
        <ele>126</ele>
        <time>2010-03-19T10:40:13Z</time>
      </trkpt>
      <trkpt lat="48.60043" lon="2.05057">
        <ele>126</ele>
        <time>2010-03-19T10:40:14Z</time>
      </trkpt>
      <trkpt lat="48.60036" lon="2.05051">
        <ele>126</ele>
        <time>2010-03-19T10:40:15Z</time>
      </trkpt>
      <trkpt lat="48.6003" lon="2.05046">
        <ele>126</ele>
        <time>2010-03-19T10:40:16Z</time>
      </trkpt>
      <trkpt lat="48.60022" lon="2.05041">
        <ele>126</ele>
        <time>2010-03-19T10:40:17Z</time>
      </trkpt>
      <trkpt lat="48.60014" lon="2.05035">
        <ele>126</ele>
        <time>2010-03-19T10:40:18Z</time>
      </trkpt>
      <trkpt lat="48.60006" lon="2.05029">
        <ele>126</ele>
        <time>2010-03-19T10:40:19Z</time>
      </trkpt>
      <trkpt lat="48.59998" lon="2.05024">
        <ele>126</ele>
        <time>2010-03-19T10:40:20Z</time>
      </trkpt>
      <trkpt lat="48.5999" lon="2.05018">
        <ele>126</ele>
        <time>2010-03-19T10:40:21Z</time>
      </trkpt>
      <trkpt lat="48.59982" lon="2.05012">
        <ele>126</ele>
        <time>2010-03-19T10:40:22Z</time>
      </trkpt>
      <trkpt lat="48.59974" lon="2.05008">
        <ele>126</ele>
        <time>2010-03-19T10:40:23Z</time>
      </trkpt>
      <trkpt lat="48.59967" lon="2.05002">
        <ele>126</ele>
        <time>2010-03-19T10:40:24Z</time>
      </trkpt>
      <trkpt lat="48.5996" lon="2.04997">
        <ele>127</ele>
        <time>2010-03-19T10:40:25Z</time>
      </trkpt>
      <trkpt lat="48.59953" lon="2.04992">
        <ele>127</ele>
        <time>2010-03-19T10:40:26Z</time>
      </trkpt>
      <trkpt lat="48.59946" lon="2.04987">
        <ele>127</ele>
        <time>2010-03-19T10:40:27Z</time>
      </trkpt>
      <trkpt lat="48.59939" lon="2.04981">
        <ele>127</ele>
        <time>2010-03-19T10:40:28Z</time>
      </trkpt>
      <trkpt lat="48.59932" lon="2.04977">
        <ele>127</ele>
        <time>2010-03-19T10:40:29Z</time>
      </trkpt>
      <trkpt lat="48.59925" lon="2.04972">
        <ele>127</ele>
        <time>2010-03-19T10:40:30Z</time>
      </trkpt>
      <trkpt lat="48.59919" lon="2.04967">
        <ele>128</ele>
        <time>2010-03-19T10:40:31Z</time>
      </trkpt>
      <trkpt lat="48.59912" lon="2.04962">
        <ele>128</ele>
        <time>2010-03-19T10:40:32Z</time>
      </trkpt>
      <trkpt lat="48.59905" lon="2.04956">
        <ele>128</ele>
        <time>2010-03-19T10:40:33Z</time>
      </trkpt>
      <trkpt lat="48.59898" lon="2.04951">
        <ele>128</ele>
        <time>2010-03-19T10:40:34Z</time>
      </trkpt>
      <trkpt lat="48.59891" lon="2.04946">
        <ele>128</ele>
        <time>2010-03-19T10:40:35Z</time>
      </trkpt>
      <trkpt lat="48.59883" lon="2.04941">
        <ele>129</ele>
        <time>2010-03-19T10:40:36Z</time>
      </trkpt>
      <trkpt lat="48.59875" lon="2.04935">
        <ele>129</ele>
        <time>2010-03-19T10:40:37Z</time>
      </trkpt>
      <trkpt lat="48.59866" lon="2.04928">
        <ele>129</ele>
        <time>2010-03-19T10:40:38Z</time>
      </trkpt>
      <trkpt lat="48.59856" lon="2.04921">
        <ele>129</ele>
        <time>2010-03-19T10:40:39Z</time>
      </trkpt>
      <trkpt lat="48.59847" lon="2.04915">
        <ele>129</ele>
        <time>2010-03-19T10:40:40Z</time>
      </trkpt>
      <trkpt lat="48.59838" lon="2.04909">
        <ele>129</ele>
        <time>2010-03-19T10:40:41Z</time>
      </trkpt>
      <trkpt lat="48.59829" lon="2.04903">
        <ele>129</ele>
        <time>2010-03-19T10:40:42Z</time>
      </trkpt>
      <trkpt lat="48.59819" lon="2.04896">
        <ele>129</ele>
        <time>2010-03-19T10:40:43Z</time>
      </trkpt>
      <trkpt lat="48.5981" lon="2.04891">
        <ele>129</ele>
        <time>2010-03-19T10:40:44Z</time>
      </trkpt>
      <trkpt lat="48.59801" lon="2.04885">
        <ele>129</ele>
        <time>2010-03-19T10:40:45Z</time>
      </trkpt>
      <trkpt lat="48.59792" lon="2.04879">
        <ele>129</ele>
        <time>2010-03-19T10:40:46Z</time>
      </trkpt>
      <trkpt lat="48.59784" lon="2.04873">
        <ele>129</ele>
        <time>2010-03-19T10:40:47Z</time>
      </trkpt>
      <trkpt lat="48.59775" lon="2.04867">
        <ele>129</ele>
        <time>2010-03-19T10:40:48Z</time>
      </trkpt>
      <trkpt lat="48.59767" lon="2.04861">
        <ele>129</ele>
        <time>2010-03-19T10:40:49Z</time>
      </trkpt>
      <trkpt lat="48.59758" lon="2.04854">
        <ele>129</ele>
        <time>2010-03-19T10:40:50Z</time>
      </trkpt>
      <trkpt lat="48.5975" lon="2.04849">
        <ele>129</ele>
        <time>2010-03-19T10:40:51Z</time>
      </trkpt>
      <trkpt lat="48.59741" lon="2.04843">
        <ele>129</ele>
        <time>2010-03-19T10:40:52Z</time>
      </trkpt>
      <trkpt lat="48.59732" lon="2.04837">
        <ele>129</ele>
        <time>2010-03-19T10:40:53Z</time>
      </trkpt>
      <trkpt lat="48.59724" lon="2.04831">
        <ele>129</ele>
        <time>2010-03-19T10:40:54Z</time>
      </trkpt>
      <trkpt lat="48.59716" lon="2.04825">
        <ele>129</ele>
        <time>2010-03-19T10:40:55Z</time>
      </trkpt>
      <trkpt lat="48.59707" lon="2.04819">
        <ele>129</ele>
        <time>2010-03-19T10:40:56Z</time>
      </trkpt>
      <trkpt lat="48.597" lon="2.04814">
        <ele>129</ele>
        <time>2010-03-19T10:40:57Z</time>
      </trkpt>
      <trkpt lat="48.59692" lon="2.04808">
        <ele>129</ele>
        <time>2010-03-19T10:40:58Z</time>
      </trkpt>
      <trkpt lat="48.59686" lon="2.04804">
        <ele>130</ele>
        <time>2010-03-19T10:40:59Z</time>
      </trkpt>
      <trkpt lat="48.59679" lon="2.048">
        <ele>131</ele>
        <time>2010-03-19T10:41:00Z</time>
      </trkpt>
      <trkpt lat="48.59674" lon="2.04797">
        <ele>131</ele>
        <time>2010-03-19T10:41:01Z</time>
      </trkpt>
      <trkpt lat="48.59669" lon="2.04793">
        <ele>132</ele>
        <time>2010-03-19T10:41:02Z</time>
      </trkpt>
      <trkpt lat="48.59666" lon="2.04791">
        <ele>133</ele>
        <time>2010-03-19T10:41:03Z</time>
      </trkpt>
      <trkpt lat="48.59663" lon="2.04789">
        <ele>134</ele>
        <time>2010-03-19T10:41:04Z</time>
      </trkpt>
      <trkpt lat="48.5966" lon="2.04787">
        <ele>135</ele>
        <time>2010-03-19T10:41:05Z</time>
      </trkpt>
      <trkpt lat="48.59657" lon="2.04785">
        <ele>136</ele>
        <time>2010-03-19T10:41:06Z</time>
      </trkpt>
      <trkpt lat="48.59653" lon="2.04783">
        <ele>137</ele>
        <time>2010-03-19T10:41:07Z</time>
      </trkpt>
      <trkpt lat="48.5965" lon="2.04781">
        <ele>137</ele>
        <time>2010-03-19T10:41:08Z</time>
      </trkpt>
      <trkpt lat="48.59646" lon="2.04778">
        <ele>138</ele>
        <time>2010-03-19T10:41:09Z</time>
      </trkpt>
      <trkpt lat="48.59642" lon="2.04777">
        <ele>139</ele>
        <time>2010-03-19T10:41:10Z</time>
      </trkpt>
      <trkpt lat="48.59637" lon="2.04775">
        <ele>140</ele>
        <time>2010-03-19T10:41:11Z</time>
      </trkpt>
      <trkpt lat="48.59634" lon="2.04773">
        <ele>140</ele>
        <time>2010-03-19T10:41:12Z</time>
      </trkpt>
      <trkpt lat="48.59631" lon="2.0477">
        <ele>141</ele>
        <time>2010-03-19T10:41:13Z</time>
      </trkpt>
      <trkpt lat="48.59627" lon="2.04768">
        <ele>142</ele>
        <time>2010-03-19T10:41:14Z</time>
      </trkpt>
      <trkpt lat="48.59623" lon="2.04765">
        <ele>143</ele>
        <time>2010-03-19T10:41:15Z</time>
      </trkpt>
      <trkpt lat="48.59619" lon="2.04762">
        <ele>143</ele>
        <time>2010-03-19T10:41:16Z</time>
      </trkpt>
      <trkpt lat="48.59615" lon="2.04759">
        <ele>144</ele>
        <time>2010-03-19T10:41:17Z</time>
      </trkpt>
      <trkpt lat="48.5961" lon="2.04757">
        <ele>144</ele>
        <time>2010-03-19T10:41:18Z</time>
      </trkpt>
      <trkpt lat="48.59607" lon="2.04754">
        <ele>145</ele>
        <time>2010-03-19T10:41:19Z</time>
      </trkpt>
      <trkpt lat="48.59602" lon="2.04751">
        <ele>145</ele>
        <time>2010-03-19T10:41:20Z</time>
      </trkpt>
      <trkpt lat="48.59598" lon="2.04748">
        <ele>145</ele>
        <time>2010-03-19T10:41:21Z</time>
      </trkpt>
      <trkpt lat="48.59593" lon="2.04744">
        <ele>145</ele>
        <time>2010-03-19T10:41:22Z</time>
      </trkpt>
      <trkpt lat="48.59588" lon="2.04742">
        <ele>146</ele>
        <time>2010-03-19T10:41:23Z</time>
      </trkpt>
      <trkpt lat="48.59583" lon="2.04738">
        <ele>146</ele>
        <time>2010-03-19T10:41:24Z</time>
      </trkpt>
      <trkpt lat="48.59578" lon="2.04735">
        <ele>146</ele>
        <time>2010-03-19T10:41:25Z</time>
      </trkpt>
      <trkpt lat="48.59575" lon="2.04731">
        <ele>146</ele>
        <time>2010-03-19T10:41:26Z</time>
      </trkpt>
      <trkpt lat="48.5957" lon="2.04727">
        <ele>147</ele>
        <time>2010-03-19T10:41:27Z</time>
      </trkpt>
      <trkpt lat="48.59567" lon="2.04722">
        <ele>147</ele>
        <time>2010-03-19T10:41:28Z</time>
      </trkpt>
      <trkpt lat="48.59563" lon="2.04717">
        <ele>147</ele>
        <time>2010-03-19T10:41:29Z</time>
      </trkpt>
      <trkpt lat="48.59561" lon="2.04712">
        <ele>147</ele>
        <time>2010-03-19T10:41:30Z</time>
      </trkpt>
      <trkpt lat="48.59559" lon="2.04707">
        <ele>147</ele>
        <time>2010-03-19T10:41:31Z</time>
      </trkpt>
      <trkpt lat="48.59555" lon="2.04702">
        <ele>148</ele>
        <time>2010-03-19T10:41:32Z</time>
      </trkpt>
      <trkpt lat="48.59553" lon="2.04696">
        <ele>149</ele>
        <time>2010-03-19T10:41:33Z</time>
      </trkpt>
      <trkpt lat="48.5955" lon="2.04692">
        <ele>150</ele>
        <time>2010-03-19T10:41:34Z</time>
      </trkpt>
      <trkpt lat="48.59548" lon="2.04688">
        <ele>151</ele>
        <time>2010-03-19T10:41:35Z</time>
      </trkpt>
      <trkpt lat="48.59545" lon="2.04683">
        <ele>152</ele>
        <time>2010-03-19T10:41:36Z</time>
      </trkpt>
      <trkpt lat="48.59542" lon="2.04678">
        <ele>153</ele>
        <time>2010-03-19T10:41:37Z</time>
      </trkpt>
      <trkpt lat="48.5954" lon="2.04672">
        <ele>153</ele>
        <time>2010-03-19T10:41:38Z</time>
      </trkpt>
      <trkpt lat="48.59537" lon="2.04668">
        <ele>154</ele>
        <time>2010-03-19T10:41:39Z</time>
      </trkpt>
      <trkpt lat="48.59534" lon="2.04664">
        <ele>155</ele>
        <time>2010-03-19T10:41:40Z</time>
      </trkpt>
      <trkpt lat="48.59531" lon="2.04661">
        <ele>155</ele>
        <time>2010-03-19T10:41:41Z</time>
      </trkpt>
      <trkpt lat="48.59528" lon="2.04658">
        <ele>155</ele>
        <time>2010-03-19T10:41:42Z</time>
      </trkpt>
      <trkpt lat="48.59526" lon="2.04655">
        <ele>155</ele>
        <time>2010-03-19T10:41:43Z</time>
      </trkpt>
      <trkpt lat="48.59524" lon="2.04651">
        <ele>156</ele>
        <time>2010-03-19T10:41:44Z</time>
      </trkpt>
      <trkpt lat="48.59521" lon="2.04648">
        <ele>156</ele>
        <time>2010-03-19T10:41:45Z</time>
      </trkpt>
      <trkpt lat="48.5952" lon="2.04645">
        <ele>156</ele>
        <time>2010-03-19T10:41:46Z</time>
      </trkpt>
      <trkpt lat="48.59518" lon="2.04641">
        <ele>156</ele>
        <time>2010-03-19T10:41:47Z</time>
      </trkpt>
      <trkpt lat="48.59517" lon="2.04636">
        <ele>156</ele>
        <time>2010-03-19T10:41:48Z</time>
      </trkpt>
      <trkpt lat="48.59515" lon="2.0463">
        <ele>156</ele>
        <time>2010-03-19T10:41:49Z</time>
      </trkpt>
      <trkpt lat="48.59513" lon="2.04624">
        <ele>157</ele>
        <time>2010-03-19T10:41:50Z</time>
      </trkpt>
      <trkpt lat="48.59512" lon="2.04618">
        <ele>157</ele>
        <time>2010-03-19T10:41:51Z</time>
      </trkpt>
      <trkpt lat="48.59509" lon="2.04613">
        <ele>158</ele>
        <time>2010-03-19T10:41:52Z</time>
      </trkpt>
      <trkpt lat="48.59507" lon="2.04608">
        <ele>158</ele>
        <time>2010-03-19T10:41:53Z</time>
      </trkpt>
      <trkpt lat="48.59505" lon="2.04604">
        <ele>158</ele>
        <time>2010-03-19T10:41:54Z</time>
      </trkpt>
      <trkpt lat="48.59502" lon="2.046">
        <ele>158</ele>
        <time>2010-03-19T10:41:55Z</time>
      </trkpt>
      <trkpt lat="48.59498" lon="2.04597">
        <ele>158</ele>
        <time>2010-03-19T10:41:56Z</time>
      </trkpt>
      <trkpt lat="48.59495" lon="2.04592">
        <ele>158</ele>
        <time>2010-03-19T10:41:57Z</time>
      </trkpt>
      <trkpt lat="48.59492" lon="2.04588">
        <ele>158</ele>
        <time>2010-03-19T10:41:58Z</time>
      </trkpt>
      <trkpt lat="48.59488" lon="2.04583">
        <ele>158</ele>
        <time>2010-03-19T10:41:59Z</time>
      </trkpt>
      <trkpt lat="48.59485" lon="2.04578">
        <ele>158</ele>
        <time>2010-03-19T10:42:00Z</time>
      </trkpt>
      <trkpt lat="48.59483" lon="2.04574">
        <ele>158</ele>
        <time>2010-03-19T10:42:01Z</time>
      </trkpt>
      <trkpt lat="48.5948" lon="2.04569">
        <ele>158</ele>
        <time>2010-03-19T10:42:02Z</time>
      </trkpt>
      <trkpt lat="48.59478" lon="2.04564">
        <ele>158</ele>
        <time>2010-03-19T10:42:03Z</time>
      </trkpt>
      <trkpt lat="48.59475" lon="2.04559">
        <ele>158</ele>
        <time>2010-03-19T10:42:04Z</time>
      </trkpt>
      <trkpt lat="48.59472" lon="2.04553">
        <ele>158</ele>
        <time>2010-03-19T10:42:05Z</time>
      </trkpt>
      <trkpt lat="48.5947" lon="2.04549">
        <ele>158</ele>
        <time>2010-03-19T10:42:06Z</time>
      </trkpt>
      <trkpt lat="48.59469" lon="2.04545">
        <ele>158</ele>
        <time>2010-03-19T10:42:07Z</time>
      </trkpt>
      <trkpt lat="48.59467" lon="2.04541">
        <ele>158</ele>
        <time>2010-03-19T10:42:08Z</time>
      </trkpt>
      <trkpt lat="48.59464" lon="2.04536">
        <ele>158</ele>
        <time>2010-03-19T10:42:09Z</time>
      </trkpt>
      <trkpt lat="48.59461" lon="2.04531">
        <ele>158</ele>
        <time>2010-03-19T10:42:10Z</time>
      </trkpt>
      <trkpt lat="48.59459" lon="2.04526">
        <ele>158</ele>
        <time>2010-03-19T10:42:11Z</time>
      </trkpt>
      <trkpt lat="48.59456" lon="2.04521">
        <ele>158</ele>
        <time>2010-03-19T10:42:12Z</time>
      </trkpt>
      <trkpt lat="48.59455" lon="2.04515">
        <ele>158</ele>
        <time>2010-03-19T10:42:13Z</time>
      </trkpt>
      <trkpt lat="48.59455" lon="2.04509">
        <ele>158</ele>
        <time>2010-03-19T10:42:14Z</time>
      </trkpt>
      <trkpt lat="48.59454" lon="2.04503">
        <ele>158</ele>
        <time>2010-03-19T10:42:15Z</time>
      </trkpt>
      <trkpt lat="48.59451" lon="2.04497">
        <ele>158</ele>
        <time>2010-03-19T10:42:16Z</time>
      </trkpt>
      <trkpt lat="48.59447" lon="2.04495">
        <ele>158</ele>
        <time>2010-03-19T10:42:17Z</time>
      </trkpt>
      <trkpt lat="48.59445" lon="2.04492">
        <ele>158</ele>
        <time>2010-03-19T10:42:18Z</time>
      </trkpt>
      <trkpt lat="48.59441" lon="2.0449">
        <ele>158</ele>
        <time>2010-03-19T10:42:19Z</time>
      </trkpt>
      <trkpt lat="48.59438" lon="2.04488">
        <ele>158</ele>
        <time>2010-03-19T10:42:20Z</time>
      </trkpt>
      <trkpt lat="48.59435" lon="2.04485">
        <ele>157</ele>
        <time>2010-03-19T10:42:21Z</time>
      </trkpt>
      <trkpt lat="48.59431" lon="2.04482">
        <ele>157</ele>
        <time>2010-03-19T10:42:22Z</time>
      </trkpt>
      <trkpt lat="48.59428" lon="2.04478">
        <ele>156</ele>
        <time>2010-03-19T10:42:23Z</time>
      </trkpt>
      <trkpt lat="48.59425" lon="2.04474">
        <ele>156</ele>
        <time>2010-03-19T10:42:24Z</time>
      </trkpt>
      <trkpt lat="48.59421" lon="2.04469">
        <ele>155</ele>
        <time>2010-03-19T10:42:25Z</time>
      </trkpt>
      <trkpt lat="48.59417" lon="2.04465">
        <ele>155</ele>
        <time>2010-03-19T10:42:26Z</time>
      </trkpt>
      <trkpt lat="48.59414" lon="2.04461">
        <ele>154</ele>
        <time>2010-03-19T10:42:27Z</time>
      </trkpt>
      <trkpt lat="48.59412" lon="2.04457">
        <ele>154</ele>
        <time>2010-03-19T10:42:28Z</time>
      </trkpt>
      <trkpt lat="48.59409" lon="2.04453">
        <ele>153</ele>
        <time>2010-03-19T10:42:29Z</time>
      </trkpt>
      <trkpt lat="48.59406" lon="2.04449">
        <ele>153</ele>
        <time>2010-03-19T10:42:30Z</time>
      </trkpt>
      <trkpt lat="48.59405" lon="2.04444">
        <ele>153</ele>
        <time>2010-03-19T10:42:31Z</time>
      </trkpt>
      <trkpt lat="48.59404" lon="2.04438">
        <ele>153</ele>
        <time>2010-03-19T10:42:32Z</time>
      </trkpt>
      <trkpt lat="48.59404" lon="2.04432">
        <ele>153</ele>
        <time>2010-03-19T10:42:33Z</time>
      </trkpt>
      <trkpt lat="48.59405" lon="2.04426">
        <ele>153</ele>
        <time>2010-03-19T10:42:34Z</time>
      </trkpt>
      <trkpt lat="48.59406" lon="2.04422">
        <ele>153</ele>
        <time>2010-03-19T10:42:35Z</time>
      </trkpt>
      <trkpt lat="48.59408" lon="2.04418">
        <ele>153</ele>
        <time>2010-03-19T10:42:36Z</time>
      </trkpt>
      <trkpt lat="48.5941" lon="2.04414">
        <ele>153</ele>
        <time>2010-03-19T10:42:37Z</time>
      </trkpt>
      <trkpt lat="48.59412" lon="2.0441">
        <ele>153</ele>
        <time>2010-03-19T10:42:38Z</time>
      </trkpt>
      <trkpt lat="48.59413" lon="2.04406">
        <ele>153</ele>
        <time>2010-03-19T10:42:39Z</time>
      </trkpt>
      <trkpt lat="48.59414" lon="2.04403">
        <ele>153</ele>
        <time>2010-03-19T10:42:40Z</time>
      </trkpt>
      <trkpt lat="48.59415" lon="2.04401">
        <ele>153</ele>
        <time>2010-03-19T10:42:41Z</time>
      </trkpt>
      <trkpt lat="48.59416" lon="2.04399">
        <ele>153</ele>
        <time>2010-03-19T10:42:42Z</time>
      </trkpt>
      <trkpt lat="48.59417" lon="2.04397">
        <ele>153</ele>
        <time>2010-03-19T10:42:43Z</time>
      </trkpt>
      <trkpt lat="48.59418" lon="2.04394">
        <ele>153</ele>
        <time>2010-03-19T10:42:44Z</time>
      </trkpt>
      <trkpt lat="48.59419" lon="2.04392">
        <ele>153</ele>
        <time>2010-03-19T10:42:45Z</time>
      </trkpt>
      <trkpt lat="48.5942" lon="2.0439">
        <ele>153</ele>
        <time>2010-03-19T10:42:46Z</time>
      </trkpt>
      <trkpt lat="48.59421" lon="2.04387">
        <ele>153</ele>
        <time>2010-03-19T10:42:47Z</time>
      </trkpt>
      <trkpt lat="48.59421" lon="2.04385">
        <ele>153</ele>
        <time>2010-03-19T10:42:48Z</time>
      </trkpt>
      <trkpt lat="48.59422" lon="2.04383">
        <ele>153</ele>
        <time>2010-03-19T10:42:49Z</time>
      </trkpt>
      <trkpt lat="48.59422" lon="2.04381">
        <ele>153</ele>
        <time>2010-03-19T10:42:50Z</time>
      </trkpt>
      <trkpt lat="48.59422" lon="2.04379">
        <ele>153</ele>
        <time>2010-03-19T10:42:51Z</time>
      </trkpt>
      <trkpt lat="48.59422" lon="2.04377">
        <ele>153</ele>
        <time>2010-03-19T10:42:52Z</time>
      </trkpt>
      <trkpt lat="48.59423" lon="2.04375">
        <ele>153</ele>
        <time>2010-03-19T10:42:53Z</time>
      </trkpt>
      <trkpt lat="48.59424" lon="2.04373">
        <ele>153</ele>
        <time>2010-03-19T10:42:54Z</time>
      </trkpt>
      <trkpt lat="48.59425" lon="2.04371">
        <ele>153</ele>
        <time>2010-03-19T10:42:55Z</time>
      </trkpt>
      <trkpt lat="48.59426" lon="2.0437">
        <ele>153</ele>
        <time>2010-03-19T10:42:56Z</time>
      </trkpt>
      <trkpt lat="48.59426" lon="2.04368">
        <ele>153</ele>
        <time>2010-03-19T10:42:57Z</time>
      </trkpt>
      <trkpt lat="48.59428" lon="2.04366">
        <ele>153</ele>
        <time>2010-03-19T10:42:59Z</time>
      </trkpt>
      <trkpt lat="48.59428" lon="2.04364">
        <ele>153</ele>
        <time>2010-03-19T10:43:02Z</time>
      </trkpt>
      <trkpt lat="48.5943" lon="2.04362">
        <ele>153</ele>
        <time>2010-03-19T10:43:04Z</time>
      </trkpt>
      <trkpt lat="48.5943" lon="2.0436">
        <ele>153</ele>
        <time>2010-03-19T10:43:05Z</time>
      </trkpt>
      <trkpt lat="48.5943" lon="2.04358">
        <ele>153</ele>
        <time>2010-03-19T10:43:06Z</time>
      </trkpt>
      <trkpt lat="48.59431" lon="2.04356">
        <ele>153</ele>
        <time>2010-03-19T10:43:07Z</time>
      </trkpt>
      <trkpt lat="48.59433" lon="2.04354">
        <ele>153</ele>
        <time>2010-03-19T10:43:08Z</time>
      </trkpt>
      <trkpt lat="48.59435" lon="2.04351">
        <ele>153</ele>
        <time>2010-03-19T10:43:10Z</time>
      </trkpt>
      <trkpt lat="48.59436" lon="2.0435">
        <ele>153</ele>
        <time>2010-03-19T10:43:11Z</time>
      </trkpt>
      <trkpt lat="48.59437" lon="2.04348">
        <ele>153</ele>
        <time>2010-03-19T10:43:12Z</time>
      </trkpt>
      <trkpt lat="48.59438" lon="2.04346">
        <ele>153</ele>
        <time>2010-03-19T10:43:13Z</time>
      </trkpt>
      <trkpt lat="48.59439" lon="2.04344">
        <ele>153</ele>
        <time>2010-03-19T10:43:14Z</time>
      </trkpt>
      <trkpt lat="48.5944" lon="2.04343">
        <ele>153</ele>
        <time>2010-03-19T10:43:15Z</time>
      </trkpt>
      <trkpt lat="48.59441" lon="2.04341">
        <ele>153</ele>
        <time>2010-03-19T10:43:16Z</time>
      </trkpt>
      <trkpt lat="48.59443" lon="2.04338">
        <ele>153</ele>
        <time>2010-03-19T10:43:18Z</time>
      </trkpt>
      <trkpt lat="48.59444" lon="2.04336">
        <ele>152</ele>
        <time>2010-03-19T10:43:19Z</time>
      </trkpt>
      <trkpt lat="48.59444" lon="2.04334">
        <ele>152</ele>
        <time>2010-03-19T10:43:20Z</time>
      </trkpt>
      <trkpt lat="48.59446" lon="2.04332">
        <ele>151</ele>
        <time>2010-03-19T10:43:22Z</time>
      </trkpt>
      <trkpt lat="48.59447" lon="2.0433">
        <ele>150</ele>
        <time>2010-03-19T10:43:24Z</time>
      </trkpt>
      <trkpt lat="48.59446" lon="2.04328">
        <ele>150</ele>
        <time>2010-03-19T10:43:26Z</time>
      </trkpt>
      <trkpt lat="48.59447" lon="2.04325">
        <ele>150</ele>
        <time>2010-03-19T10:43:28Z</time>
      </trkpt>
      <trkpt lat="48.59448" lon="2.04324">
        <ele>150</ele>
        <time>2010-03-19T10:43:30Z</time>
      </trkpt>
      <trkpt lat="48.5945" lon="2.04321">
        <ele>150</ele>
        <time>2010-03-19T10:43:32Z</time>
      </trkpt>
      <trkpt lat="48.59452" lon="2.04317">
        <ele>150</ele>
        <time>2010-03-19T10:43:34Z</time>
      </trkpt>
      <trkpt lat="48.59452" lon="2.04315">
        <ele>150</ele>
        <time>2010-03-19T10:43:35Z</time>
      </trkpt>
      <trkpt lat="48.59453" lon="2.04312">
        <ele>150</ele>
        <time>2010-03-19T10:43:36Z</time>
      </trkpt>
      <trkpt lat="48.59453" lon="2.0431">
        <ele>150</ele>
        <time>2010-03-19T10:43:37Z</time>
      </trkpt>
      <trkpt lat="48.59454" lon="2.04307">
        <ele>150</ele>
        <time>2010-03-19T10:43:38Z</time>
      </trkpt>
      <trkpt lat="48.59454" lon="2.04305">
        <ele>149</ele>
        <time>2010-03-19T10:43:39Z</time>
      </trkpt>
      <trkpt lat="48.59454" lon="2.04303">
        <ele>149</ele>
        <time>2010-03-19T10:43:40Z</time>
      </trkpt>
      <trkpt lat="48.59454" lon="2.04301">
        <ele>149</ele>
        <time>2010-03-19T10:43:41Z</time>
      </trkpt>
      <trkpt lat="48.59454" lon="2.04299">
        <ele>149</ele>
        <time>2010-03-19T10:43:42Z</time>
      </trkpt>
      <trkpt lat="48.59453" lon="2.04296">
        <ele>148</ele>
        <time>2010-03-19T10:43:44Z</time>
      </trkpt>
      <trkpt lat="48.59452" lon="2.04294">
        <ele>147</ele>
        <time>2010-03-19T10:43:45Z</time>
      </trkpt>
      <trkpt lat="48.59451" lon="2.04292">
        <ele>146</ele>
        <time>2010-03-19T10:43:46Z</time>
      </trkpt>
      <trkpt lat="48.5945" lon="2.04289">
        <ele>146</ele>
        <time>2010-03-19T10:43:47Z</time>
      </trkpt>
      <trkpt lat="48.59448" lon="2.04287">
        <ele>146</ele>
        <time>2010-03-19T10:43:48Z</time>
      </trkpt>
      <trkpt lat="48.59447" lon="2.04285">
        <ele>146</ele>
        <time>2010-03-19T10:43:49Z</time>
      </trkpt>
      <trkpt lat="48.59446" lon="2.04283">
        <ele>146</ele>
        <time>2010-03-19T10:43:51Z</time>
      </trkpt>
      <trkpt lat="48.59444" lon="2.04281">
        <ele>146</ele>
        <time>2010-03-19T10:43:53Z</time>
      </trkpt>
      <trkpt lat="48.59443" lon="2.0428">
        <ele>146</ele>
        <time>2010-03-19T10:43:54Z</time>
      </trkpt>
      <trkpt lat="48.59441" lon="2.04278">
        <ele>146</ele>
        <time>2010-03-19T10:43:55Z</time>
      </trkpt>
      <trkpt lat="48.59439" lon="2.04277">
        <ele>145</ele>
        <time>2010-03-19T10:43:56Z</time>
      </trkpt>
      <trkpt lat="48.59438" lon="2.04275">
        <ele>145</ele>
        <time>2010-03-19T10:43:57Z</time>
      </trkpt>
      <trkpt lat="48.59437" lon="2.04275">
        <ele>144</ele>
        <time>2010-03-19T10:43:58Z</time>
      </trkpt>
      <trkpt lat="48.59436" lon="2.04274">
        <ele>144</ele>
        <time>2010-03-19T10:43:59Z</time>
      </trkpt>
      <trkpt lat="48.59435" lon="2.04273">
        <ele>144</ele>
        <time>2010-03-19T10:44:00Z</time>
      </trkpt>
      <trkpt lat="48.59433" lon="2.04271">
        <ele>143</ele>
        <time>2010-03-19T10:44:01Z</time>
      </trkpt>
      <trkpt lat="48.59431" lon="2.04269">
        <ele>143</ele>
        <time>2010-03-19T10:44:02Z</time>
      </trkpt>
      <trkpt lat="48.5943" lon="2.04268">
        <ele>143</ele>
        <time>2010-03-19T10:44:03Z</time>
      </trkpt>
      <trkpt lat="48.59428" lon="2.04267">
        <ele>143</ele>
        <time>2010-03-19T10:44:04Z</time>
      </trkpt>
      <trkpt lat="48.59427" lon="2.04265">
        <ele>143</ele>
        <time>2010-03-19T10:44:05Z</time>
      </trkpt>
      <trkpt lat="48.59426" lon="2.04264">
        <ele>143</ele>
        <time>2010-03-19T10:44:06Z</time>
      </trkpt>
      <trkpt lat="48.59424" lon="2.04262">
        <ele>142</ele>
        <time>2010-03-19T10:44:07Z</time>
      </trkpt>
      <trkpt lat="48.59423" lon="2.04261">
        <ele>142</ele>
        <time>2010-03-19T10:44:08Z</time>
      </trkpt>
      <trkpt lat="48.59422" lon="2.04261">
        <ele>141</ele>
        <time>2010-03-19T10:44:09Z</time>
      </trkpt>
      <trkpt lat="48.59419" lon="2.0426">
        <ele>140</ele>
        <time>2010-03-19T10:44:11Z</time>
      </trkpt>
      <trkpt lat="48.59417" lon="2.04259">
        <ele>139</ele>
        <time>2010-03-19T10:44:12Z</time>
      </trkpt>
      <trkpt lat="48.59415" lon="2.04259">
        <ele>139</ele>
        <time>2010-03-19T10:44:13Z</time>
      </trkpt>
      <trkpt lat="48.59414" lon="2.04258">
        <ele>138</ele>
        <time>2010-03-19T10:44:14Z</time>
      </trkpt>
      <trkpt lat="48.59412" lon="2.04257">
        <ele>138</ele>
        <time>2010-03-19T10:44:15Z</time>
      </trkpt>
      <trkpt lat="48.59411" lon="2.04257">
        <ele>138</ele>
        <time>2010-03-19T10:44:16Z</time>
      </trkpt>
      <trkpt lat="48.59409" lon="2.04257">
        <ele>137</ele>
        <time>2010-03-19T10:44:17Z</time>
      </trkpt>
      <trkpt lat="48.59407" lon="2.04257">
        <ele>137</ele>
        <time>2010-03-19T10:44:18Z</time>
      </trkpt>
      <trkpt lat="48.59406" lon="2.04259">
        <ele>137</ele>
        <time>2010-03-19T10:44:19Z</time>
      </trkpt>
      <trkpt lat="48.59404" lon="2.0426">
        <ele>137</ele>
        <time>2010-03-19T10:44:20Z</time>
      </trkpt>
      <trkpt lat="48.59402" lon="2.04261">
        <ele>137</ele>
        <time>2010-03-19T10:44:21Z</time>
      </trkpt>
      <trkpt lat="48.59401" lon="2.04262">
        <ele>137</ele>
        <time>2010-03-19T10:44:22Z</time>
      </trkpt>
      <trkpt lat="48.59398" lon="2.04262">
        <ele>137</ele>
        <time>2010-03-19T10:44:23Z</time>
      </trkpt>
      <trkpt lat="48.59397" lon="2.04261">
        <ele>137</ele>
        <time>2010-03-19T10:44:24Z</time>
      </trkpt>
      <trkpt lat="48.59395" lon="2.04261">
        <ele>137</ele>
        <time>2010-03-19T10:44:25Z</time>
      </trkpt>
      <trkpt lat="48.59393" lon="2.04261">
        <ele>137</ele>
        <time>2010-03-19T10:44:26Z</time>
      </trkpt>
      <trkpt lat="48.59391" lon="2.04261">
        <ele>137</ele>
        <time>2010-03-19T10:44:27Z</time>
      </trkpt>
      <trkpt lat="48.59389" lon="2.0426">
        <ele>137</ele>
        <time>2010-03-19T10:44:28Z</time>
      </trkpt>
      <trkpt lat="48.59387" lon="2.04259">
        <ele>137</ele>
        <time>2010-03-19T10:44:29Z</time>
      </trkpt>
      <trkpt lat="48.59385" lon="2.04259">
        <ele>137</ele>
        <time>2010-03-19T10:44:30Z</time>
      </trkpt>
      <trkpt lat="48.59384" lon="2.04258">
        <ele>137</ele>
        <time>2010-03-19T10:44:31Z</time>
      </trkpt>
      <trkpt lat="48.59381" lon="2.04257">
        <ele>137</ele>
        <time>2010-03-19T10:44:32Z</time>
      </trkpt>
      <trkpt lat="48.5938" lon="2.04257">
        <ele>137</ele>
        <time>2010-03-19T10:44:33Z</time>
      </trkpt>
      <trkpt lat="48.59378" lon="2.04256">
        <ele>137</ele>
        <time>2010-03-19T10:44:34Z</time>
      </trkpt>
      <trkpt lat="48.59377" lon="2.04255">
        <ele>137</ele>
        <time>2010-03-19T10:44:35Z</time>
      </trkpt>
      <trkpt lat="48.59375" lon="2.04254">
        <ele>137</ele>
        <time>2010-03-19T10:44:36Z</time>
      </trkpt>
      <trkpt lat="48.59373" lon="2.04254">
        <ele>137</ele>
        <time>2010-03-19T10:44:37Z</time>
      </trkpt>
      <trkpt lat="48.59372" lon="2.04253">
        <ele>137</ele>
        <time>2010-03-19T10:44:38Z</time>
      </trkpt>
      <trkpt lat="48.59371" lon="2.04253">
        <ele>136</ele>
        <time>2010-03-19T10:44:39Z</time>
      </trkpt>
      <trkpt lat="48.59369" lon="2.04252">
        <ele>136</ele>
        <time>2010-03-19T10:44:40Z</time>
      </trkpt>
      <trkpt lat="48.59368" lon="2.04252">
        <ele>136</ele>
        <time>2010-03-19T10:44:41Z</time>
      </trkpt>
      <trkpt lat="48.59366" lon="2.04251">
        <ele>135</ele>
        <time>2010-03-19T10:44:42Z</time>
      </trkpt>
      <trkpt lat="48.59365" lon="2.04251">
        <ele>135</ele>
        <time>2010-03-19T10:44:43Z</time>
      </trkpt>
      <trkpt lat="48.59364" lon="2.0425">
        <ele>134</ele>
        <time>2010-03-19T10:44:44Z</time>
      </trkpt>
      <trkpt lat="48.59362" lon="2.0425">
        <ele>134</ele>
        <time>2010-03-19T10:44:45Z</time>
      </trkpt>
      <trkpt lat="48.59361" lon="2.04249">
        <ele>133</ele>
        <time>2010-03-19T10:44:46Z</time>
      </trkpt>
      <trkpt lat="48.59359" lon="2.04247">
        <ele>132</ele>
        <time>2010-03-19T10:44:47Z</time>
      </trkpt>
      <trkpt lat="48.59357" lon="2.04246">
        <ele>132</ele>
        <time>2010-03-19T10:44:48Z</time>
      </trkpt>
      <trkpt lat="48.59356" lon="2.04245">
        <ele>131</ele>
        <time>2010-03-19T10:44:49Z</time>
      </trkpt>
      <trkpt lat="48.59355" lon="2.04244">
        <ele>130</ele>
        <time>2010-03-19T10:44:50Z</time>
      </trkpt>
      <trkpt lat="48.59353" lon="2.04243">
        <ele>129</ele>
        <time>2010-03-19T10:44:51Z</time>
      </trkpt>
      <trkpt lat="48.59352" lon="2.04242">
        <ele>129</ele>
        <time>2010-03-19T10:44:52Z</time>
      </trkpt>
      <trkpt lat="48.59351" lon="2.04242">
        <ele>128</ele>
        <time>2010-03-19T10:44:53Z</time>
      </trkpt>
      <trkpt lat="48.59349" lon="2.04241">
        <ele>128</ele>
        <time>2010-03-19T10:44:54Z</time>
      </trkpt>
      <trkpt lat="48.59348" lon="2.0424">
        <ele>127</ele>
        <time>2010-03-19T10:44:55Z</time>
      </trkpt>
      <trkpt lat="48.59346" lon="2.0424">
        <ele>127</ele>
        <time>2010-03-19T10:44:56Z</time>
      </trkpt>
      <trkpt lat="48.59345" lon="2.04239">
        <ele>126</ele>
        <time>2010-03-19T10:44:57Z</time>
      </trkpt>
      <trkpt lat="48.59344" lon="2.04238">
        <ele>126</ele>
        <time>2010-03-19T10:44:58Z</time>
      </trkpt>
      <trkpt lat="48.59343" lon="2.04237">
        <ele>126</ele>
        <time>2010-03-19T10:44:59Z</time>
      </trkpt>
      <trkpt lat="48.59341" lon="2.04236">
        <ele>125</ele>
        <time>2010-03-19T10:45:00Z</time>
      </trkpt>
      <trkpt lat="48.5934" lon="2.04233">
        <ele>125</ele>
        <time>2010-03-19T10:45:02Z</time>
      </trkpt>
      <trkpt lat="48.59338" lon="2.0423">
        <ele>125</ele>
        <time>2010-03-19T10:45:04Z</time>
      </trkpt>
      <trkpt lat="48.59337" lon="2.04228">
        <ele>125</ele>
        <time>2010-03-19T10:45:05Z</time>
      </trkpt>
      <trkpt lat="48.59336" lon="2.04226">
        <ele>125</ele>
        <time>2010-03-19T10:45:07Z</time>
      </trkpt>
      <trkpt lat="48.59333" lon="2.04223">
        <ele>125</ele>
        <time>2010-03-19T10:45:09Z</time>
      </trkpt>
      <trkpt lat="48.59332" lon="2.04221">
        <ele>125</ele>
        <time>2010-03-19T10:45:10Z</time>
      </trkpt>
      <trkpt lat="48.59331" lon="2.0422">
        <ele>125</ele>
        <time>2010-03-19T10:45:11Z</time>
      </trkpt>
      <trkpt lat="48.5933" lon="2.04219">
        <ele>125</ele>
        <time>2010-03-19T10:45:12Z</time>
      </trkpt>
      <trkpt lat="48.59328" lon="2.04218">
        <ele>125</ele>
        <time>2010-03-19T10:45:13Z</time>
      </trkpt>
      <trkpt lat="48.59327" lon="2.04216">
        <ele>125</ele>
        <time>2010-03-19T10:45:14Z</time>
      </trkpt>
      <trkpt lat="48.59325" lon="2.04215">
        <ele>125</ele>
        <time>2010-03-19T10:45:15Z</time>
      </trkpt>
      <trkpt lat="48.59324" lon="2.04214">
        <ele>125</ele>
        <time>2010-03-19T10:45:16Z</time>
      </trkpt>
      <trkpt lat="48.59322" lon="2.04214">
        <ele>125</ele>
        <time>2010-03-19T10:45:17Z</time>
      </trkpt>
      <trkpt lat="48.59321" lon="2.04214">
        <ele>126</ele>
        <time>2010-03-19T10:45:18Z</time>
      </trkpt>
      <trkpt lat="48.59319" lon="2.04213">
        <ele>127</ele>
        <time>2010-03-19T10:45:19Z</time>
      </trkpt>
      <trkpt lat="48.59318" lon="2.04212">
        <ele>128</ele>
        <time>2010-03-19T10:45:20Z</time>
      </trkpt>
      <trkpt lat="48.59316" lon="2.04211">
        <ele>129</ele>
        <time>2010-03-19T10:45:21Z</time>
      </trkpt>
      <trkpt lat="48.59315" lon="2.0421">
        <ele>130</ele>
        <time>2010-03-19T10:45:22Z</time>
      </trkpt>
      <trkpt lat="48.59313" lon="2.04209">
        <ele>131</ele>
        <time>2010-03-19T10:45:23Z</time>
      </trkpt>
      <trkpt lat="48.59312" lon="2.04208">
        <ele>132</ele>
        <time>2010-03-19T10:45:24Z</time>
      </trkpt>
      <trkpt lat="48.5931" lon="2.04207">
        <ele>132</ele>
        <time>2010-03-19T10:45:25Z</time>
      </trkpt>
      <trkpt lat="48.59308" lon="2.04206">
        <ele>133</ele>
        <time>2010-03-19T10:45:26Z</time>
      </trkpt>
      <trkpt lat="48.59307" lon="2.04205">
        <ele>133</ele>
        <time>2010-03-19T10:45:27Z</time>
      </trkpt>
      <trkpt lat="48.59305" lon="2.04204">
        <ele>133</ele>
        <time>2010-03-19T10:45:28Z</time>
      </trkpt>
      <trkpt lat="48.59304" lon="2.04203">
        <ele>133</ele>
        <time>2010-03-19T10:45:29Z</time>
      </trkpt>
      <trkpt lat="48.59301" lon="2.042">
        <ele>133</ele>
        <time>2010-03-19T10:45:31Z</time>
      </trkpt>
      <trkpt lat="48.593" lon="2.04199">
        <ele>133</ele>
        <time>2010-03-19T10:45:32Z</time>
      </trkpt>
      <trkpt lat="48.59299" lon="2.04197">
        <ele>133</ele>
        <time>2010-03-19T10:45:33Z</time>
      </trkpt>
      <trkpt lat="48.59298" lon="2.04194">
        <ele>133</ele>
        <time>2010-03-19T10:45:34Z</time>
      </trkpt>
      <trkpt lat="48.59297" lon="2.04192">
        <ele>133</ele>
        <time>2010-03-19T10:45:35Z</time>
      </trkpt>
      <trkpt lat="48.59296" lon="2.0419">
        <ele>133</ele>
        <time>2010-03-19T10:45:36Z</time>
      </trkpt>
      <trkpt lat="48.59295" lon="2.04188">
        <ele>133</ele>
        <time>2010-03-19T10:45:37Z</time>
      </trkpt>
      <trkpt lat="48.59295" lon="2.04187">
        <ele>133</ele>
        <time>2010-03-19T10:45:38Z</time>
      </trkpt>
      <trkpt lat="48.59292" lon="2.04185">
        <ele>133</ele>
        <time>2010-03-19T10:45:39Z</time>
      </trkpt>
      <trkpt lat="48.59291" lon="2.04184">
        <ele>133</ele>
        <time>2010-03-19T10:45:40Z</time>
      </trkpt>
      <trkpt lat="48.59289" lon="2.04183">
        <ele>133</ele>
        <time>2010-03-19T10:45:41Z</time>
      </trkpt>
      <trkpt lat="48.59288" lon="2.04182">
        <ele>133</ele>
        <time>2010-03-19T10:45:42Z</time>
      </trkpt>
      <trkpt lat="48.59286" lon="2.04181">
        <ele>133</ele>
        <time>2010-03-19T10:45:43Z</time>
      </trkpt>
      <trkpt lat="48.59284" lon="2.04179">
        <ele>132</ele>
        <time>2010-03-19T10:45:44Z</time>
      </trkpt>
      <trkpt lat="48.59283" lon="2.04176">
        <ele>132</ele>
        <time>2010-03-19T10:45:45Z</time>
      </trkpt>
      <trkpt lat="48.59282" lon="2.04175">
        <ele>132</ele>
        <time>2010-03-19T10:45:46Z</time>
      </trkpt>
      <trkpt lat="48.59281" lon="2.04173">
        <ele>132</ele>
        <time>2010-03-19T10:45:47Z</time>
      </trkpt>
      <trkpt lat="48.5928" lon="2.04171">
        <ele>132</ele>
        <time>2010-03-19T10:45:48Z</time>
      </trkpt>
      <trkpt lat="48.59279" lon="2.04168">
        <ele>131</ele>
        <time>2010-03-19T10:45:49Z</time>
      </trkpt>
      <trkpt lat="48.59278" lon="2.04166">
        <ele>131</ele>
        <time>2010-03-19T10:45:50Z</time>
      </trkpt>
      <trkpt lat="48.59277" lon="2.04164">
        <ele>131</ele>
        <time>2010-03-19T10:45:51Z</time>
      </trkpt>
      <trkpt lat="48.59276" lon="2.04161">
        <ele>131</ele>
        <time>2010-03-19T10:45:52Z</time>
      </trkpt>
      <trkpt lat="48.59275" lon="2.04159">
        <ele>131</ele>
        <time>2010-03-19T10:45:53Z</time>
      </trkpt>
      <trkpt lat="48.59274" lon="2.04157">
        <ele>131</ele>
        <time>2010-03-19T10:45:54Z</time>
      </trkpt>
      <trkpt lat="48.59273" lon="2.04155">
        <ele>131</ele>
        <time>2010-03-19T10:45:55Z</time>
      </trkpt>
      <trkpt lat="48.59272" lon="2.04153">
        <ele>131</ele>
        <time>2010-03-19T10:45:56Z</time>
      </trkpt>
      <trkpt lat="48.5927" lon="2.0415">
        <ele>131</ele>
        <time>2010-03-19T10:45:58Z</time>
      </trkpt>
      <trkpt lat="48.59269" lon="2.04147">
        <ele>131</ele>
        <time>2010-03-19T10:45:59Z</time>
      </trkpt>
      <trkpt lat="48.59267" lon="2.04145">
        <ele>131</ele>
        <time>2010-03-19T10:46:00Z</time>
      </trkpt>
      <trkpt lat="48.59266" lon="2.04144">
        <ele>131</ele>
        <time>2010-03-19T10:46:01Z</time>
      </trkpt>
      <trkpt lat="48.59264" lon="2.04142">
        <ele>131</ele>
        <time>2010-03-19T10:46:02Z</time>
      </trkpt>
      <trkpt lat="48.59263" lon="2.0414">
        <ele>131</ele>
        <time>2010-03-19T10:46:03Z</time>
      </trkpt>
      <trkpt lat="48.59262" lon="2.04139">
        <ele>131</ele>
        <time>2010-03-19T10:46:04Z</time>
      </trkpt>
      <trkpt lat="48.59261" lon="2.04138">
        <ele>131</ele>
        <time>2010-03-19T10:46:05Z</time>
      </trkpt>
      <trkpt lat="48.59259" lon="2.04136">
        <ele>131</ele>
        <time>2010-03-19T10:46:06Z</time>
      </trkpt>
      <trkpt lat="48.59258" lon="2.04135">
        <ele>131</ele>
        <time>2010-03-19T10:46:07Z</time>
      </trkpt>
      <trkpt lat="48.59256" lon="2.04134">
        <ele>131</ele>
        <time>2010-03-19T10:46:08Z</time>
      </trkpt>
      <trkpt lat="48.59255" lon="2.04133">
        <ele>131</ele>
        <time>2010-03-19T10:46:09Z</time>
      </trkpt>
      <trkpt lat="48.59254" lon="2.04132">
        <ele>131</ele>
        <time>2010-03-19T10:46:10Z</time>
      </trkpt>
      <trkpt lat="48.59253" lon="2.04131">
        <ele>131</ele>
        <time>2010-03-19T10:46:11Z</time>
      </trkpt>
      <trkpt lat="48.59252" lon="2.04129">
        <ele>131</ele>
        <time>2010-03-19T10:46:12Z</time>
      </trkpt>
      <trkpt lat="48.5925" lon="2.04128">
        <ele>131</ele>
        <time>2010-03-19T10:46:13Z</time>
      </trkpt>
      <trkpt lat="48.59249" lon="2.04126">
        <ele>131</ele>
        <time>2010-03-19T10:46:14Z</time>
      </trkpt>
      <trkpt lat="48.59248" lon="2.04124">
        <ele>131</ele>
        <time>2010-03-19T10:46:15Z</time>
      </trkpt>
      <trkpt lat="48.59248" lon="2.04122">
        <ele>131</ele>
        <time>2010-03-19T10:46:16Z</time>
      </trkpt>
      <trkpt lat="48.59247" lon="2.0412">
        <ele>131</ele>
        <time>2010-03-19T10:46:17Z</time>
      </trkpt>
      <trkpt lat="48.59246" lon="2.04118">
        <ele>131</ele>
        <time>2010-03-19T10:46:18Z</time>
      </trkpt>
      <trkpt lat="48.59245" lon="2.04116">
        <ele>131</ele>
        <time>2010-03-19T10:46:19Z</time>
      </trkpt>
      <trkpt lat="48.59243" lon="2.04114">
        <ele>131</ele>
        <time>2010-03-19T10:46:20Z</time>
      </trkpt>
      <trkpt lat="48.59241" lon="2.04111">
        <ele>131</ele>
        <time>2010-03-19T10:46:21Z</time>
      </trkpt>
      <trkpt lat="48.5924" lon="2.0411">
        <ele>131</ele>
        <time>2010-03-19T10:46:22Z</time>
      </trkpt>
      <trkpt lat="48.59239" lon="2.04108">
        <ele>131</ele>
        <time>2010-03-19T10:46:23Z</time>
      </trkpt>
      <trkpt lat="48.59238" lon="2.04106">
        <ele>131</ele>
        <time>2010-03-19T10:46:24Z</time>
      </trkpt>
      <trkpt lat="48.59237" lon="2.04104">
        <ele>131</ele>
        <time>2010-03-19T10:46:25Z</time>
      </trkpt>
      <trkpt lat="48.59235" lon="2.04103">
        <ele>131</ele>
        <time>2010-03-19T10:46:26Z</time>
      </trkpt>
      <trkpt lat="48.59234" lon="2.04103">
        <ele>131</ele>
        <time>2010-03-19T10:46:27Z</time>
      </trkpt>
      <trkpt lat="48.59232" lon="2.04103">
        <ele>131</ele>
        <time>2010-03-19T10:46:28Z</time>
      </trkpt>
      <trkpt lat="48.59231" lon="2.04104">
        <ele>131</ele>
        <time>2010-03-19T10:46:29Z</time>
      </trkpt>
      <trkpt lat="48.59229" lon="2.04104">
        <ele>130</ele>
        <time>2010-03-19T10:46:30Z</time>
      </trkpt>
      <trkpt lat="48.59228" lon="2.04104">
        <ele>130</ele>
        <time>2010-03-19T10:46:31Z</time>
      </trkpt>
      <trkpt lat="48.59226" lon="2.04103">
        <ele>129</ele>
        <time>2010-03-19T10:46:32Z</time>
      </trkpt>
      <trkpt lat="48.59224" lon="2.04101">
        <ele>129</ele>
        <time>2010-03-19T10:46:33Z</time>
      </trkpt>
      <trkpt lat="48.59223" lon="2.041">
        <ele>128</ele>
        <time>2010-03-19T10:46:34Z</time>
      </trkpt>
      <trkpt lat="48.59221" lon="2.041">
        <ele>128</ele>
        <time>2010-03-19T10:46:35Z</time>
      </trkpt>
      <trkpt lat="48.5922" lon="2.041">
        <ele>127</ele>
        <time>2010-03-19T10:46:36Z</time>
      </trkpt>
      <trkpt lat="48.59217" lon="2.041">
        <ele>127</ele>
        <time>2010-03-19T10:46:37Z</time>
      </trkpt>
      <trkpt lat="48.59216" lon="2.041">
        <ele>126</ele>
        <time>2010-03-19T10:46:38Z</time>
      </trkpt>
      <trkpt lat="48.59215" lon="2.04099">
        <ele>126</ele>
        <time>2010-03-19T10:46:39Z</time>
      </trkpt>
      <trkpt lat="48.59213" lon="2.04097">
        <ele>125</ele>
        <time>2010-03-19T10:46:40Z</time>
      </trkpt>
      <trkpt lat="48.59212" lon="2.04096">
        <ele>125</ele>
        <time>2010-03-19T10:46:41Z</time>
      </trkpt>
      <trkpt lat="48.59211" lon="2.04094">
        <ele>124</ele>
        <time>2010-03-19T10:46:42Z</time>
      </trkpt>
      <trkpt lat="48.59209" lon="2.04093">
        <ele>124</ele>
        <time>2010-03-19T10:46:43Z</time>
      </trkpt>
      <trkpt lat="48.59208" lon="2.04092">
        <ele>124</ele>
        <time>2010-03-19T10:46:44Z</time>
      </trkpt>
      <trkpt lat="48.59207" lon="2.04091">
        <ele>123</ele>
        <time>2010-03-19T10:46:45Z</time>
      </trkpt>
      <trkpt lat="48.59206" lon="2.04091">
        <ele>123</ele>
        <time>2010-03-19T10:46:46Z</time>
      </trkpt>
      <trkpt lat="48.59204" lon="2.04089">
        <ele>123</ele>
        <time>2010-03-19T10:46:48Z</time>
      </trkpt>
      <trkpt lat="48.59202" lon="2.04086">
        <ele>123</ele>
        <time>2010-03-19T10:46:50Z</time>
      </trkpt>
      <trkpt lat="48.59201" lon="2.04084">
        <ele>123</ele>
        <time>2010-03-19T10:46:51Z</time>
      </trkpt>
      <trkpt lat="48.592" lon="2.04083">
        <ele>123</ele>
        <time>2010-03-19T10:46:52Z</time>
      </trkpt>
      <trkpt lat="48.59198" lon="2.0408">
        <ele>123</ele>
        <time>2010-03-19T10:46:54Z</time>
      </trkpt>
      <trkpt lat="48.59196" lon="2.04078">
        <ele>123</ele>
        <time>2010-03-19T10:46:56Z</time>
      </trkpt>
      <trkpt lat="48.59195" lon="2.04074">
        <ele>123</ele>
        <time>2010-03-19T10:46:58Z</time>
      </trkpt>
      <trkpt lat="48.59193" lon="2.04072">
        <ele>123</ele>
        <time>2010-03-19T10:46:59Z</time>
      </trkpt>
      <trkpt lat="48.59192" lon="2.0407">
        <ele>123</ele>
        <time>2010-03-19T10:47:00Z</time>
      </trkpt>
      <trkpt lat="48.59192" lon="2.04068">
        <ele>123</ele>
        <time>2010-03-19T10:47:01Z</time>
      </trkpt>
      <trkpt lat="48.59191" lon="2.04066">
        <ele>123</ele>
        <time>2010-03-19T10:47:02Z</time>
      </trkpt>
      <trkpt lat="48.5919" lon="2.04064">
        <ele>123</ele>
        <time>2010-03-19T10:47:03Z</time>
      </trkpt>
      <trkpt lat="48.59189" lon="2.04061">
        <ele>123</ele>
        <time>2010-03-19T10:47:04Z</time>
      </trkpt>
      <trkpt lat="48.59188" lon="2.04059">
        <ele>123</ele>
        <time>2010-03-19T10:47:05Z</time>
      </trkpt>
      <trkpt lat="48.59188" lon="2.04056">
        <ele>123</ele>
        <time>2010-03-19T10:47:06Z</time>
      </trkpt>
      <trkpt lat="48.59187" lon="2.04054">
        <ele>123</ele>
        <time>2010-03-19T10:47:07Z</time>
      </trkpt>
      <trkpt lat="48.59185" lon="2.04052">
        <ele>123</ele>
        <time>2010-03-19T10:47:08Z</time>
      </trkpt>
      <trkpt lat="48.59185" lon="2.04049">
        <ele>123</ele>
        <time>2010-03-19T10:47:09Z</time>
      </trkpt>
      <trkpt lat="48.59185" lon="2.04047">
        <ele>123</ele>
        <time>2010-03-19T10:47:10Z</time>
      </trkpt>
      <trkpt lat="48.59185" lon="2.04044">
        <ele>123</ele>
        <time>2010-03-19T10:47:12Z</time>
      </trkpt>
      <trkpt lat="48.59185" lon="2.04042">
        <ele>123</ele>
        <time>2010-03-19T10:47:13Z</time>
      </trkpt>
      <trkpt lat="48.59184" lon="2.0404">
        <ele>123</ele>
        <time>2010-03-19T10:47:14Z</time>
      </trkpt>
      <trkpt lat="48.59184" lon="2.04036">
        <ele>123</ele>
        <time>2010-03-19T10:47:15Z</time>
      </trkpt>
      <trkpt lat="48.59184" lon="2.04033">
        <ele>123</ele>
        <time>2010-03-19T10:47:16Z</time>
      </trkpt>
      <trkpt lat="48.59183" lon="2.04031">
        <ele>123</ele>
        <time>2010-03-19T10:47:17Z</time>
      </trkpt>
      <trkpt lat="48.59182" lon="2.04028">
        <ele>123</ele>
        <time>2010-03-19T10:47:18Z</time>
      </trkpt>
      <trkpt lat="48.59181" lon="2.04025">
        <ele>123</ele>
        <time>2010-03-19T10:47:19Z</time>
      </trkpt>
      <trkpt lat="48.5918" lon="2.04022">
        <ele>123</ele>
        <time>2010-03-19T10:47:20Z</time>
      </trkpt>
      <trkpt lat="48.5918" lon="2.04019">
        <ele>123</ele>
        <time>2010-03-19T10:47:21Z</time>
      </trkpt>
      <trkpt lat="48.59179" lon="2.04016">
        <ele>123</ele>
        <time>2010-03-19T10:47:22Z</time>
      </trkpt>
      <trkpt lat="48.59179" lon="2.04013">
        <ele>123</ele>
        <time>2010-03-19T10:47:23Z</time>
      </trkpt>
      <trkpt lat="48.59179" lon="2.04011">
        <ele>123</ele>
        <time>2010-03-19T10:47:24Z</time>
      </trkpt>
      <trkpt lat="48.59179" lon="2.04007">
        <ele>123</ele>
        <time>2010-03-19T10:47:25Z</time>
      </trkpt>
      <trkpt lat="48.59179" lon="2.04004">
        <ele>123</ele>
        <time>2010-03-19T10:47:26Z</time>
      </trkpt>
      <trkpt lat="48.59178" lon="2.04001">
        <ele>123</ele>
        <time>2010-03-19T10:47:27Z</time>
      </trkpt>
      <trkpt lat="48.59178" lon="2.03998">
        <ele>123</ele>
        <time>2010-03-19T10:47:28Z</time>
      </trkpt>
      <trkpt lat="48.59178" lon="2.03995">
        <ele>123</ele>
        <time>2010-03-19T10:47:29Z</time>
      </trkpt>
      <trkpt lat="48.59177" lon="2.03992">
        <ele>123</ele>
        <time>2010-03-19T10:47:30Z</time>
      </trkpt>
      <trkpt lat="48.59177" lon="2.0399">
        <ele>123</ele>
        <time>2010-03-19T10:47:31Z</time>
      </trkpt>
      <trkpt lat="48.59177" lon="2.03987">
        <ele>123</ele>
        <time>2010-03-19T10:47:32Z</time>
      </trkpt>
      <trkpt lat="48.59177" lon="2.03985">
        <ele>123</ele>
        <time>2010-03-19T10:47:33Z</time>
      </trkpt>
      <trkpt lat="48.59177" lon="2.03982">
        <ele>123</ele>
        <time>2010-03-19T10:47:34Z</time>
      </trkpt>
      <trkpt lat="48.59177" lon="2.0398">
        <ele>123</ele>
        <time>2010-03-19T10:47:35Z</time>
      </trkpt>
      <trkpt lat="48.59177" lon="2.03977">
        <ele>123</ele>
        <time>2010-03-19T10:47:36Z</time>
      </trkpt>
      <trkpt lat="48.59176" lon="2.03975">
        <ele>123</ele>
        <time>2010-03-19T10:47:37Z</time>
      </trkpt>
      <trkpt lat="48.59177" lon="2.03972">
        <ele>123</ele>
        <time>2010-03-19T10:47:38Z</time>
      </trkpt>
      <trkpt lat="48.59176" lon="2.0397">
        <ele>123</ele>
        <time>2010-03-19T10:47:39Z</time>
      </trkpt>
      <trkpt lat="48.59175" lon="2.03966">
        <ele>123</ele>
        <time>2010-03-19T10:47:40Z</time>
      </trkpt>
      <trkpt lat="48.59176" lon="2.03964">
        <ele>123</ele>
        <time>2010-03-19T10:47:41Z</time>
      </trkpt>
      <trkpt lat="48.59176" lon="2.03962">
        <ele>123</ele>
        <time>2010-03-19T10:47:42Z</time>
      </trkpt>
      <trkpt lat="48.59176" lon="2.03959">
        <ele>123</ele>
        <time>2010-03-19T10:47:43Z</time>
      </trkpt>
      <trkpt lat="48.59176" lon="2.03957">
        <ele>123</ele>
        <time>2010-03-19T10:47:44Z</time>
      </trkpt>
      <trkpt lat="48.59176" lon="2.03955">
        <ele>123</ele>
        <time>2010-03-19T10:47:45Z</time>
      </trkpt>
      <trkpt lat="48.59176" lon="2.03953">
        <ele>123</ele>
        <time>2010-03-19T10:47:46Z</time>
      </trkpt>
      <trkpt lat="48.59176" lon="2.0395">
        <ele>123</ele>
        <time>2010-03-19T10:47:47Z</time>
      </trkpt>
      <trkpt lat="48.59176" lon="2.03947">
        <ele>123</ele>
        <time>2010-03-19T10:47:48Z</time>
      </trkpt>
      <trkpt lat="48.59176" lon="2.03944">
        <ele>123</ele>
        <time>2010-03-19T10:47:49Z</time>
      </trkpt>
      <trkpt lat="48.59176" lon="2.03941">
        <ele>123</ele>
        <time>2010-03-19T10:47:50Z</time>
      </trkpt>
      <trkpt lat="48.59176" lon="2.03938">
        <ele>123</ele>
        <time>2010-03-19T10:47:51Z</time>
      </trkpt>
      <trkpt lat="48.59176" lon="2.03936">
        <ele>123</ele>
        <time>2010-03-19T10:47:52Z</time>
      </trkpt>
      <trkpt lat="48.59176" lon="2.03934">
        <ele>123</ele>
        <time>2010-03-19T10:47:53Z</time>
      </trkpt>
      <trkpt lat="48.59176" lon="2.03932">
        <ele>123</ele>
        <time>2010-03-19T10:47:54Z</time>
      </trkpt>
      <trkpt lat="48.59177" lon="2.03928">
        <ele>122</ele>
        <time>2010-03-19T10:47:56Z</time>
      </trkpt>
      <trkpt lat="48.59177" lon="2.03926">
        <ele>121</ele>
        <time>2010-03-19T10:47:57Z</time>
      </trkpt>
      <trkpt lat="48.59177" lon="2.03924">
        <ele>120</ele>
        <time>2010-03-19T10:47:58Z</time>
      </trkpt>
      <trkpt lat="48.59178" lon="2.03922">
        <ele>120</ele>
        <time>2010-03-19T10:47:59Z</time>
      </trkpt>
      <trkpt lat="48.59179" lon="2.03919">
        <ele>120</ele>
        <time>2010-03-19T10:48:00Z</time>
      </trkpt>
      <trkpt lat="48.59178" lon="2.03917">
        <ele>119</ele>
        <time>2010-03-19T10:48:01Z</time>
      </trkpt>
      <trkpt lat="48.59178" lon="2.03915">
        <ele>119</ele>
        <time>2010-03-19T10:48:02Z</time>
      </trkpt>
      <trkpt lat="48.59178" lon="2.03913">
        <ele>119</ele>
        <time>2010-03-19T10:48:03Z</time>
      </trkpt>
      <trkpt lat="48.59178" lon="2.03911">
        <ele>119</ele>
        <time>2010-03-19T10:48:04Z</time>
      </trkpt>
      <trkpt lat="48.59178" lon="2.03909">
        <ele>118</ele>
        <time>2010-03-19T10:48:05Z</time>
      </trkpt>
      <trkpt lat="48.59178" lon="2.03906">
        <ele>118</ele>
        <time>2010-03-19T10:48:06Z</time>
      </trkpt>
      <trkpt lat="48.59178" lon="2.03903">
        <ele>117</ele>
        <time>2010-03-19T10:48:07Z</time>
      </trkpt>
      <trkpt lat="48.59178" lon="2.03901">
        <ele>117</ele>
        <time>2010-03-19T10:48:08Z</time>
      </trkpt>
      <trkpt lat="48.59177" lon="2.03898">
        <ele>117</ele>
        <time>2010-03-19T10:48:09Z</time>
      </trkpt>
      <trkpt lat="48.59177" lon="2.03895">
        <ele>117</ele>
        <time>2010-03-19T10:48:10Z</time>
      </trkpt>
      <trkpt lat="48.59177" lon="2.03893">
        <ele>116</ele>
        <time>2010-03-19T10:48:11Z</time>
      </trkpt>
      <trkpt lat="48.59177" lon="2.03891">
        <ele>116</ele>
        <time>2010-03-19T10:48:12Z</time>
      </trkpt>
      <trkpt lat="48.59177" lon="2.03889">
        <ele>116</ele>
        <time>2010-03-19T10:48:13Z</time>
      </trkpt>
      <trkpt lat="48.59177" lon="2.03887">
        <ele>116</ele>
        <time>2010-03-19T10:48:14Z</time>
      </trkpt>
      <trkpt lat="48.59177" lon="2.03884">
        <ele>115</ele>
        <time>2010-03-19T10:48:15Z</time>
      </trkpt>
      <trkpt lat="48.59177" lon="2.03881">
        <ele>115</ele>
        <time>2010-03-19T10:48:16Z</time>
      </trkpt>
      <trkpt lat="48.59176" lon="2.03879">
        <ele>115</ele>
        <time>2010-03-19T10:48:17Z</time>
      </trkpt>
      <trkpt lat="48.59176" lon="2.03876">
        <ele>114</ele>
        <time>2010-03-19T10:48:18Z</time>
      </trkpt>
      <trkpt lat="48.59176" lon="2.03873">
        <ele>114</ele>
        <time>2010-03-19T10:48:19Z</time>
      </trkpt>
      <trkpt lat="48.59176" lon="2.03871">
        <ele>114</ele>
        <time>2010-03-19T10:48:20Z</time>
      </trkpt>
      <trkpt lat="48.59176" lon="2.03868">
        <ele>114</ele>
        <time>2010-03-19T10:48:21Z</time>
      </trkpt>
      <trkpt lat="48.59175" lon="2.03865">
        <ele>114</ele>
        <time>2010-03-19T10:48:22Z</time>
      </trkpt>
      <trkpt lat="48.59175" lon="2.03863">
        <ele>113</ele>
        <time>2010-03-19T10:48:23Z</time>
      </trkpt>
      <trkpt lat="48.59175" lon="2.0386">
        <ele>113</ele>
        <time>2010-03-19T10:48:24Z</time>
      </trkpt>
      <trkpt lat="48.59175" lon="2.03858">
        <ele>112</ele>
        <time>2010-03-19T10:48:25Z</time>
      </trkpt>
      <trkpt lat="48.59175" lon="2.03855">
        <ele>112</ele>
        <time>2010-03-19T10:48:26Z</time>
      </trkpt>
      <trkpt lat="48.59175" lon="2.03852">
        <ele>112</ele>
        <time>2010-03-19T10:48:27Z</time>
      </trkpt>
      <trkpt lat="48.59175" lon="2.03849">
        <ele>112</ele>
        <time>2010-03-19T10:48:28Z</time>
      </trkpt>
      <trkpt lat="48.59175" lon="2.03847">
        <ele>112</ele>
        <time>2010-03-19T10:48:29Z</time>
      </trkpt>
      <trkpt lat="48.59175" lon="2.03845">
        <ele>111</ele>
        <time>2010-03-19T10:48:30Z</time>
      </trkpt>
      <trkpt lat="48.59175" lon="2.03842">
        <ele>111</ele>
        <time>2010-03-19T10:48:31Z</time>
      </trkpt>
      <trkpt lat="48.59175" lon="2.0384">
        <ele>111</ele>
        <time>2010-03-19T10:48:32Z</time>
      </trkpt>
      <trkpt lat="48.59175" lon="2.03838">
        <ele>111</ele>
        <time>2010-03-19T10:48:33Z</time>
      </trkpt>
      <trkpt lat="48.59175" lon="2.03835">
        <ele>110</ele>
        <time>2010-03-19T10:48:34Z</time>
      </trkpt>
      <trkpt lat="48.59176" lon="2.03833">
        <ele>110</ele>
        <time>2010-03-19T10:48:35Z</time>
      </trkpt>
      <trkpt lat="48.59176" lon="2.0383">
        <ele>110</ele>
        <time>2010-03-19T10:48:36Z</time>
      </trkpt>
      <trkpt lat="48.59176" lon="2.03828">
        <ele>110</ele>
        <time>2010-03-19T10:48:37Z</time>
      </trkpt>
      <trkpt lat="48.59176" lon="2.03825">
        <ele>110</ele>
        <time>2010-03-19T10:48:38Z</time>
      </trkpt>
      <trkpt lat="48.59176" lon="2.03823">
        <ele>110</ele>
        <time>2010-03-19T10:48:39Z</time>
      </trkpt>
      <trkpt lat="48.59175" lon="2.0382">
        <ele>110</ele>
        <time>2010-03-19T10:48:40Z</time>
      </trkpt>
      <trkpt lat="48.59175" lon="2.03817">
        <ele>110</ele>
        <time>2010-03-19T10:48:41Z</time>
      </trkpt>
      <trkpt lat="48.59175" lon="2.03814">
        <ele>110</ele>
        <time>2010-03-19T10:48:42Z</time>
      </trkpt>
      <trkpt lat="48.59175" lon="2.03812">
        <ele>110</ele>
        <time>2010-03-19T10:48:43Z</time>
      </trkpt>
      <trkpt lat="48.59175" lon="2.03809">
        <ele>110</ele>
        <time>2010-03-19T10:48:44Z</time>
      </trkpt>
      <trkpt lat="48.59175" lon="2.03806">
        <ele>110</ele>
        <time>2010-03-19T10:48:45Z</time>
      </trkpt>
      <trkpt lat="48.59175" lon="2.03803">
        <ele>110</ele>
        <time>2010-03-19T10:48:46Z</time>
      </trkpt>
      <trkpt lat="48.59175" lon="2.03801">
        <ele>110</ele>
        <time>2010-03-19T10:48:47Z</time>
      </trkpt>
      <trkpt lat="48.59175" lon="2.03798">
        <ele>110</ele>
        <time>2010-03-19T10:48:48Z</time>
      </trkpt>
      <trkpt lat="48.59176" lon="2.03796">
        <ele>110</ele>
        <time>2010-03-19T10:48:49Z</time>
      </trkpt>
      <trkpt lat="48.59176" lon="2.03793">
        <ele>110</ele>
        <time>2010-03-19T10:48:50Z</time>
      </trkpt>
      <trkpt lat="48.59175" lon="2.0379">
        <ele>110</ele>
        <time>2010-03-19T10:48:51Z</time>
      </trkpt>
      <trkpt lat="48.59175" lon="2.03787">
        <ele>110</ele>
        <time>2010-03-19T10:48:52Z</time>
      </trkpt>
      <trkpt lat="48.59174" lon="2.03784">
        <ele>110</ele>
        <time>2010-03-19T10:48:53Z</time>
      </trkpt>
      <trkpt lat="48.59174" lon="2.03781">
        <ele>110</ele>
        <time>2010-03-19T10:48:54Z</time>
      </trkpt>
      <trkpt lat="48.59173" lon="2.03779">
        <ele>110</ele>
        <time>2010-03-19T10:48:55Z</time>
      </trkpt>
      <trkpt lat="48.59173" lon="2.03776">
        <ele>110</ele>
        <time>2010-03-19T10:48:56Z</time>
      </trkpt>
      <trkpt lat="48.59173" lon="2.03773">
        <ele>110</ele>
        <time>2010-03-19T10:48:57Z</time>
      </trkpt>
      <trkpt lat="48.59173" lon="2.03772">
        <ele>110</ele>
        <time>2010-03-19T10:48:58Z</time>
      </trkpt>
      <trkpt lat="48.59174" lon="2.03769">
        <ele>110</ele>
        <time>2010-03-19T10:48:59Z</time>
      </trkpt>
      <trkpt lat="48.59174" lon="2.03766">
        <ele>110</ele>
        <time>2010-03-19T10:49:00Z</time>
      </trkpt>
      <trkpt lat="48.59174" lon="2.03763">
        <ele>110</ele>
        <time>2010-03-19T10:49:01Z</time>
      </trkpt>
      <trkpt lat="48.59174" lon="2.0376">
        <ele>110</ele>
        <time>2010-03-19T10:49:02Z</time>
      </trkpt>
      <trkpt lat="48.59173" lon="2.03758">
        <ele>110</ele>
        <time>2010-03-19T10:49:03Z</time>
      </trkpt>
      <trkpt lat="48.59174" lon="2.03755">
        <ele>110</ele>
        <time>2010-03-19T10:49:04Z</time>
      </trkpt>
      <trkpt lat="48.59174" lon="2.03753">
        <ele>110</ele>
        <time>2010-03-19T10:49:05Z</time>
      </trkpt>
      <trkpt lat="48.59174" lon="2.0375">
        <ele>111</ele>
        <time>2010-03-19T10:49:06Z</time>
      </trkpt>
      <trkpt lat="48.59174" lon="2.03747">
        <ele>111</ele>
        <time>2010-03-19T10:49:07Z</time>
      </trkpt>
      <trkpt lat="48.59174" lon="2.03745">
        <ele>111</ele>
        <time>2010-03-19T10:49:08Z</time>
      </trkpt>
      <trkpt lat="48.59174" lon="2.03742">
        <ele>111</ele>
        <time>2010-03-19T10:49:09Z</time>
      </trkpt>
      <trkpt lat="48.59173" lon="2.03739">
        <ele>111</ele>
        <time>2010-03-19T10:49:10Z</time>
      </trkpt>
      <trkpt lat="48.59173" lon="2.03737">
        <ele>111</ele>
        <time>2010-03-19T10:49:11Z</time>
      </trkpt>
      <trkpt lat="48.59173" lon="2.03733">
        <ele>111</ele>
        <time>2010-03-19T10:49:12Z</time>
      </trkpt>
      <trkpt lat="48.59172" lon="2.0373">
        <ele>111</ele>
        <time>2010-03-19T10:49:13Z</time>
      </trkpt>
      <trkpt lat="48.59172" lon="2.03727">
        <ele>111</ele>
        <time>2010-03-19T10:49:14Z</time>
      </trkpt>
      <trkpt lat="48.59171" lon="2.03724">
        <ele>112</ele>
        <time>2010-03-19T10:49:15Z</time>
      </trkpt>
      <trkpt lat="48.59172" lon="2.03721">
        <ele>112</ele>
        <time>2010-03-19T10:49:16Z</time>
      </trkpt>
      <trkpt lat="48.59172" lon="2.03719">
        <ele>113</ele>
        <time>2010-03-19T10:49:17Z</time>
      </trkpt>
      <trkpt lat="48.59173" lon="2.03716">
        <ele>114</ele>
        <time>2010-03-19T10:49:19Z</time>
      </trkpt>
      <trkpt lat="48.59173" lon="2.03714">
        <ele>114</ele>
        <time>2010-03-19T10:49:20Z</time>
      </trkpt>
      <trkpt lat="48.59173" lon="2.03713">
        <ele>114</ele>
        <time>2010-03-19T10:49:21Z</time>
      </trkpt>
      <trkpt lat="48.59172" lon="2.0371">
        <ele>114</ele>
        <time>2010-03-19T10:49:22Z</time>
      </trkpt>
      <trkpt lat="48.59172" lon="2.03707">
        <ele>114</ele>
        <time>2010-03-19T10:49:23Z</time>
      </trkpt>
      <trkpt lat="48.59172" lon="2.03704">
        <ele>114</ele>
        <time>2010-03-19T10:49:24Z</time>
      </trkpt>
      <trkpt lat="48.59171" lon="2.037">
        <ele>114</ele>
        <time>2010-03-19T10:49:25Z</time>
      </trkpt>
      <trkpt lat="48.59171" lon="2.03697">
        <ele>115</ele>
        <time>2010-03-19T10:49:26Z</time>
      </trkpt>
      <trkpt lat="48.59171" lon="2.03694">
        <ele>115</ele>
        <time>2010-03-19T10:49:27Z</time>
      </trkpt>
      <trkpt lat="48.59171" lon="2.03692">
        <ele>115</ele>
        <time>2010-03-19T10:49:28Z</time>
      </trkpt>
      <trkpt lat="48.59171" lon="2.03689">
        <ele>116</ele>
        <time>2010-03-19T10:49:29Z</time>
      </trkpt>
      <trkpt lat="48.59171" lon="2.03686">
        <ele>116</ele>
        <time>2010-03-19T10:49:30Z</time>
      </trkpt>
      <trkpt lat="48.59172" lon="2.03684">
        <ele>116</ele>
        <time>2010-03-19T10:49:31Z</time>
      </trkpt>
      <trkpt lat="48.59172" lon="2.03682">
        <ele>117</ele>
        <time>2010-03-19T10:49:32Z</time>
      </trkpt>
      <trkpt lat="48.59172" lon="2.0368">
        <ele>117</ele>
        <time>2010-03-19T10:49:33Z</time>
      </trkpt>
      <trkpt lat="48.59173" lon="2.03677">
        <ele>117</ele>
        <time>2010-03-19T10:49:34Z</time>
      </trkpt>
      <trkpt lat="48.59173" lon="2.03675">
        <ele>117</ele>
        <time>2010-03-19T10:49:35Z</time>
      </trkpt>
      <trkpt lat="48.59173" lon="2.03673">
        <ele>117</ele>
        <time>2010-03-19T10:49:36Z</time>
      </trkpt>
      <trkpt lat="48.59173" lon="2.03669">
        <ele>117</ele>
        <time>2010-03-19T10:49:37Z</time>
      </trkpt>
      <trkpt lat="48.59172" lon="2.03666">
        <ele>117</ele>
        <time>2010-03-19T10:49:38Z</time>
      </trkpt>
      <trkpt lat="48.59172" lon="2.03662">
        <ele>117</ele>
        <time>2010-03-19T10:49:39Z</time>
      </trkpt>
      <trkpt lat="48.59172" lon="2.0366">
        <ele>118</ele>
        <time>2010-03-19T10:49:40Z</time>
      </trkpt>
      <trkpt lat="48.59173" lon="2.03657">
        <ele>118</ele>
        <time>2010-03-19T10:49:41Z</time>
      </trkpt>
      <trkpt lat="48.59173" lon="2.03655">
        <ele>118</ele>
        <time>2010-03-19T10:49:42Z</time>
      </trkpt>
      <trkpt lat="48.59173" lon="2.03652">
        <ele>118</ele>
        <time>2010-03-19T10:49:43Z</time>
      </trkpt>
      <trkpt lat="48.59173" lon="2.0365">
        <ele>118</ele>
        <time>2010-03-19T10:49:44Z</time>
      </trkpt>
      <trkpt lat="48.59173" lon="2.03648">
        <ele>118</ele>
        <time>2010-03-19T10:49:45Z</time>
      </trkpt>
      <trkpt lat="48.59174" lon="2.03645">
        <ele>118</ele>
        <time>2010-03-19T10:49:46Z</time>
      </trkpt>
      <trkpt lat="48.59174" lon="2.03642">
        <ele>118</ele>
        <time>2010-03-19T10:49:47Z</time>
      </trkpt>
      <trkpt lat="48.59174" lon="2.0364">
        <ele>118</ele>
        <time>2010-03-19T10:49:48Z</time>
      </trkpt>
      <trkpt lat="48.59174" lon="2.03637">
        <ele>119</ele>
        <time>2010-03-19T10:49:49Z</time>
      </trkpt>
      <trkpt lat="48.59173" lon="2.03633">
        <ele>120</ele>
        <time>2010-03-19T10:49:50Z</time>
      </trkpt>
      <trkpt lat="48.59172" lon="2.03631">
        <ele>121</ele>
        <time>2010-03-19T10:49:51Z</time>
      </trkpt>
      <trkpt lat="48.59173" lon="2.03629">
        <ele>121</ele>
        <time>2010-03-19T10:49:52Z</time>
      </trkpt>
      <trkpt lat="48.59173" lon="2.03626">
        <ele>122</ele>
        <time>2010-03-19T10:49:53Z</time>
      </trkpt>
      <trkpt lat="48.59174" lon="2.03624">
        <ele>122</ele>
        <time>2010-03-19T10:49:54Z</time>
      </trkpt>
      <trkpt lat="48.59174" lon="2.03622">
        <ele>122</ele>
        <time>2010-03-19T10:49:55Z</time>
      </trkpt>
      <trkpt lat="48.59174" lon="2.03621">
        <ele>122</ele>
        <time>2010-03-19T10:49:56Z</time>
      </trkpt>
      <trkpt lat="48.59175" lon="2.03618">
        <ele>122</ele>
        <time>2010-03-19T10:49:57Z</time>
      </trkpt>
      <trkpt lat="48.59175" lon="2.03616">
        <ele>122</ele>
        <time>2010-03-19T10:49:58Z</time>
      </trkpt>
      <trkpt lat="48.59175" lon="2.03613">
        <ele>122</ele>
        <time>2010-03-19T10:49:59Z</time>
      </trkpt>
      <trkpt lat="48.59175" lon="2.03612">
        <ele>122</ele>
        <time>2010-03-19T10:50:00Z</time>
      </trkpt>
      <trkpt lat="48.59175" lon="2.0361">
        <ele>122</ele>
        <time>2010-03-19T10:50:01Z</time>
      </trkpt>
      <trkpt lat="48.59174" lon="2.03608">
        <ele>122</ele>
        <time>2010-03-19T10:50:02Z</time>
      </trkpt>
      <trkpt lat="48.59174" lon="2.03605">
        <ele>122</ele>
        <time>2010-03-19T10:50:03Z</time>
      </trkpt>
      <trkpt lat="48.59174" lon="2.03603">
        <ele>122</ele>
        <time>2010-03-19T10:50:04Z</time>
      </trkpt>
      <trkpt lat="48.59174" lon="2.036">
        <ele>122</ele>
        <time>2010-03-19T10:50:05Z</time>
      </trkpt>
      <trkpt lat="48.59174" lon="2.03597">
        <ele>122</ele>
        <time>2010-03-19T10:50:06Z</time>
      </trkpt>
      <trkpt lat="48.59174" lon="2.03594">
        <ele>122</ele>
        <time>2010-03-19T10:50:07Z</time>
      </trkpt>
      <trkpt lat="48.59175" lon="2.03592">
        <ele>122</ele>
        <time>2010-03-19T10:50:08Z</time>
      </trkpt>
      <trkpt lat="48.59175" lon="2.0359">
        <ele>122</ele>
        <time>2010-03-19T10:50:09Z</time>
      </trkpt>
      <trkpt lat="48.59174" lon="2.03588">
        <ele>122</ele>
        <time>2010-03-19T10:50:10Z</time>
      </trkpt>
      <trkpt lat="48.59174" lon="2.03585">
        <ele>122</ele>
        <time>2010-03-19T10:50:11Z</time>
      </trkpt>
      <trkpt lat="48.59174" lon="2.03583">
        <ele>122</ele>
        <time>2010-03-19T10:50:12Z</time>
      </trkpt>
      <trkpt lat="48.59174" lon="2.0358">
        <ele>122</ele>
        <time>2010-03-19T10:50:13Z</time>
      </trkpt>
      <trkpt lat="48.59174" lon="2.03578">
        <ele>122</ele>
        <time>2010-03-19T10:50:14Z</time>
      </trkpt>
      <trkpt lat="48.59175" lon="2.03575">
        <ele>122</ele>
        <time>2010-03-19T10:50:15Z</time>
      </trkpt>
      <trkpt lat="48.59175" lon="2.03573">
        <ele>122</ele>
        <time>2010-03-19T10:50:16Z</time>
      </trkpt>
      <trkpt lat="48.59175" lon="2.03571">
        <ele>122</ele>
        <time>2010-03-19T10:50:17Z</time>
      </trkpt>
      <trkpt lat="48.59175" lon="2.03568">
        <ele>122</ele>
        <time>2010-03-19T10:50:18Z</time>
      </trkpt>
      <trkpt lat="48.59175" lon="2.03565">
        <ele>122</ele>
        <time>2010-03-19T10:50:19Z</time>
      </trkpt>
      <trkpt lat="48.59175" lon="2.03562">
        <ele>122</ele>
        <time>2010-03-19T10:50:20Z</time>
      </trkpt>
      <trkpt lat="48.59175" lon="2.0356">
        <ele>122</ele>
        <time>2010-03-19T10:50:21Z</time>
      </trkpt>
      <trkpt lat="48.59175" lon="2.03557">
        <ele>122</ele>
        <time>2010-03-19T10:50:22Z</time>
      </trkpt>
      <trkpt lat="48.59175" lon="2.03554">
        <ele>122</ele>
        <time>2010-03-19T10:50:23Z</time>
      </trkpt>
      <trkpt lat="48.59175" lon="2.03551">
        <ele>122</ele>
        <time>2010-03-19T10:50:24Z</time>
      </trkpt>
      <trkpt lat="48.59175" lon="2.03548">
        <ele>122</ele>
        <time>2010-03-19T10:50:25Z</time>
      </trkpt>
      <trkpt lat="48.59175" lon="2.03545">
        <ele>122</ele>
        <time>2010-03-19T10:50:26Z</time>
      </trkpt>
      <trkpt lat="48.59175" lon="2.03542">
        <ele>122</ele>
        <time>2010-03-19T10:50:27Z</time>
      </trkpt>
      <trkpt lat="48.59175" lon="2.03539">
        <ele>122</ele>
        <time>2010-03-19T10:50:28Z</time>
      </trkpt>
      <trkpt lat="48.59175" lon="2.03536">
        <ele>122</ele>
        <time>2010-03-19T10:50:29Z</time>
      </trkpt>
      <trkpt lat="48.59175" lon="2.03532">
        <ele>122</ele>
        <time>2010-03-19T10:50:30Z</time>
      </trkpt>
      <trkpt lat="48.59175" lon="2.03528">
        <ele>122</ele>
        <time>2010-03-19T10:50:31Z</time>
      </trkpt>
      <trkpt lat="48.59175" lon="2.03525">
        <ele>122</ele>
        <time>2010-03-19T10:50:32Z</time>
      </trkpt>
      <trkpt lat="48.59175" lon="2.03523">
        <ele>122</ele>
        <time>2010-03-19T10:50:33Z</time>
      </trkpt>
      <trkpt lat="48.59175" lon="2.0352">
        <ele>122</ele>
        <time>2010-03-19T10:50:34Z</time>
      </trkpt>
      <trkpt lat="48.59175" lon="2.03518">
        <ele>122</ele>
        <time>2010-03-19T10:50:35Z</time>
      </trkpt>
      <trkpt lat="48.59175" lon="2.03515">
        <ele>122</ele>
        <time>2010-03-19T10:50:36Z</time>
      </trkpt>
      <trkpt lat="48.59175" lon="2.03513">
        <ele>122</ele>
        <time>2010-03-19T10:50:37Z</time>
      </trkpt>
      <trkpt lat="48.59174" lon="2.0351">
        <ele>122</ele>
        <time>2010-03-19T10:50:38Z</time>
      </trkpt>
      <trkpt lat="48.59174" lon="2.03507">
        <ele>122</ele>
        <time>2010-03-19T10:50:39Z</time>
      </trkpt>
      <trkpt lat="48.59174" lon="2.03505">
        <ele>122</ele>
        <time>2010-03-19T10:50:40Z</time>
      </trkpt>
      <trkpt lat="48.59174" lon="2.03503">
        <ele>122</ele>
        <time>2010-03-19T10:50:41Z</time>
      </trkpt>
      <trkpt lat="48.59174" lon="2.035">
        <ele>122</ele>
        <time>2010-03-19T10:50:42Z</time>
      </trkpt>
      <trkpt lat="48.59174" lon="2.03497">
        <ele>122</ele>
        <time>2010-03-19T10:50:43Z</time>
      </trkpt>
      <trkpt lat="48.59174" lon="2.03493">
        <ele>122</ele>
        <time>2010-03-19T10:50:44Z</time>
      </trkpt>
      <trkpt lat="48.59173" lon="2.03488">
        <ele>122</ele>
        <time>2010-03-19T10:50:45Z</time>
      </trkpt>
      <trkpt lat="48.59173" lon="2.03483">
        <ele>122</ele>
        <time>2010-03-19T10:50:46Z</time>
      </trkpt>
      <trkpt lat="48.59172" lon="2.03477">
        <ele>122</ele>
        <time>2010-03-19T10:50:47Z</time>
      </trkpt>
      <trkpt lat="48.59172" lon="2.03472">
        <ele>122</ele>
        <time>2010-03-19T10:50:48Z</time>
      </trkpt>
      <trkpt lat="48.59171" lon="2.03467">
        <ele>122</ele>
        <time>2010-03-19T10:50:49Z</time>
      </trkpt>
      <trkpt lat="48.59171" lon="2.03461">
        <ele>122</ele>
        <time>2010-03-19T10:50:50Z</time>
      </trkpt>
      <trkpt lat="48.59171" lon="2.03456">
        <ele>122</ele>
        <time>2010-03-19T10:50:51Z</time>
      </trkpt>
      <trkpt lat="48.5917" lon="2.0345">
        <ele>122</ele>
        <time>2010-03-19T10:50:52Z</time>
      </trkpt>
      <trkpt lat="48.59169" lon="2.03444">
        <ele>122</ele>
        <time>2010-03-19T10:50:53Z</time>
      </trkpt>
      <trkpt lat="48.59168" lon="2.03437">
        <ele>122</ele>
        <time>2010-03-19T10:50:54Z</time>
      </trkpt>
      <trkpt lat="48.59167" lon="2.0343">
        <ele>122</ele>
        <time>2010-03-19T10:50:55Z</time>
      </trkpt>
      <trkpt lat="48.59167" lon="2.03423">
        <ele>122</ele>
        <time>2010-03-19T10:50:56Z</time>
      </trkpt>
      <trkpt lat="48.59166" lon="2.03416">
        <ele>122</ele>
        <time>2010-03-19T10:50:57Z</time>
      </trkpt>
      <trkpt lat="48.59165" lon="2.03411">
        <ele>122</ele>
        <time>2010-03-19T10:50:58Z</time>
      </trkpt>
      <trkpt lat="48.59165" lon="2.03404">
        <ele>122</ele>
        <time>2010-03-19T10:50:59Z</time>
      </trkpt>
      <trkpt lat="48.59164" lon="2.03398">
        <ele>122</ele>
        <time>2010-03-19T10:51:00Z</time>
      </trkpt>
      <trkpt lat="48.59164" lon="2.03392">
        <ele>122</ele>
        <time>2010-03-19T10:51:01Z</time>
      </trkpt>
      <trkpt lat="48.59163" lon="2.03385">
        <ele>122</ele>
        <time>2010-03-19T10:51:02Z</time>
      </trkpt>
      <trkpt lat="48.59163" lon="2.03379">
        <ele>122</ele>
        <time>2010-03-19T10:51:03Z</time>
      </trkpt>
      <trkpt lat="48.59162" lon="2.03372">
        <ele>122</ele>
        <time>2010-03-19T10:51:04Z</time>
      </trkpt>
      <trkpt lat="48.59162" lon="2.03366">
        <ele>122</ele>
        <time>2010-03-19T10:51:05Z</time>
      </trkpt>
      <trkpt lat="48.59161" lon="2.0336">
        <ele>122</ele>
        <time>2010-03-19T10:51:06Z</time>
      </trkpt>
      <trkpt lat="48.59161" lon="2.03355">
        <ele>122</ele>
        <time>2010-03-19T10:51:07Z</time>
      </trkpt>
      <trkpt lat="48.59161" lon="2.0335">
        <ele>122</ele>
        <time>2010-03-19T10:51:08Z</time>
      </trkpt>
      <trkpt lat="48.59162" lon="2.03345">
        <ele>122</ele>
        <time>2010-03-19T10:51:09Z</time>
      </trkpt>
      <trkpt lat="48.59162" lon="2.0334">
        <ele>122</ele>
        <time>2010-03-19T10:51:10Z</time>
      </trkpt>
      <trkpt lat="48.59161" lon="2.03333">
        <ele>122</ele>
        <time>2010-03-19T10:51:11Z</time>
      </trkpt>
      <trkpt lat="48.59161" lon="2.03327">
        <ele>122</ele>
        <time>2010-03-19T10:51:12Z</time>
      </trkpt>
      <trkpt lat="48.59161" lon="2.03322">
        <ele>122</ele>
        <time>2010-03-19T10:51:13Z</time>
      </trkpt>
      <trkpt lat="48.59161" lon="2.03316">
        <ele>122</ele>
        <time>2010-03-19T10:51:14Z</time>
      </trkpt>
      <trkpt lat="48.59161" lon="2.03309">
        <ele>122</ele>
        <time>2010-03-19T10:51:15Z</time>
      </trkpt>
      <trkpt lat="48.59161" lon="2.03304">
        <ele>122</ele>
        <time>2010-03-19T10:51:16Z</time>
      </trkpt>
      <trkpt lat="48.5916" lon="2.03298">
        <ele>122</ele>
        <time>2010-03-19T10:51:17Z</time>
      </trkpt>
      <trkpt lat="48.5916" lon="2.03292">
        <ele>122</ele>
        <time>2010-03-19T10:51:18Z</time>
      </trkpt>
      <trkpt lat="48.5916" lon="2.03287">
        <ele>122</ele>
        <time>2010-03-19T10:51:19Z</time>
      </trkpt>
      <trkpt lat="48.5916" lon="2.03281">
        <ele>122</ele>
        <time>2010-03-19T10:51:20Z</time>
      </trkpt>
      <trkpt lat="48.59159" lon="2.03274">
        <ele>122</ele>
        <time>2010-03-19T10:51:21Z</time>
      </trkpt>
      <trkpt lat="48.59159" lon="2.03268">
        <ele>122</ele>
        <time>2010-03-19T10:51:22Z</time>
      </trkpt>
      <trkpt lat="48.59159" lon="2.03262">
        <ele>122</ele>
        <time>2010-03-19T10:51:23Z</time>
      </trkpt>
      <trkpt lat="48.59158" lon="2.03255">
        <ele>122</ele>
        <time>2010-03-19T10:51:24Z</time>
      </trkpt>
      <trkpt lat="48.59158" lon="2.03248">
        <ele>122</ele>
        <time>2010-03-19T10:51:25Z</time>
      </trkpt>
      <trkpt lat="48.59158" lon="2.03242">
        <ele>122</ele>
        <time>2010-03-19T10:51:26Z</time>
      </trkpt>
      <trkpt lat="48.59158" lon="2.03235">
        <ele>122</ele>
        <time>2010-03-19T10:51:27Z</time>
      </trkpt>
      <trkpt lat="48.59158" lon="2.03228">
        <ele>122</ele>
        <time>2010-03-19T10:51:28Z</time>
      </trkpt>
      <trkpt lat="48.59158" lon="2.03222">
        <ele>122</ele>
        <time>2010-03-19T10:51:29Z</time>
      </trkpt>
      <trkpt lat="48.59159" lon="2.03216">
        <ele>122</ele>
        <time>2010-03-19T10:51:30Z</time>
      </trkpt>
      <trkpt lat="48.59158" lon="2.03209">
        <ele>122</ele>
        <time>2010-03-19T10:51:31Z</time>
      </trkpt>
      <trkpt lat="48.59158" lon="2.03201">
        <ele>121</ele>
        <time>2010-03-19T10:51:32Z</time>
      </trkpt>
      <trkpt lat="48.59158" lon="2.03192">
        <ele>121</ele>
        <time>2010-03-19T10:51:33Z</time>
      </trkpt>
      <trkpt lat="48.59157" lon="2.03185">
        <ele>121</ele>
        <time>2010-03-19T10:51:34Z</time>
      </trkpt>
      <trkpt lat="48.59156" lon="2.03177">
        <ele>121</ele>
        <time>2010-03-19T10:51:35Z</time>
      </trkpt>
      <trkpt lat="48.59156" lon="2.03169">
        <ele>121</ele>
        <time>2010-03-19T10:51:36Z</time>
      </trkpt>
      <trkpt lat="48.59156" lon="2.03162">
        <ele>121</ele>
        <time>2010-03-19T10:51:37Z</time>
      </trkpt>
      <trkpt lat="48.59156" lon="2.03154">
        <ele>121</ele>
        <time>2010-03-19T10:51:38Z</time>
      </trkpt>
      <trkpt lat="48.59156" lon="2.03147">
        <ele>121</ele>
        <time>2010-03-19T10:51:39Z</time>
      </trkpt>
      <trkpt lat="48.59156" lon="2.0314">
        <ele>121</ele>
        <time>2010-03-19T10:51:40Z</time>
      </trkpt>
      <trkpt lat="48.59156" lon="2.03134">
        <ele>121</ele>
        <time>2010-03-19T10:51:41Z</time>
      </trkpt>
      <trkpt lat="48.59156" lon="2.03128">
        <ele>121</ele>
        <time>2010-03-19T10:51:42Z</time>
      </trkpt>
      <trkpt lat="48.59156" lon="2.03121">
        <ele>121</ele>
        <time>2010-03-19T10:51:43Z</time>
      </trkpt>
      <trkpt lat="48.59155" lon="2.03114">
        <ele>121</ele>
        <time>2010-03-19T10:51:44Z</time>
      </trkpt>
      <trkpt lat="48.59155" lon="2.03107">
        <ele>121</ele>
        <time>2010-03-19T10:51:45Z</time>
      </trkpt>
      <trkpt lat="48.59154" lon="2.03099">
        <ele>121</ele>
        <time>2010-03-19T10:51:46Z</time>
      </trkpt>
      <trkpt lat="48.59154" lon="2.03092">
        <ele>121</ele>
        <time>2010-03-19T10:51:47Z</time>
      </trkpt>
      <trkpt lat="48.59153" lon="2.03085">
        <ele>121</ele>
        <time>2010-03-19T10:51:48Z</time>
      </trkpt>
      <trkpt lat="48.59152" lon="2.03078">
        <ele>121</ele>
        <time>2010-03-19T10:51:49Z</time>
      </trkpt>
      <trkpt lat="48.59151" lon="2.03071">
        <ele>121</ele>
        <time>2010-03-19T10:51:50Z</time>
      </trkpt>
      <trkpt lat="48.59151" lon="2.03064">
        <ele>121</ele>
        <time>2010-03-19T10:51:51Z</time>
      </trkpt>
      <trkpt lat="48.5915" lon="2.03057">
        <ele>121</ele>
        <time>2010-03-19T10:51:52Z</time>
      </trkpt>
      <trkpt lat="48.5915" lon="2.0305">
        <ele>121</ele>
        <time>2010-03-19T10:51:53Z</time>
      </trkpt>
      <trkpt lat="48.59149" lon="2.03044">
        <ele>121</ele>
        <time>2010-03-19T10:51:54Z</time>
      </trkpt>
      <trkpt lat="48.59149" lon="2.03037">
        <ele>121</ele>
        <time>2010-03-19T10:51:55Z</time>
      </trkpt>
      <trkpt lat="48.59148" lon="2.03031">
        <ele>121</ele>
        <time>2010-03-19T10:51:56Z</time>
      </trkpt>
      <trkpt lat="48.59148" lon="2.03024">
        <ele>121</ele>
        <time>2010-03-19T10:51:57Z</time>
      </trkpt>
      <trkpt lat="48.59147" lon="2.03018">
        <ele>121</ele>
        <time>2010-03-19T10:51:58Z</time>
      </trkpt>
      <trkpt lat="48.59146" lon="2.03011">
        <ele>121</ele>
        <time>2010-03-19T10:51:59Z</time>
      </trkpt>
      <trkpt lat="48.59146" lon="2.03004">
        <ele>121</ele>
        <time>2010-03-19T10:52:00Z</time>
      </trkpt>
      <trkpt lat="48.59146" lon="2.02997">
        <ele>121</ele>
        <time>2010-03-19T10:52:01Z</time>
      </trkpt>
      <trkpt lat="48.59145" lon="2.0299">
        <ele>121</ele>
        <time>2010-03-19T10:52:02Z</time>
      </trkpt>
      <trkpt lat="48.59145" lon="2.02983">
        <ele>121</ele>
        <time>2010-03-19T10:52:03Z</time>
      </trkpt>
      <trkpt lat="48.59144" lon="2.02976">
        <ele>121</ele>
        <time>2010-03-19T10:52:04Z</time>
      </trkpt>
      <trkpt lat="48.59144" lon="2.02969">
        <ele>121</ele>
        <time>2010-03-19T10:52:05Z</time>
      </trkpt>
      <trkpt lat="48.59143" lon="2.02962">
        <ele>121</ele>
        <time>2010-03-19T10:52:06Z</time>
      </trkpt>
      <trkpt lat="48.59143" lon="2.02955">
        <ele>121</ele>
        <time>2010-03-19T10:52:07Z</time>
      </trkpt>
      <trkpt lat="48.59142" lon="2.02948">
        <ele>121</ele>
        <time>2010-03-19T10:52:08Z</time>
      </trkpt>
      <trkpt lat="48.59142" lon="2.02942">
        <ele>121</ele>
        <time>2010-03-19T10:52:09Z</time>
      </trkpt>
      <trkpt lat="48.59142" lon="2.02935">
        <ele>121</ele>
        <time>2010-03-19T10:52:10Z</time>
      </trkpt>
      <trkpt lat="48.59141" lon="2.02928">
        <ele>121</ele>
        <time>2010-03-19T10:52:11Z</time>
      </trkpt>
      <trkpt lat="48.59141" lon="2.02921">
        <ele>121</ele>
        <time>2010-03-19T10:52:12Z</time>
      </trkpt>
      <trkpt lat="48.59141" lon="2.02913">
        <ele>121</ele>
        <time>2010-03-19T10:52:13Z</time>
      </trkpt>
      <trkpt lat="48.5914" lon="2.02906">
        <ele>121</ele>
        <time>2010-03-19T10:52:14Z</time>
      </trkpt>
      <trkpt lat="48.5914" lon="2.02898">
        <ele>121</ele>
        <time>2010-03-19T10:52:15Z</time>
      </trkpt>
      <trkpt lat="48.5914" lon="2.0289">
        <ele>121</ele>
        <time>2010-03-19T10:52:16Z</time>
      </trkpt>
      <trkpt lat="48.5914" lon="2.02882">
        <ele>121</ele>
        <time>2010-03-19T10:52:17Z</time>
      </trkpt>
      <trkpt lat="48.5914" lon="2.02875">
        <ele>121</ele>
        <time>2010-03-19T10:52:18Z</time>
      </trkpt>
      <trkpt lat="48.5914" lon="2.02868">
        <ele>121</ele>
        <time>2010-03-19T10:52:19Z</time>
      </trkpt>
      <trkpt lat="48.5914" lon="2.02861">
        <ele>121</ele>
        <time>2010-03-19T10:52:20Z</time>
      </trkpt>
      <trkpt lat="48.59139" lon="2.02854">
        <ele>121</ele>
        <time>2010-03-19T10:52:21Z</time>
      </trkpt>
      <trkpt lat="48.59139" lon="2.02847">
        <ele>121</ele>
        <time>2010-03-19T10:52:22Z</time>
      </trkpt>
      <trkpt lat="48.59139" lon="2.0284">
        <ele>121</ele>
        <time>2010-03-19T10:52:23Z</time>
      </trkpt>
      <trkpt lat="48.59139" lon="2.02834">
        <ele>121</ele>
        <time>2010-03-19T10:52:24Z</time>
      </trkpt>
      <trkpt lat="48.59139" lon="2.02826">
        <ele>121</ele>
        <time>2010-03-19T10:52:25Z</time>
      </trkpt>
      <trkpt lat="48.59139" lon="2.02819">
        <ele>121</ele>
        <time>2010-03-19T10:52:26Z</time>
      </trkpt>
      <trkpt lat="48.59139" lon="2.02813">
        <ele>121</ele>
        <time>2010-03-19T10:52:27Z</time>
      </trkpt>
      <trkpt lat="48.5914" lon="2.02805">
        <ele>121</ele>
        <time>2010-03-19T10:52:28Z</time>
      </trkpt>
      <trkpt lat="48.5914" lon="2.02798">
        <ele>121</ele>
        <time>2010-03-19T10:52:29Z</time>
      </trkpt>
      <trkpt lat="48.5914" lon="2.02792">
        <ele>121</ele>
        <time>2010-03-19T10:52:30Z</time>
      </trkpt>
      <trkpt lat="48.59141" lon="2.02785">
        <ele>122</ele>
        <time>2010-03-19T10:52:31Z</time>
      </trkpt>
      <trkpt lat="48.59141" lon="2.02779">
        <ele>122</ele>
        <time>2010-03-19T10:52:32Z</time>
      </trkpt>
      <trkpt lat="48.59142" lon="2.02773">
        <ele>122</ele>
        <time>2010-03-19T10:52:33Z</time>
      </trkpt>
      <trkpt lat="48.59142" lon="2.02766">
        <ele>122</ele>
        <time>2010-03-19T10:52:34Z</time>
      </trkpt>
      <trkpt lat="48.59143" lon="2.0276">
        <ele>123</ele>
        <time>2010-03-19T10:52:35Z</time>
      </trkpt>
      <trkpt lat="48.59143" lon="2.02754">
        <ele>123</ele>
        <time>2010-03-19T10:52:36Z</time>
      </trkpt>
      <trkpt lat="48.59143" lon="2.02748">
        <ele>123</ele>
        <time>2010-03-19T10:52:37Z</time>
      </trkpt>
      <trkpt lat="48.59143" lon="2.02742">
        <ele>123</ele>
        <time>2010-03-19T10:52:38Z</time>
      </trkpt>
      <trkpt lat="48.59144" lon="2.02737">
        <ele>123</ele>
        <time>2010-03-19T10:52:39Z</time>
      </trkpt>
      <trkpt lat="48.59146" lon="2.02733">
        <ele>124</ele>
        <time>2010-03-19T10:52:40Z</time>
      </trkpt>
      <trkpt lat="48.59147" lon="2.02729">
        <ele>124</ele>
        <time>2010-03-19T10:52:41Z</time>
      </trkpt>
      <trkpt lat="48.59148" lon="2.02724">
        <ele>124</ele>
        <time>2010-03-19T10:52:42Z</time>
      </trkpt>
      <trkpt lat="48.59148" lon="2.02718">
        <ele>124</ele>
        <time>2010-03-19T10:52:43Z</time>
      </trkpt>
      <trkpt lat="48.59149" lon="2.02713">
        <ele>124</ele>
        <time>2010-03-19T10:52:44Z</time>
      </trkpt>
      <trkpt lat="48.5915" lon="2.02708">
        <ele>124</ele>
        <time>2010-03-19T10:52:45Z</time>
      </trkpt>
      <trkpt lat="48.5915" lon="2.02702">
        <ele>124</ele>
        <time>2010-03-19T10:52:46Z</time>
      </trkpt>
      <trkpt lat="48.59151" lon="2.02696">
        <ele>124</ele>
        <time>2010-03-19T10:52:47Z</time>
      </trkpt>
      <trkpt lat="48.59151" lon="2.02691">
        <ele>124</ele>
        <time>2010-03-19T10:52:48Z</time>
      </trkpt>
      <trkpt lat="48.59152" lon="2.02686">
        <ele>124</ele>
        <time>2010-03-19T10:52:49Z</time>
      </trkpt>
      <trkpt lat="48.59152" lon="2.0268">
        <ele>124</ele>
        <time>2010-03-19T10:52:50Z</time>
      </trkpt>
      <trkpt lat="48.59153" lon="2.02674">
        <ele>124</ele>
        <time>2010-03-19T10:52:51Z</time>
      </trkpt>
      <trkpt lat="48.59153" lon="2.02668">
        <ele>124</ele>
        <time>2010-03-19T10:52:52Z</time>
      </trkpt>
      <trkpt lat="48.59154" lon="2.02661">
        <ele>124</ele>
        <time>2010-03-19T10:52:53Z</time>
      </trkpt>
      <trkpt lat="48.59155" lon="2.02656">
        <ele>124</ele>
        <time>2010-03-19T10:52:54Z</time>
      </trkpt>
      <trkpt lat="48.59155" lon="2.0265">
        <ele>124</ele>
        <time>2010-03-19T10:52:55Z</time>
      </trkpt>
      <trkpt lat="48.59155" lon="2.02644">
        <ele>124</ele>
        <time>2010-03-19T10:52:56Z</time>
      </trkpt>
      <trkpt lat="48.59155" lon="2.02638">
        <ele>124</ele>
        <time>2010-03-19T10:52:57Z</time>
      </trkpt>
      <trkpt lat="48.59156" lon="2.02632">
        <ele>124</ele>
        <time>2010-03-19T10:52:58Z</time>
      </trkpt>
      <trkpt lat="48.59156" lon="2.02625">
        <ele>124</ele>
        <time>2010-03-19T10:52:59Z</time>
      </trkpt>
      <trkpt lat="48.59156" lon="2.0262">
        <ele>124</ele>
        <time>2010-03-19T10:53:00Z</time>
      </trkpt>
      <trkpt lat="48.59157" lon="2.02614">
        <ele>124</ele>
        <time>2010-03-19T10:53:01Z</time>
      </trkpt>
      <trkpt lat="48.59157" lon="2.02608">
        <ele>124</ele>
        <time>2010-03-19T10:53:02Z</time>
      </trkpt>
      <trkpt lat="48.59158" lon="2.02602">
        <ele>124</ele>
        <time>2010-03-19T10:53:03Z</time>
      </trkpt>
      <trkpt lat="48.59158" lon="2.02595">
        <ele>124</ele>
        <time>2010-03-19T10:53:04Z</time>
      </trkpt>
      <trkpt lat="48.59158" lon="2.0259">
        <ele>124</ele>
        <time>2010-03-19T10:53:05Z</time>
      </trkpt>
      <trkpt lat="48.59158" lon="2.02583">
        <ele>124</ele>
        <time>2010-03-19T10:53:06Z</time>
      </trkpt>
      <trkpt lat="48.59158" lon="2.02576">
        <ele>124</ele>
        <time>2010-03-19T10:53:07Z</time>
      </trkpt>
      <trkpt lat="48.59159" lon="2.0257">
        <ele>124</ele>
        <time>2010-03-19T10:53:08Z</time>
      </trkpt>
      <trkpt lat="48.59159" lon="2.02564">
        <ele>124</ele>
        <time>2010-03-19T10:53:09Z</time>
      </trkpt>
      <trkpt lat="48.59159" lon="2.02558">
        <ele>124</ele>
        <time>2010-03-19T10:53:10Z</time>
      </trkpt>
      <trkpt lat="48.5916" lon="2.02552">
        <ele>124</ele>
        <time>2010-03-19T10:53:11Z</time>
      </trkpt>
      <trkpt lat="48.59161" lon="2.02545">
        <ele>124</ele>
        <time>2010-03-19T10:53:12Z</time>
      </trkpt>
      <trkpt lat="48.59161" lon="2.02539">
        <ele>124</ele>
        <time>2010-03-19T10:53:13Z</time>
      </trkpt>
      <trkpt lat="48.59161" lon="2.02532">
        <ele>124</ele>
        <time>2010-03-19T10:53:14Z</time>
      </trkpt>
      <trkpt lat="48.59162" lon="2.02525">
        <ele>124</ele>
        <time>2010-03-19T10:53:15Z</time>
      </trkpt>
      <trkpt lat="48.59163" lon="2.0252">
        <ele>124</ele>
        <time>2010-03-19T10:53:16Z</time>
      </trkpt>
      <trkpt lat="48.59164" lon="2.02515">
        <ele>124</ele>
        <time>2010-03-19T10:53:17Z</time>
      </trkpt>
      <trkpt lat="48.59164" lon="2.02508">
        <ele>124</ele>
        <time>2010-03-19T10:53:18Z</time>
      </trkpt>
      <trkpt lat="48.59164" lon="2.02502">
        <ele>124</ele>
        <time>2010-03-19T10:53:19Z</time>
      </trkpt>
      <trkpt lat="48.59165" lon="2.02497">
        <ele>124</ele>
        <time>2010-03-19T10:53:20Z</time>
      </trkpt>
      <trkpt lat="48.59165" lon="2.02491">
        <ele>124</ele>
        <time>2010-03-19T10:53:21Z</time>
      </trkpt>
      <trkpt lat="48.59166" lon="2.02485">
        <ele>124</ele>
        <time>2010-03-19T10:53:22Z</time>
      </trkpt>
      <trkpt lat="48.59166" lon="2.02479">
        <ele>124</ele>
        <time>2010-03-19T10:53:23Z</time>
      </trkpt>
      <trkpt lat="48.59166" lon="2.02473">
        <ele>124</ele>
        <time>2010-03-19T10:53:24Z</time>
      </trkpt>
      <trkpt lat="48.59167" lon="2.02467">
        <ele>124</ele>
        <time>2010-03-19T10:53:25Z</time>
      </trkpt>
      <trkpt lat="48.59167" lon="2.02461">
        <ele>124</ele>
        <time>2010-03-19T10:53:26Z</time>
      </trkpt>
      <trkpt lat="48.59167" lon="2.02454">
        <ele>124</ele>
        <time>2010-03-19T10:53:28Z</time>
      </trkpt>
      <trkpt lat="48.59168" lon="2.02448">
        <ele>124</ele>
        <time>2010-03-19T10:53:28Z</time>
      </trkpt>
      <trkpt lat="48.59169" lon="2.02442">
        <ele>124</ele>
        <time>2010-03-19T10:53:29Z</time>
      </trkpt>
      <trkpt lat="48.59169" lon="2.02436">
        <ele>124</ele>
        <time>2010-03-19T10:53:30Z</time>
      </trkpt>
      <trkpt lat="48.5917" lon="2.02431">
        <ele>124</ele>
        <time>2010-03-19T10:53:31Z</time>
      </trkpt>
      <trkpt lat="48.5917" lon="2.02426">
        <ele>124</ele>
        <time>2010-03-19T10:53:32Z</time>
      </trkpt>
      <trkpt lat="48.59171" lon="2.02421">
        <ele>124</ele>
        <time>2010-03-19T10:53:33Z</time>
      </trkpt>
      <trkpt lat="48.59171" lon="2.02416">
        <ele>123</ele>
        <time>2010-03-19T10:53:34Z</time>
      </trkpt>
      <trkpt lat="48.59171" lon="2.02412">
        <ele>123</ele>
        <time>2010-03-19T10:53:35Z</time>
      </trkpt>
      <trkpt lat="48.59171" lon="2.02407">
        <ele>122</ele>
        <time>2010-03-19T10:53:36Z</time>
      </trkpt>
      <trkpt lat="48.59171" lon="2.02402">
        <ele>122</ele>
        <time>2010-03-19T10:53:37Z</time>
      </trkpt>
      <trkpt lat="48.59171" lon="2.02397">
        <ele>121</ele>
        <time>2010-03-19T10:53:38Z</time>
      </trkpt>
      <trkpt lat="48.5917" lon="2.02392">
        <ele>121</ele>
        <time>2010-03-19T10:53:39Z</time>
      </trkpt>
      <trkpt lat="48.59169" lon="2.02385">
        <ele>120</ele>
        <time>2010-03-19T10:53:40Z</time>
      </trkpt>
      <trkpt lat="48.59168" lon="2.0238">
        <ele>120</ele>
        <time>2010-03-19T10:53:41Z</time>
      </trkpt>
      <trkpt lat="48.59168" lon="2.02375">
        <ele>119</ele>
        <time>2010-03-19T10:53:42Z</time>
      </trkpt>
      <trkpt lat="48.59168" lon="2.02369">
        <ele>119</ele>
        <time>2010-03-19T10:53:43Z</time>
      </trkpt>
      <trkpt lat="48.59167" lon="2.02364">
        <ele>119</ele>
        <time>2010-03-19T10:53:44Z</time>
      </trkpt>
      <trkpt lat="48.59167" lon="2.02358">
        <ele>119</ele>
        <time>2010-03-19T10:53:45Z</time>
      </trkpt>
      <trkpt lat="48.59167" lon="2.02352">
        <ele>118</ele>
        <time>2010-03-19T10:53:46Z</time>
      </trkpt>
      <trkpt lat="48.59167" lon="2.02347">
        <ele>118</ele>
        <time>2010-03-19T10:53:47Z</time>
      </trkpt>
      <trkpt lat="48.59167" lon="2.02341">
        <ele>117</ele>
        <time>2010-03-19T10:53:48Z</time>
      </trkpt>
      <trkpt lat="48.59167" lon="2.02335">
        <ele>117</ele>
        <time>2010-03-19T10:53:49Z</time>
      </trkpt>
      <trkpt lat="48.59167" lon="2.0233">
        <ele>117</ele>
        <time>2010-03-19T10:53:50Z</time>
      </trkpt>
      <trkpt lat="48.59168" lon="2.02325">
        <ele>116</ele>
        <time>2010-03-19T10:53:51Z</time>
      </trkpt>
      <trkpt lat="48.59168" lon="2.02319">
        <ele>116</ele>
        <time>2010-03-19T10:53:52Z</time>
      </trkpt>
      <trkpt lat="48.59168" lon="2.02313">
        <ele>116</ele>
        <time>2010-03-19T10:53:53Z</time>
      </trkpt>
      <trkpt lat="48.59168" lon="2.02306">
        <ele>115</ele>
        <time>2010-03-19T10:53:54Z</time>
      </trkpt>
      <trkpt lat="48.59169" lon="2.023">
        <ele>115</ele>
        <time>2010-03-19T10:53:55Z</time>
      </trkpt>
      <trkpt lat="48.5917" lon="2.02294">
        <ele>115</ele>
        <time>2010-03-19T10:53:56Z</time>
      </trkpt>
      <trkpt lat="48.5917" lon="2.02289">
        <ele>115</ele>
        <time>2010-03-19T10:53:57Z</time>
      </trkpt>
      <trkpt lat="48.5917" lon="2.02283">
        <ele>115</ele>
        <time>2010-03-19T10:53:58Z</time>
      </trkpt>
      <trkpt lat="48.5917" lon="2.02277">
        <ele>115</ele>
        <time>2010-03-19T10:53:59Z</time>
      </trkpt>
      <trkpt lat="48.5917" lon="2.02272">
        <ele>114</ele>
        <time>2010-03-19T10:54:00Z</time>
      </trkpt>
      <trkpt lat="48.5917" lon="2.02267">
        <ele>114</ele>
        <time>2010-03-19T10:54:01Z</time>
      </trkpt>
      <trkpt lat="48.59169" lon="2.02261">
        <ele>114</ele>
        <time>2010-03-19T10:54:02Z</time>
      </trkpt>
      <trkpt lat="48.59169" lon="2.02255">
        <ele>113</ele>
        <time>2010-03-19T10:54:03Z</time>
      </trkpt>
      <trkpt lat="48.59169" lon="2.02248">
        <ele>113</ele>
        <time>2010-03-19T10:54:04Z</time>
      </trkpt>
      <trkpt lat="48.59169" lon="2.02243">
        <ele>113</ele>
        <time>2010-03-19T10:54:05Z</time>
      </trkpt>
      <trkpt lat="48.59169" lon="2.02238">
        <ele>112</ele>
        <time>2010-03-19T10:54:06Z</time>
      </trkpt>
      <trkpt lat="48.59169" lon="2.02233">
        <ele>112</ele>
        <time>2010-03-19T10:54:07Z</time>
      </trkpt>
      <trkpt lat="48.59169" lon="2.02227">
        <ele>112</ele>
        <time>2010-03-19T10:54:08Z</time>
      </trkpt>
      <trkpt lat="48.59169" lon="2.0222">
        <ele>112</ele>
        <time>2010-03-19T10:54:09Z</time>
      </trkpt>
      <trkpt lat="48.59168" lon="2.02214">
        <ele>111</ele>
        <time>2010-03-19T10:54:10Z</time>
      </trkpt>
      <trkpt lat="48.59168" lon="2.02207">
        <ele>111</ele>
        <time>2010-03-19T10:54:11Z</time>
      </trkpt>
      <trkpt lat="48.59168" lon="2.02201">
        <ele>111</ele>
        <time>2010-03-19T10:54:12Z</time>
      </trkpt>
      <trkpt lat="48.59168" lon="2.02195">
        <ele>111</ele>
        <time>2010-03-19T10:54:13Z</time>
      </trkpt>
      <trkpt lat="48.59168" lon="2.0219">
        <ele>111</ele>
        <time>2010-03-19T10:54:14Z</time>
      </trkpt>
      <trkpt lat="48.59169" lon="2.02185">
        <ele>111</ele>
        <time>2010-03-19T10:54:15Z</time>
      </trkpt>
      <trkpt lat="48.5917" lon="2.02179">
        <ele>110</ele>
        <time>2010-03-19T10:54:16Z</time>
      </trkpt>
      <trkpt lat="48.5917" lon="2.02174">
        <ele>110</ele>
        <time>2010-03-19T10:54:17Z</time>
      </trkpt>
      <trkpt lat="48.59171" lon="2.02169">
        <ele>110</ele>
        <time>2010-03-19T10:54:18Z</time>
      </trkpt>
      <trkpt lat="48.59171" lon="2.02164">
        <ele>110</ele>
        <time>2010-03-19T10:54:19Z</time>
      </trkpt>
      <trkpt lat="48.59171" lon="2.02157">
        <ele>110</ele>
        <time>2010-03-19T10:54:20Z</time>
      </trkpt>
      <trkpt lat="48.5917" lon="2.02151">
        <ele>109</ele>
        <time>2010-03-19T10:54:21Z</time>
      </trkpt>
      <trkpt lat="48.59169" lon="2.02145">
        <ele>109</ele>
        <time>2010-03-19T10:54:22Z</time>
      </trkpt>
      <trkpt lat="48.59168" lon="2.02139">
        <ele>109</ele>
        <time>2010-03-19T10:54:23Z</time>
      </trkpt>
      <trkpt lat="48.59167" lon="2.02133">
        <ele>109</ele>
        <time>2010-03-19T10:54:24Z</time>
      </trkpt>
      <trkpt lat="48.59167" lon="2.02127">
        <ele>109</ele>
        <time>2010-03-19T10:54:25Z</time>
      </trkpt>
      <trkpt lat="48.59166" lon="2.02121">
        <ele>109</ele>
        <time>2010-03-19T10:54:26Z</time>
      </trkpt>
      <trkpt lat="48.59166" lon="2.02114">
        <ele>108</ele>
        <time>2010-03-19T10:54:27Z</time>
      </trkpt>
      <trkpt lat="48.59165" lon="2.02108">
        <ele>108</ele>
        <time>2010-03-19T10:54:28Z</time>
      </trkpt>
      <trkpt lat="48.59164" lon="2.02102">
        <ele>108</ele>
        <time>2010-03-19T10:54:29Z</time>
      </trkpt>
      <trkpt lat="48.59163" lon="2.02096">
        <ele>108</ele>
        <time>2010-03-19T10:54:30Z</time>
      </trkpt>
      <trkpt lat="48.59163" lon="2.0209">
        <ele>108</ele>
        <time>2010-03-19T10:54:31Z</time>
      </trkpt>
      <trkpt lat="48.59162" lon="2.02084">
        <ele>108</ele>
        <time>2010-03-19T10:54:32Z</time>
      </trkpt>
      <trkpt lat="48.59161" lon="2.0208">
        <ele>108</ele>
        <time>2010-03-19T10:54:33Z</time>
      </trkpt>
      <trkpt lat="48.59161" lon="2.02075">
        <ele>107</ele>
        <time>2010-03-19T10:54:34Z</time>
      </trkpt>
      <trkpt lat="48.5916" lon="2.02069">
        <ele>107</ele>
        <time>2010-03-19T10:54:35Z</time>
      </trkpt>
      <trkpt lat="48.59159" lon="2.02063">
        <ele>107</ele>
        <time>2010-03-19T10:54:36Z</time>
      </trkpt>
      <trkpt lat="48.59158" lon="2.02057">
        <ele>107</ele>
        <time>2010-03-19T10:54:37Z</time>
      </trkpt>
      <trkpt lat="48.59156" lon="2.02051">
        <ele>107</ele>
        <time>2010-03-19T10:54:38Z</time>
      </trkpt>
      <trkpt lat="48.59155" lon="2.02045">
        <ele>107</ele>
        <time>2010-03-19T10:54:39Z</time>
      </trkpt>
      <trkpt lat="48.59155" lon="2.0204">
        <ele>107</ele>
        <time>2010-03-19T10:54:40Z</time>
      </trkpt>
      <trkpt lat="48.59153" lon="2.02035">
        <ele>106</ele>
        <time>2010-03-19T10:54:41Z</time>
      </trkpt>
      <trkpt lat="48.59152" lon="2.0203">
        <ele>106</ele>
        <time>2010-03-19T10:54:42Z</time>
      </trkpt>
      <trkpt lat="48.59151" lon="2.02026">
        <ele>106</ele>
        <time>2010-03-19T10:54:43Z</time>
      </trkpt>
      <trkpt lat="48.59151" lon="2.02021">
        <ele>106</ele>
        <time>2010-03-19T10:54:44Z</time>
      </trkpt>
      <trkpt lat="48.5915" lon="2.02016">
        <ele>105</ele>
        <time>2010-03-19T10:54:45Z</time>
      </trkpt>
      <trkpt lat="48.59148" lon="2.02011">
        <ele>105</ele>
        <time>2010-03-19T10:54:46Z</time>
      </trkpt>
      <trkpt lat="48.59147" lon="2.02006">
        <ele>105</ele>
        <time>2010-03-19T10:54:47Z</time>
      </trkpt>
      <trkpt lat="48.59146" lon="2.02">
        <ele>104</ele>
        <time>2010-03-19T10:54:48Z</time>
      </trkpt>
      <trkpt lat="48.59144" lon="2.01994">
        <ele>104</ele>
        <time>2010-03-19T10:54:49Z</time>
      </trkpt>
      <trkpt lat="48.59143" lon="2.01989">
        <ele>104</ele>
        <time>2010-03-19T10:54:50Z</time>
      </trkpt>
      <trkpt lat="48.59142" lon="2.01983">
        <ele>103</ele>
        <time>2010-03-19T10:54:51Z</time>
      </trkpt>
      <trkpt lat="48.59141" lon="2.01978">
        <ele>103</ele>
        <time>2010-03-19T10:54:52Z</time>
      </trkpt>
      <trkpt lat="48.5914" lon="2.01973">
        <ele>103</ele>
        <time>2010-03-19T10:54:53Z</time>
      </trkpt>
      <trkpt lat="48.59138" lon="2.01968">
        <ele>103</ele>
        <time>2010-03-19T10:54:54Z</time>
      </trkpt>
      <trkpt lat="48.59138" lon="2.01962">
        <ele>103</ele>
        <time>2010-03-19T10:54:55Z</time>
      </trkpt>
      <trkpt lat="48.59137" lon="2.01957">
        <ele>103</ele>
        <time>2010-03-19T10:54:56Z</time>
      </trkpt>
      <trkpt lat="48.59137" lon="2.01952">
        <ele>103</ele>
        <time>2010-03-19T10:54:57Z</time>
      </trkpt>
      <trkpt lat="48.59135" lon="2.01947">
        <ele>103</ele>
        <time>2010-03-19T10:54:58Z</time>
      </trkpt>
      <trkpt lat="48.59135" lon="2.01941">
        <ele>103</ele>
        <time>2010-03-19T10:54:59Z</time>
      </trkpt>
      <trkpt lat="48.59133" lon="2.01936">
        <ele>103</ele>
        <time>2010-03-19T10:55:00Z</time>
      </trkpt>
      <trkpt lat="48.59131" lon="2.01931">
        <ele>103</ele>
        <time>2010-03-19T10:55:01Z</time>
      </trkpt>
      <trkpt lat="48.59128" lon="2.01926">
        <ele>103</ele>
        <time>2010-03-19T10:55:02Z</time>
      </trkpt>
      <trkpt lat="48.59126" lon="2.01922">
        <ele>103</ele>
        <time>2010-03-19T10:55:03Z</time>
      </trkpt>
      <trkpt lat="48.59123" lon="2.01917">
        <ele>102</ele>
        <time>2010-03-19T10:55:04Z</time>
      </trkpt>
      <trkpt lat="48.59121" lon="2.01912">
        <ele>102</ele>
        <time>2010-03-19T10:55:05Z</time>
      </trkpt>
      <trkpt lat="48.59119" lon="2.01907">
        <ele>102</ele>
        <time>2010-03-19T10:55:06Z</time>
      </trkpt>
      <trkpt lat="48.59117" lon="2.01903">
        <ele>102</ele>
        <time>2010-03-19T10:55:07Z</time>
      </trkpt>
      <trkpt lat="48.59115" lon="2.01899">
        <ele>102</ele>
        <time>2010-03-19T10:55:08Z</time>
      </trkpt>
      <trkpt lat="48.59113" lon="2.01894">
        <ele>102</ele>
        <time>2010-03-19T10:55:09Z</time>
      </trkpt>
      <trkpt lat="48.59112" lon="2.0189">
        <ele>102</ele>
        <time>2010-03-19T10:55:10Z</time>
      </trkpt>
      <trkpt lat="48.59109" lon="2.01886">
        <ele>102</ele>
        <time>2010-03-19T10:55:11Z</time>
      </trkpt>
      <trkpt lat="48.59108" lon="2.01881">
        <ele>102</ele>
        <time>2010-03-19T10:55:12Z</time>
      </trkpt>
      <trkpt lat="48.59106" lon="2.01877">
        <ele>102</ele>
        <time>2010-03-19T10:55:13Z</time>
      </trkpt>
      <trkpt lat="48.59104" lon="2.01872">
        <ele>102</ele>
        <time>2010-03-19T10:55:14Z</time>
      </trkpt>
      <trkpt lat="48.59102" lon="2.01867">
        <ele>102</ele>
        <time>2010-03-19T10:55:15Z</time>
      </trkpt>
      <trkpt lat="48.591" lon="2.01862">
        <ele>102</ele>
        <time>2010-03-19T10:55:16Z</time>
      </trkpt>
      <trkpt lat="48.59098" lon="2.01858">
        <ele>102</ele>
        <time>2010-03-19T10:55:17Z</time>
      </trkpt>
      <trkpt lat="48.59097" lon="2.01853">
        <ele>102</ele>
        <time>2010-03-19T10:55:18Z</time>
      </trkpt>
      <trkpt lat="48.59095" lon="2.01849">
        <ele>102</ele>
        <time>2010-03-19T10:55:19Z</time>
      </trkpt>
      <trkpt lat="48.59093" lon="2.01845">
        <ele>102</ele>
        <time>2010-03-19T10:55:20Z</time>
      </trkpt>
      <trkpt lat="48.59091" lon="2.0184">
        <ele>102</ele>
        <time>2010-03-19T10:55:21Z</time>
      </trkpt>
      <trkpt lat="48.5909" lon="2.01835">
        <ele>102</ele>
        <time>2010-03-19T10:55:22Z</time>
      </trkpt>
      <trkpt lat="48.59088" lon="2.0183">
        <ele>102</ele>
        <time>2010-03-19T10:55:23Z</time>
      </trkpt>
      <trkpt lat="48.59086" lon="2.01825">
        <ele>102</ele>
        <time>2010-03-19T10:55:24Z</time>
      </trkpt>
      <trkpt lat="48.59085" lon="2.01819">
        <ele>102</ele>
        <time>2010-03-19T10:55:25Z</time>
      </trkpt>
      <trkpt lat="48.59083" lon="2.01814">
        <ele>102</ele>
        <time>2010-03-19T10:55:26Z</time>
      </trkpt>
      <trkpt lat="48.59082" lon="2.01809">
        <ele>102</ele>
        <time>2010-03-19T10:55:27Z</time>
      </trkpt>
      <trkpt lat="48.59081" lon="2.01803">
        <ele>102</ele>
        <time>2010-03-19T10:55:28Z</time>
      </trkpt>
      <trkpt lat="48.5908" lon="2.01799">
        <ele>102</ele>
        <time>2010-03-19T10:55:29Z</time>
      </trkpt>
      <trkpt lat="48.59078" lon="2.01794">
        <ele>102</ele>
        <time>2010-03-19T10:55:30Z</time>
      </trkpt>
      <trkpt lat="48.59077" lon="2.01789">
        <ele>102</ele>
        <time>2010-03-19T10:55:31Z</time>
      </trkpt>
      <trkpt lat="48.59076" lon="2.01785">
        <ele>102</ele>
        <time>2010-03-19T10:55:32Z</time>
      </trkpt>
      <trkpt lat="48.59076" lon="2.01781">
        <ele>102</ele>
        <time>2010-03-19T10:55:33Z</time>
      </trkpt>
      <trkpt lat="48.59074" lon="2.01776">
        <ele>102</ele>
        <time>2010-03-19T10:55:34Z</time>
      </trkpt>
      <trkpt lat="48.59074" lon="2.01771">
        <ele>102</ele>
        <time>2010-03-19T10:55:35Z</time>
      </trkpt>
      <trkpt lat="48.59073" lon="2.01765">
        <ele>102</ele>
        <time>2010-03-19T10:55:36Z</time>
      </trkpt>
      <trkpt lat="48.59073" lon="2.0176">
        <ele>102</ele>
        <time>2010-03-19T10:55:37Z</time>
      </trkpt>
      <trkpt lat="48.59073" lon="2.01755">
        <ele>102</ele>
        <time>2010-03-19T10:55:38Z</time>
      </trkpt>
      <trkpt lat="48.59073" lon="2.0175">
        <ele>102</ele>
        <time>2010-03-19T10:55:39Z</time>
      </trkpt>
      <trkpt lat="48.59073" lon="2.01745">
        <ele>102</ele>
        <time>2010-03-19T10:55:40Z</time>
      </trkpt>
      <trkpt lat="48.59073" lon="2.01739">
        <ele>101</ele>
        <time>2010-03-19T10:55:41Z</time>
      </trkpt>
      <trkpt lat="48.59073" lon="2.01734">
        <ele>101</ele>
        <time>2010-03-19T10:55:42Z</time>
      </trkpt>
      <trkpt lat="48.59073" lon="2.01729">
        <ele>100</ele>
        <time>2010-03-19T10:55:43Z</time>
      </trkpt>
      <trkpt lat="48.59073" lon="2.01724">
        <ele>100</ele>
        <time>2010-03-19T10:55:44Z</time>
      </trkpt>
      <trkpt lat="48.59073" lon="2.01718">
        <ele>100</ele>
        <time>2010-03-19T10:55:45Z</time>
      </trkpt>
      <trkpt lat="48.59073" lon="2.01713">
        <ele>99</ele>
        <time>2010-03-19T10:55:46Z</time>
      </trkpt>
      <trkpt lat="48.59073" lon="2.01707">
        <ele>99</ele>
        <time>2010-03-19T10:55:47Z</time>
      </trkpt>
      <trkpt lat="48.59073" lon="2.01702">
        <ele>99</ele>
        <time>2010-03-19T10:55:48Z</time>
      </trkpt>
      <trkpt lat="48.59074" lon="2.01698">
        <ele>99</ele>
        <time>2010-03-19T10:55:49Z</time>
      </trkpt>
      <trkpt lat="48.59074" lon="2.01694">
        <ele>99</ele>
        <time>2010-03-19T10:55:50Z</time>
      </trkpt>
      <trkpt lat="48.59074" lon="2.0169">
        <ele>98</ele>
        <time>2010-03-19T10:55:51Z</time>
      </trkpt>
      <trkpt lat="48.59074" lon="2.01686">
        <ele>98</ele>
        <time>2010-03-19T10:55:52Z</time>
      </trkpt>
      <trkpt lat="48.59074" lon="2.01682">
        <ele>98</ele>
        <time>2010-03-19T10:55:53Z</time>
      </trkpt>
      <trkpt lat="48.59074" lon="2.01679">
        <ele>98</ele>
        <time>2010-03-19T10:55:54Z</time>
      </trkpt>
      <trkpt lat="48.59074" lon="2.01677">
        <ele>98</ele>
        <time>2010-03-19T10:55:55Z</time>
      </trkpt>
      <trkpt lat="48.59074" lon="2.01675">
        <ele>97</ele>
        <time>2010-03-19T10:55:56Z</time>
      </trkpt>
      <trkpt lat="48.59074" lon="2.01673">
        <ele>97</ele>
        <time>2010-03-19T10:55:57Z</time>
      </trkpt>
      <trkpt lat="48.59075" lon="2.0167">
        <ele>97</ele>
        <time>2010-03-19T10:55:58Z</time>
      </trkpt>
      <trkpt lat="48.59076" lon="2.01668">
        <ele>97</ele>
        <time>2010-03-19T10:55:59Z</time>
      </trkpt>
      <trkpt lat="48.59076" lon="2.01666">
        <ele>97</ele>
        <time>2010-03-19T10:56:00Z</time>
      </trkpt>
      <trkpt lat="48.59076" lon="2.01664">
        <ele>96</ele>
        <time>2010-03-19T10:56:01Z</time>
      </trkpt>
      <trkpt lat="48.59076" lon="2.01662">
        <ele>96</ele>
        <time>2010-03-19T10:56:02Z</time>
      </trkpt>
      <trkpt lat="48.59076" lon="2.01659">
        <ele>96</ele>
        <time>2010-03-19T10:56:03Z</time>
      </trkpt>
      <trkpt lat="48.59076" lon="2.01657">
        <ele>96</ele>
        <time>2010-03-19T10:56:04Z</time>
      </trkpt>
      <trkpt lat="48.59076" lon="2.01654">
        <ele>96</ele>
        <time>2010-03-19T10:56:05Z</time>
      </trkpt>
      <trkpt lat="48.59076" lon="2.01652">
        <ele>96</ele>
        <time>2010-03-19T10:56:06Z</time>
      </trkpt>
      <trkpt lat="48.59076" lon="2.0165">
        <ele>96</ele>
        <time>2010-03-19T10:56:07Z</time>
      </trkpt>
      <trkpt lat="48.59076" lon="2.01648">
        <ele>96</ele>
        <time>2010-03-19T10:56:08Z</time>
      </trkpt>
      <trkpt lat="48.59076" lon="2.01646">
        <ele>96</ele>
        <time>2010-03-19T10:56:09Z</time>
      </trkpt>
      <trkpt lat="48.59075" lon="2.01644">
        <ele>96</ele>
        <time>2010-03-19T10:56:10Z</time>
      </trkpt>
      <trkpt lat="48.59075" lon="2.01642">
        <ele>96</ele>
        <time>2010-03-19T10:56:11Z</time>
      </trkpt>
      <trkpt lat="48.59075" lon="2.01641">
        <ele>96</ele>
        <time>2010-03-19T10:56:12Z</time>
      </trkpt>
      <trkpt lat="48.59076" lon="2.01639">
        <ele>95</ele>
        <time>2010-03-19T10:56:13Z</time>
      </trkpt>
      <trkpt lat="48.59076" lon="2.01637">
        <ele>95</ele>
        <time>2010-03-19T10:56:14Z</time>
      </trkpt>
      <trkpt lat="48.59077" lon="2.01635">
        <ele>95</ele>
        <time>2010-03-19T10:56:15Z</time>
      </trkpt>
      <trkpt lat="48.59077" lon="2.01633">
        <ele>95</ele>
        <time>2010-03-19T10:56:16Z</time>
      </trkpt>
      <trkpt lat="48.59077" lon="2.01632">
        <ele>95</ele>
        <time>2010-03-19T10:56:17Z</time>
      </trkpt>
      <trkpt lat="48.59077" lon="2.01628">
        <ele>95</ele>
        <time>2010-03-19T10:56:19Z</time>
      </trkpt>
      <trkpt lat="48.59076" lon="2.01625">
        <ele>94</ele>
        <time>2010-03-19T10:56:21Z</time>
      </trkpt>
      <trkpt lat="48.59075" lon="2.01622">
        <ele>93</ele>
        <time>2010-03-19T10:56:23Z</time>
      </trkpt>
      <trkpt lat="48.59073" lon="2.0162">
        <ele>92</ele>
        <time>2010-03-19T10:56:25Z</time>
      </trkpt>
      <trkpt lat="48.59072" lon="2.01619">
        <ele>92</ele>
        <time>2010-03-19T10:56:26Z</time>
      </trkpt>
      <trkpt lat="48.59072" lon="2.01616">
        <ele>91</ele>
        <time>2010-03-19T10:56:27Z</time>
      </trkpt>
      <trkpt lat="48.59071" lon="2.01614">
        <ele>91</ele>
        <time>2010-03-19T10:56:28Z</time>
      </trkpt>
      <trkpt lat="48.59071" lon="2.01612">
        <ele>91</ele>
        <time>2010-03-19T10:56:29Z</time>
      </trkpt>
      <trkpt lat="48.59069" lon="2.0161">
        <ele>91</ele>
        <time>2010-03-19T10:56:30Z</time>
      </trkpt>
      <trkpt lat="48.59069" lon="2.01608">
        <ele>91</ele>
        <time>2010-03-19T10:56:31Z</time>
      </trkpt>
      <trkpt lat="48.59069" lon="2.01606">
        <ele>91</ele>
        <time>2010-03-19T10:56:32Z</time>
      </trkpt>
      <trkpt lat="48.59069" lon="2.01603">
        <ele>91</ele>
        <time>2010-03-19T10:56:33Z</time>
      </trkpt>
      <trkpt lat="48.59069" lon="2.01601">
        <ele>91</ele>
        <time>2010-03-19T10:56:34Z</time>
      </trkpt>
      <trkpt lat="48.59069" lon="2.016">
        <ele>91</ele>
        <time>2010-03-19T10:56:35Z</time>
      </trkpt>
      <trkpt lat="48.59069" lon="2.01597">
        <ele>91</ele>
        <time>2010-03-19T10:56:36Z</time>
      </trkpt>
      <trkpt lat="48.59069" lon="2.01595">
        <ele>91</ele>
        <time>2010-03-19T10:56:37Z</time>
      </trkpt>
      <trkpt lat="48.59068" lon="2.01593">
        <ele>91</ele>
        <time>2010-03-19T10:56:38Z</time>
      </trkpt>
      <trkpt lat="48.59067" lon="2.01591">
        <ele>91</ele>
        <time>2010-03-19T10:56:39Z</time>
      </trkpt>
      <trkpt lat="48.59066" lon="2.01589">
        <ele>91</ele>
        <time>2010-03-19T10:56:40Z</time>
      </trkpt>
      <trkpt lat="48.59065" lon="2.01588">
        <ele>91</ele>
        <time>2010-03-19T10:56:41Z</time>
      </trkpt>
      <trkpt lat="48.59063" lon="2.01586">
        <ele>91</ele>
        <time>2010-03-19T10:56:42Z</time>
      </trkpt>
      <trkpt lat="48.59063" lon="2.01584">
        <ele>91</ele>
        <time>2010-03-19T10:56:43Z</time>
      </trkpt>
      <trkpt lat="48.59061" lon="2.01583">
        <ele>91</ele>
        <time>2010-03-19T10:56:44Z</time>
      </trkpt>
      <trkpt lat="48.5906" lon="2.01581">
        <ele>91</ele>
        <time>2010-03-19T10:56:45Z</time>
      </trkpt>
      <trkpt lat="48.59059" lon="2.01579">
        <ele>91</ele>
        <time>2010-03-19T10:56:46Z</time>
      </trkpt>
      <trkpt lat="48.59058" lon="2.01578">
        <ele>91</ele>
        <time>2010-03-19T10:56:47Z</time>
      </trkpt>
      <trkpt lat="48.59057" lon="2.01576">
        <ele>91</ele>
        <time>2010-03-19T10:56:48Z</time>
      </trkpt>
      <trkpt lat="48.59056" lon="2.01574">
        <ele>90</ele>
        <time>2010-03-19T10:56:49Z</time>
      </trkpt>
      <trkpt lat="48.59056" lon="2.01572">
        <ele>90</ele>
        <time>2010-03-19T10:56:50Z</time>
      </trkpt>
      <trkpt lat="48.59055" lon="2.0157">
        <ele>90</ele>
        <time>2010-03-19T10:56:51Z</time>
      </trkpt>
      <trkpt lat="48.59054" lon="2.01569">
        <ele>90</ele>
        <time>2010-03-19T10:56:52Z</time>
      </trkpt>
      <trkpt lat="48.59053" lon="2.01566">
        <ele>90</ele>
        <time>2010-03-19T10:56:53Z</time>
      </trkpt>
      <trkpt lat="48.59052" lon="2.01564">
        <ele>90</ele>
        <time>2010-03-19T10:56:54Z</time>
      </trkpt>
      <trkpt lat="48.59052" lon="2.01562">
        <ele>90</ele>
        <time>2010-03-19T10:56:55Z</time>
      </trkpt>
      <trkpt lat="48.59051" lon="2.0156">
        <ele>90</ele>
        <time>2010-03-19T10:56:56Z</time>
      </trkpt>
      <trkpt lat="48.5905" lon="2.01558">
        <ele>90</ele>
        <time>2010-03-19T10:56:57Z</time>
      </trkpt>
      <trkpt lat="48.59048" lon="2.01557">
        <ele>90</ele>
        <time>2010-03-19T10:56:58Z</time>
      </trkpt>
      <trkpt lat="48.59047" lon="2.01555">
        <ele>89</ele>
        <time>2010-03-19T10:56:59Z</time>
      </trkpt>
      <trkpt lat="48.59047" lon="2.01554">
        <ele>89</ele>
        <time>2010-03-19T10:57:00Z</time>
      </trkpt>
      <trkpt lat="48.59045" lon="2.01552">
        <ele>89</ele>
        <time>2010-03-19T10:57:01Z</time>
      </trkpt>
      <trkpt lat="48.59044" lon="2.0155">
        <ele>89</ele>
        <time>2010-03-19T10:57:02Z</time>
      </trkpt>
      <trkpt lat="48.59043" lon="2.01549">
        <ele>89</ele>
        <time>2010-03-19T10:57:03Z</time>
      </trkpt>
      <trkpt lat="48.59042" lon="2.01547">
        <ele>89</ele>
        <time>2010-03-19T10:57:04Z</time>
      </trkpt>
      <trkpt lat="48.59041" lon="2.01545">
        <ele>89</ele>
        <time>2010-03-19T10:57:05Z</time>
      </trkpt>
      <trkpt lat="48.5904" lon="2.01543">
        <ele>89</ele>
        <time>2010-03-19T10:57:06Z</time>
      </trkpt>
      <trkpt lat="48.5904" lon="2.01541">
        <ele>89</ele>
        <time>2010-03-19T10:57:07Z</time>
      </trkpt>
      <trkpt lat="48.59039" lon="2.01539">
        <ele>89</ele>
        <time>2010-03-19T10:57:08Z</time>
      </trkpt>
      <trkpt lat="48.59038" lon="2.01537">
        <ele>89</ele>
        <time>2010-03-19T10:57:09Z</time>
      </trkpt>
      <trkpt lat="48.59037" lon="2.01535">
        <ele>89</ele>
        <time>2010-03-19T10:57:10Z</time>
      </trkpt>
      <trkpt lat="48.59036" lon="2.01534">
        <ele>89</ele>
        <time>2010-03-19T10:57:11Z</time>
      </trkpt>
      <trkpt lat="48.59035" lon="2.01532">
        <ele>89</ele>
        <time>2010-03-19T10:57:12Z</time>
      </trkpt>
      <trkpt lat="48.59034" lon="2.01528">
        <ele>89</ele>
        <time>2010-03-19T10:57:14Z</time>
      </trkpt>
      <trkpt lat="48.59033" lon="2.01527">
        <ele>89</ele>
        <time>2010-03-19T10:57:15Z</time>
      </trkpt>
      <trkpt lat="48.59032" lon="2.01523">
        <ele>88</ele>
        <time>2010-03-19T10:57:17Z</time>
      </trkpt>
      <trkpt lat="48.59031" lon="2.0152">
        <ele>88</ele>
        <time>2010-03-19T10:57:19Z</time>
      </trkpt>
      <trkpt lat="48.5903" lon="2.01518">
        <ele>88</ele>
        <time>2010-03-19T10:57:21Z</time>
      </trkpt>
      <trkpt lat="48.59029" lon="2.01516">
        <ele>88</ele>
        <time>2010-03-19T10:57:22Z</time>
      </trkpt>
      <trkpt lat="48.59028" lon="2.01514">
        <ele>88</ele>
        <time>2010-03-19T10:57:23Z</time>
      </trkpt>
      <trkpt lat="48.59027" lon="2.01511">
        <ele>88</ele>
        <time>2010-03-19T10:57:25Z</time>
      </trkpt>
      <trkpt lat="48.59026" lon="2.01509">
        <ele>88</ele>
        <time>2010-03-19T10:57:26Z</time>
      </trkpt>
      <trkpt lat="48.59026" lon="2.01507">
        <ele>87</ele>
        <time>2010-03-19T10:57:27Z</time>
      </trkpt>
      <trkpt lat="48.59025" lon="2.01506">
        <ele>87</ele>
        <time>2010-03-19T10:57:28Z</time>
      </trkpt>
      <trkpt lat="48.59025" lon="2.01504">
        <ele>87</ele>
        <time>2010-03-19T10:57:29Z</time>
      </trkpt>
      <trkpt lat="48.59024" lon="2.01501">
        <ele>87</ele>
        <time>2010-03-19T10:57:31Z</time>
      </trkpt>
      <trkpt lat="48.59023" lon="2.01498">
        <ele>87</ele>
        <time>2010-03-19T10:57:33Z</time>
      </trkpt>
      <trkpt lat="48.59022" lon="2.01496">
        <ele>87</ele>
        <time>2010-03-19T10:57:34Z</time>
      </trkpt>
      <trkpt lat="48.59022" lon="2.01494">
        <ele>87</ele>
        <time>2010-03-19T10:57:35Z</time>
      </trkpt>
      <trkpt lat="48.59021" lon="2.01492">
        <ele>87</ele>
        <time>2010-03-19T10:57:36Z</time>
      </trkpt>
      <trkpt lat="48.59021" lon="2.0149">
        <ele>87</ele>
        <time>2010-03-19T10:57:37Z</time>
      </trkpt>
      <trkpt lat="48.59021" lon="2.01488">
        <ele>86</ele>
        <time>2010-03-19T10:57:38Z</time>
      </trkpt>
      <trkpt lat="48.5902" lon="2.01486">
        <ele>86</ele>
        <time>2010-03-19T10:57:39Z</time>
      </trkpt>
      <trkpt lat="48.5902" lon="2.01484">
        <ele>86</ele>
        <time>2010-03-19T10:57:40Z</time>
      </trkpt>
      <trkpt lat="48.59019" lon="2.01482">
        <ele>86</ele>
        <time>2010-03-19T10:57:41Z</time>
      </trkpt>
      <trkpt lat="48.59018" lon="2.0148">
        <ele>86</ele>
        <time>2010-03-19T10:57:42Z</time>
      </trkpt>
      <trkpt lat="48.59018" lon="2.01478">
        <ele>86</ele>
        <time>2010-03-19T10:57:43Z</time>
      </trkpt>
      <trkpt lat="48.59018" lon="2.01476">
        <ele>86</ele>
        <time>2010-03-19T10:57:44Z</time>
      </trkpt>
      <trkpt lat="48.59017" lon="2.01474">
        <ele>86</ele>
        <time>2010-03-19T10:57:45Z</time>
      </trkpt>
      <trkpt lat="48.59017" lon="2.01472">
        <ele>86</ele>
        <time>2010-03-19T10:57:46Z</time>
      </trkpt>
      <trkpt lat="48.59017" lon="2.01469">
        <ele>86</ele>
        <time>2010-03-19T10:57:47Z</time>
      </trkpt>
      <trkpt lat="48.59017" lon="2.01467">
        <ele>85</ele>
        <time>2010-03-19T10:57:48Z</time>
      </trkpt>
      <trkpt lat="48.59017" lon="2.01465">
        <ele>85</ele>
        <time>2010-03-19T10:57:49Z</time>
      </trkpt>
      <trkpt lat="48.59016" lon="2.01463">
        <ele>85</ele>
        <time>2010-03-19T10:57:51Z</time>
      </trkpt>
      <trkpt lat="48.59016" lon="2.01461">
        <ele>85</ele>
        <time>2010-03-19T10:57:54Z</time>
      </trkpt>
      <trkpt lat="48.59016" lon="2.01459">
        <ele>84</ele>
        <time>2010-03-19T10:57:55Z</time>
      </trkpt>
      <trkpt lat="48.59016" lon="2.01457">
        <ele>84</ele>
        <time>2010-03-19T10:57:56Z</time>
      </trkpt>
      <trkpt lat="48.59015" lon="2.01455">
        <ele>84</ele>
        <time>2010-03-19T10:57:57Z</time>
      </trkpt>
      <trkpt lat="48.59015" lon="2.01452">
        <ele>84</ele>
        <time>2010-03-19T10:57:58Z</time>
      </trkpt>
      <trkpt lat="48.59014" lon="2.0145">
        <ele>84</ele>
        <time>2010-03-19T10:57:59Z</time>
      </trkpt>
      <trkpt lat="48.59013" lon="2.01448">
        <ele>84</ele>
        <time>2010-03-19T10:58:00Z</time>
      </trkpt>
      <trkpt lat="48.59013" lon="2.01446">
        <ele>83</ele>
        <time>2010-03-19T10:58:01Z</time>
      </trkpt>
      <trkpt lat="48.59012" lon="2.01444">
        <ele>83</ele>
        <time>2010-03-19T10:58:02Z</time>
      </trkpt>
      <trkpt lat="48.59012" lon="2.01442">
        <ele>83</ele>
        <time>2010-03-19T10:58:03Z</time>
      </trkpt>
      <trkpt lat="48.59012" lon="2.01439">
        <ele>83</ele>
        <time>2010-03-19T10:58:04Z</time>
      </trkpt>
      <trkpt lat="48.59011" lon="2.01437">
        <ele>83</ele>
        <time>2010-03-19T10:58:05Z</time>
      </trkpt>
      <trkpt lat="48.59011" lon="2.01435">
        <ele>83</ele>
        <time>2010-03-19T10:58:06Z</time>
      </trkpt>
      <trkpt lat="48.5901" lon="2.01433">
        <ele>83</ele>
        <time>2010-03-19T10:58:07Z</time>
      </trkpt>
      <trkpt lat="48.5901" lon="2.01431">
        <ele>83</ele>
        <time>2010-03-19T10:58:08Z</time>
      </trkpt>
      <trkpt lat="48.59011" lon="2.01429">
        <ele>83</ele>
        <time>2010-03-19T10:58:09Z</time>
      </trkpt>
      <trkpt lat="48.59011" lon="2.01427">
        <ele>83</ele>
        <time>2010-03-19T10:58:10Z</time>
      </trkpt>
      <trkpt lat="48.5901" lon="2.01425">
        <ele>83</ele>
        <time>2010-03-19T10:58:11Z</time>
      </trkpt>
      <trkpt lat="48.5901" lon="2.01423">
        <ele>83</ele>
        <time>2010-03-19T10:58:12Z</time>
      </trkpt>
      <trkpt lat="48.5901" lon="2.0142">
        <ele>83</ele>
        <time>2010-03-19T10:58:13Z</time>
      </trkpt>
      <trkpt lat="48.59009" lon="2.01418">
        <ele>83</ele>
        <time>2010-03-19T10:58:14Z</time>
      </trkpt>
      <trkpt lat="48.59009" lon="2.01415">
        <ele>83</ele>
        <time>2010-03-19T10:58:15Z</time>
      </trkpt>
      <trkpt lat="48.59008" lon="2.01413">
        <ele>83</ele>
        <time>2010-03-19T10:58:16Z</time>
      </trkpt>
      <trkpt lat="48.59008" lon="2.01411">
        <ele>83</ele>
        <time>2010-03-19T10:58:17Z</time>
      </trkpt>
      <trkpt lat="48.59008" lon="2.01409">
        <ele>83</ele>
        <time>2010-03-19T10:58:18Z</time>
      </trkpt>
      <trkpt lat="48.59008" lon="2.01406">
        <ele>83</ele>
        <time>2010-03-19T10:58:19Z</time>
      </trkpt>
      <trkpt lat="48.59007" lon="2.01404">
        <ele>83</ele>
        <time>2010-03-19T10:58:20Z</time>
      </trkpt>
      <trkpt lat="48.59007" lon="2.01402">
        <ele>83</ele>
        <time>2010-03-19T10:58:21Z</time>
      </trkpt>
      <trkpt lat="48.59007" lon="2.01399">
        <ele>83</ele>
        <time>2010-03-19T10:58:22Z</time>
      </trkpt>
      <trkpt lat="48.59006" lon="2.01397">
        <ele>83</ele>
        <time>2010-03-19T10:58:23Z</time>
      </trkpt>
      <trkpt lat="48.59005" lon="2.01395">
        <ele>83</ele>
        <time>2010-03-19T10:58:24Z</time>
      </trkpt>
      <trkpt lat="48.59005" lon="2.01393">
        <ele>83</ele>
        <time>2010-03-19T10:58:25Z</time>
      </trkpt>
      <trkpt lat="48.59004" lon="2.01391">
        <ele>83</ele>
        <time>2010-03-19T10:58:26Z</time>
      </trkpt>
      <trkpt lat="48.59004" lon="2.01388">
        <ele>83</ele>
        <time>2010-03-19T10:58:27Z</time>
      </trkpt>
      <trkpt lat="48.59003" lon="2.01386">
        <ele>82</ele>
        <time>2010-03-19T10:58:28Z</time>
      </trkpt>
      <trkpt lat="48.59003" lon="2.01384">
        <ele>82</ele>
        <time>2010-03-19T10:58:29Z</time>
      </trkpt>
      <trkpt lat="48.59003" lon="2.01382">
        <ele>82</ele>
        <time>2010-03-19T10:58:30Z</time>
      </trkpt>
      <trkpt lat="48.59002" lon="2.0138">
        <ele>82</ele>
        <time>2010-03-19T10:58:31Z</time>
      </trkpt>
      <trkpt lat="48.59002" lon="2.01378">
        <ele>82</ele>
        <time>2010-03-19T10:58:32Z</time>
      </trkpt>
      <trkpt lat="48.59002" lon="2.01376">
        <ele>82</ele>
        <time>2010-03-19T10:58:33Z</time>
      </trkpt>
      <trkpt lat="48.59001" lon="2.01374">
        <ele>82</ele>
        <time>2010-03-19T10:58:34Z</time>
      </trkpt>
      <trkpt lat="48.59001" lon="2.01372">
        <ele>82</ele>
        <time>2010-03-19T10:58:35Z</time>
      </trkpt>
      <trkpt lat="48.59" lon="2.0137">
        <ele>82</ele>
        <time>2010-03-19T10:58:36Z</time>
      </trkpt>
      <trkpt lat="48.59" lon="2.01367">
        <ele>82</ele>
        <time>2010-03-19T10:58:37Z</time>
      </trkpt>
      <trkpt lat="48.59" lon="2.01365">
        <ele>82</ele>
        <time>2010-03-19T10:58:38Z</time>
      </trkpt>
      <trkpt lat="48.58999" lon="2.01362">
        <ele>82</ele>
        <time>2010-03-19T10:58:39Z</time>
      </trkpt>
      <trkpt lat="48.58999" lon="2.0136">
        <ele>82</ele>
        <time>2010-03-19T10:58:40Z</time>
      </trkpt>
      <trkpt lat="48.58998" lon="2.01358">
        <ele>82</ele>
        <time>2010-03-19T10:58:41Z</time>
      </trkpt>
      <trkpt lat="48.58998" lon="2.01356">
        <ele>82</ele>
        <time>2010-03-19T10:58:42Z</time>
      </trkpt>
      <trkpt lat="48.58998" lon="2.01353">
        <ele>82</ele>
        <time>2010-03-19T10:58:43Z</time>
      </trkpt>
      <trkpt lat="48.58997" lon="2.01351">
        <ele>82</ele>
        <time>2010-03-19T10:58:44Z</time>
      </trkpt>
      <trkpt lat="48.58997" lon="2.01349">
        <ele>82</ele>
        <time>2010-03-19T10:58:45Z</time>
      </trkpt>
      <trkpt lat="48.58997" lon="2.01347">
        <ele>82</ele>
        <time>2010-03-19T10:58:46Z</time>
      </trkpt>
      <trkpt lat="48.58996" lon="2.01345">
        <ele>82</ele>
        <time>2010-03-19T10:58:47Z</time>
      </trkpt>
      <trkpt lat="48.58995" lon="2.01342">
        <ele>82</ele>
        <time>2010-03-19T10:58:48Z</time>
      </trkpt>
      <trkpt lat="48.58995" lon="2.0134">
        <ele>82</ele>
        <time>2010-03-19T10:58:49Z</time>
      </trkpt>
      <trkpt lat="48.58995" lon="2.01337">
        <ele>82</ele>
        <time>2010-03-19T10:58:50Z</time>
      </trkpt>
      <trkpt lat="48.58994" lon="2.01335">
        <ele>82</ele>
        <time>2010-03-19T10:58:51Z</time>
      </trkpt>
      <trkpt lat="48.58994" lon="2.01333">
        <ele>82</ele>
        <time>2010-03-19T10:58:52Z</time>
      </trkpt>
      <trkpt lat="48.58993" lon="2.01331">
        <ele>82</ele>
        <time>2010-03-19T10:58:53Z</time>
      </trkpt>
      <trkpt lat="48.58992" lon="2.01329">
        <ele>82</ele>
        <time>2010-03-19T10:58:54Z</time>
      </trkpt>
      <trkpt lat="48.58992" lon="2.01327">
        <ele>82</ele>
        <time>2010-03-19T10:58:55Z</time>
      </trkpt>
      <trkpt lat="48.58991" lon="2.01324">
        <ele>82</ele>
        <time>2010-03-19T10:58:56Z</time>
      </trkpt>
      <trkpt lat="48.58991" lon="2.01322">
        <ele>82</ele>
        <time>2010-03-19T10:58:57Z</time>
      </trkpt>
      <trkpt lat="48.5899" lon="2.0132">
        <ele>82</ele>
        <time>2010-03-19T10:58:58Z</time>
      </trkpt>
      <trkpt lat="48.5899" lon="2.01317">
        <ele>82</ele>
        <time>2010-03-19T10:58:59Z</time>
      </trkpt>
      <trkpt lat="48.5899" lon="2.01314">
        <ele>82</ele>
        <time>2010-03-19T10:59:00Z</time>
      </trkpt>
      <trkpt lat="48.58989" lon="2.01312">
        <ele>82</ele>
        <time>2010-03-19T10:59:01Z</time>
      </trkpt>
      <trkpt lat="48.58989" lon="2.01309">
        <ele>82</ele>
        <time>2010-03-19T10:59:02Z</time>
      </trkpt>
      <trkpt lat="48.58989" lon="2.01307">
        <ele>82</ele>
        <time>2010-03-19T10:59:03Z</time>
      </trkpt>
      <trkpt lat="48.58989" lon="2.01304">
        <ele>82</ele>
        <time>2010-03-19T10:59:04Z</time>
      </trkpt>
      <trkpt lat="48.58989" lon="2.01301">
        <ele>82</ele>
        <time>2010-03-19T10:59:05Z</time>
      </trkpt>
      <trkpt lat="48.58989" lon="2.01298">
        <ele>82</ele>
        <time>2010-03-19T10:59:06Z</time>
      </trkpt>
      <trkpt lat="48.58989" lon="2.01295">
        <ele>82</ele>
        <time>2010-03-19T10:59:07Z</time>
      </trkpt>
      <trkpt lat="48.58988" lon="2.01292">
        <ele>82</ele>
        <time>2010-03-19T10:59:08Z</time>
      </trkpt>
      <trkpt lat="48.58987" lon="2.0129">
        <ele>82</ele>
        <time>2010-03-19T10:59:09Z</time>
      </trkpt>
      <trkpt lat="48.58987" lon="2.01287">
        <ele>82</ele>
        <time>2010-03-19T10:59:10Z</time>
      </trkpt>
      <trkpt lat="48.58987" lon="2.01285">
        <ele>82</ele>
        <time>2010-03-19T10:59:11Z</time>
      </trkpt>
      <trkpt lat="48.58986" lon="2.01282">
        <ele>82</ele>
        <time>2010-03-19T10:59:12Z</time>
      </trkpt>
      <trkpt lat="48.58986" lon="2.01279">
        <ele>82</ele>
        <time>2010-03-19T10:59:13Z</time>
      </trkpt>
      <trkpt lat="48.58986" lon="2.01277">
        <ele>82</ele>
        <time>2010-03-19T10:59:14Z</time>
      </trkpt>
      <trkpt lat="48.58985" lon="2.01274">
        <ele>82</ele>
        <time>2010-03-19T10:59:15Z</time>
      </trkpt>
      <trkpt lat="48.58985" lon="2.01272">
        <ele>82</ele>
        <time>2010-03-19T10:59:16Z</time>
      </trkpt>
      <trkpt lat="48.58984" lon="2.01269">
        <ele>82</ele>
        <time>2010-03-19T10:59:17Z</time>
      </trkpt>
      <trkpt lat="48.58984" lon="2.01267">
        <ele>82</ele>
        <time>2010-03-19T10:59:18Z</time>
      </trkpt>
      <trkpt lat="48.58984" lon="2.01265">
        <ele>82</ele>
        <time>2010-03-19T10:59:19Z</time>
      </trkpt>
      <trkpt lat="48.58983" lon="2.01262">
        <ele>82</ele>
        <time>2010-03-19T10:59:20Z</time>
      </trkpt>
      <trkpt lat="48.58983" lon="2.0126">
        <ele>82</ele>
        <time>2010-03-19T10:59:21Z</time>
      </trkpt>
      <trkpt lat="48.58982" lon="2.01257">
        <ele>82</ele>
        <time>2010-03-19T10:59:22Z</time>
      </trkpt>
      <trkpt lat="48.58982" lon="2.01255">
        <ele>82</ele>
        <time>2010-03-19T10:59:23Z</time>
      </trkpt>
      <trkpt lat="48.58981" lon="2.01252">
        <ele>82</ele>
        <time>2010-03-19T10:59:24Z</time>
      </trkpt>
      <trkpt lat="48.58979" lon="2.0125">
        <ele>82</ele>
        <time>2010-03-19T10:59:25Z</time>
      </trkpt>
      <trkpt lat="48.58979" lon="2.01247">
        <ele>82</ele>
        <time>2010-03-19T10:59:26Z</time>
      </trkpt>
      <trkpt lat="48.58978" lon="2.01245">
        <ele>82</ele>
        <time>2010-03-19T10:59:27Z</time>
      </trkpt>
      <trkpt lat="48.58978" lon="2.01242">
        <ele>82</ele>
        <time>2010-03-19T10:59:28Z</time>
      </trkpt>
      <trkpt lat="48.58978" lon="2.0124">
        <ele>82</ele>
        <time>2010-03-19T10:59:29Z</time>
      </trkpt>
      <trkpt lat="48.58977" lon="2.01238">
        <ele>82</ele>
        <time>2010-03-19T10:59:30Z</time>
      </trkpt>
      <trkpt lat="48.58976" lon="2.01236">
        <ele>82</ele>
        <time>2010-03-19T10:59:31Z</time>
      </trkpt>
      <trkpt lat="48.58976" lon="2.01233">
        <ele>82</ele>
        <time>2010-03-19T10:59:32Z</time>
      </trkpt>
      <trkpt lat="48.58975" lon="2.01231">
        <ele>82</ele>
        <time>2010-03-19T10:59:33Z</time>
      </trkpt>
      <trkpt lat="48.58975" lon="2.01228">
        <ele>83</ele>
        <time>2010-03-19T10:59:34Z</time>
      </trkpt>
      <trkpt lat="48.58974" lon="2.01226">
        <ele>83</ele>
        <time>2010-03-19T10:59:35Z</time>
      </trkpt>
      <trkpt lat="48.58974" lon="2.01223">
        <ele>83</ele>
        <time>2010-03-19T10:59:36Z</time>
      </trkpt>
      <trkpt lat="48.58974" lon="2.01221">
        <ele>83</ele>
        <time>2010-03-19T10:59:37Z</time>
      </trkpt>
      <trkpt lat="48.58973" lon="2.01219">
        <ele>83</ele>
        <time>2010-03-19T10:59:38Z</time>
      </trkpt>
      <trkpt lat="48.58973" lon="2.01216">
        <ele>83</ele>
        <time>2010-03-19T10:59:39Z</time>
      </trkpt>
      <trkpt lat="48.58973" lon="2.01214">
        <ele>83</ele>
        <time>2010-03-19T10:59:40Z</time>
      </trkpt>
      <trkpt lat="48.58973" lon="2.01212">
        <ele>83</ele>
        <time>2010-03-19T10:59:41Z</time>
      </trkpt>
      <trkpt lat="48.58972" lon="2.01209">
        <ele>83</ele>
        <time>2010-03-19T10:59:42Z</time>
      </trkpt>
      <trkpt lat="48.58972" lon="2.01207">
        <ele>83</ele>
        <time>2010-03-19T10:59:43Z</time>
      </trkpt>
      <trkpt lat="48.58971" lon="2.01205">
        <ele>83</ele>
        <time>2010-03-19T10:59:44Z</time>
      </trkpt>
      <trkpt lat="48.58971" lon="2.01202">
        <ele>83</ele>
        <time>2010-03-19T10:59:45Z</time>
      </trkpt>
      <trkpt lat="48.5897" lon="2.012">
        <ele>83</ele>
        <time>2010-03-19T10:59:46Z</time>
      </trkpt>
      <trkpt lat="48.58969" lon="2.01197">
        <ele>83</ele>
        <time>2010-03-19T10:59:47Z</time>
      </trkpt>
      <trkpt lat="48.58969" lon="2.01195">
        <ele>83</ele>
        <time>2010-03-19T10:59:48Z</time>
      </trkpt>
      <trkpt lat="48.58968" lon="2.01193">
        <ele>83</ele>
        <time>2010-03-19T10:59:49Z</time>
      </trkpt>
      <trkpt lat="48.58968" lon="2.0119">
        <ele>83</ele>
        <time>2010-03-19T10:59:50Z</time>
      </trkpt>
      <trkpt lat="48.58967" lon="2.01188">
        <ele>83</ele>
        <time>2010-03-19T10:59:51Z</time>
      </trkpt>
      <trkpt lat="48.58967" lon="2.01185">
        <ele>83</ele>
        <time>2010-03-19T10:59:52Z</time>
      </trkpt>
      <trkpt lat="48.58966" lon="2.01183">
        <ele>84</ele>
        <time>2010-03-19T10:59:53Z</time>
      </trkpt>
      <trkpt lat="48.58966" lon="2.0118">
        <ele>84</ele>
        <time>2010-03-19T10:59:54Z</time>
      </trkpt>
      <trkpt lat="48.58966" lon="2.01178">
        <ele>84</ele>
        <time>2010-03-19T10:59:55Z</time>
      </trkpt>
      <trkpt lat="48.58965" lon="2.01175">
        <ele>84</ele>
        <time>2010-03-19T10:59:56Z</time>
      </trkpt>
      <trkpt lat="48.58965" lon="2.01173">
        <ele>84</ele>
        <time>2010-03-19T10:59:57Z</time>
      </trkpt>
      <trkpt lat="48.58965" lon="2.0117">
        <ele>84</ele>
        <time>2010-03-19T10:59:58Z</time>
      </trkpt>
      <trkpt lat="48.58964" lon="2.01168">
        <ele>84</ele>
        <time>2010-03-19T10:59:59Z</time>
      </trkpt>
      <trkpt lat="48.58963" lon="2.01164">
        <ele>84</ele>
        <time>2010-03-19T11:00:01Z</time>
      </trkpt>
      <trkpt lat="48.58962" lon="2.01161">
        <ele>84</ele>
        <time>2010-03-19T11:00:02Z</time>
      </trkpt>
      <trkpt lat="48.58962" lon="2.01158">
        <ele>84</ele>
        <time>2010-03-19T11:00:03Z</time>
      </trkpt>
      <trkpt lat="48.58961" lon="2.01155">
        <ele>84</ele>
        <time>2010-03-19T11:00:04Z</time>
      </trkpt>
      <trkpt lat="48.58961" lon="2.01153">
        <ele>84</ele>
        <time>2010-03-19T11:00:05Z</time>
      </trkpt>
      <trkpt lat="48.58961" lon="2.0115">
        <ele>84</ele>
        <time>2010-03-19T11:00:06Z</time>
      </trkpt>
      <trkpt lat="48.5896" lon="2.01148">
        <ele>84</ele>
        <time>2010-03-19T11:00:07Z</time>
      </trkpt>
      <trkpt lat="48.5896" lon="2.01145">
        <ele>84</ele>
        <time>2010-03-19T11:00:08Z</time>
      </trkpt>
      <trkpt lat="48.5896" lon="2.01143">
        <ele>84</ele>
        <time>2010-03-19T11:00:09Z</time>
      </trkpt>
      <trkpt lat="48.58959" lon="2.0114">
        <ele>84</ele>
        <time>2010-03-19T11:00:10Z</time>
      </trkpt>
      <trkpt lat="48.58959" lon="2.01137">
        <ele>84</ele>
        <time>2010-03-19T11:00:11Z</time>
      </trkpt>
      <trkpt lat="48.58959" lon="2.01135">
        <ele>84</ele>
        <time>2010-03-19T11:00:12Z</time>
      </trkpt>
      <trkpt lat="48.58958" lon="2.01133">
        <ele>84</ele>
        <time>2010-03-19T11:00:13Z</time>
      </trkpt>
      <trkpt lat="48.58958" lon="2.0113">
        <ele>84</ele>
        <time>2010-03-19T11:00:14Z</time>
      </trkpt>
      <trkpt lat="48.58957" lon="2.01128">
        <ele>84</ele>
        <time>2010-03-19T11:00:15Z</time>
      </trkpt>
      <trkpt lat="48.58957" lon="2.01126">
        <ele>84</ele>
        <time>2010-03-19T11:00:16Z</time>
      </trkpt>
      <trkpt lat="48.58957" lon="2.01123">
        <ele>84</ele>
        <time>2010-03-19T11:00:17Z</time>
      </trkpt>
      <trkpt lat="48.58956" lon="2.01121">
        <ele>84</ele>
        <time>2010-03-19T11:00:18Z</time>
      </trkpt>
      <trkpt lat="48.58956" lon="2.01119">
        <ele>84</ele>
        <time>2010-03-19T11:00:19Z</time>
      </trkpt>
      <trkpt lat="48.58955" lon="2.01116">
        <ele>84</ele>
        <time>2010-03-19T11:00:20Z</time>
      </trkpt>
      <trkpt lat="48.58955" lon="2.01114">
        <ele>84</ele>
        <time>2010-03-19T11:00:21Z</time>
      </trkpt>
      <trkpt lat="48.58954" lon="2.01112">
        <ele>84</ele>
        <time>2010-03-19T11:00:22Z</time>
      </trkpt>
      <trkpt lat="48.58954" lon="2.01109">
        <ele>84</ele>
        <time>2010-03-19T11:00:23Z</time>
      </trkpt>
      <trkpt lat="48.58953" lon="2.01107">
        <ele>84</ele>
        <time>2010-03-19T11:00:24Z</time>
      </trkpt>
      <trkpt lat="48.58953" lon="2.01104">
        <ele>84</ele>
        <time>2010-03-19T11:00:25Z</time>
      </trkpt>
      <trkpt lat="48.58953" lon="2.01102">
        <ele>84</ele>
        <time>2010-03-19T11:00:26Z</time>
      </trkpt>
      <trkpt lat="48.58953" lon="2.01099">
        <ele>84</ele>
        <time>2010-03-19T11:00:27Z</time>
      </trkpt>
      <trkpt lat="48.58953" lon="2.01097">
        <ele>84</ele>
        <time>2010-03-19T11:00:28Z</time>
      </trkpt>
      <trkpt lat="48.58952" lon="2.01094">
        <ele>84</ele>
        <time>2010-03-19T11:00:29Z</time>
      </trkpt>
      <trkpt lat="48.58952" lon="2.01092">
        <ele>84</ele>
        <time>2010-03-19T11:00:30Z</time>
      </trkpt>
      <trkpt lat="48.58951" lon="2.01089">
        <ele>84</ele>
        <time>2010-03-19T11:00:31Z</time>
      </trkpt>
      <trkpt lat="48.58951" lon="2.01086">
        <ele>84</ele>
        <time>2010-03-19T11:00:32Z</time>
      </trkpt>
      <trkpt lat="48.5895" lon="2.01084">
        <ele>84</ele>
        <time>2010-03-19T11:00:33Z</time>
      </trkpt>
      <trkpt lat="48.5895" lon="2.01082">
        <ele>84</ele>
        <time>2010-03-19T11:00:34Z</time>
      </trkpt>
      <trkpt lat="48.5895" lon="2.01079">
        <ele>84</ele>
        <time>2010-03-19T11:00:35Z</time>
      </trkpt>
      <trkpt lat="48.58949" lon="2.01077">
        <ele>84</ele>
        <time>2010-03-19T11:00:36Z</time>
      </trkpt>
      <trkpt lat="48.58949" lon="2.01074">
        <ele>84</ele>
        <time>2010-03-19T11:00:37Z</time>
      </trkpt>
      <trkpt lat="48.58949" lon="2.01072">
        <ele>84</ele>
        <time>2010-03-19T11:00:38Z</time>
      </trkpt>
      <trkpt lat="48.58948" lon="2.01069">
        <ele>84</ele>
        <time>2010-03-19T11:00:39Z</time>
      </trkpt>
      <trkpt lat="48.58947" lon="2.01066">
        <ele>84</ele>
        <time>2010-03-19T11:00:40Z</time>
      </trkpt>
      <trkpt lat="48.58947" lon="2.01063">
        <ele>84</ele>
        <time>2010-03-19T11:00:41Z</time>
      </trkpt>
      <trkpt lat="48.58946" lon="2.01061">
        <ele>84</ele>
        <time>2010-03-19T11:00:42Z</time>
      </trkpt>
      <trkpt lat="48.58946" lon="2.01058">
        <ele>84</ele>
        <time>2010-03-19T11:00:43Z</time>
      </trkpt>
      <trkpt lat="48.58945" lon="2.01055">
        <ele>84</ele>
        <time>2010-03-19T11:00:44Z</time>
      </trkpt>
      <trkpt lat="48.58945" lon="2.01053">
        <ele>84</ele>
        <time>2010-03-19T11:00:45Z</time>
      </trkpt>
      <trkpt lat="48.58945" lon="2.0105">
        <ele>85</ele>
        <time>2010-03-19T11:00:46Z</time>
      </trkpt>
      <trkpt lat="48.58945" lon="2.01048">
        <ele>85</ele>
        <time>2010-03-19T11:00:47Z</time>
      </trkpt>
      <trkpt lat="48.58944" lon="2.01045">
        <ele>85</ele>
        <time>2010-03-19T11:00:48Z</time>
      </trkpt>
      <trkpt lat="48.58944" lon="2.01042">
        <ele>85</ele>
        <time>2010-03-19T11:00:49Z</time>
      </trkpt>
      <trkpt lat="48.58944" lon="2.0104">
        <ele>85</ele>
        <time>2010-03-19T11:00:50Z</time>
      </trkpt>
      <trkpt lat="48.58944" lon="2.01037">
        <ele>85</ele>
        <time>2010-03-19T11:00:51Z</time>
      </trkpt>
      <trkpt lat="48.58943" lon="2.01034">
        <ele>85</ele>
        <time>2010-03-19T11:00:52Z</time>
      </trkpt>
      <trkpt lat="48.58942" lon="2.01032">
        <ele>85</ele>
        <time>2010-03-19T11:00:53Z</time>
      </trkpt>
      <trkpt lat="48.58942" lon="2.01029">
        <ele>85</ele>
        <time>2010-03-19T11:00:54Z</time>
      </trkpt>
      <trkpt lat="48.58941" lon="2.01026">
        <ele>85</ele>
        <time>2010-03-19T11:00:55Z</time>
      </trkpt>
      <trkpt lat="48.58941" lon="2.01023">
        <ele>85</ele>
        <time>2010-03-19T11:00:56Z</time>
      </trkpt>
      <trkpt lat="48.58941" lon="2.01021">
        <ele>85</ele>
        <time>2010-03-19T11:00:57Z</time>
      </trkpt>
      <trkpt lat="48.58941" lon="2.01018">
        <ele>86</ele>
        <time>2010-03-19T11:00:58Z</time>
      </trkpt>
      <trkpt lat="48.58943" lon="2.01017">
        <ele>86</ele>
        <time>2010-03-19T11:00:59Z</time>
      </trkpt>
      <trkpt lat="48.58945" lon="2.01018">
        <ele>86</ele>
        <time>2010-03-19T11:01:00Z</time>
      </trkpt>
      <trkpt lat="48.58948" lon="2.0102">
        <ele>86</ele>
        <time>2010-03-19T11:01:01Z</time>
      </trkpt>
      <trkpt lat="48.5895" lon="2.01022">
        <ele>86</ele>
        <time>2010-03-19T11:01:02Z</time>
      </trkpt>
      <trkpt lat="48.58952" lon="2.01023">
        <ele>86</ele>
        <time>2010-03-19T11:01:03Z</time>
      </trkpt>
      <trkpt lat="48.58954" lon="2.01024">
        <ele>86</ele>
        <time>2010-03-19T11:01:04Z</time>
      </trkpt>
      <trkpt lat="48.58955" lon="2.01024">
        <ele>86</ele>
        <time>2010-03-19T11:01:05Z</time>
      </trkpt>
      <trkpt lat="48.58957" lon="2.01026">
        <ele>86</ele>
        <time>2010-03-19T11:01:06Z</time>
      </trkpt>
      <trkpt lat="48.58958" lon="2.01027">
        <ele>86</ele>
        <time>2010-03-19T11:01:07Z</time>
      </trkpt>
      <trkpt lat="48.5896" lon="2.01029">
        <ele>86</ele>
        <time>2010-03-19T11:01:08Z</time>
      </trkpt>
      <trkpt lat="48.58961" lon="2.01029">
        <ele>86</ele>
        <time>2010-03-19T11:01:09Z</time>
      </trkpt>
      <trkpt lat="48.58963" lon="2.0103">
        <ele>86</ele>
        <time>2010-03-19T11:01:10Z</time>
      </trkpt>
      <trkpt lat="48.58965" lon="2.01031">
        <ele>86</ele>
        <time>2010-03-19T11:01:11Z</time>
      </trkpt>
      <trkpt lat="48.58966" lon="2.01032">
        <ele>86</ele>
        <time>2010-03-19T11:01:12Z</time>
      </trkpt>
      <trkpt lat="48.58969" lon="2.01033">
        <ele>86</ele>
        <time>2010-03-19T11:01:13Z</time>
      </trkpt>
      <trkpt lat="48.58973" lon="2.01034">
        <ele>86</ele>
        <time>2010-03-19T11:01:14Z</time>
      </trkpt>
      <trkpt lat="48.58976" lon="2.01035">
        <ele>86</ele>
        <time>2010-03-19T11:01:15Z</time>
      </trkpt>
      <trkpt lat="48.5898" lon="2.01036">
        <ele>86</ele>
        <time>2010-03-19T11:01:16Z</time>
      </trkpt>
      <trkpt lat="48.58983" lon="2.01037">
        <ele>86</ele>
        <time>2010-03-19T11:01:17Z</time>
      </trkpt>
      <trkpt lat="48.58988" lon="2.01037">
        <ele>86</ele>
        <time>2010-03-19T11:01:18Z</time>
      </trkpt>
      <trkpt lat="48.58992" lon="2.01037">
        <ele>86</ele>
        <time>2010-03-19T11:01:19Z</time>
      </trkpt>
      <trkpt lat="48.58997" lon="2.01035">
        <ele>86</ele>
        <time>2010-03-19T11:01:20Z</time>
      </trkpt>
      <trkpt lat="48.59002" lon="2.01034">
        <ele>86</ele>
        <time>2010-03-19T11:01:21Z</time>
      </trkpt>
      <trkpt lat="48.59007" lon="2.01033">
        <ele>86</ele>
        <time>2010-03-19T11:01:22Z</time>
      </trkpt>
      <trkpt lat="48.59011" lon="2.01032">
        <ele>86</ele>
        <time>2010-03-19T11:01:23Z</time>
      </trkpt>
      <trkpt lat="48.59015" lon="2.0103">
        <ele>86</ele>
        <time>2010-03-19T11:01:24Z</time>
      </trkpt>
      <trkpt lat="48.59018" lon="2.01029">
        <ele>86</ele>
        <time>2010-03-19T11:01:25Z</time>
      </trkpt>
      <trkpt lat="48.59022" lon="2.01027">
        <ele>86</ele>
        <time>2010-03-19T11:01:26Z</time>
      </trkpt>
      <trkpt lat="48.59024" lon="2.01026">
        <ele>86</ele>
        <time>2010-03-19T11:01:27Z</time>
      </trkpt>
      <trkpt lat="48.59029" lon="2.01025">
        <ele>86</ele>
        <time>2010-03-19T11:01:28Z</time>
      </trkpt>
      <trkpt lat="48.59034" lon="2.01023">
        <ele>86</ele>
        <time>2010-03-19T11:01:29Z</time>
      </trkpt>
      <trkpt lat="48.59038" lon="2.01022">
        <ele>87</ele>
        <time>2010-03-19T11:01:30Z</time>
      </trkpt>
      <trkpt lat="48.59042" lon="2.0102">
        <ele>87</ele>
        <time>2010-03-19T11:01:31Z</time>
      </trkpt>
      <trkpt lat="48.59045" lon="2.01019">
        <ele>87</ele>
        <time>2010-03-19T11:01:32Z</time>
      </trkpt>
      <trkpt lat="48.59049" lon="2.01019">
        <ele>87</ele>
        <time>2010-03-19T11:01:33Z</time>
      </trkpt>
      <trkpt lat="48.59052" lon="2.01018">
        <ele>87</ele>
        <time>2010-03-19T11:01:34Z</time>
      </trkpt>
      <trkpt lat="48.59055" lon="2.01017">
        <ele>87</ele>
        <time>2010-03-19T11:01:35Z</time>
      </trkpt>
      <trkpt lat="48.59059" lon="2.01015">
        <ele>87</ele>
        <time>2010-03-19T11:01:36Z</time>
      </trkpt>
      <trkpt lat="48.59063" lon="2.01014">
        <ele>87</ele>
        <time>2010-03-19T11:01:37Z</time>
      </trkpt>
      <trkpt lat="48.59067" lon="2.01012">
        <ele>87</ele>
        <time>2010-03-19T11:01:38Z</time>
      </trkpt>
      <trkpt lat="48.59071" lon="2.0101">
        <ele>87</ele>
        <time>2010-03-19T11:01:39Z</time>
      </trkpt>
      <trkpt lat="48.59075" lon="2.01009">
        <ele>87</ele>
        <time>2010-03-19T11:01:40Z</time>
      </trkpt>
      <trkpt lat="48.59077" lon="2.01006">
        <ele>87</ele>
        <time>2010-03-19T11:01:41Z</time>
      </trkpt>
      <trkpt lat="48.59081" lon="2.01003">
        <ele>87</ele>
        <time>2010-03-19T11:01:42Z</time>
      </trkpt>
      <trkpt lat="48.59085" lon="2.01001">
        <ele>87</ele>
        <time>2010-03-19T11:01:43Z</time>
      </trkpt>
      <trkpt lat="48.59089" lon="2.00998">
        <ele>87</ele>
        <time>2010-03-19T11:01:44Z</time>
      </trkpt>
      <trkpt lat="48.59092" lon="2.00996">
        <ele>87</ele>
        <time>2010-03-19T11:01:45Z</time>
      </trkpt>
      <trkpt lat="48.59097" lon="2.00993">
        <ele>87</ele>
        <time>2010-03-19T11:01:46Z</time>
      </trkpt>
      <trkpt lat="48.591" lon="2.0099">
        <ele>87</ele>
        <time>2010-03-19T11:01:47Z</time>
      </trkpt>
      <trkpt lat="48.59104" lon="2.00988">
        <ele>87</ele>
        <time>2010-03-19T11:01:48Z</time>
      </trkpt>
      <trkpt lat="48.59108" lon="2.00986">
        <ele>87</ele>
        <time>2010-03-19T11:01:49Z</time>
      </trkpt>
      <trkpt lat="48.59112" lon="2.00985">
        <ele>87</ele>
        <time>2010-03-19T11:01:50Z</time>
      </trkpt>
      <trkpt lat="48.59116" lon="2.00984">
        <ele>87</ele>
        <time>2010-03-19T11:01:51Z</time>
      </trkpt>
      <trkpt lat="48.5912" lon="2.00984">
        <ele>87</ele>
        <time>2010-03-19T11:01:52Z</time>
      </trkpt>
      <trkpt lat="48.59124" lon="2.00984">
        <ele>87</ele>
        <time>2010-03-19T11:01:53Z</time>
      </trkpt>
      <trkpt lat="48.59129" lon="2.00984">
        <ele>87</ele>
        <time>2010-03-19T11:01:54Z</time>
      </trkpt>
      <trkpt lat="48.59134" lon="2.00984">
        <ele>87</ele>
        <time>2010-03-19T11:01:55Z</time>
      </trkpt>
      <trkpt lat="48.59138" lon="2.00985">
        <ele>87</ele>
        <time>2010-03-19T11:01:56Z</time>
      </trkpt>
      <trkpt lat="48.59142" lon="2.00985">
        <ele>87</ele>
        <time>2010-03-19T11:01:57Z</time>
      </trkpt>
      <trkpt lat="48.59146" lon="2.00986">
        <ele>87</ele>
        <time>2010-03-19T11:01:58Z</time>
      </trkpt>
      <trkpt lat="48.59151" lon="2.00986">
        <ele>87</ele>
        <time>2010-03-19T11:01:59Z</time>
      </trkpt>
      <trkpt lat="48.59155" lon="2.00987">
        <ele>87</ele>
        <time>2010-03-19T11:02:00Z</time>
      </trkpt>
      <trkpt lat="48.59159" lon="2.00987">
        <ele>87</ele>
        <time>2010-03-19T11:02:01Z</time>
      </trkpt>
      <trkpt lat="48.59163" lon="2.00987">
        <ele>87</ele>
        <time>2010-03-19T11:02:02Z</time>
      </trkpt>
      <trkpt lat="48.59167" lon="2.00988">
        <ele>87</ele>
        <time>2010-03-19T11:02:03Z</time>
      </trkpt>
      <trkpt lat="48.59172" lon="2.00988">
        <ele>87</ele>
        <time>2010-03-19T11:02:04Z</time>
      </trkpt>
      <trkpt lat="48.59175" lon="2.00988">
        <ele>87</ele>
        <time>2010-03-19T11:02:05Z</time>
      </trkpt>
      <trkpt lat="48.5918" lon="2.00988">
        <ele>87</ele>
        <time>2010-03-19T11:02:06Z</time>
      </trkpt>
      <trkpt lat="48.59183" lon="2.00988">
        <ele>86</ele>
        <time>2010-03-19T11:02:07Z</time>
      </trkpt>
      <trkpt lat="48.59188" lon="2.00987">
        <ele>86</ele>
        <time>2010-03-19T11:02:08Z</time>
      </trkpt>
      <trkpt lat="48.59192" lon="2.00987">
        <ele>86</ele>
        <time>2010-03-19T11:02:09Z</time>
      </trkpt>
      <trkpt lat="48.59197" lon="2.00987">
        <ele>86</ele>
        <time>2010-03-19T11:02:10Z</time>
      </trkpt>
      <trkpt lat="48.59201" lon="2.00986">
        <ele>86</ele>
        <time>2010-03-19T11:02:11Z</time>
      </trkpt>
      <trkpt lat="48.59204" lon="2.00985">
        <ele>86</ele>
        <time>2010-03-19T11:02:12Z</time>
      </trkpt>
      <trkpt lat="48.59209" lon="2.00983">
        <ele>86</ele>
        <time>2010-03-19T11:02:13Z</time>
      </trkpt>
      <trkpt lat="48.59213" lon="2.0098">
        <ele>86</ele>
        <time>2010-03-19T11:02:14Z</time>
      </trkpt>
      <trkpt lat="48.59217" lon="2.00979">
        <ele>86</ele>
        <time>2010-03-19T11:02:15Z</time>
      </trkpt>
      <trkpt lat="48.59221" lon="2.00977">
        <ele>86</ele>
        <time>2010-03-19T11:02:16Z</time>
      </trkpt>
      <trkpt lat="48.59224" lon="2.00975">
        <ele>86</ele>
        <time>2010-03-19T11:02:17Z</time>
      </trkpt>
      <trkpt lat="48.59228" lon="2.00973">
        <ele>86</ele>
        <time>2010-03-19T11:02:18Z</time>
      </trkpt>
      <trkpt lat="48.59232" lon="2.00969">
        <ele>86</ele>
        <time>2010-03-19T11:02:19Z</time>
      </trkpt>
      <trkpt lat="48.59236" lon="2.00967">
        <ele>86</ele>
        <time>2010-03-19T11:02:20Z</time>
      </trkpt>
      <trkpt lat="48.5924" lon="2.00964">
        <ele>86</ele>
        <time>2010-03-19T11:02:21Z</time>
      </trkpt>
      <trkpt lat="48.59243" lon="2.00961">
        <ele>86</ele>
        <time>2010-03-19T11:02:22Z</time>
      </trkpt>
      <trkpt lat="48.59246" lon="2.00958">
        <ele>86</ele>
        <time>2010-03-19T11:02:23Z</time>
      </trkpt>
      <trkpt lat="48.59249" lon="2.00956">
        <ele>86</ele>
        <time>2010-03-19T11:02:24Z</time>
      </trkpt>
      <trkpt lat="48.59253" lon="2.00953">
        <ele>86</ele>
        <time>2010-03-19T11:02:25Z</time>
      </trkpt>
      <trkpt lat="48.59255" lon="2.00951">
        <ele>86</ele>
        <time>2010-03-19T11:02:26Z</time>
      </trkpt>
      <trkpt lat="48.59258" lon="2.00949">
        <ele>86</ele>
        <time>2010-03-19T11:02:27Z</time>
      </trkpt>
      <trkpt lat="48.59261" lon="2.00946">
        <ele>86</ele>
        <time>2010-03-19T11:02:28Z</time>
      </trkpt>
      <trkpt lat="48.59264" lon="2.00943">
        <ele>86</ele>
        <time>2010-03-19T11:02:29Z</time>
      </trkpt>
      <trkpt lat="48.59268" lon="2.0094">
        <ele>86</ele>
        <time>2010-03-19T11:02:30Z</time>
      </trkpt>
      <trkpt lat="48.59271" lon="2.00936">
        <ele>86</ele>
        <time>2010-03-19T11:02:31Z</time>
      </trkpt>
      <trkpt lat="48.59276" lon="2.00933">
        <ele>86</ele>
        <time>2010-03-19T11:02:32Z</time>
      </trkpt>
      <trkpt lat="48.5928" lon="2.0093">
        <ele>86</ele>
        <time>2010-03-19T11:02:33Z</time>
      </trkpt>
      <trkpt lat="48.59282" lon="2.00926">
        <ele>86</ele>
        <time>2010-03-19T11:02:34Z</time>
      </trkpt>
      <trkpt lat="48.59285" lon="2.00922">
        <ele>86</ele>
        <time>2010-03-19T11:02:35Z</time>
      </trkpt>
      <trkpt lat="48.59287" lon="2.00918">
        <ele>86</ele>
        <time>2010-03-19T11:02:36Z</time>
      </trkpt>
      <trkpt lat="48.59289" lon="2.00914">
        <ele>86</ele>
        <time>2010-03-19T11:02:37Z</time>
      </trkpt>
      <trkpt lat="48.59292" lon="2.00908">
        <ele>86</ele>
        <time>2010-03-19T11:02:38Z</time>
      </trkpt>
      <trkpt lat="48.59296" lon="2.00902">
        <ele>86</ele>
        <time>2010-03-19T11:02:39Z</time>
      </trkpt>
      <trkpt lat="48.59299" lon="2.00897">
        <ele>86</ele>
        <time>2010-03-19T11:02:40Z</time>
      </trkpt>
      <trkpt lat="48.59303" lon="2.00892">
        <ele>86</ele>
        <time>2010-03-19T11:02:41Z</time>
      </trkpt>
      <trkpt lat="48.59305" lon="2.00887">
        <ele>86</ele>
        <time>2010-03-19T11:02:42Z</time>
      </trkpt>
      <trkpt lat="48.59308" lon="2.00881">
        <ele>86</ele>
        <time>2010-03-19T11:02:43Z</time>
      </trkpt>
      <trkpt lat="48.59312" lon="2.00876">
        <ele>86</ele>
        <time>2010-03-19T11:02:44Z</time>
      </trkpt>
      <trkpt lat="48.59314" lon="2.00872">
        <ele>86</ele>
        <time>2010-03-19T11:02:45Z</time>
      </trkpt>
      <trkpt lat="48.59317" lon="2.00867">
        <ele>86</ele>
        <time>2010-03-19T11:02:46Z</time>
      </trkpt>
      <trkpt lat="48.5932" lon="2.00862">
        <ele>86</ele>
        <time>2010-03-19T11:02:47Z</time>
      </trkpt>
      <trkpt lat="48.59322" lon="2.00857">
        <ele>86</ele>
        <time>2010-03-19T11:02:48Z</time>
      </trkpt>
      <trkpt lat="48.59324" lon="2.00851">
        <ele>86</ele>
        <time>2010-03-19T11:02:49Z</time>
      </trkpt>
      <trkpt lat="48.59327" lon="2.00846">
        <ele>86</ele>
        <time>2010-03-19T11:02:50Z</time>
      </trkpt>
      <trkpt lat="48.5933" lon="2.00842">
        <ele>86</ele>
        <time>2010-03-19T11:02:51Z</time>
      </trkpt>
      <trkpt lat="48.59332" lon="2.00838">
        <ele>86</ele>
        <time>2010-03-19T11:02:52Z</time>
      </trkpt>
      <trkpt lat="48.59335" lon="2.00834">
        <ele>86</ele>
        <time>2010-03-19T11:02:53Z</time>
      </trkpt>
      <trkpt lat="48.59337" lon="2.0083">
        <ele>87</ele>
        <time>2010-03-19T11:02:54Z</time>
      </trkpt>
      <trkpt lat="48.59339" lon="2.00827">
        <ele>88</ele>
        <time>2010-03-19T11:02:55Z</time>
      </trkpt>
      <trkpt lat="48.59341" lon="2.00824">
        <ele>88</ele>
        <time>2010-03-19T11:02:56Z</time>
      </trkpt>
      <trkpt lat="48.59343" lon="2.00819">
        <ele>89</ele>
        <time>2010-03-19T11:02:57Z</time>
      </trkpt>
      <trkpt lat="48.59346" lon="2.00814">
        <ele>89</ele>
        <time>2010-03-19T11:02:58Z</time>
      </trkpt>
      <trkpt lat="48.59349" lon="2.00809">
        <ele>90</ele>
        <time>2010-03-19T11:02:59Z</time>
      </trkpt>
      <trkpt lat="48.59352" lon="2.00803">
        <ele>90</ele>
        <time>2010-03-19T11:03:00Z</time>
      </trkpt>
      <trkpt lat="48.59354" lon="2.00796">
        <ele>90</ele>
        <time>2010-03-19T11:03:01Z</time>
      </trkpt>
      <trkpt lat="48.59357" lon="2.00788">
        <ele>90</ele>
        <time>2010-03-19T11:03:02Z</time>
      </trkpt>
      <trkpt lat="48.59361" lon="2.00782">
        <ele>90</ele>
        <time>2010-03-19T11:03:03Z</time>
      </trkpt>
      <trkpt lat="48.59364" lon="2.00777">
        <ele>90</ele>
        <time>2010-03-19T11:03:04Z</time>
      </trkpt>
      <trkpt lat="48.59367" lon="2.00773">
        <ele>90</ele>
        <time>2010-03-19T11:03:05Z</time>
      </trkpt>
      <trkpt lat="48.5937" lon="2.00767">
        <ele>90</ele>
        <time>2010-03-19T11:03:06Z</time>
      </trkpt>
      <trkpt lat="48.59373" lon="2.00763">
        <ele>90</ele>
        <time>2010-03-19T11:03:07Z</time>
      </trkpt>
      <trkpt lat="48.59376" lon="2.00757">
        <ele>90</ele>
        <time>2010-03-19T11:03:08Z</time>
      </trkpt>
      <trkpt lat="48.59379" lon="2.00752">
        <ele>90</ele>
        <time>2010-03-19T11:03:09Z</time>
      </trkpt>
      <trkpt lat="48.59381" lon="2.00746">
        <ele>90</ele>
        <time>2010-03-19T11:03:10Z</time>
      </trkpt>
      <trkpt lat="48.59384" lon="2.00742">
        <ele>90</ele>
        <time>2010-03-19T11:03:11Z</time>
      </trkpt>
      <trkpt lat="48.59386" lon="2.00738">
        <ele>90</ele>
        <time>2010-03-19T11:03:12Z</time>
      </trkpt>
      <trkpt lat="48.59388" lon="2.00733">
        <ele>90</ele>
        <time>2010-03-19T11:03:13Z</time>
      </trkpt>
      <trkpt lat="48.59389" lon="2.00728">
        <ele>90</ele>
        <time>2010-03-19T11:03:14Z</time>
      </trkpt>
      <trkpt lat="48.59389" lon="2.00724">
        <ele>90</ele>
        <time>2010-03-19T11:03:15Z</time>
      </trkpt>
      <trkpt lat="48.59391" lon="2.00719">
        <ele>90</ele>
        <time>2010-03-19T11:03:16Z</time>
      </trkpt>
      <trkpt lat="48.59393" lon="2.00714">
        <ele>90</ele>
        <time>2010-03-19T11:03:17Z</time>
      </trkpt>
      <trkpt lat="48.59394" lon="2.00708">
        <ele>90</ele>
        <time>2010-03-19T11:03:18Z</time>
      </trkpt>
      <trkpt lat="48.59394" lon="2.00701">
        <ele>90</ele>
        <time>2010-03-19T11:03:19Z</time>
      </trkpt>
      <trkpt lat="48.59394" lon="2.00695">
        <ele>90</ele>
        <time>2010-03-19T11:03:20Z</time>
      </trkpt>
      <trkpt lat="48.59394" lon="2.0069">
        <ele>90</ele>
        <time>2010-03-19T11:03:21Z</time>
      </trkpt>
      <trkpt lat="48.59394" lon="2.00684">
        <ele>91</ele>
        <time>2010-03-19T11:03:22Z</time>
      </trkpt>
      <trkpt lat="48.59394" lon="2.00678">
        <ele>92</ele>
        <time>2010-03-19T11:03:23Z</time>
      </trkpt>
      <trkpt lat="48.59394" lon="2.00673">
        <ele>93</ele>
        <time>2010-03-19T11:03:24Z</time>
      </trkpt>
      <trkpt lat="48.59394" lon="2.00667">
        <ele>93</ele>
        <time>2010-03-19T11:03:25Z</time>
      </trkpt>
      <trkpt lat="48.59394" lon="2.00661">
        <ele>94</ele>
        <time>2010-03-19T11:03:26Z</time>
      </trkpt>
      <trkpt lat="48.59393" lon="2.00655">
        <ele>94</ele>
        <time>2010-03-19T11:03:27Z</time>
      </trkpt>
      <trkpt lat="48.59392" lon="2.00649">
        <ele>94</ele>
        <time>2010-03-19T11:03:28Z</time>
      </trkpt>
      <trkpt lat="48.5939" lon="2.00643">
        <ele>94</ele>
        <time>2010-03-19T11:03:29Z</time>
      </trkpt>
      <trkpt lat="48.59389" lon="2.00637">
        <ele>94</ele>
        <time>2010-03-19T11:03:30Z</time>
      </trkpt>
      <trkpt lat="48.59388" lon="2.00631">
        <ele>94</ele>
        <time>2010-03-19T11:03:31Z</time>
      </trkpt>
      <trkpt lat="48.59387" lon="2.00625">
        <ele>94</ele>
        <time>2010-03-19T11:03:32Z</time>
      </trkpt>
      <trkpt lat="48.59386" lon="2.00619">
        <ele>94</ele>
        <time>2010-03-19T11:03:33Z</time>
      </trkpt>
      <trkpt lat="48.59384" lon="2.00615">
        <ele>94</ele>
        <time>2010-03-19T11:03:34Z</time>
      </trkpt>
      <trkpt lat="48.59382" lon="2.00609">
        <ele>94</ele>
        <time>2010-03-19T11:03:35Z</time>
      </trkpt>
      <trkpt lat="48.5938" lon="2.00604">
        <ele>94</ele>
        <time>2010-03-19T11:03:36Z</time>
      </trkpt>
      <trkpt lat="48.59379" lon="2.00598">
        <ele>94</ele>
        <time>2010-03-19T11:03:37Z</time>
      </trkpt>
      <trkpt lat="48.59378" lon="2.00593">
        <ele>94</ele>
        <time>2010-03-19T11:03:38Z</time>
      </trkpt>
      <trkpt lat="48.59377" lon="2.00587">
        <ele>94</ele>
        <time>2010-03-19T11:03:39Z</time>
      </trkpt>
      <trkpt lat="48.59375" lon="2.00581">
        <ele>94</ele>
        <time>2010-03-19T11:03:40Z</time>
      </trkpt>
      <trkpt lat="48.59374" lon="2.00575">
        <ele>94</ele>
        <time>2010-03-19T11:03:41Z</time>
      </trkpt>
      <trkpt lat="48.59372" lon="2.00569">
        <ele>94</ele>
        <time>2010-03-19T11:03:42Z</time>
      </trkpt>
      <trkpt lat="48.59371" lon="2.00564">
        <ele>94</ele>
        <time>2010-03-19T11:03:43Z</time>
      </trkpt>
      <trkpt lat="48.5937" lon="2.00559">
        <ele>94</ele>
        <time>2010-03-19T11:03:44Z</time>
      </trkpt>
      <trkpt lat="48.59369" lon="2.00554">
        <ele>94</ele>
        <time>2010-03-19T11:03:45Z</time>
      </trkpt>
      <trkpt lat="48.59368" lon="2.0055">
        <ele>94</ele>
        <time>2010-03-19T11:03:46Z</time>
      </trkpt>
      <trkpt lat="48.59366" lon="2.00546">
        <ele>94</ele>
        <time>2010-03-19T11:03:47Z</time>
      </trkpt>
      <trkpt lat="48.59365" lon="2.00541">
        <ele>94</ele>
        <time>2010-03-19T11:03:48Z</time>
      </trkpt>
      <trkpt lat="48.59364" lon="2.00536">
        <ele>94</ele>
        <time>2010-03-19T11:03:49Z</time>
      </trkpt>
      <trkpt lat="48.59364" lon="2.00531">
        <ele>94</ele>
        <time>2010-03-19T11:03:50Z</time>
      </trkpt>
      <trkpt lat="48.59362" lon="2.00525">
        <ele>94</ele>
        <time>2010-03-19T11:03:51Z</time>
      </trkpt>
      <trkpt lat="48.59361" lon="2.00519">
        <ele>94</ele>
        <time>2010-03-19T11:03:52Z</time>
      </trkpt>
      <trkpt lat="48.59359" lon="2.00513">
        <ele>94</ele>
        <time>2010-03-19T11:03:53Z</time>
      </trkpt>
      <trkpt lat="48.59357" lon="2.00508">
        <ele>94</ele>
        <time>2010-03-19T11:03:54Z</time>
      </trkpt>
      <trkpt lat="48.59356" lon="2.00503">
        <ele>94</ele>
        <time>2010-03-19T11:03:55Z</time>
      </trkpt>
      <trkpt lat="48.59354" lon="2.00497">
        <ele>94</ele>
        <time>2010-03-19T11:03:56Z</time>
      </trkpt>
      <trkpt lat="48.59352" lon="2.0049">
        <ele>94</ele>
        <time>2010-03-19T11:03:57Z</time>
      </trkpt>
      <trkpt lat="48.59349" lon="2.00483">
        <ele>94</ele>
        <time>2010-03-19T11:03:58Z</time>
      </trkpt>
      <trkpt lat="48.59347" lon="2.00477">
        <ele>94</ele>
        <time>2010-03-19T11:03:59Z</time>
      </trkpt>
      <trkpt lat="48.59344" lon="2.00471">
        <ele>94</ele>
        <time>2010-03-19T11:04:00Z</time>
      </trkpt>
      <trkpt lat="48.59343" lon="2.00465">
        <ele>94</ele>
        <time>2010-03-19T11:04:01Z</time>
      </trkpt>
      <trkpt lat="48.59342" lon="2.0046">
        <ele>94</ele>
        <time>2010-03-19T11:04:02Z</time>
      </trkpt>
      <trkpt lat="48.5934" lon="2.00454">
        <ele>94</ele>
        <time>2010-03-19T11:04:03Z</time>
      </trkpt>
      <trkpt lat="48.59339" lon="2.00449">
        <ele>94</ele>
        <time>2010-03-19T11:04:04Z</time>
      </trkpt>
      <trkpt lat="48.59337" lon="2.00444">
        <ele>94</ele>
        <time>2010-03-19T11:04:05Z</time>
      </trkpt>
      <trkpt lat="48.59336" lon="2.00438">
        <ele>94</ele>
        <time>2010-03-19T11:04:06Z</time>
      </trkpt>
      <trkpt lat="48.59335" lon="2.00433">
        <ele>94</ele>
        <time>2010-03-19T11:04:07Z</time>
      </trkpt>
      <trkpt lat="48.59333" lon="2.00429">
        <ele>95</ele>
        <time>2010-03-19T11:04:08Z</time>
      </trkpt>
      <trkpt lat="48.59332" lon="2.00424">
        <ele>95</ele>
        <time>2010-03-19T11:04:09Z</time>
      </trkpt>
      <trkpt lat="48.59331" lon="2.00419">
        <ele>95</ele>
        <time>2010-03-19T11:04:10Z</time>
      </trkpt>
      <trkpt lat="48.59329" lon="2.00414">
        <ele>95</ele>
        <time>2010-03-19T11:04:11Z</time>
      </trkpt>
      <trkpt lat="48.59328" lon="2.00409">
        <ele>96</ele>
        <time>2010-03-19T11:04:12Z</time>
      </trkpt>
      <trkpt lat="48.59327" lon="2.00404">
        <ele>96</ele>
        <time>2010-03-19T11:04:13Z</time>
      </trkpt>
      <trkpt lat="48.59326" lon="2.00398">
        <ele>97</ele>
        <time>2010-03-19T11:04:14Z</time>
      </trkpt>
      <trkpt lat="48.59324" lon="2.00392">
        <ele>98</ele>
        <time>2010-03-19T11:04:15Z</time>
      </trkpt>
      <trkpt lat="48.59322" lon="2.00387">
        <ele>99</ele>
        <time>2010-03-19T11:04:16Z</time>
      </trkpt>
      <trkpt lat="48.59321" lon="2.00382">
        <ele>99</ele>
        <time>2010-03-19T11:04:17Z</time>
      </trkpt>
      <trkpt lat="48.59319" lon="2.00377">
        <ele>100</ele>
        <time>2010-03-19T11:04:18Z</time>
      </trkpt>
      <trkpt lat="48.59318" lon="2.00373">
        <ele>101</ele>
        <time>2010-03-19T11:04:19Z</time>
      </trkpt>
      <trkpt lat="48.59317" lon="2.00368">
        <ele>101</ele>
        <time>2010-03-19T11:04:20Z</time>
      </trkpt>
      <trkpt lat="48.59316" lon="2.00362">
        <ele>101</ele>
        <time>2010-03-19T11:04:21Z</time>
      </trkpt>
      <trkpt lat="48.59317" lon="2.00357">
        <ele>102</ele>
        <time>2010-03-19T11:04:22Z</time>
      </trkpt>
      <trkpt lat="48.59319" lon="2.00352">
        <ele>102</ele>
        <time>2010-03-19T11:04:23Z</time>
      </trkpt>
      <trkpt lat="48.59319" lon="2.00347">
        <ele>103</ele>
        <time>2010-03-19T11:04:24Z</time>
      </trkpt>
      <trkpt lat="48.5932" lon="2.00343">
        <ele>103</ele>
        <time>2010-03-19T11:04:25Z</time>
      </trkpt>
      <trkpt lat="48.59322" lon="2.00339">
        <ele>104</ele>
        <time>2010-03-19T11:04:26Z</time>
      </trkpt>
      <trkpt lat="48.59324" lon="2.00335">
        <ele>104</ele>
        <time>2010-03-19T11:04:27Z</time>
      </trkpt>
      <trkpt lat="48.59327" lon="2.00331">
        <ele>104</ele>
        <time>2010-03-19T11:04:28Z</time>
      </trkpt>
      <trkpt lat="48.59328" lon="2.00325">
        <ele>104</ele>
        <time>2010-03-19T11:04:29Z</time>
      </trkpt>
      <trkpt lat="48.5933" lon="2.0032">
        <ele>104</ele>
        <time>2010-03-19T11:04:30Z</time>
      </trkpt>
      <trkpt lat="48.59331" lon="2.00315">
        <ele>104</ele>
        <time>2010-03-19T11:04:31Z</time>
      </trkpt>
      <trkpt lat="48.59332" lon="2.0031">
        <ele>104</ele>
        <time>2010-03-19T11:04:32Z</time>
      </trkpt>
      <trkpt lat="48.59333" lon="2.00306">
        <ele>105</ele>
        <time>2010-03-19T11:04:33Z</time>
      </trkpt>
      <trkpt lat="48.59336" lon="2.00302">
        <ele>105</ele>
        <time>2010-03-19T11:04:34Z</time>
      </trkpt>
      <trkpt lat="48.59338" lon="2.00297">
        <ele>106</ele>
        <time>2010-03-19T11:04:35Z</time>
      </trkpt>
      <trkpt lat="48.5934" lon="2.00294">
        <ele>106</ele>
        <time>2010-03-19T11:04:36Z</time>
      </trkpt>
      <trkpt lat="48.59343" lon="2.00291">
        <ele>106</ele>
        <time>2010-03-19T11:04:37Z</time>
      </trkpt>
      <trkpt lat="48.59346" lon="2.00287">
        <ele>107</ele>
        <time>2010-03-19T11:04:38Z</time>
      </trkpt>
      <trkpt lat="48.59348" lon="2.00283">
        <ele>107</ele>
        <time>2010-03-19T11:04:39Z</time>
      </trkpt>
      <trkpt lat="48.59352" lon="2.00279">
        <ele>107</ele>
        <time>2010-03-19T11:04:40Z</time>
      </trkpt>
      <trkpt lat="48.59354" lon="2.00275">
        <ele>107</ele>
        <time>2010-03-19T11:04:41Z</time>
      </trkpt>
      <trkpt lat="48.59357" lon="2.00271">
        <ele>107</ele>
        <time>2010-03-19T11:04:42Z</time>
      </trkpt>
      <trkpt lat="48.59361" lon="2.00266">
        <ele>107</ele>
        <time>2010-03-19T11:04:43Z</time>
      </trkpt>
      <trkpt lat="48.59363" lon="2.00262">
        <ele>107</ele>
        <time>2010-03-19T11:04:44Z</time>
      </trkpt>
      <trkpt lat="48.59365" lon="2.00257">
        <ele>107</ele>
        <time>2010-03-19T11:04:45Z</time>
      </trkpt>
      <trkpt lat="48.59367" lon="2.00253">
        <ele>107</ele>
        <time>2010-03-19T11:04:46Z</time>
      </trkpt>
      <trkpt lat="48.59369" lon="2.00248">
        <ele>107</ele>
        <time>2010-03-19T11:04:47Z</time>
      </trkpt>
      <trkpt lat="48.59371" lon="2.00244">
        <ele>107</ele>
        <time>2010-03-19T11:04:48Z</time>
      </trkpt>
      <trkpt lat="48.59374" lon="2.00241">
        <ele>107</ele>
        <time>2010-03-19T11:04:49Z</time>
      </trkpt>
      <trkpt lat="48.59377" lon="2.00236">
        <ele>107</ele>
        <time>2010-03-19T11:04:50Z</time>
      </trkpt>
      <trkpt lat="48.5938" lon="2.00232">
        <ele>107</ele>
        <time>2010-03-19T11:04:51Z</time>
      </trkpt>
      <trkpt lat="48.59381" lon="2.00229">
        <ele>107</ele>
        <time>2010-03-19T11:04:52Z</time>
      </trkpt>
      <trkpt lat="48.59383" lon="2.00224">
        <ele>107</ele>
        <time>2010-03-19T11:04:53Z</time>
      </trkpt>
      <trkpt lat="48.59386" lon="2.0022">
        <ele>107</ele>
        <time>2010-03-19T11:04:54Z</time>
      </trkpt>
      <trkpt lat="48.59388" lon="2.00216">
        <ele>107</ele>
        <time>2010-03-19T11:04:55Z</time>
      </trkpt>
      <trkpt lat="48.59389" lon="2.00213">
        <ele>107</ele>
        <time>2010-03-19T11:04:56Z</time>
      </trkpt>
      <trkpt lat="48.59392" lon="2.00208">
        <ele>107</ele>
        <time>2010-03-19T11:04:57Z</time>
      </trkpt>
      <trkpt lat="48.59394" lon="2.00203">
        <ele>107</ele>
        <time>2010-03-19T11:04:58Z</time>
      </trkpt>
      <trkpt lat="48.59397" lon="2.00199">
        <ele>107</ele>
        <time>2010-03-19T11:04:59Z</time>
      </trkpt>
      <trkpt lat="48.59399" lon="2.00195">
        <ele>106</ele>
        <time>2010-03-19T11:05:00Z</time>
      </trkpt>
      <trkpt lat="48.59402" lon="2.0019">
        <ele>106</ele>
        <time>2010-03-19T11:05:01Z</time>
      </trkpt>
      <trkpt lat="48.59404" lon="2.00185">
        <ele>106</ele>
        <time>2010-03-19T11:05:02Z</time>
      </trkpt>
      <trkpt lat="48.59406" lon="2.00179">
        <ele>105</ele>
        <time>2010-03-19T11:05:03Z</time>
      </trkpt>
      <trkpt lat="48.59409" lon="2.00175">
        <ele>105</ele>
        <time>2010-03-19T11:05:04Z</time>
      </trkpt>
      <trkpt lat="48.59412" lon="2.0017">
        <ele>104</ele>
        <time>2010-03-19T11:05:05Z</time>
      </trkpt>
      <trkpt lat="48.59414" lon="2.00165">
        <ele>104</ele>
        <time>2010-03-19T11:05:06Z</time>
      </trkpt>
      <trkpt lat="48.59416" lon="2.0016">
        <ele>103</ele>
        <time>2010-03-19T11:05:07Z</time>
      </trkpt>
      <trkpt lat="48.59418" lon="2.00155">
        <ele>103</ele>
        <time>2010-03-19T11:05:08Z</time>
      </trkpt>
      <trkpt lat="48.5942" lon="2.00151">
        <ele>103</ele>
        <time>2010-03-19T11:05:09Z</time>
      </trkpt>
      <trkpt lat="48.59422" lon="2.00147">
        <ele>103</ele>
        <time>2010-03-19T11:05:10Z</time>
      </trkpt>
      <trkpt lat="48.59424" lon="2.00143">
        <ele>103</ele>
        <time>2010-03-19T11:05:11Z</time>
      </trkpt>
      <trkpt lat="48.59426" lon="2.00139">
        <ele>102</ele>
        <time>2010-03-19T11:05:12Z</time>
      </trkpt>
      <trkpt lat="48.59428" lon="2.00134">
        <ele>102</ele>
        <time>2010-03-19T11:05:13Z</time>
      </trkpt>
      <trkpt lat="48.5943" lon="2.0013">
        <ele>102</ele>
        <time>2010-03-19T11:05:14Z</time>
      </trkpt>
      <trkpt lat="48.59432" lon="2.00125">
        <ele>102</ele>
        <time>2010-03-19T11:05:15Z</time>
      </trkpt>
      <trkpt lat="48.59434" lon="2.0012">
        <ele>102</ele>
        <time>2010-03-19T11:05:16Z</time>
      </trkpt>
      <trkpt lat="48.59436" lon="2.00115">
        <ele>102</ele>
        <time>2010-03-19T11:05:17Z</time>
      </trkpt>
      <trkpt lat="48.59438" lon="2.00111">
        <ele>102</ele>
        <time>2010-03-19T11:05:18Z</time>
      </trkpt>
      <trkpt lat="48.59441" lon="2.00106">
        <ele>102</ele>
        <time>2010-03-19T11:05:19Z</time>
      </trkpt>
      <trkpt lat="48.59443" lon="2.00101">
        <ele>102</ele>
        <time>2010-03-19T11:05:20Z</time>
      </trkpt>
      <trkpt lat="48.59445" lon="2.00096">
        <ele>102</ele>
        <time>2010-03-19T11:05:21Z</time>
      </trkpt>
      <trkpt lat="48.59446" lon="2.0009">
        <ele>102</ele>
        <time>2010-03-19T11:05:22Z</time>
      </trkpt>
      <trkpt lat="48.59448" lon="2.00085">
        <ele>102</ele>
        <time>2010-03-19T11:05:23Z</time>
      </trkpt>
      <trkpt lat="48.59451" lon="2.00079">
        <ele>102</ele>
        <time>2010-03-19T11:05:24Z</time>
      </trkpt>
      <trkpt lat="48.59452" lon="2.00074">
        <ele>102</ele>
        <time>2010-03-19T11:05:25Z</time>
      </trkpt>
      <trkpt lat="48.59454" lon="2.00069">
        <ele>102</ele>
        <time>2010-03-19T11:05:26Z</time>
      </trkpt>
      <trkpt lat="48.59456" lon="2.00064">
        <ele>102</ele>
        <time>2010-03-19T11:05:27Z</time>
      </trkpt>
      <trkpt lat="48.59458" lon="2.00059">
        <ele>102</ele>
        <time>2010-03-19T11:05:28Z</time>
      </trkpt>
      <trkpt lat="48.5946" lon="2.00053">
        <ele>102</ele>
        <time>2010-03-19T11:05:29Z</time>
      </trkpt>
      <trkpt lat="48.59463" lon="2.00048">
        <ele>102</ele>
        <time>2010-03-19T11:05:30Z</time>
      </trkpt>
      <trkpt lat="48.59466" lon="2.00042">
        <ele>102</ele>
        <time>2010-03-19T11:05:31Z</time>
      </trkpt>
      <trkpt lat="48.59468" lon="2.00037">
        <ele>102</ele>
        <time>2010-03-19T11:05:32Z</time>
      </trkpt>
      <trkpt lat="48.5947" lon="2.00031">
        <ele>102</ele>
        <time>2010-03-19T11:05:33Z</time>
      </trkpt>
      <trkpt lat="48.59471" lon="2.00025">
        <ele>102</ele>
        <time>2010-03-19T11:05:34Z</time>
      </trkpt>
      <trkpt lat="48.59473" lon="2.0002">
        <ele>102</ele>
        <time>2010-03-19T11:05:35Z</time>
      </trkpt>
      <trkpt lat="48.59474" lon="2.00014">
        <ele>102</ele>
        <time>2010-03-19T11:05:36Z</time>
      </trkpt>
      <trkpt lat="48.59476" lon="2.00008">
        <ele>102</ele>
        <time>2010-03-19T11:05:37Z</time>
      </trkpt>
      <trkpt lat="48.59477" lon="2.00003">
        <ele>102</ele>
        <time>2010-03-19T11:05:38Z</time>
      </trkpt>
      <trkpt lat="48.59479" lon="1.99998">
        <ele>102</ele>
        <time>2010-03-19T11:05:39Z</time>
      </trkpt>
      <trkpt lat="48.59481" lon="1.99993">
        <ele>102</ele>
        <time>2010-03-19T11:05:40Z</time>
      </trkpt>
      <trkpt lat="48.59483" lon="1.99988">
        <ele>102</ele>
        <time>2010-03-19T11:05:41Z</time>
      </trkpt>
      <trkpt lat="48.59484" lon="1.99985">
        <ele>102</ele>
        <time>2010-03-19T11:05:42Z</time>
      </trkpt>
      <trkpt lat="48.59486" lon="1.99981">
        <ele>102</ele>
        <time>2010-03-19T11:05:43Z</time>
      </trkpt>
      <trkpt lat="48.59488" lon="1.99976">
        <ele>102</ele>
        <time>2010-03-19T11:05:44Z</time>
      </trkpt>
      <trkpt lat="48.59488" lon="1.9997">
        <ele>102</ele>
        <time>2010-03-19T11:05:45Z</time>
      </trkpt>
      <trkpt lat="48.59486" lon="1.99966">
        <ele>102</ele>
        <time>2010-03-19T11:05:46Z</time>
      </trkpt>
      <trkpt lat="48.59484" lon="1.99962">
        <ele>102</ele>
        <time>2010-03-19T11:05:47Z</time>
      </trkpt>
      <trkpt lat="48.59481" lon="1.99958">
        <ele>102</ele>
        <time>2010-03-19T11:05:48Z</time>
      </trkpt>
      <trkpt lat="48.59479" lon="1.99954">
        <ele>102</ele>
        <time>2010-03-19T11:05:49Z</time>
      </trkpt>
      <trkpt lat="48.59477" lon="1.9995">
        <ele>102</ele>
        <time>2010-03-19T11:05:50Z</time>
      </trkpt>
      <trkpt lat="48.59476" lon="1.99946">
        <ele>102</ele>
        <time>2010-03-19T11:05:51Z</time>
      </trkpt>
      <trkpt lat="48.59476" lon="1.99942">
        <ele>102</ele>
        <time>2010-03-19T11:05:52Z</time>
      </trkpt>
      <trkpt lat="48.59476" lon="1.99936">
        <ele>102</ele>
        <time>2010-03-19T11:05:53Z</time>
      </trkpt>
      <trkpt lat="48.59478" lon="1.99931">
        <ele>102</ele>
        <time>2010-03-19T11:05:54Z</time>
      </trkpt>
      <trkpt lat="48.59479" lon="1.99925">
        <ele>102</ele>
        <time>2010-03-19T11:05:55Z</time>
      </trkpt>
      <trkpt lat="48.59481" lon="1.99919">
        <ele>102</ele>
        <time>2010-03-19T11:05:56Z</time>
      </trkpt>
      <trkpt lat="48.59483" lon="1.99914">
        <ele>102</ele>
        <time>2010-03-19T11:05:57Z</time>
      </trkpt>
      <trkpt lat="48.59485" lon="1.99909">
        <ele>102</ele>
        <time>2010-03-19T11:05:58Z</time>
      </trkpt>
      <trkpt lat="48.59487" lon="1.99904">
        <ele>102</ele>
        <time>2010-03-19T11:05:59Z</time>
      </trkpt>
      <trkpt lat="48.59489" lon="1.99898">
        <ele>102</ele>
        <time>2010-03-19T11:06:00Z</time>
      </trkpt>
      <trkpt lat="48.59491" lon="1.99893">
        <ele>102</ele>
        <time>2010-03-19T11:06:01Z</time>
      </trkpt>
      <trkpt lat="48.59492" lon="1.99888">
        <ele>102</ele>
        <time>2010-03-19T11:06:02Z</time>
      </trkpt>
      <trkpt lat="48.59493" lon="1.99883">
        <ele>102</ele>
        <time>2010-03-19T11:06:03Z</time>
      </trkpt>
      <trkpt lat="48.59495" lon="1.99879">
        <ele>102</ele>
        <time>2010-03-19T11:06:04Z</time>
      </trkpt>
      <trkpt lat="48.59497" lon="1.99875">
        <ele>102</ele>
        <time>2010-03-19T11:06:05Z</time>
      </trkpt>
      <trkpt lat="48.59499" lon="1.9987">
        <ele>102</ele>
        <time>2010-03-19T11:06:06Z</time>
      </trkpt>
      <trkpt lat="48.59501" lon="1.99865">
        <ele>102</ele>
        <time>2010-03-19T11:06:07Z</time>
      </trkpt>
      <trkpt lat="48.59502" lon="1.9986">
        <ele>102</ele>
        <time>2010-03-19T11:06:08Z</time>
      </trkpt>
      <trkpt lat="48.59504" lon="1.99855">
        <ele>102</ele>
        <time>2010-03-19T11:06:09Z</time>
      </trkpt>
      <trkpt lat="48.59507" lon="1.9985">
        <ele>102</ele>
        <time>2010-03-19T11:06:10Z</time>
      </trkpt>
      <trkpt lat="48.59509" lon="1.99846">
        <ele>102</ele>
        <time>2010-03-19T11:06:11Z</time>
      </trkpt>
      <trkpt lat="48.5951" lon="1.99841">
        <ele>102</ele>
        <time>2010-03-19T11:06:12Z</time>
      </trkpt>
      <trkpt lat="48.59511" lon="1.99836">
        <ele>102</ele>
        <time>2010-03-19T11:06:13Z</time>
      </trkpt>
      <trkpt lat="48.59513" lon="1.99831">
        <ele>103</ele>
        <time>2010-03-19T11:06:14Z</time>
      </trkpt>
      <trkpt lat="48.59517" lon="1.99828">
        <ele>104</ele>
        <time>2010-03-19T11:06:15Z</time>
      </trkpt>
      <trkpt lat="48.5952" lon="1.99824">
        <ele>105</ele>
        <time>2010-03-19T11:06:16Z</time>
      </trkpt>
      <trkpt lat="48.59524" lon="1.99821">
        <ele>106</ele>
        <time>2010-03-19T11:06:17Z</time>
      </trkpt>
      <trkpt lat="48.59526" lon="1.99817">
        <ele>107</ele>
        <time>2010-03-19T11:06:18Z</time>
      </trkpt>
      <trkpt lat="48.59528" lon="1.99814">
        <ele>107</ele>
        <time>2010-03-19T11:06:19Z</time>
      </trkpt>
      <trkpt lat="48.5953" lon="1.9981">
        <ele>107</ele>
        <time>2010-03-19T11:06:20Z</time>
      </trkpt>
      <trkpt lat="48.59533" lon="1.99806">
        <ele>107</ele>
        <time>2010-03-19T11:06:21Z</time>
      </trkpt>
      <trkpt lat="48.59534" lon="1.99801">
        <ele>107</ele>
        <time>2010-03-19T11:06:22Z</time>
      </trkpt>
      <trkpt lat="48.59536" lon="1.99796">
        <ele>107</ele>
        <time>2010-03-19T11:06:23Z</time>
      </trkpt>
      <trkpt lat="48.59538" lon="1.99791">
        <ele>107</ele>
        <time>2010-03-19T11:06:24Z</time>
      </trkpt>
      <trkpt lat="48.59541" lon="1.99786">
        <ele>107</ele>
        <time>2010-03-19T11:06:25Z</time>
      </trkpt>
      <trkpt lat="48.59543" lon="1.99782">
        <ele>107</ele>
        <time>2010-03-19T11:06:26Z</time>
      </trkpt>
      <trkpt lat="48.59546" lon="1.99777">
        <ele>107</ele>
        <time>2010-03-19T11:06:27Z</time>
      </trkpt>
      <trkpt lat="48.59549" lon="1.99773">
        <ele>107</ele>
        <time>2010-03-19T11:06:28Z</time>
      </trkpt>
      <trkpt lat="48.59552" lon="1.99769">
        <ele>107</ele>
        <time>2010-03-19T11:06:29Z</time>
      </trkpt>
      <trkpt lat="48.59555" lon="1.99766">
        <ele>107</ele>
        <time>2010-03-19T11:06:30Z</time>
      </trkpt>
      <trkpt lat="48.59558" lon="1.99764">
        <ele>107</ele>
        <time>2010-03-19T11:06:31Z</time>
      </trkpt>
      <trkpt lat="48.59561" lon="1.99762">
        <ele>107</ele>
        <time>2010-03-19T11:06:32Z</time>
      </trkpt>
      <trkpt lat="48.59564" lon="1.99761">
        <ele>107</ele>
        <time>2010-03-19T11:06:33Z</time>
      </trkpt>
      <trkpt lat="48.59567" lon="1.9976">
        <ele>107</ele>
        <time>2010-03-19T11:06:34Z</time>
      </trkpt>
      <trkpt lat="48.5957" lon="1.9976">
        <ele>107</ele>
        <time>2010-03-19T11:06:35Z</time>
      </trkpt>
      <trkpt lat="48.59574" lon="1.99761">
        <ele>107</ele>
        <time>2010-03-19T11:06:36Z</time>
      </trkpt>
      <trkpt lat="48.59576" lon="1.99763">
        <ele>106</ele>
        <time>2010-03-19T11:06:37Z</time>
      </trkpt>
      <trkpt lat="48.59578" lon="1.99766">
        <ele>105</ele>
        <time>2010-03-19T11:06:38Z</time>
      </trkpt>
      <trkpt lat="48.59583" lon="1.99768">
        <ele>104</ele>
        <time>2010-03-19T11:06:39Z</time>
      </trkpt>
      <trkpt lat="48.59585" lon="1.99772">
        <ele>104</ele>
        <time>2010-03-19T11:06:40Z</time>
      </trkpt>
      <trkpt lat="48.59588" lon="1.99776">
        <ele>103</ele>
        <time>2010-03-19T11:06:41Z</time>
      </trkpt>
      <trkpt lat="48.59591" lon="1.9978">
        <ele>102</ele>
        <time>2010-03-19T11:06:42Z</time>
      </trkpt>
      <trkpt lat="48.59594" lon="1.99784">
        <ele>102</ele>
        <time>2010-03-19T11:06:43Z</time>
      </trkpt>
      <trkpt lat="48.59598" lon="1.99787">
        <ele>101</ele>
        <time>2010-03-19T11:06:44Z</time>
      </trkpt>
      <trkpt lat="48.596" lon="1.9979">
        <ele>100</ele>
        <time>2010-03-19T11:06:45Z</time>
      </trkpt>
      <trkpt lat="48.59603" lon="1.99794">
        <ele>99</ele>
        <time>2010-03-19T11:06:46Z</time>
      </trkpt>
      <trkpt lat="48.59605" lon="1.99797">
        <ele>99</ele>
        <time>2010-03-19T11:06:47Z</time>
      </trkpt>
      <trkpt lat="48.59607" lon="1.998">
        <ele>98</ele>
        <time>2010-03-19T11:06:48Z</time>
      </trkpt>
      <trkpt lat="48.59609" lon="1.99804">
        <ele>98</ele>
        <time>2010-03-19T11:06:49Z</time>
      </trkpt>
      <trkpt lat="48.59611" lon="1.99807">
        <ele>97</ele>
        <time>2010-03-19T11:06:50Z</time>
      </trkpt>
      <trkpt lat="48.59613" lon="1.99811">
        <ele>97</ele>
        <time>2010-03-19T11:06:51Z</time>
      </trkpt>
      <trkpt lat="48.59615" lon="1.99814">
        <ele>96</ele>
        <time>2010-03-19T11:06:52Z</time>
      </trkpt>
      <trkpt lat="48.59618" lon="1.99817">
        <ele>96</ele>
        <time>2010-03-19T11:06:53Z</time>
      </trkpt>
      <trkpt lat="48.59621" lon="1.99819">
        <ele>96</ele>
        <time>2010-03-19T11:06:54Z</time>
      </trkpt>
      <trkpt lat="48.59624" lon="1.9982">
        <ele>95</ele>
        <time>2010-03-19T11:06:55Z</time>
      </trkpt>
      <trkpt lat="48.59626" lon="1.99822">
        <ele>95</ele>
        <time>2010-03-19T11:06:56Z</time>
      </trkpt>
      <trkpt lat="48.59629" lon="1.99824">
        <ele>94</ele>
        <time>2010-03-19T11:06:57Z</time>
      </trkpt>
      <trkpt lat="48.59631" lon="1.99826">
        <ele>94</ele>
        <time>2010-03-19T11:06:58Z</time>
      </trkpt>
      <trkpt lat="48.59632" lon="1.99829">
        <ele>94</ele>
        <time>2010-03-19T11:06:59Z</time>
      </trkpt>
      <trkpt lat="48.59634" lon="1.99831">
        <ele>93</ele>
        <time>2010-03-19T11:07:00Z</time>
      </trkpt>
      <trkpt lat="48.59637" lon="1.99834">
        <ele>92</ele>
        <time>2010-03-19T11:07:02Z</time>
      </trkpt>
      <trkpt lat="48.59641" lon="1.99835">
        <ele>92</ele>
        <time>2010-03-19T11:07:03Z</time>
      </trkpt>
      <trkpt lat="48.59643" lon="1.99837">
        <ele>92</ele>
        <time>2010-03-19T11:07:04Z</time>
      </trkpt>
      <trkpt lat="48.59645" lon="1.99839">
        <ele>92</ele>
        <time>2010-03-19T11:07:05Z</time>
      </trkpt>
      <trkpt lat="48.59647" lon="1.9984">
        <ele>92</ele>
        <time>2010-03-19T11:07:06Z</time>
      </trkpt>
      <trkpt lat="48.59649" lon="1.99841">
        <ele>92</ele>
        <time>2010-03-19T11:07:08Z</time>
      </trkpt>
      <trkpt lat="48.5965" lon="1.9984">
        <ele>92</ele>
        <time>2010-03-19T11:07:09Z</time>
      </trkpt>
      <trkpt lat="48.59651" lon="1.99838">
        <ele>92</ele>
        <time>2010-03-19T11:07:10Z</time>
      </trkpt>
      <trkpt lat="48.59652" lon="1.99837">
        <ele>92</ele>
        <time>2010-03-19T11:07:11Z</time>
      </trkpt>
      <trkpt lat="48.59653" lon="1.99838">
        <ele>92</ele>
        <time>2010-03-19T11:07:12Z</time>
      </trkpt>
      <trkpt lat="48.59656" lon="1.99839">
        <ele>92</ele>
        <time>2010-03-19T11:07:13Z</time>
      </trkpt>
      <trkpt lat="48.59657" lon="1.99839">
        <ele>92</ele>
        <time>2010-03-19T11:07:15Z</time>
      </trkpt>
      <trkpt lat="48.59658" lon="1.99838">
        <ele>92</ele>
        <time>2010-03-19T11:07:17Z</time>
      </trkpt>
      <trkpt lat="48.59659" lon="1.99837">
        <ele>92</ele>
        <time>2010-03-19T11:07:18Z</time>
      </trkpt>
      <trkpt lat="48.59661" lon="1.99836">
        <ele>92</ele>
        <time>2010-03-19T11:07:19Z</time>
      </trkpt>
      <trkpt lat="48.59663" lon="1.99836">
        <ele>92</ele>
        <time>2010-03-19T11:07:20Z</time>
      </trkpt>
      <trkpt lat="48.59665" lon="1.99836">
        <ele>92</ele>
        <time>2010-03-19T11:07:21Z</time>
      </trkpt>
      <trkpt lat="48.59666" lon="1.99836">
        <ele>92</ele>
        <time>2010-03-19T11:07:22Z</time>
      </trkpt>
      <trkpt lat="48.59668" lon="1.99836">
        <ele>92</ele>
        <time>2010-03-19T11:07:23Z</time>
      </trkpt>
      <trkpt lat="48.59671" lon="1.99835">
        <ele>92</ele>
        <time>2010-03-19T11:07:24Z</time>
      </trkpt>
      <trkpt lat="48.59673" lon="1.99834">
        <ele>92</ele>
        <time>2010-03-19T11:07:25Z</time>
      </trkpt>
      <trkpt lat="48.59675" lon="1.99832">
        <ele>92</ele>
        <time>2010-03-19T11:07:26Z</time>
      </trkpt>
      <trkpt lat="48.59675" lon="1.99829">
        <ele>92</ele>
        <time>2010-03-19T11:07:27Z</time>
      </trkpt>
      <trkpt lat="48.59676" lon="1.99827">
        <ele>92</ele>
        <time>2010-03-19T11:07:28Z</time>
      </trkpt>
      <trkpt lat="48.59675" lon="1.99825">
        <ele>93</ele>
        <time>2010-03-19T11:07:29Z</time>
      </trkpt>
      <trkpt lat="48.59675" lon="1.99822">
        <ele>93</ele>
        <time>2010-03-19T11:07:30Z</time>
      </trkpt>
      <trkpt lat="48.59675" lon="1.99819">
        <ele>93</ele>
        <time>2010-03-19T11:07:31Z</time>
      </trkpt>
      <trkpt lat="48.59675" lon="1.99816">
        <ele>93</ele>
        <time>2010-03-19T11:07:32Z</time>
      </trkpt>
      <trkpt lat="48.59674" lon="1.99813">
        <ele>93</ele>
        <time>2010-03-19T11:07:33Z</time>
      </trkpt>
      <trkpt lat="48.59674" lon="1.99811">
        <ele>94</ele>
        <time>2010-03-19T11:07:34Z</time>
      </trkpt>
      <trkpt lat="48.59674" lon="1.99808">
        <ele>94</ele>
        <time>2010-03-19T11:07:35Z</time>
      </trkpt>
      <trkpt lat="48.59673" lon="1.99805">
        <ele>94</ele>
        <time>2010-03-19T11:07:36Z</time>
      </trkpt>
      <trkpt lat="48.59673" lon="1.99802">
        <ele>94</ele>
        <time>2010-03-19T11:07:37Z</time>
      </trkpt>
      <trkpt lat="48.59673" lon="1.998">
        <ele>94</ele>
        <time>2010-03-19T11:07:38Z</time>
      </trkpt>
      <trkpt lat="48.59673" lon="1.99797">
        <ele>95</ele>
        <time>2010-03-19T11:07:39Z</time>
      </trkpt>
      <trkpt lat="48.59673" lon="1.99795">
        <ele>95</ele>
        <time>2010-03-19T11:07:40Z</time>
      </trkpt>
      <trkpt lat="48.59673" lon="1.99792">
        <ele>95</ele>
        <time>2010-03-19T11:07:41Z</time>
      </trkpt>
      <trkpt lat="48.59672" lon="1.99789">
        <ele>95</ele>
        <time>2010-03-19T11:07:42Z</time>
      </trkpt>
      <trkpt lat="48.59672" lon="1.99787">
        <ele>95</ele>
        <time>2010-03-19T11:07:43Z</time>
      </trkpt>
      <trkpt lat="48.59671" lon="1.99784">
        <ele>95</ele>
        <time>2010-03-19T11:07:44Z</time>
      </trkpt>
      <trkpt lat="48.59671" lon="1.99782">
        <ele>95</ele>
        <time>2010-03-19T11:07:45Z</time>
      </trkpt>
      <trkpt lat="48.59671" lon="1.9978">
        <ele>96</ele>
        <time>2010-03-19T11:07:46Z</time>
      </trkpt>
      <trkpt lat="48.5967" lon="1.99777">
        <ele>96</ele>
        <time>2010-03-19T11:07:47Z</time>
      </trkpt>
      <trkpt lat="48.5967" lon="1.99775">
        <ele>96</ele>
        <time>2010-03-19T11:07:48Z</time>
      </trkpt>
      <trkpt lat="48.5967" lon="1.99773">
        <ele>96</ele>
        <time>2010-03-19T11:07:49Z</time>
      </trkpt>
      <trkpt lat="48.5967" lon="1.99771">
        <ele>96</ele>
        <time>2010-03-19T11:07:50Z</time>
      </trkpt>
      <trkpt lat="48.5967" lon="1.99768">
        <ele>96</ele>
        <time>2010-03-19T11:07:51Z</time>
      </trkpt>
      <trkpt lat="48.59669" lon="1.99766">
        <ele>96</ele>
        <time>2010-03-19T11:07:52Z</time>
      </trkpt>
      <trkpt lat="48.59669" lon="1.99764">
        <ele>96</ele>
        <time>2010-03-19T11:07:53Z</time>
      </trkpt>
      <trkpt lat="48.59669" lon="1.99762">
        <ele>96</ele>
        <time>2010-03-19T11:07:54Z</time>
      </trkpt>
      <trkpt lat="48.59669" lon="1.9976">
        <ele>96</ele>
        <time>2010-03-19T11:07:55Z</time>
      </trkpt>
      <trkpt lat="48.59668" lon="1.99757">
        <ele>96</ele>
        <time>2010-03-19T11:07:56Z</time>
      </trkpt>
      <trkpt lat="48.59668" lon="1.99754">
        <ele>96</ele>
        <time>2010-03-19T11:07:57Z</time>
      </trkpt>
      <trkpt lat="48.59668" lon="1.99752">
        <ele>96</ele>
        <time>2010-03-19T11:07:58Z</time>
      </trkpt>
      <trkpt lat="48.59668" lon="1.99749">
        <ele>96</ele>
        <time>2010-03-19T11:07:59Z</time>
      </trkpt>
      <trkpt lat="48.59667" lon="1.99746">
        <ele>96</ele>
        <time>2010-03-19T11:08:00Z</time>
      </trkpt>
      <trkpt lat="48.59666" lon="1.99744">
        <ele>96</ele>
        <time>2010-03-19T11:08:01Z</time>
      </trkpt>
      <trkpt lat="48.59666" lon="1.99741">
        <ele>96</ele>
        <time>2010-03-19T11:08:02Z</time>
      </trkpt>
      <trkpt lat="48.59665" lon="1.99738">
        <ele>96</ele>
        <time>2010-03-19T11:08:03Z</time>
      </trkpt>
      <trkpt lat="48.59665" lon="1.99735">
        <ele>96</ele>
        <time>2010-03-19T11:08:04Z</time>
      </trkpt>
      <trkpt lat="48.59664" lon="1.99732">
        <ele>96</ele>
        <time>2010-03-19T11:08:05Z</time>
      </trkpt>
      <trkpt lat="48.59663" lon="1.99729">
        <ele>96</ele>
        <time>2010-03-19T11:08:06Z</time>
      </trkpt>
      <trkpt lat="48.59662" lon="1.99726">
        <ele>96</ele>
        <time>2010-03-19T11:08:07Z</time>
      </trkpt>
      <trkpt lat="48.59662" lon="1.99723">
        <ele>96</ele>
        <time>2010-03-19T11:08:08Z</time>
      </trkpt>
      <trkpt lat="48.59661" lon="1.99721">
        <ele>96</ele>
        <time>2010-03-19T11:08:09Z</time>
      </trkpt>
      <trkpt lat="48.59661" lon="1.99718">
        <ele>96</ele>
        <time>2010-03-19T11:08:10Z</time>
      </trkpt>
      <trkpt lat="48.59661" lon="1.99716">
        <ele>96</ele>
        <time>2010-03-19T11:08:11Z</time>
      </trkpt>
      <trkpt lat="48.5966" lon="1.99713">
        <ele>96</ele>
        <time>2010-03-19T11:08:12Z</time>
      </trkpt>
      <trkpt lat="48.5966" lon="1.99711">
        <ele>96</ele>
        <time>2010-03-19T11:08:13Z</time>
      </trkpt>
      <trkpt lat="48.5966" lon="1.99708">
        <ele>96</ele>
        <time>2010-03-19T11:08:14Z</time>
      </trkpt>
      <trkpt lat="48.59659" lon="1.99706">
        <ele>97</ele>
        <time>2010-03-19T11:08:15Z</time>
      </trkpt>
      <trkpt lat="48.59658" lon="1.99703">
        <ele>97</ele>
        <time>2010-03-19T11:08:16Z</time>
      </trkpt>
      <trkpt lat="48.59657" lon="1.99701">
        <ele>98</ele>
        <time>2010-03-19T11:08:17Z</time>
      </trkpt>
      <trkpt lat="48.59657" lon="1.99698">
        <ele>98</ele>
        <time>2010-03-19T11:08:18Z</time>
      </trkpt>
      <trkpt lat="48.59656" lon="1.99696">
        <ele>99</ele>
        <time>2010-03-19T11:08:19Z</time>
      </trkpt>
      <trkpt lat="48.59656" lon="1.99694">
        <ele>99</ele>
        <time>2010-03-19T11:08:20Z</time>
      </trkpt>
      <trkpt lat="48.59656" lon="1.99692">
        <ele>100</ele>
        <time>2010-03-19T11:08:21Z</time>
      </trkpt>
      <trkpt lat="48.59656" lon="1.9969">
        <ele>100</ele>
        <time>2010-03-19T11:08:22Z</time>
      </trkpt>
      <trkpt lat="48.59655" lon="1.99688">
        <ele>101</ele>
        <time>2010-03-19T11:08:23Z</time>
      </trkpt>
      <trkpt lat="48.59655" lon="1.99686">
        <ele>101</ele>
        <time>2010-03-19T11:08:25Z</time>
      </trkpt>
      <trkpt lat="48.59655" lon="1.99684">
        <ele>101</ele>
        <time>2010-03-19T11:08:30Z</time>
      </trkpt>
      <trkpt lat="48.59655" lon="1.99682">
        <ele>101</ele>
        <time>2010-03-19T11:08:31Z</time>
      </trkpt>
      <trkpt lat="48.59654" lon="1.9968">
        <ele>101</ele>
        <time>2010-03-19T11:08:32Z</time>
      </trkpt>
      <trkpt lat="48.59654" lon="1.99678">
        <ele>101</ele>
        <time>2010-03-19T11:08:33Z</time>
      </trkpt>
      <trkpt lat="48.59653" lon="1.99675">
        <ele>101</ele>
        <time>2010-03-19T11:08:34Z</time>
      </trkpt>
      <trkpt lat="48.59653" lon="1.99672">
        <ele>101</ele>
        <time>2010-03-19T11:08:35Z</time>
      </trkpt>
      <trkpt lat="48.59653" lon="1.9967">
        <ele>101</ele>
        <time>2010-03-19T11:08:36Z</time>
      </trkpt>
      <trkpt lat="48.59653" lon="1.99668">
        <ele>101</ele>
        <time>2010-03-19T11:08:37Z</time>
      </trkpt>
      <trkpt lat="48.59653" lon="1.99665">
        <ele>101</ele>
        <time>2010-03-19T11:08:38Z</time>
      </trkpt>
      <trkpt lat="48.59653" lon="1.99663">
        <ele>101</ele>
        <time>2010-03-19T11:08:39Z</time>
      </trkpt>
      <trkpt lat="48.59653" lon="1.9966">
        <ele>101</ele>
        <time>2010-03-19T11:08:40Z</time>
      </trkpt>
      <trkpt lat="48.59653" lon="1.99658">
        <ele>101</ele>
        <time>2010-03-19T11:08:41Z</time>
      </trkpt>
      <trkpt lat="48.59653" lon="1.99655">
        <ele>101</ele>
        <time>2010-03-19T11:08:42Z</time>
      </trkpt>
      <trkpt lat="48.59653" lon="1.99653">
        <ele>101</ele>
        <time>2010-03-19T11:08:43Z</time>
      </trkpt>
      <trkpt lat="48.59653" lon="1.9965">
        <ele>101</ele>
        <time>2010-03-19T11:08:44Z</time>
      </trkpt>
      <trkpt lat="48.59653" lon="1.99648">
        <ele>101</ele>
        <time>2010-03-19T11:08:45Z</time>
      </trkpt>
      <trkpt lat="48.59653" lon="1.99645">
        <ele>101</ele>
        <time>2010-03-19T11:08:46Z</time>
      </trkpt>
      <trkpt lat="48.59652" lon="1.99643">
        <ele>101</ele>
        <time>2010-03-19T11:08:47Z</time>
      </trkpt>
      <trkpt lat="48.59652" lon="1.9964">
        <ele>101</ele>
        <time>2010-03-19T11:08:48Z</time>
      </trkpt>
      <trkpt lat="48.59652" lon="1.99637">
        <ele>101</ele>
        <time>2010-03-19T11:08:49Z</time>
      </trkpt>
      <trkpt lat="48.59652" lon="1.99635">
        <ele>101</ele>
        <time>2010-03-19T11:08:50Z</time>
      </trkpt>
      <trkpt lat="48.59651" lon="1.99633">
        <ele>101</ele>
        <time>2010-03-19T11:08:51Z</time>
      </trkpt>
      <trkpt lat="48.5965" lon="1.9963">
        <ele>101</ele>
        <time>2010-03-19T11:08:52Z</time>
      </trkpt>
      <trkpt lat="48.5965" lon="1.99628">
        <ele>101</ele>
        <time>2010-03-19T11:08:53Z</time>
      </trkpt>
      <trkpt lat="48.5965" lon="1.99625">
        <ele>101</ele>
        <time>2010-03-19T11:08:54Z</time>
      </trkpt>
      <trkpt lat="48.5965" lon="1.99623">
        <ele>101</ele>
        <time>2010-03-19T11:08:55Z</time>
      </trkpt>
      <trkpt lat="48.5965" lon="1.99621">
        <ele>101</ele>
        <time>2010-03-19T11:08:56Z</time>
      </trkpt>
      <trkpt lat="48.5965" lon="1.99618">
        <ele>101</ele>
        <time>2010-03-19T11:08:57Z</time>
      </trkpt>
      <trkpt lat="48.59651" lon="1.99616">
        <ele>101</ele>
        <time>2010-03-19T11:08:58Z</time>
      </trkpt>
      <trkpt lat="48.59651" lon="1.99614">
        <ele>101</ele>
        <time>2010-03-19T11:08:59Z</time>
      </trkpt>
      <trkpt lat="48.59651" lon="1.99611">
        <ele>101</ele>
        <time>2010-03-19T11:09:00Z</time>
      </trkpt>
      <trkpt lat="48.59651" lon="1.99609">
        <ele>101</ele>
        <time>2010-03-19T11:09:01Z</time>
      </trkpt>
      <trkpt lat="48.59651" lon="1.99607">
        <ele>101</ele>
        <time>2010-03-19T11:09:02Z</time>
      </trkpt>
      <trkpt lat="48.5965" lon="1.99604">
        <ele>101</ele>
        <time>2010-03-19T11:09:03Z</time>
      </trkpt>
      <trkpt lat="48.5965" lon="1.99601">
        <ele>101</ele>
        <time>2010-03-19T11:09:04Z</time>
      </trkpt>
      <trkpt lat="48.59649" lon="1.99599">
        <ele>101</ele>
        <time>2010-03-19T11:09:05Z</time>
      </trkpt>
      <trkpt lat="48.59649" lon="1.99596">
        <ele>101</ele>
        <time>2010-03-19T11:09:06Z</time>
      </trkpt>
      <trkpt lat="48.59649" lon="1.99593">
        <ele>101</ele>
        <time>2010-03-19T11:09:07Z</time>
      </trkpt>
      <trkpt lat="48.59649" lon="1.99591">
        <ele>101</ele>
        <time>2010-03-19T11:09:08Z</time>
      </trkpt>
      <trkpt lat="48.59649" lon="1.99589">
        <ele>101</ele>
        <time>2010-03-19T11:09:09Z</time>
      </trkpt>
      <trkpt lat="48.59649" lon="1.99587">
        <ele>101</ele>
        <time>2010-03-19T11:09:10Z</time>
      </trkpt>
      <trkpt lat="48.59648" lon="1.99584">
        <ele>101</ele>
        <time>2010-03-19T11:09:11Z</time>
      </trkpt>
      <trkpt lat="48.59647" lon="1.99582">
        <ele>101</ele>
        <time>2010-03-19T11:09:12Z</time>
      </trkpt>
      <trkpt lat="48.59647" lon="1.9958">
        <ele>101</ele>
        <time>2010-03-19T11:09:13Z</time>
      </trkpt>
      <trkpt lat="48.59646" lon="1.99576">
        <ele>101</ele>
        <time>2010-03-19T11:09:14Z</time>
      </trkpt>
      <trkpt lat="48.59645" lon="1.99574">
        <ele>101</ele>
        <time>2010-03-19T11:09:15Z</time>
      </trkpt>
      <trkpt lat="48.59645" lon="1.99572">
        <ele>101</ele>
        <time>2010-03-19T11:09:16Z</time>
      </trkpt>
      <trkpt lat="48.59644" lon="1.9957">
        <ele>101</ele>
        <time>2010-03-19T11:09:17Z</time>
      </trkpt>
      <trkpt lat="48.59644" lon="1.99568">
        <ele>101</ele>
        <time>2010-03-19T11:09:18Z</time>
      </trkpt>
      <trkpt lat="48.59643" lon="1.99566">
        <ele>101</ele>
        <time>2010-03-19T11:09:19Z</time>
      </trkpt>
      <trkpt lat="48.59643" lon="1.99564">
        <ele>101</ele>
        <time>2010-03-19T11:09:20Z</time>
      </trkpt>
      <trkpt lat="48.59642" lon="1.99562">
        <ele>101</ele>
        <time>2010-03-19T11:09:21Z</time>
      </trkpt>
      <trkpt lat="48.59642" lon="1.9956">
        <ele>101</ele>
        <time>2010-03-19T11:09:22Z</time>
      </trkpt>
      <trkpt lat="48.59641" lon="1.99557">
        <ele>101</ele>
        <time>2010-03-19T11:09:23Z</time>
      </trkpt>
      <trkpt lat="48.59641" lon="1.99555">
        <ele>101</ele>
        <time>2010-03-19T11:09:24Z</time>
      </trkpt>
      <trkpt lat="48.5964" lon="1.99553">
        <ele>101</ele>
        <time>2010-03-19T11:09:25Z</time>
      </trkpt>
      <trkpt lat="48.59639" lon="1.9955">
        <ele>101</ele>
        <time>2010-03-19T11:09:26Z</time>
      </trkpt>
      <trkpt lat="48.59638" lon="1.99548">
        <ele>101</ele>
        <time>2010-03-19T11:09:27Z</time>
      </trkpt>
      <trkpt lat="48.59637" lon="1.99545">
        <ele>102</ele>
        <time>2010-03-19T11:09:28Z</time>
      </trkpt>
      <trkpt lat="48.59637" lon="1.99542">
        <ele>102</ele>
        <time>2010-03-19T11:09:29Z</time>
      </trkpt>
      <trkpt lat="48.59636" lon="1.9954">
        <ele>102</ele>
        <time>2010-03-19T11:09:30Z</time>
      </trkpt>
      <trkpt lat="48.59636" lon="1.99537">
        <ele>102</ele>
        <time>2010-03-19T11:09:31Z</time>
      </trkpt>
      <trkpt lat="48.59635" lon="1.99535">
        <ele>102</ele>
        <time>2010-03-19T11:09:32Z</time>
      </trkpt>
      <trkpt lat="48.59635" lon="1.99532">
        <ele>102</ele>
        <time>2010-03-19T11:09:33Z</time>
      </trkpt>
      <trkpt lat="48.59635" lon="1.9953">
        <ele>102</ele>
        <time>2010-03-19T11:09:34Z</time>
      </trkpt>
      <trkpt lat="48.59634" lon="1.99527">
        <ele>102</ele>
        <time>2010-03-19T11:09:35Z</time>
      </trkpt>
      <trkpt lat="48.59634" lon="1.99525">
        <ele>102</ele>
        <time>2010-03-19T11:09:36Z</time>
      </trkpt>
      <trkpt lat="48.59634" lon="1.99523">
        <ele>102</ele>
        <time>2010-03-19T11:09:37Z</time>
      </trkpt>
      <trkpt lat="48.59633" lon="1.99522">
        <ele>102</ele>
        <time>2010-03-19T11:09:38Z</time>
      </trkpt>
      <trkpt lat="48.59633" lon="1.9952">
        <ele>102</ele>
        <time>2010-03-19T11:09:39Z</time>
      </trkpt>
      <trkpt lat="48.59633" lon="1.99518">
        <ele>102</ele>
        <time>2010-03-19T11:09:40Z</time>
      </trkpt>
      <trkpt lat="48.59633" lon="1.99515">
        <ele>102</ele>
        <time>2010-03-19T11:09:41Z</time>
      </trkpt>
      <trkpt lat="48.59633" lon="1.99512">
        <ele>102</ele>
        <time>2010-03-19T11:09:42Z</time>
      </trkpt>
      <trkpt lat="48.59632" lon="1.9951">
        <ele>102</ele>
        <time>2010-03-19T11:09:43Z</time>
      </trkpt>
      <trkpt lat="48.59632" lon="1.99507">
        <ele>102</ele>
        <time>2010-03-19T11:09:44Z</time>
      </trkpt>
      <trkpt lat="48.59632" lon="1.99504">
        <ele>102</ele>
        <time>2010-03-19T11:09:45Z</time>
      </trkpt>
      <trkpt lat="48.59632" lon="1.99502">
        <ele>102</ele>
        <time>2010-03-19T11:09:46Z</time>
      </trkpt>
      <trkpt lat="48.59631" lon="1.99498">
        <ele>102</ele>
        <time>2010-03-19T11:09:47Z</time>
      </trkpt>
      <trkpt lat="48.59631" lon="1.99495">
        <ele>102</ele>
        <time>2010-03-19T11:09:48Z</time>
      </trkpt>
      <trkpt lat="48.59629" lon="1.99493">
        <ele>102</ele>
        <time>2010-03-19T11:09:49Z</time>
      </trkpt>
      <trkpt lat="48.59629" lon="1.9949">
        <ele>102</ele>
        <time>2010-03-19T11:09:50Z</time>
      </trkpt>
      <trkpt lat="48.59628" lon="1.99487">
        <ele>102</ele>
        <time>2010-03-19T11:09:51Z</time>
      </trkpt>
      <trkpt lat="48.59628" lon="1.99485">
        <ele>102</ele>
        <time>2010-03-19T11:09:52Z</time>
      </trkpt>
      <trkpt lat="48.59628" lon="1.99482">
        <ele>102</ele>
        <time>2010-03-19T11:09:53Z</time>
      </trkpt>
      <trkpt lat="48.59627" lon="1.99479">
        <ele>102</ele>
        <time>2010-03-19T11:09:54Z</time>
      </trkpt>
      <trkpt lat="48.59627" lon="1.99477">
        <ele>102</ele>
        <time>2010-03-19T11:09:55Z</time>
      </trkpt>
      <trkpt lat="48.59627" lon="1.99474">
        <ele>102</ele>
        <time>2010-03-19T11:09:56Z</time>
      </trkpt>
      <trkpt lat="48.59627" lon="1.99472">
        <ele>102</ele>
        <time>2010-03-19T11:09:57Z</time>
      </trkpt>
      <trkpt lat="48.59627" lon="1.99469">
        <ele>102</ele>
        <time>2010-03-19T11:09:58Z</time>
      </trkpt>
      <trkpt lat="48.59628" lon="1.99467">
        <ele>102</ele>
        <time>2010-03-19T11:09:59Z</time>
      </trkpt>
      <trkpt lat="48.59629" lon="1.99467">
        <ele>102</ele>
        <time>2010-03-19T11:10:02Z</time>
      </trkpt>
      <trkpt lat="48.59629" lon="1.99469">
        <ele>102</ele>
        <time>2010-03-19T11:10:05Z</time>
      </trkpt>
      <trkpt lat="48.59628" lon="1.99469">
        <ele>102</ele>
        <time>2010-03-19T11:10:07Z</time>
      </trkpt>
      <trkpt lat="48.59627" lon="1.99467">
        <ele>102</ele>
        <time>2010-03-19T11:10:08Z</time>
      </trkpt>
      <trkpt lat="48.59626" lon="1.99464">
        <ele>102</ele>
        <time>2010-03-19T11:10:09Z</time>
      </trkpt>
      <trkpt lat="48.59626" lon="1.99462">
        <ele>102</ele>
        <time>2010-03-19T11:10:10Z</time>
      </trkpt>
      <trkpt lat="48.59625" lon="1.99459">
        <ele>102</ele>
        <time>2010-03-19T11:10:11Z</time>
      </trkpt>
      <trkpt lat="48.59624" lon="1.99457">
        <ele>102</ele>
        <time>2010-03-19T11:10:12Z</time>
      </trkpt>
      <trkpt lat="48.59624" lon="1.99454">
        <ele>103</ele>
        <time>2010-03-19T11:10:13Z</time>
      </trkpt>
      <trkpt lat="48.59623" lon="1.99452">
        <ele>103</ele>
        <time>2010-03-19T11:10:14Z</time>
      </trkpt>
      <trkpt lat="48.59623" lon="1.99449">
        <ele>103</ele>
        <time>2010-03-19T11:10:15Z</time>
      </trkpt>
      <trkpt lat="48.59621" lon="1.99446">
        <ele>104</ele>
        <time>2010-03-19T11:10:16Z</time>
      </trkpt>
      <trkpt lat="48.59621" lon="1.99444">
        <ele>104</ele>
        <time>2010-03-19T11:10:17Z</time>
      </trkpt>
      <trkpt lat="48.59621" lon="1.99442">
        <ele>104</ele>
        <time>2010-03-19T11:10:18Z</time>
      </trkpt>
      <trkpt lat="48.5962" lon="1.9944">
        <ele>104</ele>
        <time>2010-03-19T11:10:19Z</time>
      </trkpt>
      <trkpt lat="48.5962" lon="1.99437">
        <ele>105</ele>
        <time>2010-03-19T11:10:20Z</time>
      </trkpt>
      <trkpt lat="48.59619" lon="1.99434">
        <ele>105</ele>
        <time>2010-03-19T11:10:21Z</time>
      </trkpt>
      <trkpt lat="48.59619" lon="1.99432">
        <ele>105</ele>
        <time>2010-03-19T11:10:22Z</time>
      </trkpt>
      <trkpt lat="48.59618" lon="1.9943">
        <ele>105</ele>
        <time>2010-03-19T11:10:23Z</time>
      </trkpt>
      <trkpt lat="48.59618" lon="1.99427">
        <ele>105</ele>
        <time>2010-03-19T11:10:24Z</time>
      </trkpt>
      <trkpt lat="48.59617" lon="1.99425">
        <ele>105</ele>
        <time>2010-03-19T11:10:25Z</time>
      </trkpt>
      <trkpt lat="48.59617" lon="1.99422">
        <ele>105</ele>
        <time>2010-03-19T11:10:26Z</time>
      </trkpt>
      <trkpt lat="48.59616" lon="1.99419">
        <ele>105</ele>
        <time>2010-03-19T11:10:27Z</time>
      </trkpt>
      <trkpt lat="48.59616" lon="1.99417">
        <ele>105</ele>
        <time>2010-03-19T11:10:28Z</time>
      </trkpt>
      <trkpt lat="48.59615" lon="1.99415">
        <ele>105</ele>
        <time>2010-03-19T11:10:29Z</time>
      </trkpt>
      <trkpt lat="48.59615" lon="1.99413">
        <ele>106</ele>
        <time>2010-03-19T11:10:30Z</time>
      </trkpt>
      <trkpt lat="48.59615" lon="1.9941">
        <ele>106</ele>
        <time>2010-03-19T11:10:31Z</time>
      </trkpt>
      <trkpt lat="48.59613" lon="1.99408">
        <ele>106</ele>
        <time>2010-03-19T11:10:32Z</time>
      </trkpt>
      <trkpt lat="48.59613" lon="1.99406">
        <ele>106</ele>
        <time>2010-03-19T11:10:33Z</time>
      </trkpt>
      <trkpt lat="48.59613" lon="1.99403">
        <ele>106</ele>
        <time>2010-03-19T11:10:34Z</time>
      </trkpt>
      <trkpt lat="48.59612" lon="1.994">
        <ele>106</ele>
        <time>2010-03-19T11:10:35Z</time>
      </trkpt>
      <trkpt lat="48.59612" lon="1.99398">
        <ele>106</ele>
        <time>2010-03-19T11:10:36Z</time>
      </trkpt>
      <trkpt lat="48.59612" lon="1.99396">
        <ele>107</ele>
        <time>2010-03-19T11:10:37Z</time>
      </trkpt>
      <trkpt lat="48.59611" lon="1.99394">
        <ele>107</ele>
        <time>2010-03-19T11:10:38Z</time>
      </trkpt>
      <trkpt lat="48.59611" lon="1.99392">
        <ele>107</ele>
        <time>2010-03-19T11:10:39Z</time>
      </trkpt>
      <trkpt lat="48.5961" lon="1.9939">
        <ele>107</ele>
        <time>2010-03-19T11:10:40Z</time>
      </trkpt>
      <trkpt lat="48.5961" lon="1.99387">
        <ele>107</ele>
        <time>2010-03-19T11:10:41Z</time>
      </trkpt>
      <trkpt lat="48.5961" lon="1.99385">
        <ele>107</ele>
        <time>2010-03-19T11:10:42Z</time>
      </trkpt>
      <trkpt lat="48.5961" lon="1.99382">
        <ele>107</ele>
        <time>2010-03-19T11:10:43Z</time>
      </trkpt>
      <trkpt lat="48.5961" lon="1.99379">
        <ele>108</ele>
        <time>2010-03-19T11:10:44Z</time>
      </trkpt>
      <trkpt lat="48.5961" lon="1.99377">
        <ele>108</ele>
        <time>2010-03-19T11:10:45Z</time>
      </trkpt>
      <trkpt lat="48.59611" lon="1.99375">
        <ele>108</ele>
        <time>2010-03-19T11:10:46Z</time>
      </trkpt>
      <trkpt lat="48.59612" lon="1.99373">
        <ele>108</ele>
        <time>2010-03-19T11:10:47Z</time>
      </trkpt>
      <trkpt lat="48.59613" lon="1.99371">
        <ele>108</ele>
        <time>2010-03-19T11:10:49Z</time>
      </trkpt>
      <trkpt lat="48.59615" lon="1.99369">
        <ele>109</ele>
        <time>2010-03-19T11:10:54Z</time>
      </trkpt>
      <trkpt lat="48.59616" lon="1.99368">
        <ele>109</ele>
        <time>2010-03-19T11:10:57Z</time>
      </trkpt>
      <trkpt lat="48.59618" lon="1.99365">
        <ele>109</ele>
        <time>2010-03-19T11:10:59Z</time>
      </trkpt>
      <trkpt lat="48.5962" lon="1.99364">
        <ele>109</ele>
        <time>2010-03-19T11:11:00Z</time>
      </trkpt>
      <trkpt lat="48.59621" lon="1.99363">
        <ele>110</ele>
        <time>2010-03-19T11:11:01Z</time>
      </trkpt>
      <trkpt lat="48.59623" lon="1.99362">
        <ele>110</ele>
        <time>2010-03-19T11:11:02Z</time>
      </trkpt>
      <trkpt lat="48.59625" lon="1.99362">
        <ele>110</ele>
        <time>2010-03-19T11:11:03Z</time>
      </trkpt>
      <trkpt lat="48.59626" lon="1.99361">
        <ele>110</ele>
        <time>2010-03-19T11:11:04Z</time>
      </trkpt>
      <trkpt lat="48.59628" lon="1.9936">
        <ele>110</ele>
        <time>2010-03-19T11:11:05Z</time>
      </trkpt>
      <trkpt lat="48.59629" lon="1.9936">
        <ele>110</ele>
        <time>2010-03-19T11:11:06Z</time>
      </trkpt>
      <trkpt lat="48.59631" lon="1.99359">
        <ele>110</ele>
        <time>2010-03-19T11:11:07Z</time>
      </trkpt>
      <trkpt lat="48.59632" lon="1.99359">
        <ele>110</ele>
        <time>2010-03-19T11:11:08Z</time>
      </trkpt>
      <trkpt lat="48.59634" lon="1.99358">
        <ele>110</ele>
        <time>2010-03-19T11:11:09Z</time>
      </trkpt>
      <trkpt lat="48.59636" lon="1.99358">
        <ele>110</ele>
        <time>2010-03-19T11:11:10Z</time>
      </trkpt>
      <trkpt lat="48.59637" lon="1.99357">
        <ele>110</ele>
        <time>2010-03-19T11:11:11Z</time>
      </trkpt>
      <trkpt lat="48.59638" lon="1.99357">
        <ele>110</ele>
        <time>2010-03-19T11:11:12Z</time>
      </trkpt>
      <trkpt lat="48.59641" lon="1.99356">
        <ele>110</ele>
        <time>2010-03-19T11:11:14Z</time>
      </trkpt>
      <trkpt lat="48.59642" lon="1.99356">
        <ele>110</ele>
        <time>2010-03-19T11:11:15Z</time>
      </trkpt>
      <trkpt lat="48.59644" lon="1.99355">
        <ele>110</ele>
        <time>2010-03-19T11:11:16Z</time>
      </trkpt>
      <trkpt lat="48.59645" lon="1.99355">
        <ele>110</ele>
        <time>2010-03-19T11:11:17Z</time>
      </trkpt>
      <trkpt lat="48.59647" lon="1.99355">
        <ele>110</ele>
        <time>2010-03-19T11:11:18Z</time>
      </trkpt>
      <trkpt lat="48.59649" lon="1.99354">
        <ele>110</ele>
        <time>2010-03-19T11:11:19Z</time>
      </trkpt>
      <trkpt lat="48.5965" lon="1.99353">
        <ele>110</ele>
        <time>2010-03-19T11:11:20Z</time>
      </trkpt>
      <trkpt lat="48.59652" lon="1.99352">
        <ele>110</ele>
        <time>2010-03-19T11:11:21Z</time>
      </trkpt>
      <trkpt lat="48.59653" lon="1.99351">
        <ele>110</ele>
        <time>2010-03-19T11:11:22Z</time>
      </trkpt>
      <trkpt lat="48.59654" lon="1.99351">
        <ele>110</ele>
        <time>2010-03-19T11:11:23Z</time>
      </trkpt>
      <trkpt lat="48.59656" lon="1.99351">
        <ele>110</ele>
        <time>2010-03-19T11:11:24Z</time>
      </trkpt>
      <trkpt lat="48.59658" lon="1.99351">
        <ele>110</ele>
        <time>2010-03-19T11:11:25Z</time>
      </trkpt>
      <trkpt lat="48.59659" lon="1.99351">
        <ele>110</ele>
        <time>2010-03-19T11:11:26Z</time>
      </trkpt>
      <trkpt lat="48.59661" lon="1.99351">
        <ele>110</ele>
        <time>2010-03-19T11:11:27Z</time>
      </trkpt>
      <trkpt lat="48.59662" lon="1.9935">
        <ele>110</ele>
        <time>2010-03-19T11:11:28Z</time>
      </trkpt>
      <trkpt lat="48.59664" lon="1.99349">
        <ele>110</ele>
        <time>2010-03-19T11:11:29Z</time>
      </trkpt>
      <trkpt lat="48.59665" lon="1.99348">
        <ele>110</ele>
        <time>2010-03-19T11:11:30Z</time>
      </trkpt>
      <trkpt lat="48.59667" lon="1.99347">
        <ele>110</ele>
        <time>2010-03-19T11:11:31Z</time>
      </trkpt>
      <trkpt lat="48.59668" lon="1.99347">
        <ele>110</ele>
        <time>2010-03-19T11:11:32Z</time>
      </trkpt>
      <trkpt lat="48.59669" lon="1.99346">
        <ele>110</ele>
        <time>2010-03-19T11:11:33Z</time>
      </trkpt>
      <trkpt lat="48.59671" lon="1.99345">
        <ele>110</ele>
        <time>2010-03-19T11:11:34Z</time>
      </trkpt>
      <trkpt lat="48.59673" lon="1.99344">
        <ele>110</ele>
        <time>2010-03-19T11:11:35Z</time>
      </trkpt>
      <trkpt lat="48.59674" lon="1.99343">
        <ele>110</ele>
        <time>2010-03-19T11:11:36Z</time>
      </trkpt>
      <trkpt lat="48.59676" lon="1.99342">
        <ele>110</ele>
        <time>2010-03-19T11:11:37Z</time>
      </trkpt>
      <trkpt lat="48.59677" lon="1.99341">
        <ele>110</ele>
        <time>2010-03-19T11:11:38Z</time>
      </trkpt>
      <trkpt lat="48.59678" lon="1.99341">
        <ele>110</ele>
        <time>2010-03-19T11:11:39Z</time>
      </trkpt>
      <trkpt lat="48.5968" lon="1.9934">
        <ele>110</ele>
        <time>2010-03-19T11:11:40Z</time>
      </trkpt>
      <trkpt lat="48.59682" lon="1.9934">
        <ele>110</ele>
        <time>2010-03-19T11:11:41Z</time>
      </trkpt>
      <trkpt lat="48.59683" lon="1.99339">
        <ele>110</ele>
        <time>2010-03-19T11:11:42Z</time>
      </trkpt>
      <trkpt lat="48.59685" lon="1.99338">
        <ele>110</ele>
        <time>2010-03-19T11:11:43Z</time>
      </trkpt>
      <trkpt lat="48.59686" lon="1.99338">
        <ele>110</ele>
        <time>2010-03-19T11:11:44Z</time>
      </trkpt>
      <trkpt lat="48.59687" lon="1.99337">
        <ele>110</ele>
        <time>2010-03-19T11:11:45Z</time>
      </trkpt>
      <trkpt lat="48.59689" lon="1.99337">
        <ele>110</ele>
        <time>2010-03-19T11:11:46Z</time>
      </trkpt>
      <trkpt lat="48.5969" lon="1.99336">
        <ele>110</ele>
        <time>2010-03-19T11:11:47Z</time>
      </trkpt>
      <trkpt lat="48.59692" lon="1.99336">
        <ele>110</ele>
        <time>2010-03-19T11:11:48Z</time>
      </trkpt>
      <trkpt lat="48.59693" lon="1.99335">
        <ele>110</ele>
        <time>2010-03-19T11:11:49Z</time>
      </trkpt>
      <trkpt lat="48.59695" lon="1.99335">
        <ele>110</ele>
        <time>2010-03-19T11:11:50Z</time>
      </trkpt>
      <trkpt lat="48.59698" lon="1.99333">
        <ele>110</ele>
        <time>2010-03-19T11:11:52Z</time>
      </trkpt>
      <trkpt lat="48.59699" lon="1.99333">
        <ele>110</ele>
        <time>2010-03-19T11:11:53Z</time>
      </trkpt>
      <trkpt lat="48.59701" lon="1.99332">
        <ele>110</ele>
        <time>2010-03-19T11:11:54Z</time>
      </trkpt>
      <trkpt lat="48.59703" lon="1.99332">
        <ele>109</ele>
        <time>2010-03-19T11:11:55Z</time>
      </trkpt>
      <trkpt lat="48.59705" lon="1.99331">
        <ele>109</ele>
        <time>2010-03-19T11:11:56Z</time>
      </trkpt>
      <trkpt lat="48.59706" lon="1.9933">
        <ele>109</ele>
        <time>2010-03-19T11:11:57Z</time>
      </trkpt>
      <trkpt lat="48.59708" lon="1.99329">
        <ele>108</ele>
        <time>2010-03-19T11:11:58Z</time>
      </trkpt>
      <trkpt lat="48.59709" lon="1.99329">
        <ele>108</ele>
        <time>2010-03-19T11:11:59Z</time>
      </trkpt>
      <trkpt lat="48.59711" lon="1.99329">
        <ele>108</ele>
        <time>2010-03-19T11:12:00Z</time>
      </trkpt>
      <trkpt lat="48.59712" lon="1.99329">
        <ele>108</ele>
        <time>2010-03-19T11:12:01Z</time>
      </trkpt>
      <trkpt lat="48.59714" lon="1.9933">
        <ele>108</ele>
        <time>2010-03-19T11:12:02Z</time>
      </trkpt>
      <trkpt lat="48.59716" lon="1.9933">
        <ele>107</ele>
        <time>2010-03-19T11:12:03Z</time>
      </trkpt>
      <trkpt lat="48.59717" lon="1.9933">
        <ele>107</ele>
        <time>2010-03-19T11:12:04Z</time>
      </trkpt>
      <trkpt lat="48.59719" lon="1.9933">
        <ele>107</ele>
        <time>2010-03-19T11:12:05Z</time>
      </trkpt>
      <trkpt lat="48.5972" lon="1.99331">
        <ele>107</ele>
        <time>2010-03-19T11:12:06Z</time>
      </trkpt>
      <trkpt lat="48.59722" lon="1.99331">
        <ele>107</ele>
        <time>2010-03-19T11:12:07Z</time>
      </trkpt>
      <trkpt lat="48.59723" lon="1.99331">
        <ele>107</ele>
        <time>2010-03-19T11:12:08Z</time>
      </trkpt>
      <trkpt lat="48.59725" lon="1.99331">
        <ele>107</ele>
        <time>2010-03-19T11:12:09Z</time>
      </trkpt>
      <trkpt lat="48.59726" lon="1.99332">
        <ele>107</ele>
        <time>2010-03-19T11:12:10Z</time>
      </trkpt>
      <trkpt lat="48.59728" lon="1.99332">
        <ele>107</ele>
        <time>2010-03-19T11:12:11Z</time>
      </trkpt>
      <trkpt lat="48.5973" lon="1.99332">
        <ele>107</ele>
        <time>2010-03-19T11:12:12Z</time>
      </trkpt>
      <trkpt lat="48.59732" lon="1.99332">
        <ele>107</ele>
        <time>2010-03-19T11:12:13Z</time>
      </trkpt>
      <trkpt lat="48.59733" lon="1.99332">
        <ele>107</ele>
        <time>2010-03-19T11:12:14Z</time>
      </trkpt>
      <trkpt lat="48.59735" lon="1.99332">
        <ele>107</ele>
        <time>2010-03-19T11:12:15Z</time>
      </trkpt>
      <trkpt lat="48.59736" lon="1.99333">
        <ele>107</ele>
        <time>2010-03-19T11:12:16Z</time>
      </trkpt>
      <trkpt lat="48.59738" lon="1.99333">
        <ele>107</ele>
        <time>2010-03-19T11:12:17Z</time>
      </trkpt>
      <trkpt lat="48.59739" lon="1.99333">
        <ele>107</ele>
        <time>2010-03-19T11:12:18Z</time>
      </trkpt>
      <trkpt lat="48.59741" lon="1.99333">
        <ele>107</ele>
        <time>2010-03-19T11:12:19Z</time>
      </trkpt>
      <trkpt lat="48.59742" lon="1.99333">
        <ele>107</ele>
        <time>2010-03-19T11:12:20Z</time>
      </trkpt>
      <trkpt lat="48.59744" lon="1.99332">
        <ele>107</ele>
        <time>2010-03-19T11:12:21Z</time>
      </trkpt>
      <trkpt lat="48.59746" lon="1.99332">
        <ele>107</ele>
        <time>2010-03-19T11:12:22Z</time>
      </trkpt>
      <trkpt lat="48.59747" lon="1.99333">
        <ele>107</ele>
        <time>2010-03-19T11:12:23Z</time>
      </trkpt>
      <trkpt lat="48.59749" lon="1.99333">
        <ele>107</ele>
        <time>2010-03-19T11:12:24Z</time>
      </trkpt>
      <trkpt lat="48.5975" lon="1.99334">
        <ele>107</ele>
        <time>2010-03-19T11:12:25Z</time>
      </trkpt>
      <trkpt lat="48.59752" lon="1.99334">
        <ele>107</ele>
        <time>2010-03-19T11:12:26Z</time>
      </trkpt>
      <trkpt lat="48.59753" lon="1.99334">
        <ele>107</ele>
        <time>2010-03-19T11:12:27Z</time>
      </trkpt>
      <trkpt lat="48.59755" lon="1.99334">
        <ele>107</ele>
        <time>2010-03-19T11:12:28Z</time>
      </trkpt>
      <trkpt lat="48.59756" lon="1.99334">
        <ele>107</ele>
        <time>2010-03-19T11:12:29Z</time>
      </trkpt>
      <trkpt lat="48.59758" lon="1.99335">
        <ele>107</ele>
        <time>2010-03-19T11:12:30Z</time>
      </trkpt>
      <trkpt lat="48.5976" lon="1.99335">
        <ele>107</ele>
        <time>2010-03-19T11:12:31Z</time>
      </trkpt>
      <trkpt lat="48.59761" lon="1.99335">
        <ele>107</ele>
        <time>2010-03-19T11:12:32Z</time>
      </trkpt>
      <trkpt lat="48.59763" lon="1.99335">
        <ele>107</ele>
        <time>2010-03-19T11:12:33Z</time>
      </trkpt>
      <trkpt lat="48.59765" lon="1.99336">
        <ele>107</ele>
        <time>2010-03-19T11:12:34Z</time>
      </trkpt>
      <trkpt lat="48.59767" lon="1.99336">
        <ele>107</ele>
        <time>2010-03-19T11:12:35Z</time>
      </trkpt>
      <trkpt lat="48.59769" lon="1.99336">
        <ele>107</ele>
        <time>2010-03-19T11:12:36Z</time>
      </trkpt>
      <trkpt lat="48.59771" lon="1.99336">
        <ele>107</ele>
        <time>2010-03-19T11:12:37Z</time>
      </trkpt>
      <trkpt lat="48.59772" lon="1.99337">
        <ele>107</ele>
        <time>2010-03-19T11:12:38Z</time>
      </trkpt>
      <trkpt lat="48.59774" lon="1.99337">
        <ele>107</ele>
        <time>2010-03-19T11:12:39Z</time>
      </trkpt>
      <trkpt lat="48.59775" lon="1.99337">
        <ele>107</ele>
        <time>2010-03-19T11:12:40Z</time>
      </trkpt>
      <trkpt lat="48.59777" lon="1.99338">
        <ele>107</ele>
        <time>2010-03-19T11:12:41Z</time>
      </trkpt>
      <trkpt lat="48.59778" lon="1.99338">
        <ele>107</ele>
        <time>2010-03-19T11:12:42Z</time>
      </trkpt>
      <trkpt lat="48.5978" lon="1.99338">
        <ele>107</ele>
        <time>2010-03-19T11:12:43Z</time>
      </trkpt>
      <trkpt lat="48.59782" lon="1.99338">
        <ele>107</ele>
        <time>2010-03-19T11:12:44Z</time>
      </trkpt>
      <trkpt lat="48.59783" lon="1.99338">
        <ele>107</ele>
        <time>2010-03-19T11:12:45Z</time>
      </trkpt>
      <trkpt lat="48.59785" lon="1.99338">
        <ele>107</ele>
        <time>2010-03-19T11:12:46Z</time>
      </trkpt>
      <trkpt lat="48.59787" lon="1.99339">
        <ele>107</ele>
        <time>2010-03-19T11:12:47Z</time>
      </trkpt>
      <trkpt lat="48.59789" lon="1.99339">
        <ele>107</ele>
        <time>2010-03-19T11:12:48Z</time>
      </trkpt>
      <trkpt lat="48.5979" lon="1.99339">
        <ele>106</ele>
        <time>2010-03-19T11:12:49Z</time>
      </trkpt>
      <trkpt lat="48.59791" lon="1.99339">
        <ele>106</ele>
        <time>2010-03-19T11:12:50Z</time>
      </trkpt>
      <trkpt lat="48.59793" lon="1.99338">
        <ele>106</ele>
        <time>2010-03-19T11:12:51Z</time>
      </trkpt>
      <trkpt lat="48.59794" lon="1.99338">
        <ele>106</ele>
        <time>2010-03-19T11:12:52Z</time>
      </trkpt>
      <trkpt lat="48.59796" lon="1.99339">
        <ele>106</ele>
        <time>2010-03-19T11:12:53Z</time>
      </trkpt>
      <trkpt lat="48.59797" lon="1.99339">
        <ele>106</ele>
        <time>2010-03-19T11:12:54Z</time>
      </trkpt>
      <trkpt lat="48.59799" lon="1.99339">
        <ele>106</ele>
        <time>2010-03-19T11:12:56Z</time>
      </trkpt>
      <trkpt lat="48.598" lon="1.99339">
        <ele>106</ele>
        <time>2010-03-19T11:12:57Z</time>
      </trkpt>
      <trkpt lat="48.59801" lon="1.99339">
        <ele>106</ele>
        <time>2010-03-19T11:12:58Z</time>
      </trkpt>
      <trkpt lat="48.59803" lon="1.99339">
        <ele>106</ele>
        <time>2010-03-19T11:12:59Z</time>
      </trkpt>
      <trkpt lat="48.59805" lon="1.99338">
        <ele>106</ele>
        <time>2010-03-19T11:13:00Z</time>
      </trkpt>
      <trkpt lat="48.59806" lon="1.99337">
        <ele>106</ele>
        <time>2010-03-19T11:13:01Z</time>
      </trkpt>
      <trkpt lat="48.59808" lon="1.99335">
        <ele>106</ele>
        <time>2010-03-19T11:13:02Z</time>
      </trkpt>
      <trkpt lat="48.59809" lon="1.99334">
        <ele>106</ele>
        <time>2010-03-19T11:13:03Z</time>
      </trkpt>
      <trkpt lat="48.59811" lon="1.99332">
        <ele>106</ele>
        <time>2010-03-19T11:13:04Z</time>
      </trkpt>
      <trkpt lat="48.59813" lon="1.9933">
        <ele>106</ele>
        <time>2010-03-19T11:13:05Z</time>
      </trkpt>
      <trkpt lat="48.59814" lon="1.99328">
        <ele>106</ele>
        <time>2010-03-19T11:13:06Z</time>
      </trkpt>
      <trkpt lat="48.59814" lon="1.99325">
        <ele>105</ele>
        <time>2010-03-19T11:13:07Z</time>
      </trkpt>
      <trkpt lat="48.59814" lon="1.99323">
        <ele>105</ele>
        <time>2010-03-19T11:13:08Z</time>
      </trkpt>
      <trkpt lat="48.59814" lon="1.9932">
        <ele>105</ele>
        <time>2010-03-19T11:13:09Z</time>
      </trkpt>
      <trkpt lat="48.59815" lon="1.99318">
        <ele>105</ele>
        <time>2010-03-19T11:13:10Z</time>
      </trkpt>
      <trkpt lat="48.59816" lon="1.99316">
        <ele>105</ele>
        <time>2010-03-19T11:13:11Z</time>
      </trkpt>
      <trkpt lat="48.59817" lon="1.99313">
        <ele>105</ele>
        <time>2010-03-19T11:13:12Z</time>
      </trkpt>
      <trkpt lat="48.59818" lon="1.9931">
        <ele>105</ele>
        <time>2010-03-19T11:13:13Z</time>
      </trkpt>
      <trkpt lat="48.59821" lon="1.99307">
        <ele>104</ele>
        <time>2010-03-19T11:13:14Z</time>
      </trkpt>
      <trkpt lat="48.59822" lon="1.99303">
        <ele>104</ele>
        <time>2010-03-19T11:13:15Z</time>
      </trkpt>
      <trkpt lat="48.59824" lon="1.99298">
        <ele>104</ele>
        <time>2010-03-19T11:13:16Z</time>
      </trkpt>
      <trkpt lat="48.59826" lon="1.99293">
        <ele>104</ele>
        <time>2010-03-19T11:13:17Z</time>
      </trkpt>
      <trkpt lat="48.59828" lon="1.99288">
        <ele>104</ele>
        <time>2010-03-19T11:13:18Z</time>
      </trkpt>
      <trkpt lat="48.5983" lon="1.99282">
        <ele>104</ele>
        <time>2010-03-19T11:13:19Z</time>
      </trkpt>
      <trkpt lat="48.59832" lon="1.99276">
        <ele>104</ele>
        <time>2010-03-19T11:13:20Z</time>
      </trkpt>
      <trkpt lat="48.59834" lon="1.99269">
        <ele>104</ele>
        <time>2010-03-19T11:13:21Z</time>
      </trkpt>
      <trkpt lat="48.59836" lon="1.99262">
        <ele>104</ele>
        <time>2010-03-19T11:13:22Z</time>
      </trkpt>
      <trkpt lat="48.59838" lon="1.99254">
        <ele>104</ele>
        <time>2010-03-19T11:13:23Z</time>
      </trkpt>
      <trkpt lat="48.59841" lon="1.99246">
        <ele>104</ele>
        <time>2010-03-19T11:13:24Z</time>
      </trkpt>
      <trkpt lat="48.59844" lon="1.99238">
        <ele>104</ele>
        <time>2010-03-19T11:13:25Z</time>
      </trkpt>
      <trkpt lat="48.59846" lon="1.99231">
        <ele>104</ele>
        <time>2010-03-19T11:13:26Z</time>
      </trkpt>
      <trkpt lat="48.5985" lon="1.99223">
        <ele>104</ele>
        <time>2010-03-19T11:13:27Z</time>
      </trkpt>
      <trkpt lat="48.59853" lon="1.99213">
        <ele>104</ele>
        <time>2010-03-19T11:13:28Z</time>
      </trkpt>
      <trkpt lat="48.59857" lon="1.99204">
        <ele>104</ele>
        <time>2010-03-19T11:13:29Z</time>
      </trkpt>
      <trkpt lat="48.5986" lon="1.99195">
        <ele>104</ele>
        <time>2010-03-19T11:13:30Z</time>
      </trkpt>
      <trkpt lat="48.59863" lon="1.99187">
        <ele>104</ele>
        <time>2010-03-19T11:13:31Z</time>
      </trkpt>
      <trkpt lat="48.59865" lon="1.99178">
        <ele>104</ele>
        <time>2010-03-19T11:13:32Z</time>
      </trkpt>
      <trkpt lat="48.59868" lon="1.9917">
        <ele>104</ele>
        <time>2010-03-19T11:13:33Z</time>
      </trkpt>
      <trkpt lat="48.59872" lon="1.99162">
        <ele>104</ele>
        <time>2010-03-19T11:13:34Z</time>
      </trkpt>
      <trkpt lat="48.59875" lon="1.99153">
        <ele>104</ele>
        <time>2010-03-19T11:13:35Z</time>
      </trkpt>
      <trkpt lat="48.59879" lon="1.99145">
        <ele>104</ele>
        <time>2010-03-19T11:13:36Z</time>
      </trkpt>
      <trkpt lat="48.59881" lon="1.99136">
        <ele>104</ele>
        <time>2010-03-19T11:13:37Z</time>
      </trkpt>
      <trkpt lat="48.59885" lon="1.99128">
        <ele>104</ele>
        <time>2010-03-19T11:13:38Z</time>
      </trkpt>
      <trkpt lat="48.59888" lon="1.9912">
        <ele>104</ele>
        <time>2010-03-19T11:13:39Z</time>
      </trkpt>
      <trkpt lat="48.59892" lon="1.99112">
        <ele>104</ele>
        <time>2010-03-19T11:13:40Z</time>
      </trkpt>
      <trkpt lat="48.59896" lon="1.99104">
        <ele>104</ele>
        <time>2010-03-19T11:13:41Z</time>
      </trkpt>
      <trkpt lat="48.599" lon="1.99097">
        <ele>104</ele>
        <time>2010-03-19T11:13:42Z</time>
      </trkpt>
      <trkpt lat="48.59904" lon="1.9909">
        <ele>104</ele>
        <time>2010-03-19T11:13:43Z</time>
      </trkpt>
      <trkpt lat="48.59908" lon="1.99083">
        <ele>104</ele>
        <time>2010-03-19T11:13:44Z</time>
      </trkpt>
      <trkpt lat="48.59912" lon="1.99076">
        <ele>104</ele>
        <time>2010-03-19T11:13:45Z</time>
      </trkpt>
      <trkpt lat="48.59917" lon="1.99068">
        <ele>104</ele>
        <time>2010-03-19T11:13:46Z</time>
      </trkpt>
      <trkpt lat="48.59922" lon="1.99061">
        <ele>104</ele>
        <time>2010-03-19T11:13:47Z</time>
      </trkpt>
      <trkpt lat="48.59927" lon="1.99053">
        <ele>104</ele>
        <time>2010-03-19T11:13:48Z</time>
      </trkpt>
      <trkpt lat="48.59932" lon="1.99044">
        <ele>104</ele>
        <time>2010-03-19T11:13:49Z</time>
      </trkpt>
      <trkpt lat="48.59937" lon="1.99033">
        <ele>104</ele>
        <time>2010-03-19T11:13:50Z</time>
      </trkpt>
      <trkpt lat="48.59941" lon="1.99024">
        <ele>104</ele>
        <time>2010-03-19T11:13:51Z</time>
      </trkpt>
      <trkpt lat="48.59945" lon="1.99016">
        <ele>104</ele>
        <time>2010-03-19T11:13:52Z</time>
      </trkpt>
      <trkpt lat="48.59949" lon="1.99007">
        <ele>104</ele>
        <time>2010-03-19T11:13:53Z</time>
      </trkpt>
      <trkpt lat="48.59955" lon="1.98998">
        <ele>104</ele>
        <time>2010-03-19T11:13:54Z</time>
      </trkpt>
      <trkpt lat="48.59959" lon="1.9899">
        <ele>104</ele>
        <time>2010-03-19T11:13:55Z</time>
      </trkpt>
      <trkpt lat="48.59964" lon="1.98982">
        <ele>104</ele>
        <time>2010-03-19T11:13:56Z</time>
      </trkpt>
      <trkpt lat="48.59968" lon="1.98974">
        <ele>104</ele>
        <time>2010-03-19T11:13:57Z</time>
      </trkpt>
      <trkpt lat="48.59972" lon="1.98966">
        <ele>104</ele>
        <time>2010-03-19T11:13:58Z</time>
      </trkpt>
      <trkpt lat="48.59977" lon="1.98957">
        <ele>104</ele>
        <time>2010-03-19T11:13:59Z</time>
      </trkpt>
      <trkpt lat="48.5998" lon="1.98949">
        <ele>104</ele>
        <time>2010-03-19T11:14:00Z</time>
      </trkpt>
      <trkpt lat="48.59985" lon="1.98941">
        <ele>104</ele>
        <time>2010-03-19T11:14:01Z</time>
      </trkpt>
      <trkpt lat="48.59989" lon="1.98932">
        <ele>104</ele>
        <time>2010-03-19T11:14:02Z</time>
      </trkpt>
      <trkpt lat="48.59994" lon="1.98925">
        <ele>104</ele>
        <time>2010-03-19T11:14:03Z</time>
      </trkpt>
      <trkpt lat="48.59999" lon="1.98917">
        <ele>104</ele>
        <time>2010-03-19T11:14:04Z</time>
      </trkpt>
      <trkpt lat="48.60004" lon="1.9891">
        <ele>104</ele>
        <time>2010-03-19T11:14:05Z</time>
      </trkpt>
      <trkpt lat="48.60009" lon="1.98902">
        <ele>104</ele>
        <time>2010-03-19T11:14:06Z</time>
      </trkpt>
      <trkpt lat="48.60013" lon="1.98894">
        <ele>104</ele>
        <time>2010-03-19T11:14:07Z</time>
      </trkpt>
      <trkpt lat="48.60018" lon="1.98887">
        <ele>104</ele>
        <time>2010-03-19T11:14:08Z</time>
      </trkpt>
      <trkpt lat="48.60023" lon="1.98879">
        <ele>103</ele>
        <time>2010-03-19T11:14:09Z</time>
      </trkpt>
      <trkpt lat="48.60027" lon="1.9887">
        <ele>103</ele>
        <time>2010-03-19T11:14:10Z</time>
      </trkpt>
      <trkpt lat="48.60032" lon="1.98862">
        <ele>103</ele>
        <time>2010-03-19T11:14:11Z</time>
      </trkpt>
      <trkpt lat="48.60036" lon="1.98853">
        <ele>102</ele>
        <time>2010-03-19T11:14:12Z</time>
      </trkpt>
      <trkpt lat="48.60041" lon="1.98844">
        <ele>102</ele>
        <time>2010-03-19T11:14:13Z</time>
      </trkpt>
      <trkpt lat="48.60046" lon="1.98835">
        <ele>102</ele>
        <time>2010-03-19T11:14:14Z</time>
      </trkpt>
      <trkpt lat="48.60051" lon="1.98827">
        <ele>102</ele>
        <time>2010-03-19T11:14:15Z</time>
      </trkpt>
      <trkpt lat="48.60055" lon="1.98818">
        <ele>102</ele>
        <time>2010-03-19T11:14:16Z</time>
      </trkpt>
      <trkpt lat="48.6006" lon="1.98809">
        <ele>101</ele>
        <time>2010-03-19T11:14:17Z</time>
      </trkpt>
      <trkpt lat="48.60064" lon="1.98799">
        <ele>101</ele>
        <time>2010-03-19T11:14:18Z</time>
      </trkpt>
      <trkpt lat="48.60069" lon="1.9879">
        <ele>101</ele>
        <time>2010-03-19T11:14:19Z</time>
      </trkpt>
      <trkpt lat="48.60074" lon="1.98781">
        <ele>101</ele>
        <time>2010-03-19T11:14:20Z</time>
      </trkpt>
      <trkpt lat="48.6008" lon="1.98772">
        <ele>101</ele>
        <time>2010-03-19T11:14:21Z</time>
      </trkpt>
      <trkpt lat="48.60085" lon="1.98764">
        <ele>101</ele>
        <time>2010-03-19T11:14:22Z</time>
      </trkpt>
      <trkpt lat="48.60089" lon="1.98755">
        <ele>101</ele>
        <time>2010-03-19T11:14:23Z</time>
      </trkpt>
      <trkpt lat="48.60094" lon="1.98746">
        <ele>101</ele>
        <time>2010-03-19T11:14:24Z</time>
      </trkpt>
      <trkpt lat="48.60098" lon="1.98736">
        <ele>101</ele>
        <time>2010-03-19T11:14:25Z</time>
      </trkpt>
      <trkpt lat="48.60102" lon="1.98728">
        <ele>101</ele>
        <time>2010-03-19T11:14:26Z</time>
      </trkpt>
      <trkpt lat="48.60107" lon="1.9872">
        <ele>101</ele>
        <time>2010-03-19T11:14:27Z</time>
      </trkpt>
      <trkpt lat="48.60111" lon="1.98711">
        <ele>101</ele>
        <time>2010-03-19T11:14:28Z</time>
      </trkpt>
      <trkpt lat="48.60114" lon="1.98703">
        <ele>101</ele>
        <time>2010-03-19T11:14:29Z</time>
      </trkpt>
      <trkpt lat="48.60118" lon="1.98695">
        <ele>101</ele>
        <time>2010-03-19T11:14:30Z</time>
      </trkpt>
      <trkpt lat="48.60123" lon="1.98687">
        <ele>101</ele>
        <time>2010-03-19T11:14:31Z</time>
      </trkpt>
      <trkpt lat="48.60129" lon="1.98679">
        <ele>101</ele>
        <time>2010-03-19T11:14:32Z</time>
      </trkpt>
      <trkpt lat="48.60135" lon="1.98673">
        <ele>101</ele>
        <time>2010-03-19T11:14:33Z</time>
      </trkpt>
      <trkpt lat="48.60141" lon="1.98667">
        <ele>101</ele>
        <time>2010-03-19T11:14:34Z</time>
      </trkpt>
      <trkpt lat="48.60147" lon="1.98661">
        <ele>101</ele>
        <time>2010-03-19T11:14:35Z</time>
      </trkpt>
      <trkpt lat="48.60152" lon="1.98655">
        <ele>101</ele>
        <time>2010-03-19T11:14:36Z</time>
      </trkpt>
      <trkpt lat="48.60158" lon="1.98649">
        <ele>101</ele>
        <time>2010-03-19T11:14:37Z</time>
      </trkpt>
      <trkpt lat="48.60163" lon="1.98644">
        <ele>101</ele>
        <time>2010-03-19T11:14:38Z</time>
      </trkpt>
      <trkpt lat="48.60168" lon="1.98638">
        <ele>101</ele>
        <time>2010-03-19T11:14:39Z</time>
      </trkpt>
      <trkpt lat="48.60175" lon="1.98632">
        <ele>101</ele>
        <time>2010-03-19T11:14:40Z</time>
      </trkpt>
      <trkpt lat="48.60181" lon="1.98626">
        <ele>101</ele>
        <time>2010-03-19T11:14:41Z</time>
      </trkpt>
      <trkpt lat="48.60188" lon="1.98621">
        <ele>101</ele>
        <time>2010-03-19T11:14:42Z</time>
      </trkpt>
      <trkpt lat="48.60194" lon="1.98615">
        <ele>101</ele>
        <time>2010-03-19T11:14:43Z</time>
      </trkpt>
      <trkpt lat="48.60201" lon="1.98609">
        <ele>101</ele>
        <time>2010-03-19T11:14:44Z</time>
      </trkpt>
      <trkpt lat="48.60207" lon="1.98603">
        <ele>101</ele>
        <time>2010-03-19T11:14:45Z</time>
      </trkpt>
      <trkpt lat="48.60214" lon="1.98596">
        <ele>101</ele>
        <time>2010-03-19T11:14:46Z</time>
      </trkpt>
      <trkpt lat="48.60221" lon="1.9859">
        <ele>101</ele>
        <time>2010-03-19T11:14:47Z</time>
      </trkpt>
      <trkpt lat="48.60228" lon="1.98583">
        <ele>100</ele>
        <time>2010-03-19T11:14:48Z</time>
      </trkpt>
      <trkpt lat="48.60235" lon="1.98575">
        <ele>100</ele>
        <time>2010-03-19T11:14:49Z</time>
      </trkpt>
      <trkpt lat="48.60241" lon="1.98568">
        <ele>100</ele>
        <time>2010-03-19T11:14:50Z</time>
      </trkpt>
      <trkpt lat="48.60247" lon="1.98562">
        <ele>99</ele>
        <time>2010-03-19T11:14:51Z</time>
      </trkpt>
      <trkpt lat="48.60254" lon="1.98555">
        <ele>99</ele>
        <time>2010-03-19T11:14:52Z</time>
      </trkpt>
      <trkpt lat="48.6026" lon="1.98548">
        <ele>99</ele>
        <time>2010-03-19T11:14:53Z</time>
      </trkpt>
      <trkpt lat="48.60267" lon="1.98541">
        <ele>99</ele>
        <time>2010-03-19T11:14:54Z</time>
      </trkpt>
      <trkpt lat="48.60273" lon="1.98533">
        <ele>99</ele>
        <time>2010-03-19T11:14:55Z</time>
      </trkpt>
      <trkpt lat="48.60278" lon="1.98525">
        <ele>99</ele>
        <time>2010-03-19T11:14:56Z</time>
      </trkpt>
      <trkpt lat="48.60283" lon="1.98517">
        <ele>99</ele>
        <time>2010-03-19T11:14:57Z</time>
      </trkpt>
      <trkpt lat="48.60288" lon="1.98508">
        <ele>99</ele>
        <time>2010-03-19T11:14:58Z</time>
      </trkpt>
      <trkpt lat="48.60292" lon="1.98499">
        <ele>99</ele>
        <time>2010-03-19T11:14:59Z</time>
      </trkpt>
      <trkpt lat="48.60296" lon="1.9849">
        <ele>99</ele>
        <time>2010-03-19T11:15:00Z</time>
      </trkpt>
      <trkpt lat="48.603" lon="1.98482">
        <ele>99</ele>
        <time>2010-03-19T11:15:01Z</time>
      </trkpt>
      <trkpt lat="48.60305" lon="1.98474">
        <ele>99</ele>
        <time>2010-03-19T11:15:02Z</time>
      </trkpt>
      <trkpt lat="48.60309" lon="1.98466">
        <ele>99</ele>
        <time>2010-03-19T11:15:03Z</time>
      </trkpt>
      <trkpt lat="48.60313" lon="1.98459">
        <ele>99</ele>
        <time>2010-03-19T11:15:04Z</time>
      </trkpt>
      <trkpt lat="48.60319" lon="1.98454">
        <ele>98</ele>
        <time>2010-03-19T11:15:05Z</time>
      </trkpt>
      <trkpt lat="48.60325" lon="1.98449">
        <ele>98</ele>
        <time>2010-03-19T11:15:06Z</time>
      </trkpt>
      <trkpt lat="48.60331" lon="1.98445">
        <ele>98</ele>
        <time>2010-03-19T11:15:07Z</time>
      </trkpt>
      <trkpt lat="48.60336" lon="1.98439">
        <ele>98</ele>
        <time>2010-03-19T11:15:08Z</time>
      </trkpt>
      <trkpt lat="48.60341" lon="1.98434">
        <ele>98</ele>
        <time>2010-03-19T11:15:09Z</time>
      </trkpt>
      <trkpt lat="48.60346" lon="1.98427">
        <ele>98</ele>
        <time>2010-03-19T11:15:10Z</time>
      </trkpt>
      <trkpt lat="48.60351" lon="1.98422">
        <ele>98</ele>
        <time>2010-03-19T11:15:11Z</time>
      </trkpt>
      <trkpt lat="48.60357" lon="1.98416">
        <ele>97</ele>
        <time>2010-03-19T11:15:12Z</time>
      </trkpt>
      <trkpt lat="48.60362" lon="1.98412">
        <ele>97</ele>
        <time>2010-03-19T11:15:13Z</time>
      </trkpt>
      <trkpt lat="48.60368" lon="1.98408">
        <ele>97</ele>
        <time>2010-03-19T11:15:14Z</time>
      </trkpt>
      <trkpt lat="48.60375" lon="1.98404">
        <ele>96</ele>
        <time>2010-03-19T11:15:15Z</time>
      </trkpt>
      <trkpt lat="48.60382" lon="1.98401">
        <ele>96</ele>
        <time>2010-03-19T11:15:16Z</time>
      </trkpt>
      <trkpt lat="48.60389" lon="1.98398">
        <ele>96</ele>
        <time>2010-03-19T11:15:17Z</time>
      </trkpt>
      <trkpt lat="48.60396" lon="1.98395">
        <ele>95</ele>
        <time>2010-03-19T11:15:18Z</time>
      </trkpt>
      <trkpt lat="48.60402" lon="1.98392">
        <ele>95</ele>
        <time>2010-03-19T11:15:19Z</time>
      </trkpt>
      <trkpt lat="48.60408" lon="1.98389">
        <ele>94</ele>
        <time>2010-03-19T11:15:20Z</time>
      </trkpt>
      <trkpt lat="48.60415" lon="1.98386">
        <ele>94</ele>
        <time>2010-03-19T11:15:21Z</time>
      </trkpt>
      <trkpt lat="48.60423" lon="1.98383">
        <ele>94</ele>
        <time>2010-03-19T11:15:22Z</time>
      </trkpt>
      <trkpt lat="48.60429" lon="1.9838">
        <ele>93</ele>
        <time>2010-03-19T11:15:23Z</time>
      </trkpt>
      <trkpt lat="48.60436" lon="1.98377">
        <ele>93</ele>
        <time>2010-03-19T11:15:24Z</time>
      </trkpt>
      <trkpt lat="48.60444" lon="1.98374">
        <ele>92</ele>
        <time>2010-03-19T11:15:25Z</time>
      </trkpt>
      <trkpt lat="48.60452" lon="1.98372">
        <ele>92</ele>
        <time>2010-03-19T11:15:26Z</time>
      </trkpt>
      <trkpt lat="48.6046" lon="1.9837">
        <ele>91</ele>
        <time>2010-03-19T11:15:27Z</time>
      </trkpt>
      <trkpt lat="48.60468" lon="1.98368">
        <ele>91</ele>
        <time>2010-03-19T11:15:28Z</time>
      </trkpt>
      <trkpt lat="48.60475" lon="1.98366">
        <ele>91</ele>
        <time>2010-03-19T11:15:29Z</time>
      </trkpt>
      <trkpt lat="48.60482" lon="1.98365">
        <ele>91</ele>
        <time>2010-03-19T11:15:30Z</time>
      </trkpt>
      <trkpt lat="48.60489" lon="1.98363">
        <ele>91</ele>
        <time>2010-03-19T11:15:31Z</time>
      </trkpt>
      <trkpt lat="48.60496" lon="1.98363">
        <ele>91</ele>
        <time>2010-03-19T11:15:32Z</time>
      </trkpt>
      <trkpt lat="48.60501" lon="1.98362">
        <ele>91</ele>
        <time>2010-03-19T11:15:33Z</time>
      </trkpt>
      <trkpt lat="48.60508" lon="1.98362">
        <ele>91</ele>
        <time>2010-03-19T11:15:34Z</time>
      </trkpt>
      <trkpt lat="48.60515" lon="1.9836">
        <ele>91</ele>
        <time>2010-03-19T11:15:35Z</time>
      </trkpt>
      <trkpt lat="48.60522" lon="1.98359">
        <ele>91</ele>
        <time>2010-03-19T11:15:36Z</time>
      </trkpt>
      <trkpt lat="48.60529" lon="1.98358">
        <ele>91</ele>
        <time>2010-03-19T11:15:37Z</time>
      </trkpt>
      <trkpt lat="48.60535" lon="1.98356">
        <ele>91</ele>
        <time>2010-03-19T11:15:38Z</time>
      </trkpt>
      <trkpt lat="48.60542" lon="1.98354">
        <ele>91</ele>
        <time>2010-03-19T11:15:39Z</time>
      </trkpt>
      <trkpt lat="48.60548" lon="1.98351">
        <ele>91</ele>
        <time>2010-03-19T11:15:40Z</time>
      </trkpt>
      <trkpt lat="48.60555" lon="1.98347">
        <ele>91</ele>
        <time>2010-03-19T11:15:41Z</time>
      </trkpt>
      <trkpt lat="48.60561" lon="1.98344">
        <ele>91</ele>
        <time>2010-03-19T11:15:42Z</time>
      </trkpt>
      <trkpt lat="48.60568" lon="1.98341">
        <ele>91</ele>
        <time>2010-03-19T11:15:43Z</time>
      </trkpt>
      <trkpt lat="48.60575" lon="1.98339">
        <ele>91</ele>
        <time>2010-03-19T11:15:44Z</time>
      </trkpt>
      <trkpt lat="48.60582" lon="1.98337">
        <ele>91</ele>
        <time>2010-03-19T11:15:45Z</time>
      </trkpt>
      <trkpt lat="48.60589" lon="1.98335">
        <ele>91</ele>
        <time>2010-03-19T11:15:46Z</time>
      </trkpt>
      <trkpt lat="48.60596" lon="1.98331">
        <ele>91</ele>
        <time>2010-03-19T11:15:47Z</time>
      </trkpt>
      <trkpt lat="48.60603" lon="1.98329">
        <ele>91</ele>
        <time>2010-03-19T11:15:48Z</time>
      </trkpt>
      <trkpt lat="48.60609" lon="1.98326">
        <ele>91</ele>
        <time>2010-03-19T11:15:49Z</time>
      </trkpt>
      <trkpt lat="48.60615" lon="1.98324">
        <ele>91</ele>
        <time>2010-03-19T11:15:50Z</time>
      </trkpt>
      <trkpt lat="48.60622" lon="1.98321">
        <ele>91</ele>
        <time>2010-03-19T11:15:51Z</time>
      </trkpt>
      <trkpt lat="48.60628" lon="1.98319">
        <ele>91</ele>
        <time>2010-03-19T11:15:52Z</time>
      </trkpt>
      <trkpt lat="48.60633" lon="1.98316">
        <ele>91</ele>
        <time>2010-03-19T11:15:53Z</time>
      </trkpt>
      <trkpt lat="48.6064" lon="1.98313">
        <ele>91</ele>
        <time>2010-03-19T11:15:54Z</time>
      </trkpt>
      <trkpt lat="48.60646" lon="1.9831">
        <ele>91</ele>
        <time>2010-03-19T11:15:55Z</time>
      </trkpt>
      <trkpt lat="48.60651" lon="1.98308">
        <ele>91</ele>
        <time>2010-03-19T11:15:56Z</time>
      </trkpt>
      <trkpt lat="48.60656" lon="1.98306">
        <ele>91</ele>
        <time>2010-03-19T11:15:57Z</time>
      </trkpt>
      <trkpt lat="48.60661" lon="1.98303">
        <ele>91</ele>
        <time>2010-03-19T11:15:58Z</time>
      </trkpt>
      <trkpt lat="48.60665" lon="1.98302">
        <ele>91</ele>
        <time>2010-03-19T11:15:59Z</time>
      </trkpt>
      <trkpt lat="48.6067" lon="1.983">
        <ele>91</ele>
        <time>2010-03-19T11:16:00Z</time>
      </trkpt>
      <trkpt lat="48.60674" lon="1.98299">
        <ele>91</ele>
        <time>2010-03-19T11:16:01Z</time>
      </trkpt>
      <trkpt lat="48.60678" lon="1.98297">
        <ele>91</ele>
        <time>2010-03-19T11:16:02Z</time>
      </trkpt>
      <trkpt lat="48.60681" lon="1.98296">
        <ele>91</ele>
        <time>2010-03-19T11:16:03Z</time>
      </trkpt>
      <trkpt lat="48.60684" lon="1.98295">
        <ele>91</ele>
        <time>2010-03-19T11:16:04Z</time>
      </trkpt>
      <trkpt lat="48.60687" lon="1.98294">
        <ele>91</ele>
        <time>2010-03-19T11:16:05Z</time>
      </trkpt>
      <trkpt lat="48.60691" lon="1.98293">
        <ele>91</ele>
        <time>2010-03-19T11:16:06Z</time>
      </trkpt>
      <trkpt lat="48.60695" lon="1.98292">
        <ele>91</ele>
        <time>2010-03-19T11:16:07Z</time>
      </trkpt>
      <trkpt lat="48.60697" lon="1.98291">
        <ele>91</ele>
        <time>2010-03-19T11:16:08Z</time>
      </trkpt>
      <trkpt lat="48.607" lon="1.9829">
        <ele>91</ele>
        <time>2010-03-19T11:16:09Z</time>
      </trkpt>
      <trkpt lat="48.60702" lon="1.9829">
        <ele>91</ele>
        <time>2010-03-19T11:16:10Z</time>
      </trkpt>
      <trkpt lat="48.60704" lon="1.98289">
        <ele>91</ele>
        <time>2010-03-19T11:16:11Z</time>
      </trkpt>
      <trkpt lat="48.60706" lon="1.98288">
        <ele>91</ele>
        <time>2010-03-19T11:16:12Z</time>
      </trkpt>
      <trkpt lat="48.60708" lon="1.98288">
        <ele>91</ele>
        <time>2010-03-19T11:16:13Z</time>
      </trkpt>
      <trkpt lat="48.6071" lon="1.98288">
        <ele>91</ele>
        <time>2010-03-19T11:16:14Z</time>
      </trkpt>
      <trkpt lat="48.60712" lon="1.98289">
        <ele>91</ele>
        <time>2010-03-19T11:16:15Z</time>
      </trkpt>
      <trkpt lat="48.60714" lon="1.9829">
        <ele>91</ele>
        <time>2010-03-19T11:16:17Z</time>
      </trkpt>
      <trkpt lat="48.60715" lon="1.9829">
        <ele>91</ele>
        <time>2010-03-19T11:16:18Z</time>
      </trkpt>
      <trkpt lat="48.60716" lon="1.9829">
        <ele>91</ele>
        <time>2010-03-19T11:16:19Z</time>
      </trkpt>
      <trkpt lat="48.60717" lon="1.9829">
        <ele>91</ele>
        <time>2010-03-19T11:16:20Z</time>
      </trkpt>
      <trkpt lat="48.60719" lon="1.98289">
        <ele>91</ele>
        <time>2010-03-19T11:16:21Z</time>
      </trkpt>
      <trkpt lat="48.60721" lon="1.98287">
        <ele>91</ele>
        <time>2010-03-19T11:16:22Z</time>
      </trkpt>
      <trkpt lat="48.60723" lon="1.98287">
        <ele>91</ele>
        <time>2010-03-19T11:16:23Z</time>
      </trkpt>
      <trkpt lat="48.60725" lon="1.98286">
        <ele>91</ele>
        <time>2010-03-19T11:16:24Z</time>
      </trkpt>
      <trkpt lat="48.60726" lon="1.98286">
        <ele>91</ele>
        <time>2010-03-19T11:16:25Z</time>
      </trkpt>
      <trkpt lat="48.60728" lon="1.98285">
        <ele>91</ele>
        <time>2010-03-19T11:16:26Z</time>
      </trkpt>
      <trkpt lat="48.60729" lon="1.98283">
        <ele>91</ele>
        <time>2010-03-19T11:16:27Z</time>
      </trkpt>
      <trkpt lat="48.6073" lon="1.9828">
        <ele>92</ele>
        <time>2010-03-19T11:16:29Z</time>
      </trkpt>
      <trkpt lat="48.60732" lon="1.98278">
        <ele>92</ele>
        <time>2010-03-19T11:16:30Z</time>
      </trkpt>
      <trkpt lat="48.60733" lon="1.98276">
        <ele>92</ele>
        <time>2010-03-19T11:16:31Z</time>
      </trkpt>
      <trkpt lat="48.60733" lon="1.98274">
        <ele>92</ele>
        <time>2010-03-19T11:16:32Z</time>
      </trkpt>
      <trkpt lat="48.60735" lon="1.98272">
        <ele>93</ele>
        <time>2010-03-19T11:16:33Z</time>
      </trkpt>
      <trkpt lat="48.60735" lon="1.9827">
        <ele>93</ele>
        <time>2010-03-19T11:16:34Z</time>
      </trkpt>
      <trkpt lat="48.60736" lon="1.98268">
        <ele>93</ele>
        <time>2010-03-19T11:16:35Z</time>
      </trkpt>
      <trkpt lat="48.60737" lon="1.98266">
        <ele>93</ele>
        <time>2010-03-19T11:16:36Z</time>
      </trkpt>
      <trkpt lat="48.60738" lon="1.98264">
        <ele>93</ele>
        <time>2010-03-19T11:16:37Z</time>
      </trkpt>
      <trkpt lat="48.60738" lon="1.98262">
        <ele>93</ele>
        <time>2010-03-19T11:16:38Z</time>
      </trkpt>
      <trkpt lat="48.60739" lon="1.9826">
        <ele>93</ele>
        <time>2010-03-19T11:16:39Z</time>
      </trkpt>
      <trkpt lat="48.6074" lon="1.98258">
        <ele>93</ele>
        <time>2010-03-19T11:16:40Z</time>
      </trkpt>
      <trkpt lat="48.60739" lon="1.98256">
        <ele>93</ele>
        <time>2010-03-19T11:16:41Z</time>
      </trkpt>
      <trkpt lat="48.60739" lon="1.98254">
        <ele>93</ele>
        <time>2010-03-19T11:16:42Z</time>
      </trkpt>
      <trkpt lat="48.60739" lon="1.98251">
        <ele>93</ele>
        <time>2010-03-19T11:16:43Z</time>
      </trkpt>
      <trkpt lat="48.60739" lon="1.98249">
        <ele>93</ele>
        <time>2010-03-19T11:16:44Z</time>
      </trkpt>
      <trkpt lat="48.6074" lon="1.98247">
        <ele>93</ele>
        <time>2010-03-19T11:16:45Z</time>
      </trkpt>
      <trkpt lat="48.60743" lon="1.98244">
        <ele>93</ele>
        <time>2010-03-19T11:16:46Z</time>
      </trkpt>
      <trkpt lat="48.60745" lon="1.9824">
        <ele>93</ele>
        <time>2010-03-19T11:16:47Z</time>
      </trkpt>
      <trkpt lat="48.60747" lon="1.98235">
        <ele>93</ele>
        <time>2010-03-19T11:16:48Z</time>
      </trkpt>
      <trkpt lat="48.60749" lon="1.98229">
        <ele>93</ele>
        <time>2010-03-19T11:16:49Z</time>
      </trkpt>
      <trkpt lat="48.60751" lon="1.98223">
        <ele>93</ele>
        <time>2010-03-19T11:16:50Z</time>
      </trkpt>
      <trkpt lat="48.60753" lon="1.98217">
        <ele>93</ele>
        <time>2010-03-19T11:16:51Z</time>
      </trkpt>
      <trkpt lat="48.60754" lon="1.9821">
        <ele>94</ele>
        <time>2010-03-19T11:16:52Z</time>
      </trkpt>
      <trkpt lat="48.60756" lon="1.98204">
        <ele>95</ele>
        <time>2010-03-19T11:16:53Z</time>
      </trkpt>
      <trkpt lat="48.60757" lon="1.98198">
        <ele>96</ele>
        <time>2010-03-19T11:16:54Z</time>
      </trkpt>
      <trkpt lat="48.60759" lon="1.98193">
        <ele>96</ele>
        <time>2010-03-19T11:16:55Z</time>
      </trkpt>
      <trkpt lat="48.60761" lon="1.98186">
        <ele>97</ele>
        <time>2010-03-19T11:16:56Z</time>
      </trkpt>
      <trkpt lat="48.60762" lon="1.9818">
        <ele>97</ele>
        <time>2010-03-19T11:16:57Z</time>
      </trkpt>
      <trkpt lat="48.60764" lon="1.98174">
        <ele>98</ele>
        <time>2010-03-19T11:16:58Z</time>
      </trkpt>
      <trkpt lat="48.60765" lon="1.98168">
        <ele>98</ele>
        <time>2010-03-19T11:16:59Z</time>
      </trkpt>
      <trkpt lat="48.60766" lon="1.98162">
        <ele>98</ele>
        <time>2010-03-19T11:17:00Z</time>
      </trkpt>
      <trkpt lat="48.60768" lon="1.98156">
        <ele>99</ele>
        <time>2010-03-19T11:17:01Z</time>
      </trkpt>
      <trkpt lat="48.60769" lon="1.98151">
        <ele>99</ele>
        <time>2010-03-19T11:17:02Z</time>
      </trkpt>
      <trkpt lat="48.6077" lon="1.98146">
        <ele>100</ele>
        <time>2010-03-19T11:17:03Z</time>
      </trkpt>
      <trkpt lat="48.6077" lon="1.98141">
        <ele>100</ele>
        <time>2010-03-19T11:17:04Z</time>
      </trkpt>
      <trkpt lat="48.60771" lon="1.98135">
        <ele>101</ele>
        <time>2010-03-19T11:17:05Z</time>
      </trkpt>
      <trkpt lat="48.60772" lon="1.9813">
        <ele>102</ele>
        <time>2010-03-19T11:17:06Z</time>
      </trkpt>
      <trkpt lat="48.60773" lon="1.98124">
        <ele>102</ele>
        <time>2010-03-19T11:17:07Z</time>
      </trkpt>
      <trkpt lat="48.60774" lon="1.98118">
        <ele>103</ele>
        <time>2010-03-19T11:17:08Z</time>
      </trkpt>
      <trkpt lat="48.60775" lon="1.98111">
        <ele>104</ele>
        <time>2010-03-19T11:17:09Z</time>
      </trkpt>
      <trkpt lat="48.60777" lon="1.98106">
        <ele>104</ele>
        <time>2010-03-19T11:17:10Z</time>
      </trkpt>
      <trkpt lat="48.60778" lon="1.981">
        <ele>105</ele>
        <time>2010-03-19T11:17:11Z</time>
      </trkpt>
      <trkpt lat="48.60779" lon="1.98094">
        <ele>105</ele>
        <time>2010-03-19T11:17:12Z</time>
      </trkpt>
      <trkpt lat="48.6078" lon="1.98088">
        <ele>105</ele>
        <time>2010-03-19T11:17:13Z</time>
      </trkpt>
      <trkpt lat="48.60781" lon="1.98082">
        <ele>105</ele>
        <time>2010-03-19T11:17:14Z</time>
      </trkpt>
      <trkpt lat="48.60782" lon="1.98075">
        <ele>105</ele>
        <time>2010-03-19T11:17:15Z</time>
      </trkpt>
      <trkpt lat="48.60784" lon="1.9807">
        <ele>105</ele>
        <time>2010-03-19T11:17:16Z</time>
      </trkpt>
      <trkpt lat="48.60784" lon="1.98065">
        <ele>106</ele>
        <time>2010-03-19T11:17:17Z</time>
      </trkpt>
      <trkpt lat="48.60785" lon="1.9806">
        <ele>106</ele>
        <time>2010-03-19T11:17:18Z</time>
      </trkpt>
      <trkpt lat="48.60786" lon="1.98054">
        <ele>107</ele>
        <time>2010-03-19T11:17:19Z</time>
      </trkpt>
      <trkpt lat="48.60788" lon="1.98049">
        <ele>107</ele>
        <time>2010-03-19T11:17:20Z</time>
      </trkpt>
      <trkpt lat="48.60789" lon="1.98043">
        <ele>107</ele>
        <time>2010-03-19T11:17:21Z</time>
      </trkpt>
      <trkpt lat="48.60791" lon="1.98038">
        <ele>108</ele>
        <time>2010-03-19T11:17:22Z</time>
      </trkpt>
      <trkpt lat="48.60793" lon="1.98034">
        <ele>108</ele>
        <time>2010-03-19T11:17:23Z</time>
      </trkpt>
      <trkpt lat="48.60795" lon="1.98029">
        <ele>108</ele>
        <time>2010-03-19T11:17:24Z</time>
      </trkpt>
      <trkpt lat="48.60796" lon="1.98023">
        <ele>108</ele>
        <time>2010-03-19T11:17:25Z</time>
      </trkpt>
      <trkpt lat="48.60798" lon="1.98018">
        <ele>108</ele>
        <time>2010-03-19T11:17:26Z</time>
      </trkpt>
      <trkpt lat="48.60799" lon="1.98012">
        <ele>108</ele>
        <time>2010-03-19T11:17:27Z</time>
      </trkpt>
      <trkpt lat="48.60801" lon="1.98007">
        <ele>108</ele>
        <time>2010-03-19T11:17:28Z</time>
      </trkpt>
      <trkpt lat="48.60802" lon="1.98001">
        <ele>108</ele>
        <time>2010-03-19T11:17:29Z</time>
      </trkpt>
      <trkpt lat="48.60804" lon="1.97996">
        <ele>108</ele>
        <time>2010-03-19T11:17:30Z</time>
      </trkpt>
      <trkpt lat="48.60805" lon="1.97991">
        <ele>108</ele>
        <time>2010-03-19T11:17:31Z</time>
      </trkpt>
      <trkpt lat="48.60806" lon="1.97985">
        <ele>108</ele>
        <time>2010-03-19T11:17:32Z</time>
      </trkpt>
      <trkpt lat="48.60806" lon="1.9798">
        <ele>108</ele>
        <time>2010-03-19T11:17:33Z</time>
      </trkpt>
      <trkpt lat="48.60807" lon="1.97974">
        <ele>108</ele>
        <time>2010-03-19T11:17:34Z</time>
      </trkpt>
      <trkpt lat="48.60809" lon="1.97969">
        <ele>108</ele>
        <time>2010-03-19T11:17:35Z</time>
      </trkpt>
      <trkpt lat="48.6081" lon="1.97964">
        <ele>108</ele>
        <time>2010-03-19T11:17:36Z</time>
      </trkpt>
      <trkpt lat="48.60811" lon="1.97958">
        <ele>108</ele>
        <time>2010-03-19T11:17:37Z</time>
      </trkpt>
      <trkpt lat="48.60812" lon="1.97952">
        <ele>108</ele>
        <time>2010-03-19T11:17:38Z</time>
      </trkpt>
      <trkpt lat="48.60813" lon="1.97947">
        <ele>108</ele>
        <time>2010-03-19T11:17:39Z</time>
      </trkpt>
      <trkpt lat="48.60814" lon="1.97939">
        <ele>108</ele>
        <time>2010-03-19T11:17:40Z</time>
      </trkpt>
      <trkpt lat="48.60814" lon="1.97933">
        <ele>108</ele>
        <time>2010-03-19T11:17:41Z</time>
      </trkpt>
      <trkpt lat="48.60815" lon="1.97927">
        <ele>108</ele>
        <time>2010-03-19T11:17:42Z</time>
      </trkpt>
      <trkpt lat="48.60815" lon="1.97922">
        <ele>108</ele>
        <time>2010-03-19T11:17:43Z</time>
      </trkpt>
      <trkpt lat="48.60816" lon="1.97916">
        <ele>108</ele>
        <time>2010-03-19T11:17:44Z</time>
      </trkpt>
      <trkpt lat="48.60817" lon="1.97911">
        <ele>108</ele>
        <time>2010-03-19T11:17:45Z</time>
      </trkpt>
      <trkpt lat="48.60818" lon="1.97906">
        <ele>108</ele>
        <time>2010-03-19T11:17:46Z</time>
      </trkpt>
      <trkpt lat="48.60819" lon="1.979">
        <ele>108</ele>
        <time>2010-03-19T11:17:47Z</time>
      </trkpt>
      <trkpt lat="48.6082" lon="1.97895">
        <ele>108</ele>
        <time>2010-03-19T11:17:48Z</time>
      </trkpt>
      <trkpt lat="48.6082" lon="1.9789">
        <ele>107</ele>
        <time>2010-03-19T11:17:49Z</time>
      </trkpt>
      <trkpt lat="48.60821" lon="1.97884">
        <ele>107</ele>
        <time>2010-03-19T11:17:50Z</time>
      </trkpt>
      <trkpt lat="48.60822" lon="1.97878">
        <ele>106</ele>
        <time>2010-03-19T11:17:51Z</time>
      </trkpt>
      <trkpt lat="48.60823" lon="1.97873">
        <ele>106</ele>
        <time>2010-03-19T11:17:52Z</time>
      </trkpt>
      <trkpt lat="48.60824" lon="1.97868">
        <ele>106</ele>
        <time>2010-03-19T11:17:53Z</time>
      </trkpt>
      <trkpt lat="48.60825" lon="1.97863">
        <ele>106</ele>
        <time>2010-03-19T11:17:54Z</time>
      </trkpt>
      <trkpt lat="48.60825" lon="1.97857">
        <ele>105</ele>
        <time>2010-03-19T11:17:55Z</time>
      </trkpt>
      <trkpt lat="48.60825" lon="1.97851">
        <ele>105</ele>
        <time>2010-03-19T11:17:56Z</time>
      </trkpt>
      <trkpt lat="48.60825" lon="1.97844">
        <ele>104</ele>
        <time>2010-03-19T11:17:57Z</time>
      </trkpt>
      <trkpt lat="48.60825" lon="1.97838">
        <ele>104</ele>
        <time>2010-03-19T11:17:58Z</time>
      </trkpt>
      <trkpt lat="48.60825" lon="1.97832">
        <ele>104</ele>
        <time>2010-03-19T11:17:59Z</time>
      </trkpt>
      <trkpt lat="48.60825" lon="1.97827">
        <ele>104</ele>
        <time>2010-03-19T11:18:00Z</time>
      </trkpt>
      <trkpt lat="48.60826" lon="1.97821">
        <ele>104</ele>
        <time>2010-03-19T11:18:01Z</time>
      </trkpt>
      <trkpt lat="48.60826" lon="1.97816">
        <ele>104</ele>
        <time>2010-03-19T11:18:02Z</time>
      </trkpt>
      <trkpt lat="48.60827" lon="1.9781">
        <ele>104</ele>
        <time>2010-03-19T11:18:03Z</time>
      </trkpt>
      <trkpt lat="48.60827" lon="1.97803">
        <ele>104</ele>
        <time>2010-03-19T11:18:04Z</time>
      </trkpt>
      <trkpt lat="48.60827" lon="1.97797">
        <ele>104</ele>
        <time>2010-03-19T11:18:05Z</time>
      </trkpt>
      <trkpt lat="48.60828" lon="1.97791">
        <ele>104</ele>
        <time>2010-03-19T11:18:06Z</time>
      </trkpt>
      <trkpt lat="48.60828" lon="1.97785">
        <ele>104</ele>
        <time>2010-03-19T11:18:07Z</time>
      </trkpt>
      <trkpt lat="48.60829" lon="1.9778">
        <ele>104</ele>
        <time>2010-03-19T11:18:08Z</time>
      </trkpt>
      <trkpt lat="48.6083" lon="1.97774">
        <ele>104</ele>
        <time>2010-03-19T11:18:09Z</time>
      </trkpt>
      <trkpt lat="48.60831" lon="1.97768">
        <ele>104</ele>
        <time>2010-03-19T11:18:10Z</time>
      </trkpt>
      <trkpt lat="48.60832" lon="1.97763">
        <ele>104</ele>
        <time>2010-03-19T11:18:11Z</time>
      </trkpt>
      <trkpt lat="48.60832" lon="1.97758">
        <ele>104</ele>
        <time>2010-03-19T11:18:12Z</time>
      </trkpt>
      <trkpt lat="48.60833" lon="1.97752">
        <ele>104</ele>
        <time>2010-03-19T11:18:13Z</time>
      </trkpt>
      <trkpt lat="48.60834" lon="1.97747">
        <ele>104</ele>
        <time>2010-03-19T11:18:14Z</time>
      </trkpt>
      <trkpt lat="48.60835" lon="1.97742">
        <ele>104</ele>
        <time>2010-03-19T11:18:15Z</time>
      </trkpt>
      <trkpt lat="48.60835" lon="1.97736">
        <ele>104</ele>
        <time>2010-03-19T11:18:16Z</time>
      </trkpt>
      <trkpt lat="48.60835" lon="1.9773">
        <ele>104</ele>
        <time>2010-03-19T11:18:17Z</time>
      </trkpt>
      <trkpt lat="48.60835" lon="1.97723">
        <ele>104</ele>
        <time>2010-03-19T11:18:18Z</time>
      </trkpt>
      <trkpt lat="48.60836" lon="1.97718">
        <ele>104</ele>
        <time>2010-03-19T11:18:19Z</time>
      </trkpt>
      <trkpt lat="48.60836" lon="1.97713">
        <ele>104</ele>
        <time>2010-03-19T11:18:20Z</time>
      </trkpt>
      <trkpt lat="48.60837" lon="1.97707">
        <ele>104</ele>
        <time>2010-03-19T11:18:21Z</time>
      </trkpt>
      <trkpt lat="48.60837" lon="1.97702">
        <ele>104</ele>
        <time>2010-03-19T11:18:22Z</time>
      </trkpt>
      <trkpt lat="48.60838" lon="1.97696">
        <ele>104</ele>
        <time>2010-03-19T11:18:23Z</time>
      </trkpt>
      <trkpt lat="48.60838" lon="1.9769">
        <ele>104</ele>
        <time>2010-03-19T11:18:24Z</time>
      </trkpt>
      <trkpt lat="48.60838" lon="1.97685">
        <ele>104</ele>
        <time>2010-03-19T11:18:25Z</time>
      </trkpt>
      <trkpt lat="48.60838" lon="1.97679">
        <ele>104</ele>
        <time>2010-03-19T11:18:26Z</time>
      </trkpt>
      <trkpt lat="48.60837" lon="1.97673">
        <ele>104</ele>
        <time>2010-03-19T11:18:27Z</time>
      </trkpt>
      <trkpt lat="48.60836" lon="1.97668">
        <ele>104</ele>
        <time>2010-03-19T11:18:28Z</time>
      </trkpt>
      <trkpt lat="48.60836" lon="1.97663">
        <ele>104</ele>
        <time>2010-03-19T11:18:29Z</time>
      </trkpt>
      <trkpt lat="48.60835" lon="1.97658">
        <ele>105</ele>
        <time>2010-03-19T11:18:30Z</time>
      </trkpt>
      <trkpt lat="48.60835" lon="1.97651">
        <ele>105</ele>
        <time>2010-03-19T11:18:31Z</time>
      </trkpt>
      <trkpt lat="48.60835" lon="1.97645">
        <ele>105</ele>
        <time>2010-03-19T11:18:32Z</time>
      </trkpt>
      <trkpt lat="48.60834" lon="1.9764">
        <ele>105</ele>
        <time>2010-03-19T11:18:33Z</time>
      </trkpt>
      <trkpt lat="48.60833" lon="1.97635">
        <ele>105</ele>
        <time>2010-03-19T11:18:34Z</time>
      </trkpt>
      <trkpt lat="48.60832" lon="1.9763">
        <ele>105</ele>
        <time>2010-03-19T11:18:35Z</time>
      </trkpt>
      <trkpt lat="48.60832" lon="1.97626">
        <ele>105</ele>
        <time>2010-03-19T11:18:36Z</time>
      </trkpt>
      <trkpt lat="48.60831" lon="1.9762">
        <ele>105</ele>
        <time>2010-03-19T11:18:37Z</time>
      </trkpt>
      <trkpt lat="48.60831" lon="1.97615">
        <ele>105</ele>
        <time>2010-03-19T11:18:38Z</time>
      </trkpt>
      <trkpt lat="48.6083" lon="1.97609">
        <ele>105</ele>
        <time>2010-03-19T11:18:39Z</time>
      </trkpt>
      <trkpt lat="48.60829" lon="1.97604">
        <ele>105</ele>
        <time>2010-03-19T11:18:40Z</time>
      </trkpt>
      <trkpt lat="48.60827" lon="1.97599">
        <ele>105</ele>
        <time>2010-03-19T11:18:41Z</time>
      </trkpt>
      <trkpt lat="48.60826" lon="1.97594">
        <ele>105</ele>
        <time>2010-03-19T11:18:42Z</time>
      </trkpt>
      <trkpt lat="48.60826" lon="1.9759">
        <ele>105</ele>
        <time>2010-03-19T11:18:43Z</time>
      </trkpt>
      <trkpt lat="48.60825" lon="1.97586">
        <ele>105</ele>
        <time>2010-03-19T11:18:44Z</time>
      </trkpt>
      <trkpt lat="48.60823" lon="1.97581">
        <ele>105</ele>
        <time>2010-03-19T11:18:45Z</time>
      </trkpt>
      <trkpt lat="48.6082" lon="1.97575">
        <ele>105</ele>
        <time>2010-03-19T11:18:46Z</time>
      </trkpt>
      <trkpt lat="48.60818" lon="1.97571">
        <ele>105</ele>
        <time>2010-03-19T11:18:47Z</time>
      </trkpt>
      <trkpt lat="48.60817" lon="1.97566">
        <ele>105</ele>
        <time>2010-03-19T11:18:48Z</time>
      </trkpt>
      <trkpt lat="48.60814" lon="1.97561">
        <ele>105</ele>
        <time>2010-03-19T11:18:49Z</time>
      </trkpt>
      <trkpt lat="48.60813" lon="1.97556">
        <ele>105</ele>
        <time>2010-03-19T11:18:50Z</time>
      </trkpt>
      <trkpt lat="48.60811" lon="1.97552">
        <ele>105</ele>
        <time>2010-03-19T11:18:51Z</time>
      </trkpt>
      <trkpt lat="48.6081" lon="1.97548">
        <ele>105</ele>
        <time>2010-03-19T11:18:52Z</time>
      </trkpt>
      <trkpt lat="48.60809" lon="1.97543">
        <ele>105</ele>
        <time>2010-03-19T11:18:53Z</time>
      </trkpt>
      <trkpt lat="48.60806" lon="1.97539">
        <ele>105</ele>
        <time>2010-03-19T11:18:54Z</time>
      </trkpt>
      <trkpt lat="48.60804" lon="1.97534">
        <ele>105</ele>
        <time>2010-03-19T11:18:55Z</time>
      </trkpt>
      <trkpt lat="48.60802" lon="1.97529">
        <ele>105</ele>
        <time>2010-03-19T11:18:56Z</time>
      </trkpt>
      <trkpt lat="48.60801" lon="1.97524">
        <ele>105</ele>
        <time>2010-03-19T11:18:57Z</time>
      </trkpt>
      <trkpt lat="48.60799" lon="1.97519">
        <ele>105</ele>
        <time>2010-03-19T11:18:58Z</time>
      </trkpt>
      <trkpt lat="48.60798" lon="1.97515">
        <ele>104</ele>
        <time>2010-03-19T11:18:59Z</time>
      </trkpt>
      <trkpt lat="48.60796" lon="1.9751">
        <ele>104</ele>
        <time>2010-03-19T11:19:00Z</time>
      </trkpt>
      <trkpt lat="48.60796" lon="1.97506">
        <ele>104</ele>
        <time>2010-03-19T11:19:01Z</time>
      </trkpt>
      <trkpt lat="48.60795" lon="1.97502">
        <ele>104</ele>
        <time>2010-03-19T11:19:02Z</time>
      </trkpt>
      <trkpt lat="48.60795" lon="1.97499">
        <ele>104</ele>
        <time>2010-03-19T11:19:03Z</time>
      </trkpt>
      <trkpt lat="48.60794" lon="1.97496">
        <ele>104</ele>
        <time>2010-03-19T11:19:04Z</time>
      </trkpt>
      <trkpt lat="48.60794" lon="1.97494">
        <ele>104</ele>
        <time>2010-03-19T11:19:05Z</time>
      </trkpt>
      <trkpt lat="48.60793" lon="1.97491">
        <ele>104</ele>
        <time>2010-03-19T11:19:06Z</time>
      </trkpt>
      <trkpt lat="48.60792" lon="1.97489">
        <ele>104</ele>
        <time>2010-03-19T11:19:07Z</time>
      </trkpt>
      <trkpt lat="48.60791" lon="1.97486">
        <ele>103</ele>
        <time>2010-03-19T11:19:08Z</time>
      </trkpt>
      <trkpt lat="48.60791" lon="1.97483">
        <ele>103</ele>
        <time>2010-03-19T11:19:09Z</time>
      </trkpt>
      <trkpt lat="48.60791" lon="1.97482">
        <ele>103</ele>
        <time>2010-03-19T11:19:10Z</time>
      </trkpt>
      <trkpt lat="48.60791" lon="1.9748">
        <ele>103</ele>
        <time>2010-03-19T11:19:11Z</time>
      </trkpt>
      <trkpt lat="48.6079" lon="1.97477">
        <ele>103</ele>
        <time>2010-03-19T11:19:12Z</time>
      </trkpt>
      <trkpt lat="48.6079" lon="1.97475">
        <ele>102</ele>
        <time>2010-03-19T11:19:13Z</time>
      </trkpt>
      <trkpt lat="48.6079" lon="1.97472">
        <ele>102</ele>
        <time>2010-03-19T11:19:14Z</time>
      </trkpt>
      <trkpt lat="48.60789" lon="1.97469">
        <ele>102</ele>
        <time>2010-03-19T11:19:15Z</time>
      </trkpt>
      <trkpt lat="48.60789" lon="1.97467">
        <ele>102</ele>
        <time>2010-03-19T11:19:16Z</time>
      </trkpt>
      <trkpt lat="48.60789" lon="1.97465">
        <ele>102</ele>
        <time>2010-03-19T11:19:17Z</time>
      </trkpt>
      <trkpt lat="48.60789" lon="1.97463">
        <ele>102</ele>
        <time>2010-03-19T11:19:18Z</time>
      </trkpt>
      <trkpt lat="48.60789" lon="1.9746">
        <ele>102</ele>
        <time>2010-03-19T11:19:19Z</time>
      </trkpt>
      <trkpt lat="48.60789" lon="1.97458">
        <ele>102</ele>
        <time>2010-03-19T11:19:20Z</time>
      </trkpt>
      <trkpt lat="48.60789" lon="1.97456">
        <ele>102</ele>
        <time>2010-03-19T11:19:21Z</time>
      </trkpt>
      <trkpt lat="48.60789" lon="1.97453">
        <ele>102</ele>
        <time>2010-03-19T11:19:22Z</time>
      </trkpt>
      <trkpt lat="48.6079" lon="1.9745">
        <ele>102</ele>
        <time>2010-03-19T11:19:23Z</time>
      </trkpt>
      <trkpt lat="48.6079" lon="1.97448">
        <ele>102</ele>
        <time>2010-03-19T11:19:24Z</time>
      </trkpt>
      <trkpt lat="48.60791" lon="1.97446">
        <ele>101</ele>
        <time>2010-03-19T11:19:25Z</time>
      </trkpt>
      <trkpt lat="48.60791" lon="1.97444">
        <ele>101</ele>
        <time>2010-03-19T11:19:26Z</time>
      </trkpt>
      <trkpt lat="48.60792" lon="1.97442">
        <ele>101</ele>
        <time>2010-03-19T11:19:27Z</time>
      </trkpt>
      <trkpt lat="48.60793" lon="1.9744">
        <ele>100</ele>
        <time>2010-03-19T11:19:28Z</time>
      </trkpt>
      <trkpt lat="48.60794" lon="1.97438">
        <ele>100</ele>
        <time>2010-03-19T11:19:29Z</time>
      </trkpt>
      <trkpt lat="48.60795" lon="1.97436">
        <ele>100</ele>
        <time>2010-03-19T11:19:30Z</time>
      </trkpt>
      <trkpt lat="48.60796" lon="1.97435">
        <ele>100</ele>
        <time>2010-03-19T11:19:31Z</time>
      </trkpt>
      <trkpt lat="48.60796" lon="1.97433">
        <ele>99</ele>
        <time>2010-03-19T11:19:32Z</time>
      </trkpt>
      <trkpt lat="48.60797" lon="1.97431">
        <ele>99</ele>
        <time>2010-03-19T11:19:33Z</time>
      </trkpt>
      <trkpt lat="48.60796" lon="1.97431">
        <ele>99</ele>
        <time>2010-03-19T11:19:36Z</time>
      </trkpt>
      <trkpt lat="48.60794" lon="1.97431">
        <ele>99</ele>
        <time>2010-03-19T11:19:38Z</time>
      </trkpt>
      <trkpt lat="48.60794" lon="1.97433">
        <ele>99</ele>
        <time>2010-03-19T11:19:40Z</time>
      </trkpt>
      <trkpt lat="48.60794" lon="1.97434">
        <ele>99</ele>
        <time>2010-03-19T11:19:42Z</time>
      </trkpt>
      <trkpt lat="48.60794" lon="1.97436">
        <ele>99</ele>
        <time>2010-03-19T11:19:45Z</time>
      </trkpt>
      <trkpt lat="48.60794" lon="1.97439">
        <ele>99</ele>
        <time>2010-03-19T11:19:47Z</time>
      </trkpt>
      <trkpt lat="48.60793" lon="1.97441">
        <ele>99</ele>
        <time>2010-03-19T11:19:49Z</time>
      </trkpt>
      <trkpt lat="48.60794" lon="1.97439">
        <ele>99</ele>
        <time>2010-03-19T11:19:51Z</time>
      </trkpt>
      <trkpt lat="48.60794" lon="1.97436">
        <ele>99</ele>
        <time>2010-03-19T11:19:53Z</time>
      </trkpt>
      <trkpt lat="48.60796" lon="1.97433">
        <ele>99</ele>
        <time>2010-03-19T11:19:55Z</time>
      </trkpt>
      <trkpt lat="48.60797" lon="1.97431">
        <ele>99</ele>
        <time>2010-03-19T11:19:56Z</time>
      </trkpt>
      <trkpt lat="48.60799" lon="1.97428">
        <ele>99</ele>
        <time>2010-03-19T11:19:57Z</time>
      </trkpt>
      <trkpt lat="48.60801" lon="1.97425">
        <ele>99</ele>
        <time>2010-03-19T11:19:58Z</time>
      </trkpt>
      <trkpt lat="48.60802" lon="1.97424">
        <ele>99</ele>
        <time>2010-03-19T11:19:59Z</time>
      </trkpt>
      <trkpt lat="48.60803" lon="1.97422">
        <ele>99</ele>
        <time>2010-03-19T11:20:00Z</time>
      </trkpt>
      <trkpt lat="48.60804" lon="1.9742">
        <ele>99</ele>
        <time>2010-03-19T11:20:01Z</time>
      </trkpt>
      <trkpt lat="48.60806" lon="1.97418">
        <ele>99</ele>
        <time>2010-03-19T11:20:02Z</time>
      </trkpt>
      <trkpt lat="48.60808" lon="1.97415">
        <ele>99</ele>
        <time>2010-03-19T11:20:04Z</time>
      </trkpt>
      <trkpt lat="48.60809" lon="1.97414">
        <ele>99</ele>
        <time>2010-03-19T11:20:05Z</time>
      </trkpt>
      <trkpt lat="48.60811" lon="1.97413">
        <ele>99</ele>
        <time>2010-03-19T11:20:07Z</time>
      </trkpt>
      <trkpt lat="48.60813" lon="1.9741">
        <ele>99</ele>
        <time>2010-03-19T11:20:09Z</time>
      </trkpt>
      <trkpt lat="48.60814" lon="1.97408">
        <ele>99</ele>
        <time>2010-03-19T11:20:10Z</time>
      </trkpt>
      <trkpt lat="48.60815" lon="1.97406">
        <ele>99</ele>
        <time>2010-03-19T11:20:11Z</time>
      </trkpt>
      <trkpt lat="48.60817" lon="1.97405">
        <ele>98</ele>
        <time>2010-03-19T11:20:12Z</time>
      </trkpt>
      <trkpt lat="48.60818" lon="1.97403">
        <ele>98</ele>
        <time>2010-03-19T11:20:13Z</time>
      </trkpt>
      <trkpt lat="48.6082" lon="1.97401">
        <ele>98</ele>
        <time>2010-03-19T11:20:14Z</time>
      </trkpt>
      <trkpt lat="48.60822" lon="1.974">
        <ele>98</ele>
        <time>2010-03-19T11:20:15Z</time>
      </trkpt>
      <trkpt lat="48.60824" lon="1.97399">
        <ele>98</ele>
        <time>2010-03-19T11:20:16Z</time>
      </trkpt>
      <trkpt lat="48.60825" lon="1.97397">
        <ele>98</ele>
        <time>2010-03-19T11:20:17Z</time>
      </trkpt>
      <trkpt lat="48.60827" lon="1.97396">
        <ele>98</ele>
        <time>2010-03-19T11:20:18Z</time>
      </trkpt>
      <trkpt lat="48.60828" lon="1.97394">
        <ele>98</ele>
        <time>2010-03-19T11:20:19Z</time>
      </trkpt>
      <trkpt lat="48.60829" lon="1.97392">
        <ele>98</ele>
        <time>2010-03-19T11:20:20Z</time>
      </trkpt>
      <trkpt lat="48.6083" lon="1.97391">
        <ele>98</ele>
        <time>2010-03-19T11:20:21Z</time>
      </trkpt>
      <trkpt lat="48.60831" lon="1.97389">
        <ele>97</ele>
        <time>2010-03-19T11:20:22Z</time>
      </trkpt>
      <trkpt lat="48.60832" lon="1.97388">
        <ele>97</ele>
        <time>2010-03-19T11:20:23Z</time>
      </trkpt>
      <trkpt lat="48.60834" lon="1.97386">
        <ele>97</ele>
        <time>2010-03-19T11:20:24Z</time>
      </trkpt>
      <trkpt lat="48.60835" lon="1.97384">
        <ele>96</ele>
        <time>2010-03-19T11:20:25Z</time>
      </trkpt>
      <trkpt lat="48.60836" lon="1.97382">
        <ele>96</ele>
        <time>2010-03-19T11:20:26Z</time>
      </trkpt>
      <trkpt lat="48.60838" lon="1.9738">
        <ele>95</ele>
        <time>2010-03-19T11:20:28Z</time>
      </trkpt>
      <trkpt lat="48.60841" lon="1.97377">
        <ele>95</ele>
        <time>2010-03-19T11:20:30Z</time>
      </trkpt>
      <trkpt lat="48.60843" lon="1.97375">
        <ele>94</ele>
        <time>2010-03-19T11:20:31Z</time>
      </trkpt>
      <trkpt lat="48.60844" lon="1.97373">
        <ele>94</ele>
        <time>2010-03-19T11:20:32Z</time>
      </trkpt>
      <trkpt lat="48.60846" lon="1.97372">
        <ele>94</ele>
        <time>2010-03-19T11:20:33Z</time>
      </trkpt>
      <trkpt lat="48.60847" lon="1.97371">
        <ele>94</ele>
        <time>2010-03-19T11:20:34Z</time>
      </trkpt>
      <trkpt lat="48.60848" lon="1.97369">
        <ele>94</ele>
        <time>2010-03-19T11:20:35Z</time>
      </trkpt>
      <trkpt lat="48.6085" lon="1.97368">
        <ele>94</ele>
        <time>2010-03-19T11:20:36Z</time>
      </trkpt>
      <trkpt lat="48.60851" lon="1.97366">
        <ele>94</ele>
        <time>2010-03-19T11:20:37Z</time>
      </trkpt>
      <trkpt lat="48.60852" lon="1.97364">
        <ele>94</ele>
        <time>2010-03-19T11:20:38Z</time>
      </trkpt>
      <trkpt lat="48.60854" lon="1.97362">
        <ele>94</ele>
        <time>2010-03-19T11:20:39Z</time>
      </trkpt>
      <trkpt lat="48.60855" lon="1.9736">
        <ele>94</ele>
        <time>2010-03-19T11:20:40Z</time>
      </trkpt>
      <trkpt lat="48.60856" lon="1.97358">
        <ele>94</ele>
        <time>2010-03-19T11:20:41Z</time>
      </trkpt>
      <trkpt lat="48.60858" lon="1.97356">
        <ele>94</ele>
        <time>2010-03-19T11:20:42Z</time>
      </trkpt>
      <trkpt lat="48.60859" lon="1.97355">
        <ele>94</ele>
        <time>2010-03-19T11:20:43Z</time>
      </trkpt>
      <trkpt lat="48.6086" lon="1.97353">
        <ele>94</ele>
        <time>2010-03-19T11:20:44Z</time>
      </trkpt>
      <trkpt lat="48.60861" lon="1.97352">
        <ele>94</ele>
        <time>2010-03-19T11:20:45Z</time>
      </trkpt>
      <trkpt lat="48.60862" lon="1.97351">
        <ele>94</ele>
        <time>2010-03-19T11:20:46Z</time>
      </trkpt>
      <trkpt lat="48.60864" lon="1.97349">
        <ele>94</ele>
        <time>2010-03-19T11:20:47Z</time>
      </trkpt>
      <trkpt lat="48.60865" lon="1.97347">
        <ele>94</ele>
        <time>2010-03-19T11:20:48Z</time>
      </trkpt>
      <trkpt lat="48.60867" lon="1.97346">
        <ele>94</ele>
        <time>2010-03-19T11:20:49Z</time>
      </trkpt>
      <trkpt lat="48.60868" lon="1.97344">
        <ele>94</ele>
        <time>2010-03-19T11:20:50Z</time>
      </trkpt>
      <trkpt lat="48.60869" lon="1.97342">
        <ele>94</ele>
        <time>2010-03-19T11:20:51Z</time>
      </trkpt>
      <trkpt lat="48.6087" lon="1.9734">
        <ele>94</ele>
        <time>2010-03-19T11:20:52Z</time>
      </trkpt>
      <trkpt lat="48.60872" lon="1.97339">
        <ele>94</ele>
        <time>2010-03-19T11:20:53Z</time>
      </trkpt>
      <trkpt lat="48.60872" lon="1.97337">
        <ele>94</ele>
        <time>2010-03-19T11:20:54Z</time>
      </trkpt>
      <trkpt lat="48.60873" lon="1.97335">
        <ele>94</ele>
        <time>2010-03-19T11:20:55Z</time>
      </trkpt>
      <trkpt lat="48.60875" lon="1.97333">
        <ele>94</ele>
        <time>2010-03-19T11:20:56Z</time>
      </trkpt>
      <trkpt lat="48.60876" lon="1.97331">
        <ele>94</ele>
        <time>2010-03-19T11:20:57Z</time>
      </trkpt>
      <trkpt lat="48.60877" lon="1.97329">
        <ele>94</ele>
        <time>2010-03-19T11:20:58Z</time>
      </trkpt>
      <trkpt lat="48.60878" lon="1.97327">
        <ele>94</ele>
        <time>2010-03-19T11:20:59Z</time>
      </trkpt>
      <trkpt lat="48.60879" lon="1.97325">
        <ele>94</ele>
        <time>2010-03-19T11:21:00Z</time>
      </trkpt>
      <trkpt lat="48.6088" lon="1.97324">
        <ele>94</ele>
        <time>2010-03-19T11:21:01Z</time>
      </trkpt>
      <trkpt lat="48.60881" lon="1.97322">
        <ele>94</ele>
        <time>2010-03-19T11:21:02Z</time>
      </trkpt>
      <trkpt lat="48.60883" lon="1.9732">
        <ele>94</ele>
        <time>2010-03-19T11:21:03Z</time>
      </trkpt>
      <trkpt lat="48.60884" lon="1.97318">
        <ele>94</ele>
        <time>2010-03-19T11:21:04Z</time>
      </trkpt>
      <trkpt lat="48.60884" lon="1.97316">
        <ele>94</ele>
        <time>2010-03-19T11:21:05Z</time>
      </trkpt>
      <trkpt lat="48.60886" lon="1.97314">
        <ele>94</ele>
        <time>2010-03-19T11:21:06Z</time>
      </trkpt>
      <trkpt lat="48.60886" lon="1.97312">
        <ele>94</ele>
        <time>2010-03-19T11:21:07Z</time>
      </trkpt>
      <trkpt lat="48.60888" lon="1.9731">
        <ele>94</ele>
        <time>2010-03-19T11:21:08Z</time>
      </trkpt>
      <trkpt lat="48.60888" lon="1.97309">
        <ele>94</ele>
        <time>2010-03-19T11:21:09Z</time>
      </trkpt>
      <trkpt lat="48.60889" lon="1.97307">
        <ele>94</ele>
        <time>2010-03-19T11:21:10Z</time>
      </trkpt>
      <trkpt lat="48.60891" lon="1.97305">
        <ele>94</ele>
        <time>2010-03-19T11:21:11Z</time>
      </trkpt>
      <trkpt lat="48.60892" lon="1.97304">
        <ele>94</ele>
        <time>2010-03-19T11:21:12Z</time>
      </trkpt>
      <trkpt lat="48.60893" lon="1.97302">
        <ele>94</ele>
        <time>2010-03-19T11:21:13Z</time>
      </trkpt>
      <trkpt lat="48.60894" lon="1.973">
        <ele>94</ele>
        <time>2010-03-19T11:21:14Z</time>
      </trkpt>
      <trkpt lat="48.60895" lon="1.97299">
        <ele>94</ele>
        <time>2010-03-19T11:21:15Z</time>
      </trkpt>
      <trkpt lat="48.60897" lon="1.97296">
        <ele>94</ele>
        <time>2010-03-19T11:21:17Z</time>
      </trkpt>
      <trkpt lat="48.60897" lon="1.97294">
        <ele>94</ele>
        <time>2010-03-19T11:21:20Z</time>
      </trkpt>
      <trkpt lat="48.60897" lon="1.97292">
        <ele>95</ele>
        <time>2010-03-19T11:21:24Z</time>
      </trkpt>
      <trkpt lat="48.60899" lon="1.97289">
        <ele>95</ele>
        <time>2010-03-19T11:21:26Z</time>
      </trkpt>
      <trkpt lat="48.609" lon="1.97287">
        <ele>95</ele>
        <time>2010-03-19T11:21:27Z</time>
      </trkpt>
      <trkpt lat="48.60901" lon="1.97285">
        <ele>95</ele>
        <time>2010-03-19T11:21:28Z</time>
      </trkpt>
      <trkpt lat="48.60902" lon="1.97283">
        <ele>96</ele>
        <time>2010-03-19T11:21:29Z</time>
      </trkpt>
      <trkpt lat="48.60903" lon="1.97281">
        <ele>96</ele>
        <time>2010-03-19T11:21:30Z</time>
      </trkpt>
      <trkpt lat="48.60905" lon="1.97279">
        <ele>97</ele>
        <time>2010-03-19T11:21:31Z</time>
      </trkpt>
      <trkpt lat="48.60906" lon="1.97277">
        <ele>97</ele>
        <time>2010-03-19T11:21:32Z</time>
      </trkpt>
      <trkpt lat="48.60907" lon="1.97276">
        <ele>97</ele>
        <time>2010-03-19T11:21:33Z</time>
      </trkpt>
      <trkpt lat="48.60909" lon="1.97274">
        <ele>98</ele>
        <time>2010-03-19T11:21:34Z</time>
      </trkpt>
      <trkpt lat="48.6091" lon="1.97273">
        <ele>98</ele>
        <time>2010-03-19T11:21:35Z</time>
      </trkpt>
      <trkpt lat="48.60911" lon="1.97272">
        <ele>98</ele>
        <time>2010-03-19T11:21:36Z</time>
      </trkpt>
      <trkpt lat="48.60913" lon="1.9727">
        <ele>98</ele>
        <time>2010-03-19T11:21:37Z</time>
      </trkpt>
      <trkpt lat="48.60914" lon="1.97268">
        <ele>98</ele>
        <time>2010-03-19T11:21:38Z</time>
      </trkpt>
      <trkpt lat="48.60916" lon="1.97267">
        <ele>98</ele>
        <time>2010-03-19T11:21:39Z</time>
      </trkpt>
      <trkpt lat="48.60917" lon="1.97266">
        <ele>98</ele>
        <time>2010-03-19T11:21:40Z</time>
      </trkpt>
      <trkpt lat="48.60919" lon="1.97265">
        <ele>98</ele>
        <time>2010-03-19T11:21:41Z</time>
      </trkpt>
      <trkpt lat="48.6092" lon="1.97263">
        <ele>98</ele>
        <time>2010-03-19T11:21:42Z</time>
      </trkpt>
      <trkpt lat="48.60921" lon="1.97262">
        <ele>98</ele>
        <time>2010-03-19T11:21:43Z</time>
      </trkpt>
      <trkpt lat="48.60922" lon="1.9726">
        <ele>98</ele>
        <time>2010-03-19T11:21:44Z</time>
      </trkpt>
      <trkpt lat="48.60924" lon="1.97259">
        <ele>98</ele>
        <time>2010-03-19T11:21:45Z</time>
      </trkpt>
      <trkpt lat="48.60925" lon="1.97257">
        <ele>98</ele>
        <time>2010-03-19T11:21:46Z</time>
      </trkpt>
      <trkpt lat="48.60927" lon="1.97256">
        <ele>98</ele>
        <time>2010-03-19T11:21:47Z</time>
      </trkpt>
      <trkpt lat="48.60928" lon="1.97255">
        <ele>98</ele>
        <time>2010-03-19T11:21:48Z</time>
      </trkpt>
      <trkpt lat="48.60929" lon="1.97253">
        <ele>98</ele>
        <time>2010-03-19T11:21:49Z</time>
      </trkpt>
      <trkpt lat="48.60931" lon="1.97251">
        <ele>98</ele>
        <time>2010-03-19T11:21:50Z</time>
      </trkpt>
      <trkpt lat="48.60933" lon="1.9725">
        <ele>98</ele>
        <time>2010-03-19T11:21:51Z</time>
      </trkpt>
      <trkpt lat="48.60934" lon="1.97249">
        <ele>98</ele>
        <time>2010-03-19T11:21:52Z</time>
      </trkpt>
      <trkpt lat="48.60935" lon="1.97248">
        <ele>98</ele>
        <time>2010-03-19T11:21:53Z</time>
      </trkpt>
      <trkpt lat="48.60937" lon="1.97247">
        <ele>98</ele>
        <time>2010-03-19T11:21:54Z</time>
      </trkpt>
      <trkpt lat="48.60938" lon="1.97246">
        <ele>98</ele>
        <time>2010-03-19T11:21:55Z</time>
      </trkpt>
      <trkpt lat="48.6094" lon="1.97245">
        <ele>98</ele>
        <time>2010-03-19T11:21:56Z</time>
      </trkpt>
      <trkpt lat="48.60941" lon="1.97245">
        <ele>98</ele>
        <time>2010-03-19T11:21:57Z</time>
      </trkpt>
      <trkpt lat="48.60943" lon="1.97243">
        <ele>98</ele>
        <time>2010-03-19T11:22:03Z</time>
      </trkpt>
      <trkpt lat="48.60945" lon="1.97242">
        <ele>98</ele>
        <time>2010-03-19T11:22:04Z</time>
      </trkpt>
      <trkpt lat="48.60946" lon="1.97241">
        <ele>98</ele>
        <time>2010-03-19T11:22:05Z</time>
      </trkpt>
      <trkpt lat="48.60948" lon="1.9724">
        <ele>98</ele>
        <time>2010-03-19T11:22:06Z</time>
      </trkpt>
      <trkpt lat="48.6095" lon="1.97239">
        <ele>98</ele>
        <time>2010-03-19T11:22:07Z</time>
      </trkpt>
      <trkpt lat="48.60951" lon="1.97238">
        <ele>98</ele>
        <time>2010-03-19T11:22:08Z</time>
      </trkpt>
      <trkpt lat="48.60953" lon="1.97237">
        <ele>98</ele>
        <time>2010-03-19T11:22:09Z</time>
      </trkpt>
      <trkpt lat="48.60954" lon="1.97236">
        <ele>98</ele>
        <time>2010-03-19T11:22:10Z</time>
      </trkpt>
      <trkpt lat="48.60956" lon="1.97235">
        <ele>98</ele>
        <time>2010-03-19T11:22:11Z</time>
      </trkpt>
      <trkpt lat="48.60957" lon="1.97234">
        <ele>98</ele>
        <time>2010-03-19T11:22:12Z</time>
      </trkpt>
      <trkpt lat="48.60959" lon="1.97232">
        <ele>98</ele>
        <time>2010-03-19T11:22:13Z</time>
      </trkpt>
      <trkpt lat="48.6096" lon="1.97231">
        <ele>98</ele>
        <time>2010-03-19T11:22:14Z</time>
      </trkpt>
      <trkpt lat="48.60961" lon="1.9723">
        <ele>98</ele>
        <time>2010-03-19T11:22:15Z</time>
      </trkpt>
      <trkpt lat="48.60963" lon="1.97229">
        <ele>98</ele>
        <time>2010-03-19T11:22:16Z</time>
      </trkpt>
      <trkpt lat="48.60965" lon="1.97227">
        <ele>98</ele>
        <time>2010-03-19T11:22:17Z</time>
      </trkpt>
      <trkpt lat="48.60966" lon="1.97226">
        <ele>98</ele>
        <time>2010-03-19T11:22:18Z</time>
      </trkpt>
      <trkpt lat="48.60967" lon="1.97224">
        <ele>98</ele>
        <time>2010-03-19T11:22:19Z</time>
      </trkpt>
      <trkpt lat="48.60969" lon="1.97223">
        <ele>98</ele>
        <time>2010-03-19T11:22:20Z</time>
      </trkpt>
      <trkpt lat="48.6097" lon="1.97222">
        <ele>98</ele>
        <time>2010-03-19T11:22:21Z</time>
      </trkpt>
      <trkpt lat="48.60971" lon="1.97221">
        <ele>98</ele>
        <time>2010-03-19T11:22:22Z</time>
      </trkpt>
      <trkpt lat="48.60973" lon="1.9722">
        <ele>98</ele>
        <time>2010-03-19T11:22:23Z</time>
      </trkpt>
      <trkpt lat="48.60974" lon="1.9722">
        <ele>98</ele>
        <time>2010-03-19T11:22:24Z</time>
      </trkpt>
      <trkpt lat="48.60975" lon="1.97219">
        <ele>98</ele>
        <time>2010-03-19T11:22:25Z</time>
      </trkpt>
      <trkpt lat="48.60976" lon="1.97218">
        <ele>98</ele>
        <time>2010-03-19T11:22:26Z</time>
      </trkpt>
      <trkpt lat="48.60978" lon="1.97217">
        <ele>98</ele>
        <time>2010-03-19T11:22:27Z</time>
      </trkpt>
      <trkpt lat="48.60979" lon="1.97216">
        <ele>98</ele>
        <time>2010-03-19T11:22:28Z</time>
      </trkpt>
      <trkpt lat="48.6098" lon="1.97215">
        <ele>98</ele>
        <time>2010-03-19T11:22:29Z</time>
      </trkpt>
      <trkpt lat="48.60982" lon="1.97214">
        <ele>98</ele>
        <time>2010-03-19T11:22:30Z</time>
      </trkpt>
      <trkpt lat="48.60983" lon="1.97213">
        <ele>98</ele>
        <time>2010-03-19T11:22:31Z</time>
      </trkpt>
      <trkpt lat="48.60984" lon="1.97211">
        <ele>98</ele>
        <time>2010-03-19T11:22:32Z</time>
      </trkpt>
      <trkpt lat="48.60985" lon="1.9721">
        <ele>98</ele>
        <time>2010-03-19T11:22:33Z</time>
      </trkpt>
      <trkpt lat="48.60986" lon="1.97208">
        <ele>98</ele>
        <time>2010-03-19T11:22:34Z</time>
      </trkpt>
      <trkpt lat="48.60987" lon="1.97206">
        <ele>98</ele>
        <time>2010-03-19T11:22:35Z</time>
      </trkpt>
      <trkpt lat="48.60989" lon="1.97205">
        <ele>98</ele>
        <time>2010-03-19T11:22:36Z</time>
      </trkpt>
      <trkpt lat="48.6099" lon="1.97203">
        <ele>98</ele>
        <time>2010-03-19T11:22:37Z</time>
      </trkpt>
      <trkpt lat="48.60991" lon="1.97202">
        <ele>98</ele>
        <time>2010-03-19T11:22:38Z</time>
      </trkpt>
      <trkpt lat="48.60992" lon="1.972">
        <ele>98</ele>
        <time>2010-03-19T11:22:39Z</time>
      </trkpt>
      <trkpt lat="48.60994" lon="1.97199">
        <ele>98</ele>
        <time>2010-03-19T11:22:40Z</time>
      </trkpt>
      <trkpt lat="48.60995" lon="1.97197">
        <ele>98</ele>
        <time>2010-03-19T11:22:41Z</time>
      </trkpt>
      <trkpt lat="48.60996" lon="1.97195">
        <ele>98</ele>
        <time>2010-03-19T11:22:42Z</time>
      </trkpt>
      <trkpt lat="48.60998" lon="1.97194">
        <ele>98</ele>
        <time>2010-03-19T11:22:43Z</time>
      </trkpt>
      <trkpt lat="48.60999" lon="1.97193">
        <ele>98</ele>
        <time>2010-03-19T11:22:44Z</time>
      </trkpt>
      <trkpt lat="48.61" lon="1.97191">
        <ele>98</ele>
        <time>2010-03-19T11:22:45Z</time>
      </trkpt>
      <trkpt lat="48.61001" lon="1.9719">
        <ele>98</ele>
        <time>2010-03-19T11:22:46Z</time>
      </trkpt>
      <trkpt lat="48.61003" lon="1.97189">
        <ele>98</ele>
        <time>2010-03-19T11:22:47Z</time>
      </trkpt>
      <trkpt lat="48.61004" lon="1.97188">
        <ele>98</ele>
        <time>2010-03-19T11:22:48Z</time>
      </trkpt>
      <trkpt lat="48.61006" lon="1.97188">
        <ele>98</ele>
        <time>2010-03-19T11:22:49Z</time>
      </trkpt>
      <trkpt lat="48.61007" lon="1.97187">
        <ele>98</ele>
        <time>2010-03-19T11:22:50Z</time>
      </trkpt>
      <trkpt lat="48.61008" lon="1.97185">
        <ele>98</ele>
        <time>2010-03-19T11:22:51Z</time>
      </trkpt>
      <trkpt lat="48.6101" lon="1.97184">
        <ele>98</ele>
        <time>2010-03-19T11:22:52Z</time>
      </trkpt>
      <trkpt lat="48.61011" lon="1.97183">
        <ele>98</ele>
        <time>2010-03-19T11:22:53Z</time>
      </trkpt>
      <trkpt lat="48.61012" lon="1.97182">
        <ele>98</ele>
        <time>2010-03-19T11:22:54Z</time>
      </trkpt>
      <trkpt lat="48.61013" lon="1.97181">
        <ele>98</ele>
        <time>2010-03-19T11:22:55Z</time>
      </trkpt>
      <trkpt lat="48.61015" lon="1.97179">
        <ele>98</ele>
        <time>2010-03-19T11:22:56Z</time>
      </trkpt>
      <trkpt lat="48.61016" lon="1.97178">
        <ele>98</ele>
        <time>2010-03-19T11:22:57Z</time>
      </trkpt>
      <trkpt lat="48.61018" lon="1.97177">
        <ele>98</ele>
        <time>2010-03-19T11:22:58Z</time>
      </trkpt>
      <trkpt lat="48.61019" lon="1.97175">
        <ele>97</ele>
        <time>2010-03-19T11:22:59Z</time>
      </trkpt>
      <trkpt lat="48.6102" lon="1.97174">
        <ele>97</ele>
        <time>2010-03-19T11:23:00Z</time>
      </trkpt>
      <trkpt lat="48.61023" lon="1.97174">
        <ele>97</ele>
        <time>2010-03-19T11:23:01Z</time>
      </trkpt>
      <trkpt lat="48.61024" lon="1.97173">
        <ele>97</ele>
        <time>2010-03-19T11:23:02Z</time>
      </trkpt>
      <trkpt lat="48.61025" lon="1.97172">
        <ele>97</ele>
        <time>2010-03-19T11:23:03Z</time>
      </trkpt>
      <trkpt lat="48.61027" lon="1.97172">
        <ele>97</ele>
        <time>2010-03-19T11:23:04Z</time>
      </trkpt>
      <trkpt lat="48.61029" lon="1.97171">
        <ele>97</ele>
        <time>2010-03-19T11:23:05Z</time>
      </trkpt>
      <trkpt lat="48.61031" lon="1.97171">
        <ele>97</ele>
        <time>2010-03-19T11:23:06Z</time>
      </trkpt>
      <trkpt lat="48.61032" lon="1.9717">
        <ele>97</ele>
        <time>2010-03-19T11:23:07Z</time>
      </trkpt>
      <trkpt lat="48.61034" lon="1.97169">
        <ele>97</ele>
        <time>2010-03-19T11:23:08Z</time>
      </trkpt>
      <trkpt lat="48.61035" lon="1.97169">
        <ele>96</ele>
        <time>2010-03-19T11:23:09Z</time>
      </trkpt>
      <trkpt lat="48.61037" lon="1.97168">
        <ele>96</ele>
        <time>2010-03-19T11:23:10Z</time>
      </trkpt>
      <trkpt lat="48.61039" lon="1.97167">
        <ele>96</ele>
        <time>2010-03-19T11:23:11Z</time>
      </trkpt>
      <trkpt lat="48.6104" lon="1.97166">
        <ele>96</ele>
        <time>2010-03-19T11:23:12Z</time>
      </trkpt>
      <trkpt lat="48.61041" lon="1.97166">
        <ele>96</ele>
        <time>2010-03-19T11:23:13Z</time>
      </trkpt>
      <trkpt lat="48.61043" lon="1.97165">
        <ele>96</ele>
        <time>2010-03-19T11:23:14Z</time>
      </trkpt>
      <trkpt lat="48.61044" lon="1.97164">
        <ele>96</ele>
        <time>2010-03-19T11:23:15Z</time>
      </trkpt>
      <trkpt lat="48.61046" lon="1.97163">
        <ele>96</ele>
        <time>2010-03-19T11:23:16Z</time>
      </trkpt>
      <trkpt lat="48.61048" lon="1.97162">
        <ele>96</ele>
        <time>2010-03-19T11:23:17Z</time>
      </trkpt>
      <trkpt lat="48.61049" lon="1.97161">
        <ele>96</ele>
        <time>2010-03-19T11:23:18Z</time>
      </trkpt>
      <trkpt lat="48.6105" lon="1.9716">
        <ele>96</ele>
        <time>2010-03-19T11:23:19Z</time>
      </trkpt>
      <trkpt lat="48.61052" lon="1.9716">
        <ele>96</ele>
        <time>2010-03-19T11:23:20Z</time>
      </trkpt>
      <trkpt lat="48.61053" lon="1.97159">
        <ele>96</ele>
        <time>2010-03-19T11:23:21Z</time>
      </trkpt>
      <trkpt lat="48.61056" lon="1.97158">
        <ele>96</ele>
        <time>2010-03-19T11:23:22Z</time>
      </trkpt>
      <trkpt lat="48.61057" lon="1.97158">
        <ele>96</ele>
        <time>2010-03-19T11:23:23Z</time>
      </trkpt>
      <trkpt lat="48.61059" lon="1.97157">
        <ele>96</ele>
        <time>2010-03-19T11:23:24Z</time>
      </trkpt>
      <trkpt lat="48.6106" lon="1.97157">
        <ele>96</ele>
        <time>2010-03-19T11:23:25Z</time>
      </trkpt>
      <trkpt lat="48.61061" lon="1.97156">
        <ele>96</ele>
        <time>2010-03-19T11:23:26Z</time>
      </trkpt>
      <trkpt lat="48.61064" lon="1.97155">
        <ele>96</ele>
        <time>2010-03-19T11:23:27Z</time>
      </trkpt>
      <trkpt lat="48.61065" lon="1.97155">
        <ele>96</ele>
        <time>2010-03-19T11:23:28Z</time>
      </trkpt>
      <trkpt lat="48.61067" lon="1.97154">
        <ele>95</ele>
        <time>2010-03-19T11:23:29Z</time>
      </trkpt>
      <trkpt lat="48.61068" lon="1.97154">
        <ele>95</ele>
        <time>2010-03-19T11:23:30Z</time>
      </trkpt>
      <trkpt lat="48.6107" lon="1.97153">
        <ele>95</ele>
        <time>2010-03-19T11:23:31Z</time>
      </trkpt>
      <trkpt lat="48.61072" lon="1.97153">
        <ele>95</ele>
        <time>2010-03-19T11:23:32Z</time>
      </trkpt>
      <trkpt lat="48.61073" lon="1.97152">
        <ele>95</ele>
        <time>2010-03-19T11:23:33Z</time>
      </trkpt>
      <trkpt lat="48.61074" lon="1.97151">
        <ele>95</ele>
        <time>2010-03-19T11:23:34Z</time>
      </trkpt>
      <trkpt lat="48.61076" lon="1.97151">
        <ele>95</ele>
        <time>2010-03-19T11:23:35Z</time>
      </trkpt>
      <trkpt lat="48.61077" lon="1.97149">
        <ele>95</ele>
        <time>2010-03-19T11:23:37Z</time>
      </trkpt>
      <trkpt lat="48.61077" lon="1.97148">
        <ele>95</ele>
        <time>2010-03-19T11:23:40Z</time>
      </trkpt>
      <trkpt lat="48.61079" lon="1.97148">
        <ele>95</ele>
        <time>2010-03-19T11:23:44Z</time>
      </trkpt>
      <trkpt lat="48.61081" lon="1.97147">
        <ele>95</ele>
        <time>2010-03-19T11:23:45Z</time>
      </trkpt>
      <trkpt lat="48.61082" lon="1.97146">
        <ele>95</ele>
        <time>2010-03-19T11:23:46Z</time>
      </trkpt>
      <trkpt lat="48.61084" lon="1.97145">
        <ele>95</ele>
        <time>2010-03-19T11:23:47Z</time>
      </trkpt>
      <trkpt lat="48.61086" lon="1.97144">
        <ele>95</ele>
        <time>2010-03-19T11:23:48Z</time>
      </trkpt>
      <trkpt lat="48.61087" lon="1.97143">
        <ele>95</ele>
        <time>2010-03-19T11:23:49Z</time>
      </trkpt>
      <trkpt lat="48.61089" lon="1.97143">
        <ele>95</ele>
        <time>2010-03-19T11:23:50Z</time>
      </trkpt>
      <trkpt lat="48.61091" lon="1.97142">
        <ele>95</ele>
        <time>2010-03-19T11:23:51Z</time>
      </trkpt>
      <trkpt lat="48.61093" lon="1.97142">
        <ele>95</ele>
        <time>2010-03-19T11:23:52Z</time>
      </trkpt>
      <trkpt lat="48.61095" lon="1.97141">
        <ele>95</ele>
        <time>2010-03-19T11:23:53Z</time>
      </trkpt>
      <trkpt lat="48.61096" lon="1.97141">
        <ele>95</ele>
        <time>2010-03-19T11:23:54Z</time>
      </trkpt>
      <trkpt lat="48.61098" lon="1.9714">
        <ele>95</ele>
        <time>2010-03-19T11:23:55Z</time>
      </trkpt>
      <trkpt lat="48.611" lon="1.9714">
        <ele>95</ele>
        <time>2010-03-19T11:23:56Z</time>
      </trkpt>
      <trkpt lat="48.61101" lon="1.97141">
        <ele>95</ele>
        <time>2010-03-19T11:23:57Z</time>
      </trkpt>
      <trkpt lat="48.61103" lon="1.97141">
        <ele>95</ele>
        <time>2010-03-19T11:23:58Z</time>
      </trkpt>
      <trkpt lat="48.61105" lon="1.97141">
        <ele>95</ele>
        <time>2010-03-19T11:23:59Z</time>
      </trkpt>
      <trkpt lat="48.61106" lon="1.9714">
        <ele>95</ele>
        <time>2010-03-19T11:24:00Z</time>
      </trkpt>
      <trkpt lat="48.61107" lon="1.9714">
        <ele>95</ele>
        <time>2010-03-19T11:24:01Z</time>
      </trkpt>
      <trkpt lat="48.61109" lon="1.97139">
        <ele>95</ele>
        <time>2010-03-19T11:24:02Z</time>
      </trkpt>
      <trkpt lat="48.6111" lon="1.97139">
        <ele>95</ele>
        <time>2010-03-19T11:24:03Z</time>
      </trkpt>
      <trkpt lat="48.61112" lon="1.97138">
        <ele>95</ele>
        <time>2010-03-19T11:24:04Z</time>
      </trkpt>
      <trkpt lat="48.61114" lon="1.97137">
        <ele>95</ele>
        <time>2010-03-19T11:24:05Z</time>
      </trkpt>
      <trkpt lat="48.61116" lon="1.97137">
        <ele>95</ele>
        <time>2010-03-19T11:24:06Z</time>
      </trkpt>
      <trkpt lat="48.61117" lon="1.97136">
        <ele>95</ele>
        <time>2010-03-19T11:24:07Z</time>
      </trkpt>
      <trkpt lat="48.61119" lon="1.97135">
        <ele>95</ele>
        <time>2010-03-19T11:24:08Z</time>
      </trkpt>
      <trkpt lat="48.6112" lon="1.97135">
        <ele>95</ele>
        <time>2010-03-19T11:24:09Z</time>
      </trkpt>
      <trkpt lat="48.61123" lon="1.97134">
        <ele>95</ele>
        <time>2010-03-19T11:24:10Z</time>
      </trkpt>
      <trkpt lat="48.61125" lon="1.97133">
        <ele>95</ele>
        <time>2010-03-19T11:24:11Z</time>
      </trkpt>
      <trkpt lat="48.61127" lon="1.97131">
        <ele>95</ele>
        <time>2010-03-19T11:24:12Z</time>
      </trkpt>
      <trkpt lat="48.61129" lon="1.97131">
        <ele>95</ele>
        <time>2010-03-19T11:24:13Z</time>
      </trkpt>
      <trkpt lat="48.61131" lon="1.97131">
        <ele>95</ele>
        <time>2010-03-19T11:24:14Z</time>
      </trkpt>
      <trkpt lat="48.61132" lon="1.97131">
        <ele>95</ele>
        <time>2010-03-19T11:24:15Z</time>
      </trkpt>
      <trkpt lat="48.61134" lon="1.97131">
        <ele>95</ele>
        <time>2010-03-19T11:24:16Z</time>
      </trkpt>
      <trkpt lat="48.61135" lon="1.97131">
        <ele>95</ele>
        <time>2010-03-19T11:24:17Z</time>
      </trkpt>
      <trkpt lat="48.61137" lon="1.97131">
        <ele>95</ele>
        <time>2010-03-19T11:24:18Z</time>
      </trkpt>
      <trkpt lat="48.61139" lon="1.97131">
        <ele>95</ele>
        <time>2010-03-19T11:24:19Z</time>
      </trkpt>
      <trkpt lat="48.6114" lon="1.97131">
        <ele>95</ele>
        <time>2010-03-19T11:24:20Z</time>
      </trkpt>
      <trkpt lat="48.61142" lon="1.97131">
        <ele>95</ele>
        <time>2010-03-19T11:24:21Z</time>
      </trkpt>
      <trkpt lat="48.61143" lon="1.97131">
        <ele>95</ele>
        <time>2010-03-19T11:24:22Z</time>
      </trkpt>
      <trkpt lat="48.61145" lon="1.97131">
        <ele>95</ele>
        <time>2010-03-19T11:24:23Z</time>
      </trkpt>
      <trkpt lat="48.61147" lon="1.97131">
        <ele>95</ele>
        <time>2010-03-19T11:24:24Z</time>
      </trkpt>
      <trkpt lat="48.61148" lon="1.97131">
        <ele>95</ele>
        <time>2010-03-19T11:24:25Z</time>
      </trkpt>
      <trkpt lat="48.6115" lon="1.97132">
        <ele>95</ele>
        <time>2010-03-19T11:24:26Z</time>
      </trkpt>
      <trkpt lat="48.61151" lon="1.97132">
        <ele>94</ele>
        <time>2010-03-19T11:24:27Z</time>
      </trkpt>
      <trkpt lat="48.61152" lon="1.97133">
        <ele>94</ele>
        <time>2010-03-19T11:24:28Z</time>
      </trkpt>
      <trkpt lat="48.61154" lon="1.97133">
        <ele>94</ele>
        <time>2010-03-19T11:24:29Z</time>
      </trkpt>
      <trkpt lat="48.61156" lon="1.97134">
        <ele>94</ele>
        <time>2010-03-19T11:24:30Z</time>
      </trkpt>
      <trkpt lat="48.61157" lon="1.97135">
        <ele>93</ele>
        <time>2010-03-19T11:24:31Z</time>
      </trkpt>
      <trkpt lat="48.61158" lon="1.97136">
        <ele>93</ele>
        <time>2010-03-19T11:24:32Z</time>
      </trkpt>
      <trkpt lat="48.6116" lon="1.97137">
        <ele>93</ele>
        <time>2010-03-19T11:24:33Z</time>
      </trkpt>
      <trkpt lat="48.61161" lon="1.97138">
        <ele>93</ele>
        <time>2010-03-19T11:24:34Z</time>
      </trkpt>
      <trkpt lat="48.61163" lon="1.97139">
        <ele>93</ele>
        <time>2010-03-19T11:24:35Z</time>
      </trkpt>
      <trkpt lat="48.61164" lon="1.97139">
        <ele>92</ele>
        <time>2010-03-19T11:24:36Z</time>
      </trkpt>
      <trkpt lat="48.61166" lon="1.97139">
        <ele>92</ele>
        <time>2010-03-19T11:24:37Z</time>
      </trkpt>
      <trkpt lat="48.61167" lon="1.9714">
        <ele>92</ele>
        <time>2010-03-19T11:24:38Z</time>
      </trkpt>
      <trkpt lat="48.61169" lon="1.9714">
        <ele>92</ele>
        <time>2010-03-19T11:24:39Z</time>
      </trkpt>
      <trkpt lat="48.6117" lon="1.97141">
        <ele>92</ele>
        <time>2010-03-19T11:24:40Z</time>
      </trkpt>
      <trkpt lat="48.61172" lon="1.97142">
        <ele>92</ele>
        <time>2010-03-19T11:24:41Z</time>
      </trkpt>
      <trkpt lat="48.61173" lon="1.97142">
        <ele>92</ele>
        <time>2010-03-19T11:24:42Z</time>
      </trkpt>
      <trkpt lat="48.61174" lon="1.97142">
        <ele>92</ele>
        <time>2010-03-19T11:24:43Z</time>
      </trkpt>
      <trkpt lat="48.61176" lon="1.97143">
        <ele>92</ele>
        <time>2010-03-19T11:24:44Z</time>
      </trkpt>
      <trkpt lat="48.61177" lon="1.97143">
        <ele>92</ele>
        <time>2010-03-19T11:24:45Z</time>
      </trkpt>
      <trkpt lat="48.61179" lon="1.97143">
        <ele>92</ele>
        <time>2010-03-19T11:24:46Z</time>
      </trkpt>
      <trkpt lat="48.61181" lon="1.97144">
        <ele>92</ele>
        <time>2010-03-19T11:24:47Z</time>
      </trkpt>
      <trkpt lat="48.61183" lon="1.97144">
        <ele>92</ele>
        <time>2010-03-19T11:24:48Z</time>
      </trkpt>
      <trkpt lat="48.61184" lon="1.97144">
        <ele>92</ele>
        <time>2010-03-19T11:24:49Z</time>
      </trkpt>
      <trkpt lat="48.61185" lon="1.97144">
        <ele>92</ele>
        <time>2010-03-19T11:24:50Z</time>
      </trkpt>
      <trkpt lat="48.61188" lon="1.97144">
        <ele>92</ele>
        <time>2010-03-19T11:24:51Z</time>
      </trkpt>
      <trkpt lat="48.61189" lon="1.97144">
        <ele>92</ele>
        <time>2010-03-19T11:24:52Z</time>
      </trkpt>
      <trkpt lat="48.6119" lon="1.97144">
        <ele>92</ele>
        <time>2010-03-19T11:24:53Z</time>
      </trkpt>
      <trkpt lat="48.61192" lon="1.97144">
        <ele>92</ele>
        <time>2010-03-19T11:24:54Z</time>
      </trkpt>
      <trkpt lat="48.61193" lon="1.97145">
        <ele>92</ele>
        <time>2010-03-19T11:24:55Z</time>
      </trkpt>
      <trkpt lat="48.61195" lon="1.97145">
        <ele>92</ele>
        <time>2010-03-19T11:24:56Z</time>
      </trkpt>
      <trkpt lat="48.61196" lon="1.97145">
        <ele>91</ele>
        <time>2010-03-19T11:24:57Z</time>
      </trkpt>
      <trkpt lat="48.61198" lon="1.97145">
        <ele>91</ele>
        <time>2010-03-19T11:24:58Z</time>
      </trkpt>
      <trkpt lat="48.61199" lon="1.97145">
        <ele>91</ele>
        <time>2010-03-19T11:24:59Z</time>
      </trkpt>
      <trkpt lat="48.61201" lon="1.97145">
        <ele>91</ele>
        <time>2010-03-19T11:25:00Z</time>
      </trkpt>
      <trkpt lat="48.61202" lon="1.97145">
        <ele>91</ele>
        <time>2010-03-19T11:25:01Z</time>
      </trkpt>
      <trkpt lat="48.61204" lon="1.97144">
        <ele>91</ele>
        <time>2010-03-19T11:25:02Z</time>
      </trkpt>
      <trkpt lat="48.61205" lon="1.97144">
        <ele>91</ele>
        <time>2010-03-19T11:25:03Z</time>
      </trkpt>
      <trkpt lat="48.61207" lon="1.97143">
        <ele>91</ele>
        <time>2010-03-19T11:25:04Z</time>
      </trkpt>
      <trkpt lat="48.61209" lon="1.97143">
        <ele>91</ele>
        <time>2010-03-19T11:25:05Z</time>
      </trkpt>
      <trkpt lat="48.6121" lon="1.97142">
        <ele>91</ele>
        <time>2010-03-19T11:25:06Z</time>
      </trkpt>
      <trkpt lat="48.61212" lon="1.97142">
        <ele>91</ele>
        <time>2010-03-19T11:25:07Z</time>
      </trkpt>
      <trkpt lat="48.61213" lon="1.97142">
        <ele>91</ele>
        <time>2010-03-19T11:25:08Z</time>
      </trkpt>
      <trkpt lat="48.61214" lon="1.97142">
        <ele>90</ele>
        <time>2010-03-19T11:25:09Z</time>
      </trkpt>
      <trkpt lat="48.61216" lon="1.97142">
        <ele>90</ele>
        <time>2010-03-19T11:25:10Z</time>
      </trkpt>
      <trkpt lat="48.61218" lon="1.97142">
        <ele>90</ele>
        <time>2010-03-19T11:25:11Z</time>
      </trkpt>
      <trkpt lat="48.6122" lon="1.97142">
        <ele>90</ele>
        <time>2010-03-19T11:25:12Z</time>
      </trkpt>
      <trkpt lat="48.61222" lon="1.97142">
        <ele>90</ele>
        <time>2010-03-19T11:25:13Z</time>
      </trkpt>
      <trkpt lat="48.61224" lon="1.97143">
        <ele>90</ele>
        <time>2010-03-19T11:25:14Z</time>
      </trkpt>
      <trkpt lat="48.61226" lon="1.97143">
        <ele>90</ele>
        <time>2010-03-19T11:25:15Z</time>
      </trkpt>
      <trkpt lat="48.61227" lon="1.97143">
        <ele>90</ele>
        <time>2010-03-19T11:25:16Z</time>
      </trkpt>
      <trkpt lat="48.61229" lon="1.97143">
        <ele>90</ele>
        <time>2010-03-19T11:25:17Z</time>
      </trkpt>
      <trkpt lat="48.61231" lon="1.97142">
        <ele>90</ele>
        <time>2010-03-19T11:25:18Z</time>
      </trkpt>
      <trkpt lat="48.61233" lon="1.97141">
        <ele>90</ele>
        <time>2010-03-19T11:25:19Z</time>
      </trkpt>
      <trkpt lat="48.61235" lon="1.9714">
        <ele>90</ele>
        <time>2010-03-19T11:25:20Z</time>
      </trkpt>
      <trkpt lat="48.61237" lon="1.97139">
        <ele>90</ele>
        <time>2010-03-19T11:25:21Z</time>
      </trkpt>
      <trkpt lat="48.61238" lon="1.97138">
        <ele>90</ele>
        <time>2010-03-19T11:25:22Z</time>
      </trkpt>
      <trkpt lat="48.6124" lon="1.97137">
        <ele>90</ele>
        <time>2010-03-19T11:25:23Z</time>
      </trkpt>
      <trkpt lat="48.61241" lon="1.97137">
        <ele>90</ele>
        <time>2010-03-19T11:25:24Z</time>
      </trkpt>
      <trkpt lat="48.61243" lon="1.97136">
        <ele>90</ele>
        <time>2010-03-19T11:25:25Z</time>
      </trkpt>
      <trkpt lat="48.61245" lon="1.97136">
        <ele>90</ele>
        <time>2010-03-19T11:25:26Z</time>
      </trkpt>
      <trkpt lat="48.61246" lon="1.97135">
        <ele>90</ele>
        <time>2010-03-19T11:25:27Z</time>
      </trkpt>
      <trkpt lat="48.61247" lon="1.97134">
        <ele>90</ele>
        <time>2010-03-19T11:25:28Z</time>
      </trkpt>
      <trkpt lat="48.61249" lon="1.97134">
        <ele>90</ele>
        <time>2010-03-19T11:25:29Z</time>
      </trkpt>
      <trkpt lat="48.6125" lon="1.97135">
        <ele>90</ele>
        <time>2010-03-19T11:25:30Z</time>
      </trkpt>
      <trkpt lat="48.61251" lon="1.97135">
        <ele>90</ele>
        <time>2010-03-19T11:25:31Z</time>
      </trkpt>
      <trkpt lat="48.61253" lon="1.97135">
        <ele>90</ele>
        <time>2010-03-19T11:25:32Z</time>
      </trkpt>
      <trkpt lat="48.61254" lon="1.97135">
        <ele>90</ele>
        <time>2010-03-19T11:25:33Z</time>
      </trkpt>
      <trkpt lat="48.61256" lon="1.97135">
        <ele>90</ele>
        <time>2010-03-19T11:25:35Z</time>
      </trkpt>
      <trkpt lat="48.61258" lon="1.97133">
        <ele>90</ele>
        <time>2010-03-19T11:25:43Z</time>
      </trkpt>
      <trkpt lat="48.61258" lon="1.97132">
        <ele>90</ele>
        <time>2010-03-19T11:25:50Z</time>
      </trkpt>
      <trkpt lat="48.6126" lon="1.97129">
        <ele>90</ele>
        <time>2010-03-19T11:25:52Z</time>
      </trkpt>
      <trkpt lat="48.61262" lon="1.97127">
        <ele>91</ele>
        <time>2010-03-19T11:25:53Z</time>
      </trkpt>
      <trkpt lat="48.61264" lon="1.97126">
        <ele>91</ele>
        <time>2010-03-19T11:25:54Z</time>
      </trkpt>
      <trkpt lat="48.61266" lon="1.97126">
        <ele>91</ele>
        <time>2010-03-19T11:25:55Z</time>
      </trkpt>
      <trkpt lat="48.61267" lon="1.97125">
        <ele>91</ele>
        <time>2010-03-19T11:25:56Z</time>
      </trkpt>
      <trkpt lat="48.61269" lon="1.97125">
        <ele>92</ele>
        <time>2010-03-19T11:25:57Z</time>
      </trkpt>
      <trkpt lat="48.61271" lon="1.97125">
        <ele>92</ele>
        <time>2010-03-19T11:25:58Z</time>
      </trkpt>
      <trkpt lat="48.61272" lon="1.97125">
        <ele>92</ele>
        <time>2010-03-19T11:25:59Z</time>
      </trkpt>
      <trkpt lat="48.61273" lon="1.97125">
        <ele>92</ele>
        <time>2010-03-19T11:26:00Z</time>
      </trkpt>
      <trkpt lat="48.61275" lon="1.97125">
        <ele>92</ele>
        <time>2010-03-19T11:26:01Z</time>
      </trkpt>
      <trkpt lat="48.61277" lon="1.97125">
        <ele>92</ele>
        <time>2010-03-19T11:26:03Z</time>
      </trkpt>
      <trkpt lat="48.61278" lon="1.97125">
        <ele>92</ele>
        <time>2010-03-19T11:26:05Z</time>
      </trkpt>
      <trkpt lat="48.61279" lon="1.97125">
        <ele>92</ele>
        <time>2010-03-19T11:26:22Z</time>
      </trkpt>
      <trkpt lat="48.61281" lon="1.97126">
        <ele>92</ele>
        <time>2010-03-19T11:26:24Z</time>
      </trkpt>
      <trkpt lat="48.61283" lon="1.97128">
        <ele>92</ele>
        <time>2010-03-19T11:26:26Z</time>
      </trkpt>
      <trkpt lat="48.61285" lon="1.97129">
        <ele>92</ele>
        <time>2010-03-19T11:26:28Z</time>
      </trkpt>
      <trkpt lat="48.61287" lon="1.97129">
        <ele>92</ele>
        <time>2010-03-19T11:26:29Z</time>
      </trkpt>
      <trkpt lat="48.61289" lon="1.9713">
        <ele>92</ele>
        <time>2010-03-19T11:26:30Z</time>
      </trkpt>
      <trkpt lat="48.6129" lon="1.97131">
        <ele>92</ele>
        <time>2010-03-19T11:26:31Z</time>
      </trkpt>
      <trkpt lat="48.61292" lon="1.97131">
        <ele>92</ele>
        <time>2010-03-19T11:26:32Z</time>
      </trkpt>
      <trkpt lat="48.61295" lon="1.97131">
        <ele>92</ele>
        <time>2010-03-19T11:26:33Z</time>
      </trkpt>
      <trkpt lat="48.61297" lon="1.97131">
        <ele>92</ele>
        <time>2010-03-19T11:26:34Z</time>
      </trkpt>
      <trkpt lat="48.61299" lon="1.97132">
        <ele>92</ele>
        <time>2010-03-19T11:26:35Z</time>
      </trkpt>
      <trkpt lat="48.61301" lon="1.97132">
        <ele>92</ele>
        <time>2010-03-19T11:26:36Z</time>
      </trkpt>
      <trkpt lat="48.61303" lon="1.97132">
        <ele>92</ele>
        <time>2010-03-19T11:26:37Z</time>
      </trkpt>
      <trkpt lat="48.61305" lon="1.97133">
        <ele>92</ele>
        <time>2010-03-19T11:26:38Z</time>
      </trkpt>
      <trkpt lat="48.61307" lon="1.97133">
        <ele>92</ele>
        <time>2010-03-19T11:26:39Z</time>
      </trkpt>
      <trkpt lat="48.61309" lon="1.97133">
        <ele>92</ele>
        <time>2010-03-19T11:26:40Z</time>
      </trkpt>
      <trkpt lat="48.61311" lon="1.97133">
        <ele>92</ele>
        <time>2010-03-19T11:26:41Z</time>
      </trkpt>
      <trkpt lat="48.61312" lon="1.97133">
        <ele>92</ele>
        <time>2010-03-19T11:26:42Z</time>
      </trkpt>
      <trkpt lat="48.61314" lon="1.97133">
        <ele>92</ele>
        <time>2010-03-19T11:26:43Z</time>
      </trkpt>
      <trkpt lat="48.61316" lon="1.97133">
        <ele>92</ele>
        <time>2010-03-19T11:26:44Z</time>
      </trkpt>
      <trkpt lat="48.61317" lon="1.97134">
        <ele>92</ele>
        <time>2010-03-19T11:26:45Z</time>
      </trkpt>
      <trkpt lat="48.61319" lon="1.97134">
        <ele>92</ele>
        <time>2010-03-19T11:26:46Z</time>
      </trkpt>
      <trkpt lat="48.6132" lon="1.97134">
        <ele>92</ele>
        <time>2010-03-19T11:26:47Z</time>
      </trkpt>
      <trkpt lat="48.61322" lon="1.97134">
        <ele>92</ele>
        <time>2010-03-19T11:26:48Z</time>
      </trkpt>
      <trkpt lat="48.61324" lon="1.97135">
        <ele>92</ele>
        <time>2010-03-19T11:26:50Z</time>
      </trkpt>
      <trkpt lat="48.61325" lon="1.97136">
        <ele>92</ele>
        <time>2010-03-19T11:26:51Z</time>
      </trkpt>
      <trkpt lat="48.61327" lon="1.97136">
        <ele>92</ele>
        <time>2010-03-19T11:26:52Z</time>
      </trkpt>
      <trkpt lat="48.61329" lon="1.97137">
        <ele>92</ele>
        <time>2010-03-19T11:26:53Z</time>
      </trkpt>
      <trkpt lat="48.6133" lon="1.97137">
        <ele>92</ele>
        <time>2010-03-19T11:26:54Z</time>
      </trkpt>
      <trkpt lat="48.61332" lon="1.97137">
        <ele>92</ele>
        <time>2010-03-19T11:26:55Z</time>
      </trkpt>
      <trkpt lat="48.61333" lon="1.97137">
        <ele>92</ele>
        <time>2010-03-19T11:26:56Z</time>
      </trkpt>
      <trkpt lat="48.61335" lon="1.97138">
        <ele>92</ele>
        <time>2010-03-19T11:26:57Z</time>
      </trkpt>
      <trkpt lat="48.61337" lon="1.97138">
        <ele>92</ele>
        <time>2010-03-19T11:26:58Z</time>
      </trkpt>
      <trkpt lat="48.6134" lon="1.97137">
        <ele>92</ele>
        <time>2010-03-19T11:26:59Z</time>
      </trkpt>
      <trkpt lat="48.61341" lon="1.97137">
        <ele>92</ele>
        <time>2010-03-19T11:27:00Z</time>
      </trkpt>
      <trkpt lat="48.61343" lon="1.97138">
        <ele>92</ele>
        <time>2010-03-19T11:27:01Z</time>
      </trkpt>
      <trkpt lat="48.61345" lon="1.97139">
        <ele>92</ele>
        <time>2010-03-19T11:27:02Z</time>
      </trkpt>
      <trkpt lat="48.61346" lon="1.97139">
        <ele>92</ele>
        <time>2010-03-19T11:27:03Z</time>
      </trkpt>
      <trkpt lat="48.61349" lon="1.97139">
        <ele>92</ele>
        <time>2010-03-19T11:27:04Z</time>
      </trkpt>
      <trkpt lat="48.6135" lon="1.9714">
        <ele>92</ele>
        <time>2010-03-19T11:27:05Z</time>
      </trkpt>
      <trkpt lat="48.61352" lon="1.97141">
        <ele>92</ele>
        <time>2010-03-19T11:27:06Z</time>
      </trkpt>
      <trkpt lat="48.61354" lon="1.97141">
        <ele>92</ele>
        <time>2010-03-19T11:27:07Z</time>
      </trkpt>
      <trkpt lat="48.61355" lon="1.97142">
        <ele>92</ele>
        <time>2010-03-19T11:27:08Z</time>
      </trkpt>
      <trkpt lat="48.61356" lon="1.97143">
        <ele>92</ele>
        <time>2010-03-19T11:27:09Z</time>
      </trkpt>
      <trkpt lat="48.61358" lon="1.97144">
        <ele>92</ele>
        <time>2010-03-19T11:27:10Z</time>
      </trkpt>
      <trkpt lat="48.6136" lon="1.97144">
        <ele>92</ele>
        <time>2010-03-19T11:27:11Z</time>
      </trkpt>
      <trkpt lat="48.61362" lon="1.97144">
        <ele>92</ele>
        <time>2010-03-19T11:27:12Z</time>
      </trkpt>
      <trkpt lat="48.61363" lon="1.97144">
        <ele>92</ele>
        <time>2010-03-19T11:27:13Z</time>
      </trkpt>
      <trkpt lat="48.61365" lon="1.97144">
        <ele>92</ele>
        <time>2010-03-19T11:27:14Z</time>
      </trkpt>
      <trkpt lat="48.61367" lon="1.97143">
        <ele>92</ele>
        <time>2010-03-19T11:27:15Z</time>
      </trkpt>
      <trkpt lat="48.61368" lon="1.97143">
        <ele>92</ele>
        <time>2010-03-19T11:27:16Z</time>
      </trkpt>
      <trkpt lat="48.6137" lon="1.97142">
        <ele>92</ele>
        <time>2010-03-19T11:27:17Z</time>
      </trkpt>
      <trkpt lat="48.61372" lon="1.97142">
        <ele>92</ele>
        <time>2010-03-19T11:27:18Z</time>
      </trkpt>
      <trkpt lat="48.61374" lon="1.97142">
        <ele>92</ele>
        <time>2010-03-19T11:27:19Z</time>
      </trkpt>
      <trkpt lat="48.61376" lon="1.97142">
        <ele>92</ele>
        <time>2010-03-19T11:27:20Z</time>
      </trkpt>
      <trkpt lat="48.6138" lon="1.97141">
        <ele>92</ele>
        <time>2010-03-19T11:27:21Z</time>
      </trkpt>
      <trkpt lat="48.61383" lon="1.9714">
        <ele>92</ele>
        <time>2010-03-19T11:27:22Z</time>
      </trkpt>
      <trkpt lat="48.61387" lon="1.97139">
        <ele>92</ele>
        <time>2010-03-19T11:27:23Z</time>
      </trkpt>
      <trkpt lat="48.61391" lon="1.97138">
        <ele>92</ele>
        <time>2010-03-19T11:27:24Z</time>
      </trkpt>
      <trkpt lat="48.61395" lon="1.97136">
        <ele>92</ele>
        <time>2010-03-19T11:27:25Z</time>
      </trkpt>
      <trkpt lat="48.61397" lon="1.97134">
        <ele>92</ele>
        <time>2010-03-19T11:27:26Z</time>
      </trkpt>
      <trkpt lat="48.61399" lon="1.97133">
        <ele>92</ele>
        <time>2010-03-19T11:27:27Z</time>
      </trkpt>
      <trkpt lat="48.61403" lon="1.97129">
        <ele>92</ele>
        <time>2010-03-19T11:27:28Z</time>
      </trkpt>
      <trkpt lat="48.61407" lon="1.97125">
        <ele>93</ele>
        <time>2010-03-19T11:27:29Z</time>
      </trkpt>
      <trkpt lat="48.61411" lon="1.97121">
        <ele>93</ele>
        <time>2010-03-19T11:27:30Z</time>
      </trkpt>
      <trkpt lat="48.61414" lon="1.97116">
        <ele>93</ele>
        <time>2010-03-19T11:27:31Z</time>
      </trkpt>
      <trkpt lat="48.61418" lon="1.97111">
        <ele>94</ele>
        <time>2010-03-19T11:27:32Z</time>
      </trkpt>
      <trkpt lat="48.61421" lon="1.97106">
        <ele>95</ele>
        <time>2010-03-19T11:27:33Z</time>
      </trkpt>
      <trkpt lat="48.61424" lon="1.97102">
        <ele>96</ele>
        <time>2010-03-19T11:27:34Z</time>
      </trkpt>
      <trkpt lat="48.61427" lon="1.97098">
        <ele>97</ele>
        <time>2010-03-19T11:27:35Z</time>
      </trkpt>
      <trkpt lat="48.6143" lon="1.97093">
        <ele>98</ele>
        <time>2010-03-19T11:27:36Z</time>
      </trkpt>
      <trkpt lat="48.61433" lon="1.97089">
        <ele>99</ele>
        <time>2010-03-19T11:27:37Z</time>
      </trkpt>
      <trkpt lat="48.61436" lon="1.97083">
        <ele>99</ele>
        <time>2010-03-19T11:27:38Z</time>
      </trkpt>
      <trkpt lat="48.61439" lon="1.97079">
        <ele>100</ele>
        <time>2010-03-19T11:27:39Z</time>
      </trkpt>
      <trkpt lat="48.61442" lon="1.97074">
        <ele>100</ele>
        <time>2010-03-19T11:27:40Z</time>
      </trkpt>
      <trkpt lat="48.61445" lon="1.97069">
        <ele>100</ele>
        <time>2010-03-19T11:27:41Z</time>
      </trkpt>
      <trkpt lat="48.61448" lon="1.97064">
        <ele>101</ele>
        <time>2010-03-19T11:27:42Z</time>
      </trkpt>
      <trkpt lat="48.61451" lon="1.9706">
        <ele>101</ele>
        <time>2010-03-19T11:27:43Z</time>
      </trkpt>
      <trkpt lat="48.61454" lon="1.97054">
        <ele>102</ele>
        <time>2010-03-19T11:27:44Z</time>
      </trkpt>
      <trkpt lat="48.61457" lon="1.97048">
        <ele>102</ele>
        <time>2010-03-19T11:27:45Z</time>
      </trkpt>
      <trkpt lat="48.6146" lon="1.97042">
        <ele>103</ele>
        <time>2010-03-19T11:27:46Z</time>
      </trkpt>
      <trkpt lat="48.61464" lon="1.97038">
        <ele>104</ele>
        <time>2010-03-19T11:27:47Z</time>
      </trkpt>
      <trkpt lat="48.61468" lon="1.97034">
        <ele>105</ele>
        <time>2010-03-19T11:27:48Z</time>
      </trkpt>
      <trkpt lat="48.61471" lon="1.97031">
        <ele>106</ele>
        <time>2010-03-19T11:27:49Z</time>
      </trkpt>
      <trkpt lat="48.61474" lon="1.97028">
        <ele>106</ele>
        <time>2010-03-19T11:27:50Z</time>
      </trkpt>
      <trkpt lat="48.61477" lon="1.97024">
        <ele>106</ele>
        <time>2010-03-19T11:27:51Z</time>
      </trkpt>
      <trkpt lat="48.6148" lon="1.9702">
        <ele>106</ele>
        <time>2010-03-19T11:27:52Z</time>
      </trkpt>
      <trkpt lat="48.61483" lon="1.97018">
        <ele>106</ele>
        <time>2010-03-19T11:27:53Z</time>
      </trkpt>
      <trkpt lat="48.61487" lon="1.97014">
        <ele>106</ele>
        <time>2010-03-19T11:27:54Z</time>
      </trkpt>
      <trkpt lat="48.61491" lon="1.97011">
        <ele>106</ele>
        <time>2010-03-19T11:27:55Z</time>
      </trkpt>
      <trkpt lat="48.61495" lon="1.97007">
        <ele>106</ele>
        <time>2010-03-19T11:27:56Z</time>
      </trkpt>
      <trkpt lat="48.61498" lon="1.97004">
        <ele>106</ele>
        <time>2010-03-19T11:27:57Z</time>
      </trkpt>
      <trkpt lat="48.61502" lon="1.97001">
        <ele>106</ele>
        <time>2010-03-19T11:27:58Z</time>
      </trkpt>
      <trkpt lat="48.61506" lon="1.96998">
        <ele>106</ele>
        <time>2010-03-19T11:27:59Z</time>
      </trkpt>
      <trkpt lat="48.6151" lon="1.96995">
        <ele>106</ele>
        <time>2010-03-19T11:28:00Z</time>
      </trkpt>
      <trkpt lat="48.61514" lon="1.96993">
        <ele>106</ele>
        <time>2010-03-19T11:28:01Z</time>
      </trkpt>
      <trkpt lat="48.61517" lon="1.96991">
        <ele>106</ele>
        <time>2010-03-19T11:28:02Z</time>
      </trkpt>
      <trkpt lat="48.61521" lon="1.96989">
        <ele>105</ele>
        <time>2010-03-19T11:28:03Z</time>
      </trkpt>
      <trkpt lat="48.61525" lon="1.96988">
        <ele>105</ele>
        <time>2010-03-19T11:28:04Z</time>
      </trkpt>
      <trkpt lat="48.61529" lon="1.96986">
        <ele>104</ele>
        <time>2010-03-19T11:28:05Z</time>
      </trkpt>
      <trkpt lat="48.61532" lon="1.96985">
        <ele>103</ele>
        <time>2010-03-19T11:28:06Z</time>
      </trkpt>
      <trkpt lat="48.61536" lon="1.96984">
        <ele>103</ele>
        <time>2010-03-19T11:28:07Z</time>
      </trkpt>
      <trkpt lat="48.6154" lon="1.96983">
        <ele>102</ele>
        <time>2010-03-19T11:28:08Z</time>
      </trkpt>
      <trkpt lat="48.61544" lon="1.96982">
        <ele>102</ele>
        <time>2010-03-19T11:28:09Z</time>
      </trkpt>
      <trkpt lat="48.61548" lon="1.96981">
        <ele>101</ele>
        <time>2010-03-19T11:28:10Z</time>
      </trkpt>
      <trkpt lat="48.61552" lon="1.96981">
        <ele>101</ele>
        <time>2010-03-19T11:28:11Z</time>
      </trkpt>
      <trkpt lat="48.61557" lon="1.96981">
        <ele>101</ele>
        <time>2010-03-19T11:28:12Z</time>
      </trkpt>
      <trkpt lat="48.61562" lon="1.9698">
        <ele>101</ele>
        <time>2010-03-19T11:28:13Z</time>
      </trkpt>
      <trkpt lat="48.61566" lon="1.9698">
        <ele>101</ele>
        <time>2010-03-19T11:28:14Z</time>
      </trkpt>
      <trkpt lat="48.6157" lon="1.9698">
        <ele>101</ele>
        <time>2010-03-19T11:28:15Z</time>
      </trkpt>
      <trkpt lat="48.61573" lon="1.96979">
        <ele>101</ele>
        <time>2010-03-19T11:28:16Z</time>
      </trkpt>
      <trkpt lat="48.61577" lon="1.96979">
        <ele>101</ele>
        <time>2010-03-19T11:28:17Z</time>
      </trkpt>
      <trkpt lat="48.61581" lon="1.96978">
        <ele>101</ele>
        <time>2010-03-19T11:28:18Z</time>
      </trkpt>
      <trkpt lat="48.61587" lon="1.96978">
        <ele>101</ele>
        <time>2010-03-19T11:28:19Z</time>
      </trkpt>
      <trkpt lat="48.61591" lon="1.96977">
        <ele>101</ele>
        <time>2010-03-19T11:28:20Z</time>
      </trkpt>
      <trkpt lat="48.61595" lon="1.96976">
        <ele>101</ele>
        <time>2010-03-19T11:28:21Z</time>
      </trkpt>
      <trkpt lat="48.61599" lon="1.96976">
        <ele>101</ele>
        <time>2010-03-19T11:28:22Z</time>
      </trkpt>
      <trkpt lat="48.61603" lon="1.96976">
        <ele>101</ele>
        <time>2010-03-19T11:28:23Z</time>
      </trkpt>
      <trkpt lat="48.61607" lon="1.96975">
        <ele>101</ele>
        <time>2010-03-19T11:28:24Z</time>
      </trkpt>
      <trkpt lat="48.61611" lon="1.96975">
        <ele>101</ele>
        <time>2010-03-19T11:28:25Z</time>
      </trkpt>
      <trkpt lat="48.61616" lon="1.96975">
        <ele>101</ele>
        <time>2010-03-19T11:28:26Z</time>
      </trkpt>
      <trkpt lat="48.6162" lon="1.96975">
        <ele>101</ele>
        <time>2010-03-19T11:28:27Z</time>
      </trkpt>
      <trkpt lat="48.61624" lon="1.96975">
        <ele>102</ele>
        <time>2010-03-19T11:28:28Z</time>
      </trkpt>
      <trkpt lat="48.61628" lon="1.96974">
        <ele>103</ele>
        <time>2010-03-19T11:28:29Z</time>
      </trkpt>
      <trkpt lat="48.61633" lon="1.96974">
        <ele>103</ele>
        <time>2010-03-19T11:28:30Z</time>
      </trkpt>
      <trkpt lat="48.61637" lon="1.96973">
        <ele>104</ele>
        <time>2010-03-19T11:28:31Z</time>
      </trkpt>
      <trkpt lat="48.61642" lon="1.96973">
        <ele>104</ele>
        <time>2010-03-19T11:28:32Z</time>
      </trkpt>
      <trkpt lat="48.61646" lon="1.96973">
        <ele>104</ele>
        <time>2010-03-19T11:28:33Z</time>
      </trkpt>
      <trkpt lat="48.6165" lon="1.96973">
        <ele>105</ele>
        <time>2010-03-19T11:28:34Z</time>
      </trkpt>
      <trkpt lat="48.61653" lon="1.96974">
        <ele>105</ele>
        <time>2010-03-19T11:28:35Z</time>
      </trkpt>
      <trkpt lat="48.61657" lon="1.96975">
        <ele>105</ele>
        <time>2010-03-19T11:28:36Z</time>
      </trkpt>
      <trkpt lat="48.6166" lon="1.96976">
        <ele>105</ele>
        <time>2010-03-19T11:28:37Z</time>
      </trkpt>
      <trkpt lat="48.61663" lon="1.96976">
        <ele>105</ele>
        <time>2010-03-19T11:28:38Z</time>
      </trkpt>
      <trkpt lat="48.61666" lon="1.96977">
        <ele>105</ele>
        <time>2010-03-19T11:28:39Z</time>
      </trkpt>
      <trkpt lat="48.6167" lon="1.96978">
        <ele>105</ele>
        <time>2010-03-19T11:28:40Z</time>
      </trkpt>
      <trkpt lat="48.61673" lon="1.96979">
        <ele>105</ele>
        <time>2010-03-19T11:28:41Z</time>
      </trkpt>
      <trkpt lat="48.61677" lon="1.96981">
        <ele>105</ele>
        <time>2010-03-19T11:28:42Z</time>
      </trkpt>
      <trkpt lat="48.61682" lon="1.96983">
        <ele>105</ele>
        <time>2010-03-19T11:28:43Z</time>
      </trkpt>
      <trkpt lat="48.61685" lon="1.96985">
        <ele>105</ele>
        <time>2010-03-19T11:28:44Z</time>
      </trkpt>
      <trkpt lat="48.61688" lon="1.96987">
        <ele>105</ele>
        <time>2010-03-19T11:28:45Z</time>
      </trkpt>
      <trkpt lat="48.61692" lon="1.96989">
        <ele>105</ele>
        <time>2010-03-19T11:28:46Z</time>
      </trkpt>
      <trkpt lat="48.61696" lon="1.96991">
        <ele>104</ele>
        <time>2010-03-19T11:28:47Z</time>
      </trkpt>
      <trkpt lat="48.617" lon="1.96994">
        <ele>103</ele>
        <time>2010-03-19T11:28:48Z</time>
      </trkpt>
      <trkpt lat="48.61704" lon="1.96995">
        <ele>103</ele>
        <time>2010-03-19T11:28:49Z</time>
      </trkpt>
      <trkpt lat="48.61708" lon="1.96998">
        <ele>103</ele>
        <time>2010-03-19T11:28:50Z</time>
      </trkpt>
      <trkpt lat="48.61713" lon="1.97">
        <ele>103</ele>
        <time>2010-03-19T11:28:51Z</time>
      </trkpt>
      <trkpt lat="48.61717" lon="1.97002">
        <ele>102</ele>
        <time>2010-03-19T11:28:52Z</time>
      </trkpt>
      <trkpt lat="48.61721" lon="1.97003">
        <ele>102</ele>
        <time>2010-03-19T11:28:53Z</time>
      </trkpt>
      <trkpt lat="48.61726" lon="1.97004">
        <ele>102</ele>
        <time>2010-03-19T11:28:54Z</time>
      </trkpt>
      <trkpt lat="48.61732" lon="1.97005">
        <ele>102</ele>
        <time>2010-03-19T11:28:55Z</time>
      </trkpt>
      <trkpt lat="48.61737" lon="1.97005">
        <ele>102</ele>
        <time>2010-03-19T11:28:56Z</time>
      </trkpt>
      <trkpt lat="48.61741" lon="1.97006">
        <ele>102</ele>
        <time>2010-03-19T11:28:57Z</time>
      </trkpt>
      <trkpt lat="48.61746" lon="1.97007">
        <ele>102</ele>
        <time>2010-03-19T11:28:58Z</time>
      </trkpt>
      <trkpt lat="48.61752" lon="1.97007">
        <ele>102</ele>
        <time>2010-03-19T11:28:59Z</time>
      </trkpt>
      <trkpt lat="48.61757" lon="1.97008">
        <ele>102</ele>
        <time>2010-03-19T11:29:00Z</time>
      </trkpt>
      <trkpt lat="48.61761" lon="1.97009">
        <ele>102</ele>
        <time>2010-03-19T11:29:01Z</time>
      </trkpt>
      <trkpt lat="48.61765" lon="1.97009">
        <ele>102</ele>
        <time>2010-03-19T11:29:02Z</time>
      </trkpt>
      <trkpt lat="48.61769" lon="1.9701">
        <ele>102</ele>
        <time>2010-03-19T11:29:03Z</time>
      </trkpt>
      <trkpt lat="48.61773" lon="1.9701">
        <ele>102</ele>
        <time>2010-03-19T11:29:04Z</time>
      </trkpt>
      <trkpt lat="48.61777" lon="1.9701">
        <ele>102</ele>
        <time>2010-03-19T11:29:05Z</time>
      </trkpt>
      <trkpt lat="48.61781" lon="1.97011">
        <ele>102</ele>
        <time>2010-03-19T11:29:06Z</time>
      </trkpt>
      <trkpt lat="48.61786" lon="1.97012">
        <ele>102</ele>
        <time>2010-03-19T11:29:07Z</time>
      </trkpt>
      <trkpt lat="48.6179" lon="1.97012">
        <ele>102</ele>
        <time>2010-03-19T11:29:08Z</time>
      </trkpt>
      <trkpt lat="48.61794" lon="1.97013">
        <ele>102</ele>
        <time>2010-03-19T11:29:09Z</time>
      </trkpt>
      <trkpt lat="48.61798" lon="1.97014">
        <ele>102</ele>
        <time>2010-03-19T11:29:10Z</time>
      </trkpt>
      <trkpt lat="48.61802" lon="1.97017">
        <ele>102</ele>
        <time>2010-03-19T11:29:11Z</time>
      </trkpt>
      <trkpt lat="48.61807" lon="1.97019">
        <ele>102</ele>
        <time>2010-03-19T11:29:12Z</time>
      </trkpt>
      <trkpt lat="48.6181" lon="1.97022">
        <ele>102</ele>
        <time>2010-03-19T11:29:13Z</time>
      </trkpt>
      <trkpt lat="48.61814" lon="1.97025">
        <ele>102</ele>
        <time>2010-03-19T11:29:14Z</time>
      </trkpt>
      <trkpt lat="48.61818" lon="1.97028">
        <ele>102</ele>
        <time>2010-03-19T11:29:15Z</time>
      </trkpt>
      <trkpt lat="48.61822" lon="1.97031">
        <ele>102</ele>
        <time>2010-03-19T11:29:16Z</time>
      </trkpt>
      <trkpt lat="48.61826" lon="1.97034">
        <ele>102</ele>
        <time>2010-03-19T11:29:17Z</time>
      </trkpt>
      <trkpt lat="48.61829" lon="1.97037">
        <ele>102</ele>
        <time>2010-03-19T11:29:18Z</time>
      </trkpt>
      <trkpt lat="48.61832" lon="1.9704">
        <ele>102</ele>
        <time>2010-03-19T11:29:19Z</time>
      </trkpt>
      <trkpt lat="48.61835" lon="1.97042">
        <ele>102</ele>
        <time>2010-03-19T11:29:20Z</time>
      </trkpt>
      <trkpt lat="48.61838" lon="1.97044">
        <ele>102</ele>
        <time>2010-03-19T11:29:21Z</time>
      </trkpt>
      <trkpt lat="48.61841" lon="1.97047">
        <ele>102</ele>
        <time>2010-03-19T11:29:22Z</time>
      </trkpt>
      <trkpt lat="48.61844" lon="1.97049">
        <ele>102</ele>
        <time>2010-03-19T11:29:23Z</time>
      </trkpt>
      <trkpt lat="48.61848" lon="1.97051">
        <ele>102</ele>
        <time>2010-03-19T11:29:24Z</time>
      </trkpt>
      <trkpt lat="48.61852" lon="1.97054">
        <ele>102</ele>
        <time>2010-03-19T11:29:25Z</time>
      </trkpt>
      <trkpt lat="48.61856" lon="1.97056">
        <ele>102</ele>
        <time>2010-03-19T11:29:26Z</time>
      </trkpt>
      <trkpt lat="48.6186" lon="1.97058">
        <ele>102</ele>
        <time>2010-03-19T11:29:27Z</time>
      </trkpt>
      <trkpt lat="48.61864" lon="1.9706">
        <ele>102</ele>
        <time>2010-03-19T11:29:28Z</time>
      </trkpt>
      <trkpt lat="48.61868" lon="1.97062">
        <ele>102</ele>
        <time>2010-03-19T11:29:29Z</time>
      </trkpt>
      <trkpt lat="48.61872" lon="1.97064">
        <ele>102</ele>
        <time>2010-03-19T11:29:30Z</time>
      </trkpt>
      <trkpt lat="48.61876" lon="1.97066">
        <ele>103</ele>
        <time>2010-03-19T11:29:31Z</time>
      </trkpt>
      <trkpt lat="48.61881" lon="1.97068">
        <ele>103</ele>
        <time>2010-03-19T11:29:32Z</time>
      </trkpt>
      <trkpt lat="48.61885" lon="1.9707">
        <ele>103</ele>
        <time>2010-03-19T11:29:33Z</time>
      </trkpt>
      <trkpt lat="48.6189" lon="1.97072">
        <ele>104</ele>
        <time>2010-03-19T11:29:34Z</time>
      </trkpt>
      <trkpt lat="48.61895" lon="1.97075">
        <ele>104</ele>
        <time>2010-03-19T11:29:35Z</time>
      </trkpt>
      <trkpt lat="48.619" lon="1.97078">
        <ele>104</ele>
        <time>2010-03-19T11:29:36Z</time>
      </trkpt>
      <trkpt lat="48.61905" lon="1.9708">
        <ele>104</ele>
        <time>2010-03-19T11:29:37Z</time>
      </trkpt>
      <trkpt lat="48.61909" lon="1.97082">
        <ele>105</ele>
        <time>2010-03-19T11:29:38Z</time>
      </trkpt>
      <trkpt lat="48.61913" lon="1.97084">
        <ele>105</ele>
        <time>2010-03-19T11:29:39Z</time>
      </trkpt>
      <trkpt lat="48.61916" lon="1.97087">
        <ele>106</ele>
        <time>2010-03-19T11:29:40Z</time>
      </trkpt>
      <trkpt lat="48.61921" lon="1.97089">
        <ele>106</ele>
        <time>2010-03-19T11:29:41Z</time>
      </trkpt>
      <trkpt lat="48.61924" lon="1.97092">
        <ele>106</ele>
        <time>2010-03-19T11:29:42Z</time>
      </trkpt>
      <trkpt lat="48.61927" lon="1.97095">
        <ele>106</ele>
        <time>2010-03-19T11:29:43Z</time>
      </trkpt>
      <trkpt lat="48.6193" lon="1.97098">
        <ele>107</ele>
        <time>2010-03-19T11:29:44Z</time>
      </trkpt>
      <trkpt lat="48.61934" lon="1.97101">
        <ele>107</ele>
        <time>2010-03-19T11:29:45Z</time>
      </trkpt>
      <trkpt lat="48.61938" lon="1.97104">
        <ele>107</ele>
        <time>2010-03-19T11:29:46Z</time>
      </trkpt>
      <trkpt lat="48.61942" lon="1.97108">
        <ele>108</ele>
        <time>2010-03-19T11:29:47Z</time>
      </trkpt>
      <trkpt lat="48.61945" lon="1.97112">
        <ele>108</ele>
        <time>2010-03-19T11:29:48Z</time>
      </trkpt>
      <trkpt lat="48.61948" lon="1.97116">
        <ele>108</ele>
        <time>2010-03-19T11:29:49Z</time>
      </trkpt>
      <trkpt lat="48.61951" lon="1.9712">
        <ele>108</ele>
        <time>2010-03-19T11:29:50Z</time>
      </trkpt>
      <trkpt lat="48.61954" lon="1.97125">
        <ele>108</ele>
        <time>2010-03-19T11:29:51Z</time>
      </trkpt>
      <trkpt lat="48.61957" lon="1.97128">
        <ele>108</ele>
        <time>2010-03-19T11:29:52Z</time>
      </trkpt>
      <trkpt lat="48.6196" lon="1.97132">
        <ele>108</ele>
        <time>2010-03-19T11:29:53Z</time>
      </trkpt>
      <trkpt lat="48.61966" lon="1.97136">
        <ele>108</ele>
        <time>2010-03-19T11:29:54Z</time>
      </trkpt>
      <trkpt lat="48.61969" lon="1.9714">
        <ele>108</ele>
        <time>2010-03-19T11:29:55Z</time>
      </trkpt>
      <trkpt lat="48.61973" lon="1.97144">
        <ele>109</ele>
        <time>2010-03-19T11:29:56Z</time>
      </trkpt>
      <trkpt lat="48.61976" lon="1.97149">
        <ele>110</ele>
        <time>2010-03-19T11:29:57Z</time>
      </trkpt>
      <trkpt lat="48.61979" lon="1.97153">
        <ele>111</ele>
        <time>2010-03-19T11:29:58Z</time>
      </trkpt>
      <trkpt lat="48.61982" lon="1.97158">
        <ele>111</ele>
        <time>2010-03-19T11:29:59Z</time>
      </trkpt>
      <trkpt lat="48.61985" lon="1.97162">
        <ele>112</ele>
        <time>2010-03-19T11:30:00Z</time>
      </trkpt>
      <trkpt lat="48.61988" lon="1.97167">
        <ele>113</ele>
        <time>2010-03-19T11:30:01Z</time>
      </trkpt>
      <trkpt lat="48.61991" lon="1.97171">
        <ele>114</ele>
        <time>2010-03-19T11:30:02Z</time>
      </trkpt>
      <trkpt lat="48.61994" lon="1.97176">
        <ele>115</ele>
        <time>2010-03-19T11:30:03Z</time>
      </trkpt>
      <trkpt lat="48.61996" lon="1.97181">
        <ele>116</ele>
        <time>2010-03-19T11:30:04Z</time>
      </trkpt>
      <trkpt lat="48.61998" lon="1.97186">
        <ele>116</ele>
        <time>2010-03-19T11:30:05Z</time>
      </trkpt>
      <trkpt lat="48.62001" lon="1.97192">
        <ele>116</ele>
        <time>2010-03-19T11:30:06Z</time>
      </trkpt>
      <trkpt lat="48.62004" lon="1.97197">
        <ele>116</ele>
        <time>2010-03-19T11:30:07Z</time>
      </trkpt>
      <trkpt lat="48.62008" lon="1.97202">
        <ele>116</ele>
        <time>2010-03-19T11:30:08Z</time>
      </trkpt>
      <trkpt lat="48.62011" lon="1.97208">
        <ele>116</ele>
        <time>2010-03-19T11:30:09Z</time>
      </trkpt>
      <trkpt lat="48.62014" lon="1.97214">
        <ele>116</ele>
        <time>2010-03-19T11:30:10Z</time>
      </trkpt>
      <trkpt lat="48.62017" lon="1.9722">
        <ele>116</ele>
        <time>2010-03-19T11:30:11Z</time>
      </trkpt>
      <trkpt lat="48.62021" lon="1.97226">
        <ele>116</ele>
        <time>2010-03-19T11:30:12Z</time>
      </trkpt>
      <trkpt lat="48.62024" lon="1.97231">
        <ele>116</ele>
        <time>2010-03-19T11:30:13Z</time>
      </trkpt>
      <trkpt lat="48.62027" lon="1.97237">
        <ele>116</ele>
        <time>2010-03-19T11:30:14Z</time>
      </trkpt>
      <trkpt lat="48.62031" lon="1.97243">
        <ele>116</ele>
        <time>2010-03-19T11:30:15Z</time>
      </trkpt>
      <trkpt lat="48.62033" lon="1.97249">
        <ele>116</ele>
        <time>2010-03-19T11:30:16Z</time>
      </trkpt>
      <trkpt lat="48.62037" lon="1.97257">
        <ele>116</ele>
        <time>2010-03-19T11:30:17Z</time>
      </trkpt>
      <trkpt lat="48.6204" lon="1.97264">
        <ele>116</ele>
        <time>2010-03-19T11:30:18Z</time>
      </trkpt>
      <trkpt lat="48.62043" lon="1.97271">
        <ele>116</ele>
        <time>2010-03-19T11:30:19Z</time>
      </trkpt>
      <trkpt lat="48.62046" lon="1.97278">
        <ele>116</ele>
        <time>2010-03-19T11:30:20Z</time>
      </trkpt>
      <trkpt lat="48.62048" lon="1.97285">
        <ele>116</ele>
        <time>2010-03-19T11:30:21Z</time>
      </trkpt>
      <trkpt lat="48.6205" lon="1.97291">
        <ele>116</ele>
        <time>2010-03-19T11:30:22Z</time>
      </trkpt>
      <trkpt lat="48.62054" lon="1.97296">
        <ele>116</ele>
        <time>2010-03-19T11:30:23Z</time>
      </trkpt>
      <trkpt lat="48.62056" lon="1.97301">
        <ele>116</ele>
        <time>2010-03-19T11:30:24Z</time>
      </trkpt>
      <trkpt lat="48.62059" lon="1.97306">
        <ele>116</ele>
        <time>2010-03-19T11:30:25Z</time>
      </trkpt>
      <trkpt lat="48.62062" lon="1.97311">
        <ele>116</ele>
        <time>2010-03-19T11:30:26Z</time>
      </trkpt>
      <trkpt lat="48.62064" lon="1.97315">
        <ele>116</ele>
        <time>2010-03-19T11:30:27Z</time>
      </trkpt>
      <trkpt lat="48.62065" lon="1.97319">
        <ele>116</ele>
        <time>2010-03-19T11:30:28Z</time>
      </trkpt>
      <trkpt lat="48.62067" lon="1.97324">
        <ele>116</ele>
        <time>2010-03-19T11:30:29Z</time>
      </trkpt>
      <trkpt lat="48.62069" lon="1.97328">
        <ele>116</ele>
        <time>2010-03-19T11:30:30Z</time>
      </trkpt>
      <trkpt lat="48.62071" lon="1.97333">
        <ele>116</ele>
        <time>2010-03-19T11:30:31Z</time>
      </trkpt>
      <trkpt lat="48.62074" lon="1.97338">
        <ele>116</ele>
        <time>2010-03-19T11:30:32Z</time>
      </trkpt>
      <trkpt lat="48.62078" lon="1.97341">
        <ele>116</ele>
        <time>2010-03-19T11:30:33Z</time>
      </trkpt>
      <trkpt lat="48.6208" lon="1.97345">
        <ele>116</ele>
        <time>2010-03-19T11:30:34Z</time>
      </trkpt>
      <trkpt lat="48.62082" lon="1.97348">
        <ele>116</ele>
        <time>2010-03-19T11:30:35Z</time>
      </trkpt>
      <trkpt lat="48.62083" lon="1.97353">
        <ele>116</ele>
        <time>2010-03-19T11:30:36Z</time>
      </trkpt>
      <trkpt lat="48.62086" lon="1.97359">
        <ele>116</ele>
        <time>2010-03-19T11:30:37Z</time>
      </trkpt>
      <trkpt lat="48.62089" lon="1.97364">
        <ele>116</ele>
        <time>2010-03-19T11:30:38Z</time>
      </trkpt>
      <trkpt lat="48.62092" lon="1.9737">
        <ele>117</ele>
        <time>2010-03-19T11:30:39Z</time>
      </trkpt>
      <trkpt lat="48.62095" lon="1.97375">
        <ele>117</ele>
        <time>2010-03-19T11:30:40Z</time>
      </trkpt>
      <trkpt lat="48.62097" lon="1.9738">
        <ele>118</ele>
        <time>2010-03-19T11:30:41Z</time>
      </trkpt>
      <trkpt lat="48.62099" lon="1.97385">
        <ele>118</ele>
        <time>2010-03-19T11:30:42Z</time>
      </trkpt>
      <trkpt lat="48.62102" lon="1.9739">
        <ele>119</ele>
        <time>2010-03-19T11:30:43Z</time>
      </trkpt>
      <trkpt lat="48.62104" lon="1.97394">
        <ele>119</ele>
        <time>2010-03-19T11:30:44Z</time>
      </trkpt>
      <trkpt lat="48.62106" lon="1.97398">
        <ele>119</ele>
        <time>2010-03-19T11:30:45Z</time>
      </trkpt>
      <trkpt lat="48.62108" lon="1.97402">
        <ele>119</ele>
        <time>2010-03-19T11:30:46Z</time>
      </trkpt>
      <trkpt lat="48.6211" lon="1.97405">
        <ele>119</ele>
        <time>2010-03-19T11:30:47Z</time>
      </trkpt>
      <trkpt lat="48.62112" lon="1.97408">
        <ele>119</ele>
        <time>2010-03-19T11:30:48Z</time>
      </trkpt>
      <trkpt lat="48.62114" lon="1.97412">
        <ele>119</ele>
        <time>2010-03-19T11:30:49Z</time>
      </trkpt>
      <trkpt lat="48.62115" lon="1.97416">
        <ele>119</ele>
        <time>2010-03-19T11:30:50Z</time>
      </trkpt>
      <trkpt lat="48.62117" lon="1.97418">
        <ele>119</ele>
        <time>2010-03-19T11:30:51Z</time>
      </trkpt>
      <trkpt lat="48.6212" lon="1.9742">
        <ele>119</ele>
        <time>2010-03-19T11:30:52Z</time>
      </trkpt>
      <trkpt lat="48.62122" lon="1.97419">
        <ele>119</ele>
        <time>2010-03-19T11:30:53Z</time>
      </trkpt>
      <trkpt lat="48.62123" lon="1.97417">
        <ele>119</ele>
        <time>2010-03-19T11:30:54Z</time>
      </trkpt>
      <trkpt lat="48.62125" lon="1.97415">
        <ele>119</ele>
        <time>2010-03-19T11:30:55Z</time>
      </trkpt>
      <trkpt lat="48.62127" lon="1.97413">
        <ele>120</ele>
        <time>2010-03-19T11:30:56Z</time>
      </trkpt>
      <trkpt lat="48.62128" lon="1.97411">
        <ele>120</ele>
        <time>2010-03-19T11:30:57Z</time>
      </trkpt>
      <trkpt lat="48.6213" lon="1.97409">
        <ele>121</ele>
        <time>2010-03-19T11:30:59Z</time>
      </trkpt>
      <trkpt lat="48.62128" lon="1.97411">
        <ele>121</ele>
        <time>2010-03-19T11:31:03Z</time>
      </trkpt>
      <trkpt lat="48.62127" lon="1.97413">
        <ele>121</ele>
        <time>2010-03-19T11:31:04Z</time>
      </trkpt>
      <trkpt lat="48.62126" lon="1.97415">
        <ele>121</ele>
        <time>2010-03-19T11:31:05Z</time>
      </trkpt>
      <trkpt lat="48.62125" lon="1.97417">
        <ele>121</ele>
        <time>2010-03-19T11:31:06Z</time>
      </trkpt>
      <trkpt lat="48.62125" lon="1.9742">
        <ele>121</ele>
        <time>2010-03-19T11:31:07Z</time>
      </trkpt>
      <trkpt lat="48.62125" lon="1.97422">
        <ele>121</ele>
        <time>2010-03-19T11:31:08Z</time>
      </trkpt>
      <trkpt lat="48.62127" lon="1.97425">
        <ele>121</ele>
        <time>2010-03-19T11:31:09Z</time>
      </trkpt>
      <trkpt lat="48.62128" lon="1.97426">
        <ele>121</ele>
        <time>2010-03-19T11:31:10Z</time>
      </trkpt>
      <trkpt lat="48.6213" lon="1.97427">
        <ele>121</ele>
        <time>2010-03-19T11:31:11Z</time>
      </trkpt>
      <trkpt lat="48.62132" lon="1.97428">
        <ele>121</ele>
        <time>2010-03-19T11:31:12Z</time>
      </trkpt>
      <trkpt lat="48.62134" lon="1.9743">
        <ele>121</ele>
        <time>2010-03-19T11:31:13Z</time>
      </trkpt>
      <trkpt lat="48.62135" lon="1.97432">
        <ele>121</ele>
        <time>2010-03-19T11:31:14Z</time>
      </trkpt>
      <trkpt lat="48.62137" lon="1.97433">
        <ele>121</ele>
        <time>2010-03-19T11:31:15Z</time>
      </trkpt>
      <trkpt lat="48.62138" lon="1.97435">
        <ele>121</ele>
        <time>2010-03-19T11:31:16Z</time>
      </trkpt>
      <trkpt lat="48.6214" lon="1.97437">
        <ele>121</ele>
        <time>2010-03-19T11:31:17Z</time>
      </trkpt>
      <trkpt lat="48.62142" lon="1.97439">
        <ele>121</ele>
        <time>2010-03-19T11:31:18Z</time>
      </trkpt>
      <trkpt lat="48.62144" lon="1.9744">
        <ele>121</ele>
        <time>2010-03-19T11:31:19Z</time>
      </trkpt>
      <trkpt lat="48.62146" lon="1.97441">
        <ele>121</ele>
        <time>2010-03-19T11:31:20Z</time>
      </trkpt>
      <trkpt lat="48.62148" lon="1.97443">
        <ele>121</ele>
        <time>2010-03-19T11:31:21Z</time>
      </trkpt>
      <trkpt lat="48.62149" lon="1.97443">
        <ele>121</ele>
        <time>2010-03-19T11:31:22Z</time>
      </trkpt>
      <trkpt lat="48.62152" lon="1.97444">
        <ele>121</ele>
        <time>2010-03-19T11:31:23Z</time>
      </trkpt>
      <trkpt lat="48.62154" lon="1.97445">
        <ele>121</ele>
        <time>2010-03-19T11:31:24Z</time>
      </trkpt>
      <trkpt lat="48.62156" lon="1.97447">
        <ele>121</ele>
        <time>2010-03-19T11:31:26Z</time>
      </trkpt>
      <trkpt lat="48.62157" lon="1.97449">
        <ele>121</ele>
        <time>2010-03-19T11:31:27Z</time>
      </trkpt>
      <trkpt lat="48.62159" lon="1.9745">
        <ele>121</ele>
        <time>2010-03-19T11:31:28Z</time>
      </trkpt>
      <trkpt lat="48.6216" lon="1.9745">
        <ele>121</ele>
        <time>2010-03-19T11:31:29Z</time>
      </trkpt>
      <trkpt lat="48.62162" lon="1.97451">
        <ele>121</ele>
        <time>2010-03-19T11:31:30Z</time>
      </trkpt>
      <trkpt lat="48.62164" lon="1.97452">
        <ele>121</ele>
        <time>2010-03-19T11:31:31Z</time>
      </trkpt>
      <trkpt lat="48.62165" lon="1.97454">
        <ele>121</ele>
        <time>2010-03-19T11:31:32Z</time>
      </trkpt>
      <trkpt lat="48.62167" lon="1.97455">
        <ele>121</ele>
        <time>2010-03-19T11:31:33Z</time>
      </trkpt>
      <trkpt lat="48.62169" lon="1.97456">
        <ele>121</ele>
        <time>2010-03-19T11:31:34Z</time>
      </trkpt>
      <trkpt lat="48.6217" lon="1.97458">
        <ele>121</ele>
        <time>2010-03-19T11:31:35Z</time>
      </trkpt>
      <trkpt lat="48.62172" lon="1.97459">
        <ele>121</ele>
        <time>2010-03-19T11:31:36Z</time>
      </trkpt>
      <trkpt lat="48.62173" lon="1.97459">
        <ele>121</ele>
        <time>2010-03-19T11:31:37Z</time>
      </trkpt>
      <trkpt lat="48.62175" lon="1.9746">
        <ele>121</ele>
        <time>2010-03-19T11:31:38Z</time>
      </trkpt>
      <trkpt lat="48.62177" lon="1.97462">
        <ele>121</ele>
        <time>2010-03-19T11:31:39Z</time>
      </trkpt>
      <trkpt lat="48.62178" lon="1.97463">
        <ele>121</ele>
        <time>2010-03-19T11:31:40Z</time>
      </trkpt>
      <trkpt lat="48.6218" lon="1.97464">
        <ele>121</ele>
        <time>2010-03-19T11:31:41Z</time>
      </trkpt>
      <trkpt lat="48.62181" lon="1.97465">
        <ele>121</ele>
        <time>2010-03-19T11:31:42Z</time>
      </trkpt>
      <trkpt lat="48.62182" lon="1.97466">
        <ele>121</ele>
        <time>2010-03-19T11:31:43Z</time>
      </trkpt>
      <trkpt lat="48.62184" lon="1.97467">
        <ele>121</ele>
        <time>2010-03-19T11:31:44Z</time>
      </trkpt>
      <trkpt lat="48.62186" lon="1.97468">
        <ele>121</ele>
        <time>2010-03-19T11:31:45Z</time>
      </trkpt>
      <trkpt lat="48.62187" lon="1.97469">
        <ele>121</ele>
        <time>2010-03-19T11:31:46Z</time>
      </trkpt>
      <trkpt lat="48.62189" lon="1.9747">
        <ele>121</ele>
        <time>2010-03-19T11:31:47Z</time>
      </trkpt>
      <trkpt lat="48.62189" lon="1.97472">
        <ele>121</ele>
        <time>2010-03-19T11:31:48Z</time>
      </trkpt>
      <trkpt lat="48.62191" lon="1.97473">
        <ele>121</ele>
        <time>2010-03-19T11:31:49Z</time>
      </trkpt>
      <trkpt lat="48.62193" lon="1.97474">
        <ele>121</ele>
        <time>2010-03-19T11:31:50Z</time>
      </trkpt>
      <trkpt lat="48.62194" lon="1.97476">
        <ele>121</ele>
        <time>2010-03-19T11:31:51Z</time>
      </trkpt>
      <trkpt lat="48.62196" lon="1.97477">
        <ele>121</ele>
        <time>2010-03-19T11:31:52Z</time>
      </trkpt>
      <trkpt lat="48.62197" lon="1.97477">
        <ele>121</ele>
        <time>2010-03-19T11:31:53Z</time>
      </trkpt>
      <trkpt lat="48.62199" lon="1.97478">
        <ele>121</ele>
        <time>2010-03-19T11:31:54Z</time>
      </trkpt>
      <trkpt lat="48.62201" lon="1.97479">
        <ele>121</ele>
        <time>2010-03-19T11:31:55Z</time>
      </trkpt>
      <trkpt lat="48.62202" lon="1.9748">
        <ele>121</ele>
        <time>2010-03-19T11:31:56Z</time>
      </trkpt>
      <trkpt lat="48.62204" lon="1.97481">
        <ele>121</ele>
        <time>2010-03-19T11:31:57Z</time>
      </trkpt>
      <trkpt lat="48.62205" lon="1.97482">
        <ele>121</ele>
        <time>2010-03-19T11:31:58Z</time>
      </trkpt>
      <trkpt lat="48.62206" lon="1.97483">
        <ele>121</ele>
        <time>2010-03-19T11:31:59Z</time>
      </trkpt>
      <trkpt lat="48.62208" lon="1.97485">
        <ele>121</ele>
        <time>2010-03-19T11:32:00Z</time>
      </trkpt>
      <trkpt lat="48.6221" lon="1.97486">
        <ele>121</ele>
        <time>2010-03-19T11:32:01Z</time>
      </trkpt>
      <trkpt lat="48.62211" lon="1.97487">
        <ele>121</ele>
        <time>2010-03-19T11:32:02Z</time>
      </trkpt>
      <trkpt lat="48.62212" lon="1.97489">
        <ele>121</ele>
        <time>2010-03-19T11:32:03Z</time>
      </trkpt>
      <trkpt lat="48.62214" lon="1.9749">
        <ele>121</ele>
        <time>2010-03-19T11:32:04Z</time>
      </trkpt>
      <trkpt lat="48.62215" lon="1.97492">
        <ele>121</ele>
        <time>2010-03-19T11:32:06Z</time>
      </trkpt>
      <trkpt lat="48.62217" lon="1.97494">
        <ele>121</ele>
        <time>2010-03-19T11:32:07Z</time>
      </trkpt>
      <trkpt lat="48.62218" lon="1.97495">
        <ele>121</ele>
        <time>2010-03-19T11:32:08Z</time>
      </trkpt>
      <trkpt lat="48.62219" lon="1.97496">
        <ele>121</ele>
        <time>2010-03-19T11:32:09Z</time>
      </trkpt>
      <trkpt lat="48.6222" lon="1.97497">
        <ele>121</ele>
        <time>2010-03-19T11:32:10Z</time>
      </trkpt>
      <trkpt lat="48.62222" lon="1.97498">
        <ele>121</ele>
        <time>2010-03-19T11:32:11Z</time>
      </trkpt>
      <trkpt lat="48.62222" lon="1.975">
        <ele>121</ele>
        <time>2010-03-19T11:32:12Z</time>
      </trkpt>
      <trkpt lat="48.62221" lon="1.97499">
        <ele>121</ele>
        <time>2010-03-19T11:32:16Z</time>
      </trkpt>
      <trkpt lat="48.6222" lon="1.97498">
        <ele>121</ele>
        <time>2010-03-19T11:32:17Z</time>
      </trkpt>
      <trkpt lat="48.62219" lon="1.97496">
        <ele>121</ele>
        <time>2010-03-19T11:32:18Z</time>
      </trkpt>
      <trkpt lat="48.62218" lon="1.97496">
        <ele>121</ele>
        <time>2010-03-19T11:32:19Z</time>
      </trkpt>
      <trkpt lat="48.62219" lon="1.97497">
        <ele>121</ele>
        <time>2010-03-19T11:32:22Z</time>
      </trkpt>
      <trkpt lat="48.6222" lon="1.97495">
        <ele>121</ele>
        <time>2010-03-19T11:32:25Z</time>
      </trkpt>
      <trkpt lat="48.62218" lon="1.97494">
        <ele>121</ele>
        <time>2010-03-19T11:32:26Z</time>
      </trkpt>
      <trkpt lat="48.62217" lon="1.97493">
        <ele>121</ele>
        <time>2010-03-19T11:32:27Z</time>
      </trkpt>
      <trkpt lat="48.62215" lon="1.97492">
        <ele>121</ele>
        <time>2010-03-19T11:32:28Z</time>
      </trkpt>
      <trkpt lat="48.62214" lon="1.9749">
        <ele>121</ele>
        <time>2010-03-19T11:32:29Z</time>
      </trkpt>
      <trkpt lat="48.62212" lon="1.97488">
        <ele>121</ele>
        <time>2010-03-19T11:32:30Z</time>
      </trkpt>
      <trkpt lat="48.62211" lon="1.97486">
        <ele>121</ele>
        <time>2010-03-19T11:32:31Z</time>
      </trkpt>
      <trkpt lat="48.62209" lon="1.97485">
        <ele>121</ele>
        <time>2010-03-19T11:32:32Z</time>
      </trkpt>
      <trkpt lat="48.62207" lon="1.97484">
        <ele>121</ele>
        <time>2010-03-19T11:32:33Z</time>
      </trkpt>
      <trkpt lat="48.62206" lon="1.97483">
        <ele>121</ele>
        <time>2010-03-19T11:32:34Z</time>
      </trkpt>
      <trkpt lat="48.62205" lon="1.97482">
        <ele>121</ele>
        <time>2010-03-19T11:32:35Z</time>
      </trkpt>
      <trkpt lat="48.62204" lon="1.97481">
        <ele>121</ele>
        <time>2010-03-19T11:32:36Z</time>
      </trkpt>
      <trkpt lat="48.62202" lon="1.9748">
        <ele>121</ele>
        <time>2010-03-19T11:32:37Z</time>
      </trkpt>
      <trkpt lat="48.62201" lon="1.97479">
        <ele>121</ele>
        <time>2010-03-19T11:32:38Z</time>
      </trkpt>
      <trkpt lat="48.622" lon="1.97478">
        <ele>121</ele>
        <time>2010-03-19T11:32:39Z</time>
      </trkpt>
      <trkpt lat="48.62198" lon="1.97477">
        <ele>121</ele>
        <time>2010-03-19T11:32:40Z</time>
      </trkpt>
      <trkpt lat="48.62196" lon="1.97476">
        <ele>121</ele>
        <time>2010-03-19T11:32:41Z</time>
      </trkpt>
      <trkpt lat="48.62195" lon="1.97476">
        <ele>121</ele>
        <time>2010-03-19T11:32:42Z</time>
      </trkpt>
      <trkpt lat="48.62194" lon="1.97475">
        <ele>121</ele>
        <time>2010-03-19T11:32:43Z</time>
      </trkpt>
      <trkpt lat="48.62193" lon="1.97474">
        <ele>121</ele>
        <time>2010-03-19T11:32:44Z</time>
      </trkpt>
      <trkpt lat="48.62191" lon="1.97473">
        <ele>121</ele>
        <time>2010-03-19T11:32:45Z</time>
      </trkpt>
      <trkpt lat="48.62189" lon="1.97472">
        <ele>121</ele>
        <time>2010-03-19T11:32:46Z</time>
      </trkpt>
      <trkpt lat="48.62188" lon="1.97471">
        <ele>121</ele>
        <time>2010-03-19T11:32:47Z</time>
      </trkpt>
      <trkpt lat="48.62187" lon="1.9747">
        <ele>121</ele>
        <time>2010-03-19T11:32:48Z</time>
      </trkpt>
      <trkpt lat="48.62185" lon="1.97469">
        <ele>121</ele>
        <time>2010-03-19T11:32:49Z</time>
      </trkpt>
      <trkpt lat="48.62183" lon="1.97468">
        <ele>120</ele>
        <time>2010-03-19T11:32:50Z</time>
      </trkpt>
      <trkpt lat="48.62182" lon="1.97468">
        <ele>120</ele>
        <time>2010-03-19T11:32:51Z</time>
      </trkpt>
      <trkpt lat="48.6218" lon="1.97467">
        <ele>120</ele>
        <time>2010-03-19T11:32:52Z</time>
      </trkpt>
      <trkpt lat="48.62179" lon="1.97466">
        <ele>120</ele>
        <time>2010-03-19T11:32:53Z</time>
      </trkpt>
      <trkpt lat="48.62178" lon="1.97466">
        <ele>120</ele>
        <time>2010-03-19T11:32:54Z</time>
      </trkpt>
      <trkpt lat="48.62177" lon="1.97464">
        <ele>120</ele>
        <time>2010-03-19T11:32:55Z</time>
      </trkpt>
      <trkpt lat="48.62175" lon="1.97463">
        <ele>120</ele>
        <time>2010-03-19T11:32:56Z</time>
      </trkpt>
      <trkpt lat="48.62173" lon="1.97462">
        <ele>120</ele>
        <time>2010-03-19T11:32:57Z</time>
      </trkpt>
      <trkpt lat="48.62172" lon="1.97461">
        <ele>120</ele>
        <time>2010-03-19T11:32:58Z</time>
      </trkpt>
      <trkpt lat="48.6217" lon="1.9746">
        <ele>120</ele>
        <time>2010-03-19T11:32:59Z</time>
      </trkpt>
      <trkpt lat="48.62169" lon="1.97459">
        <ele>120</ele>
        <time>2010-03-19T11:33:00Z</time>
      </trkpt>
      <trkpt lat="48.62168" lon="1.97458">
        <ele>120</ele>
        <time>2010-03-19T11:33:01Z</time>
      </trkpt>
      <trkpt lat="48.62166" lon="1.97457">
        <ele>120</ele>
        <time>2010-03-19T11:33:02Z</time>
      </trkpt>
      <trkpt lat="48.62165" lon="1.97456">
        <ele>120</ele>
        <time>2010-03-19T11:33:03Z</time>
      </trkpt>
      <trkpt lat="48.62163" lon="1.97455">
        <ele>120</ele>
        <time>2010-03-19T11:33:04Z</time>
      </trkpt>
      <trkpt lat="48.62162" lon="1.97455">
        <ele>120</ele>
        <time>2010-03-19T11:33:05Z</time>
      </trkpt>
      <trkpt lat="48.6216" lon="1.97454">
        <ele>120</ele>
        <time>2010-03-19T11:33:06Z</time>
      </trkpt>
      <trkpt lat="48.62159" lon="1.97453">
        <ele>120</ele>
        <time>2010-03-19T11:33:07Z</time>
      </trkpt>
      <trkpt lat="48.62157" lon="1.97452">
        <ele>120</ele>
        <time>2010-03-19T11:33:08Z</time>
      </trkpt>
      <trkpt lat="48.62156" lon="1.97451">
        <ele>120</ele>
        <time>2010-03-19T11:33:09Z</time>
      </trkpt>
      <trkpt lat="48.62154" lon="1.9745">
        <ele>120</ele>
        <time>2010-03-19T11:33:10Z</time>
      </trkpt>
      <trkpt lat="48.62152" lon="1.97449">
        <ele>120</ele>
        <time>2010-03-19T11:33:11Z</time>
      </trkpt>
      <trkpt lat="48.62151" lon="1.97448">
        <ele>120</ele>
        <time>2010-03-19T11:33:12Z</time>
      </trkpt>
      <trkpt lat="48.62149" lon="1.97446">
        <ele>120</ele>
        <time>2010-03-19T11:33:13Z</time>
      </trkpt>
      <trkpt lat="48.62148" lon="1.97445">
        <ele>120</ele>
        <time>2010-03-19T11:33:14Z</time>
      </trkpt>
      <trkpt lat="48.62147" lon="1.97444">
        <ele>120</ele>
        <time>2010-03-19T11:33:15Z</time>
      </trkpt>
      <trkpt lat="48.62146" lon="1.97443">
        <ele>120</ele>
        <time>2010-03-19T11:33:16Z</time>
      </trkpt>
      <trkpt lat="48.62144" lon="1.97443">
        <ele>120</ele>
        <time>2010-03-19T11:33:17Z</time>
      </trkpt>
      <trkpt lat="48.62143" lon="1.97443">
        <ele>120</ele>
        <time>2010-03-19T11:33:18Z</time>
      </trkpt>
      <trkpt lat="48.62141" lon="1.97442">
        <ele>120</ele>
        <time>2010-03-19T11:33:19Z</time>
      </trkpt>
      <trkpt lat="48.6214" lon="1.97441">
        <ele>120</ele>
        <time>2010-03-19T11:33:20Z</time>
      </trkpt>
      <trkpt lat="48.62138" lon="1.9744">
        <ele>120</ele>
        <time>2010-03-19T11:33:21Z</time>
      </trkpt>
      <trkpt lat="48.62137" lon="1.97439">
        <ele>120</ele>
        <time>2010-03-19T11:33:22Z</time>
      </trkpt>
      <trkpt lat="48.62135" lon="1.97438">
        <ele>120</ele>
        <time>2010-03-19T11:33:23Z</time>
      </trkpt>
      <trkpt lat="48.62133" lon="1.97438">
        <ele>120</ele>
        <time>2010-03-19T11:33:24Z</time>
      </trkpt>
      <trkpt lat="48.62132" lon="1.97436">
        <ele>120</ele>
        <time>2010-03-19T11:33:25Z</time>
      </trkpt>
      <trkpt lat="48.6213" lon="1.97435">
        <ele>120</ele>
        <time>2010-03-19T11:33:26Z</time>
      </trkpt>
      <trkpt lat="48.62128" lon="1.97433">
        <ele>120</ele>
        <time>2010-03-19T11:33:27Z</time>
      </trkpt>
      <trkpt lat="48.62127" lon="1.97431">
        <ele>120</ele>
        <time>2010-03-19T11:33:28Z</time>
      </trkpt>
      <trkpt lat="48.62126" lon="1.97429">
        <ele>120</ele>
        <time>2010-03-19T11:33:29Z</time>
      </trkpt>
      <trkpt lat="48.62125" lon="1.97426">
        <ele>120</ele>
        <time>2010-03-19T11:33:30Z</time>
      </trkpt>
      <trkpt lat="48.62124" lon="1.97424">
        <ele>120</ele>
        <time>2010-03-19T11:33:31Z</time>
      </trkpt>
      <trkpt lat="48.62124" lon="1.97422">
        <ele>120</ele>
        <time>2010-03-19T11:33:32Z</time>
      </trkpt>
      <trkpt lat="48.62124" lon="1.9742">
        <ele>121</ele>
        <time>2010-03-19T11:33:34Z</time>
      </trkpt>
      <trkpt lat="48.62126" lon="1.97421">
        <ele>122</ele>
        <time>2010-03-19T11:33:38Z</time>
      </trkpt>
      <trkpt lat="48.62125" lon="1.97418">
        <ele>124</ele>
        <time>2010-03-19T11:33:42Z</time>
      </trkpt>
      <trkpt lat="48.62127" lon="1.97416">
        <ele>124</ele>
        <time>2010-03-19T11:33:43Z</time>
      </trkpt>
      <trkpt lat="48.62128" lon="1.97415">
        <ele>124</ele>
        <time>2010-03-19T11:33:44Z</time>
      </trkpt>
      <trkpt lat="48.62129" lon="1.97414">
        <ele>124</ele>
        <time>2010-03-19T11:33:45Z</time>
      </trkpt>
      <trkpt lat="48.6213" lon="1.97412">
        <ele>124</ele>
        <time>2010-03-19T11:33:46Z</time>
      </trkpt>
      <trkpt lat="48.62132" lon="1.9741">
        <ele>124</ele>
        <time>2010-03-19T11:33:47Z</time>
      </trkpt>
      <trkpt lat="48.62133" lon="1.97408">
        <ele>124</ele>
        <time>2010-03-19T11:33:48Z</time>
      </trkpt>
      <trkpt lat="48.62134" lon="1.97406">
        <ele>124</ele>
        <time>2010-03-19T11:33:49Z</time>
      </trkpt>
      <trkpt lat="48.62135" lon="1.97404">
        <ele>124</ele>
        <time>2010-03-19T11:33:50Z</time>
      </trkpt>
      <trkpt lat="48.62136" lon="1.97401">
        <ele>124</ele>
        <time>2010-03-19T11:33:51Z</time>
      </trkpt>
      <trkpt lat="48.62136" lon="1.97399">
        <ele>124</ele>
        <time>2010-03-19T11:33:52Z</time>
      </trkpt>
      <trkpt lat="48.62136" lon="1.97397">
        <ele>124</ele>
        <time>2010-03-19T11:33:53Z</time>
      </trkpt>
      <trkpt lat="48.62137" lon="1.97395">
        <ele>124</ele>
        <time>2010-03-19T11:33:54Z</time>
      </trkpt>
      <trkpt lat="48.62138" lon="1.97392">
        <ele>124</ele>
        <time>2010-03-19T11:33:55Z</time>
      </trkpt>
      <trkpt lat="48.62138" lon="1.97389">
        <ele>124</ele>
        <time>2010-03-19T11:33:56Z</time>
      </trkpt>
      <trkpt lat="48.62138" lon="1.97387">
        <ele>124</ele>
        <time>2010-03-19T11:33:57Z</time>
      </trkpt>
      <trkpt lat="48.6214" lon="1.97385">
        <ele>124</ele>
        <time>2010-03-19T11:33:58Z</time>
      </trkpt>
      <trkpt lat="48.6214" lon="1.97382">
        <ele>124</ele>
        <time>2010-03-19T11:33:59Z</time>
      </trkpt>
      <trkpt lat="48.62141" lon="1.97379">
        <ele>124</ele>
        <time>2010-03-19T11:34:00Z</time>
      </trkpt>
      <trkpt lat="48.62143" lon="1.97376">
        <ele>124</ele>
        <time>2010-03-19T11:34:01Z</time>
      </trkpt>
      <trkpt lat="48.62143" lon="1.97374">
        <ele>124</ele>
        <time>2010-03-19T11:34:02Z</time>
      </trkpt>
      <trkpt lat="48.62144" lon="1.97372">
        <ele>124</ele>
        <time>2010-03-19T11:34:03Z</time>
      </trkpt>
      <trkpt lat="48.62144" lon="1.97369">
        <ele>124</ele>
        <time>2010-03-19T11:34:04Z</time>
      </trkpt>
      <trkpt lat="48.62146" lon="1.97367">
        <ele>124</ele>
        <time>2010-03-19T11:34:05Z</time>
      </trkpt>
      <trkpt lat="48.62146" lon="1.97364">
        <ele>124</ele>
        <time>2010-03-19T11:34:06Z</time>
      </trkpt>
      <trkpt lat="48.62147" lon="1.97361">
        <ele>124</ele>
        <time>2010-03-19T11:34:07Z</time>
      </trkpt>
      <trkpt lat="48.62148" lon="1.97359">
        <ele>124</ele>
        <time>2010-03-19T11:34:08Z</time>
      </trkpt>
      <trkpt lat="48.62149" lon="1.97357">
        <ele>124</ele>
        <time>2010-03-19T11:34:09Z</time>
      </trkpt>
      <trkpt lat="48.62149" lon="1.97354">
        <ele>124</ele>
        <time>2010-03-19T11:34:10Z</time>
      </trkpt>
      <trkpt lat="48.62151" lon="1.97351">
        <ele>124</ele>
        <time>2010-03-19T11:34:11Z</time>
      </trkpt>
      <trkpt lat="48.62151" lon="1.97348">
        <ele>125</ele>
        <time>2010-03-19T11:34:12Z</time>
      </trkpt>
      <trkpt lat="48.62152" lon="1.97345">
        <ele>125</ele>
        <time>2010-03-19T11:34:13Z</time>
      </trkpt>
      <trkpt lat="48.62152" lon="1.97343">
        <ele>126</ele>
        <time>2010-03-19T11:34:14Z</time>
      </trkpt>
      <trkpt lat="48.62154" lon="1.97341">
        <ele>126</ele>
        <time>2010-03-19T11:34:15Z</time>
      </trkpt>
      <trkpt lat="48.62156" lon="1.97339">
        <ele>126</ele>
        <time>2010-03-19T11:34:16Z</time>
      </trkpt>
      <trkpt lat="48.62157" lon="1.97336">
        <ele>126</ele>
        <time>2010-03-19T11:34:17Z</time>
      </trkpt>
      <trkpt lat="48.6216" lon="1.97333">
        <ele>126</ele>
        <time>2010-03-19T11:34:18Z</time>
      </trkpt>
      <trkpt lat="48.62162" lon="1.9733">
        <ele>126</ele>
        <time>2010-03-19T11:34:19Z</time>
      </trkpt>
      <trkpt lat="48.62164" lon="1.97327">
        <ele>126</ele>
        <time>2010-03-19T11:34:20Z</time>
      </trkpt>
      <trkpt lat="48.62166" lon="1.97324">
        <ele>126</ele>
        <time>2010-03-19T11:34:21Z</time>
      </trkpt>
      <trkpt lat="48.62169" lon="1.97319">
        <ele>126</ele>
        <time>2010-03-19T11:34:22Z</time>
      </trkpt>
      <trkpt lat="48.62172" lon="1.97315">
        <ele>126</ele>
        <time>2010-03-19T11:34:23Z</time>
      </trkpt>
      <trkpt lat="48.62175" lon="1.97311">
        <ele>126</ele>
        <time>2010-03-19T11:34:24Z</time>
      </trkpt>
      <trkpt lat="48.62178" lon="1.97308">
        <ele>126</ele>
        <time>2010-03-19T11:34:25Z</time>
      </trkpt>
      <trkpt lat="48.62181" lon="1.97305">
        <ele>126</ele>
        <time>2010-03-19T11:34:26Z</time>
      </trkpt>
      <trkpt lat="48.62186" lon="1.97302">
        <ele>126</ele>
        <time>2010-03-19T11:34:27Z</time>
      </trkpt>
      <trkpt lat="48.62189" lon="1.97299">
        <ele>126</ele>
        <time>2010-03-19T11:34:28Z</time>
      </trkpt>
      <trkpt lat="48.62193" lon="1.97297">
        <ele>126</ele>
        <time>2010-03-19T11:34:29Z</time>
      </trkpt>
      <trkpt lat="48.62196" lon="1.97293">
        <ele>126</ele>
        <time>2010-03-19T11:34:30Z</time>
      </trkpt>
      <trkpt lat="48.622" lon="1.97289">
        <ele>126</ele>
        <time>2010-03-19T11:34:31Z</time>
      </trkpt>
      <trkpt lat="48.62203" lon="1.97285">
        <ele>126</ele>
        <time>2010-03-19T11:34:32Z</time>
      </trkpt>
      <trkpt lat="48.62206" lon="1.97282">
        <ele>126</ele>
        <time>2010-03-19T11:34:33Z</time>
      </trkpt>
      <trkpt lat="48.62209" lon="1.97279">
        <ele>126</ele>
        <time>2010-03-19T11:34:34Z</time>
      </trkpt>
      <trkpt lat="48.62212" lon="1.97276">
        <ele>126</ele>
        <time>2010-03-19T11:34:35Z</time>
      </trkpt>
      <trkpt lat="48.62215" lon="1.97273">
        <ele>126</ele>
        <time>2010-03-19T11:34:36Z</time>
      </trkpt>
      <trkpt lat="48.62218" lon="1.97269">
        <ele>125</ele>
        <time>2010-03-19T11:34:37Z</time>
      </trkpt>
      <trkpt lat="48.62221" lon="1.97264">
        <ele>125</ele>
        <time>2010-03-19T11:34:38Z</time>
      </trkpt>
      <trkpt lat="48.62223" lon="1.9726">
        <ele>125</ele>
        <time>2010-03-19T11:34:39Z</time>
      </trkpt>
      <trkpt lat="48.62227" lon="1.97256">
        <ele>125</ele>
        <time>2010-03-19T11:34:40Z</time>
      </trkpt>
      <trkpt lat="48.6223" lon="1.97252">
        <ele>125</ele>
        <time>2010-03-19T11:34:41Z</time>
      </trkpt>
      <trkpt lat="48.62234" lon="1.97248">
        <ele>125</ele>
        <time>2010-03-19T11:34:42Z</time>
      </trkpt>
      <trkpt lat="48.62238" lon="1.97244">
        <ele>125</ele>
        <time>2010-03-19T11:34:43Z</time>
      </trkpt>
      <trkpt lat="48.62242" lon="1.9724">
        <ele>125</ele>
        <time>2010-03-19T11:34:44Z</time>
      </trkpt>
      <trkpt lat="48.62246" lon="1.97237">
        <ele>125</ele>
        <time>2010-03-19T11:34:45Z</time>
      </trkpt>
      <trkpt lat="48.6225" lon="1.97234">
        <ele>125</ele>
        <time>2010-03-19T11:34:46Z</time>
      </trkpt>
      <trkpt lat="48.62254" lon="1.97231">
        <ele>125</ele>
        <time>2010-03-19T11:34:47Z</time>
      </trkpt>
      <trkpt lat="48.62259" lon="1.97226">
        <ele>125</ele>
        <time>2010-03-19T11:34:48Z</time>
      </trkpt>
      <trkpt lat="48.62263" lon="1.9722">
        <ele>125</ele>
        <time>2010-03-19T11:34:49Z</time>
      </trkpt>
      <trkpt lat="48.62268" lon="1.97214">
        <ele>125</ele>
        <time>2010-03-19T11:34:50Z</time>
      </trkpt>
      <trkpt lat="48.62273" lon="1.97208">
        <ele>125</ele>
        <time>2010-03-19T11:34:51Z</time>
      </trkpt>
      <trkpt lat="48.62278" lon="1.97201">
        <ele>125</ele>
        <time>2010-03-19T11:34:52Z</time>
      </trkpt>
      <trkpt lat="48.62284" lon="1.97194">
        <ele>125</ele>
        <time>2010-03-19T11:34:53Z</time>
      </trkpt>
      <trkpt lat="48.62289" lon="1.97188">
        <ele>125</ele>
        <time>2010-03-19T11:34:54Z</time>
      </trkpt>
      <trkpt lat="48.62294" lon="1.97183">
        <ele>125</ele>
        <time>2010-03-19T11:34:55Z</time>
      </trkpt>
      <trkpt lat="48.62299" lon="1.97177">
        <ele>125</ele>
        <time>2010-03-19T11:34:56Z</time>
      </trkpt>
      <trkpt lat="48.62304" lon="1.97172">
        <ele>125</ele>
        <time>2010-03-19T11:34:57Z</time>
      </trkpt>
      <trkpt lat="48.62309" lon="1.97167">
        <ele>126</ele>
        <time>2010-03-19T11:34:58Z</time>
      </trkpt>
      <trkpt lat="48.62313" lon="1.97161">
        <ele>126</ele>
        <time>2010-03-19T11:34:59Z</time>
      </trkpt>
      <trkpt lat="48.62317" lon="1.97156">
        <ele>126</ele>
        <time>2010-03-19T11:35:00Z</time>
      </trkpt>
      <trkpt lat="48.62322" lon="1.97151">
        <ele>127</ele>
        <time>2010-03-19T11:35:01Z</time>
      </trkpt>
      <trkpt lat="48.62328" lon="1.97145">
        <ele>127</ele>
        <time>2010-03-19T11:35:02Z</time>
      </trkpt>
      <trkpt lat="48.62334" lon="1.97139">
        <ele>128</ele>
        <time>2010-03-19T11:35:03Z</time>
      </trkpt>
      <trkpt lat="48.62339" lon="1.97134">
        <ele>129</ele>
        <time>2010-03-19T11:35:04Z</time>
      </trkpt>
      <trkpt lat="48.62344" lon="1.97129">
        <ele>129</ele>
        <time>2010-03-19T11:35:05Z</time>
      </trkpt>
      <trkpt lat="48.6235" lon="1.97125">
        <ele>130</ele>
        <time>2010-03-19T11:35:06Z</time>
      </trkpt>
      <trkpt lat="48.62355" lon="1.97122">
        <ele>131</ele>
        <time>2010-03-19T11:35:07Z</time>
      </trkpt>
      <trkpt lat="48.6236" lon="1.97119">
        <ele>132</ele>
        <time>2010-03-19T11:35:08Z</time>
      </trkpt>
      <trkpt lat="48.62365" lon="1.97116">
        <ele>133</ele>
        <time>2010-03-19T11:35:09Z</time>
      </trkpt>
      <trkpt lat="48.62369" lon="1.97113">
        <ele>134</ele>
        <time>2010-03-19T11:35:10Z</time>
      </trkpt>
      <trkpt lat="48.62374" lon="1.9711">
        <ele>134</ele>
        <time>2010-03-19T11:35:11Z</time>
      </trkpt>
      <trkpt lat="48.6238" lon="1.97108">
        <ele>135</ele>
        <time>2010-03-19T11:35:12Z</time>
      </trkpt>
      <trkpt lat="48.62385" lon="1.97107">
        <ele>135</ele>
        <time>2010-03-19T11:35:13Z</time>
      </trkpt>
      <trkpt lat="48.6239" lon="1.97105">
        <ele>135</ele>
        <time>2010-03-19T11:35:14Z</time>
      </trkpt>
      <trkpt lat="48.62394" lon="1.97102">
        <ele>135</ele>
        <time>2010-03-19T11:35:15Z</time>
      </trkpt>
      <trkpt lat="48.62398" lon="1.971">
        <ele>136</ele>
        <time>2010-03-19T11:35:16Z</time>
      </trkpt>
      <trkpt lat="48.62401" lon="1.97099">
        <ele>136</ele>
        <time>2010-03-19T11:35:17Z</time>
      </trkpt>
      <trkpt lat="48.62404" lon="1.97098">
        <ele>137</ele>
        <time>2010-03-19T11:35:18Z</time>
      </trkpt>
      <trkpt lat="48.62407" lon="1.97096">
        <ele>137</ele>
        <time>2010-03-19T11:35:19Z</time>
      </trkpt>
      <trkpt lat="48.62409" lon="1.97095">
        <ele>138</ele>
        <time>2010-03-19T11:35:20Z</time>
      </trkpt>
      <trkpt lat="48.62412" lon="1.97093">
        <ele>139</ele>
        <time>2010-03-19T11:35:21Z</time>
      </trkpt>
      <trkpt lat="48.62415" lon="1.97091">
        <ele>139</ele>
        <time>2010-03-19T11:35:22Z</time>
      </trkpt>
      <trkpt lat="48.62418" lon="1.9709">
        <ele>139</ele>
        <time>2010-03-19T11:35:23Z</time>
      </trkpt>
      <trkpt lat="48.62421" lon="1.97089">
        <ele>140</ele>
        <time>2010-03-19T11:35:24Z</time>
      </trkpt>
      <trkpt lat="48.62425" lon="1.97087">
        <ele>140</ele>
        <time>2010-03-19T11:35:25Z</time>
      </trkpt>
      <trkpt lat="48.62428" lon="1.97084">
        <ele>140</ele>
        <time>2010-03-19T11:35:26Z</time>
      </trkpt>
      <trkpt lat="48.62432" lon="1.97083">
        <ele>140</ele>
        <time>2010-03-19T11:35:27Z</time>
      </trkpt>
      <trkpt lat="48.62436" lon="1.97082">
        <ele>140</ele>
        <time>2010-03-19T11:35:28Z</time>
      </trkpt>
      <trkpt lat="48.6244" lon="1.97081">
        <ele>140</ele>
        <time>2010-03-19T11:35:29Z</time>
      </trkpt>
      <trkpt lat="48.62444" lon="1.9708">
        <ele>140</ele>
        <time>2010-03-19T11:35:30Z</time>
      </trkpt>
      <trkpt lat="48.62448" lon="1.97079">
        <ele>140</ele>
        <time>2010-03-19T11:35:31Z</time>
      </trkpt>
      <trkpt lat="48.62451" lon="1.97079">
        <ele>140</ele>
        <time>2010-03-19T11:35:32Z</time>
      </trkpt>
      <trkpt lat="48.62454" lon="1.97079">
        <ele>140</ele>
        <time>2010-03-19T11:35:33Z</time>
      </trkpt>
      <trkpt lat="48.62458" lon="1.97079">
        <ele>140</ele>
        <time>2010-03-19T11:35:34Z</time>
      </trkpt>
      <trkpt lat="48.6246" lon="1.9708">
        <ele>140</ele>
        <time>2010-03-19T11:35:35Z</time>
      </trkpt>
      <trkpt lat="48.62464" lon="1.9708">
        <ele>140</ele>
        <time>2010-03-19T11:35:36Z</time>
      </trkpt>
      <trkpt lat="48.62468" lon="1.97081">
        <ele>140</ele>
        <time>2010-03-19T11:35:37Z</time>
      </trkpt>
      <trkpt lat="48.62471" lon="1.97081">
        <ele>140</ele>
        <time>2010-03-19T11:35:38Z</time>
      </trkpt>
      <trkpt lat="48.62476" lon="1.97082">
        <ele>140</ele>
        <time>2010-03-19T11:35:39Z</time>
      </trkpt>
      <trkpt lat="48.62481" lon="1.97082">
        <ele>140</ele>
        <time>2010-03-19T11:35:40Z</time>
      </trkpt>
      <trkpt lat="48.62485" lon="1.97083">
        <ele>140</ele>
        <time>2010-03-19T11:35:41Z</time>
      </trkpt>
      <trkpt lat="48.62489" lon="1.97084">
        <ele>140</ele>
        <time>2010-03-19T11:35:42Z</time>
      </trkpt>
      <trkpt lat="48.62494" lon="1.97085">
        <ele>140</ele>
        <time>2010-03-19T11:35:43Z</time>
      </trkpt>
      <trkpt lat="48.62498" lon="1.97086">
        <ele>140</ele>
        <time>2010-03-19T11:35:44Z</time>
      </trkpt>
      <trkpt lat="48.62502" lon="1.97088">
        <ele>140</ele>
        <time>2010-03-19T11:35:45Z</time>
      </trkpt>
      <trkpt lat="48.62507" lon="1.97088">
        <ele>140</ele>
        <time>2010-03-19T11:35:46Z</time>
      </trkpt>
      <trkpt lat="48.62513" lon="1.9709">
        <ele>140</ele>
        <time>2010-03-19T11:35:47Z</time>
      </trkpt>
      <trkpt lat="48.62518" lon="1.97091">
        <ele>140</ele>
        <time>2010-03-19T11:35:48Z</time>
      </trkpt>
      <trkpt lat="48.62523" lon="1.97093">
        <ele>140</ele>
        <time>2010-03-19T11:35:49Z</time>
      </trkpt>
      <trkpt lat="48.62528" lon="1.97096">
        <ele>140</ele>
        <time>2010-03-19T11:35:50Z</time>
      </trkpt>
      <trkpt lat="48.62534" lon="1.97098">
        <ele>140</ele>
        <time>2010-03-19T11:35:51Z</time>
      </trkpt>
      <trkpt lat="48.6254" lon="1.971">
        <ele>140</ele>
        <time>2010-03-19T11:35:52Z</time>
      </trkpt>
      <trkpt lat="48.62547" lon="1.97102">
        <ele>140</ele>
        <time>2010-03-19T11:35:53Z</time>
      </trkpt>
      <trkpt lat="48.62553" lon="1.97104">
        <ele>139</ele>
        <time>2010-03-19T11:35:54Z</time>
      </trkpt>
      <trkpt lat="48.62559" lon="1.97107">
        <ele>139</ele>
        <time>2010-03-19T11:35:55Z</time>
      </trkpt>
      <trkpt lat="48.62564" lon="1.97108">
        <ele>138</ele>
        <time>2010-03-19T11:35:56Z</time>
      </trkpt>
      <trkpt lat="48.62571" lon="1.9711">
        <ele>138</ele>
        <time>2010-03-19T11:35:57Z</time>
      </trkpt>
      <trkpt lat="48.62577" lon="1.97111">
        <ele>138</ele>
        <time>2010-03-19T11:35:58Z</time>
      </trkpt>
      <trkpt lat="48.62582" lon="1.97112">
        <ele>138</ele>
        <time>2010-03-19T11:35:59Z</time>
      </trkpt>
      <trkpt lat="48.62588" lon="1.97113">
        <ele>138</ele>
        <time>2010-03-19T11:36:00Z</time>
      </trkpt>
      <trkpt lat="48.62593" lon="1.97114">
        <ele>138</ele>
        <time>2010-03-19T11:36:01Z</time>
      </trkpt>
      <trkpt lat="48.62598" lon="1.97116">
        <ele>138</ele>
        <time>2010-03-19T11:36:02Z</time>
      </trkpt>
      <trkpt lat="48.62603" lon="1.97117">
        <ele>138</ele>
        <time>2010-03-19T11:36:03Z</time>
      </trkpt>
      <trkpt lat="48.62608" lon="1.97118">
        <ele>138</ele>
        <time>2010-03-19T11:36:04Z</time>
      </trkpt>
      <trkpt lat="48.62613" lon="1.97119">
        <ele>138</ele>
        <time>2010-03-19T11:36:05Z</time>
      </trkpt>
      <trkpt lat="48.62616" lon="1.9712">
        <ele>138</ele>
        <time>2010-03-19T11:36:06Z</time>
      </trkpt>
      <trkpt lat="48.6262" lon="1.97122">
        <ele>138</ele>
        <time>2010-03-19T11:36:07Z</time>
      </trkpt>
      <trkpt lat="48.62623" lon="1.97122">
        <ele>138</ele>
        <time>2010-03-19T11:36:08Z</time>
      </trkpt>
      <trkpt lat="48.62626" lon="1.97123">
        <ele>138</ele>
        <time>2010-03-19T11:36:09Z</time>
      </trkpt>
      <trkpt lat="48.6263" lon="1.97124">
        <ele>138</ele>
        <time>2010-03-19T11:36:10Z</time>
      </trkpt>
      <trkpt lat="48.62633" lon="1.97124">
        <ele>138</ele>
        <time>2010-03-19T11:36:11Z</time>
      </trkpt>
      <trkpt lat="48.62635" lon="1.97125">
        <ele>138</ele>
        <time>2010-03-19T11:36:12Z</time>
      </trkpt>
      <trkpt lat="48.62638" lon="1.97126">
        <ele>138</ele>
        <time>2010-03-19T11:36:13Z</time>
      </trkpt>
      <trkpt lat="48.6264" lon="1.97126">
        <ele>138</ele>
        <time>2010-03-19T11:36:14Z</time>
      </trkpt>
      <trkpt lat="48.62641" lon="1.97127">
        <ele>138</ele>
        <time>2010-03-19T11:36:15Z</time>
      </trkpt>
      <trkpt lat="48.62643" lon="1.97127">
        <ele>138</ele>
        <time>2010-03-19T11:36:16Z</time>
      </trkpt>
      <trkpt lat="48.62645" lon="1.97127">
        <ele>138</ele>
        <time>2010-03-19T11:36:17Z</time>
      </trkpt>
      <trkpt lat="48.62647" lon="1.97128">
        <ele>138</ele>
        <time>2010-03-19T11:36:18Z</time>
      </trkpt>
      <trkpt lat="48.62648" lon="1.97128">
        <ele>138</ele>
        <time>2010-03-19T11:36:19Z</time>
      </trkpt>
      <trkpt lat="48.6265" lon="1.97129">
        <ele>138</ele>
        <time>2010-03-19T11:36:20Z</time>
      </trkpt>
      <trkpt lat="48.62652" lon="1.9713">
        <ele>138</ele>
        <time>2010-03-19T11:36:21Z</time>
      </trkpt>
      <trkpt lat="48.62654" lon="1.9713">
        <ele>138</ele>
        <time>2010-03-19T11:36:22Z</time>
      </trkpt>
      <trkpt lat="48.62655" lon="1.9713">
        <ele>138</ele>
        <time>2010-03-19T11:36:23Z</time>
      </trkpt>
      <trkpt lat="48.62657" lon="1.9713">
        <ele>138</ele>
        <time>2010-03-19T11:36:24Z</time>
      </trkpt>
      <trkpt lat="48.62659" lon="1.97131">
        <ele>138</ele>
        <time>2010-03-19T11:36:25Z</time>
      </trkpt>
      <trkpt lat="48.6266" lon="1.97132">
        <ele>138</ele>
        <time>2010-03-19T11:36:26Z</time>
      </trkpt>
      <trkpt lat="48.62662" lon="1.97134">
        <ele>138</ele>
        <time>2010-03-19T11:36:27Z</time>
      </trkpt>
      <trkpt lat="48.62663" lon="1.97135">
        <ele>138</ele>
        <time>2010-03-19T11:36:28Z</time>
      </trkpt>
      <trkpt lat="48.62664" lon="1.97135">
        <ele>138</ele>
        <time>2010-03-19T11:36:29Z</time>
      </trkpt>
      <trkpt lat="48.62666" lon="1.97134">
        <ele>138</ele>
        <time>2010-03-19T11:36:30Z</time>
      </trkpt>
      <trkpt lat="48.62667" lon="1.97132">
        <ele>138</ele>
        <time>2010-03-19T11:36:31Z</time>
      </trkpt>
      <trkpt lat="48.62669" lon="1.9713">
        <ele>138</ele>
        <time>2010-03-19T11:36:32Z</time>
      </trkpt>
      <trkpt lat="48.62671" lon="1.97128">
        <ele>138</ele>
        <time>2010-03-19T11:36:34Z</time>
      </trkpt>
      <trkpt lat="48.62672" lon="1.9713">
        <ele>138</ele>
        <time>2010-03-19T11:36:36Z</time>
      </trkpt>
      <trkpt lat="48.62673" lon="1.97131">
        <ele>138</ele>
        <time>2010-03-19T11:36:37Z</time>
      </trkpt>
      <trkpt lat="48.62675" lon="1.97133">
        <ele>138</ele>
        <time>2010-03-19T11:36:38Z</time>
      </trkpt>
      <trkpt lat="48.62676" lon="1.97134">
        <ele>138</ele>
        <time>2010-03-19T11:36:39Z</time>
      </trkpt>
      <trkpt lat="48.62679" lon="1.97134">
        <ele>138</ele>
        <time>2010-03-19T11:36:40Z</time>
      </trkpt>
      <trkpt lat="48.6268" lon="1.97135">
        <ele>138</ele>
        <time>2010-03-19T11:36:41Z</time>
      </trkpt>
      <trkpt lat="48.62681" lon="1.97135">
        <ele>138</ele>
        <time>2010-03-19T11:36:42Z</time>
      </trkpt>
      <trkpt lat="48.62683" lon="1.97136">
        <ele>138</ele>
        <time>2010-03-19T11:36:43Z</time>
      </trkpt>
      <trkpt lat="48.62684" lon="1.97136">
        <ele>138</ele>
        <time>2010-03-19T11:36:44Z</time>
      </trkpt>
      <trkpt lat="48.62687" lon="1.97136">
        <ele>137</ele>
        <time>2010-03-19T11:36:45Z</time>
      </trkpt>
      <trkpt lat="48.62689" lon="1.97136">
        <ele>137</ele>
        <time>2010-03-19T11:36:46Z</time>
      </trkpt>
      <trkpt lat="48.62691" lon="1.97137">
        <ele>137</ele>
        <time>2010-03-19T11:36:47Z</time>
      </trkpt>
      <trkpt lat="48.62696" lon="1.97137">
        <ele>137</ele>
        <time>2010-03-19T11:36:48Z</time>
      </trkpt>
      <trkpt lat="48.627" lon="1.97137">
        <ele>137</ele>
        <time>2010-03-19T11:36:49Z</time>
      </trkpt>
      <trkpt lat="48.62704" lon="1.97138">
        <ele>137</ele>
        <time>2010-03-19T11:36:50Z</time>
      </trkpt>
      <trkpt lat="48.62708" lon="1.97138">
        <ele>137</ele>
        <time>2010-03-19T11:36:51Z</time>
      </trkpt>
      <trkpt lat="48.62712" lon="1.97138">
        <ele>137</ele>
        <time>2010-03-19T11:36:52Z</time>
      </trkpt>
      <trkpt lat="48.62716" lon="1.97138">
        <ele>137</ele>
        <time>2010-03-19T11:36:53Z</time>
      </trkpt>
      <trkpt lat="48.6272" lon="1.97138">
        <ele>137</ele>
        <time>2010-03-19T11:36:54Z</time>
      </trkpt>
      <trkpt lat="48.62724" lon="1.97139">
        <ele>137</ele>
        <time>2010-03-19T11:36:55Z</time>
      </trkpt>
      <trkpt lat="48.62728" lon="1.97139">
        <ele>137</ele>
        <time>2010-03-19T11:36:56Z</time>
      </trkpt>
      <trkpt lat="48.62732" lon="1.97139">
        <ele>137</ele>
        <time>2010-03-19T11:36:57Z</time>
      </trkpt>
      <trkpt lat="48.62736" lon="1.9714">
        <ele>137</ele>
        <time>2010-03-19T11:36:58Z</time>
      </trkpt>
      <trkpt lat="48.6274" lon="1.9714">
        <ele>137</ele>
        <time>2010-03-19T11:36:59Z</time>
      </trkpt>
      <trkpt lat="48.62745" lon="1.97141">
        <ele>137</ele>
        <time>2010-03-19T11:37:00Z</time>
      </trkpt>
      <trkpt lat="48.62749" lon="1.97142">
        <ele>137</ele>
        <time>2010-03-19T11:37:01Z</time>
      </trkpt>
      <trkpt lat="48.62753" lon="1.97143">
        <ele>137</ele>
        <time>2010-03-19T11:37:02Z</time>
      </trkpt>
      <trkpt lat="48.62757" lon="1.97144">
        <ele>137</ele>
        <time>2010-03-19T11:37:04Z</time>
      </trkpt>
      <trkpt lat="48.62761" lon="1.97145">
        <ele>137</ele>
        <time>2010-03-19T11:37:04Z</time>
      </trkpt>
      <trkpt lat="48.62765" lon="1.97147">
        <ele>137</ele>
        <time>2010-03-19T11:37:05Z</time>
      </trkpt>
      <trkpt lat="48.62767" lon="1.97149">
        <ele>137</ele>
        <time>2010-03-19T11:37:06Z</time>
      </trkpt>
      <trkpt lat="48.6277" lon="1.97151">
        <ele>136</ele>
        <time>2010-03-19T11:37:07Z</time>
      </trkpt>
      <trkpt lat="48.62774" lon="1.97153">
        <ele>136</ele>
        <time>2010-03-19T11:37:08Z</time>
      </trkpt>
      <trkpt lat="48.62778" lon="1.97156">
        <ele>136</ele>
        <time>2010-03-19T11:37:09Z</time>
      </trkpt>
      <trkpt lat="48.62781" lon="1.97159">
        <ele>135</ele>
        <time>2010-03-19T11:37:10Z</time>
      </trkpt>
      <trkpt lat="48.62785" lon="1.97162">
        <ele>135</ele>
        <time>2010-03-19T11:37:11Z</time>
      </trkpt>
      <trkpt lat="48.62789" lon="1.97165">
        <ele>135</ele>
        <time>2010-03-19T11:37:12Z</time>
      </trkpt>
      <trkpt lat="48.62793" lon="1.97168">
        <ele>134</ele>
        <time>2010-03-19T11:37:13Z</time>
      </trkpt>
      <trkpt lat="48.62796" lon="1.97171">
        <ele>134</ele>
        <time>2010-03-19T11:37:14Z</time>
      </trkpt>
      <trkpt lat="48.62799" lon="1.97174">
        <ele>134</ele>
        <time>2010-03-19T11:37:15Z</time>
      </trkpt>
      <trkpt lat="48.62802" lon="1.97177">
        <ele>134</ele>
        <time>2010-03-19T11:37:16Z</time>
      </trkpt>
      <trkpt lat="48.62805" lon="1.9718">
        <ele>134</ele>
        <time>2010-03-19T11:37:17Z</time>
      </trkpt>
      <trkpt lat="48.62808" lon="1.97184">
        <ele>133</ele>
        <time>2010-03-19T11:37:18Z</time>
      </trkpt>
      <trkpt lat="48.62812" lon="1.97187">
        <ele>133</ele>
        <time>2010-03-19T11:37:19Z</time>
      </trkpt>
      <trkpt lat="48.62815" lon="1.9719">
        <ele>133</ele>
        <time>2010-03-19T11:37:20Z</time>
      </trkpt>
      <trkpt lat="48.62818" lon="1.97192">
        <ele>132</ele>
        <time>2010-03-19T11:37:21Z</time>
      </trkpt>
      <trkpt lat="48.6282" lon="1.97195">
        <ele>132</ele>
        <time>2010-03-19T11:37:22Z</time>
      </trkpt>
      <trkpt lat="48.62823" lon="1.97196">
        <ele>132</ele>
        <time>2010-03-19T11:37:23Z</time>
      </trkpt>
      <trkpt lat="48.62827" lon="1.97198">
        <ele>131</ele>
        <time>2010-03-19T11:37:24Z</time>
      </trkpt>
      <trkpt lat="48.6283" lon="1.972">
        <ele>131</ele>
        <time>2010-03-19T11:37:25Z</time>
      </trkpt>
      <trkpt lat="48.62834" lon="1.97201">
        <ele>130</ele>
        <time>2010-03-19T11:37:26Z</time>
      </trkpt>
      <trkpt lat="48.62837" lon="1.97202">
        <ele>130</ele>
        <time>2010-03-19T11:37:27Z</time>
      </trkpt>
      <trkpt lat="48.6284" lon="1.97203">
        <ele>130</ele>
        <time>2010-03-19T11:37:28Z</time>
      </trkpt>
      <trkpt lat="48.62844" lon="1.97203">
        <ele>129</ele>
        <time>2010-03-19T11:37:29Z</time>
      </trkpt>
      <trkpt lat="48.62846" lon="1.97204">
        <ele>129</ele>
        <time>2010-03-19T11:37:30Z</time>
      </trkpt>
      <trkpt lat="48.62849" lon="1.97205">
        <ele>129</ele>
        <time>2010-03-19T11:37:31Z</time>
      </trkpt>
      <trkpt lat="48.62852" lon="1.97207">
        <ele>129</ele>
        <time>2010-03-19T11:37:32Z</time>
      </trkpt>
      <trkpt lat="48.62854" lon="1.97207">
        <ele>129</ele>
        <time>2010-03-19T11:37:33Z</time>
      </trkpt>
      <trkpt lat="48.62857" lon="1.97208">
        <ele>128</ele>
        <time>2010-03-19T11:37:34Z</time>
      </trkpt>
      <trkpt lat="48.6286" lon="1.97208">
        <ele>128</ele>
        <time>2010-03-19T11:37:35Z</time>
      </trkpt>
      <trkpt lat="48.62864" lon="1.97208">
        <ele>128</ele>
        <time>2010-03-19T11:37:36Z</time>
      </trkpt>
      <trkpt lat="48.62867" lon="1.97208">
        <ele>127</ele>
        <time>2010-03-19T11:37:37Z</time>
      </trkpt>
      <trkpt lat="48.62871" lon="1.97208">
        <ele>127</ele>
        <time>2010-03-19T11:37:38Z</time>
      </trkpt>
      <trkpt lat="48.62875" lon="1.97208">
        <ele>126</ele>
        <time>2010-03-19T11:37:39Z</time>
      </trkpt>
      <trkpt lat="48.62878" lon="1.97208">
        <ele>126</ele>
        <time>2010-03-19T11:37:40Z</time>
      </trkpt>
      <trkpt lat="48.62881" lon="1.97208">
        <ele>126</ele>
        <time>2010-03-19T11:37:41Z</time>
      </trkpt>
      <trkpt lat="48.62884" lon="1.97207">
        <ele>126</ele>
        <time>2010-03-19T11:37:42Z</time>
      </trkpt>
      <trkpt lat="48.62886" lon="1.97207">
        <ele>126</ele>
        <time>2010-03-19T11:37:43Z</time>
      </trkpt>
      <trkpt lat="48.62888" lon="1.97207">
        <ele>126</ele>
        <time>2010-03-19T11:37:44Z</time>
      </trkpt>
      <trkpt lat="48.6289" lon="1.97207">
        <ele>126</ele>
        <time>2010-03-19T11:37:45Z</time>
      </trkpt>
      <trkpt lat="48.62893" lon="1.97207">
        <ele>125</ele>
        <time>2010-03-19T11:37:46Z</time>
      </trkpt>
      <trkpt lat="48.62894" lon="1.97207">
        <ele>125</ele>
        <time>2010-03-19T11:37:47Z</time>
      </trkpt>
      <trkpt lat="48.62896" lon="1.97206">
        <ele>124</ele>
        <time>2010-03-19T11:37:48Z</time>
      </trkpt>
      <trkpt lat="48.62899" lon="1.97206">
        <ele>124</ele>
        <time>2010-03-19T11:37:49Z</time>
      </trkpt>
      <trkpt lat="48.62902" lon="1.97205">
        <ele>123</ele>
        <time>2010-03-19T11:37:50Z</time>
      </trkpt>
      <trkpt lat="48.62905" lon="1.97204">
        <ele>123</ele>
        <time>2010-03-19T11:37:51Z</time>
      </trkpt>
      <trkpt lat="48.62908" lon="1.97203">
        <ele>123</ele>
        <time>2010-03-19T11:37:52Z</time>
      </trkpt>
      <trkpt lat="48.62911" lon="1.97203">
        <ele>122</ele>
        <time>2010-03-19T11:37:53Z</time>
      </trkpt>
      <trkpt lat="48.62914" lon="1.97202">
        <ele>121</ele>
        <time>2010-03-19T11:37:54Z</time>
      </trkpt>
      <trkpt lat="48.62918" lon="1.97201">
        <ele>121</ele>
        <time>2010-03-19T11:37:55Z</time>
      </trkpt>
      <trkpt lat="48.62922" lon="1.972">
        <ele>120</ele>
        <time>2010-03-19T11:37:56Z</time>
      </trkpt>
      <trkpt lat="48.62925" lon="1.97199">
        <ele>120</ele>
        <time>2010-03-19T11:37:57Z</time>
      </trkpt>
      <trkpt lat="48.62928" lon="1.97198">
        <ele>119</ele>
        <time>2010-03-19T11:37:58Z</time>
      </trkpt>
      <trkpt lat="48.62931" lon="1.97196">
        <ele>119</ele>
        <time>2010-03-19T11:37:59Z</time>
      </trkpt>
      <trkpt lat="48.62933" lon="1.97194">
        <ele>118</ele>
        <time>2010-03-19T11:38:00Z</time>
      </trkpt>
      <trkpt lat="48.62937" lon="1.97192">
        <ele>118</ele>
        <time>2010-03-19T11:38:01Z</time>
      </trkpt>
      <trkpt lat="48.6294" lon="1.9719">
        <ele>118</ele>
        <time>2010-03-19T11:38:02Z</time>
      </trkpt>
      <trkpt lat="48.62944" lon="1.97188">
        <ele>118</ele>
        <time>2010-03-19T11:38:03Z</time>
      </trkpt>
      <trkpt lat="48.62947" lon="1.97187">
        <ele>117</ele>
        <time>2010-03-19T11:38:04Z</time>
      </trkpt>
      <trkpt lat="48.62951" lon="1.97186">
        <ele>117</ele>
        <time>2010-03-19T11:38:05Z</time>
      </trkpt>
      <trkpt lat="48.62953" lon="1.97185">
        <ele>117</ele>
        <time>2010-03-19T11:38:06Z</time>
      </trkpt>
      <trkpt lat="48.62956" lon="1.97185">
        <ele>116</ele>
        <time>2010-03-19T11:38:07Z</time>
      </trkpt>
      <trkpt lat="48.6296" lon="1.97184">
        <ele>116</ele>
        <time>2010-03-19T11:38:08Z</time>
      </trkpt>
      <trkpt lat="48.62963" lon="1.97185">
        <ele>116</ele>
        <time>2010-03-19T11:38:09Z</time>
      </trkpt>
      <trkpt lat="48.62966" lon="1.97185">
        <ele>116</ele>
        <time>2010-03-19T11:38:10Z</time>
      </trkpt>
      <trkpt lat="48.62969" lon="1.97185">
        <ele>116</ele>
        <time>2010-03-19T11:38:11Z</time>
      </trkpt>
      <trkpt lat="48.62973" lon="1.97185">
        <ele>116</ele>
        <time>2010-03-19T11:38:12Z</time>
      </trkpt>
      <trkpt lat="48.62977" lon="1.97185">
        <ele>116</ele>
        <time>2010-03-19T11:38:13Z</time>
      </trkpt>
      <trkpt lat="48.6298" lon="1.97186">
        <ele>116</ele>
        <time>2010-03-19T11:38:14Z</time>
      </trkpt>
      <trkpt lat="48.62984" lon="1.97186">
        <ele>116</ele>
        <time>2010-03-19T11:38:15Z</time>
      </trkpt>
      <trkpt lat="48.62987" lon="1.97187">
        <ele>116</ele>
        <time>2010-03-19T11:38:16Z</time>
      </trkpt>
      <trkpt lat="48.62991" lon="1.97187">
        <ele>116</ele>
        <time>2010-03-19T11:38:17Z</time>
      </trkpt>
      <trkpt lat="48.62993" lon="1.97188">
        <ele>116</ele>
        <time>2010-03-19T11:38:18Z</time>
      </trkpt>
      <trkpt lat="48.62996" lon="1.97189">
        <ele>116</ele>
        <time>2010-03-19T11:38:19Z</time>
      </trkpt>
      <trkpt lat="48.63" lon="1.97189">
        <ele>116</ele>
        <time>2010-03-19T11:38:20Z</time>
      </trkpt>
      <trkpt lat="48.63003" lon="1.9719">
        <ele>116</ele>
        <time>2010-03-19T11:38:21Z</time>
      </trkpt>
      <trkpt lat="48.63006" lon="1.97191">
        <ele>116</ele>
        <time>2010-03-19T11:38:22Z</time>
      </trkpt>
      <trkpt lat="48.6301" lon="1.97192">
        <ele>116</ele>
        <time>2010-03-19T11:38:23Z</time>
      </trkpt>
      <trkpt lat="48.63013" lon="1.97194">
        <ele>116</ele>
        <time>2010-03-19T11:38:24Z</time>
      </trkpt>
      <trkpt lat="48.63017" lon="1.97196">
        <ele>116</ele>
        <time>2010-03-19T11:38:25Z</time>
      </trkpt>
      <trkpt lat="48.63021" lon="1.97199">
        <ele>116</ele>
        <time>2010-03-19T11:38:26Z</time>
      </trkpt>
      <trkpt lat="48.63025" lon="1.97202">
        <ele>116</ele>
        <time>2010-03-19T11:38:27Z</time>
      </trkpt>
      <trkpt lat="48.63028" lon="1.97206">
        <ele>116</ele>
        <time>2010-03-19T11:38:28Z</time>
      </trkpt>
      <trkpt lat="48.63031" lon="1.9721">
        <ele>115</ele>
        <time>2010-03-19T11:38:29Z</time>
      </trkpt>
      <trkpt lat="48.63034" lon="1.97214">
        <ele>115</ele>
        <time>2010-03-19T11:38:30Z</time>
      </trkpt>
      <trkpt lat="48.63037" lon="1.97218">
        <ele>114</ele>
        <time>2010-03-19T11:38:31Z</time>
      </trkpt>
      <trkpt lat="48.63039" lon="1.97222">
        <ele>114</ele>
        <time>2010-03-19T11:38:32Z</time>
      </trkpt>
      <trkpt lat="48.63042" lon="1.97225">
        <ele>114</ele>
        <time>2010-03-19T11:38:33Z</time>
      </trkpt>
      <trkpt lat="48.63045" lon="1.97229">
        <ele>114</ele>
        <time>2010-03-19T11:38:34Z</time>
      </trkpt>
      <trkpt lat="48.63047" lon="1.97233">
        <ele>114</ele>
        <time>2010-03-19T11:38:35Z</time>
      </trkpt>
      <trkpt lat="48.63048" lon="1.97238">
        <ele>114</ele>
        <time>2010-03-19T11:38:36Z</time>
      </trkpt>
      <trkpt lat="48.6305" lon="1.97243">
        <ele>114</ele>
        <time>2010-03-19T11:38:37Z</time>
      </trkpt>
      <trkpt lat="48.63051" lon="1.97247">
        <ele>114</ele>
        <time>2010-03-19T11:38:38Z</time>
      </trkpt>
      <trkpt lat="48.63053" lon="1.97252">
        <ele>114</ele>
        <time>2010-03-19T11:38:39Z</time>
      </trkpt>
      <trkpt lat="48.63054" lon="1.97255">
        <ele>114</ele>
        <time>2010-03-19T11:38:40Z</time>
      </trkpt>
      <trkpt lat="48.63055" lon="1.97257">
        <ele>114</ele>
        <time>2010-03-19T11:38:41Z</time>
      </trkpt>
      <trkpt lat="48.63057" lon="1.97259">
        <ele>114</ele>
        <time>2010-03-19T11:38:42Z</time>
      </trkpt>
      <trkpt lat="48.63058" lon="1.97259">
        <ele>114</ele>
        <time>2010-03-19T11:38:44Z</time>
      </trkpt>
      <trkpt lat="48.63058" lon="1.97257">
        <ele>114</ele>
        <time>2010-03-19T11:38:51Z</time>
      </trkpt>
      <trkpt lat="48.6306" lon="1.97257">
        <ele>114</ele>
        <time>2010-03-19T11:38:53Z</time>
      </trkpt>
      <trkpt lat="48.63062" lon="1.97257">
        <ele>114</ele>
        <time>2010-03-19T11:38:54Z</time>
      </trkpt>
      <trkpt lat="48.63063" lon="1.97258">
        <ele>114</ele>
        <time>2010-03-19T11:38:55Z</time>
      </trkpt>
      <trkpt lat="48.63065" lon="1.97259">
        <ele>114</ele>
        <time>2010-03-19T11:38:56Z</time>
      </trkpt>
      <trkpt lat="48.63066" lon="1.9726">
        <ele>114</ele>
        <time>2010-03-19T11:38:57Z</time>
      </trkpt>
      <trkpt lat="48.63068" lon="1.9726">
        <ele>114</ele>
        <time>2010-03-19T11:38:58Z</time>
      </trkpt>
      <trkpt lat="48.6307" lon="1.9726">
        <ele>114</ele>
        <time>2010-03-19T11:38:59Z</time>
      </trkpt>
      <trkpt lat="48.63072" lon="1.9726">
        <ele>114</ele>
        <time>2010-03-19T11:39:00Z</time>
      </trkpt>
      <trkpt lat="48.63074" lon="1.97259">
        <ele>114</ele>
        <time>2010-03-19T11:39:01Z</time>
      </trkpt>
      <trkpt lat="48.63077" lon="1.97259">
        <ele>114</ele>
        <time>2010-03-19T11:39:02Z</time>
      </trkpt>
      <trkpt lat="48.6308" lon="1.97258">
        <ele>114</ele>
        <time>2010-03-19T11:39:03Z</time>
      </trkpt>
      <trkpt lat="48.63083" lon="1.97257">
        <ele>114</ele>
        <time>2010-03-19T11:39:04Z</time>
      </trkpt>
      <trkpt lat="48.63086" lon="1.97257">
        <ele>114</ele>
        <time>2010-03-19T11:39:05Z</time>
      </trkpt>
      <trkpt lat="48.6309" lon="1.97256">
        <ele>114</ele>
        <time>2010-03-19T11:39:06Z</time>
      </trkpt>
      <trkpt lat="48.63094" lon="1.97256">
        <ele>115</ele>
        <time>2010-03-19T11:39:07Z</time>
      </trkpt>
      <trkpt lat="48.63097" lon="1.97255">
        <ele>115</ele>
        <time>2010-03-19T11:39:08Z</time>
      </trkpt>
      <trkpt lat="48.631" lon="1.97254">
        <ele>115</ele>
        <time>2010-03-19T11:39:09Z</time>
      </trkpt>
      <trkpt lat="48.63104" lon="1.97253">
        <ele>115</ele>
        <time>2010-03-19T11:39:10Z</time>
      </trkpt>
      <trkpt lat="48.63108" lon="1.97253">
        <ele>115</ele>
        <time>2010-03-19T11:39:11Z</time>
      </trkpt>
      <trkpt lat="48.63112" lon="1.97252">
        <ele>115</ele>
        <time>2010-03-19T11:39:12Z</time>
      </trkpt>
      <trkpt lat="48.63116" lon="1.97252">
        <ele>115</ele>
        <time>2010-03-19T11:39:13Z</time>
      </trkpt>
      <trkpt lat="48.6312" lon="1.97251">
        <ele>115</ele>
        <time>2010-03-19T11:39:14Z</time>
      </trkpt>
      <trkpt lat="48.63124" lon="1.97251">
        <ele>115</ele>
        <time>2010-03-19T11:39:15Z</time>
      </trkpt>
      <trkpt lat="48.63128" lon="1.97251">
        <ele>115</ele>
        <time>2010-03-19T11:39:16Z</time>
      </trkpt>
      <trkpt lat="48.63132" lon="1.97251">
        <ele>115</ele>
        <time>2010-03-19T11:39:17Z</time>
      </trkpt>
      <trkpt lat="48.63136" lon="1.9725">
        <ele>115</ele>
        <time>2010-03-19T11:39:18Z</time>
      </trkpt>
      <trkpt lat="48.6314" lon="1.9725">
        <ele>115</ele>
        <time>2010-03-19T11:39:19Z</time>
      </trkpt>
      <trkpt lat="48.63144" lon="1.97249">
        <ele>115</ele>
        <time>2010-03-19T11:39:20Z</time>
      </trkpt>
      <trkpt lat="48.63148" lon="1.97249">
        <ele>115</ele>
        <time>2010-03-19T11:39:21Z</time>
      </trkpt>
      <trkpt lat="48.63152" lon="1.97248">
        <ele>115</ele>
        <time>2010-03-19T11:39:22Z</time>
      </trkpt>
      <trkpt lat="48.63156" lon="1.97247">
        <ele>115</ele>
        <time>2010-03-19T11:39:23Z</time>
      </trkpt>
      <trkpt lat="48.63159" lon="1.97246">
        <ele>115</ele>
        <time>2010-03-19T11:39:24Z</time>
      </trkpt>
      <trkpt lat="48.63163" lon="1.97246">
        <ele>115</ele>
        <time>2010-03-19T11:39:25Z</time>
      </trkpt>
      <trkpt lat="48.63166" lon="1.97245">
        <ele>115</ele>
        <time>2010-03-19T11:39:26Z</time>
      </trkpt>
      <trkpt lat="48.63169" lon="1.97245">
        <ele>115</ele>
        <time>2010-03-19T11:39:27Z</time>
      </trkpt>
      <trkpt lat="48.63172" lon="1.97244">
        <ele>115</ele>
        <time>2010-03-19T11:39:28Z</time>
      </trkpt>
      <trkpt lat="48.63174" lon="1.97244">
        <ele>115</ele>
        <time>2010-03-19T11:39:29Z</time>
      </trkpt>
      <trkpt lat="48.63176" lon="1.97244">
        <ele>115</ele>
        <time>2010-03-19T11:39:30Z</time>
      </trkpt>
      <trkpt lat="48.63176" lon="1.97246">
        <ele>115</ele>
        <time>2010-03-19T11:39:32Z</time>
      </trkpt>
      <trkpt lat="48.63174" lon="1.97247">
        <ele>115</ele>
        <time>2010-03-19T11:39:33Z</time>
      </trkpt>
      <trkpt lat="48.63173" lon="1.97248">
        <ele>115</ele>
        <time>2010-03-19T11:39:34Z</time>
      </trkpt>
      <trkpt lat="48.63172" lon="1.97247">
        <ele>115</ele>
        <time>2010-03-19T11:39:35Z</time>
      </trkpt>
      <trkpt lat="48.6317" lon="1.97247">
        <ele>115</ele>
        <time>2010-03-19T11:39:36Z</time>
      </trkpt>
      <trkpt lat="48.63168" lon="1.97247">
        <ele>115</ele>
        <time>2010-03-19T11:39:37Z</time>
      </trkpt>
      <trkpt lat="48.63166" lon="1.97248">
        <ele>115</ele>
        <time>2010-03-19T11:39:38Z</time>
      </trkpt>
      <trkpt lat="48.63164" lon="1.97248">
        <ele>115</ele>
        <time>2010-03-19T11:39:39Z</time>
      </trkpt>
      <trkpt lat="48.63162" lon="1.97249">
        <ele>115</ele>
        <time>2010-03-19T11:39:40Z</time>
      </trkpt>
      <trkpt lat="48.63161" lon="1.97249">
        <ele>115</ele>
        <time>2010-03-19T11:39:41Z</time>
      </trkpt>
      <trkpt lat="48.63158" lon="1.9725">
        <ele>115</ele>
        <time>2010-03-19T11:39:42Z</time>
      </trkpt>
      <trkpt lat="48.63157" lon="1.97251">
        <ele>115</ele>
        <time>2010-03-19T11:39:43Z</time>
      </trkpt>
      <trkpt lat="48.63155" lon="1.97251">
        <ele>115</ele>
        <time>2010-03-19T11:39:44Z</time>
      </trkpt>
      <trkpt lat="48.63153" lon="1.97252">
        <ele>115</ele>
        <time>2010-03-19T11:39:45Z</time>
      </trkpt>
      <trkpt lat="48.63152" lon="1.97253">
        <ele>115</ele>
        <time>2010-03-19T11:39:46Z</time>
      </trkpt>
      <trkpt lat="48.6315" lon="1.97253">
        <ele>115</ele>
        <time>2010-03-19T11:39:47Z</time>
      </trkpt>
      <trkpt lat="48.63149" lon="1.97253">
        <ele>115</ele>
        <time>2010-03-19T11:39:48Z</time>
      </trkpt>
      <trkpt lat="48.63147" lon="1.97253">
        <ele>115</ele>
        <time>2010-03-19T11:39:49Z</time>
      </trkpt>
      <trkpt lat="48.63145" lon="1.97254">
        <ele>115</ele>
        <time>2010-03-19T11:39:50Z</time>
      </trkpt>
      <trkpt lat="48.63143" lon="1.97254">
        <ele>115</ele>
        <time>2010-03-19T11:39:51Z</time>
      </trkpt>
      <trkpt lat="48.63142" lon="1.97254">
        <ele>115</ele>
        <time>2010-03-19T11:39:52Z</time>
      </trkpt>
      <trkpt lat="48.6314" lon="1.97254">
        <ele>115</ele>
        <time>2010-03-19T11:39:53Z</time>
      </trkpt>
      <trkpt lat="48.63139" lon="1.97255">
        <ele>115</ele>
        <time>2010-03-19T11:39:54Z</time>
      </trkpt>
      <trkpt lat="48.63137" lon="1.97256">
        <ele>115</ele>
        <time>2010-03-19T11:39:55Z</time>
      </trkpt>
      <trkpt lat="48.63135" lon="1.97256">
        <ele>115</ele>
        <time>2010-03-19T11:39:56Z</time>
      </trkpt>
      <trkpt lat="48.63132" lon="1.97257">
        <ele>115</ele>
        <time>2010-03-19T11:39:57Z</time>
      </trkpt>
      <trkpt lat="48.63131" lon="1.97257">
        <ele>115</ele>
        <time>2010-03-19T11:39:58Z</time>
      </trkpt>
      <trkpt lat="48.63129" lon="1.97257">
        <ele>115</ele>
        <time>2010-03-19T11:39:59Z</time>
      </trkpt>
      <trkpt lat="48.63127" lon="1.97257">
        <ele>115</ele>
        <time>2010-03-19T11:40:00Z</time>
      </trkpt>
      <trkpt lat="48.63126" lon="1.97257">
        <ele>115</ele>
        <time>2010-03-19T11:40:01Z</time>
      </trkpt>
      <trkpt lat="48.63124" lon="1.97258">
        <ele>115</ele>
        <time>2010-03-19T11:40:02Z</time>
      </trkpt>
      <trkpt lat="48.63121" lon="1.9726">
        <ele>115</ele>
        <time>2010-03-19T11:40:03Z</time>
      </trkpt>
      <trkpt lat="48.6312" lon="1.9726">
        <ele>115</ele>
        <time>2010-03-19T11:40:04Z</time>
      </trkpt>
      <trkpt lat="48.63118" lon="1.9726">
        <ele>114</ele>
        <time>2010-03-19T11:40:05Z</time>
      </trkpt>
      <trkpt lat="48.63117" lon="1.97259">
        <ele>114</ele>
        <time>2010-03-19T11:40:06Z</time>
      </trkpt>
      <trkpt lat="48.63115" lon="1.97259">
        <ele>114</ele>
        <time>2010-03-19T11:40:07Z</time>
      </trkpt>
      <trkpt lat="48.63114" lon="1.97258">
        <ele>114</ele>
        <time>2010-03-19T11:40:08Z</time>
      </trkpt>
      <trkpt lat="48.63111" lon="1.97258">
        <ele>114</ele>
        <time>2010-03-19T11:40:09Z</time>
      </trkpt>
      <trkpt lat="48.6311" lon="1.97258">
        <ele>114</ele>
        <time>2010-03-19T11:40:10Z</time>
      </trkpt>
      <trkpt lat="48.63108" lon="1.97258">
        <ele>114</ele>
        <time>2010-03-19T11:40:11Z</time>
      </trkpt>
      <trkpt lat="48.63107" lon="1.97258">
        <ele>114</ele>
        <time>2010-03-19T11:40:12Z</time>
      </trkpt>
      <trkpt lat="48.63104" lon="1.97258">
        <ele>114</ele>
        <time>2010-03-19T11:40:13Z</time>
      </trkpt>
      <trkpt lat="48.63103" lon="1.97259">
        <ele>114</ele>
        <time>2010-03-19T11:40:14Z</time>
      </trkpt>
      <trkpt lat="48.63101" lon="1.97259">
        <ele>114</ele>
        <time>2010-03-19T11:40:15Z</time>
      </trkpt>
      <trkpt lat="48.631" lon="1.97259">
        <ele>114</ele>
        <time>2010-03-19T11:40:16Z</time>
      </trkpt>
      <trkpt lat="48.63098" lon="1.9726">
        <ele>114</ele>
        <time>2010-03-19T11:40:17Z</time>
      </trkpt>
      <trkpt lat="48.63096" lon="1.97261">
        <ele>114</ele>
        <time>2010-03-19T11:40:18Z</time>
      </trkpt>
      <trkpt lat="48.63095" lon="1.97261">
        <ele>114</ele>
        <time>2010-03-19T11:40:19Z</time>
      </trkpt>
      <trkpt lat="48.63093" lon="1.97261">
        <ele>114</ele>
        <time>2010-03-19T11:40:20Z</time>
      </trkpt>
      <trkpt lat="48.63091" lon="1.97261">
        <ele>114</ele>
        <time>2010-03-19T11:40:21Z</time>
      </trkpt>
      <trkpt lat="48.6309" lon="1.97262">
        <ele>114</ele>
        <time>2010-03-19T11:40:22Z</time>
      </trkpt>
      <trkpt lat="48.63088" lon="1.97262">
        <ele>114</ele>
        <time>2010-03-19T11:40:23Z</time>
      </trkpt>
      <trkpt lat="48.63086" lon="1.97263">
        <ele>114</ele>
        <time>2010-03-19T11:40:24Z</time>
      </trkpt>
      <trkpt lat="48.63084" lon="1.97264">
        <ele>114</ele>
        <time>2010-03-19T11:40:25Z</time>
      </trkpt>
      <trkpt lat="48.63083" lon="1.97264">
        <ele>114</ele>
        <time>2010-03-19T11:40:26Z</time>
      </trkpt>
      <trkpt lat="48.6308" lon="1.97265">
        <ele>114</ele>
        <time>2010-03-19T11:40:27Z</time>
      </trkpt>
      <trkpt lat="48.63079" lon="1.97265">
        <ele>114</ele>
        <time>2010-03-19T11:40:28Z</time>
      </trkpt>
      <trkpt lat="48.63077" lon="1.97264">
        <ele>114</ele>
        <time>2010-03-19T11:40:29Z</time>
      </trkpt>
      <trkpt lat="48.63075" lon="1.97264">
        <ele>114</ele>
        <time>2010-03-19T11:40:30Z</time>
      </trkpt>
      <trkpt lat="48.63074" lon="1.97264">
        <ele>114</ele>
        <time>2010-03-19T11:40:31Z</time>
      </trkpt>
      <trkpt lat="48.63071" lon="1.97264">
        <ele>114</ele>
        <time>2010-03-19T11:40:32Z</time>
      </trkpt>
      <trkpt lat="48.63069" lon="1.97265">
        <ele>114</ele>
        <time>2010-03-19T11:40:33Z</time>
      </trkpt>
      <trkpt lat="48.63067" lon="1.97265">
        <ele>114</ele>
        <time>2010-03-19T11:40:34Z</time>
      </trkpt>
      <trkpt lat="48.63065" lon="1.97265">
        <ele>114</ele>
        <time>2010-03-19T11:40:35Z</time>
      </trkpt>
      <trkpt lat="48.63063" lon="1.97265">
        <ele>114</ele>
        <time>2010-03-19T11:40:37Z</time>
      </trkpt>
      <trkpt lat="48.63061" lon="1.97265">
        <ele>114</ele>
        <time>2010-03-19T11:40:38Z</time>
      </trkpt>
      <trkpt lat="48.63059" lon="1.97264">
        <ele>114</ele>
        <time>2010-03-19T11:40:39Z</time>
      </trkpt>
      <trkpt lat="48.63058" lon="1.97262">
        <ele>114</ele>
        <time>2010-03-19T11:40:41Z</time>
      </trkpt>
      <trkpt lat="48.63056" lon="1.97261">
        <ele>114</ele>
        <time>2010-03-19T11:40:42Z</time>
      </trkpt>
      <trkpt lat="48.63055" lon="1.97261">
        <ele>114</ele>
        <time>2010-03-19T11:40:43Z</time>
      </trkpt>
      <trkpt lat="48.63056" lon="1.97261">
        <ele>114</ele>
        <time>2010-03-19T11:40:47Z</time>
      </trkpt>
      <trkpt lat="48.63056" lon="1.97259">
        <ele>114</ele>
        <time>2010-03-19T11:40:51Z</time>
      </trkpt>
      <trkpt lat="48.63057" lon="1.97257">
        <ele>114</ele>
        <time>2010-03-19T11:40:57Z</time>
      </trkpt>
      <trkpt lat="48.63055" lon="1.97256">
        <ele>114</ele>
        <time>2010-03-19T11:41:00Z</time>
      </trkpt>
      <trkpt lat="48.63055" lon="1.97258">
        <ele>114</ele>
        <time>2010-03-19T11:41:04Z</time>
      </trkpt>
      <trkpt lat="48.63057" lon="1.97259">
        <ele>114</ele>
        <time>2010-03-19T11:41:07Z</time>
      </trkpt>
      <trkpt lat="48.63058" lon="1.9726">
        <ele>114</ele>
        <time>2010-03-19T11:41:10Z</time>
      </trkpt>
      <trkpt lat="48.6306" lon="1.97261">
        <ele>111</ele>
        <time>2010-03-19T11:41:18Z</time>
      </trkpt>
      <trkpt lat="48.63061" lon="1.97263">
        <ele>111</ele>
        <time>2010-03-19T11:41:26Z</time>
      </trkpt>
      <trkpt lat="48.63059" lon="1.97265">
        <ele>111</ele>
        <time>2010-03-19T11:41:28Z</time>
      </trkpt>
      <trkpt lat="48.63058" lon="1.97266">
        <ele>111</ele>
        <time>2010-03-19T11:41:29Z</time>
      </trkpt>
      <trkpt lat="48.63057" lon="1.97268">
        <ele>111</ele>
        <time>2010-03-19T11:41:30Z</time>
      </trkpt>
      <trkpt lat="48.63058" lon="1.97271">
        <ele>111</ele>
        <time>2010-03-19T11:41:31Z</time>
      </trkpt>
      <trkpt lat="48.63058" lon="1.97274">
        <ele>111</ele>
        <time>2010-03-19T11:41:32Z</time>
      </trkpt>
      <trkpt lat="48.63058" lon="1.97277">
        <ele>111</ele>
        <time>2010-03-19T11:41:33Z</time>
      </trkpt>
      <trkpt lat="48.63057" lon="1.9728">
        <ele>111</ele>
        <time>2010-03-19T11:41:34Z</time>
      </trkpt>
      <trkpt lat="48.63057" lon="1.97283">
        <ele>112</ele>
        <time>2010-03-19T11:41:35Z</time>
      </trkpt>
      <trkpt lat="48.63057" lon="1.97285">
        <ele>112</ele>
        <time>2010-03-19T11:41:36Z</time>
      </trkpt>
      <trkpt lat="48.63055" lon="1.97287">
        <ele>113</ele>
        <time>2010-03-19T11:41:37Z</time>
      </trkpt>
      <trkpt lat="48.63055" lon="1.97289">
        <ele>114</ele>
        <time>2010-03-19T11:41:38Z</time>
      </trkpt>
      <trkpt lat="48.63055" lon="1.97292">
        <ele>115</ele>
        <time>2010-03-19T11:41:39Z</time>
      </trkpt>
      <trkpt lat="48.63055" lon="1.97294">
        <ele>116</ele>
        <time>2010-03-19T11:41:40Z</time>
      </trkpt>
      <trkpt lat="48.63054" lon="1.97298">
        <ele>116</ele>
        <time>2010-03-19T11:41:41Z</time>
      </trkpt>
      <trkpt lat="48.63054" lon="1.97301">
        <ele>117</ele>
        <time>2010-03-19T11:41:42Z</time>
      </trkpt>
      <trkpt lat="48.63052" lon="1.97304">
        <ele>117</ele>
        <time>2010-03-19T11:41:43Z</time>
      </trkpt>
      <trkpt lat="48.63051" lon="1.97307">
        <ele>118</ele>
        <time>2010-03-19T11:41:44Z</time>
      </trkpt>
      <trkpt lat="48.6305" lon="1.9731">
        <ele>118</ele>
        <time>2010-03-19T11:41:45Z</time>
      </trkpt>
      <trkpt lat="48.63049" lon="1.97313">
        <ele>118</ele>
        <time>2010-03-19T11:41:46Z</time>
      </trkpt>
      <trkpt lat="48.63046" lon="1.97317">
        <ele>118</ele>
        <time>2010-03-19T11:41:47Z</time>
      </trkpt>
      <trkpt lat="48.63044" lon="1.9732">
        <ele>118</ele>
        <time>2010-03-19T11:41:48Z</time>
      </trkpt>
      <trkpt lat="48.63042" lon="1.97324">
        <ele>118</ele>
        <time>2010-03-19T11:41:49Z</time>
      </trkpt>
      <trkpt lat="48.6304" lon="1.97327">
        <ele>118</ele>
        <time>2010-03-19T11:41:50Z</time>
      </trkpt>
      <trkpt lat="48.63037" lon="1.97331">
        <ele>118</ele>
        <time>2010-03-19T11:41:51Z</time>
      </trkpt>
      <trkpt lat="48.63036" lon="1.97334">
        <ele>118</ele>
        <time>2010-03-19T11:41:52Z</time>
      </trkpt>
      <trkpt lat="48.63033" lon="1.97337">
        <ele>118</ele>
        <time>2010-03-19T11:41:53Z</time>
      </trkpt>
      <trkpt lat="48.6303" lon="1.97343">
        <ele>118</ele>
        <time>2010-03-19T11:41:54Z</time>
      </trkpt>
      <trkpt lat="48.63027" lon="1.97346">
        <ele>118</ele>
        <time>2010-03-19T11:41:55Z</time>
      </trkpt>
      <trkpt lat="48.63024" lon="1.97351">
        <ele>118</ele>
        <time>2010-03-19T11:41:56Z</time>
      </trkpt>
      <trkpt lat="48.63021" lon="1.97355">
        <ele>118</ele>
        <time>2010-03-19T11:41:57Z</time>
      </trkpt>
      <trkpt lat="48.63017" lon="1.97359">
        <ele>118</ele>
        <time>2010-03-19T11:41:58Z</time>
      </trkpt>
      <trkpt lat="48.63013" lon="1.97364">
        <ele>118</ele>
        <time>2010-03-19T11:41:59Z</time>
      </trkpt>
      <trkpt lat="48.63008" lon="1.97368">
        <ele>118</ele>
        <time>2010-03-19T11:42:00Z</time>
      </trkpt>
      <trkpt lat="48.63003" lon="1.97372">
        <ele>118</ele>
        <time>2010-03-19T11:42:01Z</time>
      </trkpt>
      <trkpt lat="48.62999" lon="1.97375">
        <ele>118</ele>
        <time>2010-03-19T11:42:02Z</time>
      </trkpt>
      <trkpt lat="48.62994" lon="1.97378">
        <ele>118</ele>
        <time>2010-03-19T11:42:03Z</time>
      </trkpt>
      <trkpt lat="48.62989" lon="1.97381">
        <ele>118</ele>
        <time>2010-03-19T11:42:04Z</time>
      </trkpt>
      <trkpt lat="48.62984" lon="1.97384">
        <ele>118</ele>
        <time>2010-03-19T11:42:05Z</time>
      </trkpt>
      <trkpt lat="48.62979" lon="1.97387">
        <ele>118</ele>
        <time>2010-03-19T11:42:06Z</time>
      </trkpt>
      <trkpt lat="48.62976" lon="1.97392">
        <ele>118</ele>
        <time>2010-03-19T11:42:07Z</time>
      </trkpt>
      <trkpt lat="48.62971" lon="1.97398">
        <ele>118</ele>
        <time>2010-03-19T11:42:08Z</time>
      </trkpt>
      <trkpt lat="48.62969" lon="1.97405">
        <ele>118</ele>
        <time>2010-03-19T11:42:09Z</time>
      </trkpt>
      <trkpt lat="48.62967" lon="1.9741">
        <ele>118</ele>
        <time>2010-03-19T11:42:10Z</time>
      </trkpt>
      <trkpt lat="48.62967" lon="1.97415">
        <ele>118</ele>
        <time>2010-03-19T11:42:11Z</time>
      </trkpt>
      <trkpt lat="48.62966" lon="1.97419">
        <ele>118</ele>
        <time>2010-03-19T11:42:12Z</time>
      </trkpt>
      <trkpt lat="48.62964" lon="1.97422">
        <ele>118</ele>
        <time>2010-03-19T11:42:13Z</time>
      </trkpt>
      <trkpt lat="48.62962" lon="1.97423">
        <ele>118</ele>
        <time>2010-03-19T11:42:14Z</time>
      </trkpt>
      <trkpt lat="48.62963" lon="1.97424">
        <ele>118</ele>
        <time>2010-03-19T11:42:18Z</time>
      </trkpt>
      <trkpt lat="48.62965" lon="1.97427">
        <ele>118</ele>
        <time>2010-03-19T11:42:20Z</time>
      </trkpt>
      <trkpt lat="48.62965" lon="1.97429">
        <ele>118</ele>
        <time>2010-03-19T11:42:21Z</time>
      </trkpt>
      <trkpt lat="48.62964" lon="1.97432">
        <ele>118</ele>
        <time>2010-03-19T11:42:22Z</time>
      </trkpt>
      <trkpt lat="48.62964" lon="1.97435">
        <ele>118</ele>
        <time>2010-03-19T11:42:23Z</time>
      </trkpt>
      <trkpt lat="48.62964" lon="1.97438">
        <ele>118</ele>
        <time>2010-03-19T11:42:24Z</time>
      </trkpt>
      <trkpt lat="48.62963" lon="1.9744">
        <ele>118</ele>
        <time>2010-03-19T11:42:25Z</time>
      </trkpt>
      <trkpt lat="48.62963" lon="1.97443">
        <ele>118</ele>
        <time>2010-03-19T11:42:26Z</time>
      </trkpt>
      <trkpt lat="48.62963" lon="1.97447">
        <ele>118</ele>
        <time>2010-03-19T11:42:27Z</time>
      </trkpt>
      <trkpt lat="48.62963" lon="1.97451">
        <ele>118</ele>
        <time>2010-03-19T11:42:28Z</time>
      </trkpt>
      <trkpt lat="48.62963" lon="1.97455">
        <ele>118</ele>
        <time>2010-03-19T11:42:29Z</time>
      </trkpt>
      <trkpt lat="48.62964" lon="1.97458">
        <ele>118</ele>
        <time>2010-03-19T11:42:30Z</time>
      </trkpt>
      <trkpt lat="48.62964" lon="1.97462">
        <ele>118</ele>
        <time>2010-03-19T11:42:31Z</time>
      </trkpt>
      <trkpt lat="48.62963" lon="1.97465">
        <ele>118</ele>
        <time>2010-03-19T11:42:32Z</time>
      </trkpt>
      <trkpt lat="48.62963" lon="1.97469">
        <ele>118</ele>
        <time>2010-03-19T11:42:33Z</time>
      </trkpt>
      <trkpt lat="48.62963" lon="1.97473">
        <ele>118</ele>
        <time>2010-03-19T11:42:34Z</time>
      </trkpt>
      <trkpt lat="48.62963" lon="1.97478">
        <ele>118</ele>
        <time>2010-03-19T11:42:35Z</time>
      </trkpt>
      <trkpt lat="48.62962" lon="1.97484">
        <ele>118</ele>
        <time>2010-03-19T11:42:36Z</time>
      </trkpt>
      <trkpt lat="48.62962" lon="1.97489">
        <ele>118</ele>
        <time>2010-03-19T11:42:37Z</time>
      </trkpt>
      <trkpt lat="48.62962" lon="1.97495">
        <ele>118</ele>
        <time>2010-03-19T11:42:38Z</time>
      </trkpt>
      <trkpt lat="48.62962" lon="1.97502">
        <ele>118</ele>
        <time>2010-03-19T11:42:39Z</time>
      </trkpt>
      <trkpt lat="48.62962" lon="1.97508">
        <ele>118</ele>
        <time>2010-03-19T11:42:40Z</time>
      </trkpt>
      <trkpt lat="48.62962" lon="1.97514">
        <ele>118</ele>
        <time>2010-03-19T11:42:41Z</time>
      </trkpt>
      <trkpt lat="48.62962" lon="1.97521">
        <ele>118</ele>
        <time>2010-03-19T11:42:42Z</time>
      </trkpt>
      <trkpt lat="48.62962" lon="1.97527">
        <ele>118</ele>
        <time>2010-03-19T11:42:43Z</time>
      </trkpt>
      <trkpt lat="48.62962" lon="1.97534">
        <ele>118</ele>
        <time>2010-03-19T11:42:44Z</time>
      </trkpt>
      <trkpt lat="48.62962" lon="1.9754">
        <ele>118</ele>
        <time>2010-03-19T11:42:45Z</time>
      </trkpt>
      <trkpt lat="48.62961" lon="1.97547">
        <ele>118</ele>
        <time>2010-03-19T11:42:46Z</time>
      </trkpt>
      <trkpt lat="48.62961" lon="1.97554">
        <ele>118</ele>
        <time>2010-03-19T11:42:47Z</time>
      </trkpt>
      <trkpt lat="48.62961" lon="1.97559">
        <ele>118</ele>
        <time>2010-03-19T11:42:48Z</time>
      </trkpt>
      <trkpt lat="48.62961" lon="1.97565">
        <ele>118</ele>
        <time>2010-03-19T11:42:49Z</time>
      </trkpt>
      <trkpt lat="48.6296" lon="1.97571">
        <ele>118</ele>
        <time>2010-03-19T11:42:50Z</time>
      </trkpt>
      <trkpt lat="48.6296" lon="1.97576">
        <ele>118</ele>
        <time>2010-03-19T11:42:51Z</time>
      </trkpt>
      <trkpt lat="48.6296" lon="1.97582">
        <ele>118</ele>
        <time>2010-03-19T11:42:52Z</time>
      </trkpt>
      <trkpt lat="48.62959" lon="1.97588">
        <ele>118</ele>
        <time>2010-03-19T11:42:53Z</time>
      </trkpt>
      <trkpt lat="48.62959" lon="1.97594">
        <ele>118</ele>
        <time>2010-03-19T11:42:54Z</time>
      </trkpt>
      <trkpt lat="48.62958" lon="1.976">
        <ele>118</ele>
        <time>2010-03-19T11:42:55Z</time>
      </trkpt>
      <trkpt lat="48.62957" lon="1.97606">
        <ele>118</ele>
        <time>2010-03-19T11:42:56Z</time>
      </trkpt>
      <trkpt lat="48.62957" lon="1.97612">
        <ele>118</ele>
        <time>2010-03-19T11:42:57Z</time>
      </trkpt>
      <trkpt lat="48.62956" lon="1.97618">
        <ele>118</ele>
        <time>2010-03-19T11:42:58Z</time>
      </trkpt>
      <trkpt lat="48.62955" lon="1.97624">
        <ele>118</ele>
        <time>2010-03-19T11:42:59Z</time>
      </trkpt>
      <trkpt lat="48.62955" lon="1.97629">
        <ele>118</ele>
        <time>2010-03-19T11:43:00Z</time>
      </trkpt>
      <trkpt lat="48.62955" lon="1.97634">
        <ele>118</ele>
        <time>2010-03-19T11:43:01Z</time>
      </trkpt>
      <trkpt lat="48.62954" lon="1.97639">
        <ele>118</ele>
        <time>2010-03-19T11:43:02Z</time>
      </trkpt>
      <trkpt lat="48.62954" lon="1.97644">
        <ele>118</ele>
        <time>2010-03-19T11:43:03Z</time>
      </trkpt>
      <trkpt lat="48.62953" lon="1.97648">
        <ele>118</ele>
        <time>2010-03-19T11:43:04Z</time>
      </trkpt>
      <trkpt lat="48.62952" lon="1.97653">
        <ele>118</ele>
        <time>2010-03-19T11:43:05Z</time>
      </trkpt>
      <trkpt lat="48.62951" lon="1.97658">
        <ele>118</ele>
        <time>2010-03-19T11:43:06Z</time>
      </trkpt>
      <trkpt lat="48.62951" lon="1.97663">
        <ele>118</ele>
        <time>2010-03-19T11:43:07Z</time>
      </trkpt>
      <trkpt lat="48.62951" lon="1.9767">
        <ele>118</ele>
        <time>2010-03-19T11:43:08Z</time>
      </trkpt>
      <trkpt lat="48.6295" lon="1.97675">
        <ele>118</ele>
        <time>2010-03-19T11:43:09Z</time>
      </trkpt>
      <trkpt lat="48.62949" lon="1.9768">
        <ele>118</ele>
        <time>2010-03-19T11:43:10Z</time>
      </trkpt>
      <trkpt lat="48.62947" lon="1.97685">
        <ele>118</ele>
        <time>2010-03-19T11:43:11Z</time>
      </trkpt>
      <trkpt lat="48.62947" lon="1.9769">
        <ele>118</ele>
        <time>2010-03-19T11:43:12Z</time>
      </trkpt>
      <trkpt lat="48.62946" lon="1.97696">
        <ele>118</ele>
        <time>2010-03-19T11:43:13Z</time>
      </trkpt>
      <trkpt lat="48.62945" lon="1.97703">
        <ele>118</ele>
        <time>2010-03-19T11:43:14Z</time>
      </trkpt>
      <trkpt lat="48.62945" lon="1.97708">
        <ele>118</ele>
        <time>2010-03-19T11:43:15Z</time>
      </trkpt>
      <trkpt lat="48.62944" lon="1.97713">
        <ele>118</ele>
        <time>2010-03-19T11:43:16Z</time>
      </trkpt>
      <trkpt lat="48.62943" lon="1.97718">
        <ele>118</ele>
        <time>2010-03-19T11:43:17Z</time>
      </trkpt>
      <trkpt lat="48.62943" lon="1.97722">
        <ele>118</ele>
        <time>2010-03-19T11:43:18Z</time>
      </trkpt>
      <trkpt lat="48.62943" lon="1.97725">
        <ele>118</ele>
        <time>2010-03-19T11:43:19Z</time>
      </trkpt>
      <trkpt lat="48.62942" lon="1.9773">
        <ele>118</ele>
        <time>2010-03-19T11:43:20Z</time>
      </trkpt>
      <trkpt lat="48.62941" lon="1.97734">
        <ele>118</ele>
        <time>2010-03-19T11:43:21Z</time>
      </trkpt>
      <trkpt lat="48.62941" lon="1.97737">
        <ele>118</ele>
        <time>2010-03-19T11:43:22Z</time>
      </trkpt>
      <trkpt lat="48.6294" lon="1.9774">
        <ele>118</ele>
        <time>2010-03-19T11:43:23Z</time>
      </trkpt>
      <trkpt lat="48.6294" lon="1.97744">
        <ele>118</ele>
        <time>2010-03-19T11:43:24Z</time>
      </trkpt>
      <trkpt lat="48.62939" lon="1.97747">
        <ele>118</ele>
        <time>2010-03-19T11:43:25Z</time>
      </trkpt>
      <trkpt lat="48.62939" lon="1.9775">
        <ele>118</ele>
        <time>2010-03-19T11:43:26Z</time>
      </trkpt>
      <trkpt lat="48.62938" lon="1.97754">
        <ele>118</ele>
        <time>2010-03-19T11:43:27Z</time>
      </trkpt>
      <trkpt lat="48.62938" lon="1.97758">
        <ele>118</ele>
        <time>2010-03-19T11:43:28Z</time>
      </trkpt>
      <trkpt lat="48.62937" lon="1.97762">
        <ele>118</ele>
        <time>2010-03-19T11:43:29Z</time>
      </trkpt>
      <trkpt lat="48.62936" lon="1.97767">
        <ele>118</ele>
        <time>2010-03-19T11:43:30Z</time>
      </trkpt>
      <trkpt lat="48.62935" lon="1.97772">
        <ele>118</ele>
        <time>2010-03-19T11:43:31Z</time>
      </trkpt>
      <trkpt lat="48.62934" lon="1.97778">
        <ele>118</ele>
        <time>2010-03-19T11:43:32Z</time>
      </trkpt>
      <trkpt lat="48.62933" lon="1.97784">
        <ele>118</ele>
        <time>2010-03-19T11:43:33Z</time>
      </trkpt>
      <trkpt lat="48.62932" lon="1.97791">
        <ele>118</ele>
        <time>2010-03-19T11:43:34Z</time>
      </trkpt>
      <trkpt lat="48.62931" lon="1.97797">
        <ele>118</ele>
        <time>2010-03-19T11:43:35Z</time>
      </trkpt>
      <trkpt lat="48.6293" lon="1.97802">
        <ele>118</ele>
        <time>2010-03-19T11:43:36Z</time>
      </trkpt>
      <trkpt lat="48.6293" lon="1.97807">
        <ele>118</ele>
        <time>2010-03-19T11:43:37Z</time>
      </trkpt>
      <trkpt lat="48.62928" lon="1.97813">
        <ele>118</ele>
        <time>2010-03-19T11:43:38Z</time>
      </trkpt>
      <trkpt lat="48.62927" lon="1.97819">
        <ele>118</ele>
        <time>2010-03-19T11:43:39Z</time>
      </trkpt>
      <trkpt lat="48.62926" lon="1.97825">
        <ele>118</ele>
        <time>2010-03-19T11:43:40Z</time>
      </trkpt>
      <trkpt lat="48.62925" lon="1.97831">
        <ele>118</ele>
        <time>2010-03-19T11:43:41Z</time>
      </trkpt>
      <trkpt lat="48.62925" lon="1.97838">
        <ele>118</ele>
        <time>2010-03-19T11:43:42Z</time>
      </trkpt>
      <trkpt lat="48.62923" lon="1.97844">
        <ele>118</ele>
        <time>2010-03-19T11:43:43Z</time>
      </trkpt>
      <trkpt lat="48.62922" lon="1.9785">
        <ele>118</ele>
        <time>2010-03-19T11:43:44Z</time>
      </trkpt>
      <trkpt lat="48.62921" lon="1.97855">
        <ele>118</ele>
        <time>2010-03-19T11:43:45Z</time>
      </trkpt>
      <trkpt lat="48.6292" lon="1.97861">
        <ele>118</ele>
        <time>2010-03-19T11:43:46Z</time>
      </trkpt>
      <trkpt lat="48.62919" lon="1.97866">
        <ele>118</ele>
        <time>2010-03-19T11:43:47Z</time>
      </trkpt>
      <trkpt lat="48.62918" lon="1.97871">
        <ele>118</ele>
        <time>2010-03-19T11:43:48Z</time>
      </trkpt>
      <trkpt lat="48.62918" lon="1.97876">
        <ele>118</ele>
        <time>2010-03-19T11:43:49Z</time>
      </trkpt>
      <trkpt lat="48.62917" lon="1.97881">
        <ele>118</ele>
        <time>2010-03-19T11:43:50Z</time>
      </trkpt>
      <trkpt lat="48.62917" lon="1.97886">
        <ele>118</ele>
        <time>2010-03-19T11:43:51Z</time>
      </trkpt>
      <trkpt lat="48.62916" lon="1.97891">
        <ele>118</ele>
        <time>2010-03-19T11:43:52Z</time>
      </trkpt>
      <trkpt lat="48.62915" lon="1.97897">
        <ele>118</ele>
        <time>2010-03-19T11:43:53Z</time>
      </trkpt>
      <trkpt lat="48.62914" lon="1.97902">
        <ele>118</ele>
        <time>2010-03-19T11:43:54Z</time>
      </trkpt>
      <trkpt lat="48.62914" lon="1.97907">
        <ele>118</ele>
        <time>2010-03-19T11:43:55Z</time>
      </trkpt>
      <trkpt lat="48.62913" lon="1.97912">
        <ele>118</ele>
        <time>2010-03-19T11:43:56Z</time>
      </trkpt>
      <trkpt lat="48.62912" lon="1.97917">
        <ele>118</ele>
        <time>2010-03-19T11:43:57Z</time>
      </trkpt>
      <trkpt lat="48.62911" lon="1.97923">
        <ele>118</ele>
        <time>2010-03-19T11:43:58Z</time>
      </trkpt>
      <trkpt lat="48.6291" lon="1.97928">
        <ele>118</ele>
        <time>2010-03-19T11:43:59Z</time>
      </trkpt>
      <trkpt lat="48.62909" lon="1.97933">
        <ele>118</ele>
        <time>2010-03-19T11:44:00Z</time>
      </trkpt>
      <trkpt lat="48.62908" lon="1.97938">
        <ele>118</ele>
        <time>2010-03-19T11:44:01Z</time>
      </trkpt>
      <trkpt lat="48.62907" lon="1.97944">
        <ele>118</ele>
        <time>2010-03-19T11:44:02Z</time>
      </trkpt>
      <trkpt lat="48.62907" lon="1.9795">
        <ele>118</ele>
        <time>2010-03-19T11:44:03Z</time>
      </trkpt>
      <trkpt lat="48.62906" lon="1.97955">
        <ele>118</ele>
        <time>2010-03-19T11:44:04Z</time>
      </trkpt>
      <trkpt lat="48.62904" lon="1.97961">
        <ele>118</ele>
        <time>2010-03-19T11:44:05Z</time>
      </trkpt>
      <trkpt lat="48.62904" lon="1.97967">
        <ele>118</ele>
        <time>2010-03-19T11:44:06Z</time>
      </trkpt>
      <trkpt lat="48.62903" lon="1.97972">
        <ele>118</ele>
        <time>2010-03-19T11:44:07Z</time>
      </trkpt>
      <trkpt lat="48.62902" lon="1.97977">
        <ele>118</ele>
        <time>2010-03-19T11:44:08Z</time>
      </trkpt>
      <trkpt lat="48.62901" lon="1.97981">
        <ele>118</ele>
        <time>2010-03-19T11:44:09Z</time>
      </trkpt>
      <trkpt lat="48.62901" lon="1.97985">
        <ele>118</ele>
        <time>2010-03-19T11:44:10Z</time>
      </trkpt>
      <trkpt lat="48.629" lon="1.97989">
        <ele>118</ele>
        <time>2010-03-19T11:44:11Z</time>
      </trkpt>
      <trkpt lat="48.62899" lon="1.97992">
        <ele>118</ele>
        <time>2010-03-19T11:44:12Z</time>
      </trkpt>
      <trkpt lat="48.62898" lon="1.97996">
        <ele>118</ele>
        <time>2010-03-19T11:44:13Z</time>
      </trkpt>
      <trkpt lat="48.62897" lon="1.98">
        <ele>118</ele>
        <time>2010-03-19T11:44:14Z</time>
      </trkpt>
      <trkpt lat="48.62897" lon="1.98004">
        <ele>118</ele>
        <time>2010-03-19T11:44:15Z</time>
      </trkpt>
      <trkpt lat="48.62896" lon="1.98008">
        <ele>118</ele>
        <time>2010-03-19T11:44:16Z</time>
      </trkpt>
      <trkpt lat="48.62896" lon="1.98012">
        <ele>118</ele>
        <time>2010-03-19T11:44:17Z</time>
      </trkpt>
      <trkpt lat="48.62895" lon="1.98016">
        <ele>118</ele>
        <time>2010-03-19T11:44:18Z</time>
      </trkpt>
      <trkpt lat="48.62895" lon="1.98019">
        <ele>118</ele>
        <time>2010-03-19T11:44:19Z</time>
      </trkpt>
      <trkpt lat="48.62895" lon="1.98022">
        <ele>118</ele>
        <time>2010-03-19T11:44:20Z</time>
      </trkpt>
      <trkpt lat="48.62895" lon="1.98025">
        <ele>118</ele>
        <time>2010-03-19T11:44:21Z</time>
      </trkpt>
      <trkpt lat="48.62896" lon="1.98027">
        <ele>118</ele>
        <time>2010-03-19T11:44:22Z</time>
      </trkpt>
      <trkpt lat="48.62896" lon="1.98029">
        <ele>118</ele>
        <time>2010-03-19T11:44:24Z</time>
      </trkpt>
      <trkpt lat="48.62896" lon="1.98031">
        <ele>118</ele>
        <time>2010-03-19T11:44:27Z</time>
      </trkpt>
      <trkpt lat="48.62897" lon="1.98032">
        <ele>118</ele>
        <time>2010-03-19T11:44:30Z</time>
      </trkpt>
      <trkpt lat="48.629" lon="1.98034">
        <ele>118</ele>
        <time>2010-03-19T11:44:36Z</time>
      </trkpt>
      <trkpt lat="48.62901" lon="1.98035">
        <ele>118</ele>
        <time>2010-03-19T11:44:37Z</time>
      </trkpt>
      <trkpt lat="48.62903" lon="1.98035">
        <ele>118</ele>
        <time>2010-03-19T11:44:38Z</time>
      </trkpt>
      <trkpt lat="48.62905" lon="1.98036">
        <ele>118</ele>
        <time>2010-03-19T11:44:39Z</time>
      </trkpt>
      <trkpt lat="48.62907" lon="1.98036">
        <ele>117</ele>
        <time>2010-03-19T11:44:40Z</time>
      </trkpt>
      <trkpt lat="48.62909" lon="1.98036">
        <ele>117</ele>
        <time>2010-03-19T11:44:41Z</time>
      </trkpt>
      <trkpt lat="48.62911" lon="1.98036">
        <ele>117</ele>
        <time>2010-03-19T11:44:42Z</time>
      </trkpt>
      <trkpt lat="48.62913" lon="1.98037">
        <ele>117</ele>
        <time>2010-03-19T11:44:43Z</time>
      </trkpt>
      <trkpt lat="48.62914" lon="1.98037">
        <ele>117</ele>
        <time>2010-03-19T11:44:44Z</time>
      </trkpt>
      <trkpt lat="48.62916" lon="1.98038">
        <ele>117</ele>
        <time>2010-03-19T11:44:45Z</time>
      </trkpt>
      <trkpt lat="48.62918" lon="1.98038">
        <ele>117</ele>
        <time>2010-03-19T11:44:46Z</time>
      </trkpt>
      <trkpt lat="48.62921" lon="1.98038">
        <ele>117</ele>
        <time>2010-03-19T11:44:47Z</time>
      </trkpt>
      <trkpt lat="48.62924" lon="1.98039">
        <ele>117</ele>
        <time>2010-03-19T11:44:48Z</time>
      </trkpt>
      <trkpt lat="48.62927" lon="1.9804">
        <ele>117</ele>
        <time>2010-03-19T11:44:49Z</time>
      </trkpt>
      <trkpt lat="48.62931" lon="1.98041">
        <ele>116</ele>
        <time>2010-03-19T11:44:50Z</time>
      </trkpt>
      <trkpt lat="48.62935" lon="1.98042">
        <ele>116</ele>
        <time>2010-03-19T11:44:51Z</time>
      </trkpt>
      <trkpt lat="48.62939" lon="1.98043">
        <ele>116</ele>
        <time>2010-03-19T11:44:52Z</time>
      </trkpt>
      <trkpt lat="48.62943" lon="1.98043">
        <ele>116</ele>
        <time>2010-03-19T11:44:53Z</time>
      </trkpt>
      <trkpt lat="48.62947" lon="1.98043">
        <ele>115</ele>
        <time>2010-03-19T11:44:54Z</time>
      </trkpt>
      <trkpt lat="48.62951" lon="1.98044">
        <ele>115</ele>
        <time>2010-03-19T11:44:55Z</time>
      </trkpt>
      <trkpt lat="48.62953" lon="1.98046">
        <ele>115</ele>
        <time>2010-03-19T11:44:56Z</time>
      </trkpt>
      <trkpt lat="48.62955" lon="1.98047">
        <ele>114</ele>
        <time>2010-03-19T11:44:57Z</time>
      </trkpt>
      <trkpt lat="48.62957" lon="1.98049">
        <ele>114</ele>
        <time>2010-03-19T11:44:58Z</time>
      </trkpt>
      <trkpt lat="48.6296" lon="1.98052">
        <ele>114</ele>
        <time>2010-03-19T11:44:59Z</time>
      </trkpt>
      <trkpt lat="48.62963" lon="1.98054">
        <ele>114</ele>
        <time>2010-03-19T11:45:00Z</time>
      </trkpt>
      <trkpt lat="48.62965" lon="1.98056">
        <ele>114</ele>
        <time>2010-03-19T11:45:01Z</time>
      </trkpt>
      <trkpt lat="48.62967" lon="1.98059">
        <ele>114</ele>
        <time>2010-03-19T11:45:02Z</time>
      </trkpt>
      <trkpt lat="48.62969" lon="1.98062">
        <ele>114</ele>
        <time>2010-03-19T11:45:03Z</time>
      </trkpt>
      <trkpt lat="48.62971" lon="1.98066">
        <ele>114</ele>
        <time>2010-03-19T11:45:04Z</time>
      </trkpt>
      <trkpt lat="48.62974" lon="1.9807">
        <ele>114</ele>
        <time>2010-03-19T11:45:05Z</time>
      </trkpt>
      <trkpt lat="48.62975" lon="1.98074">
        <ele>114</ele>
        <time>2010-03-19T11:45:06Z</time>
      </trkpt>
      <trkpt lat="48.62977" lon="1.9808">
        <ele>114</ele>
        <time>2010-03-19T11:45:07Z</time>
      </trkpt>
      <trkpt lat="48.62978" lon="1.98084">
        <ele>114</ele>
        <time>2010-03-19T11:45:08Z</time>
      </trkpt>
      <trkpt lat="48.6298" lon="1.98088">
        <ele>114</ele>
        <time>2010-03-19T11:45:09Z</time>
      </trkpt>
      <trkpt lat="48.62981" lon="1.98092">
        <ele>114</ele>
        <time>2010-03-19T11:45:10Z</time>
      </trkpt>
      <trkpt lat="48.62984" lon="1.98097">
        <ele>114</ele>
        <time>2010-03-19T11:45:11Z</time>
      </trkpt>
      <trkpt lat="48.62986" lon="1.98102">
        <ele>114</ele>
        <time>2010-03-19T11:45:12Z</time>
      </trkpt>
      <trkpt lat="48.62987" lon="1.98106">
        <ele>114</ele>
        <time>2010-03-19T11:45:13Z</time>
      </trkpt>
      <trkpt lat="48.62988" lon="1.9811">
        <ele>114</ele>
        <time>2010-03-19T11:45:14Z</time>
      </trkpt>
      <trkpt lat="48.62989" lon="1.98115">
        <ele>114</ele>
        <time>2010-03-19T11:45:15Z</time>
      </trkpt>
      <trkpt lat="48.62991" lon="1.98119">
        <ele>114</ele>
        <time>2010-03-19T11:45:16Z</time>
      </trkpt>
      <trkpt lat="48.62991" lon="1.98123">
        <ele>113</ele>
        <time>2010-03-19T11:45:17Z</time>
      </trkpt>
      <trkpt lat="48.62992" lon="1.98126">
        <ele>113</ele>
        <time>2010-03-19T11:45:18Z</time>
      </trkpt>
      <trkpt lat="48.62993" lon="1.9813">
        <ele>113</ele>
        <time>2010-03-19T11:45:19Z</time>
      </trkpt>
      <trkpt lat="48.62994" lon="1.98133">
        <ele>112</ele>
        <time>2010-03-19T11:45:20Z</time>
      </trkpt>
      <trkpt lat="48.62994" lon="1.98136">
        <ele>112</ele>
        <time>2010-03-19T11:45:21Z</time>
      </trkpt>
      <trkpt lat="48.62995" lon="1.98138">
        <ele>112</ele>
        <time>2010-03-19T11:45:22Z</time>
      </trkpt>
      <trkpt lat="48.62995" lon="1.98141">
        <ele>112</ele>
        <time>2010-03-19T11:45:23Z</time>
      </trkpt>
      <trkpt lat="48.62996" lon="1.98144">
        <ele>112</ele>
        <time>2010-03-19T11:45:24Z</time>
      </trkpt>
      <trkpt lat="48.62997" lon="1.98146">
        <ele>111</ele>
        <time>2010-03-19T11:45:25Z</time>
      </trkpt>
      <trkpt lat="48.62997" lon="1.98149">
        <ele>111</ele>
        <time>2010-03-19T11:45:26Z</time>
      </trkpt>
      <trkpt lat="48.62999" lon="1.98151">
        <ele>111</ele>
        <time>2010-03-19T11:45:27Z</time>
      </trkpt>
      <trkpt lat="48.63" lon="1.98153">
        <ele>111</ele>
        <time>2010-03-19T11:45:28Z</time>
      </trkpt>
      <trkpt lat="48.63001" lon="1.98155">
        <ele>111</ele>
        <time>2010-03-19T11:45:29Z</time>
      </trkpt>
      <trkpt lat="48.63002" lon="1.98157">
        <ele>111</ele>
        <time>2010-03-19T11:45:30Z</time>
      </trkpt>
      <trkpt lat="48.63004" lon="1.98158">
        <ele>110</ele>
        <time>2010-03-19T11:45:31Z</time>
      </trkpt>
      <trkpt lat="48.63005" lon="1.9816">
        <ele>110</ele>
        <time>2010-03-19T11:45:32Z</time>
      </trkpt>
      <trkpt lat="48.63006" lon="1.98161">
        <ele>110</ele>
        <time>2010-03-19T11:45:33Z</time>
      </trkpt>
      <trkpt lat="48.63008" lon="1.98162">
        <ele>109</ele>
        <time>2010-03-19T11:45:34Z</time>
      </trkpt>
      <trkpt lat="48.63009" lon="1.98163">
        <ele>109</ele>
        <time>2010-03-19T11:45:35Z</time>
      </trkpt>
      <trkpt lat="48.6301" lon="1.98164">
        <ele>109</ele>
        <time>2010-03-19T11:45:36Z</time>
      </trkpt>
      <trkpt lat="48.63012" lon="1.98167">
        <ele>108</ele>
        <time>2010-03-19T11:45:38Z</time>
      </trkpt>
      <trkpt lat="48.63014" lon="1.98169">
        <ele>108</ele>
        <time>2010-03-19T11:45:39Z</time>
      </trkpt>
      <trkpt lat="48.63015" lon="1.98171">
        <ele>108</ele>
        <time>2010-03-19T11:45:40Z</time>
      </trkpt>
      <trkpt lat="48.63017" lon="1.98173">
        <ele>108</ele>
        <time>2010-03-19T11:45:41Z</time>
      </trkpt>
      <trkpt lat="48.63018" lon="1.98175">
        <ele>108</ele>
        <time>2010-03-19T11:45:42Z</time>
      </trkpt>
      <trkpt lat="48.63019" lon="1.98177">
        <ele>108</ele>
        <time>2010-03-19T11:45:43Z</time>
      </trkpt>
      <trkpt lat="48.6302" lon="1.98179">
        <ele>108</ele>
        <time>2010-03-19T11:45:44Z</time>
      </trkpt>
      <trkpt lat="48.63021" lon="1.98182">
        <ele>108</ele>
        <time>2010-03-19T11:45:45Z</time>
      </trkpt>
      <trkpt lat="48.63022" lon="1.98186">
        <ele>108</ele>
        <time>2010-03-19T11:45:46Z</time>
      </trkpt>
      <trkpt lat="48.63023" lon="1.98191">
        <ele>108</ele>
        <time>2010-03-19T11:45:47Z</time>
      </trkpt>
      <trkpt lat="48.63023" lon="1.98197">
        <ele>108</ele>
        <time>2010-03-19T11:45:48Z</time>
      </trkpt>
      <trkpt lat="48.63024" lon="1.98202">
        <ele>108</ele>
        <time>2010-03-19T11:45:49Z</time>
      </trkpt>
      <trkpt lat="48.63024" lon="1.98208">
        <ele>108</ele>
        <time>2010-03-19T11:45:50Z</time>
      </trkpt>
      <trkpt lat="48.63024" lon="1.98214">
        <ele>108</ele>
        <time>2010-03-19T11:45:51Z</time>
      </trkpt>
      <trkpt lat="48.63024" lon="1.9822">
        <ele>108</ele>
        <time>2010-03-19T11:45:52Z</time>
      </trkpt>
      <trkpt lat="48.63024" lon="1.98226">
        <ele>108</ele>
        <time>2010-03-19T11:45:53Z</time>
      </trkpt>
      <trkpt lat="48.63023" lon="1.98232">
        <ele>108</ele>
        <time>2010-03-19T11:45:54Z</time>
      </trkpt>
      <trkpt lat="48.63023" lon="1.98237">
        <ele>108</ele>
        <time>2010-03-19T11:45:55Z</time>
      </trkpt>
      <trkpt lat="48.63023" lon="1.98243">
        <ele>108</ele>
        <time>2010-03-19T11:45:56Z</time>
      </trkpt>
      <trkpt lat="48.63023" lon="1.98249">
        <ele>108</ele>
        <time>2010-03-19T11:45:57Z</time>
      </trkpt>
      <trkpt lat="48.63023" lon="1.98255">
        <ele>108</ele>
        <time>2010-03-19T11:45:58Z</time>
      </trkpt>
      <trkpt lat="48.63023" lon="1.98261">
        <ele>108</ele>
        <time>2010-03-19T11:45:59Z</time>
      </trkpt>
      <trkpt lat="48.63023" lon="1.98266">
        <ele>108</ele>
        <time>2010-03-19T11:46:00Z</time>
      </trkpt>
      <trkpt lat="48.63023" lon="1.98272">
        <ele>108</ele>
        <time>2010-03-19T11:46:01Z</time>
      </trkpt>
      <trkpt lat="48.63023" lon="1.98277">
        <ele>108</ele>
        <time>2010-03-19T11:46:02Z</time>
      </trkpt>
      <trkpt lat="48.63022" lon="1.98283">
        <ele>108</ele>
        <time>2010-03-19T11:46:03Z</time>
      </trkpt>
      <trkpt lat="48.63022" lon="1.98289">
        <ele>108</ele>
        <time>2010-03-19T11:46:04Z</time>
      </trkpt>
      <trkpt lat="48.63021" lon="1.98295">
        <ele>108</ele>
        <time>2010-03-19T11:46:05Z</time>
      </trkpt>
      <trkpt lat="48.63021" lon="1.98301">
        <ele>108</ele>
        <time>2010-03-19T11:46:06Z</time>
      </trkpt>
      <trkpt lat="48.63021" lon="1.98307">
        <ele>108</ele>
        <time>2010-03-19T11:46:07Z</time>
      </trkpt>
      <trkpt lat="48.6302" lon="1.98313">
        <ele>108</ele>
        <time>2010-03-19T11:46:08Z</time>
      </trkpt>
      <trkpt lat="48.6302" lon="1.98319">
        <ele>108</ele>
        <time>2010-03-19T11:46:09Z</time>
      </trkpt>
      <trkpt lat="48.6302" lon="1.98325">
        <ele>108</ele>
        <time>2010-03-19T11:46:10Z</time>
      </trkpt>
      <trkpt lat="48.63019" lon="1.9833">
        <ele>108</ele>
        <time>2010-03-19T11:46:11Z</time>
      </trkpt>
      <trkpt lat="48.63019" lon="1.98336">
        <ele>108</ele>
        <time>2010-03-19T11:46:12Z</time>
      </trkpt>
      <trkpt lat="48.63019" lon="1.98342">
        <ele>108</ele>
        <time>2010-03-19T11:46:13Z</time>
      </trkpt>
      <trkpt lat="48.63019" lon="1.98349">
        <ele>108</ele>
        <time>2010-03-19T11:46:14Z</time>
      </trkpt>
      <trkpt lat="48.6302" lon="1.98354">
        <ele>108</ele>
        <time>2010-03-19T11:46:15Z</time>
      </trkpt>
      <trkpt lat="48.6302" lon="1.98359">
        <ele>108</ele>
        <time>2010-03-19T11:46:16Z</time>
      </trkpt>
      <trkpt lat="48.63021" lon="1.98364">
        <ele>108</ele>
        <time>2010-03-19T11:46:17Z</time>
      </trkpt>
      <trkpt lat="48.63022" lon="1.98369">
        <ele>108</ele>
        <time>2010-03-19T11:46:18Z</time>
      </trkpt>
      <trkpt lat="48.63023" lon="1.98375">
        <ele>108</ele>
        <time>2010-03-19T11:46:19Z</time>
      </trkpt>
      <trkpt lat="48.63024" lon="1.9838">
        <ele>108</ele>
        <time>2010-03-19T11:46:20Z</time>
      </trkpt>
      <trkpt lat="48.63025" lon="1.98386">
        <ele>108</ele>
        <time>2010-03-19T11:46:21Z</time>
      </trkpt>
      <trkpt lat="48.63025" lon="1.98391">
        <ele>108</ele>
        <time>2010-03-19T11:46:22Z</time>
      </trkpt>
      <trkpt lat="48.63026" lon="1.98397">
        <ele>108</ele>
        <time>2010-03-19T11:46:23Z</time>
      </trkpt>
      <trkpt lat="48.63027" lon="1.98403">
        <ele>108</ele>
        <time>2010-03-19T11:46:24Z</time>
      </trkpt>
      <trkpt lat="48.63028" lon="1.98408">
        <ele>108</ele>
        <time>2010-03-19T11:46:25Z</time>
      </trkpt>
      <trkpt lat="48.63029" lon="1.98413">
        <ele>108</ele>
        <time>2010-03-19T11:46:26Z</time>
      </trkpt>
      <trkpt lat="48.63029" lon="1.98419">
        <ele>107</ele>
        <time>2010-03-19T11:46:27Z</time>
      </trkpt>
      <trkpt lat="48.63029" lon="1.98424">
        <ele>107</ele>
        <time>2010-03-19T11:46:28Z</time>
      </trkpt>
      <trkpt lat="48.6303" lon="1.9843">
        <ele>107</ele>
        <time>2010-03-19T11:46:29Z</time>
      </trkpt>
      <trkpt lat="48.6303" lon="1.98436">
        <ele>107</ele>
        <time>2010-03-19T11:46:30Z</time>
      </trkpt>
      <trkpt lat="48.63031" lon="1.98442">
        <ele>107</ele>
        <time>2010-03-19T11:46:31Z</time>
      </trkpt>
      <trkpt lat="48.63031" lon="1.98449">
        <ele>107</ele>
        <time>2010-03-19T11:46:32Z</time>
      </trkpt>
      <trkpt lat="48.63032" lon="1.98455">
        <ele>107</ele>
        <time>2010-03-19T11:46:33Z</time>
      </trkpt>
      <trkpt lat="48.63032" lon="1.98462">
        <ele>107</ele>
        <time>2010-03-19T11:46:34Z</time>
      </trkpt>
      <trkpt lat="48.63033" lon="1.98467">
        <ele>107</ele>
        <time>2010-03-19T11:46:35Z</time>
      </trkpt>
      <trkpt lat="48.63033" lon="1.98472">
        <ele>107</ele>
        <time>2010-03-19T11:46:36Z</time>
      </trkpt>
      <trkpt lat="48.63033" lon="1.98478">
        <ele>107</ele>
        <time>2010-03-19T11:46:37Z</time>
      </trkpt>
      <trkpt lat="48.63033" lon="1.98484">
        <ele>107</ele>
        <time>2010-03-19T11:46:38Z</time>
      </trkpt>
      <trkpt lat="48.63033" lon="1.98489">
        <ele>107</ele>
        <time>2010-03-19T11:46:39Z</time>
      </trkpt>
      <trkpt lat="48.63033" lon="1.98495">
        <ele>107</ele>
        <time>2010-03-19T11:46:40Z</time>
      </trkpt>
      <trkpt lat="48.63033" lon="1.985">
        <ele>107</ele>
        <time>2010-03-19T11:46:41Z</time>
      </trkpt>
      <trkpt lat="48.63031" lon="1.98507">
        <ele>107</ele>
        <time>2010-03-19T11:46:42Z</time>
      </trkpt>
      <trkpt lat="48.6303" lon="1.98513">
        <ele>107</ele>
        <time>2010-03-19T11:46:43Z</time>
      </trkpt>
      <trkpt lat="48.63029" lon="1.9852">
        <ele>107</ele>
        <time>2010-03-19T11:46:44Z</time>
      </trkpt>
      <trkpt lat="48.63027" lon="1.98524">
        <ele>107</ele>
        <time>2010-03-19T11:46:45Z</time>
      </trkpt>
      <trkpt lat="48.63026" lon="1.98529">
        <ele>107</ele>
        <time>2010-03-19T11:46:46Z</time>
      </trkpt>
      <trkpt lat="48.63025" lon="1.98534">
        <ele>107</ele>
        <time>2010-03-19T11:46:47Z</time>
      </trkpt>
      <trkpt lat="48.63023" lon="1.98539">
        <ele>107</ele>
        <time>2010-03-19T11:46:48Z</time>
      </trkpt>
      <trkpt lat="48.63021" lon="1.98544">
        <ele>107</ele>
        <time>2010-03-19T11:46:49Z</time>
      </trkpt>
      <trkpt lat="48.6302" lon="1.98549">
        <ele>107</ele>
        <time>2010-03-19T11:46:50Z</time>
      </trkpt>
      <trkpt lat="48.63019" lon="1.98554">
        <ele>107</ele>
        <time>2010-03-19T11:46:51Z</time>
      </trkpt>
      <trkpt lat="48.63018" lon="1.98559">
        <ele>107</ele>
        <time>2010-03-19T11:46:52Z</time>
      </trkpt>
      <trkpt lat="48.63017" lon="1.98565">
        <ele>107</ele>
        <time>2010-03-19T11:46:53Z</time>
      </trkpt>
      <trkpt lat="48.63016" lon="1.9857">
        <ele>107</ele>
        <time>2010-03-19T11:46:54Z</time>
      </trkpt>
      <trkpt lat="48.63015" lon="1.98575">
        <ele>107</ele>
        <time>2010-03-19T11:46:55Z</time>
      </trkpt>
      <trkpt lat="48.63013" lon="1.98581">
        <ele>107</ele>
        <time>2010-03-19T11:46:56Z</time>
      </trkpt>
      <trkpt lat="48.63012" lon="1.98587">
        <ele>107</ele>
        <time>2010-03-19T11:46:57Z</time>
      </trkpt>
      <trkpt lat="48.63012" lon="1.98593">
        <ele>107</ele>
        <time>2010-03-19T11:46:58Z</time>
      </trkpt>
      <trkpt lat="48.63011" lon="1.986">
        <ele>107</ele>
        <time>2010-03-19T11:46:59Z</time>
      </trkpt>
      <trkpt lat="48.6301" lon="1.98604">
        <ele>107</ele>
        <time>2010-03-19T11:47:00Z</time>
      </trkpt>
      <trkpt lat="48.6301" lon="1.98609">
        <ele>107</ele>
        <time>2010-03-19T11:47:01Z</time>
      </trkpt>
      <trkpt lat="48.63009" lon="1.98614">
        <ele>107</ele>
        <time>2010-03-19T11:47:02Z</time>
      </trkpt>
      <trkpt lat="48.63008" lon="1.9862">
        <ele>107</ele>
        <time>2010-03-19T11:47:03Z</time>
      </trkpt>
      <trkpt lat="48.63007" lon="1.98625">
        <ele>107</ele>
        <time>2010-03-19T11:47:04Z</time>
      </trkpt>
      <trkpt lat="48.63006" lon="1.9863">
        <ele>107</ele>
        <time>2010-03-19T11:47:05Z</time>
      </trkpt>
      <trkpt lat="48.63005" lon="1.98635">
        <ele>107</ele>
        <time>2010-03-19T11:47:06Z</time>
      </trkpt>
      <trkpt lat="48.63004" lon="1.9864">
        <ele>107</ele>
        <time>2010-03-19T11:47:07Z</time>
      </trkpt>
      <trkpt lat="48.63003" lon="1.98644">
        <ele>107</ele>
        <time>2010-03-19T11:47:08Z</time>
      </trkpt>
      <trkpt lat="48.63001" lon="1.98649">
        <ele>107</ele>
        <time>2010-03-19T11:47:09Z</time>
      </trkpt>
      <trkpt lat="48.62999" lon="1.98653">
        <ele>107</ele>
        <time>2010-03-19T11:47:10Z</time>
      </trkpt>
      <trkpt lat="48.62997" lon="1.98658">
        <ele>107</ele>
        <time>2010-03-19T11:47:11Z</time>
      </trkpt>
      <trkpt lat="48.62996" lon="1.98663">
        <ele>107</ele>
        <time>2010-03-19T11:47:12Z</time>
      </trkpt>
      <trkpt lat="48.62994" lon="1.98667">
        <ele>107</ele>
        <time>2010-03-19T11:47:13Z</time>
      </trkpt>
      <trkpt lat="48.62992" lon="1.98672">
        <ele>107</ele>
        <time>2010-03-19T11:47:14Z</time>
      </trkpt>
      <trkpt lat="48.62991" lon="1.98676">
        <ele>107</ele>
        <time>2010-03-19T11:47:15Z</time>
      </trkpt>
      <trkpt lat="48.62988" lon="1.98681">
        <ele>107</ele>
        <time>2010-03-19T11:47:16Z</time>
      </trkpt>
      <trkpt lat="48.62987" lon="1.98686">
        <ele>107</ele>
        <time>2010-03-19T11:47:17Z</time>
      </trkpt>
      <trkpt lat="48.62985" lon="1.98691">
        <ele>107</ele>
        <time>2010-03-19T11:47:18Z</time>
      </trkpt>
      <trkpt lat="48.62983" lon="1.98696">
        <ele>107</ele>
        <time>2010-03-19T11:47:19Z</time>
      </trkpt>
      <trkpt lat="48.62981" lon="1.98701">
        <ele>107</ele>
        <time>2010-03-19T11:47:20Z</time>
      </trkpt>
      <trkpt lat="48.6298" lon="1.98706">
        <ele>107</ele>
        <time>2010-03-19T11:47:21Z</time>
      </trkpt>
      <trkpt lat="48.62978" lon="1.98712">
        <ele>107</ele>
        <time>2010-03-19T11:47:22Z</time>
      </trkpt>
      <trkpt lat="48.62977" lon="1.98716">
        <ele>107</ele>
        <time>2010-03-19T11:47:23Z</time>
      </trkpt>
      <trkpt lat="48.62975" lon="1.98722">
        <ele>107</ele>
        <time>2010-03-19T11:47:24Z</time>
      </trkpt>
      <trkpt lat="48.62974" lon="1.98726">
        <ele>107</ele>
        <time>2010-03-19T11:47:25Z</time>
      </trkpt>
      <trkpt lat="48.62972" lon="1.98732">
        <ele>107</ele>
        <time>2010-03-19T11:47:26Z</time>
      </trkpt>
      <trkpt lat="48.62971" lon="1.98737">
        <ele>107</ele>
        <time>2010-03-19T11:47:27Z</time>
      </trkpt>
      <trkpt lat="48.62969" lon="1.98741">
        <ele>107</ele>
        <time>2010-03-19T11:47:28Z</time>
      </trkpt>
      <trkpt lat="48.62968" lon="1.98746">
        <ele>107</ele>
        <time>2010-03-19T11:47:29Z</time>
      </trkpt>
      <trkpt lat="48.62967" lon="1.98751">
        <ele>107</ele>
        <time>2010-03-19T11:47:30Z</time>
      </trkpt>
      <trkpt lat="48.62964" lon="1.98756">
        <ele>107</ele>
        <time>2010-03-19T11:47:31Z</time>
      </trkpt>
      <trkpt lat="48.62963" lon="1.9876">
        <ele>107</ele>
        <time>2010-03-19T11:47:32Z</time>
      </trkpt>
      <trkpt lat="48.62961" lon="1.98765">
        <ele>107</ele>
        <time>2010-03-19T11:47:33Z</time>
      </trkpt>
      <trkpt lat="48.62959" lon="1.98769">
        <ele>107</ele>
        <time>2010-03-19T11:47:34Z</time>
      </trkpt>
      <trkpt lat="48.62957" lon="1.98772">
        <ele>107</ele>
        <time>2010-03-19T11:47:35Z</time>
      </trkpt>
      <trkpt lat="48.62955" lon="1.98776">
        <ele>107</ele>
        <time>2010-03-19T11:47:36Z</time>
      </trkpt>
      <trkpt lat="48.62952" lon="1.9878">
        <ele>107</ele>
        <time>2010-03-19T11:47:37Z</time>
      </trkpt>
      <trkpt lat="48.62949" lon="1.98784">
        <ele>107</ele>
        <time>2010-03-19T11:47:38Z</time>
      </trkpt>
      <trkpt lat="48.62945" lon="1.98788">
        <ele>107</ele>
        <time>2010-03-19T11:47:39Z</time>
      </trkpt>
      <trkpt lat="48.62942" lon="1.98792">
        <ele>107</ele>
        <time>2010-03-19T11:47:40Z</time>
      </trkpt>
      <trkpt lat="48.62939" lon="1.98795">
        <ele>106</ele>
        <time>2010-03-19T11:47:41Z</time>
      </trkpt>
      <trkpt lat="48.62936" lon="1.98798">
        <ele>106</ele>
        <time>2010-03-19T11:47:42Z</time>
      </trkpt>
      <trkpt lat="48.62934" lon="1.98801">
        <ele>106</ele>
        <time>2010-03-19T11:47:43Z</time>
      </trkpt>
      <trkpt lat="48.62931" lon="1.98803">
        <ele>106</ele>
        <time>2010-03-19T11:47:44Z</time>
      </trkpt>
      <trkpt lat="48.62929" lon="1.98806">
        <ele>105</ele>
        <time>2010-03-19T11:47:45Z</time>
      </trkpt>
      <trkpt lat="48.62926" lon="1.98809">
        <ele>105</ele>
        <time>2010-03-19T11:47:46Z</time>
      </trkpt>
      <trkpt lat="48.62925" lon="1.98811">
        <ele>105</ele>
        <time>2010-03-19T11:47:47Z</time>
      </trkpt>
      <trkpt lat="48.62922" lon="1.98814">
        <ele>104</ele>
        <time>2010-03-19T11:47:48Z</time>
      </trkpt>
      <trkpt lat="48.6292" lon="1.98817">
        <ele>104</ele>
        <time>2010-03-19T11:47:49Z</time>
      </trkpt>
      <trkpt lat="48.62919" lon="1.98819">
        <ele>104</ele>
        <time>2010-03-19T11:47:50Z</time>
      </trkpt>
      <trkpt lat="48.62917" lon="1.98822">
        <ele>104</ele>
        <time>2010-03-19T11:47:51Z</time>
      </trkpt>
      <trkpt lat="48.62916" lon="1.98824">
        <ele>104</ele>
        <time>2010-03-19T11:47:52Z</time>
      </trkpt>
      <trkpt lat="48.62915" lon="1.98826">
        <ele>104</ele>
        <time>2010-03-19T11:47:53Z</time>
      </trkpt>
      <trkpt lat="48.62913" lon="1.98828">
        <ele>104</ele>
        <time>2010-03-19T11:47:54Z</time>
      </trkpt>
      <trkpt lat="48.62912" lon="1.9883">
        <ele>104</ele>
        <time>2010-03-19T11:47:55Z</time>
      </trkpt>
      <trkpt lat="48.62911" lon="1.98833">
        <ele>104</ele>
        <time>2010-03-19T11:47:56Z</time>
      </trkpt>
      <trkpt lat="48.6291" lon="1.98835">
        <ele>104</ele>
        <time>2010-03-19T11:47:57Z</time>
      </trkpt>
      <trkpt lat="48.62908" lon="1.98838">
        <ele>104</ele>
        <time>2010-03-19T11:47:58Z</time>
      </trkpt>
      <trkpt lat="48.62907" lon="1.9884">
        <ele>104</ele>
        <time>2010-03-19T11:47:59Z</time>
      </trkpt>
      <trkpt lat="48.62906" lon="1.98842">
        <ele>104</ele>
        <time>2010-03-19T11:48:00Z</time>
      </trkpt>
      <trkpt lat="48.62906" lon="1.98844">
        <ele>104</ele>
        <time>2010-03-19T11:48:01Z</time>
      </trkpt>
      <trkpt lat="48.62905" lon="1.98847">
        <ele>104</ele>
        <time>2010-03-19T11:48:02Z</time>
      </trkpt>
      <trkpt lat="48.62904" lon="1.98849">
        <ele>104</ele>
        <time>2010-03-19T11:48:03Z</time>
      </trkpt>
      <trkpt lat="48.62902" lon="1.98851">
        <ele>104</ele>
        <time>2010-03-19T11:48:04Z</time>
      </trkpt>
      <trkpt lat="48.62901" lon="1.98853">
        <ele>104</ele>
        <time>2010-03-19T11:48:05Z</time>
      </trkpt>
      <trkpt lat="48.629" lon="1.98855">
        <ele>104</ele>
        <time>2010-03-19T11:48:06Z</time>
      </trkpt>
      <trkpt lat="48.62899" lon="1.98858">
        <ele>104</ele>
        <time>2010-03-19T11:48:07Z</time>
      </trkpt>
      <trkpt lat="48.62897" lon="1.9886">
        <ele>104</ele>
        <time>2010-03-19T11:48:08Z</time>
      </trkpt>
      <trkpt lat="48.62896" lon="1.98861">
        <ele>104</ele>
        <time>2010-03-19T11:48:10Z</time>
      </trkpt>
      <trkpt lat="48.62894" lon="1.9886">
        <ele>104</ele>
        <time>2010-03-19T11:48:12Z</time>
      </trkpt>
      <trkpt lat="48.62897" lon="1.98862">
        <ele>104</ele>
        <time>2010-03-19T11:48:15Z</time>
      </trkpt>
      <trkpt lat="48.62899" lon="1.98864">
        <ele>104</ele>
        <time>2010-03-19T11:48:16Z</time>
      </trkpt>
      <trkpt lat="48.62902" lon="1.98866">
        <ele>104</ele>
        <time>2010-03-19T11:48:17Z</time>
      </trkpt>
      <trkpt lat="48.62904" lon="1.98868">
        <ele>104</ele>
        <time>2010-03-19T11:48:18Z</time>
      </trkpt>
      <trkpt lat="48.62906" lon="1.98869">
        <ele>104</ele>
        <time>2010-03-19T11:48:19Z</time>
      </trkpt>
      <trkpt lat="48.62909" lon="1.98871">
        <ele>104</ele>
        <time>2010-03-19T11:48:20Z</time>
      </trkpt>
      <trkpt lat="48.6291" lon="1.98872">
        <ele>104</ele>
        <time>2010-03-19T11:48:21Z</time>
      </trkpt>
      <trkpt lat="48.62912" lon="1.98874">
        <ele>104</ele>
        <time>2010-03-19T11:48:22Z</time>
      </trkpt>
      <trkpt lat="48.62913" lon="1.98875">
        <ele>104</ele>
        <time>2010-03-19T11:48:23Z</time>
      </trkpt>
      <trkpt lat="48.62914" lon="1.98876">
        <ele>104</ele>
        <time>2010-03-19T11:48:24Z</time>
      </trkpt>
      <trkpt lat="48.62915" lon="1.98878">
        <ele>104</ele>
        <time>2010-03-19T11:48:25Z</time>
      </trkpt>
      <trkpt lat="48.62917" lon="1.98879">
        <ele>104</ele>
        <time>2010-03-19T11:48:26Z</time>
      </trkpt>
      <trkpt lat="48.62918" lon="1.9888">
        <ele>104</ele>
        <time>2010-03-19T11:48:27Z</time>
      </trkpt>
      <trkpt lat="48.62919" lon="1.98881">
        <ele>104</ele>
        <time>2010-03-19T11:48:28Z</time>
      </trkpt>
      <trkpt lat="48.62921" lon="1.98882">
        <ele>104</ele>
        <time>2010-03-19T11:48:29Z</time>
      </trkpt>
      <trkpt lat="48.62922" lon="1.98883">
        <ele>104</ele>
        <time>2010-03-19T11:48:30Z</time>
      </trkpt>
      <trkpt lat="48.62923" lon="1.98884">
        <ele>104</ele>
        <time>2010-03-19T11:48:31Z</time>
      </trkpt>
      <trkpt lat="48.62925" lon="1.98885">
        <ele>104</ele>
        <time>2010-03-19T11:48:32Z</time>
      </trkpt>
      <trkpt lat="48.62926" lon="1.98887">
        <ele>104</ele>
        <time>2010-03-19T11:48:33Z</time>
      </trkpt>
      <trkpt lat="48.62927" lon="1.98888">
        <ele>104</ele>
        <time>2010-03-19T11:48:34Z</time>
      </trkpt>
      <trkpt lat="48.62929" lon="1.9889">
        <ele>104</ele>
        <time>2010-03-19T11:48:35Z</time>
      </trkpt>
      <trkpt lat="48.6293" lon="1.98892">
        <ele>104</ele>
        <time>2010-03-19T11:48:36Z</time>
      </trkpt>
      <trkpt lat="48.62931" lon="1.98894">
        <ele>104</ele>
        <time>2010-03-19T11:48:37Z</time>
      </trkpt>
      <trkpt lat="48.62932" lon="1.98896">
        <ele>104</ele>
        <time>2010-03-19T11:48:38Z</time>
      </trkpt>
      <trkpt lat="48.62934" lon="1.98897">
        <ele>104</ele>
        <time>2010-03-19T11:48:39Z</time>
      </trkpt>
      <trkpt lat="48.62935" lon="1.98899">
        <ele>104</ele>
        <time>2010-03-19T11:48:40Z</time>
      </trkpt>
      <trkpt lat="48.62937" lon="1.989">
        <ele>104</ele>
        <time>2010-03-19T11:48:41Z</time>
      </trkpt>
      <trkpt lat="48.62938" lon="1.98902">
        <ele>104</ele>
        <time>2010-03-19T11:48:42Z</time>
      </trkpt>
      <trkpt lat="48.6294" lon="1.98904">
        <ele>104</ele>
        <time>2010-03-19T11:48:43Z</time>
      </trkpt>
      <trkpt lat="48.62941" lon="1.98905">
        <ele>104</ele>
        <time>2010-03-19T11:48:44Z</time>
      </trkpt>
      <trkpt lat="48.62943" lon="1.98907">
        <ele>104</ele>
        <time>2010-03-19T11:48:45Z</time>
      </trkpt>
      <trkpt lat="48.62944" lon="1.98908">
        <ele>104</ele>
        <time>2010-03-19T11:48:46Z</time>
      </trkpt>
      <trkpt lat="48.62945" lon="1.98909">
        <ele>104</ele>
        <time>2010-03-19T11:48:47Z</time>
      </trkpt>
      <trkpt lat="48.62947" lon="1.98911">
        <ele>104</ele>
        <time>2010-03-19T11:48:48Z</time>
      </trkpt>
      <trkpt lat="48.62948" lon="1.98912">
        <ele>104</ele>
        <time>2010-03-19T11:48:49Z</time>
      </trkpt>
      <trkpt lat="48.6295" lon="1.98914">
        <ele>104</ele>
        <time>2010-03-19T11:48:50Z</time>
      </trkpt>
      <trkpt lat="48.62951" lon="1.98915">
        <ele>104</ele>
        <time>2010-03-19T11:48:51Z</time>
      </trkpt>
      <trkpt lat="48.62953" lon="1.98916">
        <ele>104</ele>
        <time>2010-03-19T11:48:52Z</time>
      </trkpt>
      <trkpt lat="48.62954" lon="1.98918">
        <ele>104</ele>
        <time>2010-03-19T11:48:53Z</time>
      </trkpt>
      <trkpt lat="48.62956" lon="1.98919">
        <ele>104</ele>
        <time>2010-03-19T11:48:54Z</time>
      </trkpt>
      <trkpt lat="48.62957" lon="1.98921">
        <ele>104</ele>
        <time>2010-03-19T11:48:55Z</time>
      </trkpt>
      <trkpt lat="48.62959" lon="1.98923">
        <ele>104</ele>
        <time>2010-03-19T11:48:56Z</time>
      </trkpt>
      <trkpt lat="48.6296" lon="1.98924">
        <ele>104</ele>
        <time>2010-03-19T11:48:57Z</time>
      </trkpt>
      <trkpt lat="48.62961" lon="1.98926">
        <ele>104</ele>
        <time>2010-03-19T11:48:58Z</time>
      </trkpt>
      <trkpt lat="48.62962" lon="1.98927">
        <ele>104</ele>
        <time>2010-03-19T11:48:59Z</time>
      </trkpt>
      <trkpt lat="48.62963" lon="1.98928">
        <ele>104</ele>
        <time>2010-03-19T11:49:00Z</time>
      </trkpt>
      <trkpt lat="48.62965" lon="1.98929">
        <ele>104</ele>
        <time>2010-03-19T11:49:01Z</time>
      </trkpt>
      <trkpt lat="48.62967" lon="1.98931">
        <ele>104</ele>
        <time>2010-03-19T11:49:02Z</time>
      </trkpt>
      <trkpt lat="48.62968" lon="1.98932">
        <ele>104</ele>
        <time>2010-03-19T11:49:03Z</time>
      </trkpt>
      <trkpt lat="48.62969" lon="1.98933">
        <ele>103</ele>
        <time>2010-03-19T11:49:04Z</time>
      </trkpt>
      <trkpt lat="48.6297" lon="1.98935">
        <ele>103</ele>
        <time>2010-03-19T11:49:05Z</time>
      </trkpt>
      <trkpt lat="48.62971" lon="1.98936">
        <ele>103</ele>
        <time>2010-03-19T11:49:06Z</time>
      </trkpt>
      <trkpt lat="48.62973" lon="1.98938">
        <ele>103</ele>
        <time>2010-03-19T11:49:07Z</time>
      </trkpt>
      <trkpt lat="48.62974" lon="1.98939">
        <ele>103</ele>
        <time>2010-03-19T11:49:08Z</time>
      </trkpt>
      <trkpt lat="48.62976" lon="1.9894">
        <ele>103</ele>
        <time>2010-03-19T11:49:09Z</time>
      </trkpt>
      <trkpt lat="48.62977" lon="1.98941">
        <ele>103</ele>
        <time>2010-03-19T11:49:10Z</time>
      </trkpt>
      <trkpt lat="48.62978" lon="1.98942">
        <ele>103</ele>
        <time>2010-03-19T11:49:11Z</time>
      </trkpt>
      <trkpt lat="48.6298" lon="1.98943">
        <ele>103</ele>
        <time>2010-03-19T11:49:12Z</time>
      </trkpt>
      <trkpt lat="48.62981" lon="1.98945">
        <ele>103</ele>
        <time>2010-03-19T11:49:13Z</time>
      </trkpt>
      <trkpt lat="48.62983" lon="1.98946">
        <ele>103</ele>
        <time>2010-03-19T11:49:14Z</time>
      </trkpt>
      <trkpt lat="48.62985" lon="1.98947">
        <ele>103</ele>
        <time>2010-03-19T11:49:15Z</time>
      </trkpt>
      <trkpt lat="48.62986" lon="1.98948">
        <ele>102</ele>
        <time>2010-03-19T11:49:16Z</time>
      </trkpt>
      <trkpt lat="48.62988" lon="1.9895">
        <ele>102</ele>
        <time>2010-03-19T11:49:17Z</time>
      </trkpt>
      <trkpt lat="48.62989" lon="1.98951">
        <ele>102</ele>
        <time>2010-03-19T11:49:18Z</time>
      </trkpt>
      <trkpt lat="48.62991" lon="1.98952">
        <ele>102</ele>
        <time>2010-03-19T11:49:19Z</time>
      </trkpt>
      <trkpt lat="48.62992" lon="1.98953">
        <ele>102</ele>
        <time>2010-03-19T11:49:20Z</time>
      </trkpt>
      <trkpt lat="48.62994" lon="1.98954">
        <ele>102</ele>
        <time>2010-03-19T11:49:21Z</time>
      </trkpt>
      <trkpt lat="48.62995" lon="1.98956">
        <ele>102</ele>
        <time>2010-03-19T11:49:22Z</time>
      </trkpt>
      <trkpt lat="48.62996" lon="1.98957">
        <ele>102</ele>
        <time>2010-03-19T11:49:23Z</time>
      </trkpt>
      <trkpt lat="48.62997" lon="1.98959">
        <ele>102</ele>
        <time>2010-03-19T11:49:24Z</time>
      </trkpt>
      <trkpt lat="48.62999" lon="1.9896">
        <ele>102</ele>
        <time>2010-03-19T11:49:25Z</time>
      </trkpt>
      <trkpt lat="48.63" lon="1.98961">
        <ele>102</ele>
        <time>2010-03-19T11:49:26Z</time>
      </trkpt>
      <trkpt lat="48.63002" lon="1.98962">
        <ele>102</ele>
        <time>2010-03-19T11:49:27Z</time>
      </trkpt>
      <trkpt lat="48.63003" lon="1.98963">
        <ele>102</ele>
        <time>2010-03-19T11:49:28Z</time>
      </trkpt>
      <trkpt lat="48.63005" lon="1.98964">
        <ele>102</ele>
        <time>2010-03-19T11:49:29Z</time>
      </trkpt>
      <trkpt lat="48.63006" lon="1.98965">
        <ele>102</ele>
        <time>2010-03-19T11:49:30Z</time>
      </trkpt>
      <trkpt lat="48.63008" lon="1.98966">
        <ele>102</ele>
        <time>2010-03-19T11:49:31Z</time>
      </trkpt>
      <trkpt lat="48.6301" lon="1.98967">
        <ele>102</ele>
        <time>2010-03-19T11:49:32Z</time>
      </trkpt>
      <trkpt lat="48.63011" lon="1.98967">
        <ele>102</ele>
        <time>2010-03-19T11:49:33Z</time>
      </trkpt>
      <trkpt lat="48.63013" lon="1.98968">
        <ele>102</ele>
        <time>2010-03-19T11:49:34Z</time>
      </trkpt>
      <trkpt lat="48.63014" lon="1.98968">
        <ele>102</ele>
        <time>2010-03-19T11:49:35Z</time>
      </trkpt>
      <trkpt lat="48.63016" lon="1.98969">
        <ele>102</ele>
        <time>2010-03-19T11:49:36Z</time>
      </trkpt>
      <trkpt lat="48.63017" lon="1.9897">
        <ele>102</ele>
        <time>2010-03-19T11:49:37Z</time>
      </trkpt>
      <trkpt lat="48.63019" lon="1.98971">
        <ele>102</ele>
        <time>2010-03-19T11:49:38Z</time>
      </trkpt>
      <trkpt lat="48.63021" lon="1.98972">
        <ele>102</ele>
        <time>2010-03-19T11:49:40Z</time>
      </trkpt>
      <trkpt lat="48.63023" lon="1.98973">
        <ele>102</ele>
        <time>2010-03-19T11:49:42Z</time>
      </trkpt>
      <trkpt lat="48.63025" lon="1.98974">
        <ele>102</ele>
        <time>2010-03-19T11:49:43Z</time>
      </trkpt>
      <trkpt lat="48.63027" lon="1.98974">
        <ele>102</ele>
        <time>2010-03-19T11:49:44Z</time>
      </trkpt>
      <trkpt lat="48.63029" lon="1.98975">
        <ele>102</ele>
        <time>2010-03-19T11:49:45Z</time>
      </trkpt>
      <trkpt lat="48.63031" lon="1.98977">
        <ele>102</ele>
        <time>2010-03-19T11:49:46Z</time>
      </trkpt>
      <trkpt lat="48.63033" lon="1.98978">
        <ele>102</ele>
        <time>2010-03-19T11:49:47Z</time>
      </trkpt>
      <trkpt lat="48.63034" lon="1.98978">
        <ele>102</ele>
        <time>2010-03-19T11:49:48Z</time>
      </trkpt>
      <trkpt lat="48.63036" lon="1.98979">
        <ele>102</ele>
        <time>2010-03-19T11:49:49Z</time>
      </trkpt>
      <trkpt lat="48.63038" lon="1.9898">
        <ele>102</ele>
        <time>2010-03-19T11:49:50Z</time>
      </trkpt>
      <trkpt lat="48.6304" lon="1.98981">
        <ele>102</ele>
        <time>2010-03-19T11:49:51Z</time>
      </trkpt>
      <trkpt lat="48.63041" lon="1.98982">
        <ele>102</ele>
        <time>2010-03-19T11:49:52Z</time>
      </trkpt>
      <trkpt lat="48.63042" lon="1.98983">
        <ele>102</ele>
        <time>2010-03-19T11:49:53Z</time>
      </trkpt>
      <trkpt lat="48.63044" lon="1.98984">
        <ele>102</ele>
        <time>2010-03-19T11:49:55Z</time>
      </trkpt>
      <trkpt lat="48.63046" lon="1.98984">
        <ele>102</ele>
        <time>2010-03-19T11:49:56Z</time>
      </trkpt>
      <trkpt lat="48.63047" lon="1.98985">
        <ele>102</ele>
        <time>2010-03-19T11:49:57Z</time>
      </trkpt>
      <trkpt lat="48.63049" lon="1.98986">
        <ele>102</ele>
        <time>2010-03-19T11:49:58Z</time>
      </trkpt>
      <trkpt lat="48.63051" lon="1.98987">
        <ele>102</ele>
        <time>2010-03-19T11:49:59Z</time>
      </trkpt>
      <trkpt lat="48.63053" lon="1.98988">
        <ele>102</ele>
        <time>2010-03-19T11:50:00Z</time>
      </trkpt>
      <trkpt lat="48.63055" lon="1.98989">
        <ele>102</ele>
        <time>2010-03-19T11:50:01Z</time>
      </trkpt>
      <trkpt lat="48.63056" lon="1.9899">
        <ele>102</ele>
        <time>2010-03-19T11:50:02Z</time>
      </trkpt>
      <trkpt lat="48.63058" lon="1.98992">
        <ele>102</ele>
        <time>2010-03-19T11:50:03Z</time>
      </trkpt>
      <trkpt lat="48.6306" lon="1.98992">
        <ele>102</ele>
        <time>2010-03-19T11:50:04Z</time>
      </trkpt>
      <trkpt lat="48.63061" lon="1.98993">
        <ele>102</ele>
        <time>2010-03-19T11:50:05Z</time>
      </trkpt>
      <trkpt lat="48.63062" lon="1.98993">
        <ele>102</ele>
        <time>2010-03-19T11:50:06Z</time>
      </trkpt>
      <trkpt lat="48.63064" lon="1.98994">
        <ele>102</ele>
        <time>2010-03-19T11:50:07Z</time>
      </trkpt>
      <trkpt lat="48.63066" lon="1.98995">
        <ele>102</ele>
        <time>2010-03-19T11:50:08Z</time>
      </trkpt>
      <trkpt lat="48.63067" lon="1.98995">
        <ele>102</ele>
        <time>2010-03-19T11:50:09Z</time>
      </trkpt>
      <trkpt lat="48.63069" lon="1.98995">
        <ele>102</ele>
        <time>2010-03-19T11:50:10Z</time>
      </trkpt>
      <trkpt lat="48.6307" lon="1.98996">
        <ele>102</ele>
        <time>2010-03-19T11:50:11Z</time>
      </trkpt>
      <trkpt lat="48.63072" lon="1.98997">
        <ele>102</ele>
        <time>2010-03-19T11:50:12Z</time>
      </trkpt>
      <trkpt lat="48.63074" lon="1.98998">
        <ele>102</ele>
        <time>2010-03-19T11:50:13Z</time>
      </trkpt>
      <trkpt lat="48.63076" lon="1.98998">
        <ele>102</ele>
        <time>2010-03-19T11:50:14Z</time>
      </trkpt>
      <trkpt lat="48.63077" lon="1.98998">
        <ele>102</ele>
        <time>2010-03-19T11:50:15Z</time>
      </trkpt>
      <trkpt lat="48.63078" lon="1.98999">
        <ele>102</ele>
        <time>2010-03-19T11:50:16Z</time>
      </trkpt>
      <trkpt lat="48.6308" lon="1.99">
        <ele>102</ele>
        <time>2010-03-19T11:50:17Z</time>
      </trkpt>
      <trkpt lat="48.63082" lon="1.99001">
        <ele>102</ele>
        <time>2010-03-19T11:50:18Z</time>
      </trkpt>
      <trkpt lat="48.63083" lon="1.99002">
        <ele>102</ele>
        <time>2010-03-19T11:50:19Z</time>
      </trkpt>
      <trkpt lat="48.63085" lon="1.99003">
        <ele>102</ele>
        <time>2010-03-19T11:50:20Z</time>
      </trkpt>
      <trkpt lat="48.63087" lon="1.99004">
        <ele>102</ele>
        <time>2010-03-19T11:50:21Z</time>
      </trkpt>
      <trkpt lat="48.63088" lon="1.99005">
        <ele>102</ele>
        <time>2010-03-19T11:50:22Z</time>
      </trkpt>
      <trkpt lat="48.6309" lon="1.99006">
        <ele>102</ele>
        <time>2010-03-19T11:50:23Z</time>
      </trkpt>
      <trkpt lat="48.63091" lon="1.99007">
        <ele>102</ele>
        <time>2010-03-19T11:50:24Z</time>
      </trkpt>
      <trkpt lat="48.63093" lon="1.99007">
        <ele>102</ele>
        <time>2010-03-19T11:50:25Z</time>
      </trkpt>
      <trkpt lat="48.63094" lon="1.99008">
        <ele>102</ele>
        <time>2010-03-19T11:50:26Z</time>
      </trkpt>
      <trkpt lat="48.63097" lon="1.99009">
        <ele>102</ele>
        <time>2010-03-19T11:50:28Z</time>
      </trkpt>
      <trkpt lat="48.63099" lon="1.9901">
        <ele>102</ele>
        <time>2010-03-19T11:50:29Z</time>
      </trkpt>
      <trkpt lat="48.63101" lon="1.99011">
        <ele>102</ele>
        <time>2010-03-19T11:50:30Z</time>
      </trkpt>
      <trkpt lat="48.63103" lon="1.99012">
        <ele>102</ele>
        <time>2010-03-19T11:50:31Z</time>
      </trkpt>
      <trkpt lat="48.63104" lon="1.99013">
        <ele>102</ele>
        <time>2010-03-19T11:50:32Z</time>
      </trkpt>
      <trkpt lat="48.63106" lon="1.99013">
        <ele>103</ele>
        <time>2010-03-19T11:50:33Z</time>
      </trkpt>
      <trkpt lat="48.63108" lon="1.99014">
        <ele>103</ele>
        <time>2010-03-19T11:50:34Z</time>
      </trkpt>
      <trkpt lat="48.63109" lon="1.99015">
        <ele>103</ele>
        <time>2010-03-19T11:50:35Z</time>
      </trkpt>
      <trkpt lat="48.6311" lon="1.99015">
        <ele>104</ele>
        <time>2010-03-19T11:50:36Z</time>
      </trkpt>
      <trkpt lat="48.63112" lon="1.99016">
        <ele>104</ele>
        <time>2010-03-19T11:50:37Z</time>
      </trkpt>
      <trkpt lat="48.63113" lon="1.99017">
        <ele>104</ele>
        <time>2010-03-19T11:50:38Z</time>
      </trkpt>
      <trkpt lat="48.63115" lon="1.99018">
        <ele>104</ele>
        <time>2010-03-19T11:50:39Z</time>
      </trkpt>
      <trkpt lat="48.63116" lon="1.99019">
        <ele>104</ele>
        <time>2010-03-19T11:50:40Z</time>
      </trkpt>
      <trkpt lat="48.63118" lon="1.9902">
        <ele>105</ele>
        <time>2010-03-19T11:50:41Z</time>
      </trkpt>
      <trkpt lat="48.6312" lon="1.99021">
        <ele>105</ele>
        <time>2010-03-19T11:50:42Z</time>
      </trkpt>
      <trkpt lat="48.63121" lon="1.99021">
        <ele>106</ele>
        <time>2010-03-19T11:50:43Z</time>
      </trkpt>
      <trkpt lat="48.63123" lon="1.99023">
        <ele>106</ele>
        <time>2010-03-19T11:50:44Z</time>
      </trkpt>
      <trkpt lat="48.63125" lon="1.99024">
        <ele>106</ele>
        <time>2010-03-19T11:50:45Z</time>
      </trkpt>
      <trkpt lat="48.63126" lon="1.99025">
        <ele>106</ele>
        <time>2010-03-19T11:50:46Z</time>
      </trkpt>
      <trkpt lat="48.63128" lon="1.99027">
        <ele>106</ele>
        <time>2010-03-19T11:50:47Z</time>
      </trkpt>
      <trkpt lat="48.63129" lon="1.99029">
        <ele>106</ele>
        <time>2010-03-19T11:50:48Z</time>
      </trkpt>
      <trkpt lat="48.63131" lon="1.9903">
        <ele>106</ele>
        <time>2010-03-19T11:50:49Z</time>
      </trkpt>
      <trkpt lat="48.63131" lon="1.99032">
        <ele>106</ele>
        <time>2010-03-19T11:50:50Z</time>
      </trkpt>
      <trkpt lat="48.63132" lon="1.99034">
        <ele>106</ele>
        <time>2010-03-19T11:50:51Z</time>
      </trkpt>
      <trkpt lat="48.63133" lon="1.99036">
        <ele>106</ele>
        <time>2010-03-19T11:50:52Z</time>
      </trkpt>
      <trkpt lat="48.63134" lon="1.99038">
        <ele>106</ele>
        <time>2010-03-19T11:50:53Z</time>
      </trkpt>
      <trkpt lat="48.63135" lon="1.99041">
        <ele>107</ele>
        <time>2010-03-19T11:50:54Z</time>
      </trkpt>
      <trkpt lat="48.63137" lon="1.99044">
        <ele>108</ele>
        <time>2010-03-19T11:50:55Z</time>
      </trkpt>
      <trkpt lat="48.63137" lon="1.99046">
        <ele>109</ele>
        <time>2010-03-19T11:50:56Z</time>
      </trkpt>
      <trkpt lat="48.63139" lon="1.99048">
        <ele>110</ele>
        <time>2010-03-19T11:50:57Z</time>
      </trkpt>
      <trkpt lat="48.63139" lon="1.99051">
        <ele>111</ele>
        <time>2010-03-19T11:50:58Z</time>
      </trkpt>
      <trkpt lat="48.63141" lon="1.99054">
        <ele>112</ele>
        <time>2010-03-19T11:50:59Z</time>
      </trkpt>
      <trkpt lat="48.63142" lon="1.99056">
        <ele>113</ele>
        <time>2010-03-19T11:51:00Z</time>
      </trkpt>
      <trkpt lat="48.63142" lon="1.99058">
        <ele>113</ele>
        <time>2010-03-19T11:51:01Z</time>
      </trkpt>
      <trkpt lat="48.63144" lon="1.99061">
        <ele>114</ele>
        <time>2010-03-19T11:51:02Z</time>
      </trkpt>
      <trkpt lat="48.63145" lon="1.99064">
        <ele>115</ele>
        <time>2010-03-19T11:51:03Z</time>
      </trkpt>
      <trkpt lat="48.63145" lon="1.99066">
        <ele>115</ele>
        <time>2010-03-19T11:51:04Z</time>
      </trkpt>
      <trkpt lat="48.63146" lon="1.99069">
        <ele>116</ele>
        <time>2010-03-19T11:51:05Z</time>
      </trkpt>
      <trkpt lat="48.63146" lon="1.99072">
        <ele>116</ele>
        <time>2010-03-19T11:51:06Z</time>
      </trkpt>
      <trkpt lat="48.63146" lon="1.99074">
        <ele>116</ele>
        <time>2010-03-19T11:51:07Z</time>
      </trkpt>
      <trkpt lat="48.63145" lon="1.99077">
        <ele>116</ele>
        <time>2010-03-19T11:51:08Z</time>
      </trkpt>
      <trkpt lat="48.63145" lon="1.99079">
        <ele>117</ele>
        <time>2010-03-19T11:51:09Z</time>
      </trkpt>
      <trkpt lat="48.63145" lon="1.99081">
        <ele>117</ele>
        <time>2010-03-19T11:51:10Z</time>
      </trkpt>
      <trkpt lat="48.63144" lon="1.99083">
        <ele>117</ele>
        <time>2010-03-19T11:51:11Z</time>
      </trkpt>
      <trkpt lat="48.63143" lon="1.99086">
        <ele>117</ele>
        <time>2010-03-19T11:51:12Z</time>
      </trkpt>
      <trkpt lat="48.63142" lon="1.99089">
        <ele>117</ele>
        <time>2010-03-19T11:51:13Z</time>
      </trkpt>
      <trkpt lat="48.63141" lon="1.99091">
        <ele>117</ele>
        <time>2010-03-19T11:51:14Z</time>
      </trkpt>
      <trkpt lat="48.6314" lon="1.99094">
        <ele>117</ele>
        <time>2010-03-19T11:51:15Z</time>
      </trkpt>
      <trkpt lat="48.6314" lon="1.99096">
        <ele>117</ele>
        <time>2010-03-19T11:51:16Z</time>
      </trkpt>
      <trkpt lat="48.63139" lon="1.99097">
        <ele>117</ele>
        <time>2010-03-19T11:51:17Z</time>
      </trkpt>
      <trkpt lat="48.63137" lon="1.99099">
        <ele>117</ele>
        <time>2010-03-19T11:51:18Z</time>
      </trkpt>
      <trkpt lat="48.63137" lon="1.99101">
        <ele>117</ele>
        <time>2010-03-19T11:51:19Z</time>
      </trkpt>
      <trkpt lat="48.63136" lon="1.99104">
        <ele>117</ele>
        <time>2010-03-19T11:51:20Z</time>
      </trkpt>
      <trkpt lat="48.63135" lon="1.99106">
        <ele>117</ele>
        <time>2010-03-19T11:51:21Z</time>
      </trkpt>
      <trkpt lat="48.63134" lon="1.99108">
        <ele>117</ele>
        <time>2010-03-19T11:51:22Z</time>
      </trkpt>
      <trkpt lat="48.63133" lon="1.9911">
        <ele>117</ele>
        <time>2010-03-19T11:51:23Z</time>
      </trkpt>
      <trkpt lat="48.63131" lon="1.99114">
        <ele>117</ele>
        <time>2010-03-19T11:51:25Z</time>
      </trkpt>
      <trkpt lat="48.63129" lon="1.99117">
        <ele>117</ele>
        <time>2010-03-19T11:51:27Z</time>
      </trkpt>
      <trkpt lat="48.63128" lon="1.99118">
        <ele>117</ele>
        <time>2010-03-19T11:51:28Z</time>
      </trkpt>
      <trkpt lat="48.63128" lon="1.9912">
        <ele>117</ele>
        <time>2010-03-19T11:51:29Z</time>
      </trkpt>
      <trkpt lat="48.63127" lon="1.99122">
        <ele>117</ele>
        <time>2010-03-19T11:51:30Z</time>
      </trkpt>
      <trkpt lat="48.63125" lon="1.99124">
        <ele>117</ele>
        <time>2010-03-19T11:51:31Z</time>
      </trkpt>
      <trkpt lat="48.63123" lon="1.99126">
        <ele>117</ele>
        <time>2010-03-19T11:51:32Z</time>
      </trkpt>
      <trkpt lat="48.63121" lon="1.99128">
        <ele>117</ele>
        <time>2010-03-19T11:51:33Z</time>
      </trkpt>
      <trkpt lat="48.6312" lon="1.9913">
        <ele>117</ele>
        <time>2010-03-19T11:51:34Z</time>
      </trkpt>
      <trkpt lat="48.63119" lon="1.99133">
        <ele>117</ele>
        <time>2010-03-19T11:51:35Z</time>
      </trkpt>
      <trkpt lat="48.63118" lon="1.99135">
        <ele>117</ele>
        <time>2010-03-19T11:51:36Z</time>
      </trkpt>
      <trkpt lat="48.63118" lon="1.99137">
        <ele>117</ele>
        <time>2010-03-19T11:51:37Z</time>
      </trkpt>
      <trkpt lat="48.63117" lon="1.99139">
        <ele>117</ele>
        <time>2010-03-19T11:51:38Z</time>
      </trkpt>
      <trkpt lat="48.63116" lon="1.99142">
        <ele>117</ele>
        <time>2010-03-19T11:51:39Z</time>
      </trkpt>
      <trkpt lat="48.63115" lon="1.99144">
        <ele>117</ele>
        <time>2010-03-19T11:51:40Z</time>
      </trkpt>
      <trkpt lat="48.63113" lon="1.99147">
        <ele>117</ele>
        <time>2010-03-19T11:51:41Z</time>
      </trkpt>
      <trkpt lat="48.63111" lon="1.9915">
        <ele>117</ele>
        <time>2010-03-19T11:51:42Z</time>
      </trkpt>
      <trkpt lat="48.6311" lon="1.99152">
        <ele>117</ele>
        <time>2010-03-19T11:51:43Z</time>
      </trkpt>
      <trkpt lat="48.63109" lon="1.99154">
        <ele>117</ele>
        <time>2010-03-19T11:51:44Z</time>
      </trkpt>
      <trkpt lat="48.63108" lon="1.99156">
        <ele>117</ele>
        <time>2010-03-19T11:51:45Z</time>
      </trkpt>
      <trkpt lat="48.63107" lon="1.99159">
        <ele>118</ele>
        <time>2010-03-19T11:51:46Z</time>
      </trkpt>
      <trkpt lat="48.63106" lon="1.99162">
        <ele>118</ele>
        <time>2010-03-19T11:51:47Z</time>
      </trkpt>
      <trkpt lat="48.63104" lon="1.99166">
        <ele>118</ele>
        <time>2010-03-19T11:51:48Z</time>
      </trkpt>
      <trkpt lat="48.63103" lon="1.99169">
        <ele>118</ele>
        <time>2010-03-19T11:51:49Z</time>
      </trkpt>
      <trkpt lat="48.63102" lon="1.99171">
        <ele>118</ele>
        <time>2010-03-19T11:51:50Z</time>
      </trkpt>
      <trkpt lat="48.63102" lon="1.99173">
        <ele>118</ele>
        <time>2010-03-19T11:51:51Z</time>
      </trkpt>
      <trkpt lat="48.63101" lon="1.99176">
        <ele>118</ele>
        <time>2010-03-19T11:51:52Z</time>
      </trkpt>
      <trkpt lat="48.631" lon="1.99179">
        <ele>118</ele>
        <time>2010-03-19T11:51:53Z</time>
      </trkpt>
      <trkpt lat="48.63099" lon="1.99182">
        <ele>118</ele>
        <time>2010-03-19T11:51:54Z</time>
      </trkpt>
      <trkpt lat="48.63098" lon="1.99185">
        <ele>119</ele>
        <time>2010-03-19T11:51:55Z</time>
      </trkpt>
      <trkpt lat="48.63098" lon="1.99189">
        <ele>119</ele>
        <time>2010-03-19T11:51:56Z</time>
      </trkpt>
      <trkpt lat="48.63098" lon="1.99193">
        <ele>119</ele>
        <time>2010-03-19T11:51:57Z</time>
      </trkpt>
      <trkpt lat="48.63099" lon="1.99198">
        <ele>119</ele>
        <time>2010-03-19T11:51:58Z</time>
      </trkpt>
      <trkpt lat="48.63098" lon="1.99203">
        <ele>119</ele>
        <time>2010-03-19T11:51:59Z</time>
      </trkpt>
      <trkpt lat="48.63097" lon="1.99208">
        <ele>119</ele>
        <time>2010-03-19T11:52:00Z</time>
      </trkpt>
      <trkpt lat="48.63095" lon="1.99213">
        <ele>119</ele>
        <time>2010-03-19T11:52:01Z</time>
      </trkpt>
      <trkpt lat="48.63093" lon="1.99219">
        <ele>119</ele>
        <time>2010-03-19T11:52:02Z</time>
      </trkpt>
      <trkpt lat="48.63091" lon="1.99225">
        <ele>119</ele>
        <time>2010-03-19T11:52:03Z</time>
      </trkpt>
      <trkpt lat="48.63089" lon="1.99231">
        <ele>119</ele>
        <time>2010-03-19T11:52:04Z</time>
      </trkpt>
      <trkpt lat="48.63087" lon="1.99237">
        <ele>119</ele>
        <time>2010-03-19T11:52:05Z</time>
      </trkpt>
      <trkpt lat="48.63084" lon="1.99244">
        <ele>119</ele>
        <time>2010-03-19T11:52:06Z</time>
      </trkpt>
      <trkpt lat="48.63083" lon="1.9925">
        <ele>119</ele>
        <time>2010-03-19T11:52:07Z</time>
      </trkpt>
      <trkpt lat="48.63081" lon="1.99257">
        <ele>119</ele>
        <time>2010-03-19T11:52:08Z</time>
      </trkpt>
      <trkpt lat="48.63079" lon="1.99263">
        <ele>119</ele>
        <time>2010-03-19T11:52:09Z</time>
      </trkpt>
      <trkpt lat="48.63078" lon="1.99269">
        <ele>119</ele>
        <time>2010-03-19T11:52:10Z</time>
      </trkpt>
      <trkpt lat="48.63078" lon="1.99275">
        <ele>119</ele>
        <time>2010-03-19T11:52:11Z</time>
      </trkpt>
      <trkpt lat="48.63076" lon="1.9928">
        <ele>119</ele>
        <time>2010-03-19T11:52:12Z</time>
      </trkpt>
      <trkpt lat="48.63076" lon="1.99287">
        <ele>119</ele>
        <time>2010-03-19T11:52:13Z</time>
      </trkpt>
      <trkpt lat="48.63076" lon="1.99294">
        <ele>120</ele>
        <time>2010-03-19T11:52:14Z</time>
      </trkpt>
      <trkpt lat="48.63075" lon="1.99301">
        <ele>121</ele>
        <time>2010-03-19T11:52:15Z</time>
      </trkpt>
      <trkpt lat="48.63075" lon="1.99308">
        <ele>122</ele>
        <time>2010-03-19T11:52:16Z</time>
      </trkpt>
      <trkpt lat="48.63074" lon="1.99315">
        <ele>123</ele>
        <time>2010-03-19T11:52:17Z</time>
      </trkpt>
      <trkpt lat="48.63075" lon="1.99319">
        <ele>124</ele>
        <time>2010-03-19T11:52:18Z</time>
      </trkpt>
      <trkpt lat="48.63076" lon="1.99323">
        <ele>124</ele>
        <time>2010-03-19T11:52:19Z</time>
      </trkpt>
      <trkpt lat="48.63078" lon="1.99328">
        <ele>125</ele>
        <time>2010-03-19T11:52:20Z</time>
      </trkpt>
      <trkpt lat="48.63079" lon="1.99335">
        <ele>125</ele>
        <time>2010-03-19T11:52:21Z</time>
      </trkpt>
      <trkpt lat="48.63082" lon="1.99341">
        <ele>125</ele>
        <time>2010-03-19T11:52:22Z</time>
      </trkpt>
      <trkpt lat="48.63085" lon="1.9935">
        <ele>126</ele>
        <time>2010-03-19T11:52:23Z</time>
      </trkpt>
      <trkpt lat="48.6309" lon="1.99358">
        <ele>126</ele>
        <time>2010-03-19T11:52:24Z</time>
      </trkpt>
      <trkpt lat="48.63094" lon="1.99366">
        <ele>126</ele>
        <time>2010-03-19T11:52:25Z</time>
      </trkpt>
      <trkpt lat="48.63098" lon="1.99372">
        <ele>126</ele>
        <time>2010-03-19T11:52:26Z</time>
      </trkpt>
      <trkpt lat="48.63102" lon="1.99378">
        <ele>126</ele>
        <time>2010-03-19T11:52:27Z</time>
      </trkpt>
      <trkpt lat="48.63106" lon="1.99384">
        <ele>126</ele>
        <time>2010-03-19T11:52:28Z</time>
      </trkpt>
      <trkpt lat="48.6311" lon="1.9939">
        <ele>126</ele>
        <time>2010-03-19T11:52:29Z</time>
      </trkpt>
      <trkpt lat="48.63115" lon="1.99396">
        <ele>127</ele>
        <time>2010-03-19T11:52:30Z</time>
      </trkpt>
      <trkpt lat="48.63119" lon="1.99403">
        <ele>127</ele>
        <time>2010-03-19T11:52:31Z</time>
      </trkpt>
      <trkpt lat="48.63124" lon="1.99409">
        <ele>127</ele>
        <time>2010-03-19T11:52:32Z</time>
      </trkpt>
      <trkpt lat="48.63128" lon="1.99415">
        <ele>128</ele>
        <time>2010-03-19T11:52:33Z</time>
      </trkpt>
      <trkpt lat="48.63131" lon="1.99422">
        <ele>128</ele>
        <time>2010-03-19T11:52:34Z</time>
      </trkpt>
      <trkpt lat="48.63133" lon="1.99429">
        <ele>128</ele>
        <time>2010-03-19T11:52:35Z</time>
      </trkpt>
      <trkpt lat="48.63137" lon="1.99437">
        <ele>128</ele>
        <time>2010-03-19T11:52:36Z</time>
      </trkpt>
      <trkpt lat="48.63141" lon="1.99444">
        <ele>128</ele>
        <time>2010-03-19T11:52:37Z</time>
      </trkpt>
      <trkpt lat="48.63146" lon="1.99451">
        <ele>128</ele>
        <time>2010-03-19T11:52:38Z</time>
      </trkpt>
      <trkpt lat="48.63151" lon="1.99458">
        <ele>128</ele>
        <time>2010-03-19T11:52:39Z</time>
      </trkpt>
      <trkpt lat="48.63158" lon="1.99463">
        <ele>128</ele>
        <time>2010-03-19T11:52:40Z</time>
      </trkpt>
      <trkpt lat="48.63165" lon="1.9947">
        <ele>127</ele>
        <time>2010-03-19T11:52:41Z</time>
      </trkpt>
      <trkpt lat="48.6317" lon="1.99476">
        <ele>127</ele>
        <time>2010-03-19T11:52:42Z</time>
      </trkpt>
      <trkpt lat="48.63177" lon="1.99481">
        <ele>126</ele>
        <time>2010-03-19T11:52:43Z</time>
      </trkpt>
      <trkpt lat="48.63183" lon="1.99486">
        <ele>126</ele>
        <time>2010-03-19T11:52:44Z</time>
      </trkpt>
      <trkpt lat="48.6319" lon="1.99492">
        <ele>125</ele>
        <time>2010-03-19T11:52:45Z</time>
      </trkpt>
      <trkpt lat="48.63197" lon="1.99497">
        <ele>125</ele>
        <time>2010-03-19T11:52:46Z</time>
      </trkpt>
      <trkpt lat="48.63203" lon="1.99503">
        <ele>124</ele>
        <time>2010-03-19T11:52:47Z</time>
      </trkpt>
      <trkpt lat="48.6321" lon="1.99508">
        <ele>124</ele>
        <time>2010-03-19T11:52:48Z</time>
      </trkpt>
      <trkpt lat="48.63216" lon="1.99514">
        <ele>124</ele>
        <time>2010-03-19T11:52:49Z</time>
      </trkpt>
      <trkpt lat="48.63223" lon="1.99519">
        <ele>124</ele>
        <time>2010-03-19T11:52:50Z</time>
      </trkpt>
      <trkpt lat="48.6323" lon="1.99524">
        <ele>124</ele>
        <time>2010-03-19T11:52:51Z</time>
      </trkpt>
      <trkpt lat="48.63237" lon="1.99529">
        <ele>124</ele>
        <time>2010-03-19T11:52:52Z</time>
      </trkpt>
      <trkpt lat="48.63243" lon="1.99533">
        <ele>124</ele>
        <time>2010-03-19T11:52:53Z</time>
      </trkpt>
      <trkpt lat="48.63251" lon="1.99537">
        <ele>124</ele>
        <time>2010-03-19T11:52:54Z</time>
      </trkpt>
      <trkpt lat="48.63258" lon="1.99539">
        <ele>124</ele>
        <time>2010-03-19T11:52:55Z</time>
      </trkpt>
      <trkpt lat="48.63267" lon="1.99542">
        <ele>124</ele>
        <time>2010-03-19T11:52:56Z</time>
      </trkpt>
      <trkpt lat="48.63275" lon="1.99544">
        <ele>125</ele>
        <time>2010-03-19T11:52:57Z</time>
      </trkpt>
      <trkpt lat="48.63285" lon="1.99547">
        <ele>126</ele>
        <time>2010-03-19T11:52:58Z</time>
      </trkpt>
      <trkpt lat="48.63293" lon="1.9955">
        <ele>127</ele>
        <time>2010-03-19T11:52:59Z</time>
      </trkpt>
      <trkpt lat="48.63301" lon="1.99553">
        <ele>128</ele>
        <time>2010-03-19T11:53:00Z</time>
      </trkpt>
      <trkpt lat="48.6331" lon="1.99557">
        <ele>129</ele>
        <time>2010-03-19T11:53:01Z</time>
      </trkpt>
      <trkpt lat="48.63318" lon="1.99561">
        <ele>130</ele>
        <time>2010-03-19T11:53:02Z</time>
      </trkpt>
      <trkpt lat="48.63326" lon="1.99566">
        <ele>131</ele>
        <time>2010-03-19T11:53:03Z</time>
      </trkpt>
      <trkpt lat="48.63333" lon="1.99572">
        <ele>132</ele>
        <time>2010-03-19T11:53:04Z</time>
      </trkpt>
      <trkpt lat="48.63338" lon="1.9958">
        <ele>133</ele>
        <time>2010-03-19T11:53:05Z</time>
      </trkpt>
      <trkpt lat="48.63343" lon="1.9959">
        <ele>134</ele>
        <time>2010-03-19T11:53:06Z</time>
      </trkpt>
      <trkpt lat="48.63347" lon="1.99599">
        <ele>134</ele>
        <time>2010-03-19T11:53:07Z</time>
      </trkpt>
      <trkpt lat="48.6335" lon="1.99608">
        <ele>135</ele>
        <time>2010-03-19T11:53:08Z</time>
      </trkpt>
      <trkpt lat="48.63353" lon="1.99617">
        <ele>136</ele>
        <time>2010-03-19T11:53:09Z</time>
      </trkpt>
      <trkpt lat="48.63354" lon="1.99625">
        <ele>137</ele>
        <time>2010-03-19T11:53:10Z</time>
      </trkpt>
      <trkpt lat="48.63353" lon="1.99635">
        <ele>138</ele>
        <time>2010-03-19T11:53:11Z</time>
      </trkpt>
      <trkpt lat="48.63351" lon="1.99643">
        <ele>139</ele>
        <time>2010-03-19T11:53:12Z</time>
      </trkpt>
      <trkpt lat="48.6335" lon="1.99651">
        <ele>139</ele>
        <time>2010-03-19T11:53:13Z</time>
      </trkpt>
      <trkpt lat="48.63348" lon="1.99658">
        <ele>140</ele>
        <time>2010-03-19T11:53:14Z</time>
      </trkpt>
      <trkpt lat="48.63348" lon="1.99664">
        <ele>141</ele>
        <time>2010-03-19T11:53:15Z</time>
      </trkpt>
      <trkpt lat="48.63346" lon="1.99669">
        <ele>142</ele>
        <time>2010-03-19T11:53:16Z</time>
      </trkpt>
      <trkpt lat="48.63346" lon="1.99673">
        <ele>142</ele>
        <time>2010-03-19T11:53:17Z</time>
      </trkpt>
      <trkpt lat="48.63346" lon="1.99675">
        <ele>142</ele>
        <time>2010-03-19T11:53:18Z</time>
      </trkpt>
      <trkpt lat="48.63348" lon="1.99677">
        <ele>142</ele>
        <time>2010-03-19T11:53:20Z</time>
      </trkpt>
      <trkpt lat="48.63349" lon="1.99681">
        <ele>142</ele>
        <time>2010-03-19T11:53:22Z</time>
      </trkpt>
      <trkpt lat="48.63348" lon="1.99682">
        <ele>142</ele>
        <time>2010-03-19T11:53:23Z</time>
      </trkpt>
      <trkpt lat="48.63347" lon="1.99683">
        <ele>142</ele>
        <time>2010-03-19T11:53:24Z</time>
      </trkpt>
      <trkpt lat="48.63346" lon="1.99683">
        <ele>142</ele>
        <time>2010-03-19T11:53:25Z</time>
      </trkpt>
      <trkpt lat="48.63345" lon="1.99683">
        <ele>142</ele>
        <time>2010-03-19T11:53:26Z</time>
      </trkpt>
      <trkpt lat="48.63345" lon="1.99681">
        <ele>142</ele>
        <time>2010-03-19T11:53:30Z</time>
      </trkpt>
      <trkpt lat="48.63343" lon="1.99682">
        <ele>142</ele>
        <time>2010-03-19T11:53:32Z</time>
      </trkpt>
      <trkpt lat="48.63342" lon="1.99684">
        <ele>142</ele>
        <time>2010-03-19T11:53:33Z</time>
      </trkpt>
      <trkpt lat="48.63342" lon="1.99687">
        <ele>142</ele>
        <time>2010-03-19T11:53:34Z</time>
      </trkpt>
      <trkpt lat="48.63341" lon="1.9969">
        <ele>142</ele>
        <time>2010-03-19T11:53:35Z</time>
      </trkpt>
      <trkpt lat="48.63341" lon="1.99694">
        <ele>142</ele>
        <time>2010-03-19T11:53:36Z</time>
      </trkpt>
      <trkpt lat="48.63341" lon="1.99697">
        <ele>142</ele>
        <time>2010-03-19T11:53:37Z</time>
      </trkpt>
      <trkpt lat="48.63341" lon="1.997">
        <ele>142</ele>
        <time>2010-03-19T11:53:38Z</time>
      </trkpt>
      <trkpt lat="48.6334" lon="1.99701">
        <ele>142</ele>
        <time>2010-03-19T11:53:39Z</time>
      </trkpt>
      <trkpt lat="48.63339" lon="1.99704">
        <ele>142</ele>
        <time>2010-03-19T11:53:42Z</time>
      </trkpt>
      <trkpt lat="48.63338" lon="1.99706">
        <ele>142</ele>
        <time>2010-03-19T11:53:43Z</time>
      </trkpt>
      <trkpt lat="48.63337" lon="1.99708">
        <ele>142</ele>
        <time>2010-03-19T11:53:44Z</time>
      </trkpt>
      <trkpt lat="48.63336" lon="1.9971">
        <ele>142</ele>
        <time>2010-03-19T11:53:45Z</time>
      </trkpt>
      <trkpt lat="48.63335" lon="1.99713">
        <ele>142</ele>
        <time>2010-03-19T11:53:46Z</time>
      </trkpt>
      <trkpt lat="48.63335" lon="1.99715">
        <ele>142</ele>
        <time>2010-03-19T11:53:47Z</time>
      </trkpt>
      <trkpt lat="48.63334" lon="1.99718">
        <ele>142</ele>
        <time>2010-03-19T11:53:48Z</time>
      </trkpt>
      <trkpt lat="48.63334" lon="1.9972">
        <ele>142</ele>
        <time>2010-03-19T11:53:49Z</time>
      </trkpt>
      <trkpt lat="48.63334" lon="1.99723">
        <ele>142</ele>
        <time>2010-03-19T11:53:50Z</time>
      </trkpt>
      <trkpt lat="48.63333" lon="1.99725">
        <ele>142</ele>
        <time>2010-03-19T11:53:51Z</time>
      </trkpt>
      <trkpt lat="48.63333" lon="1.99728">
        <ele>142</ele>
        <time>2010-03-19T11:53:52Z</time>
      </trkpt>
      <trkpt lat="48.63333" lon="1.99731">
        <ele>142</ele>
        <time>2010-03-19T11:53:53Z</time>
      </trkpt>
      <trkpt lat="48.63332" lon="1.99734">
        <ele>142</ele>
        <time>2010-03-19T11:53:54Z</time>
      </trkpt>
      <trkpt lat="48.63332" lon="1.99736">
        <ele>142</ele>
        <time>2010-03-19T11:53:55Z</time>
      </trkpt>
      <trkpt lat="48.63332" lon="1.99739">
        <ele>142</ele>
        <time>2010-03-19T11:53:56Z</time>
      </trkpt>
      <trkpt lat="48.63332" lon="1.99742">
        <ele>142</ele>
        <time>2010-03-19T11:53:57Z</time>
      </trkpt>
      <trkpt lat="48.63332" lon="1.99745">
        <ele>142</ele>
        <time>2010-03-19T11:53:58Z</time>
      </trkpt>
      <trkpt lat="48.63332" lon="1.99748">
        <ele>142</ele>
        <time>2010-03-19T11:53:59Z</time>
      </trkpt>
      <trkpt lat="48.63332" lon="1.99751">
        <ele>142</ele>
        <time>2010-03-19T11:54:00Z</time>
      </trkpt>
      <trkpt lat="48.63332" lon="1.99754">
        <ele>142</ele>
        <time>2010-03-19T11:54:01Z</time>
      </trkpt>
      <trkpt lat="48.63332" lon="1.99757">
        <ele>142</ele>
        <time>2010-03-19T11:54:02Z</time>
      </trkpt>
      <trkpt lat="48.63332" lon="1.99759">
        <ele>142</ele>
        <time>2010-03-19T11:54:03Z</time>
      </trkpt>
      <trkpt lat="48.63332" lon="1.99762">
        <ele>142</ele>
        <time>2010-03-19T11:54:04Z</time>
      </trkpt>
      <trkpt lat="48.63332" lon="1.99764">
        <ele>142</ele>
        <time>2010-03-19T11:54:05Z</time>
      </trkpt>
      <trkpt lat="48.63332" lon="1.99767">
        <ele>142</ele>
        <time>2010-03-19T11:54:06Z</time>
      </trkpt>
      <trkpt lat="48.63332" lon="1.9977">
        <ele>142</ele>
        <time>2010-03-19T11:54:07Z</time>
      </trkpt>
      <trkpt lat="48.63332" lon="1.99772">
        <ele>142</ele>
        <time>2010-03-19T11:54:08Z</time>
      </trkpt>
      <trkpt lat="48.63333" lon="1.99774">
        <ele>142</ele>
        <time>2010-03-19T11:54:09Z</time>
      </trkpt>
      <trkpt lat="48.63333" lon="1.99776">
        <ele>142</ele>
        <time>2010-03-19T11:54:10Z</time>
      </trkpt>
      <trkpt lat="48.63333" lon="1.99779">
        <ele>142</ele>
        <time>2010-03-19T11:54:11Z</time>
      </trkpt>
      <trkpt lat="48.63334" lon="1.99782">
        <ele>142</ele>
        <time>2010-03-19T11:54:12Z</time>
      </trkpt>
      <trkpt lat="48.63334" lon="1.99785">
        <ele>142</ele>
        <time>2010-03-19T11:54:13Z</time>
      </trkpt>
      <trkpt lat="48.63334" lon="1.99787">
        <ele>142</ele>
        <time>2010-03-19T11:54:14Z</time>
      </trkpt>
      <trkpt lat="48.63334" lon="1.9979">
        <ele>142</ele>
        <time>2010-03-19T11:54:15Z</time>
      </trkpt>
      <trkpt lat="48.63334" lon="1.99792">
        <ele>142</ele>
        <time>2010-03-19T11:54:16Z</time>
      </trkpt>
      <trkpt lat="48.63334" lon="1.99795">
        <ele>142</ele>
        <time>2010-03-19T11:54:17Z</time>
      </trkpt>
      <trkpt lat="48.63334" lon="1.99798">
        <ele>142</ele>
        <time>2010-03-19T11:54:18Z</time>
      </trkpt>
      <trkpt lat="48.63334" lon="1.99801">
        <ele>141</ele>
        <time>2010-03-19T11:54:19Z</time>
      </trkpt>
      <trkpt lat="48.63333" lon="1.99803">
        <ele>141</ele>
        <time>2010-03-19T11:54:20Z</time>
      </trkpt>
      <trkpt lat="48.63333" lon="1.99806">
        <ele>141</ele>
        <time>2010-03-19T11:54:21Z</time>
      </trkpt>
      <trkpt lat="48.63333" lon="1.99809">
        <ele>141</ele>
        <time>2010-03-19T11:54:22Z</time>
      </trkpt>
      <trkpt lat="48.63333" lon="1.99812">
        <ele>140</ele>
        <time>2010-03-19T11:54:23Z</time>
      </trkpt>
      <trkpt lat="48.63333" lon="1.99815">
        <ele>140</ele>
        <time>2010-03-19T11:54:24Z</time>
      </trkpt>
      <trkpt lat="48.63333" lon="1.99818">
        <ele>140</ele>
        <time>2010-03-19T11:54:25Z</time>
      </trkpt>
      <trkpt lat="48.63333" lon="1.9982">
        <ele>140</ele>
        <time>2010-03-19T11:54:26Z</time>
      </trkpt>
      <trkpt lat="48.63333" lon="1.99823">
        <ele>139</ele>
        <time>2010-03-19T11:54:27Z</time>
      </trkpt>
      <trkpt lat="48.63333" lon="1.99826">
        <ele>139</ele>
        <time>2010-03-19T11:54:28Z</time>
      </trkpt>
      <trkpt lat="48.63333" lon="1.99829">
        <ele>139</ele>
        <time>2010-03-19T11:54:29Z</time>
      </trkpt>
      <trkpt lat="48.63333" lon="1.99831">
        <ele>139</ele>
        <time>2010-03-19T11:54:30Z</time>
      </trkpt>
      <trkpt lat="48.63333" lon="1.99834">
        <ele>139</ele>
        <time>2010-03-19T11:54:31Z</time>
      </trkpt>
      <trkpt lat="48.63333" lon="1.99837">
        <ele>139</ele>
        <time>2010-03-19T11:54:32Z</time>
      </trkpt>
      <trkpt lat="48.63333" lon="1.99839">
        <ele>139</ele>
        <time>2010-03-19T11:54:33Z</time>
      </trkpt>
      <trkpt lat="48.63333" lon="1.99842">
        <ele>139</ele>
        <time>2010-03-19T11:54:34Z</time>
      </trkpt>
      <trkpt lat="48.63333" lon="1.99845">
        <ele>139</ele>
        <time>2010-03-19T11:54:35Z</time>
      </trkpt>
      <trkpt lat="48.63333" lon="1.99847">
        <ele>138</ele>
        <time>2010-03-19T11:54:36Z</time>
      </trkpt>
      <trkpt lat="48.63333" lon="1.9985">
        <ele>138</ele>
        <time>2010-03-19T11:54:37Z</time>
      </trkpt>
      <trkpt lat="48.63333" lon="1.99853">
        <ele>138</ele>
        <time>2010-03-19T11:54:38Z</time>
      </trkpt>
      <trkpt lat="48.63333" lon="1.99856">
        <ele>138</ele>
        <time>2010-03-19T11:54:39Z</time>
      </trkpt>
      <trkpt lat="48.63333" lon="1.99859">
        <ele>137</ele>
        <time>2010-03-19T11:54:40Z</time>
      </trkpt>
      <trkpt lat="48.63333" lon="1.99861">
        <ele>137</ele>
        <time>2010-03-19T11:54:41Z</time>
      </trkpt>
      <trkpt lat="48.63333" lon="1.99864">
        <ele>137</ele>
        <time>2010-03-19T11:54:42Z</time>
      </trkpt>
      <trkpt lat="48.63332" lon="1.99867">
        <ele>137</ele>
        <time>2010-03-19T11:54:43Z</time>
      </trkpt>
      <trkpt lat="48.63332" lon="1.9987">
        <ele>136</ele>
        <time>2010-03-19T11:54:44Z</time>
      </trkpt>
      <trkpt lat="48.63332" lon="1.99873">
        <ele>136</ele>
        <time>2010-03-19T11:54:45Z</time>
      </trkpt>
      <trkpt lat="48.63332" lon="1.99876">
        <ele>136</ele>
        <time>2010-03-19T11:54:46Z</time>
      </trkpt>
      <trkpt lat="48.63332" lon="1.99879">
        <ele>136</ele>
        <time>2010-03-19T11:54:47Z</time>
      </trkpt>
      <trkpt lat="48.63332" lon="1.99881">
        <ele>136</ele>
        <time>2010-03-19T11:54:48Z</time>
      </trkpt>
      <trkpt lat="48.63332" lon="1.99884">
        <ele>136</ele>
        <time>2010-03-19T11:54:49Z</time>
      </trkpt>
      <trkpt lat="48.63332" lon="1.99887">
        <ele>135</ele>
        <time>2010-03-19T11:54:50Z</time>
      </trkpt>
      <trkpt lat="48.63332" lon="1.9989">
        <ele>135</ele>
        <time>2010-03-19T11:54:51Z</time>
      </trkpt>
      <trkpt lat="48.63332" lon="1.99893">
        <ele>135</ele>
        <time>2010-03-19T11:54:52Z</time>
      </trkpt>
      <trkpt lat="48.63332" lon="1.99896">
        <ele>135</ele>
        <time>2010-03-19T11:54:53Z</time>
      </trkpt>
      <trkpt lat="48.63332" lon="1.99899">
        <ele>135</ele>
        <time>2010-03-19T11:54:54Z</time>
      </trkpt>
      <trkpt lat="48.63332" lon="1.99902">
        <ele>135</ele>
        <time>2010-03-19T11:54:55Z</time>
      </trkpt>
      <trkpt lat="48.63331" lon="1.99905">
        <ele>135</ele>
        <time>2010-03-19T11:54:56Z</time>
      </trkpt>
      <trkpt lat="48.63331" lon="1.99908">
        <ele>134</ele>
        <time>2010-03-19T11:54:57Z</time>
      </trkpt>
      <trkpt lat="48.63331" lon="1.9991">
        <ele>134</ele>
        <time>2010-03-19T11:54:58Z</time>
      </trkpt>
      <trkpt lat="48.63331" lon="1.99913">
        <ele>134</ele>
        <time>2010-03-19T11:54:59Z</time>
      </trkpt>
      <trkpt lat="48.63331" lon="1.99916">
        <ele>134</ele>
        <time>2010-03-19T11:55:00Z</time>
      </trkpt>
      <trkpt lat="48.63331" lon="1.99919">
        <ele>134</ele>
        <time>2010-03-19T11:55:01Z</time>
      </trkpt>
      <trkpt lat="48.63331" lon="1.99921">
        <ele>134</ele>
        <time>2010-03-19T11:55:02Z</time>
      </trkpt>
      <trkpt lat="48.63331" lon="1.99924">
        <ele>133</ele>
        <time>2010-03-19T11:55:03Z</time>
      </trkpt>
      <trkpt lat="48.63331" lon="1.99926">
        <ele>133</ele>
        <time>2010-03-19T11:55:04Z</time>
      </trkpt>
      <trkpt lat="48.6333" lon="1.99929">
        <ele>133</ele>
        <time>2010-03-19T11:55:05Z</time>
      </trkpt>
      <trkpt lat="48.6333" lon="1.99932">
        <ele>133</ele>
        <time>2010-03-19T11:55:06Z</time>
      </trkpt>
      <trkpt lat="48.6333" lon="1.99934">
        <ele>133</ele>
        <time>2010-03-19T11:55:07Z</time>
      </trkpt>
      <trkpt lat="48.6333" lon="1.99937">
        <ele>132</ele>
        <time>2010-03-19T11:55:08Z</time>
      </trkpt>
      <trkpt lat="48.6333" lon="1.99939">
        <ele>132</ele>
        <time>2010-03-19T11:55:09Z</time>
      </trkpt>
      <trkpt lat="48.6333" lon="1.99942">
        <ele>132</ele>
        <time>2010-03-19T11:55:10Z</time>
      </trkpt>
      <trkpt lat="48.6333" lon="1.99945">
        <ele>132</ele>
        <time>2010-03-19T11:55:11Z</time>
      </trkpt>
      <trkpt lat="48.6333" lon="1.99948">
        <ele>132</ele>
        <time>2010-03-19T11:55:12Z</time>
      </trkpt>
      <trkpt lat="48.6333" lon="1.9995">
        <ele>132</ele>
        <time>2010-03-19T11:55:13Z</time>
      </trkpt>
      <trkpt lat="48.6333" lon="1.99953">
        <ele>131</ele>
        <time>2010-03-19T11:55:14Z</time>
      </trkpt>
      <trkpt lat="48.6333" lon="1.99956">
        <ele>131</ele>
        <time>2010-03-19T11:55:15Z</time>
      </trkpt>
      <trkpt lat="48.63329" lon="1.99959">
        <ele>131</ele>
        <time>2010-03-19T11:55:16Z</time>
      </trkpt>
      <trkpt lat="48.6333" lon="1.99962">
        <ele>131</ele>
        <time>2010-03-19T11:55:17Z</time>
      </trkpt>
      <trkpt lat="48.63329" lon="1.99965">
        <ele>131</ele>
        <time>2010-03-19T11:55:18Z</time>
      </trkpt>
      <trkpt lat="48.63329" lon="1.99968">
        <ele>131</ele>
        <time>2010-03-19T11:55:19Z</time>
      </trkpt>
      <trkpt lat="48.63329" lon="1.9997">
        <ele>131</ele>
        <time>2010-03-19T11:55:20Z</time>
      </trkpt>
      <trkpt lat="48.63329" lon="1.99973">
        <ele>131</ele>
        <time>2010-03-19T11:55:21Z</time>
      </trkpt>
      <trkpt lat="48.63329" lon="1.99976">
        <ele>131</ele>
        <time>2010-03-19T11:55:22Z</time>
      </trkpt>
      <trkpt lat="48.63329" lon="1.99978">
        <ele>131</ele>
        <time>2010-03-19T11:55:23Z</time>
      </trkpt>
      <trkpt lat="48.63329" lon="1.99981">
        <ele>130</ele>
        <time>2010-03-19T11:55:24Z</time>
      </trkpt>
      <trkpt lat="48.63328" lon="1.99983">
        <ele>130</ele>
        <time>2010-03-19T11:55:25Z</time>
      </trkpt>
      <trkpt lat="48.63328" lon="1.99985">
        <ele>130</ele>
        <time>2010-03-19T11:55:26Z</time>
      </trkpt>
      <trkpt lat="48.63328" lon="1.99987">
        <ele>130</ele>
        <time>2010-03-19T11:55:27Z</time>
      </trkpt>
      <trkpt lat="48.63328" lon="1.9999">
        <ele>130</ele>
        <time>2010-03-19T11:55:28Z</time>
      </trkpt>
      <trkpt lat="48.63328" lon="1.99992">
        <ele>130</ele>
        <time>2010-03-19T11:55:29Z</time>
      </trkpt>
      <trkpt lat="48.63327" lon="1.99995">
        <ele>130</ele>
        <time>2010-03-19T11:55:30Z</time>
      </trkpt>
      <trkpt lat="48.63327" lon="1.99997">
        <ele>130</ele>
        <time>2010-03-19T11:55:31Z</time>
      </trkpt>
      <trkpt lat="48.63328" lon="2">
        <ele>130</ele>
        <time>2010-03-19T11:55:32Z</time>
      </trkpt>
      <trkpt lat="48.63328" lon="2.00003">
        <ele>130</ele>
        <time>2010-03-19T11:55:33Z</time>
      </trkpt>
      <trkpt lat="48.63329" lon="2.00005">
        <ele>130</ele>
        <time>2010-03-19T11:55:34Z</time>
      </trkpt>
      <trkpt lat="48.6333" lon="2.00007">
        <ele>130</ele>
        <time>2010-03-19T11:55:35Z</time>
      </trkpt>
      <trkpt lat="48.63332" lon="2.00008">
        <ele>130</ele>
        <time>2010-03-19T11:55:36Z</time>
      </trkpt>
      <trkpt lat="48.63333" lon="2.00009">
        <ele>130</ele>
        <time>2010-03-19T11:55:37Z</time>
      </trkpt>
      <trkpt lat="48.63335" lon="2.00009">
        <ele>130</ele>
        <time>2010-03-19T11:55:38Z</time>
      </trkpt>
      <trkpt lat="48.63337" lon="2.00009">
        <ele>130</ele>
        <time>2010-03-19T11:55:39Z</time>
      </trkpt>
      <trkpt lat="48.63338" lon="2.00009">
        <ele>130</ele>
        <time>2010-03-19T11:55:40Z</time>
      </trkpt>
      <trkpt lat="48.6334" lon="2.00009">
        <ele>130</ele>
        <time>2010-03-19T11:55:41Z</time>
      </trkpt>
      <trkpt lat="48.63341" lon="2.00009">
        <ele>130</ele>
        <time>2010-03-19T11:55:42Z</time>
      </trkpt>
      <trkpt lat="48.63343" lon="2.0001">
        <ele>130</ele>
        <time>2010-03-19T11:55:43Z</time>
      </trkpt>
      <trkpt lat="48.63345" lon="2.0001">
        <ele>130</ele>
        <time>2010-03-19T11:55:44Z</time>
      </trkpt>
      <trkpt lat="48.63346" lon="2.0001">
        <ele>129</ele>
        <time>2010-03-19T11:55:45Z</time>
      </trkpt>
      <trkpt lat="48.63348" lon="2.00011">
        <ele>129</ele>
        <time>2010-03-19T11:55:46Z</time>
      </trkpt>
      <trkpt lat="48.6335" lon="2.00011">
        <ele>129</ele>
        <time>2010-03-19T11:55:47Z</time>
      </trkpt>
      <trkpt lat="48.63351" lon="2.00011">
        <ele>129</ele>
        <time>2010-03-19T11:55:48Z</time>
      </trkpt>
      <trkpt lat="48.63353" lon="2.00012">
        <ele>129</ele>
        <time>2010-03-19T11:55:49Z</time>
      </trkpt>
      <trkpt lat="48.63355" lon="2.00012">
        <ele>129</ele>
        <time>2010-03-19T11:55:50Z</time>
      </trkpt>
      <trkpt lat="48.63356" lon="2.00012">
        <ele>129</ele>
        <time>2010-03-19T11:55:51Z</time>
      </trkpt>
      <trkpt lat="48.63358" lon="2.00012">
        <ele>129</ele>
        <time>2010-03-19T11:55:52Z</time>
      </trkpt>
      <trkpt lat="48.6336" lon="2.00012">
        <ele>129</ele>
        <time>2010-03-19T11:55:53Z</time>
      </trkpt>
      <trkpt lat="48.63362" lon="2.00013">
        <ele>129</ele>
        <time>2010-03-19T11:55:54Z</time>
      </trkpt>
      <trkpt lat="48.63364" lon="2.00014">
        <ele>129</ele>
        <time>2010-03-19T11:55:55Z</time>
      </trkpt>
      <trkpt lat="48.63365" lon="2.00014">
        <ele>129</ele>
        <time>2010-03-19T11:55:56Z</time>
      </trkpt>
      <trkpt lat="48.63367" lon="2.00015">
        <ele>129</ele>
        <time>2010-03-19T11:55:57Z</time>
      </trkpt>
      <trkpt lat="48.63368" lon="2.00016">
        <ele>129</ele>
        <time>2010-03-19T11:55:58Z</time>
      </trkpt>
      <trkpt lat="48.6337" lon="2.00017">
        <ele>129</ele>
        <time>2010-03-19T11:55:59Z</time>
      </trkpt>
      <trkpt lat="48.63371" lon="2.00018">
        <ele>129</ele>
        <time>2010-03-19T11:56:00Z</time>
      </trkpt>
      <trkpt lat="48.63372" lon="2.00019">
        <ele>129</ele>
        <time>2010-03-19T11:56:01Z</time>
      </trkpt>
      <trkpt lat="48.63374" lon="2.0002">
        <ele>128</ele>
        <time>2010-03-19T11:56:02Z</time>
      </trkpt>
      <trkpt lat="48.63375" lon="2.0002">
        <ele>128</ele>
        <time>2010-03-19T11:56:03Z</time>
      </trkpt>
      <trkpt lat="48.63377" lon="2.0002">
        <ele>128</ele>
        <time>2010-03-19T11:56:04Z</time>
      </trkpt>
      <trkpt lat="48.63379" lon="2.0002">
        <ele>128</ele>
        <time>2010-03-19T11:56:05Z</time>
      </trkpt>
      <trkpt lat="48.6338" lon="2.00021">
        <ele>128</ele>
        <time>2010-03-19T11:56:06Z</time>
      </trkpt>
      <trkpt lat="48.63381" lon="2.00021">
        <ele>128</ele>
        <time>2010-03-19T11:56:07Z</time>
      </trkpt>
      <trkpt lat="48.63383" lon="2.00021">
        <ele>128</ele>
        <time>2010-03-19T11:56:08Z</time>
      </trkpt>
      <trkpt lat="48.63384" lon="2.00021">
        <ele>128</ele>
        <time>2010-03-19T11:56:09Z</time>
      </trkpt>
      <trkpt lat="48.63386" lon="2.00022">
        <ele>128</ele>
        <time>2010-03-19T11:56:10Z</time>
      </trkpt>
      <trkpt lat="48.63387" lon="2.00022">
        <ele>128</ele>
        <time>2010-03-19T11:56:11Z</time>
      </trkpt>
      <trkpt lat="48.63389" lon="2.00022">
        <ele>128</ele>
        <time>2010-03-19T11:56:12Z</time>
      </trkpt>
      <trkpt lat="48.6339" lon="2.00023">
        <ele>128</ele>
        <time>2010-03-19T11:56:13Z</time>
      </trkpt>
      <trkpt lat="48.63392" lon="2.00024">
        <ele>127</ele>
        <time>2010-03-19T11:56:14Z</time>
      </trkpt>
      <trkpt lat="48.63394" lon="2.00024">
        <ele>127</ele>
        <time>2010-03-19T11:56:15Z</time>
      </trkpt>
      <trkpt lat="48.63396" lon="2.00025">
        <ele>127</ele>
        <time>2010-03-19T11:56:16Z</time>
      </trkpt>
      <trkpt lat="48.63397" lon="2.00025">
        <ele>127</ele>
        <time>2010-03-19T11:56:17Z</time>
      </trkpt>
      <trkpt lat="48.63399" lon="2.00026">
        <ele>127</ele>
        <time>2010-03-19T11:56:18Z</time>
      </trkpt>
      <trkpt lat="48.63401" lon="2.00026">
        <ele>127</ele>
        <time>2010-03-19T11:56:19Z</time>
      </trkpt>
      <trkpt lat="48.63403" lon="2.00026">
        <ele>127</ele>
        <time>2010-03-19T11:56:20Z</time>
      </trkpt>
      <trkpt lat="48.63404" lon="2.00027">
        <ele>127</ele>
        <time>2010-03-19T11:56:21Z</time>
      </trkpt>
      <trkpt lat="48.63406" lon="2.00027">
        <ele>127</ele>
        <time>2010-03-19T11:56:22Z</time>
      </trkpt>
      <trkpt lat="48.63408" lon="2.00027">
        <ele>127</ele>
        <time>2010-03-19T11:56:23Z</time>
      </trkpt>
      <trkpt lat="48.63409" lon="2.00027">
        <ele>127</ele>
        <time>2010-03-19T11:56:24Z</time>
      </trkpt>
      <trkpt lat="48.63411" lon="2.00027">
        <ele>127</ele>
        <time>2010-03-19T11:56:25Z</time>
      </trkpt>
      <trkpt lat="48.63412" lon="2.00028">
        <ele>127</ele>
        <time>2010-03-19T11:56:26Z</time>
      </trkpt>
      <trkpt lat="48.63414" lon="2.00028">
        <ele>127</ele>
        <time>2010-03-19T11:56:27Z</time>
      </trkpt>
      <trkpt lat="48.63416" lon="2.00028">
        <ele>127</ele>
        <time>2010-03-19T11:56:28Z</time>
      </trkpt>
      <trkpt lat="48.63417" lon="2.00028">
        <ele>127</ele>
        <time>2010-03-19T11:56:29Z</time>
      </trkpt>
      <trkpt lat="48.63419" lon="2.00028">
        <ele>127</ele>
        <time>2010-03-19T11:56:30Z</time>
      </trkpt>
      <trkpt lat="48.63421" lon="2.00028">
        <ele>127</ele>
        <time>2010-03-19T11:56:31Z</time>
      </trkpt>
      <trkpt lat="48.63423" lon="2.00028">
        <ele>126</ele>
        <time>2010-03-19T11:56:32Z</time>
      </trkpt>
      <trkpt lat="48.63425" lon="2.00028">
        <ele>126</ele>
        <time>2010-03-19T11:56:33Z</time>
      </trkpt>
      <trkpt lat="48.63427" lon="2.00028">
        <ele>126</ele>
        <time>2010-03-19T11:56:34Z</time>
      </trkpt>
      <trkpt lat="48.63428" lon="2.00029">
        <ele>126</ele>
        <time>2010-03-19T11:56:35Z</time>
      </trkpt>
      <trkpt lat="48.6343" lon="2.00029">
        <ele>126</ele>
        <time>2010-03-19T11:56:36Z</time>
      </trkpt>
      <trkpt lat="48.63431" lon="2.0003">
        <ele>126</ele>
        <time>2010-03-19T11:56:37Z</time>
      </trkpt>
      <trkpt lat="48.63433" lon="2.0003">
        <ele>126</ele>
        <time>2010-03-19T11:56:38Z</time>
      </trkpt>
      <trkpt lat="48.63434" lon="2.0003">
        <ele>126</ele>
        <time>2010-03-19T11:56:39Z</time>
      </trkpt>
      <trkpt lat="48.63436" lon="2.00031">
        <ele>126</ele>
        <time>2010-03-19T11:56:40Z</time>
      </trkpt>
      <trkpt lat="48.63438" lon="2.00031">
        <ele>126</ele>
        <time>2010-03-19T11:56:41Z</time>
      </trkpt>
      <trkpt lat="48.63439" lon="2.00032">
        <ele>126</ele>
        <time>2010-03-19T11:56:42Z</time>
      </trkpt>
      <trkpt lat="48.6344" lon="2.00032">
        <ele>126</ele>
        <time>2010-03-19T11:56:43Z</time>
      </trkpt>
      <trkpt lat="48.63441" lon="2.00033">
        <ele>126</ele>
        <time>2010-03-19T11:56:44Z</time>
      </trkpt>
      <trkpt lat="48.63444" lon="2.00033">
        <ele>126</ele>
        <time>2010-03-19T11:56:45Z</time>
      </trkpt>
      <trkpt lat="48.63445" lon="2.00034">
        <ele>126</ele>
        <time>2010-03-19T11:56:46Z</time>
      </trkpt>
      <trkpt lat="48.63447" lon="2.00035">
        <ele>126</ele>
        <time>2010-03-19T11:56:47Z</time>
      </trkpt>
      <trkpt lat="48.63448" lon="2.00035">
        <ele>126</ele>
        <time>2010-03-19T11:56:48Z</time>
      </trkpt>
      <trkpt lat="48.6345" lon="2.00036">
        <ele>126</ele>
        <time>2010-03-19T11:56:49Z</time>
      </trkpt>
      <trkpt lat="48.63452" lon="2.00036">
        <ele>126</ele>
        <time>2010-03-19T11:56:50Z</time>
      </trkpt>
      <trkpt lat="48.63454" lon="2.00036">
        <ele>126</ele>
        <time>2010-03-19T11:56:51Z</time>
      </trkpt>
      <trkpt lat="48.63455" lon="2.00037">
        <ele>126</ele>
        <time>2010-03-19T11:56:52Z</time>
      </trkpt>
      <trkpt lat="48.63457" lon="2.00037">
        <ele>126</ele>
        <time>2010-03-19T11:56:53Z</time>
      </trkpt>
      <trkpt lat="48.63459" lon="2.00037">
        <ele>126</ele>
        <time>2010-03-19T11:56:54Z</time>
      </trkpt>
      <trkpt lat="48.63461" lon="2.00038">
        <ele>126</ele>
        <time>2010-03-19T11:56:55Z</time>
      </trkpt>
      <trkpt lat="48.63462" lon="2.00038">
        <ele>126</ele>
        <time>2010-03-19T11:56:56Z</time>
      </trkpt>
      <trkpt lat="48.63464" lon="2.00039">
        <ele>126</ele>
        <time>2010-03-19T11:56:57Z</time>
      </trkpt>
      <trkpt lat="48.63465" lon="2.0004">
        <ele>126</ele>
        <time>2010-03-19T11:56:58Z</time>
      </trkpt>
      <trkpt lat="48.63467" lon="2.00041">
        <ele>126</ele>
        <time>2010-03-19T11:57:00Z</time>
      </trkpt>
      <trkpt lat="48.63469" lon="2.00042">
        <ele>126</ele>
        <time>2010-03-19T11:57:01Z</time>
      </trkpt>
      <trkpt lat="48.6347" lon="2.00042">
        <ele>126</ele>
        <time>2010-03-19T11:57:02Z</time>
      </trkpt>
      <trkpt lat="48.63472" lon="2.00043">
        <ele>126</ele>
        <time>2010-03-19T11:57:03Z</time>
      </trkpt>
      <trkpt lat="48.63473" lon="2.00044">
        <ele>125</ele>
        <time>2010-03-19T11:57:04Z</time>
      </trkpt>
      <trkpt lat="48.63475" lon="2.00044">
        <ele>125</ele>
        <time>2010-03-19T11:57:05Z</time>
      </trkpt>
      <trkpt lat="48.63477" lon="2.00045">
        <ele>124</ele>
        <time>2010-03-19T11:57:07Z</time>
      </trkpt>
      <trkpt lat="48.63479" lon="2.00045">
        <ele>124</ele>
        <time>2010-03-19T11:57:08Z</time>
      </trkpt>
      <trkpt lat="48.6348" lon="2.00046">
        <ele>124</ele>
        <time>2010-03-19T11:57:09Z</time>
      </trkpt>
      <trkpt lat="48.63481" lon="2.00046">
        <ele>124</ele>
        <time>2010-03-19T11:57:10Z</time>
      </trkpt>
      <trkpt lat="48.63482" lon="2.00046">
        <ele>124</ele>
        <time>2010-03-19T11:57:11Z</time>
      </trkpt>
      <trkpt lat="48.63484" lon="2.00046">
        <ele>124</ele>
        <time>2010-03-19T11:57:12Z</time>
      </trkpt>
      <trkpt lat="48.63485" lon="2.00046">
        <ele>123</ele>
        <time>2010-03-19T11:57:13Z</time>
      </trkpt>
      <trkpt lat="48.63486" lon="2.00046">
        <ele>123</ele>
        <time>2010-03-19T11:57:14Z</time>
      </trkpt>
      <trkpt lat="48.63488" lon="2.00047">
        <ele>123</ele>
        <time>2010-03-19T11:57:15Z</time>
      </trkpt>
      <trkpt lat="48.6349" lon="2.00047">
        <ele>123</ele>
        <time>2010-03-19T11:57:16Z</time>
      </trkpt>
      <trkpt lat="48.63491" lon="2.00047">
        <ele>123</ele>
        <time>2010-03-19T11:57:18Z</time>
      </trkpt>
      <trkpt lat="48.63493" lon="2.00047">
        <ele>123</ele>
        <time>2010-03-19T11:57:21Z</time>
      </trkpt>
      <trkpt lat="48.63494" lon="2.00048">
        <ele>123</ele>
        <time>2010-03-19T11:57:22Z</time>
      </trkpt>
      <trkpt lat="48.63496" lon="2.00048">
        <ele>123</ele>
        <time>2010-03-19T11:57:23Z</time>
      </trkpt>
      <trkpt lat="48.63497" lon="2.00049">
        <ele>123</ele>
        <time>2010-03-19T11:57:24Z</time>
      </trkpt>
      <trkpt lat="48.63498" lon="2.0005">
        <ele>123</ele>
        <time>2010-03-19T11:57:25Z</time>
      </trkpt>
      <trkpt lat="48.63499" lon="2.0005">
        <ele>123</ele>
        <time>2010-03-19T11:57:26Z</time>
      </trkpt>
      <trkpt lat="48.63501" lon="2.00051">
        <ele>123</ele>
        <time>2010-03-19T11:57:27Z</time>
      </trkpt>
      <trkpt lat="48.63503" lon="2.00052">
        <ele>123</ele>
        <time>2010-03-19T11:57:28Z</time>
      </trkpt>
      <trkpt lat="48.63504" lon="2.00054">
        <ele>123</ele>
        <time>2010-03-19T11:57:29Z</time>
      </trkpt>
      <trkpt lat="48.63506" lon="2.00055">
        <ele>123</ele>
        <time>2010-03-19T11:57:30Z</time>
      </trkpt>
      <trkpt lat="48.63508" lon="2.00057">
        <ele>123</ele>
        <time>2010-03-19T11:57:31Z</time>
      </trkpt>
      <trkpt lat="48.63509" lon="2.00058">
        <ele>123</ele>
        <time>2010-03-19T11:57:32Z</time>
      </trkpt>
      <trkpt lat="48.63511" lon="2.00059">
        <ele>123</ele>
        <time>2010-03-19T11:57:33Z</time>
      </trkpt>
      <trkpt lat="48.63512" lon="2.0006">
        <ele>123</ele>
        <time>2010-03-19T11:57:34Z</time>
      </trkpt>
      <trkpt lat="48.63514" lon="2.00061">
        <ele>123</ele>
        <time>2010-03-19T11:57:35Z</time>
      </trkpt>
      <trkpt lat="48.63515" lon="2.00062">
        <ele>123</ele>
        <time>2010-03-19T11:57:36Z</time>
      </trkpt>
      <trkpt lat="48.63517" lon="2.00063">
        <ele>123</ele>
        <time>2010-03-19T11:57:37Z</time>
      </trkpt>
      <trkpt lat="48.63519" lon="2.00064">
        <ele>123</ele>
        <time>2010-03-19T11:57:38Z</time>
      </trkpt>
      <trkpt lat="48.6352" lon="2.00064">
        <ele>123</ele>
        <time>2010-03-19T11:57:39Z</time>
      </trkpt>
      <trkpt lat="48.63522" lon="2.00066">
        <ele>123</ele>
        <time>2010-03-19T11:57:40Z</time>
      </trkpt>
      <trkpt lat="48.63523" lon="2.00067">
        <ele>123</ele>
        <time>2010-03-19T11:57:41Z</time>
      </trkpt>
      <trkpt lat="48.63524" lon="2.00068">
        <ele>123</ele>
        <time>2010-03-19T11:57:42Z</time>
      </trkpt>
      <trkpt lat="48.63527" lon="2.00069">
        <ele>123</ele>
        <time>2010-03-19T11:57:43Z</time>
      </trkpt>
      <trkpt lat="48.63528" lon="2.0007">
        <ele>123</ele>
        <time>2010-03-19T11:57:44Z</time>
      </trkpt>
      <trkpt lat="48.63529" lon="2.00071">
        <ele>123</ele>
        <time>2010-03-19T11:57:45Z</time>
      </trkpt>
      <trkpt lat="48.63531" lon="2.00071">
        <ele>123</ele>
        <time>2010-03-19T11:57:46Z</time>
      </trkpt>
      <trkpt lat="48.63532" lon="2.00072">
        <ele>123</ele>
        <time>2010-03-19T11:57:47Z</time>
      </trkpt>
      <trkpt lat="48.63534" lon="2.00072">
        <ele>123</ele>
        <time>2010-03-19T11:57:48Z</time>
      </trkpt>
      <trkpt lat="48.63536" lon="2.00073">
        <ele>123</ele>
        <time>2010-03-19T11:57:49Z</time>
      </trkpt>
      <trkpt lat="48.63537" lon="2.00074">
        <ele>123</ele>
        <time>2010-03-19T11:57:50Z</time>
      </trkpt>
      <trkpt lat="48.63539" lon="2.00075">
        <ele>123</ele>
        <time>2010-03-19T11:57:51Z</time>
      </trkpt>
      <trkpt lat="48.6354" lon="2.00076">
        <ele>123</ele>
        <time>2010-03-19T11:57:52Z</time>
      </trkpt>
      <trkpt lat="48.63541" lon="2.00076">
        <ele>123</ele>
        <time>2010-03-19T11:57:53Z</time>
      </trkpt>
      <trkpt lat="48.63543" lon="2.00077">
        <ele>123</ele>
        <time>2010-03-19T11:57:54Z</time>
      </trkpt>
      <trkpt lat="48.63545" lon="2.00078">
        <ele>123</ele>
        <time>2010-03-19T11:57:55Z</time>
      </trkpt>
      <trkpt lat="48.63547" lon="2.00079">
        <ele>123</ele>
        <time>2010-03-19T11:57:56Z</time>
      </trkpt>
      <trkpt lat="48.63548" lon="2.0008">
        <ele>123</ele>
        <time>2010-03-19T11:57:57Z</time>
      </trkpt>
      <trkpt lat="48.6355" lon="2.00081">
        <ele>123</ele>
        <time>2010-03-19T11:57:58Z</time>
      </trkpt>
      <trkpt lat="48.63551" lon="2.00082">
        <ele>123</ele>
        <time>2010-03-19T11:57:59Z</time>
      </trkpt>
      <trkpt lat="48.63553" lon="2.00083">
        <ele>123</ele>
        <time>2010-03-19T11:58:00Z</time>
      </trkpt>
      <trkpt lat="48.63554" lon="2.00084">
        <ele>123</ele>
        <time>2010-03-19T11:58:01Z</time>
      </trkpt>
      <trkpt lat="48.63556" lon="2.00085">
        <ele>123</ele>
        <time>2010-03-19T11:58:02Z</time>
      </trkpt>
      <trkpt lat="48.63557" lon="2.00086">
        <ele>123</ele>
        <time>2010-03-19T11:58:03Z</time>
      </trkpt>
      <trkpt lat="48.63559" lon="2.00087">
        <ele>123</ele>
        <time>2010-03-19T11:58:04Z</time>
      </trkpt>
      <trkpt lat="48.6356" lon="2.00088">
        <ele>123</ele>
        <time>2010-03-19T11:58:05Z</time>
      </trkpt>
      <trkpt lat="48.63562" lon="2.0009">
        <ele>123</ele>
        <time>2010-03-19T11:58:06Z</time>
      </trkpt>
      <trkpt lat="48.63563" lon="2.00091">
        <ele>123</ele>
        <time>2010-03-19T11:58:07Z</time>
      </trkpt>
      <trkpt lat="48.63564" lon="2.00092">
        <ele>123</ele>
        <time>2010-03-19T11:58:08Z</time>
      </trkpt>
      <trkpt lat="48.63565" lon="2.00093">
        <ele>123</ele>
        <time>2010-03-19T11:58:09Z</time>
      </trkpt>
      <trkpt lat="48.63568" lon="2.00094">
        <ele>123</ele>
        <time>2010-03-19T11:58:10Z</time>
      </trkpt>
      <trkpt lat="48.63569" lon="2.00095">
        <ele>123</ele>
        <time>2010-03-19T11:58:11Z</time>
      </trkpt>
      <trkpt lat="48.6357" lon="2.00097">
        <ele>123</ele>
        <time>2010-03-19T11:58:12Z</time>
      </trkpt>
      <trkpt lat="48.63572" lon="2.00098">
        <ele>123</ele>
        <time>2010-03-19T11:58:13Z</time>
      </trkpt>
      <trkpt lat="48.63573" lon="2.00099">
        <ele>123</ele>
        <time>2010-03-19T11:58:14Z</time>
      </trkpt>
      <trkpt lat="48.63574" lon="2.00101">
        <ele>123</ele>
        <time>2010-03-19T11:58:15Z</time>
      </trkpt>
      <trkpt lat="48.63576" lon="2.00102">
        <ele>123</ele>
        <time>2010-03-19T11:58:16Z</time>
      </trkpt>
      <trkpt lat="48.63577" lon="2.00104">
        <ele>123</ele>
        <time>2010-03-19T11:58:17Z</time>
      </trkpt>
      <trkpt lat="48.63579" lon="2.00106">
        <ele>123</ele>
        <time>2010-03-19T11:58:18Z</time>
      </trkpt>
      <trkpt lat="48.6358" lon="2.00107">
        <ele>123</ele>
        <time>2010-03-19T11:58:19Z</time>
      </trkpt>
      <trkpt lat="48.63581" lon="2.00109">
        <ele>123</ele>
        <time>2010-03-19T11:58:20Z</time>
      </trkpt>
      <trkpt lat="48.63583" lon="2.00112">
        <ele>123</ele>
        <time>2010-03-19T11:58:22Z</time>
      </trkpt>
      <trkpt lat="48.63584" lon="2.00114">
        <ele>123</ele>
        <time>2010-03-19T11:58:23Z</time>
      </trkpt>
      <trkpt lat="48.63585" lon="2.00117">
        <ele>123</ele>
        <time>2010-03-19T11:58:24Z</time>
      </trkpt>
      <trkpt lat="48.63585" lon="2.00119">
        <ele>123</ele>
        <time>2010-03-19T11:58:25Z</time>
      </trkpt>
      <trkpt lat="48.63584" lon="2.00121">
        <ele>123</ele>
        <time>2010-03-19T11:58:26Z</time>
      </trkpt>
      <trkpt lat="48.63583" lon="2.00122">
        <ele>123</ele>
        <time>2010-03-19T11:58:27Z</time>
      </trkpt>
      <trkpt lat="48.63582" lon="2.00124">
        <ele>123</ele>
        <time>2010-03-19T11:58:28Z</time>
      </trkpt>
      <trkpt lat="48.63581" lon="2.00125">
        <ele>123</ele>
        <time>2010-03-19T11:58:29Z</time>
      </trkpt>
      <trkpt lat="48.63579" lon="2.00126">
        <ele>123</ele>
        <time>2010-03-19T11:58:31Z</time>
      </trkpt>
      <trkpt lat="48.63578" lon="2.00127">
        <ele>123</ele>
        <time>2010-03-19T11:58:33Z</time>
      </trkpt>
      <trkpt lat="48.63576" lon="2.00128">
        <ele>123</ele>
        <time>2010-03-19T11:58:35Z</time>
      </trkpt>
      <trkpt lat="48.63574" lon="2.00128">
        <ele>124</ele>
        <time>2010-03-19T11:58:37Z</time>
      </trkpt>
      <trkpt lat="48.63572" lon="2.00128">
        <ele>125</ele>
        <time>2010-03-19T11:58:39Z</time>
      </trkpt>
      <trkpt lat="48.6357" lon="2.00129">
        <ele>125</ele>
        <time>2010-03-19T11:58:41Z</time>
      </trkpt>
      <trkpt lat="48.63567" lon="2.0013">
        <ele>125</ele>
        <time>2010-03-19T11:58:42Z</time>
      </trkpt>
      <trkpt lat="48.63565" lon="2.0013">
        <ele>125</ele>
        <time>2010-03-19T11:58:43Z</time>
      </trkpt>
      <trkpt lat="48.63564" lon="2.0013">
        <ele>125</ele>
        <time>2010-03-19T11:58:44Z</time>
      </trkpt>
      <trkpt lat="48.63562" lon="2.00131">
        <ele>125</ele>
        <time>2010-03-19T11:58:45Z</time>
      </trkpt>
      <trkpt lat="48.6356" lon="2.00131">
        <ele>125</ele>
        <time>2010-03-19T11:58:47Z</time>
      </trkpt>
      <trkpt lat="48.63559" lon="2.00132">
        <ele>125</ele>
        <time>2010-03-19T11:58:49Z</time>
      </trkpt>
      <trkpt lat="48.63556" lon="2.00134">
        <ele>125</ele>
        <time>2010-03-19T11:58:51Z</time>
      </trkpt>
      <trkpt lat="48.63554" lon="2.00136">
        <ele>125</ele>
        <time>2010-03-19T11:58:52Z</time>
      </trkpt>
      <trkpt lat="48.63552" lon="2.00136">
        <ele>125</ele>
        <time>2010-03-19T11:58:53Z</time>
      </trkpt>
      <trkpt lat="48.63551" lon="2.00137">
        <ele>125</ele>
        <time>2010-03-19T11:58:54Z</time>
      </trkpt>
      <trkpt lat="48.63549" lon="2.00137">
        <ele>125</ele>
        <time>2010-03-19T11:58:55Z</time>
      </trkpt>
      <trkpt lat="48.63547" lon="2.00139">
        <ele>125</ele>
        <time>2010-03-19T11:58:57Z</time>
      </trkpt>
      <trkpt lat="48.63545" lon="2.0014">
        <ele>125</ele>
        <time>2010-03-19T11:58:58Z</time>
      </trkpt>
      <trkpt lat="48.63543" lon="2.00142">
        <ele>125</ele>
        <time>2010-03-19T11:59:00Z</time>
      </trkpt>
      <trkpt lat="48.63541" lon="2.00143">
        <ele>125</ele>
        <time>2010-03-19T11:59:01Z</time>
      </trkpt>
      <trkpt lat="48.6354" lon="2.00145">
        <ele>125</ele>
        <time>2010-03-19T11:59:02Z</time>
      </trkpt>
      <trkpt lat="48.63538" lon="2.00147">
        <ele>125</ele>
        <time>2010-03-19T11:59:03Z</time>
      </trkpt>
      <trkpt lat="48.63536" lon="2.00148">
        <ele>126</ele>
        <time>2010-03-19T11:59:04Z</time>
      </trkpt>
      <trkpt lat="48.63535" lon="2.00149">
        <ele>126</ele>
        <time>2010-03-19T11:59:05Z</time>
      </trkpt>
      <trkpt lat="48.63533" lon="2.0015">
        <ele>126</ele>
        <time>2010-03-19T11:59:06Z</time>
      </trkpt>
      <trkpt lat="48.63531" lon="2.00152">
        <ele>127</ele>
        <time>2010-03-19T11:59:07Z</time>
      </trkpt>
      <trkpt lat="48.6353" lon="2.00153">
        <ele>127</ele>
        <time>2010-03-19T11:59:08Z</time>
      </trkpt>
      <trkpt lat="48.63528" lon="2.00154">
        <ele>127</ele>
        <time>2010-03-19T11:59:09Z</time>
      </trkpt>
      <trkpt lat="48.63525" lon="2.00155">
        <ele>128</ele>
        <time>2010-03-19T11:59:10Z</time>
      </trkpt>
      <trkpt lat="48.63523" lon="2.00157">
        <ele>128</ele>
        <time>2010-03-19T11:59:11Z</time>
      </trkpt>
      <trkpt lat="48.63522" lon="2.00158">
        <ele>128</ele>
        <time>2010-03-19T11:59:12Z</time>
      </trkpt>
      <trkpt lat="48.63521" lon="2.00159">
        <ele>129</ele>
        <time>2010-03-19T11:59:13Z</time>
      </trkpt>
      <trkpt lat="48.6352" lon="2.0016">
        <ele>129</ele>
        <time>2010-03-19T11:59:14Z</time>
      </trkpt>
      <trkpt lat="48.63517" lon="2.00162">
        <ele>129</ele>
        <time>2010-03-19T11:59:15Z</time>
      </trkpt>
      <trkpt lat="48.63515" lon="2.00162">
        <ele>129</ele>
        <time>2010-03-19T11:59:16Z</time>
      </trkpt>
      <trkpt lat="48.63513" lon="2.00163">
        <ele>130</ele>
        <time>2010-03-19T11:59:17Z</time>
      </trkpt>
      <trkpt lat="48.63511" lon="2.00163">
        <ele>130</ele>
        <time>2010-03-19T11:59:18Z</time>
      </trkpt>
      <trkpt lat="48.63508" lon="2.00164">
        <ele>130</ele>
        <time>2010-03-19T11:59:19Z</time>
      </trkpt>
      <trkpt lat="48.63506" lon="2.00164">
        <ele>130</ele>
        <time>2010-03-19T11:59:20Z</time>
      </trkpt>
      <trkpt lat="48.63504" lon="2.00165">
        <ele>130</ele>
        <time>2010-03-19T11:59:21Z</time>
      </trkpt>
      <trkpt lat="48.63503" lon="2.00165">
        <ele>130</ele>
        <time>2010-03-19T11:59:22Z</time>
      </trkpt>
      <trkpt lat="48.63501" lon="2.00164">
        <ele>130</ele>
        <time>2010-03-19T11:59:23Z</time>
      </trkpt>
      <trkpt lat="48.63499" lon="2.00164">
        <ele>130</ele>
        <time>2010-03-19T11:59:24Z</time>
      </trkpt>
      <trkpt lat="48.63498" lon="2.00163">
        <ele>130</ele>
        <time>2010-03-19T11:59:25Z</time>
      </trkpt>
      <trkpt lat="48.63496" lon="2.00163">
        <ele>130</ele>
        <time>2010-03-19T11:59:26Z</time>
      </trkpt>
      <trkpt lat="48.63494" lon="2.00162">
        <ele>130</ele>
        <time>2010-03-19T11:59:27Z</time>
      </trkpt>
      <trkpt lat="48.63493" lon="2.00161">
        <ele>130</ele>
        <time>2010-03-19T11:59:28Z</time>
      </trkpt>
      <trkpt lat="48.63491" lon="2.0016">
        <ele>130</ele>
        <time>2010-03-19T11:59:29Z</time>
      </trkpt>
      <trkpt lat="48.63489" lon="2.0016">
        <ele>130</ele>
        <time>2010-03-19T11:59:30Z</time>
      </trkpt>
      <trkpt lat="48.63487" lon="2.0016">
        <ele>130</ele>
        <time>2010-03-19T11:59:31Z</time>
      </trkpt>
      <trkpt lat="48.63485" lon="2.00159">
        <ele>130</ele>
        <time>2010-03-19T11:59:32Z</time>
      </trkpt>
      <trkpt lat="48.63483" lon="2.00159">
        <ele>130</ele>
        <time>2010-03-19T11:59:33Z</time>
      </trkpt>
      <trkpt lat="48.63482" lon="2.00158">
        <ele>130</ele>
        <time>2010-03-19T11:59:34Z</time>
      </trkpt>
      <trkpt lat="48.63481" lon="2.00157">
        <ele>130</ele>
        <time>2010-03-19T11:59:35Z</time>
      </trkpt>
      <trkpt lat="48.63479" lon="2.00156">
        <ele>130</ele>
        <time>2010-03-19T11:59:36Z</time>
      </trkpt>
      <trkpt lat="48.63477" lon="2.00156">
        <ele>130</ele>
        <time>2010-03-19T11:59:37Z</time>
      </trkpt>
      <trkpt lat="48.63475" lon="2.00155">
        <ele>130</ele>
        <time>2010-03-19T11:59:38Z</time>
      </trkpt>
      <trkpt lat="48.63474" lon="2.00154">
        <ele>130</ele>
        <time>2010-03-19T11:59:39Z</time>
      </trkpt>
      <trkpt lat="48.63472" lon="2.00153">
        <ele>130</ele>
        <time>2010-03-19T11:59:40Z</time>
      </trkpt>
      <trkpt lat="48.6347" lon="2.00153">
        <ele>130</ele>
        <time>2010-03-19T11:59:41Z</time>
      </trkpt>
      <trkpt lat="48.63468" lon="2.00153">
        <ele>130</ele>
        <time>2010-03-19T11:59:42Z</time>
      </trkpt>
      <trkpt lat="48.63466" lon="2.00152">
        <ele>130</ele>
        <time>2010-03-19T11:59:43Z</time>
      </trkpt>
      <trkpt lat="48.63464" lon="2.00152">
        <ele>130</ele>
        <time>2010-03-19T11:59:44Z</time>
      </trkpt>
      <trkpt lat="48.63463" lon="2.00152">
        <ele>130</ele>
        <time>2010-03-19T11:59:45Z</time>
      </trkpt>
      <trkpt lat="48.63461" lon="2.00151">
        <ele>130</ele>
        <time>2010-03-19T11:59:46Z</time>
      </trkpt>
      <trkpt lat="48.6346" lon="2.00151">
        <ele>130</ele>
        <time>2010-03-19T11:59:47Z</time>
      </trkpt>
      <trkpt lat="48.63458" lon="2.00151">
        <ele>130</ele>
        <time>2010-03-19T11:59:48Z</time>
      </trkpt>
      <trkpt lat="48.63457" lon="2.00151">
        <ele>130</ele>
        <time>2010-03-19T11:59:49Z</time>
      </trkpt>
      <trkpt lat="48.63454" lon="2.00151">
        <ele>130</ele>
        <time>2010-03-19T11:59:50Z</time>
      </trkpt>
      <trkpt lat="48.63453" lon="2.00151">
        <ele>130</ele>
        <time>2010-03-19T11:59:51Z</time>
      </trkpt>
      <trkpt lat="48.63451" lon="2.00151">
        <ele>130</ele>
        <time>2010-03-19T11:59:52Z</time>
      </trkpt>
      <trkpt lat="48.63449" lon="2.00151">
        <ele>130</ele>
        <time>2010-03-19T11:59:53Z</time>
      </trkpt>
      <trkpt lat="48.63448" lon="2.0015">
        <ele>130</ele>
        <time>2010-03-19T11:59:54Z</time>
      </trkpt>
      <trkpt lat="48.63447" lon="2.0015">
        <ele>130</ele>
        <time>2010-03-19T11:59:55Z</time>
      </trkpt>
      <trkpt lat="48.63445" lon="2.0015">
        <ele>130</ele>
        <time>2010-03-19T11:59:56Z</time>
      </trkpt>
      <trkpt lat="48.63444" lon="2.0015">
        <ele>130</ele>
        <time>2010-03-19T11:59:57Z</time>
      </trkpt>
      <trkpt lat="48.63441" lon="2.00151">
        <ele>130</ele>
        <time>2010-03-19T11:59:58Z</time>
      </trkpt>
      <trkpt lat="48.6344" lon="2.00151">
        <ele>130</ele>
        <time>2010-03-19T11:59:59Z</time>
      </trkpt>
      <trkpt lat="48.63438" lon="2.00152">
        <ele>130</ele>
        <time>2010-03-19T12:00:00Z</time>
      </trkpt>
      <trkpt lat="48.63435" lon="2.00152">
        <ele>130</ele>
        <time>2010-03-19T12:00:01Z</time>
      </trkpt>
      <trkpt lat="48.63433" lon="2.00153">
        <ele>131</ele>
        <time>2010-03-19T12:00:02Z</time>
      </trkpt>
      <trkpt lat="48.6343" lon="2.00154">
        <ele>131</ele>
        <time>2010-03-19T12:00:03Z</time>
      </trkpt>
      <trkpt lat="48.63427" lon="2.00153">
        <ele>131</ele>
        <time>2010-03-19T12:00:04Z</time>
      </trkpt>
      <trkpt lat="48.63424" lon="2.00153">
        <ele>131</ele>
        <time>2010-03-19T12:00:05Z</time>
      </trkpt>
      <trkpt lat="48.63421" lon="2.00154">
        <ele>131</ele>
        <time>2010-03-19T12:00:06Z</time>
      </trkpt>
      <trkpt lat="48.63417" lon="2.00155">
        <ele>131</ele>
        <time>2010-03-19T12:00:07Z</time>
      </trkpt>
      <trkpt lat="48.63414" lon="2.00156">
        <ele>131</ele>
        <time>2010-03-19T12:00:08Z</time>
      </trkpt>
      <trkpt lat="48.63409" lon="2.00158">
        <ele>131</ele>
        <time>2010-03-19T12:00:09Z</time>
      </trkpt>
      <trkpt lat="48.63406" lon="2.00159">
        <ele>131</ele>
        <time>2010-03-19T12:00:10Z</time>
      </trkpt>
      <trkpt lat="48.63403" lon="2.00161">
        <ele>131</ele>
        <time>2010-03-19T12:00:11Z</time>
      </trkpt>
      <trkpt lat="48.63399" lon="2.00164">
        <ele>131</ele>
        <time>2010-03-19T12:00:12Z</time>
      </trkpt>
      <trkpt lat="48.63395" lon="2.00165">
        <ele>131</ele>
        <time>2010-03-19T12:00:13Z</time>
      </trkpt>
      <trkpt lat="48.63391" lon="2.00167">
        <ele>131</ele>
        <time>2010-03-19T12:00:14Z</time>
      </trkpt>
      <trkpt lat="48.63387" lon="2.00168">
        <ele>131</ele>
        <time>2010-03-19T12:00:15Z</time>
      </trkpt>
      <trkpt lat="48.63381" lon="2.00171">
        <ele>131</ele>
        <time>2010-03-19T12:00:16Z</time>
      </trkpt>
      <trkpt lat="48.63377" lon="2.00172">
        <ele>131</ele>
        <time>2010-03-19T12:00:17Z</time>
      </trkpt>
      <trkpt lat="48.63374" lon="2.00174">
        <ele>131</ele>
        <time>2010-03-19T12:00:18Z</time>
      </trkpt>
      <trkpt lat="48.63368" lon="2.00177">
        <ele>131</ele>
        <time>2010-03-19T12:00:19Z</time>
      </trkpt>
      <trkpt lat="48.63363" lon="2.0018">
        <ele>131</ele>
        <time>2010-03-19T12:00:20Z</time>
      </trkpt>
      <trkpt lat="48.63358" lon="2.00183">
        <ele>131</ele>
        <time>2010-03-19T12:00:21Z</time>
      </trkpt>
      <trkpt lat="48.63354" lon="2.00186">
        <ele>131</ele>
        <time>2010-03-19T12:00:22Z</time>
      </trkpt>
      <trkpt lat="48.6335" lon="2.00187">
        <ele>131</ele>
        <time>2010-03-19T12:00:23Z</time>
      </trkpt>
      <trkpt lat="48.63346" lon="2.00189">
        <ele>131</ele>
        <time>2010-03-19T12:00:24Z</time>
      </trkpt>
      <trkpt lat="48.63341" lon="2.00191">
        <ele>131</ele>
        <time>2010-03-19T12:00:25Z</time>
      </trkpt>
      <trkpt lat="48.63337" lon="2.00193">
        <ele>131</ele>
        <time>2010-03-19T12:00:26Z</time>
      </trkpt>
      <trkpt lat="48.63333" lon="2.00194">
        <ele>131</ele>
        <time>2010-03-19T12:00:27Z</time>
      </trkpt>
      <trkpt lat="48.63329" lon="2.00194">
        <ele>131</ele>
        <time>2010-03-19T12:00:28Z</time>
      </trkpt>
      <trkpt lat="48.63326" lon="2.00193">
        <ele>131</ele>
        <time>2010-03-19T12:00:29Z</time>
      </trkpt>
      <trkpt lat="48.6332" lon="2.00193">
        <ele>131</ele>
        <time>2010-03-19T12:00:30Z</time>
      </trkpt>
      <trkpt lat="48.63316" lon="2.00193">
        <ele>131</ele>
        <time>2010-03-19T12:00:31Z</time>
      </trkpt>
      <trkpt lat="48.63311" lon="2.00192">
        <ele>131</ele>
        <time>2010-03-19T12:00:32Z</time>
      </trkpt>
      <trkpt lat="48.63307" lon="2.00193">
        <ele>131</ele>
        <time>2010-03-19T12:00:33Z</time>
      </trkpt>
      <trkpt lat="48.63301" lon="2.00194">
        <ele>131</ele>
        <time>2010-03-19T12:00:34Z</time>
      </trkpt>
      <trkpt lat="48.63296" lon="2.00194">
        <ele>131</ele>
        <time>2010-03-19T12:00:35Z</time>
      </trkpt>
      <trkpt lat="48.63291" lon="2.00193">
        <ele>131</ele>
        <time>2010-03-19T12:00:36Z</time>
      </trkpt>
      <trkpt lat="48.63285" lon="2.00194">
        <ele>131</ele>
        <time>2010-03-19T12:00:37Z</time>
      </trkpt>
      <trkpt lat="48.63279" lon="2.00196">
        <ele>131</ele>
        <time>2010-03-19T12:00:38Z</time>
      </trkpt>
      <trkpt lat="48.63273" lon="2.00197">
        <ele>131</ele>
        <time>2010-03-19T12:00:39Z</time>
      </trkpt>
      <trkpt lat="48.63268" lon="2.00197">
        <ele>131</ele>
        <time>2010-03-19T12:00:40Z</time>
      </trkpt>
      <trkpt lat="48.63263" lon="2.00199">
        <ele>131</ele>
        <time>2010-03-19T12:00:41Z</time>
      </trkpt>
      <trkpt lat="48.63257" lon="2.002">
        <ele>131</ele>
        <time>2010-03-19T12:00:42Z</time>
      </trkpt>
      <trkpt lat="48.63251" lon="2.00201">
        <ele>131</ele>
        <time>2010-03-19T12:00:43Z</time>
      </trkpt>
      <trkpt lat="48.63246" lon="2.00202">
        <ele>131</ele>
        <time>2010-03-19T12:00:44Z</time>
      </trkpt>
      <trkpt lat="48.6324" lon="2.00203">
        <ele>131</ele>
        <time>2010-03-19T12:00:45Z</time>
      </trkpt>
      <trkpt lat="48.63236" lon="2.00204">
        <ele>131</ele>
        <time>2010-03-19T12:00:46Z</time>
      </trkpt>
      <trkpt lat="48.63232" lon="2.00205">
        <ele>130</ele>
        <time>2010-03-19T12:00:47Z</time>
      </trkpt>
      <trkpt lat="48.63227" lon="2.00206">
        <ele>129</ele>
        <time>2010-03-19T12:00:48Z</time>
      </trkpt>
      <trkpt lat="48.63224" lon="2.00206">
        <ele>129</ele>
        <time>2010-03-19T12:00:49Z</time>
      </trkpt>
      <trkpt lat="48.63219" lon="2.00207">
        <ele>128</ele>
        <time>2010-03-19T12:00:50Z</time>
      </trkpt>
      <trkpt lat="48.63214" lon="2.00207">
        <ele>127</ele>
        <time>2010-03-19T12:00:51Z</time>
      </trkpt>
      <trkpt lat="48.63208" lon="2.00207">
        <ele>127</ele>
        <time>2010-03-19T12:00:52Z</time>
      </trkpt>
      <trkpt lat="48.63202" lon="2.00207">
        <ele>126</ele>
        <time>2010-03-19T12:00:53Z</time>
      </trkpt>
      <trkpt lat="48.63195" lon="2.00207">
        <ele>125</ele>
        <time>2010-03-19T12:00:54Z</time>
      </trkpt>
      <trkpt lat="48.63188" lon="2.00207">
        <ele>125</ele>
        <time>2010-03-19T12:00:55Z</time>
      </trkpt>
      <trkpt lat="48.6318" lon="2.00209">
        <ele>124</ele>
        <time>2010-03-19T12:00:56Z</time>
      </trkpt>
      <trkpt lat="48.63173" lon="2.0021">
        <ele>123</ele>
        <time>2010-03-19T12:00:57Z</time>
      </trkpt>
      <trkpt lat="48.63166" lon="2.00212">
        <ele>123</ele>
        <time>2010-03-19T12:00:58Z</time>
      </trkpt>
      <trkpt lat="48.63158" lon="2.00213">
        <ele>122</ele>
        <time>2010-03-19T12:00:59Z</time>
      </trkpt>
      <trkpt lat="48.63151" lon="2.00216">
        <ele>122</ele>
        <time>2010-03-19T12:01:00Z</time>
      </trkpt>
      <trkpt lat="48.63144" lon="2.00219">
        <ele>121</ele>
        <time>2010-03-19T12:01:01Z</time>
      </trkpt>
      <trkpt lat="48.63137" lon="2.00221">
        <ele>121</ele>
        <time>2010-03-19T12:01:02Z</time>
      </trkpt>
      <trkpt lat="48.63131" lon="2.00224">
        <ele>120</ele>
        <time>2010-03-19T12:01:03Z</time>
      </trkpt>
      <trkpt lat="48.63124" lon="2.00227">
        <ele>120</ele>
        <time>2010-03-19T12:01:04Z</time>
      </trkpt>
      <trkpt lat="48.63117" lon="2.0023">
        <ele>120</ele>
        <time>2010-03-19T12:01:05Z</time>
      </trkpt>
      <trkpt lat="48.63109" lon="2.00233">
        <ele>119</ele>
        <time>2010-03-19T12:01:06Z</time>
      </trkpt>
      <trkpt lat="48.63102" lon="2.00236">
        <ele>119</ele>
        <time>2010-03-19T12:01:07Z</time>
      </trkpt>
      <trkpt lat="48.63093" lon="2.0024">
        <ele>119</ele>
        <time>2010-03-19T12:01:08Z</time>
      </trkpt>
      <trkpt lat="48.63084" lon="2.00244">
        <ele>119</ele>
        <time>2010-03-19T12:01:09Z</time>
      </trkpt>
      <trkpt lat="48.63076" lon="2.00249">
        <ele>119</ele>
        <time>2010-03-19T12:01:10Z</time>
      </trkpt>
      <trkpt lat="48.63067" lon="2.00254">
        <ele>119</ele>
        <time>2010-03-19T12:01:11Z</time>
      </trkpt>
      <trkpt lat="48.63059" lon="2.00258">
        <ele>119</ele>
        <time>2010-03-19T12:01:12Z</time>
      </trkpt>
      <trkpt lat="48.63051" lon="2.00263">
        <ele>119</ele>
        <time>2010-03-19T12:01:13Z</time>
      </trkpt>
      <trkpt lat="48.63043" lon="2.00267">
        <ele>119</ele>
        <time>2010-03-19T12:01:14Z</time>
      </trkpt>
      <trkpt lat="48.63036" lon="2.00271">
        <ele>119</ele>
        <time>2010-03-19T12:01:15Z</time>
      </trkpt>
      <trkpt lat="48.63028" lon="2.00277">
        <ele>119</ele>
        <time>2010-03-19T12:01:16Z</time>
      </trkpt>
      <trkpt lat="48.63022" lon="2.00282">
        <ele>119</ele>
        <time>2010-03-19T12:01:17Z</time>
      </trkpt>
      <trkpt lat="48.63018" lon="2.00288">
        <ele>119</ele>
        <time>2010-03-19T12:01:18Z</time>
      </trkpt>
      <trkpt lat="48.63012" lon="2.00295">
        <ele>119</ele>
        <time>2010-03-19T12:01:19Z</time>
      </trkpt>
      <trkpt lat="48.63006" lon="2.00302">
        <ele>119</ele>
        <time>2010-03-19T12:01:20Z</time>
      </trkpt>
      <trkpt lat="48.63" lon="2.00309">
        <ele>119</ele>
        <time>2010-03-19T12:01:21Z</time>
      </trkpt>
      <trkpt lat="48.62997" lon="2.00315">
        <ele>119</ele>
        <time>2010-03-19T12:01:22Z</time>
      </trkpt>
      <trkpt lat="48.62993" lon="2.00321">
        <ele>120</ele>
        <time>2010-03-19T12:01:23Z</time>
      </trkpt>
      <trkpt lat="48.62989" lon="2.00326">
        <ele>121</ele>
        <time>2010-03-19T12:01:24Z</time>
      </trkpt>
      <trkpt lat="48.62985" lon="2.00332">
        <ele>121</ele>
        <time>2010-03-19T12:01:25Z</time>
      </trkpt>
      <trkpt lat="48.62981" lon="2.00339">
        <ele>122</ele>
        <time>2010-03-19T12:01:26Z</time>
      </trkpt>
      <trkpt lat="48.62977" lon="2.00346">
        <ele>122</ele>
        <time>2010-03-19T12:01:27Z</time>
      </trkpt>
      <trkpt lat="48.62974" lon="2.00352">
        <ele>123</ele>
        <time>2010-03-19T12:01:28Z</time>
      </trkpt>
      <trkpt lat="48.62969" lon="2.00358">
        <ele>124</ele>
        <time>2010-03-19T12:01:29Z</time>
      </trkpt>
      <trkpt lat="48.62965" lon="2.00363">
        <ele>124</ele>
        <time>2010-03-19T12:01:30Z</time>
      </trkpt>
      <trkpt lat="48.6296" lon="2.0037">
        <ele>125</ele>
        <time>2010-03-19T12:01:31Z</time>
      </trkpt>
      <trkpt lat="48.62952" lon="2.00376">
        <ele>126</ele>
        <time>2010-03-19T12:01:32Z</time>
      </trkpt>
      <trkpt lat="48.62947" lon="2.00381">
        <ele>127</ele>
        <time>2010-03-19T12:01:33Z</time>
      </trkpt>
      <trkpt lat="48.62939" lon="2.00387">
        <ele>127</ele>
        <time>2010-03-19T12:01:34Z</time>
      </trkpt>
      <trkpt lat="48.62934" lon="2.00393">
        <ele>128</ele>
        <time>2010-03-19T12:01:35Z</time>
      </trkpt>
      <trkpt lat="48.62928" lon="2.00398">
        <ele>128</ele>
        <time>2010-03-19T12:01:36Z</time>
      </trkpt>
      <trkpt lat="48.62922" lon="2.00404">
        <ele>128</ele>
        <time>2010-03-19T12:01:37Z</time>
      </trkpt>
      <trkpt lat="48.62916" lon="2.0041">
        <ele>128</ele>
        <time>2010-03-19T12:01:38Z</time>
      </trkpt>
      <trkpt lat="48.62911" lon="2.00417">
        <ele>128</ele>
        <time>2010-03-19T12:01:39Z</time>
      </trkpt>
      <trkpt lat="48.62906" lon="2.00423">
        <ele>128</ele>
        <time>2010-03-19T12:01:40Z</time>
      </trkpt>
      <trkpt lat="48.62902" lon="2.00429">
        <ele>128</ele>
        <time>2010-03-19T12:01:41Z</time>
      </trkpt>
      <trkpt lat="48.62897" lon="2.00436">
        <ele>128</ele>
        <time>2010-03-19T12:01:42Z</time>
      </trkpt>
      <trkpt lat="48.6289" lon="2.00445">
        <ele>128</ele>
        <time>2010-03-19T12:01:43Z</time>
      </trkpt>
      <trkpt lat="48.62886" lon="2.00452">
        <ele>128</ele>
        <time>2010-03-19T12:01:44Z</time>
      </trkpt>
      <trkpt lat="48.62882" lon="2.0046">
        <ele>129</ele>
        <time>2010-03-19T12:01:45Z</time>
      </trkpt>
      <trkpt lat="48.62878" lon="2.00467">
        <ele>130</ele>
        <time>2010-03-19T12:01:46Z</time>
      </trkpt>
      <trkpt lat="48.62874" lon="2.00474">
        <ele>131</ele>
        <time>2010-03-19T12:01:47Z</time>
      </trkpt>
      <trkpt lat="48.62869" lon="2.00482">
        <ele>132</ele>
        <time>2010-03-19T12:01:48Z</time>
      </trkpt>
      <trkpt lat="48.62864" lon="2.0049">
        <ele>133</ele>
        <time>2010-03-19T12:01:49Z</time>
      </trkpt>
      <trkpt lat="48.62859" lon="2.00498">
        <ele>134</ele>
        <time>2010-03-19T12:01:50Z</time>
      </trkpt>
      <trkpt lat="48.62854" lon="2.00505">
        <ele>134</ele>
        <time>2010-03-19T12:01:51Z</time>
      </trkpt>
      <trkpt lat="48.62851" lon="2.00512">
        <ele>134</ele>
        <time>2010-03-19T12:01:52Z</time>
      </trkpt>
      <trkpt lat="48.62847" lon="2.00519">
        <ele>134</ele>
        <time>2010-03-19T12:01:53Z</time>
      </trkpt>
      <trkpt lat="48.62845" lon="2.00527">
        <ele>135</ele>
        <time>2010-03-19T12:01:54Z</time>
      </trkpt>
      <trkpt lat="48.62843" lon="2.00535">
        <ele>135</ele>
        <time>2010-03-19T12:01:55Z</time>
      </trkpt>
      <trkpt lat="48.62841" lon="2.00544">
        <ele>135</ele>
        <time>2010-03-19T12:01:56Z</time>
      </trkpt>
      <trkpt lat="48.62839" lon="2.00551">
        <ele>135</ele>
        <time>2010-03-19T12:01:57Z</time>
      </trkpt>
      <trkpt lat="48.62837" lon="2.00559">
        <ele>135</ele>
        <time>2010-03-19T12:01:58Z</time>
      </trkpt>
      <trkpt lat="48.62836" lon="2.00567">
        <ele>135</ele>
        <time>2010-03-19T12:01:59Z</time>
      </trkpt>
      <trkpt lat="48.62835" lon="2.00575">
        <ele>135</ele>
        <time>2010-03-19T12:02:00Z</time>
      </trkpt>
      <trkpt lat="48.62835" lon="2.00584">
        <ele>135</ele>
        <time>2010-03-19T12:02:01Z</time>
      </trkpt>
      <trkpt lat="48.62833" lon="2.00593">
        <ele>135</ele>
        <time>2010-03-19T12:02:02Z</time>
      </trkpt>
      <trkpt lat="48.62831" lon="2.00601">
        <ele>135</ele>
        <time>2010-03-19T12:02:03Z</time>
      </trkpt>
      <trkpt lat="48.62829" lon="2.00609">
        <ele>135</ele>
        <time>2010-03-19T12:02:04Z</time>
      </trkpt>
      <trkpt lat="48.62827" lon="2.00616">
        <ele>135</ele>
        <time>2010-03-19T12:02:05Z</time>
      </trkpt>
      <trkpt lat="48.62825" lon="2.00624">
        <ele>135</ele>
        <time>2010-03-19T12:02:06Z</time>
      </trkpt>
      <trkpt lat="48.62823" lon="2.00632">
        <ele>135</ele>
        <time>2010-03-19T12:02:07Z</time>
      </trkpt>
      <trkpt lat="48.62822" lon="2.00641">
        <ele>135</ele>
        <time>2010-03-19T12:02:08Z</time>
      </trkpt>
      <trkpt lat="48.62819" lon="2.0065">
        <ele>135</ele>
        <time>2010-03-19T12:02:09Z</time>
      </trkpt>
      <trkpt lat="48.62814" lon="2.00659">
        <ele>135</ele>
        <time>2010-03-19T12:02:10Z</time>
      </trkpt>
      <trkpt lat="48.62811" lon="2.00668">
        <ele>135</ele>
        <time>2010-03-19T12:02:11Z</time>
      </trkpt>
      <trkpt lat="48.62808" lon="2.00676">
        <ele>135</ele>
        <time>2010-03-19T12:02:12Z</time>
      </trkpt>
      <trkpt lat="48.62805" lon="2.00684">
        <ele>135</ele>
        <time>2010-03-19T12:02:13Z</time>
      </trkpt>
      <trkpt lat="48.62802" lon="2.00693">
        <ele>134</ele>
        <time>2010-03-19T12:02:14Z</time>
      </trkpt>
      <trkpt lat="48.62798" lon="2.00703">
        <ele>133</ele>
        <time>2010-03-19T12:02:15Z</time>
      </trkpt>
      <trkpt lat="48.62795" lon="2.00712">
        <ele>132</ele>
        <time>2010-03-19T12:02:16Z</time>
      </trkpt>
      <trkpt lat="48.62792" lon="2.00722">
        <ele>131</ele>
        <time>2010-03-19T12:02:17Z</time>
      </trkpt>
      <trkpt lat="48.62789" lon="2.00731">
        <ele>130</ele>
        <time>2010-03-19T12:02:18Z</time>
      </trkpt>
      <trkpt lat="48.62785" lon="2.00742">
        <ele>129</ele>
        <time>2010-03-19T12:02:19Z</time>
      </trkpt>
      <trkpt lat="48.62779" lon="2.00755">
        <ele>128</ele>
        <time>2010-03-19T12:02:20Z</time>
      </trkpt>
      <trkpt lat="48.62775" lon="2.00767">
        <ele>128</ele>
        <time>2010-03-19T12:02:21Z</time>
      </trkpt>
      <trkpt lat="48.62772" lon="2.00777">
        <ele>128</ele>
        <time>2010-03-19T12:02:22Z</time>
      </trkpt>
      <trkpt lat="48.6277" lon="2.00786">
        <ele>128</ele>
        <time>2010-03-19T12:02:23Z</time>
      </trkpt>
      <trkpt lat="48.62767" lon="2.00795">
        <ele>128</ele>
        <time>2010-03-19T12:02:24Z</time>
      </trkpt>
      <trkpt lat="48.62765" lon="2.00803">
        <ele>128</ele>
        <time>2010-03-19T12:02:25Z</time>
      </trkpt>
      <trkpt lat="48.62762" lon="2.00812">
        <ele>128</ele>
        <time>2010-03-19T12:02:26Z</time>
      </trkpt>
      <trkpt lat="48.62761" lon="2.00821">
        <ele>128</ele>
        <time>2010-03-19T12:02:27Z</time>
      </trkpt>
      <trkpt lat="48.62759" lon="2.0083">
        <ele>128</ele>
        <time>2010-03-19T12:02:28Z</time>
      </trkpt>
      <trkpt lat="48.62756" lon="2.00839">
        <ele>128</ele>
        <time>2010-03-19T12:02:29Z</time>
      </trkpt>
      <trkpt lat="48.62755" lon="2.00849">
        <ele>128</ele>
        <time>2010-03-19T12:02:30Z</time>
      </trkpt>
      <trkpt lat="48.62753" lon="2.00858">
        <ele>128</ele>
        <time>2010-03-19T12:02:31Z</time>
      </trkpt>
      <trkpt lat="48.62752" lon="2.00868">
        <ele>128</ele>
        <time>2010-03-19T12:02:32Z</time>
      </trkpt>
      <trkpt lat="48.62751" lon="2.00877">
        <ele>128</ele>
        <time>2010-03-19T12:02:33Z</time>
      </trkpt>
      <trkpt lat="48.62749" lon="2.00887">
        <ele>128</ele>
        <time>2010-03-19T12:02:34Z</time>
      </trkpt>
      <trkpt lat="48.62748" lon="2.00897">
        <ele>128</ele>
        <time>2010-03-19T12:02:35Z</time>
      </trkpt>
      <trkpt lat="48.62747" lon="2.00907">
        <ele>128</ele>
        <time>2010-03-19T12:02:36Z</time>
      </trkpt>
      <trkpt lat="48.62746" lon="2.00917">
        <ele>128</ele>
        <time>2010-03-19T12:02:37Z</time>
      </trkpt>
      <trkpt lat="48.62746" lon="2.00927">
        <ele>128</ele>
        <time>2010-03-19T12:02:38Z</time>
      </trkpt>
      <trkpt lat="48.62746" lon="2.00937">
        <ele>129</ele>
        <time>2010-03-19T12:02:39Z</time>
      </trkpt>
      <trkpt lat="48.62746" lon="2.00946">
        <ele>129</ele>
        <time>2010-03-19T12:02:40Z</time>
      </trkpt>
      <trkpt lat="48.62745" lon="2.00955">
        <ele>130</ele>
        <time>2010-03-19T12:02:41Z</time>
      </trkpt>
      <trkpt lat="48.62743" lon="2.00964">
        <ele>131</ele>
        <time>2010-03-19T12:02:42Z</time>
      </trkpt>
      <trkpt lat="48.62741" lon="2.00974">
        <ele>131</ele>
        <time>2010-03-19T12:02:43Z</time>
      </trkpt>
      <trkpt lat="48.62738" lon="2.00981">
        <ele>132</ele>
        <time>2010-03-19T12:02:44Z</time>
      </trkpt>
      <trkpt lat="48.62733" lon="2.00989">
        <ele>133</ele>
        <time>2010-03-19T12:02:45Z</time>
      </trkpt>
      <trkpt lat="48.62729" lon="2.00993">
        <ele>134</ele>
        <time>2010-03-19T12:02:46Z</time>
      </trkpt>
      <trkpt lat="48.62722" lon="2.00996">
        <ele>134</ele>
        <time>2010-03-19T12:02:47Z</time>
      </trkpt>
      <trkpt lat="48.62716" lon="2.00999">
        <ele>135</ele>
        <time>2010-03-19T12:02:48Z</time>
      </trkpt>
      <trkpt lat="48.62708" lon="2.01002">
        <ele>135</ele>
        <time>2010-03-19T12:02:49Z</time>
      </trkpt>
      <trkpt lat="48.62703" lon="2.01005">
        <ele>135</ele>
        <time>2010-03-19T12:02:50Z</time>
      </trkpt>
      <trkpt lat="48.62696" lon="2.01008">
        <ele>135</ele>
        <time>2010-03-19T12:02:51Z</time>
      </trkpt>
      <trkpt lat="48.62691" lon="2.01014">
        <ele>135</ele>
        <time>2010-03-19T12:02:52Z</time>
      </trkpt>
      <trkpt lat="48.62685" lon="2.01021">
        <ele>135</ele>
        <time>2010-03-19T12:02:53Z</time>
      </trkpt>
      <trkpt lat="48.62681" lon="2.01029">
        <ele>135</ele>
        <time>2010-03-19T12:02:54Z</time>
      </trkpt>
      <trkpt lat="48.62677" lon="2.01036">
        <ele>135</ele>
        <time>2010-03-19T12:02:55Z</time>
      </trkpt>
      <trkpt lat="48.62673" lon="2.01043">
        <ele>135</ele>
        <time>2010-03-19T12:02:56Z</time>
      </trkpt>
      <trkpt lat="48.62669" lon="2.01049">
        <ele>135</ele>
        <time>2010-03-19T12:02:57Z</time>
      </trkpt>
      <trkpt lat="48.62666" lon="2.01056">
        <ele>135</ele>
        <time>2010-03-19T12:02:58Z</time>
      </trkpt>
      <trkpt lat="48.62662" lon="2.01063">
        <ele>134</ele>
        <time>2010-03-19T12:02:59Z</time>
      </trkpt>
      <trkpt lat="48.62658" lon="2.0107">
        <ele>134</ele>
        <time>2010-03-19T12:03:00Z</time>
      </trkpt>
      <trkpt lat="48.62655" lon="2.01078">
        <ele>133</ele>
        <time>2010-03-19T12:03:01Z</time>
      </trkpt>
      <trkpt lat="48.62651" lon="2.01085">
        <ele>133</ele>
        <time>2010-03-19T12:03:02Z</time>
      </trkpt>
      <trkpt lat="48.62648" lon="2.01092">
        <ele>133</ele>
        <time>2010-03-19T12:03:03Z</time>
      </trkpt>
      <trkpt lat="48.62644" lon="2.011">
        <ele>133</ele>
        <time>2010-03-19T12:03:04Z</time>
      </trkpt>
      <trkpt lat="48.6264" lon="2.01109">
        <ele>133</ele>
        <time>2010-03-19T12:03:05Z</time>
      </trkpt>
      <trkpt lat="48.62638" lon="2.01116">
        <ele>133</ele>
        <time>2010-03-19T12:03:06Z</time>
      </trkpt>
      <trkpt lat="48.62635" lon="2.01123">
        <ele>133</ele>
        <time>2010-03-19T12:03:07Z</time>
      </trkpt>
      <trkpt lat="48.62632" lon="2.01131">
        <ele>133</ele>
        <time>2010-03-19T12:03:08Z</time>
      </trkpt>
      <trkpt lat="48.62629" lon="2.01138">
        <ele>133</ele>
        <time>2010-03-19T12:03:09Z</time>
      </trkpt>
      <trkpt lat="48.62626" lon="2.01145">
        <ele>133</ele>
        <time>2010-03-19T12:03:10Z</time>
      </trkpt>
      <trkpt lat="48.62623" lon="2.01151">
        <ele>133</ele>
        <time>2010-03-19T12:03:11Z</time>
      </trkpt>
      <trkpt lat="48.6262" lon="2.01157">
        <ele>133</ele>
        <time>2010-03-19T12:03:12Z</time>
      </trkpt>
      <trkpt lat="48.62617" lon="2.01165">
        <ele>133</ele>
        <time>2010-03-19T12:03:13Z</time>
      </trkpt>
      <trkpt lat="48.62614" lon="2.01173">
        <ele>133</ele>
        <time>2010-03-19T12:03:14Z</time>
      </trkpt>
      <trkpt lat="48.62612" lon="2.01181">
        <ele>133</ele>
        <time>2010-03-19T12:03:15Z</time>
      </trkpt>
      <trkpt lat="48.62608" lon="2.01189">
        <ele>133</ele>
        <time>2010-03-19T12:03:16Z</time>
      </trkpt>
      <trkpt lat="48.62605" lon="2.01196">
        <ele>133</ele>
        <time>2010-03-19T12:03:17Z</time>
      </trkpt>
      <trkpt lat="48.62601" lon="2.01202">
        <ele>133</ele>
        <time>2010-03-19T12:03:18Z</time>
      </trkpt>
      <trkpt lat="48.62598" lon="2.01209">
        <ele>133</ele>
        <time>2010-03-19T12:03:19Z</time>
      </trkpt>
      <trkpt lat="48.62595" lon="2.01217">
        <ele>133</ele>
        <time>2010-03-19T12:03:20Z</time>
      </trkpt>
      <trkpt lat="48.62592" lon="2.01226">
        <ele>133</ele>
        <time>2010-03-19T12:03:21Z</time>
      </trkpt>
      <trkpt lat="48.62589" lon="2.01235">
        <ele>133</ele>
        <time>2010-03-19T12:03:22Z</time>
      </trkpt>
      <trkpt lat="48.62585" lon="2.01243">
        <ele>133</ele>
        <time>2010-03-19T12:03:23Z</time>
      </trkpt>
      <trkpt lat="48.62582" lon="2.01252">
        <ele>133</ele>
        <time>2010-03-19T12:03:24Z</time>
      </trkpt>
      <trkpt lat="48.62579" lon="2.01261">
        <ele>133</ele>
        <time>2010-03-19T12:03:25Z</time>
      </trkpt>
      <trkpt lat="48.62576" lon="2.0127">
        <ele>134</ele>
        <time>2010-03-19T12:03:26Z</time>
      </trkpt>
      <trkpt lat="48.62572" lon="2.01281">
        <ele>134</ele>
        <time>2010-03-19T12:03:27Z</time>
      </trkpt>
      <trkpt lat="48.62568" lon="2.0129">
        <ele>135</ele>
        <time>2010-03-19T12:03:28Z</time>
      </trkpt>
      <trkpt lat="48.62564" lon="2.013">
        <ele>136</ele>
        <time>2010-03-19T12:03:29Z</time>
      </trkpt>
      <trkpt lat="48.62561" lon="2.01309">
        <ele>136</ele>
        <time>2010-03-19T12:03:30Z</time>
      </trkpt>
      <trkpt lat="48.62561" lon="2.01317">
        <ele>136</ele>
        <time>2010-03-19T12:03:31Z</time>
      </trkpt>
      <trkpt lat="48.62561" lon="2.01325">
        <ele>136</ele>
        <time>2010-03-19T12:03:32Z</time>
      </trkpt>
      <trkpt lat="48.62564" lon="2.01334">
        <ele>136</ele>
        <time>2010-03-19T12:03:33Z</time>
      </trkpt>
      <trkpt lat="48.62566" lon="2.01343">
        <ele>137</ele>
        <time>2010-03-19T12:03:34Z</time>
      </trkpt>
      <trkpt lat="48.62568" lon="2.01353">
        <ele>137</ele>
        <time>2010-03-19T12:03:35Z</time>
      </trkpt>
      <trkpt lat="48.62571" lon="2.01362">
        <ele>137</ele>
        <time>2010-03-19T12:03:36Z</time>
      </trkpt>
      <trkpt lat="48.62573" lon="2.01371">
        <ele>138</ele>
        <time>2010-03-19T12:03:37Z</time>
      </trkpt>
      <trkpt lat="48.62575" lon="2.01378">
        <ele>138</ele>
        <time>2010-03-19T12:03:38Z</time>
      </trkpt>
      <trkpt lat="48.62577" lon="2.01386">
        <ele>139</ele>
        <time>2010-03-19T12:03:39Z</time>
      </trkpt>
      <trkpt lat="48.62579" lon="2.01394">
        <ele>139</ele>
        <time>2010-03-19T12:03:40Z</time>
      </trkpt>
      <trkpt lat="48.6258" lon="2.01401">
        <ele>139</ele>
        <time>2010-03-19T12:03:41Z</time>
      </trkpt>
      <trkpt lat="48.62582" lon="2.01409">
        <ele>140</ele>
        <time>2010-03-19T12:03:42Z</time>
      </trkpt>
      <trkpt lat="48.62584" lon="2.01415">
        <ele>140</ele>
        <time>2010-03-19T12:03:43Z</time>
      </trkpt>
      <trkpt lat="48.62586" lon="2.01421">
        <ele>140</ele>
        <time>2010-03-19T12:03:44Z</time>
      </trkpt>
      <trkpt lat="48.62588" lon="2.01427">
        <ele>141</ele>
        <time>2010-03-19T12:03:45Z</time>
      </trkpt>
      <trkpt lat="48.62589" lon="2.01431">
        <ele>142</ele>
        <time>2010-03-19T12:03:46Z</time>
      </trkpt>
      <trkpt lat="48.6259" lon="2.01436">
        <ele>142</ele>
        <time>2010-03-19T12:03:47Z</time>
      </trkpt>
      <trkpt lat="48.62591" lon="2.0144">
        <ele>143</ele>
        <time>2010-03-19T12:03:48Z</time>
      </trkpt>
      <trkpt lat="48.62592" lon="2.01443">
        <ele>143</ele>
        <time>2010-03-19T12:03:49Z</time>
      </trkpt>
      <trkpt lat="48.62592" lon="2.01446">
        <ele>143</ele>
        <time>2010-03-19T12:03:50Z</time>
      </trkpt>
      <trkpt lat="48.62593" lon="2.01449">
        <ele>143</ele>
        <time>2010-03-19T12:03:51Z</time>
      </trkpt>
      <trkpt lat="48.62593" lon="2.01452">
        <ele>143</ele>
        <time>2010-03-19T12:03:52Z</time>
      </trkpt>
      <trkpt lat="48.62595" lon="2.01454">
        <ele>143</ele>
        <time>2010-03-19T12:03:53Z</time>
      </trkpt>
      <trkpt lat="48.62597" lon="2.01456">
        <ele>143</ele>
        <time>2010-03-19T12:03:54Z</time>
      </trkpt>
      <trkpt lat="48.62597" lon="2.01458">
        <ele>143</ele>
        <time>2010-03-19T12:03:55Z</time>
      </trkpt>
      <trkpt lat="48.62598" lon="2.01461">
        <ele>143</ele>
        <time>2010-03-19T12:03:56Z</time>
      </trkpt>
      <trkpt lat="48.62599" lon="2.01463">
        <ele>143</ele>
        <time>2010-03-19T12:03:57Z</time>
      </trkpt>
      <trkpt lat="48.626" lon="2.01465">
        <ele>143</ele>
        <time>2010-03-19T12:03:58Z</time>
      </trkpt>
      <trkpt lat="48.626" lon="2.01468">
        <ele>143</ele>
        <time>2010-03-19T12:03:59Z</time>
      </trkpt>
      <trkpt lat="48.62601" lon="2.0147">
        <ele>143</ele>
        <time>2010-03-19T12:04:00Z</time>
      </trkpt>
      <trkpt lat="48.62601" lon="2.01473">
        <ele>143</ele>
        <time>2010-03-19T12:04:01Z</time>
      </trkpt>
      <trkpt lat="48.62603" lon="2.01476">
        <ele>143</ele>
        <time>2010-03-19T12:04:02Z</time>
      </trkpt>
      <trkpt lat="48.62604" lon="2.0148">
        <ele>143</ele>
        <time>2010-03-19T12:04:03Z</time>
      </trkpt>
      <trkpt lat="48.62605" lon="2.01483">
        <ele>143</ele>
        <time>2010-03-19T12:04:04Z</time>
      </trkpt>
      <trkpt lat="48.62606" lon="2.01487">
        <ele>143</ele>
        <time>2010-03-19T12:04:05Z</time>
      </trkpt>
      <trkpt lat="48.62607" lon="2.01491">
        <ele>143</ele>
        <time>2010-03-19T12:04:06Z</time>
      </trkpt>
      <trkpt lat="48.62609" lon="2.01496">
        <ele>143</ele>
        <time>2010-03-19T12:04:07Z</time>
      </trkpt>
      <trkpt lat="48.62611" lon="2.01501">
        <ele>143</ele>
        <time>2010-03-19T12:04:08Z</time>
      </trkpt>
      <trkpt lat="48.62612" lon="2.01506">
        <ele>143</ele>
        <time>2010-03-19T12:04:09Z</time>
      </trkpt>
      <trkpt lat="48.62614" lon="2.01511">
        <ele>143</ele>
        <time>2010-03-19T12:04:10Z</time>
      </trkpt>
      <trkpt lat="48.62615" lon="2.01517">
        <ele>143</ele>
        <time>2010-03-19T12:04:11Z</time>
      </trkpt>
      <trkpt lat="48.62617" lon="2.01522">
        <ele>143</ele>
        <time>2010-03-19T12:04:12Z</time>
      </trkpt>
      <trkpt lat="48.62618" lon="2.01528">
        <ele>143</ele>
        <time>2010-03-19T12:04:13Z</time>
      </trkpt>
      <trkpt lat="48.6262" lon="2.01534">
        <ele>143</ele>
        <time>2010-03-19T12:04:14Z</time>
      </trkpt>
      <trkpt lat="48.6262" lon="2.01539">
        <ele>143</ele>
        <time>2010-03-19T12:04:15Z</time>
      </trkpt>
      <trkpt lat="48.62621" lon="2.01546">
        <ele>143</ele>
        <time>2010-03-19T12:04:16Z</time>
      </trkpt>
      <trkpt lat="48.62621" lon="2.01553">
        <ele>143</ele>
        <time>2010-03-19T12:04:17Z</time>
      </trkpt>
      <trkpt lat="48.62622" lon="2.0156">
        <ele>143</ele>
        <time>2010-03-19T12:04:18Z</time>
      </trkpt>
      <trkpt lat="48.62624" lon="2.01567">
        <ele>143</ele>
        <time>2010-03-19T12:04:19Z</time>
      </trkpt>
      <trkpt lat="48.62625" lon="2.01574">
        <ele>143</ele>
        <time>2010-03-19T12:04:20Z</time>
      </trkpt>
      <trkpt lat="48.62626" lon="2.0158">
        <ele>143</ele>
        <time>2010-03-19T12:04:21Z</time>
      </trkpt>
      <trkpt lat="48.62627" lon="2.01586">
        <ele>143</ele>
        <time>2010-03-19T12:04:22Z</time>
      </trkpt>
      <trkpt lat="48.62629" lon="2.01591">
        <ele>143</ele>
        <time>2010-03-19T12:04:23Z</time>
      </trkpt>
      <trkpt lat="48.62631" lon="2.01595">
        <ele>143</ele>
        <time>2010-03-19T12:04:24Z</time>
      </trkpt>
      <trkpt lat="48.62633" lon="2.01599">
        <ele>143</ele>
        <time>2010-03-19T12:04:25Z</time>
      </trkpt>
      <trkpt lat="48.62634" lon="2.01604">
        <ele>143</ele>
        <time>2010-03-19T12:04:26Z</time>
      </trkpt>
      <trkpt lat="48.62636" lon="2.01609">
        <ele>143</ele>
        <time>2010-03-19T12:04:27Z</time>
      </trkpt>
      <trkpt lat="48.62638" lon="2.01615">
        <ele>143</ele>
        <time>2010-03-19T12:04:28Z</time>
      </trkpt>
      <trkpt lat="48.6264" lon="2.0162">
        <ele>143</ele>
        <time>2010-03-19T12:04:29Z</time>
      </trkpt>
      <trkpt lat="48.6264" lon="2.01626">
        <ele>143</ele>
        <time>2010-03-19T12:04:30Z</time>
      </trkpt>
      <trkpt lat="48.62641" lon="2.01631">
        <ele>143</ele>
        <time>2010-03-19T12:04:31Z</time>
      </trkpt>
      <trkpt lat="48.62642" lon="2.01636">
        <ele>143</ele>
        <time>2010-03-19T12:04:32Z</time>
      </trkpt>
      <trkpt lat="48.62643" lon="2.0164">
        <ele>143</ele>
        <time>2010-03-19T12:04:33Z</time>
      </trkpt>
      <trkpt lat="48.62645" lon="2.01644">
        <ele>143</ele>
        <time>2010-03-19T12:04:34Z</time>
      </trkpt>
      <trkpt lat="48.62645" lon="2.01648">
        <ele>143</ele>
        <time>2010-03-19T12:04:35Z</time>
      </trkpt>
      <trkpt lat="48.62646" lon="2.01653">
        <ele>143</ele>
        <time>2010-03-19T12:04:36Z</time>
      </trkpt>
      <trkpt lat="48.62648" lon="2.01659">
        <ele>143</ele>
        <time>2010-03-19T12:04:37Z</time>
      </trkpt>
      <trkpt lat="48.6265" lon="2.01665">
        <ele>143</ele>
        <time>2010-03-19T12:04:38Z</time>
      </trkpt>
      <trkpt lat="48.62652" lon="2.01671">
        <ele>143</ele>
        <time>2010-03-19T12:04:39Z</time>
      </trkpt>
      <trkpt lat="48.62655" lon="2.01676">
        <ele>143</ele>
        <time>2010-03-19T12:04:40Z</time>
      </trkpt>
      <trkpt lat="48.62656" lon="2.0168">
        <ele>143</ele>
        <time>2010-03-19T12:04:41Z</time>
      </trkpt>
      <trkpt lat="48.62657" lon="2.01685">
        <ele>143</ele>
        <time>2010-03-19T12:04:42Z</time>
      </trkpt>
      <trkpt lat="48.62658" lon="2.01689">
        <ele>143</ele>
        <time>2010-03-19T12:04:43Z</time>
      </trkpt>
      <trkpt lat="48.62659" lon="2.01693">
        <ele>143</ele>
        <time>2010-03-19T12:04:44Z</time>
      </trkpt>
      <trkpt lat="48.62661" lon="2.01698">
        <ele>143</ele>
        <time>2010-03-19T12:04:45Z</time>
      </trkpt>
      <trkpt lat="48.62663" lon="2.01704">
        <ele>143</ele>
        <time>2010-03-19T12:04:46Z</time>
      </trkpt>
      <trkpt lat="48.62664" lon="2.0171">
        <ele>143</ele>
        <time>2010-03-19T12:04:47Z</time>
      </trkpt>
      <trkpt lat="48.62666" lon="2.01716">
        <ele>144</ele>
        <time>2010-03-19T12:04:48Z</time>
      </trkpt>
      <trkpt lat="48.62667" lon="2.01722">
        <ele>145</ele>
        <time>2010-03-19T12:04:49Z</time>
      </trkpt>
      <trkpt lat="48.62668" lon="2.01728">
        <ele>146</ele>
        <time>2010-03-19T12:04:50Z</time>
      </trkpt>
      <trkpt lat="48.62671" lon="2.01734">
        <ele>147</ele>
        <time>2010-03-19T12:04:51Z</time>
      </trkpt>
      <trkpt lat="48.62672" lon="2.0174">
        <ele>148</ele>
        <time>2010-03-19T12:04:52Z</time>
      </trkpt>
      <trkpt lat="48.62674" lon="2.01745">
        <ele>149</ele>
        <time>2010-03-19T12:04:53Z</time>
      </trkpt>
      <trkpt lat="48.62676" lon="2.01749">
        <ele>149</ele>
        <time>2010-03-19T12:04:54Z</time>
      </trkpt>
      <trkpt lat="48.62679" lon="2.01753">
        <ele>150</ele>
        <time>2010-03-19T12:04:55Z</time>
      </trkpt>
      <trkpt lat="48.62682" lon="2.01756">
        <ele>151</ele>
        <time>2010-03-19T12:04:56Z</time>
      </trkpt>
      <trkpt lat="48.62687" lon="2.01759">
        <ele>151</ele>
        <time>2010-03-19T12:04:57Z</time>
      </trkpt>
      <trkpt lat="48.62689" lon="2.01762">
        <ele>152</ele>
        <time>2010-03-19T12:04:58Z</time>
      </trkpt>
      <trkpt lat="48.62693" lon="2.01766">
        <ele>152</ele>
        <time>2010-03-19T12:04:59Z</time>
      </trkpt>
      <trkpt lat="48.62697" lon="2.01769">
        <ele>153</ele>
        <time>2010-03-19T12:05:00Z</time>
      </trkpt>
      <trkpt lat="48.62701" lon="2.01774">
        <ele>153</ele>
        <time>2010-03-19T12:05:01Z</time>
      </trkpt>
      <trkpt lat="48.62706" lon="2.01777">
        <ele>154</ele>
        <time>2010-03-19T12:05:02Z</time>
      </trkpt>
      <trkpt lat="48.62711" lon="2.01781">
        <ele>155</ele>
        <time>2010-03-19T12:05:03Z</time>
      </trkpt>
      <trkpt lat="48.62716" lon="2.01784">
        <ele>155</ele>
        <time>2010-03-19T12:05:04Z</time>
      </trkpt>
      <trkpt lat="48.6272" lon="2.01787">
        <ele>156</ele>
        <time>2010-03-19T12:05:05Z</time>
      </trkpt>
      <trkpt lat="48.62724" lon="2.0179">
        <ele>157</ele>
        <time>2010-03-19T12:05:06Z</time>
      </trkpt>
      <trkpt lat="48.62728" lon="2.01793">
        <ele>158</ele>
        <time>2010-03-19T12:05:07Z</time>
      </trkpt>
      <trkpt lat="48.62731" lon="2.01796">
        <ele>159</ele>
        <time>2010-03-19T12:05:08Z</time>
      </trkpt>
      <trkpt lat="48.62735" lon="2.018">
        <ele>160</ele>
        <time>2010-03-19T12:05:09Z</time>
      </trkpt>
      <trkpt lat="48.62739" lon="2.01802">
        <ele>161</ele>
        <time>2010-03-19T12:05:10Z</time>
      </trkpt>
      <trkpt lat="48.62741" lon="2.01805">
        <ele>162</ele>
        <time>2010-03-19T12:05:11Z</time>
      </trkpt>
      <trkpt lat="48.62743" lon="2.01808">
        <ele>163</ele>
        <time>2010-03-19T12:05:12Z</time>
      </trkpt>
      <trkpt lat="48.62744" lon="2.01811">
        <ele>164</ele>
        <time>2010-03-19T12:05:13Z</time>
      </trkpt>
      <trkpt lat="48.62746" lon="2.01814">
        <ele>165</ele>
        <time>2010-03-19T12:05:14Z</time>
      </trkpt>
      <trkpt lat="48.62749" lon="2.01817">
        <ele>166</ele>
        <time>2010-03-19T12:05:15Z</time>
      </trkpt>
      <trkpt lat="48.62752" lon="2.0182">
        <ele>167</ele>
        <time>2010-03-19T12:05:16Z</time>
      </trkpt>
      <trkpt lat="48.62756" lon="2.01824">
        <ele>168</ele>
        <time>2010-03-19T12:05:17Z</time>
      </trkpt>
      <trkpt lat="48.62757" lon="2.01828">
        <ele>169</ele>
        <time>2010-03-19T12:05:18Z</time>
      </trkpt>
      <trkpt lat="48.6276" lon="2.01833">
        <ele>170</ele>
        <time>2010-03-19T12:05:19Z</time>
      </trkpt>
      <trkpt lat="48.62763" lon="2.01838">
        <ele>171</ele>
        <time>2010-03-19T12:05:20Z</time>
      </trkpt>
      <trkpt lat="48.62765" lon="2.01842">
        <ele>172</ele>
        <time>2010-03-19T12:05:21Z</time>
      </trkpt>
      <trkpt lat="48.62767" lon="2.01848">
        <ele>172</ele>
        <time>2010-03-19T12:05:22Z</time>
      </trkpt>
      <trkpt lat="48.6277" lon="2.01852">
        <ele>172</ele>
        <time>2010-03-19T12:05:23Z</time>
      </trkpt>
      <trkpt lat="48.62772" lon="2.01856">
        <ele>172</ele>
        <time>2010-03-19T12:05:24Z</time>
      </trkpt>
      <trkpt lat="48.62775" lon="2.0186">
        <ele>172</ele>
        <time>2010-03-19T12:05:25Z</time>
      </trkpt>
      <trkpt lat="48.62777" lon="2.01864">
        <ele>172</ele>
        <time>2010-03-19T12:05:26Z</time>
      </trkpt>
      <trkpt lat="48.62779" lon="2.01867">
        <ele>172</ele>
        <time>2010-03-19T12:05:27Z</time>
      </trkpt>
      <trkpt lat="48.62781" lon="2.01871">
        <ele>172</ele>
        <time>2010-03-19T12:05:28Z</time>
      </trkpt>
      <trkpt lat="48.62783" lon="2.01875">
        <ele>172</ele>
        <time>2010-03-19T12:05:29Z</time>
      </trkpt>
      <trkpt lat="48.62787" lon="2.0188">
        <ele>172</ele>
        <time>2010-03-19T12:05:30Z</time>
      </trkpt>
      <trkpt lat="48.62791" lon="2.01884">
        <ele>172</ele>
        <time>2010-03-19T12:05:31Z</time>
      </trkpt>
      <trkpt lat="48.62795" lon="2.01888">
        <ele>172</ele>
        <time>2010-03-19T12:05:32Z</time>
      </trkpt>
      <trkpt lat="48.62798" lon="2.01893">
        <ele>172</ele>
        <time>2010-03-19T12:05:33Z</time>
      </trkpt>
      <trkpt lat="48.62801" lon="2.01897">
        <ele>172</ele>
        <time>2010-03-19T12:05:34Z</time>
      </trkpt>
      <trkpt lat="48.62804" lon="2.019">
        <ele>172</ele>
        <time>2010-03-19T12:05:35Z</time>
      </trkpt>
      <trkpt lat="48.62806" lon="2.01902">
        <ele>172</ele>
        <time>2010-03-19T12:05:36Z</time>
      </trkpt>
      <trkpt lat="48.62811" lon="2.01905">
        <ele>172</ele>
        <time>2010-03-19T12:05:37Z</time>
      </trkpt>
      <trkpt lat="48.62813" lon="2.01908">
        <ele>172</ele>
        <time>2010-03-19T12:05:38Z</time>
      </trkpt>
      <trkpt lat="48.62815" lon="2.01911">
        <ele>172</ele>
        <time>2010-03-19T12:05:39Z</time>
      </trkpt>
      <trkpt lat="48.62816" lon="2.01914">
        <ele>172</ele>
        <time>2010-03-19T12:05:40Z</time>
      </trkpt>
      <trkpt lat="48.62819" lon="2.01917">
        <ele>172</ele>
        <time>2010-03-19T12:05:41Z</time>
      </trkpt>
      <trkpt lat="48.6282" lon="2.0192">
        <ele>172</ele>
        <time>2010-03-19T12:05:42Z</time>
      </trkpt>
      <trkpt lat="48.62822" lon="2.01922">
        <ele>172</ele>
        <time>2010-03-19T12:05:43Z</time>
      </trkpt>
      <trkpt lat="48.62825" lon="2.01925">
        <ele>171</ele>
        <time>2010-03-19T12:05:44Z</time>
      </trkpt>
      <trkpt lat="48.62828" lon="2.01928">
        <ele>171</ele>
        <time>2010-03-19T12:05:45Z</time>
      </trkpt>
      <trkpt lat="48.6283" lon="2.01929">
        <ele>170</ele>
        <time>2010-03-19T12:05:46Z</time>
      </trkpt>
      <trkpt lat="48.62833" lon="2.01932">
        <ele>170</ele>
        <time>2010-03-19T12:05:47Z</time>
      </trkpt>
      <trkpt lat="48.62836" lon="2.01935">
        <ele>170</ele>
        <time>2010-03-19T12:05:48Z</time>
      </trkpt>
      <trkpt lat="48.62839" lon="2.01938">
        <ele>170</ele>
        <time>2010-03-19T12:05:49Z</time>
      </trkpt>
      <trkpt lat="48.62841" lon="2.0194">
        <ele>170</ele>
        <time>2010-03-19T12:05:50Z</time>
      </trkpt>
      <trkpt lat="48.62843" lon="2.01942">
        <ele>170</ele>
        <time>2010-03-19T12:05:51Z</time>
      </trkpt>
      <trkpt lat="48.62843" lon="2.01945">
        <ele>170</ele>
        <time>2010-03-19T12:05:52Z</time>
      </trkpt>
      <trkpt lat="48.62844" lon="2.01947">
        <ele>170</ele>
        <time>2010-03-19T12:05:53Z</time>
      </trkpt>
      <trkpt lat="48.62846" lon="2.0195">
        <ele>170</ele>
        <time>2010-03-19T12:05:54Z</time>
      </trkpt>
      <trkpt lat="48.62848" lon="2.01952">
        <ele>170</ele>
        <time>2010-03-19T12:05:55Z</time>
      </trkpt>
      <trkpt lat="48.62849" lon="2.01954">
        <ele>170</ele>
        <time>2010-03-19T12:05:56Z</time>
      </trkpt>
      <trkpt lat="48.62851" lon="2.01956">
        <ele>170</ele>
        <time>2010-03-19T12:05:57Z</time>
      </trkpt>
      <trkpt lat="48.62852" lon="2.01958">
        <ele>170</ele>
        <time>2010-03-19T12:05:58Z</time>
      </trkpt>
      <trkpt lat="48.62853" lon="2.01959">
        <ele>170</ele>
        <time>2010-03-19T12:05:59Z</time>
      </trkpt>
      <trkpt lat="48.62855" lon="2.0196">
        <ele>170</ele>
        <time>2010-03-19T12:06:00Z</time>
      </trkpt>
      <trkpt lat="48.62856" lon="2.01961">
        <ele>170</ele>
        <time>2010-03-19T12:06:01Z</time>
      </trkpt>
      <trkpt lat="48.62857" lon="2.01962">
        <ele>170</ele>
        <time>2010-03-19T12:06:02Z</time>
      </trkpt>
      <trkpt lat="48.62859" lon="2.01963">
        <ele>169</ele>
        <time>2010-03-19T12:06:03Z</time>
      </trkpt>
      <trkpt lat="48.62861" lon="2.01964">
        <ele>169</ele>
        <time>2010-03-19T12:06:04Z</time>
      </trkpt>
      <trkpt lat="48.62862" lon="2.01965">
        <ele>169</ele>
        <time>2010-03-19T12:06:05Z</time>
      </trkpt>
      <trkpt lat="48.62864" lon="2.01969">
        <ele>168</ele>
        <time>2010-03-19T12:06:07Z</time>
      </trkpt>
      <trkpt lat="48.62865" lon="2.01972">
        <ele>168</ele>
        <time>2010-03-19T12:06:09Z</time>
      </trkpt>
      <trkpt lat="48.62868" lon="2.01974">
        <ele>168</ele>
        <time>2010-03-19T12:06:10Z</time>
      </trkpt>
      <trkpt lat="48.62869" lon="2.01976">
        <ele>168</ele>
        <time>2010-03-19T12:06:11Z</time>
      </trkpt>
      <trkpt lat="48.62871" lon="2.01978">
        <ele>168</ele>
        <time>2010-03-19T12:06:12Z</time>
      </trkpt>
      <trkpt lat="48.62872" lon="2.0198">
        <ele>168</ele>
        <time>2010-03-19T12:06:13Z</time>
      </trkpt>
      <trkpt lat="48.62873" lon="2.01981">
        <ele>168</ele>
        <time>2010-03-19T12:06:14Z</time>
      </trkpt>
      <trkpt lat="48.62875" lon="2.01983">
        <ele>167</ele>
        <time>2010-03-19T12:06:15Z</time>
      </trkpt>
      <trkpt lat="48.62877" lon="2.01985">
        <ele>167</ele>
        <time>2010-03-19T12:06:16Z</time>
      </trkpt>
      <trkpt lat="48.62878" lon="2.01987">
        <ele>167</ele>
        <time>2010-03-19T12:06:17Z</time>
      </trkpt>
      <trkpt lat="48.6288" lon="2.01988">
        <ele>166</ele>
        <time>2010-03-19T12:06:18Z</time>
      </trkpt>
      <trkpt lat="48.62881" lon="2.0199">
        <ele>166</ele>
        <time>2010-03-19T12:06:19Z</time>
      </trkpt>
      <trkpt lat="48.62884" lon="2.01992">
        <ele>166</ele>
        <time>2010-03-19T12:06:20Z</time>
      </trkpt>
      <trkpt lat="48.62885" lon="2.01993">
        <ele>166</ele>
        <time>2010-03-19T12:06:21Z</time>
      </trkpt>
      <trkpt lat="48.62887" lon="2.01994">
        <ele>166</ele>
        <time>2010-03-19T12:06:22Z</time>
      </trkpt>
      <trkpt lat="48.62889" lon="2.01997">
        <ele>166</ele>
        <time>2010-03-19T12:06:24Z</time>
      </trkpt>
      <trkpt lat="48.62891" lon="2.01999">
        <ele>165</ele>
        <time>2010-03-19T12:06:25Z</time>
      </trkpt>
      <trkpt lat="48.62893" lon="2.02">
        <ele>165</ele>
        <time>2010-03-19T12:06:26Z</time>
      </trkpt>
      <trkpt lat="48.62894" lon="2.02002">
        <ele>165</ele>
        <time>2010-03-19T12:06:27Z</time>
      </trkpt>
      <trkpt lat="48.62896" lon="2.02003">
        <ele>165</ele>
        <time>2010-03-19T12:06:28Z</time>
      </trkpt>
      <trkpt lat="48.62897" lon="2.02005">
        <ele>164</ele>
        <time>2010-03-19T12:06:29Z</time>
      </trkpt>
      <trkpt lat="48.62898" lon="2.02006">
        <ele>164</ele>
        <time>2010-03-19T12:06:30Z</time>
      </trkpt>
      <trkpt lat="48.629" lon="2.02008">
        <ele>164</ele>
        <time>2010-03-19T12:06:31Z</time>
      </trkpt>
      <trkpt lat="48.62901" lon="2.02009">
        <ele>164</ele>
        <time>2010-03-19T12:06:32Z</time>
      </trkpt>
      <trkpt lat="48.62903" lon="2.0201">
        <ele>163</ele>
        <time>2010-03-19T12:06:33Z</time>
      </trkpt>
      <trkpt lat="48.62904" lon="2.02012">
        <ele>163</ele>
        <time>2010-03-19T12:06:34Z</time>
      </trkpt>
      <trkpt lat="48.62906" lon="2.02013">
        <ele>163</ele>
        <time>2010-03-19T12:06:35Z</time>
      </trkpt>
      <trkpt lat="48.62907" lon="2.02015">
        <ele>162</ele>
        <time>2010-03-19T12:06:36Z</time>
      </trkpt>
      <trkpt lat="48.62909" lon="2.02016">
        <ele>162</ele>
        <time>2010-03-19T12:06:37Z</time>
      </trkpt>
      <trkpt lat="48.6291" lon="2.02018">
        <ele>162</ele>
        <time>2010-03-19T12:06:38Z</time>
      </trkpt>
      <trkpt lat="48.62912" lon="2.0202">
        <ele>162</ele>
        <time>2010-03-19T12:06:39Z</time>
      </trkpt>
      <trkpt lat="48.62914" lon="2.02021">
        <ele>162</ele>
        <time>2010-03-19T12:06:40Z</time>
      </trkpt>
      <trkpt lat="48.62916" lon="2.02022">
        <ele>162</ele>
        <time>2010-03-19T12:06:41Z</time>
      </trkpt>
      <trkpt lat="48.62918" lon="2.02024">
        <ele>162</ele>
        <time>2010-03-19T12:06:42Z</time>
      </trkpt>
      <trkpt lat="48.62919" lon="2.02025">
        <ele>162</ele>
        <time>2010-03-19T12:06:43Z</time>
      </trkpt>
      <trkpt lat="48.62921" lon="2.02026">
        <ele>162</ele>
        <time>2010-03-19T12:06:44Z</time>
      </trkpt>
      <trkpt lat="48.62923" lon="2.02027">
        <ele>162</ele>
        <time>2010-03-19T12:06:45Z</time>
      </trkpt>
      <trkpt lat="48.62924" lon="2.02028">
        <ele>162</ele>
        <time>2010-03-19T12:06:46Z</time>
      </trkpt>
      <trkpt lat="48.62926" lon="2.02029">
        <ele>162</ele>
        <time>2010-03-19T12:06:47Z</time>
      </trkpt>
      <trkpt lat="48.62927" lon="2.0203">
        <ele>162</ele>
        <time>2010-03-19T12:06:48Z</time>
      </trkpt>
      <trkpt lat="48.62929" lon="2.02032">
        <ele>162</ele>
        <time>2010-03-19T12:06:49Z</time>
      </trkpt>
      <trkpt lat="48.6293" lon="2.02033">
        <ele>162</ele>
        <time>2010-03-19T12:06:50Z</time>
      </trkpt>
      <trkpt lat="48.62931" lon="2.02034">
        <ele>162</ele>
        <time>2010-03-19T12:06:51Z</time>
      </trkpt>
      <trkpt lat="48.62933" lon="2.02036">
        <ele>162</ele>
        <time>2010-03-19T12:06:54Z</time>
      </trkpt>
      <trkpt lat="48.62934" lon="2.02039">
        <ele>162</ele>
        <time>2010-03-19T12:06:56Z</time>
      </trkpt>
      <trkpt lat="48.62936" lon="2.0204">
        <ele>162</ele>
        <time>2010-03-19T12:06:57Z</time>
      </trkpt>
      <trkpt lat="48.62937" lon="2.02041">
        <ele>162</ele>
        <time>2010-03-19T12:06:58Z</time>
      </trkpt>
      <trkpt lat="48.62938" lon="2.02042">
        <ele>162</ele>
        <time>2010-03-19T12:06:59Z</time>
      </trkpt>
      <trkpt lat="48.6294" lon="2.02042">
        <ele>162</ele>
        <time>2010-03-19T12:07:00Z</time>
      </trkpt>
      <trkpt lat="48.62942" lon="2.02042">
        <ele>162</ele>
        <time>2010-03-19T12:07:01Z</time>
      </trkpt>
      <trkpt lat="48.62943" lon="2.02042">
        <ele>162</ele>
        <time>2010-03-19T12:07:02Z</time>
      </trkpt>
      <trkpt lat="48.62945" lon="2.02041">
        <ele>162</ele>
        <time>2010-03-19T12:07:03Z</time>
      </trkpt>
      <trkpt lat="48.62946" lon="2.0204">
        <ele>162</ele>
        <time>2010-03-19T12:07:04Z</time>
      </trkpt>
      <trkpt lat="48.62948" lon="2.0204">
        <ele>162</ele>
        <time>2010-03-19T12:07:05Z</time>
      </trkpt>
      <trkpt lat="48.6295" lon="2.0204">
        <ele>162</ele>
        <time>2010-03-19T12:07:06Z</time>
      </trkpt>
      <trkpt lat="48.62951" lon="2.0204">
        <ele>162</ele>
        <time>2010-03-19T12:07:07Z</time>
      </trkpt>
      <trkpt lat="48.62953" lon="2.0204">
        <ele>162</ele>
        <time>2010-03-19T12:07:08Z</time>
      </trkpt>
      <trkpt lat="48.62954" lon="2.02041">
        <ele>162</ele>
        <time>2010-03-19T12:07:09Z</time>
      </trkpt>
      <trkpt lat="48.62956" lon="2.02042">
        <ele>162</ele>
        <time>2010-03-19T12:07:10Z</time>
      </trkpt>
      <trkpt lat="48.62957" lon="2.02044">
        <ele>162</ele>
        <time>2010-03-19T12:07:11Z</time>
      </trkpt>
      <trkpt lat="48.62959" lon="2.02045">
        <ele>162</ele>
        <time>2010-03-19T12:07:12Z</time>
      </trkpt>
      <trkpt lat="48.6296" lon="2.02046">
        <ele>162</ele>
        <time>2010-03-19T12:07:13Z</time>
      </trkpt>
      <trkpt lat="48.62962" lon="2.02047">
        <ele>162</ele>
        <time>2010-03-19T12:07:14Z</time>
      </trkpt>
      <trkpt lat="48.62963" lon="2.02048">
        <ele>162</ele>
        <time>2010-03-19T12:07:15Z</time>
      </trkpt>
      <trkpt lat="48.62964" lon="2.0205">
        <ele>162</ele>
        <time>2010-03-19T12:07:16Z</time>
      </trkpt>
      <trkpt lat="48.62966" lon="2.02051">
        <ele>162</ele>
        <time>2010-03-19T12:07:17Z</time>
      </trkpt>
      <trkpt lat="48.62967" lon="2.02052">
        <ele>162</ele>
        <time>2010-03-19T12:07:18Z</time>
      </trkpt>
      <trkpt lat="48.62969" lon="2.02054">
        <ele>162</ele>
        <time>2010-03-19T12:07:19Z</time>
      </trkpt>
      <trkpt lat="48.6297" lon="2.02055">
        <ele>162</ele>
        <time>2010-03-19T12:07:20Z</time>
      </trkpt>
      <trkpt lat="48.62971" lon="2.02056">
        <ele>162</ele>
        <time>2010-03-19T12:07:21Z</time>
      </trkpt>
      <trkpt lat="48.62973" lon="2.02058">
        <ele>162</ele>
        <time>2010-03-19T12:07:22Z</time>
      </trkpt>
      <trkpt lat="48.62975" lon="2.02059">
        <ele>162</ele>
        <time>2010-03-19T12:07:23Z</time>
      </trkpt>
      <trkpt lat="48.62976" lon="2.0206">
        <ele>162</ele>
        <time>2010-03-19T12:07:24Z</time>
      </trkpt>
      <trkpt lat="48.62977" lon="2.02062">
        <ele>162</ele>
        <time>2010-03-19T12:07:25Z</time>
      </trkpt>
      <trkpt lat="48.62978" lon="2.02063">
        <ele>162</ele>
        <time>2010-03-19T12:07:26Z</time>
      </trkpt>
      <trkpt lat="48.6298" lon="2.02065">
        <ele>162</ele>
        <time>2010-03-19T12:07:27Z</time>
      </trkpt>
      <trkpt lat="48.62981" lon="2.02066">
        <ele>162</ele>
        <time>2010-03-19T12:07:28Z</time>
      </trkpt>
      <trkpt lat="48.62983" lon="2.02068">
        <ele>162</ele>
        <time>2010-03-19T12:07:29Z</time>
      </trkpt>
      <trkpt lat="48.62984" lon="2.0207">
        <ele>162</ele>
        <time>2010-03-19T12:07:30Z</time>
      </trkpt>
      <trkpt lat="48.62985" lon="2.02072">
        <ele>162</ele>
        <time>2010-03-19T12:07:31Z</time>
      </trkpt>
      <trkpt lat="48.62986" lon="2.02074">
        <ele>162</ele>
        <time>2010-03-19T12:07:32Z</time>
      </trkpt>
      <trkpt lat="48.62988" lon="2.02076">
        <ele>162</ele>
        <time>2010-03-19T12:07:33Z</time>
      </trkpt>
      <trkpt lat="48.62989" lon="2.02078">
        <ele>162</ele>
        <time>2010-03-19T12:07:34Z</time>
      </trkpt>
      <trkpt lat="48.62989" lon="2.0208">
        <ele>162</ele>
        <time>2010-03-19T12:07:35Z</time>
      </trkpt>
      <trkpt lat="48.62991" lon="2.02082">
        <ele>162</ele>
        <time>2010-03-19T12:07:36Z</time>
      </trkpt>
      <trkpt lat="48.62992" lon="2.02085">
        <ele>162</ele>
        <time>2010-03-19T12:07:37Z</time>
      </trkpt>
      <trkpt lat="48.62992" lon="2.02087">
        <ele>162</ele>
        <time>2010-03-19T12:07:38Z</time>
      </trkpt>
      <trkpt lat="48.62992" lon="2.0209">
        <ele>162</ele>
        <time>2010-03-19T12:07:39Z</time>
      </trkpt>
      <trkpt lat="48.62993" lon="2.02092">
        <ele>162</ele>
        <time>2010-03-19T12:07:40Z</time>
      </trkpt>
      <trkpt lat="48.62994" lon="2.02095">
        <ele>162</ele>
        <time>2010-03-19T12:07:41Z</time>
      </trkpt>
      <trkpt lat="48.62994" lon="2.02097">
        <ele>162</ele>
        <time>2010-03-19T12:07:42Z</time>
      </trkpt>
      <trkpt lat="48.62995" lon="2.021">
        <ele>162</ele>
        <time>2010-03-19T12:07:43Z</time>
      </trkpt>
      <trkpt lat="48.62996" lon="2.02102">
        <ele>162</ele>
        <time>2010-03-19T12:07:44Z</time>
      </trkpt>
      <trkpt lat="48.62997" lon="2.02105">
        <ele>162</ele>
        <time>2010-03-19T12:07:45Z</time>
      </trkpt>
      <trkpt lat="48.62997" lon="2.02107">
        <ele>162</ele>
        <time>2010-03-19T12:07:46Z</time>
      </trkpt>
      <trkpt lat="48.62999" lon="2.02109">
        <ele>162</ele>
        <time>2010-03-19T12:07:47Z</time>
      </trkpt>
      <trkpt lat="48.63" lon="2.02111">
        <ele>162</ele>
        <time>2010-03-19T12:07:48Z</time>
      </trkpt>
      <trkpt lat="48.63001" lon="2.02113">
        <ele>162</ele>
        <time>2010-03-19T12:07:49Z</time>
      </trkpt>
      <trkpt lat="48.63002" lon="2.02116">
        <ele>162</ele>
        <time>2010-03-19T12:07:50Z</time>
      </trkpt>
      <trkpt lat="48.63003" lon="2.02118">
        <ele>162</ele>
        <time>2010-03-19T12:07:51Z</time>
      </trkpt>
      <trkpt lat="48.63004" lon="2.02121">
        <ele>162</ele>
        <time>2010-03-19T12:07:52Z</time>
      </trkpt>
      <trkpt lat="48.63005" lon="2.02123">
        <ele>162</ele>
        <time>2010-03-19T12:07:53Z</time>
      </trkpt>
      <trkpt lat="48.63005" lon="2.02125">
        <ele>162</ele>
        <time>2010-03-19T12:07:54Z</time>
      </trkpt>
      <trkpt lat="48.63007" lon="2.02127">
        <ele>162</ele>
        <time>2010-03-19T12:07:55Z</time>
      </trkpt>
      <trkpt lat="48.63008" lon="2.02129">
        <ele>162</ele>
        <time>2010-03-19T12:07:56Z</time>
      </trkpt>
      <trkpt lat="48.63009" lon="2.02131">
        <ele>162</ele>
        <time>2010-03-19T12:07:57Z</time>
      </trkpt>
      <trkpt lat="48.6301" lon="2.02133">
        <ele>162</ele>
        <time>2010-03-19T12:07:58Z</time>
      </trkpt>
      <trkpt lat="48.63011" lon="2.02135">
        <ele>162</ele>
        <time>2010-03-19T12:07:59Z</time>
      </trkpt>
      <trkpt lat="48.63012" lon="2.02138">
        <ele>162</ele>
        <time>2010-03-19T12:08:00Z</time>
      </trkpt>
      <trkpt lat="48.63013" lon="2.0214">
        <ele>162</ele>
        <time>2010-03-19T12:08:01Z</time>
      </trkpt>
      <trkpt lat="48.63014" lon="2.02142">
        <ele>162</ele>
        <time>2010-03-19T12:08:02Z</time>
      </trkpt>
      <trkpt lat="48.63015" lon="2.02145">
        <ele>162</ele>
        <time>2010-03-19T12:08:03Z</time>
      </trkpt>
      <trkpt lat="48.63016" lon="2.02147">
        <ele>162</ele>
        <time>2010-03-19T12:08:04Z</time>
      </trkpt>
      <trkpt lat="48.63017" lon="2.0215">
        <ele>162</ele>
        <time>2010-03-19T12:08:05Z</time>
      </trkpt>
      <trkpt lat="48.63018" lon="2.02152">
        <ele>162</ele>
        <time>2010-03-19T12:08:06Z</time>
      </trkpt>
      <trkpt lat="48.63019" lon="2.02154">
        <ele>162</ele>
        <time>2010-03-19T12:08:07Z</time>
      </trkpt>
      <trkpt lat="48.63021" lon="2.02156">
        <ele>162</ele>
        <time>2010-03-19T12:08:08Z</time>
      </trkpt>
      <trkpt lat="48.63021" lon="2.02158">
        <ele>162</ele>
        <time>2010-03-19T12:08:09Z</time>
      </trkpt>
      <trkpt lat="48.63023" lon="2.0216">
        <ele>162</ele>
        <time>2010-03-19T12:08:10Z</time>
      </trkpt>
      <trkpt lat="48.63025" lon="2.02162">
        <ele>162</ele>
        <time>2010-03-19T12:08:11Z</time>
      </trkpt>
      <trkpt lat="48.63026" lon="2.02163">
        <ele>162</ele>
        <time>2010-03-19T12:08:12Z</time>
      </trkpt>
      <trkpt lat="48.63028" lon="2.02164">
        <ele>162</ele>
        <time>2010-03-19T12:08:13Z</time>
      </trkpt>
      <trkpt lat="48.63029" lon="2.02166">
        <ele>162</ele>
        <time>2010-03-19T12:08:14Z</time>
      </trkpt>
      <trkpt lat="48.63031" lon="2.02167">
        <ele>162</ele>
        <time>2010-03-19T12:08:15Z</time>
      </trkpt>
      <trkpt lat="48.63033" lon="2.02168">
        <ele>162</ele>
        <time>2010-03-19T12:08:16Z</time>
      </trkpt>
      <trkpt lat="48.63034" lon="2.0217">
        <ele>162</ele>
        <time>2010-03-19T12:08:17Z</time>
      </trkpt>
      <trkpt lat="48.63036" lon="2.02171">
        <ele>162</ele>
        <time>2010-03-19T12:08:18Z</time>
      </trkpt>
      <trkpt lat="48.63037" lon="2.02173">
        <ele>162</ele>
        <time>2010-03-19T12:08:19Z</time>
      </trkpt>
      <trkpt lat="48.63038" lon="2.02174">
        <ele>162</ele>
        <time>2010-03-19T12:08:20Z</time>
      </trkpt>
      <trkpt lat="48.6304" lon="2.02175">
        <ele>162</ele>
        <time>2010-03-19T12:08:21Z</time>
      </trkpt>
      <trkpt lat="48.63042" lon="2.02175">
        <ele>162</ele>
        <time>2010-03-19T12:08:22Z</time>
      </trkpt>
      <trkpt lat="48.63043" lon="2.02176">
        <ele>162</ele>
        <time>2010-03-19T12:08:23Z</time>
      </trkpt>
      <trkpt lat="48.63045" lon="2.02177">
        <ele>162</ele>
        <time>2010-03-19T12:08:24Z</time>
      </trkpt>
      <trkpt lat="48.63046" lon="2.02177">
        <ele>162</ele>
        <time>2010-03-19T12:08:25Z</time>
      </trkpt>
      <trkpt lat="48.63048" lon="2.02178">
        <ele>162</ele>
        <time>2010-03-19T12:08:26Z</time>
      </trkpt>
      <trkpt lat="48.6305" lon="2.02179">
        <ele>162</ele>
        <time>2010-03-19T12:08:27Z</time>
      </trkpt>
      <trkpt lat="48.63051" lon="2.02179">
        <ele>162</ele>
        <time>2010-03-19T12:08:28Z</time>
      </trkpt>
      <trkpt lat="48.63053" lon="2.0218">
        <ele>162</ele>
        <time>2010-03-19T12:08:29Z</time>
      </trkpt>
      <trkpt lat="48.63054" lon="2.0218">
        <ele>162</ele>
        <time>2010-03-19T12:08:30Z</time>
      </trkpt>
      <trkpt lat="48.63056" lon="2.0218">
        <ele>162</ele>
        <time>2010-03-19T12:08:31Z</time>
      </trkpt>
      <trkpt lat="48.63058" lon="2.0218">
        <ele>162</ele>
        <time>2010-03-19T12:08:32Z</time>
      </trkpt>
      <trkpt lat="48.6306" lon="2.02181">
        <ele>162</ele>
        <time>2010-03-19T12:08:33Z</time>
      </trkpt>
      <trkpt lat="48.63061" lon="2.02181">
        <ele>162</ele>
        <time>2010-03-19T12:08:34Z</time>
      </trkpt>
      <trkpt lat="48.63063" lon="2.02181">
        <ele>162</ele>
        <time>2010-03-19T12:08:35Z</time>
      </trkpt>
      <trkpt lat="48.63065" lon="2.02181">
        <ele>162</ele>
        <time>2010-03-19T12:08:36Z</time>
      </trkpt>
      <trkpt lat="48.63066" lon="2.02181">
        <ele>162</ele>
        <time>2010-03-19T12:08:37Z</time>
      </trkpt>
      <trkpt lat="48.63068" lon="2.02182">
        <ele>162</ele>
        <time>2010-03-19T12:08:38Z</time>
      </trkpt>
      <trkpt lat="48.6307" lon="2.02182">
        <ele>162</ele>
        <time>2010-03-19T12:08:39Z</time>
      </trkpt>
      <trkpt lat="48.63072" lon="2.02182">
        <ele>162</ele>
        <time>2010-03-19T12:08:40Z</time>
      </trkpt>
      <trkpt lat="48.63074" lon="2.02182">
        <ele>162</ele>
        <time>2010-03-19T12:08:41Z</time>
      </trkpt>
      <trkpt lat="48.63076" lon="2.02182">
        <ele>162</ele>
        <time>2010-03-19T12:08:42Z</time>
      </trkpt>
      <trkpt lat="48.63077" lon="2.02182">
        <ele>162</ele>
        <time>2010-03-19T12:08:43Z</time>
      </trkpt>
      <trkpt lat="48.63079" lon="2.02183">
        <ele>162</ele>
        <time>2010-03-19T12:08:44Z</time>
      </trkpt>
      <trkpt lat="48.63081" lon="2.02183">
        <ele>162</ele>
        <time>2010-03-19T12:08:45Z</time>
      </trkpt>
      <trkpt lat="48.63083" lon="2.02183">
        <ele>162</ele>
        <time>2010-03-19T12:08:46Z</time>
      </trkpt>
      <trkpt lat="48.63084" lon="2.02184">
        <ele>162</ele>
        <time>2010-03-19T12:08:47Z</time>
      </trkpt>
      <trkpt lat="48.63086" lon="2.02184">
        <ele>162</ele>
        <time>2010-03-19T12:08:48Z</time>
      </trkpt>
      <trkpt lat="48.63088" lon="2.02184">
        <ele>162</ele>
        <time>2010-03-19T12:08:49Z</time>
      </trkpt>
      <trkpt lat="48.6309" lon="2.02184">
        <ele>162</ele>
        <time>2010-03-19T12:08:50Z</time>
      </trkpt>
      <trkpt lat="48.63092" lon="2.02185">
        <ele>162</ele>
        <time>2010-03-19T12:08:51Z</time>
      </trkpt>
      <trkpt lat="48.63093" lon="2.02185">
        <ele>162</ele>
        <time>2010-03-19T12:08:52Z</time>
      </trkpt>
      <trkpt lat="48.63095" lon="2.02185">
        <ele>162</ele>
        <time>2010-03-19T12:08:53Z</time>
      </trkpt>
      <trkpt lat="48.63097" lon="2.02186">
        <ele>162</ele>
        <time>2010-03-19T12:08:54Z</time>
      </trkpt>
      <trkpt lat="48.63099" lon="2.02186">
        <ele>162</ele>
        <time>2010-03-19T12:08:55Z</time>
      </trkpt>
      <trkpt lat="48.631" lon="2.02187">
        <ele>162</ele>
        <time>2010-03-19T12:08:56Z</time>
      </trkpt>
      <trkpt lat="48.63102" lon="2.02187">
        <ele>162</ele>
        <time>2010-03-19T12:08:57Z</time>
      </trkpt>
      <trkpt lat="48.63103" lon="2.02187">
        <ele>162</ele>
        <time>2010-03-19T12:08:58Z</time>
      </trkpt>
      <trkpt lat="48.63106" lon="2.02188">
        <ele>162</ele>
        <time>2010-03-19T12:08:59Z</time>
      </trkpt>
      <trkpt lat="48.63107" lon="2.02188">
        <ele>162</ele>
        <time>2010-03-19T12:09:00Z</time>
      </trkpt>
      <trkpt lat="48.63109" lon="2.02189">
        <ele>162</ele>
        <time>2010-03-19T12:09:01Z</time>
      </trkpt>
      <trkpt lat="48.63111" lon="2.0219">
        <ele>162</ele>
        <time>2010-03-19T12:09:02Z</time>
      </trkpt>
      <trkpt lat="48.63112" lon="2.0219">
        <ele>162</ele>
        <time>2010-03-19T12:09:03Z</time>
      </trkpt>
      <trkpt lat="48.63115" lon="2.02191">
        <ele>162</ele>
        <time>2010-03-19T12:09:04Z</time>
      </trkpt>
      <trkpt lat="48.63116" lon="2.02192">
        <ele>162</ele>
        <time>2010-03-19T12:09:05Z</time>
      </trkpt>
      <trkpt lat="48.63117" lon="2.02192">
        <ele>162</ele>
        <time>2010-03-19T12:09:06Z</time>
      </trkpt>
      <trkpt lat="48.63119" lon="2.02193">
        <ele>162</ele>
        <time>2010-03-19T12:09:07Z</time>
      </trkpt>
      <trkpt lat="48.63121" lon="2.02194">
        <ele>162</ele>
        <time>2010-03-19T12:09:08Z</time>
      </trkpt>
      <trkpt lat="48.63122" lon="2.02195">
        <ele>162</ele>
        <time>2010-03-19T12:09:09Z</time>
      </trkpt>
      <trkpt lat="48.63124" lon="2.02196">
        <ele>162</ele>
        <time>2010-03-19T12:09:10Z</time>
      </trkpt>
      <trkpt lat="48.63125" lon="2.02197">
        <ele>162</ele>
        <time>2010-03-19T12:09:11Z</time>
      </trkpt>
      <trkpt lat="48.63127" lon="2.02198">
        <ele>162</ele>
        <time>2010-03-19T12:09:12Z</time>
      </trkpt>
      <trkpt lat="48.63128" lon="2.022">
        <ele>162</ele>
        <time>2010-03-19T12:09:13Z</time>
      </trkpt>
      <trkpt lat="48.63131" lon="2.02201">
        <ele>162</ele>
        <time>2010-03-19T12:09:14Z</time>
      </trkpt>
      <trkpt lat="48.63132" lon="2.02202">
        <ele>162</ele>
        <time>2010-03-19T12:09:15Z</time>
      </trkpt>
      <trkpt lat="48.63133" lon="2.02203">
        <ele>162</ele>
        <time>2010-03-19T12:09:16Z</time>
      </trkpt>
      <trkpt lat="48.63135" lon="2.02205">
        <ele>162</ele>
        <time>2010-03-19T12:09:17Z</time>
      </trkpt>
      <trkpt lat="48.63136" lon="2.02206">
        <ele>162</ele>
        <time>2010-03-19T12:09:18Z</time>
      </trkpt>
      <trkpt lat="48.63137" lon="2.02207">
        <ele>162</ele>
        <time>2010-03-19T12:09:19Z</time>
      </trkpt>
      <trkpt lat="48.63139" lon="2.02209">
        <ele>162</ele>
        <time>2010-03-19T12:09:20Z</time>
      </trkpt>
      <trkpt lat="48.63141" lon="2.0221">
        <ele>162</ele>
        <time>2010-03-19T12:09:21Z</time>
      </trkpt>
      <trkpt lat="48.63142" lon="2.02211">
        <ele>162</ele>
        <time>2010-03-19T12:09:22Z</time>
      </trkpt>
      <trkpt lat="48.63143" lon="2.02213">
        <ele>161</ele>
        <time>2010-03-19T12:09:23Z</time>
      </trkpt>
      <trkpt lat="48.63144" lon="2.02214">
        <ele>161</ele>
        <time>2010-03-19T12:09:24Z</time>
      </trkpt>
      <trkpt lat="48.63146" lon="2.02217">
        <ele>160</ele>
        <time>2010-03-19T12:09:26Z</time>
      </trkpt>
      <trkpt lat="48.63148" lon="2.02218">
        <ele>160</ele>
        <time>2010-03-19T12:09:27Z</time>
      </trkpt>
      <trkpt lat="48.63149" lon="2.0222">
        <ele>160</ele>
        <time>2010-03-19T12:09:28Z</time>
      </trkpt>
      <trkpt lat="48.6315" lon="2.02221">
        <ele>159</ele>
        <time>2010-03-19T12:09:29Z</time>
      </trkpt>
      <trkpt lat="48.63151" lon="2.02223">
        <ele>159</ele>
        <time>2010-03-19T12:09:30Z</time>
      </trkpt>
      <trkpt lat="48.63152" lon="2.02224">
        <ele>159</ele>
        <time>2010-03-19T12:09:31Z</time>
      </trkpt>
      <trkpt lat="48.63153" lon="2.02226">
        <ele>158</ele>
        <time>2010-03-19T12:09:32Z</time>
      </trkpt>
      <trkpt lat="48.63155" lon="2.02227">
        <ele>158</ele>
        <time>2010-03-19T12:09:33Z</time>
      </trkpt>
      <trkpt lat="48.63157" lon="2.02228">
        <ele>158</ele>
        <time>2010-03-19T12:09:34Z</time>
      </trkpt>
      <trkpt lat="48.63158" lon="2.0223">
        <ele>158</ele>
        <time>2010-03-19T12:09:35Z</time>
      </trkpt>
      <trkpt lat="48.6316" lon="2.02231">
        <ele>158</ele>
        <time>2010-03-19T12:09:36Z</time>
      </trkpt>
      <trkpt lat="48.63162" lon="2.02232">
        <ele>158</ele>
        <time>2010-03-19T12:09:37Z</time>
      </trkpt>
      <trkpt lat="48.63164" lon="2.02234">
        <ele>158</ele>
        <time>2010-03-19T12:09:38Z</time>
      </trkpt>
      <trkpt lat="48.63165" lon="2.02235">
        <ele>158</ele>
        <time>2010-03-19T12:09:39Z</time>
      </trkpt>
      <trkpt lat="48.63167" lon="2.02236">
        <ele>158</ele>
        <time>2010-03-19T12:09:40Z</time>
      </trkpt>
      <trkpt lat="48.63168" lon="2.02237">
        <ele>158</ele>
        <time>2010-03-19T12:09:41Z</time>
      </trkpt>
      <trkpt lat="48.6317" lon="2.02238">
        <ele>158</ele>
        <time>2010-03-19T12:09:42Z</time>
      </trkpt>
      <trkpt lat="48.63172" lon="2.02238">
        <ele>158</ele>
        <time>2010-03-19T12:09:43Z</time>
      </trkpt>
      <trkpt lat="48.63174" lon="2.02239">
        <ele>158</ele>
        <time>2010-03-19T12:09:44Z</time>
      </trkpt>
      <trkpt lat="48.63176" lon="2.0224">
        <ele>158</ele>
        <time>2010-03-19T12:09:45Z</time>
      </trkpt>
      <trkpt lat="48.63177" lon="2.02242">
        <ele>158</ele>
        <time>2010-03-19T12:09:46Z</time>
      </trkpt>
      <trkpt lat="48.63179" lon="2.02243">
        <ele>158</ele>
        <time>2010-03-19T12:09:47Z</time>
      </trkpt>
      <trkpt lat="48.63181" lon="2.02244">
        <ele>158</ele>
        <time>2010-03-19T12:09:48Z</time>
      </trkpt>
      <trkpt lat="48.63182" lon="2.02245">
        <ele>158</ele>
        <time>2010-03-19T12:09:49Z</time>
      </trkpt>
      <trkpt lat="48.63184" lon="2.02246">
        <ele>158</ele>
        <time>2010-03-19T12:09:50Z</time>
      </trkpt>
      <trkpt lat="48.63185" lon="2.02247">
        <ele>158</ele>
        <time>2010-03-19T12:09:51Z</time>
      </trkpt>
      <trkpt lat="48.63187" lon="2.02249">
        <ele>158</ele>
        <time>2010-03-19T12:09:52Z</time>
      </trkpt>
      <trkpt lat="48.63188" lon="2.0225">
        <ele>158</ele>
        <time>2010-03-19T12:09:53Z</time>
      </trkpt>
      <trkpt lat="48.6319" lon="2.02251">
        <ele>158</ele>
        <time>2010-03-19T12:09:54Z</time>
      </trkpt>
      <trkpt lat="48.63191" lon="2.02252">
        <ele>158</ele>
        <time>2010-03-19T12:09:55Z</time>
      </trkpt>
      <trkpt lat="48.63193" lon="2.02253">
        <ele>158</ele>
        <time>2010-03-19T12:09:56Z</time>
      </trkpt>
      <trkpt lat="48.63194" lon="2.02253">
        <ele>158</ele>
        <time>2010-03-19T12:09:57Z</time>
      </trkpt>
      <trkpt lat="48.63196" lon="2.02254">
        <ele>158</ele>
        <time>2010-03-19T12:09:58Z</time>
      </trkpt>
      <trkpt lat="48.63198" lon="2.02254">
        <ele>158</ele>
        <time>2010-03-19T12:09:59Z</time>
      </trkpt>
      <trkpt lat="48.632" lon="2.02255">
        <ele>158</ele>
        <time>2010-03-19T12:10:00Z</time>
      </trkpt>
      <trkpt lat="48.63201" lon="2.02256">
        <ele>158</ele>
        <time>2010-03-19T12:10:01Z</time>
      </trkpt>
      <trkpt lat="48.63203" lon="2.02258">
        <ele>158</ele>
        <time>2010-03-19T12:10:02Z</time>
      </trkpt>
      <trkpt lat="48.63205" lon="2.02259">
        <ele>158</ele>
        <time>2010-03-19T12:10:03Z</time>
      </trkpt>
      <trkpt lat="48.63206" lon="2.0226">
        <ele>158</ele>
        <time>2010-03-19T12:10:04Z</time>
      </trkpt>
      <trkpt lat="48.63208" lon="2.02261">
        <ele>158</ele>
        <time>2010-03-19T12:10:05Z</time>
      </trkpt>
      <trkpt lat="48.63209" lon="2.02263">
        <ele>158</ele>
        <time>2010-03-19T12:10:06Z</time>
      </trkpt>
      <trkpt lat="48.63211" lon="2.02264">
        <ele>158</ele>
        <time>2010-03-19T12:10:07Z</time>
      </trkpt>
      <trkpt lat="48.63212" lon="2.02266">
        <ele>158</ele>
        <time>2010-03-19T12:10:08Z</time>
      </trkpt>
      <trkpt lat="48.63213" lon="2.02267">
        <ele>158</ele>
        <time>2010-03-19T12:10:09Z</time>
      </trkpt>
      <trkpt lat="48.63215" lon="2.02269">
        <ele>158</ele>
        <time>2010-03-19T12:10:10Z</time>
      </trkpt>
      <trkpt lat="48.63217" lon="2.02271">
        <ele>158</ele>
        <time>2010-03-19T12:10:11Z</time>
      </trkpt>
      <trkpt lat="48.63218" lon="2.02273">
        <ele>158</ele>
        <time>2010-03-19T12:10:12Z</time>
      </trkpt>
      <trkpt lat="48.63219" lon="2.02274">
        <ele>158</ele>
        <time>2010-03-19T12:10:13Z</time>
      </trkpt>
      <trkpt lat="48.63221" lon="2.02275">
        <ele>158</ele>
        <time>2010-03-19T12:10:14Z</time>
      </trkpt>
      <trkpt lat="48.63223" lon="2.02277">
        <ele>158</ele>
        <time>2010-03-19T12:10:15Z</time>
      </trkpt>
      <trkpt lat="48.63224" lon="2.02278">
        <ele>158</ele>
        <time>2010-03-19T12:10:16Z</time>
      </trkpt>
      <trkpt lat="48.63226" lon="2.02279">
        <ele>158</ele>
        <time>2010-03-19T12:10:17Z</time>
      </trkpt>
      <trkpt lat="48.63227" lon="2.0228">
        <ele>158</ele>
        <time>2010-03-19T12:10:18Z</time>
      </trkpt>
      <trkpt lat="48.63229" lon="2.02282">
        <ele>158</ele>
        <time>2010-03-19T12:10:19Z</time>
      </trkpt>
      <trkpt lat="48.63231" lon="2.02284">
        <ele>158</ele>
        <time>2010-03-19T12:10:20Z</time>
      </trkpt>
      <trkpt lat="48.63232" lon="2.02286">
        <ele>158</ele>
        <time>2010-03-19T12:10:21Z</time>
      </trkpt>
      <trkpt lat="48.63234" lon="2.02288">
        <ele>158</ele>
        <time>2010-03-19T12:10:22Z</time>
      </trkpt>
      <trkpt lat="48.63235" lon="2.0229">
        <ele>158</ele>
        <time>2010-03-19T12:10:23Z</time>
      </trkpt>
      <trkpt lat="48.63236" lon="2.02291">
        <ele>158</ele>
        <time>2010-03-19T12:10:24Z</time>
      </trkpt>
      <trkpt lat="48.63238" lon="2.02292">
        <ele>158</ele>
        <time>2010-03-19T12:10:25Z</time>
      </trkpt>
      <trkpt lat="48.63239" lon="2.02294">
        <ele>158</ele>
        <time>2010-03-19T12:10:26Z</time>
      </trkpt>
      <trkpt lat="48.6324" lon="2.02295">
        <ele>158</ele>
        <time>2010-03-19T12:10:27Z</time>
      </trkpt>
      <trkpt lat="48.63242" lon="2.02296">
        <ele>158</ele>
        <time>2010-03-19T12:10:28Z</time>
      </trkpt>
      <trkpt lat="48.63243" lon="2.02298">
        <ele>158</ele>
        <time>2010-03-19T12:10:29Z</time>
      </trkpt>
      <trkpt lat="48.63245" lon="2.02299">
        <ele>158</ele>
        <time>2010-03-19T12:10:30Z</time>
      </trkpt>
      <trkpt lat="48.63247" lon="2.023">
        <ele>158</ele>
        <time>2010-03-19T12:10:31Z</time>
      </trkpt>
      <trkpt lat="48.63248" lon="2.02302">
        <ele>158</ele>
        <time>2010-03-19T12:10:32Z</time>
      </trkpt>
      <trkpt lat="48.6325" lon="2.02303">
        <ele>158</ele>
        <time>2010-03-19T12:10:33Z</time>
      </trkpt>
      <trkpt lat="48.63251" lon="2.02304">
        <ele>158</ele>
        <time>2010-03-19T12:10:34Z</time>
      </trkpt>
      <trkpt lat="48.63253" lon="2.02305">
        <ele>158</ele>
        <time>2010-03-19T12:10:35Z</time>
      </trkpt>
      <trkpt lat="48.63255" lon="2.02306">
        <ele>158</ele>
        <time>2010-03-19T12:10:36Z</time>
      </trkpt>
      <trkpt lat="48.63257" lon="2.02307">
        <ele>158</ele>
        <time>2010-03-19T12:10:37Z</time>
      </trkpt>
      <trkpt lat="48.63258" lon="2.02308">
        <ele>158</ele>
        <time>2010-03-19T12:10:38Z</time>
      </trkpt>
      <trkpt lat="48.6326" lon="2.0231">
        <ele>158</ele>
        <time>2010-03-19T12:10:39Z</time>
      </trkpt>
      <trkpt lat="48.63261" lon="2.02312">
        <ele>158</ele>
        <time>2010-03-19T12:10:40Z</time>
      </trkpt>
      <trkpt lat="48.63263" lon="2.02314">
        <ele>158</ele>
        <time>2010-03-19T12:10:42Z</time>
      </trkpt>
      <trkpt lat="48.63264" lon="2.02316">
        <ele>158</ele>
        <time>2010-03-19T12:10:43Z</time>
      </trkpt>
      <trkpt lat="48.63265" lon="2.02318">
        <ele>158</ele>
        <time>2010-03-19T12:10:44Z</time>
      </trkpt>
      <trkpt lat="48.63267" lon="2.02319">
        <ele>158</ele>
        <time>2010-03-19T12:10:45Z</time>
      </trkpt>
      <trkpt lat="48.63269" lon="2.02322">
        <ele>158</ele>
        <time>2010-03-19T12:10:47Z</time>
      </trkpt>
      <trkpt lat="48.6327" lon="2.02323">
        <ele>158</ele>
        <time>2010-03-19T12:10:48Z</time>
      </trkpt>
      <trkpt lat="48.63271" lon="2.02325">
        <ele>158</ele>
        <time>2010-03-19T12:10:49Z</time>
      </trkpt>
      <trkpt lat="48.63273" lon="2.02327">
        <ele>158</ele>
        <time>2010-03-19T12:10:50Z</time>
      </trkpt>
      <trkpt lat="48.63274" lon="2.02329">
        <ele>158</ele>
        <time>2010-03-19T12:10:51Z</time>
      </trkpt>
      <trkpt lat="48.63275" lon="2.02331">
        <ele>158</ele>
        <time>2010-03-19T12:10:52Z</time>
      </trkpt>
      <trkpt lat="48.63276" lon="2.02333">
        <ele>158</ele>
        <time>2010-03-19T12:10:53Z</time>
      </trkpt>
      <trkpt lat="48.63277" lon="2.02335">
        <ele>158</ele>
        <time>2010-03-19T12:10:54Z</time>
      </trkpt>
      <trkpt lat="48.63279" lon="2.02337">
        <ele>158</ele>
        <time>2010-03-19T12:10:55Z</time>
      </trkpt>
      <trkpt lat="48.63279" lon="2.02339">
        <ele>158</ele>
        <time>2010-03-19T12:10:56Z</time>
      </trkpt>
      <trkpt lat="48.6328" lon="2.02341">
        <ele>158</ele>
        <time>2010-03-19T12:10:57Z</time>
      </trkpt>
      <trkpt lat="48.63282" lon="2.02343">
        <ele>158</ele>
        <time>2010-03-19T12:10:58Z</time>
      </trkpt>
      <trkpt lat="48.63283" lon="2.02345">
        <ele>158</ele>
        <time>2010-03-19T12:10:59Z</time>
      </trkpt>
      <trkpt lat="48.63284" lon="2.02346">
        <ele>158</ele>
        <time>2010-03-19T12:11:00Z</time>
      </trkpt>
      <trkpt lat="48.63285" lon="2.02348">
        <ele>158</ele>
        <time>2010-03-19T12:11:01Z</time>
      </trkpt>
      <trkpt lat="48.63286" lon="2.02351">
        <ele>158</ele>
        <time>2010-03-19T12:11:02Z</time>
      </trkpt>
      <trkpt lat="48.63286" lon="2.02355">
        <ele>158</ele>
        <time>2010-03-19T12:11:03Z</time>
      </trkpt>
      <trkpt lat="48.63285" lon="2.02359">
        <ele>158</ele>
        <time>2010-03-19T12:11:04Z</time>
      </trkpt>
      <trkpt lat="48.63285" lon="2.02364">
        <ele>158</ele>
        <time>2010-03-19T12:11:05Z</time>
      </trkpt>
      <trkpt lat="48.63285" lon="2.02369">
        <ele>158</ele>
        <time>2010-03-19T12:11:06Z</time>
      </trkpt>
      <trkpt lat="48.63285" lon="2.02373">
        <ele>158</ele>
        <time>2010-03-19T12:11:07Z</time>
      </trkpt>
      <trkpt lat="48.63285" lon="2.02377">
        <ele>158</ele>
        <time>2010-03-19T12:11:08Z</time>
      </trkpt>
      <trkpt lat="48.63286" lon="2.02379">
        <ele>158</ele>
        <time>2010-03-19T12:11:09Z</time>
      </trkpt>
      <trkpt lat="48.63287" lon="2.02381">
        <ele>158</ele>
        <time>2010-03-19T12:11:10Z</time>
      </trkpt>
      <trkpt lat="48.63288" lon="2.02382">
        <ele>158</ele>
        <time>2010-03-19T12:11:11Z</time>
      </trkpt>
      <trkpt lat="48.6329" lon="2.02383">
        <ele>158</ele>
        <time>2010-03-19T12:11:12Z</time>
      </trkpt>
      <trkpt lat="48.63291" lon="2.02384">
        <ele>158</ele>
        <time>2010-03-19T12:11:13Z</time>
      </trkpt>
      <trkpt lat="48.63292" lon="2.02385">
        <ele>158</ele>
        <time>2010-03-19T12:11:14Z</time>
      </trkpt>
      <trkpt lat="48.63294" lon="2.02386">
        <ele>158</ele>
        <time>2010-03-19T12:11:15Z</time>
      </trkpt>
      <trkpt lat="48.63295" lon="2.02388">
        <ele>158</ele>
        <time>2010-03-19T12:11:16Z</time>
      </trkpt>
      <trkpt lat="48.63297" lon="2.0239">
        <ele>158</ele>
        <time>2010-03-19T12:11:17Z</time>
      </trkpt>
      <trkpt lat="48.63297" lon="2.02393">
        <ele>158</ele>
        <time>2010-03-19T12:11:18Z</time>
      </trkpt>
      <trkpt lat="48.63299" lon="2.02395">
        <ele>158</ele>
        <time>2010-03-19T12:11:19Z</time>
      </trkpt>
      <trkpt lat="48.633" lon="2.02397">
        <ele>158</ele>
        <time>2010-03-19T12:11:20Z</time>
      </trkpt>
      <trkpt lat="48.63301" lon="2.024">
        <ele>158</ele>
        <time>2010-03-19T12:11:21Z</time>
      </trkpt>
      <trkpt lat="48.63303" lon="2.02402">
        <ele>158</ele>
        <time>2010-03-19T12:11:22Z</time>
      </trkpt>
      <trkpt lat="48.63304" lon="2.02403">
        <ele>158</ele>
        <time>2010-03-19T12:11:23Z</time>
      </trkpt>
      <trkpt lat="48.63305" lon="2.02405">
        <ele>158</ele>
        <time>2010-03-19T12:11:24Z</time>
      </trkpt>
      <trkpt lat="48.63305" lon="2.02407">
        <ele>158</ele>
        <time>2010-03-19T12:11:25Z</time>
      </trkpt>
      <trkpt lat="48.63306" lon="2.02409">
        <ele>158</ele>
        <time>2010-03-19T12:11:26Z</time>
      </trkpt>
      <trkpt lat="48.63308" lon="2.0241">
        <ele>158</ele>
        <time>2010-03-19T12:11:27Z</time>
      </trkpt>
      <trkpt lat="48.63309" lon="2.02412">
        <ele>158</ele>
        <time>2010-03-19T12:11:28Z</time>
      </trkpt>
      <trkpt lat="48.6331" lon="2.02414">
        <ele>158</ele>
        <time>2010-03-19T12:11:29Z</time>
      </trkpt>
      <trkpt lat="48.63311" lon="2.02415">
        <ele>158</ele>
        <time>2010-03-19T12:11:30Z</time>
      </trkpt>
      <trkpt lat="48.63313" lon="2.02417">
        <ele>158</ele>
        <time>2010-03-19T12:11:31Z</time>
      </trkpt>
      <trkpt lat="48.63314" lon="2.02419">
        <ele>158</ele>
        <time>2010-03-19T12:11:32Z</time>
      </trkpt>
      <trkpt lat="48.63315" lon="2.0242">
        <ele>159</ele>
        <time>2010-03-19T12:11:33Z</time>
      </trkpt>
      <trkpt lat="48.63317" lon="2.02422">
        <ele>159</ele>
        <time>2010-03-19T12:11:34Z</time>
      </trkpt>
      <trkpt lat="48.63317" lon="2.02424">
        <ele>159</ele>
        <time>2010-03-19T12:11:35Z</time>
      </trkpt>
      <trkpt lat="48.63319" lon="2.02426">
        <ele>159</ele>
        <time>2010-03-19T12:11:36Z</time>
      </trkpt>
      <trkpt lat="48.6332" lon="2.02428">
        <ele>159</ele>
        <time>2010-03-19T12:11:37Z</time>
      </trkpt>
      <trkpt lat="48.63321" lon="2.0243">
        <ele>159</ele>
        <time>2010-03-19T12:11:38Z</time>
      </trkpt>
      <trkpt lat="48.63322" lon="2.02432">
        <ele>159</ele>
        <time>2010-03-19T12:11:39Z</time>
      </trkpt>
      <trkpt lat="48.63323" lon="2.02433">
        <ele>159</ele>
        <time>2010-03-19T12:11:40Z</time>
      </trkpt>
      <trkpt lat="48.63324" lon="2.02435">
        <ele>159</ele>
        <time>2010-03-19T12:11:41Z</time>
      </trkpt>
      <trkpt lat="48.63325" lon="2.02437">
        <ele>159</ele>
        <time>2010-03-19T12:11:42Z</time>
      </trkpt>
      <trkpt lat="48.63326" lon="2.02438">
        <ele>159</ele>
        <time>2010-03-19T12:11:43Z</time>
      </trkpt>
      <trkpt lat="48.63328" lon="2.0244">
        <ele>159</ele>
        <time>2010-03-19T12:11:44Z</time>
      </trkpt>
      <trkpt lat="48.63329" lon="2.02443">
        <ele>159</ele>
        <time>2010-03-19T12:11:45Z</time>
      </trkpt>
      <trkpt lat="48.6333" lon="2.02445">
        <ele>159</ele>
        <time>2010-03-19T12:11:46Z</time>
      </trkpt>
      <trkpt lat="48.63331" lon="2.02447">
        <ele>159</ele>
        <time>2010-03-19T12:11:47Z</time>
      </trkpt>
      <trkpt lat="48.63332" lon="2.02449">
        <ele>159</ele>
        <time>2010-03-19T12:11:48Z</time>
      </trkpt>
      <trkpt lat="48.63333" lon="2.0245">
        <ele>159</ele>
        <time>2010-03-19T12:11:49Z</time>
      </trkpt>
      <trkpt lat="48.63335" lon="2.02451">
        <ele>159</ele>
        <time>2010-03-19T12:11:50Z</time>
      </trkpt>
      <trkpt lat="48.63337" lon="2.02451">
        <ele>159</ele>
        <time>2010-03-19T12:11:51Z</time>
      </trkpt>
      <trkpt lat="48.63338" lon="2.02451">
        <ele>159</ele>
        <time>2010-03-19T12:11:52Z</time>
      </trkpt>
      <trkpt lat="48.6334" lon="2.0245">
        <ele>159</ele>
        <time>2010-03-19T12:11:53Z</time>
      </trkpt>
      <trkpt lat="48.63342" lon="2.02449">
        <ele>159</ele>
        <time>2010-03-19T12:11:54Z</time>
      </trkpt>
      <trkpt lat="48.63343" lon="2.02448">
        <ele>159</ele>
        <time>2010-03-19T12:11:55Z</time>
      </trkpt>
      <trkpt lat="48.63345" lon="2.02447">
        <ele>159</ele>
        <time>2010-03-19T12:11:56Z</time>
      </trkpt>
      <trkpt lat="48.63347" lon="2.02445">
        <ele>159</ele>
        <time>2010-03-19T12:11:57Z</time>
      </trkpt>
      <trkpt lat="48.63349" lon="2.02446">
        <ele>159</ele>
        <time>2010-03-19T12:11:58Z</time>
      </trkpt>
      <trkpt lat="48.63351" lon="2.02447">
        <ele>159</ele>
        <time>2010-03-19T12:11:59Z</time>
      </trkpt>
      <trkpt lat="48.63353" lon="2.02449">
        <ele>159</ele>
        <time>2010-03-19T12:12:00Z</time>
      </trkpt>
      <trkpt lat="48.63355" lon="2.02452">
        <ele>159</ele>
        <time>2010-03-19T12:12:01Z</time>
      </trkpt>
      <trkpt lat="48.63356" lon="2.02454">
        <ele>159</ele>
        <time>2010-03-19T12:12:02Z</time>
      </trkpt>
      <trkpt lat="48.63358" lon="2.02457">
        <ele>159</ele>
        <time>2010-03-19T12:12:03Z</time>
      </trkpt>
      <trkpt lat="48.63359" lon="2.02459">
        <ele>159</ele>
        <time>2010-03-19T12:12:04Z</time>
      </trkpt>
      <trkpt lat="48.63361" lon="2.02461">
        <ele>159</ele>
        <time>2010-03-19T12:12:05Z</time>
      </trkpt>
      <trkpt lat="48.63363" lon="2.02464">
        <ele>159</ele>
        <time>2010-03-19T12:12:06Z</time>
      </trkpt>
      <trkpt lat="48.63364" lon="2.02467">
        <ele>159</ele>
        <time>2010-03-19T12:12:07Z</time>
      </trkpt>
      <trkpt lat="48.63367" lon="2.02469">
        <ele>159</ele>
        <time>2010-03-19T12:12:08Z</time>
      </trkpt>
      <trkpt lat="48.63369" lon="2.02473">
        <ele>159</ele>
        <time>2010-03-19T12:12:09Z</time>
      </trkpt>
      <trkpt lat="48.63371" lon="2.02476">
        <ele>159</ele>
        <time>2010-03-19T12:12:10Z</time>
      </trkpt>
      <trkpt lat="48.63374" lon="2.0248">
        <ele>159</ele>
        <time>2010-03-19T12:12:11Z</time>
      </trkpt>
      <trkpt lat="48.63377" lon="2.02485">
        <ele>159</ele>
        <time>2010-03-19T12:12:12Z</time>
      </trkpt>
      <trkpt lat="48.6338" lon="2.02489">
        <ele>160</ele>
        <time>2010-03-19T12:12:13Z</time>
      </trkpt>
      <trkpt lat="48.63382" lon="2.02494">
        <ele>160</ele>
        <time>2010-03-19T12:12:14Z</time>
      </trkpt>
      <trkpt lat="48.63385" lon="2.02498">
        <ele>160</ele>
        <time>2010-03-19T12:12:15Z</time>
      </trkpt>
      <trkpt lat="48.63389" lon="2.02502">
        <ele>160</ele>
        <time>2010-03-19T12:12:16Z</time>
      </trkpt>
      <trkpt lat="48.63392" lon="2.02506">
        <ele>160</ele>
        <time>2010-03-19T12:12:17Z</time>
      </trkpt>
      <trkpt lat="48.63396" lon="2.02511">
        <ele>160</ele>
        <time>2010-03-19T12:12:18Z</time>
      </trkpt>
      <trkpt lat="48.634" lon="2.02516">
        <ele>160</ele>
        <time>2010-03-19T12:12:19Z</time>
      </trkpt>
      <trkpt lat="48.63404" lon="2.0252">
        <ele>160</ele>
        <time>2010-03-19T12:12:20Z</time>
      </trkpt>
      <trkpt lat="48.63408" lon="2.02524">
        <ele>160</ele>
        <time>2010-03-19T12:12:21Z</time>
      </trkpt>
      <trkpt lat="48.63411" lon="2.02528">
        <ele>160</ele>
        <time>2010-03-19T12:12:22Z</time>
      </trkpt>
      <trkpt lat="48.63414" lon="2.02532">
        <ele>160</ele>
        <time>2010-03-19T12:12:23Z</time>
      </trkpt>
      <trkpt lat="48.63417" lon="2.02536">
        <ele>160</ele>
        <time>2010-03-19T12:12:24Z</time>
      </trkpt>
      <trkpt lat="48.6342" lon="2.0254">
        <ele>160</ele>
        <time>2010-03-19T12:12:25Z</time>
      </trkpt>
      <trkpt lat="48.63424" lon="2.02545">
        <ele>160</ele>
        <time>2010-03-19T12:12:26Z</time>
      </trkpt>
      <trkpt lat="48.63427" lon="2.02549">
        <ele>161</ele>
        <time>2010-03-19T12:12:27Z</time>
      </trkpt>
      <trkpt lat="48.63431" lon="2.02554">
        <ele>161</ele>
        <time>2010-03-19T12:12:28Z</time>
      </trkpt>
      <trkpt lat="48.63435" lon="2.02559">
        <ele>161</ele>
        <time>2010-03-19T12:12:29Z</time>
      </trkpt>
      <trkpt lat="48.63439" lon="2.02565">
        <ele>161</ele>
        <time>2010-03-19T12:12:30Z</time>
      </trkpt>
      <trkpt lat="48.63444" lon="2.0257">
        <ele>161</ele>
        <time>2010-03-19T12:12:31Z</time>
      </trkpt>
      <trkpt lat="48.63448" lon="2.02575">
        <ele>161</ele>
        <time>2010-03-19T12:12:32Z</time>
      </trkpt>
      <trkpt lat="48.63454" lon="2.02581">
        <ele>161</ele>
        <time>2010-03-19T12:12:33Z</time>
      </trkpt>
      <trkpt lat="48.63459" lon="2.02587">
        <ele>161</ele>
        <time>2010-03-19T12:12:34Z</time>
      </trkpt>
      <trkpt lat="48.63464" lon="2.02592">
        <ele>161</ele>
        <time>2010-03-19T12:12:35Z</time>
      </trkpt>
      <trkpt lat="48.63469" lon="2.02597">
        <ele>161</ele>
        <time>2010-03-19T12:12:36Z</time>
      </trkpt>
      <trkpt lat="48.63474" lon="2.02603">
        <ele>161</ele>
        <time>2010-03-19T12:12:37Z</time>
      </trkpt>
      <trkpt lat="48.6348" lon="2.02608">
        <ele>162</ele>
        <time>2010-03-19T12:12:38Z</time>
      </trkpt>
      <trkpt lat="48.63485" lon="2.02613">
        <ele>162</ele>
        <time>2010-03-19T12:12:39Z</time>
      </trkpt>
      <trkpt lat="48.63491" lon="2.02618">
        <ele>162</ele>
        <time>2010-03-19T12:12:40Z</time>
      </trkpt>
      <trkpt lat="48.63497" lon="2.02623">
        <ele>162</ele>
        <time>2010-03-19T12:12:41Z</time>
      </trkpt>
      <trkpt lat="48.63503" lon="2.02628">
        <ele>162</ele>
        <time>2010-03-19T12:12:42Z</time>
      </trkpt>
      <trkpt lat="48.63508" lon="2.02632">
        <ele>162</ele>
        <time>2010-03-19T12:12:43Z</time>
      </trkpt>
      <trkpt lat="48.63513" lon="2.02637">
        <ele>162</ele>
        <time>2010-03-19T12:12:44Z</time>
      </trkpt>
      <trkpt lat="48.63519" lon="2.02641">
        <ele>162</ele>
        <time>2010-03-19T12:12:45Z</time>
      </trkpt>
      <trkpt lat="48.63524" lon="2.02646">
        <ele>162</ele>
        <time>2010-03-19T12:12:46Z</time>
      </trkpt>
      <trkpt lat="48.6353" lon="2.02651">
        <ele>162</ele>
        <time>2010-03-19T12:12:47Z</time>
      </trkpt>
      <trkpt lat="48.63536" lon="2.02655">
        <ele>162</ele>
        <time>2010-03-19T12:12:48Z</time>
      </trkpt>
      <trkpt lat="48.63543" lon="2.02658">
        <ele>162</ele>
        <time>2010-03-19T12:12:49Z</time>
      </trkpt>
      <trkpt lat="48.63549" lon="2.02661">
        <ele>162</ele>
        <time>2010-03-19T12:12:50Z</time>
      </trkpt>
      <trkpt lat="48.63555" lon="2.02664">
        <ele>162</ele>
        <time>2010-03-19T12:12:51Z</time>
      </trkpt>
      <trkpt lat="48.63562" lon="2.02668">
        <ele>162</ele>
        <time>2010-03-19T12:12:52Z</time>
      </trkpt>
      <trkpt lat="48.63568" lon="2.02672">
        <ele>162</ele>
        <time>2010-03-19T12:12:53Z</time>
      </trkpt>
      <trkpt lat="48.63575" lon="2.02675">
        <ele>162</ele>
        <time>2010-03-19T12:12:54Z</time>
      </trkpt>
      <trkpt lat="48.63581" lon="2.02679">
        <ele>162</ele>
        <time>2010-03-19T12:12:55Z</time>
      </trkpt>
      <trkpt lat="48.63588" lon="2.02683">
        <ele>162</ele>
        <time>2010-03-19T12:12:56Z</time>
      </trkpt>
      <trkpt lat="48.63595" lon="2.02686">
        <ele>162</ele>
        <time>2010-03-19T12:12:57Z</time>
      </trkpt>
      <trkpt lat="48.63602" lon="2.02689">
        <ele>162</ele>
        <time>2010-03-19T12:12:58Z</time>
      </trkpt>
      <trkpt lat="48.63609" lon="2.02692">
        <ele>162</ele>
        <time>2010-03-19T12:12:59Z</time>
      </trkpt>
      <trkpt lat="48.63616" lon="2.02694">
        <ele>162</ele>
        <time>2010-03-19T12:13:00Z</time>
      </trkpt>
      <trkpt lat="48.63622" lon="2.02697">
        <ele>162</ele>
        <time>2010-03-19T12:13:01Z</time>
      </trkpt>
      <trkpt lat="48.63629" lon="2.027">
        <ele>163</ele>
        <time>2010-03-19T12:13:02Z</time>
      </trkpt>
      <trkpt lat="48.63635" lon="2.02703">
        <ele>163</ele>
        <time>2010-03-19T12:13:03Z</time>
      </trkpt>
      <trkpt lat="48.63642" lon="2.02706">
        <ele>163</ele>
        <time>2010-03-19T12:13:04Z</time>
      </trkpt>
      <trkpt lat="48.63648" lon="2.02709">
        <ele>163</ele>
        <time>2010-03-19T12:13:05Z</time>
      </trkpt>
      <trkpt lat="48.63655" lon="2.02712">
        <ele>163</ele>
        <time>2010-03-19T12:13:06Z</time>
      </trkpt>
      <trkpt lat="48.63662" lon="2.02715">
        <ele>163</ele>
        <time>2010-03-19T12:13:07Z</time>
      </trkpt>
      <trkpt lat="48.63668" lon="2.02718">
        <ele>163</ele>
        <time>2010-03-19T12:13:08Z</time>
      </trkpt>
      <trkpt lat="48.63675" lon="2.02721">
        <ele>163</ele>
        <time>2010-03-19T12:13:09Z</time>
      </trkpt>
      <trkpt lat="48.63681" lon="2.02724">
        <ele>163</ele>
        <time>2010-03-19T12:13:10Z</time>
      </trkpt>
      <trkpt lat="48.63688" lon="2.02727">
        <ele>163</ele>
        <time>2010-03-19T12:13:11Z</time>
      </trkpt>
      <trkpt lat="48.63695" lon="2.0273">
        <ele>163</ele>
        <time>2010-03-19T12:13:12Z</time>
      </trkpt>
      <trkpt lat="48.63702" lon="2.02733">
        <ele>163</ele>
        <time>2010-03-19T12:13:13Z</time>
      </trkpt>
      <trkpt lat="48.63709" lon="2.02736">
        <ele>163</ele>
        <time>2010-03-19T12:13:14Z</time>
      </trkpt>
      <trkpt lat="48.63716" lon="2.02739">
        <ele>163</ele>
        <time>2010-03-19T12:13:15Z</time>
      </trkpt>
      <trkpt lat="48.63723" lon="2.02742">
        <ele>163</ele>
        <time>2010-03-19T12:13:16Z</time>
      </trkpt>
      <trkpt lat="48.6373" lon="2.02745">
        <ele>163</ele>
        <time>2010-03-19T12:13:17Z</time>
      </trkpt>
      <trkpt lat="48.63737" lon="2.02748">
        <ele>163</ele>
        <time>2010-03-19T12:13:18Z</time>
      </trkpt>
      <trkpt lat="48.63744" lon="2.0275">
        <ele>163</ele>
        <time>2010-03-19T12:13:19Z</time>
      </trkpt>
      <trkpt lat="48.63751" lon="2.02753">
        <ele>163</ele>
        <time>2010-03-19T12:13:20Z</time>
      </trkpt>
      <trkpt lat="48.63758" lon="2.02755">
        <ele>163</ele>
        <time>2010-03-19T12:13:21Z</time>
      </trkpt>
      <trkpt lat="48.63765" lon="2.02757">
        <ele>164</ele>
        <time>2010-03-19T12:13:22Z</time>
      </trkpt>
      <trkpt lat="48.63773" lon="2.02759">
        <ele>164</ele>
        <time>2010-03-19T12:13:23Z</time>
      </trkpt>
      <trkpt lat="48.6378" lon="2.02761">
        <ele>164</ele>
        <time>2010-03-19T12:13:24Z</time>
      </trkpt>
      <trkpt lat="48.63787" lon="2.02762">
        <ele>164</ele>
        <time>2010-03-19T12:13:25Z</time>
      </trkpt>
      <trkpt lat="48.63794" lon="2.02764">
        <ele>164</ele>
        <time>2010-03-19T12:13:26Z</time>
      </trkpt>
      <trkpt lat="48.63802" lon="2.02765">
        <ele>164</ele>
        <time>2010-03-19T12:13:27Z</time>
      </trkpt>
      <trkpt lat="48.63809" lon="2.02767">
        <ele>164</ele>
        <time>2010-03-19T12:13:28Z</time>
      </trkpt>
      <trkpt lat="48.63816" lon="2.02768">
        <ele>164</ele>
        <time>2010-03-19T12:13:29Z</time>
      </trkpt>
      <trkpt lat="48.63824" lon="2.02769">
        <ele>164</ele>
        <time>2010-03-19T12:13:30Z</time>
      </trkpt>
      <trkpt lat="48.63831" lon="2.02769">
        <ele>165</ele>
        <time>2010-03-19T12:13:31Z</time>
      </trkpt>
      <trkpt lat="48.63837" lon="2.0277">
        <ele>165</ele>
        <time>2010-03-19T12:13:32Z</time>
      </trkpt>
      <trkpt lat="48.63845" lon="2.02771">
        <ele>165</ele>
        <time>2010-03-19T12:13:33Z</time>
      </trkpt>
      <trkpt lat="48.63853" lon="2.02772">
        <ele>165</ele>
        <time>2010-03-19T12:13:34Z</time>
      </trkpt>
      <trkpt lat="48.6386" lon="2.02773">
        <ele>165</ele>
        <time>2010-03-19T12:13:35Z</time>
      </trkpt>
      <trkpt lat="48.63868" lon="2.02774">
        <ele>165</ele>
        <time>2010-03-19T12:13:36Z</time>
      </trkpt>
      <trkpt lat="48.63875" lon="2.02775">
        <ele>165</ele>
        <time>2010-03-19T12:13:37Z</time>
      </trkpt>
      <trkpt lat="48.63882" lon="2.02775">
        <ele>165</ele>
        <time>2010-03-19T12:13:38Z</time>
      </trkpt>
      <trkpt lat="48.63889" lon="2.02776">
        <ele>165</ele>
        <time>2010-03-19T12:13:39Z</time>
      </trkpt>
      <trkpt lat="48.63896" lon="2.02777">
        <ele>165</ele>
        <time>2010-03-19T12:13:40Z</time>
      </trkpt>
      <trkpt lat="48.63903" lon="2.02777">
        <ele>165</ele>
        <time>2010-03-19T12:13:41Z</time>
      </trkpt>
      <trkpt lat="48.6391" lon="2.02778">
        <ele>165</ele>
        <time>2010-03-19T12:13:42Z</time>
      </trkpt>
      <trkpt lat="48.63917" lon="2.02779">
        <ele>165</ele>
        <time>2010-03-19T12:13:43Z</time>
      </trkpt>
      <trkpt lat="48.63924" lon="2.02779">
        <ele>165</ele>
        <time>2010-03-19T12:13:44Z</time>
      </trkpt>
      <trkpt lat="48.63932" lon="2.0278">
        <ele>165</ele>
        <time>2010-03-19T12:13:45Z</time>
      </trkpt>
      <trkpt lat="48.63939" lon="2.0278">
        <ele>165</ele>
        <time>2010-03-19T12:13:46Z</time>
      </trkpt>
      <trkpt lat="48.63945" lon="2.0278">
        <ele>165</ele>
        <time>2010-03-19T12:13:47Z</time>
      </trkpt>
      <trkpt lat="48.63952" lon="2.0278">
        <ele>165</ele>
        <time>2010-03-19T12:13:48Z</time>
      </trkpt>
      <trkpt lat="48.63959" lon="2.02781">
        <ele>165</ele>
        <time>2010-03-19T12:13:49Z</time>
      </trkpt>
      <trkpt lat="48.63966" lon="2.02782">
        <ele>165</ele>
        <time>2010-03-19T12:13:50Z</time>
      </trkpt>
      <trkpt lat="48.63972" lon="2.02783">
        <ele>165</ele>
        <time>2010-03-19T12:13:51Z</time>
      </trkpt>
      <trkpt lat="48.63979" lon="2.02783">
        <ele>165</ele>
        <time>2010-03-19T12:13:52Z</time>
      </trkpt>
      <trkpt lat="48.63985" lon="2.02784">
        <ele>165</ele>
        <time>2010-03-19T12:13:53Z</time>
      </trkpt>
      <trkpt lat="48.63992" lon="2.02786">
        <ele>165</ele>
        <time>2010-03-19T12:13:54Z</time>
      </trkpt>
      <trkpt lat="48.63998" lon="2.02786">
        <ele>165</ele>
        <time>2010-03-19T12:13:55Z</time>
      </trkpt>
      <trkpt lat="48.64005" lon="2.02787">
        <ele>165</ele>
        <time>2010-03-19T12:13:56Z</time>
      </trkpt>
      <trkpt lat="48.64011" lon="2.02787">
        <ele>165</ele>
        <time>2010-03-19T12:13:57Z</time>
      </trkpt>
      <trkpt lat="48.64017" lon="2.02787">
        <ele>165</ele>
        <time>2010-03-19T12:13:58Z</time>
      </trkpt>
      <trkpt lat="48.64022" lon="2.02787">
        <ele>165</ele>
        <time>2010-03-19T12:13:59Z</time>
      </trkpt>
      <trkpt lat="48.64028" lon="2.02787">
        <ele>165</ele>
        <time>2010-03-19T12:14:00Z</time>
      </trkpt>
      <trkpt lat="48.64034" lon="2.02787">
        <ele>165</ele>
        <time>2010-03-19T12:14:01Z</time>
      </trkpt>
      <trkpt lat="48.64039" lon="2.02787">
        <ele>165</ele>
        <time>2010-03-19T12:14:02Z</time>
      </trkpt>
      <trkpt lat="48.64044" lon="2.02787">
        <ele>165</ele>
        <time>2010-03-19T12:14:03Z</time>
      </trkpt>
      <trkpt lat="48.64049" lon="2.02787">
        <ele>165</ele>
        <time>2010-03-19T12:14:04Z</time>
      </trkpt>
      <trkpt lat="48.64054" lon="2.02786">
        <ele>165</ele>
        <time>2010-03-19T12:14:05Z</time>
      </trkpt>
      <trkpt lat="48.64058" lon="2.02786">
        <ele>165</ele>
        <time>2010-03-19T12:14:06Z</time>
      </trkpt>
      <trkpt lat="48.64063" lon="2.02786">
        <ele>165</ele>
        <time>2010-03-19T12:14:07Z</time>
      </trkpt>
      <trkpt lat="48.64067" lon="2.02786">
        <ele>165</ele>
        <time>2010-03-19T12:14:08Z</time>
      </trkpt>
      <trkpt lat="48.64071" lon="2.02786">
        <ele>165</ele>
        <time>2010-03-19T12:14:09Z</time>
      </trkpt>
      <trkpt lat="48.64075" lon="2.02787">
        <ele>165</ele>
        <time>2010-03-19T12:14:10Z</time>
      </trkpt>
      <trkpt lat="48.6408" lon="2.02787">
        <ele>165</ele>
        <time>2010-03-19T12:14:11Z</time>
      </trkpt>
      <trkpt lat="48.64085" lon="2.02787">
        <ele>165</ele>
        <time>2010-03-19T12:14:12Z</time>
      </trkpt>
      <trkpt lat="48.6409" lon="2.02788">
        <ele>165</ele>
        <time>2010-03-19T12:14:13Z</time>
      </trkpt>
      <trkpt lat="48.64095" lon="2.0279">
        <ele>165</ele>
        <time>2010-03-19T12:14:14Z</time>
      </trkpt>
      <trkpt lat="48.64099" lon="2.02791">
        <ele>165</ele>
        <time>2010-03-19T12:14:15Z</time>
      </trkpt>
      <trkpt lat="48.64104" lon="2.02792">
        <ele>165</ele>
        <time>2010-03-19T12:14:16Z</time>
      </trkpt>
      <trkpt lat="48.64108" lon="2.02794">
        <ele>165</ele>
        <time>2010-03-19T12:14:17Z</time>
      </trkpt>
      <trkpt lat="48.64113" lon="2.02796">
        <ele>165</ele>
        <time>2010-03-19T12:14:18Z</time>
      </trkpt>
      <trkpt lat="48.64119" lon="2.02798">
        <ele>165</ele>
        <time>2010-03-19T12:14:19Z</time>
      </trkpt>
      <trkpt lat="48.64123" lon="2.028">
        <ele>165</ele>
        <time>2010-03-19T12:14:20Z</time>
      </trkpt>
      <trkpt lat="48.64128" lon="2.02802">
        <ele>165</ele>
        <time>2010-03-19T12:14:21Z</time>
      </trkpt>
      <trkpt lat="48.64132" lon="2.02804">
        <ele>165</ele>
        <time>2010-03-19T12:14:22Z</time>
      </trkpt>
      <trkpt lat="48.64137" lon="2.02806">
        <ele>165</ele>
        <time>2010-03-19T12:14:23Z</time>
      </trkpt>
      <trkpt lat="48.64142" lon="2.02808">
        <ele>165</ele>
        <time>2010-03-19T12:14:24Z</time>
      </trkpt>
      <trkpt lat="48.64147" lon="2.0281">
        <ele>165</ele>
        <time>2010-03-19T12:14:25Z</time>
      </trkpt>
      <trkpt lat="48.64152" lon="2.02813">
        <ele>165</ele>
        <time>2010-03-19T12:14:26Z</time>
      </trkpt>
      <trkpt lat="48.64156" lon="2.02815">
        <ele>165</ele>
        <time>2010-03-19T12:14:27Z</time>
      </trkpt>
      <trkpt lat="48.64161" lon="2.02816">
        <ele>165</ele>
        <time>2010-03-19T12:14:28Z</time>
      </trkpt>
      <trkpt lat="48.64166" lon="2.02818">
        <ele>165</ele>
        <time>2010-03-19T12:14:29Z</time>
      </trkpt>
      <trkpt lat="48.64171" lon="2.0282">
        <ele>165</ele>
        <time>2010-03-19T12:14:30Z</time>
      </trkpt>
      <trkpt lat="48.64177" lon="2.02822">
        <ele>165</ele>
        <time>2010-03-19T12:14:31Z</time>
      </trkpt>
      <trkpt lat="48.64182" lon="2.02823">
        <ele>165</ele>
        <time>2010-03-19T12:14:32Z</time>
      </trkpt>
      <trkpt lat="48.64186" lon="2.02825">
        <ele>165</ele>
        <time>2010-03-19T12:14:33Z</time>
      </trkpt>
      <trkpt lat="48.64191" lon="2.02826">
        <ele>165</ele>
        <time>2010-03-19T12:14:34Z</time>
      </trkpt>
      <trkpt lat="48.64196" lon="2.02828">
        <ele>165</ele>
        <time>2010-03-19T12:14:35Z</time>
      </trkpt>
      <trkpt lat="48.642" lon="2.02829">
        <ele>165</ele>
        <time>2010-03-19T12:14:36Z</time>
      </trkpt>
      <trkpt lat="48.64205" lon="2.0283">
        <ele>165</ele>
        <time>2010-03-19T12:14:37Z</time>
      </trkpt>
      <trkpt lat="48.64209" lon="2.02831">
        <ele>165</ele>
        <time>2010-03-19T12:14:38Z</time>
      </trkpt>
      <trkpt lat="48.64213" lon="2.02832">
        <ele>164</ele>
        <time>2010-03-19T12:14:39Z</time>
      </trkpt>
      <trkpt lat="48.64217" lon="2.02833">
        <ele>164</ele>
        <time>2010-03-19T12:14:40Z</time>
      </trkpt>
      <trkpt lat="48.64222" lon="2.02834">
        <ele>164</ele>
        <time>2010-03-19T12:14:41Z</time>
      </trkpt>
      <trkpt lat="48.64226" lon="2.02835">
        <ele>164</ele>
        <time>2010-03-19T12:14:42Z</time>
      </trkpt>
      <trkpt lat="48.6423" lon="2.02836">
        <ele>164</ele>
        <time>2010-03-19T12:14:43Z</time>
      </trkpt>
      <trkpt lat="48.64234" lon="2.02837">
        <ele>164</ele>
        <time>2010-03-19T12:14:44Z</time>
      </trkpt>
      <trkpt lat="48.64237" lon="2.02838">
        <ele>164</ele>
        <time>2010-03-19T12:14:45Z</time>
      </trkpt>
      <trkpt lat="48.64241" lon="2.02839">
        <ele>164</ele>
        <time>2010-03-19T12:14:46Z</time>
      </trkpt>
      <trkpt lat="48.64244" lon="2.02841">
        <ele>164</ele>
        <time>2010-03-19T12:14:47Z</time>
      </trkpt>
      <trkpt lat="48.64246" lon="2.02845">
        <ele>164</ele>
        <time>2010-03-19T12:14:48Z</time>
      </trkpt>
      <trkpt lat="48.64246" lon="2.0285">
        <ele>164</ele>
        <time>2010-03-19T12:14:49Z</time>
      </trkpt>
      <trkpt lat="48.64246" lon="2.02857">
        <ele>164</ele>
        <time>2010-03-19T12:14:50Z</time>
      </trkpt>
      <trkpt lat="48.64245" lon="2.02865">
        <ele>164</ele>
        <time>2010-03-19T12:14:51Z</time>
      </trkpt>
      <trkpt lat="48.64244" lon="2.02873">
        <ele>164</ele>
        <time>2010-03-19T12:14:52Z</time>
      </trkpt>
      <trkpt lat="48.64243" lon="2.02881">
        <ele>164</ele>
        <time>2010-03-19T12:14:53Z</time>
      </trkpt>
      <trkpt lat="48.64241" lon="2.02889">
        <ele>164</ele>
        <time>2010-03-19T12:14:54Z</time>
      </trkpt>
      <trkpt lat="48.6424" lon="2.02898">
        <ele>163</ele>
        <time>2010-03-19T12:14:55Z</time>
      </trkpt>
      <trkpt lat="48.64239" lon="2.02907">
        <ele>163</ele>
        <time>2010-03-19T12:14:56Z</time>
      </trkpt>
      <trkpt lat="48.64237" lon="2.02918">
        <ele>163</ele>
        <time>2010-03-19T12:14:57Z</time>
      </trkpt>
      <trkpt lat="48.64236" lon="2.02929">
        <ele>163</ele>
        <time>2010-03-19T12:14:58Z</time>
      </trkpt>
      <trkpt lat="48.64234" lon="2.0294">
        <ele>163</ele>
        <time>2010-03-19T12:14:59Z</time>
      </trkpt>
      <trkpt lat="48.64232" lon="2.02952">
        <ele>162</ele>
        <time>2010-03-19T12:15:00Z</time>
      </trkpt>
      <trkpt lat="48.6423" lon="2.02963">
        <ele>162</ele>
        <time>2010-03-19T12:15:01Z</time>
      </trkpt>
      <trkpt lat="48.64228" lon="2.02975">
        <ele>162</ele>
        <time>2010-03-19T12:15:02Z</time>
      </trkpt>
      <trkpt lat="48.64226" lon="2.02986">
        <ele>162</ele>
        <time>2010-03-19T12:15:03Z</time>
      </trkpt>
      <trkpt lat="48.64224" lon="2.02997">
        <ele>162</ele>
        <time>2010-03-19T12:15:04Z</time>
      </trkpt>
      <trkpt lat="48.64222" lon="2.03008">
        <ele>162</ele>
        <time>2010-03-19T12:15:05Z</time>
      </trkpt>
      <trkpt lat="48.64219" lon="2.03019">
        <ele>161</ele>
        <time>2010-03-19T12:15:06Z</time>
      </trkpt>
      <trkpt lat="48.64216" lon="2.03029">
        <ele>161</ele>
        <time>2010-03-19T12:15:07Z</time>
      </trkpt>
      <trkpt lat="48.64214" lon="2.03039">
        <ele>161</ele>
        <time>2010-03-19T12:15:08Z</time>
      </trkpt>
      <trkpt lat="48.64211" lon="2.03049">
        <ele>161</ele>
        <time>2010-03-19T12:15:09Z</time>
      </trkpt>
      <trkpt lat="48.64207" lon="2.03059">
        <ele>161</ele>
        <time>2010-03-19T12:15:10Z</time>
      </trkpt>
      <trkpt lat="48.64204" lon="2.03068">
        <ele>161</ele>
        <time>2010-03-19T12:15:11Z</time>
      </trkpt>
      <trkpt lat="48.64201" lon="2.03077">
        <ele>160</ele>
        <time>2010-03-19T12:15:12Z</time>
      </trkpt>
      <trkpt lat="48.64198" lon="2.03085">
        <ele>160</ele>
        <time>2010-03-19T12:15:13Z</time>
      </trkpt>
      <trkpt lat="48.64194" lon="2.03094">
        <ele>160</ele>
        <time>2010-03-19T12:15:14Z</time>
      </trkpt>
      <trkpt lat="48.64189" lon="2.03102">
        <ele>160</ele>
        <time>2010-03-19T12:15:15Z</time>
      </trkpt>
      <trkpt lat="48.64185" lon="2.0311">
        <ele>160</ele>
        <time>2010-03-19T12:15:16Z</time>
      </trkpt>
      <trkpt lat="48.6418" lon="2.03119">
        <ele>160</ele>
        <time>2010-03-19T12:15:17Z</time>
      </trkpt>
      <trkpt lat="48.64175" lon="2.03128">
        <ele>160</ele>
        <time>2010-03-19T12:15:18Z</time>
      </trkpt>
      <trkpt lat="48.6417" lon="2.03136">
        <ele>160</ele>
        <time>2010-03-19T12:15:19Z</time>
      </trkpt>
      <trkpt lat="48.64166" lon="2.03144">
        <ele>160</ele>
        <time>2010-03-19T12:15:20Z</time>
      </trkpt>
      <trkpt lat="48.64162" lon="2.03151">
        <ele>160</ele>
        <time>2010-03-19T12:15:21Z</time>
      </trkpt>
      <trkpt lat="48.64157" lon="2.03159">
        <ele>160</ele>
        <time>2010-03-19T12:15:22Z</time>
      </trkpt>
      <trkpt lat="48.64152" lon="2.03166">
        <ele>160</ele>
        <time>2010-03-19T12:15:23Z</time>
      </trkpt>
      <trkpt lat="48.64147" lon="2.03172">
        <ele>160</ele>
        <time>2010-03-19T12:15:24Z</time>
      </trkpt>
      <trkpt lat="48.64142" lon="2.03179">
        <ele>160</ele>
        <time>2010-03-19T12:15:25Z</time>
      </trkpt>
      <trkpt lat="48.64137" lon="2.03186">
        <ele>160</ele>
        <time>2010-03-19T12:15:26Z</time>
      </trkpt>
      <trkpt lat="48.64132" lon="2.03193">
        <ele>160</ele>
        <time>2010-03-19T12:15:27Z</time>
      </trkpt>
      <trkpt lat="48.64127" lon="2.032">
        <ele>160</ele>
        <time>2010-03-19T12:15:28Z</time>
      </trkpt>
      <trkpt lat="48.64122" lon="2.03205">
        <ele>160</ele>
        <time>2010-03-19T12:15:29Z</time>
      </trkpt>
      <trkpt lat="48.64117" lon="2.03211">
        <ele>160</ele>
        <time>2010-03-19T12:15:30Z</time>
      </trkpt>
      <trkpt lat="48.64113" lon="2.03216">
        <ele>160</ele>
        <time>2010-03-19T12:15:31Z</time>
      </trkpt>
      <trkpt lat="48.64108" lon="2.03222">
        <ele>160</ele>
        <time>2010-03-19T12:15:32Z</time>
      </trkpt>
      <trkpt lat="48.64103" lon="2.03227">
        <ele>160</ele>
        <time>2010-03-19T12:15:33Z</time>
      </trkpt>
      <trkpt lat="48.64098" lon="2.03233">
        <ele>160</ele>
        <time>2010-03-19T12:15:34Z</time>
      </trkpt>
      <trkpt lat="48.64094" lon="2.03239">
        <ele>160</ele>
        <time>2010-03-19T12:15:35Z</time>
      </trkpt>
      <trkpt lat="48.64089" lon="2.03244">
        <ele>160</ele>
        <time>2010-03-19T12:15:36Z</time>
      </trkpt>
      <trkpt lat="48.64083" lon="2.0325">
        <ele>160</ele>
        <time>2010-03-19T12:15:37Z</time>
      </trkpt>
      <trkpt lat="48.64079" lon="2.03256">
        <ele>160</ele>
        <time>2010-03-19T12:15:38Z</time>
      </trkpt>
      <trkpt lat="48.64073" lon="2.03261">
        <ele>160</ele>
        <time>2010-03-19T12:15:39Z</time>
      </trkpt>
      <trkpt lat="48.64068" lon="2.03266">
        <ele>160</ele>
        <time>2010-03-19T12:15:40Z</time>
      </trkpt>
      <trkpt lat="48.64063" lon="2.03272">
        <ele>160</ele>
        <time>2010-03-19T12:15:41Z</time>
      </trkpt>
      <trkpt lat="48.64057" lon="2.03278">
        <ele>160</ele>
        <time>2010-03-19T12:15:42Z</time>
      </trkpt>
      <trkpt lat="48.64051" lon="2.03284">
        <ele>160</ele>
        <time>2010-03-19T12:15:43Z</time>
      </trkpt>
      <trkpt lat="48.64046" lon="2.0329">
        <ele>160</ele>
        <time>2010-03-19T12:15:44Z</time>
      </trkpt>
      <trkpt lat="48.6404" lon="2.03295">
        <ele>160</ele>
        <time>2010-03-19T12:15:45Z</time>
      </trkpt>
      <trkpt lat="48.64034" lon="2.03301">
        <ele>160</ele>
        <time>2010-03-19T12:15:46Z</time>
      </trkpt>
      <trkpt lat="48.64029" lon="2.03307">
        <ele>160</ele>
        <time>2010-03-19T12:15:47Z</time>
      </trkpt>
      <trkpt lat="48.64023" lon="2.03313">
        <ele>160</ele>
        <time>2010-03-19T12:15:48Z</time>
      </trkpt>
      <trkpt lat="48.64017" lon="2.03319">
        <ele>160</ele>
        <time>2010-03-19T12:15:49Z</time>
      </trkpt>
      <trkpt lat="48.64011" lon="2.03325">
        <ele>160</ele>
        <time>2010-03-19T12:15:50Z</time>
      </trkpt>
      <trkpt lat="48.64005" lon="2.0333">
        <ele>160</ele>
        <time>2010-03-19T12:15:51Z</time>
      </trkpt>
      <trkpt lat="48.63998" lon="2.03336">
        <ele>160</ele>
        <time>2010-03-19T12:15:52Z</time>
      </trkpt>
      <trkpt lat="48.63992" lon="2.03342">
        <ele>160</ele>
        <time>2010-03-19T12:15:53Z</time>
      </trkpt>
      <trkpt lat="48.63985" lon="2.03348">
        <ele>160</ele>
        <time>2010-03-19T12:15:54Z</time>
      </trkpt>
      <trkpt lat="48.6398" lon="2.03354">
        <ele>160</ele>
        <time>2010-03-19T12:15:55Z</time>
      </trkpt>
      <trkpt lat="48.63974" lon="2.0336">
        <ele>160</ele>
        <time>2010-03-19T12:15:56Z</time>
      </trkpt>
      <trkpt lat="48.63968" lon="2.03365">
        <ele>160</ele>
        <time>2010-03-19T12:15:57Z</time>
      </trkpt>
      <trkpt lat="48.63961" lon="2.03372">
        <ele>160</ele>
        <time>2010-03-19T12:15:58Z</time>
      </trkpt>
      <trkpt lat="48.63955" lon="2.03378">
        <ele>160</ele>
        <time>2010-03-19T12:15:59Z</time>
      </trkpt>
      <trkpt lat="48.63948" lon="2.03384">
        <ele>160</ele>
        <time>2010-03-19T12:16:00Z</time>
      </trkpt>
      <trkpt lat="48.63942" lon="2.0339">
        <ele>160</ele>
        <time>2010-03-19T12:16:01Z</time>
      </trkpt>
      <trkpt lat="48.63935" lon="2.03396">
        <ele>160</ele>
        <time>2010-03-19T12:16:02Z</time>
      </trkpt>
      <trkpt lat="48.63929" lon="2.03401">
        <ele>160</ele>
        <time>2010-03-19T12:16:03Z</time>
      </trkpt>
      <trkpt lat="48.63923" lon="2.03407">
        <ele>160</ele>
        <time>2010-03-19T12:16:04Z</time>
      </trkpt>
      <trkpt lat="48.63916" lon="2.03413">
        <ele>160</ele>
        <time>2010-03-19T12:16:05Z</time>
      </trkpt>
      <trkpt lat="48.6391" lon="2.03419">
        <ele>160</ele>
        <time>2010-03-19T12:16:06Z</time>
      </trkpt>
      <trkpt lat="48.63905" lon="2.03425">
        <ele>160</ele>
        <time>2010-03-19T12:16:07Z</time>
      </trkpt>
      <trkpt lat="48.63898" lon="2.03431">
        <ele>160</ele>
        <time>2010-03-19T12:16:08Z</time>
      </trkpt>
      <trkpt lat="48.63893" lon="2.03436">
        <ele>160</ele>
        <time>2010-03-19T12:16:09Z</time>
      </trkpt>
      <trkpt lat="48.63887" lon="2.03441">
        <ele>160</ele>
        <time>2010-03-19T12:16:10Z</time>
      </trkpt>
      <trkpt lat="48.63881" lon="2.03447">
        <ele>160</ele>
        <time>2010-03-19T12:16:11Z</time>
      </trkpt>
      <trkpt lat="48.63874" lon="2.03453">
        <ele>160</ele>
        <time>2010-03-19T12:16:12Z</time>
      </trkpt>
      <trkpt lat="48.63868" lon="2.03459">
        <ele>160</ele>
        <time>2010-03-19T12:16:13Z</time>
      </trkpt>
      <trkpt lat="48.6386" lon="2.03465">
        <ele>160</ele>
        <time>2010-03-19T12:16:14Z</time>
      </trkpt>
      <trkpt lat="48.63853" lon="2.03471">
        <ele>160</ele>
        <time>2010-03-19T12:16:15Z</time>
      </trkpt>
      <trkpt lat="48.63844" lon="2.03477">
        <ele>160</ele>
        <time>2010-03-19T12:16:16Z</time>
      </trkpt>
      <trkpt lat="48.63835" lon="2.03483">
        <ele>160</ele>
        <time>2010-03-19T12:16:17Z</time>
      </trkpt>
      <trkpt lat="48.63825" lon="2.03489">
        <ele>160</ele>
        <time>2010-03-19T12:16:18Z</time>
      </trkpt>
      <trkpt lat="48.63814" lon="2.03495">
        <ele>160</ele>
        <time>2010-03-19T12:16:19Z</time>
      </trkpt>
      <trkpt lat="48.63803" lon="2.035">
        <ele>160</ele>
        <time>2010-03-19T12:16:20Z</time>
      </trkpt>
      <trkpt lat="48.63791" lon="2.03504">
        <ele>160</ele>
        <time>2010-03-19T12:16:21Z</time>
      </trkpt>
      <trkpt lat="48.63779" lon="2.03507">
        <ele>160</ele>
        <time>2010-03-19T12:16:22Z</time>
      </trkpt>
      <trkpt lat="48.63768" lon="2.03509">
        <ele>160</ele>
        <time>2010-03-19T12:16:23Z</time>
      </trkpt>
      <trkpt lat="48.63755" lon="2.03511">
        <ele>160</ele>
        <time>2010-03-19T12:16:24Z</time>
      </trkpt>
      <trkpt lat="48.63743" lon="2.03512">
        <ele>160</ele>
        <time>2010-03-19T12:16:25Z</time>
      </trkpt>
      <trkpt lat="48.6373" lon="2.03512">
        <ele>160</ele>
        <time>2010-03-19T12:16:26Z</time>
      </trkpt>
      <trkpt lat="48.63718" lon="2.03512">
        <ele>160</ele>
        <time>2010-03-19T12:16:27Z</time>
      </trkpt>
      <trkpt lat="48.63707" lon="2.03511">
        <ele>160</ele>
        <time>2010-03-19T12:16:28Z</time>
      </trkpt>
      <trkpt lat="48.63694" lon="2.0351">
        <ele>160</ele>
        <time>2010-03-19T12:16:29Z</time>
      </trkpt>
      <trkpt lat="48.63683" lon="2.03509">
        <ele>160</ele>
        <time>2010-03-19T12:16:30Z</time>
      </trkpt>
      <trkpt lat="48.6367" lon="2.03507">
        <ele>160</ele>
        <time>2010-03-19T12:16:31Z</time>
      </trkpt>
      <trkpt lat="48.63659" lon="2.03506">
        <ele>160</ele>
        <time>2010-03-19T12:16:32Z</time>
      </trkpt>
      <trkpt lat="48.63648" lon="2.03504">
        <ele>160</ele>
        <time>2010-03-19T12:16:33Z</time>
      </trkpt>
      <trkpt lat="48.63638" lon="2.03503">
        <ele>160</ele>
        <time>2010-03-19T12:16:34Z</time>
      </trkpt>
      <trkpt lat="48.63628" lon="2.03502">
        <ele>161</ele>
        <time>2010-03-19T12:16:35Z</time>
      </trkpt>
      <trkpt lat="48.63618" lon="2.03501">
        <ele>161</ele>
        <time>2010-03-19T12:16:36Z</time>
      </trkpt>
      <trkpt lat="48.63609" lon="2.035">
        <ele>161</ele>
        <time>2010-03-19T12:16:37Z</time>
      </trkpt>
      <trkpt lat="48.63601" lon="2.03501">
        <ele>161</ele>
        <time>2010-03-19T12:16:38Z</time>
      </trkpt>
      <trkpt lat="48.63593" lon="2.03503">
        <ele>161</ele>
        <time>2010-03-19T12:16:39Z</time>
      </trkpt>
      <trkpt lat="48.63585" lon="2.03505">
        <ele>161</ele>
        <time>2010-03-19T12:16:40Z</time>
      </trkpt>
      <trkpt lat="48.63577" lon="2.03508">
        <ele>162</ele>
        <time>2010-03-19T12:16:41Z</time>
      </trkpt>
      <trkpt lat="48.6357" lon="2.03511">
        <ele>162</ele>
        <time>2010-03-19T12:16:42Z</time>
      </trkpt>
      <trkpt lat="48.63562" lon="2.03514">
        <ele>162</ele>
        <time>2010-03-19T12:16:43Z</time>
      </trkpt>
      <trkpt lat="48.63555" lon="2.03518">
        <ele>162</ele>
        <time>2010-03-19T12:16:44Z</time>
      </trkpt>
      <trkpt lat="48.63548" lon="2.03523">
        <ele>162</ele>
        <time>2010-03-19T12:16:45Z</time>
      </trkpt>
      <trkpt lat="48.63541" lon="2.03527">
        <ele>162</ele>
        <time>2010-03-19T12:16:46Z</time>
      </trkpt>
      <trkpt lat="48.63534" lon="2.03532">
        <ele>162</ele>
        <time>2010-03-19T12:16:47Z</time>
      </trkpt>
      <trkpt lat="48.63527" lon="2.03536">
        <ele>162</ele>
        <time>2010-03-19T12:16:48Z</time>
      </trkpt>
      <trkpt lat="48.6352" lon="2.03541">
        <ele>162</ele>
        <time>2010-03-19T12:16:49Z</time>
      </trkpt>
      <trkpt lat="48.63513" lon="2.03545">
        <ele>162</ele>
        <time>2010-03-19T12:16:50Z</time>
      </trkpt>
      <trkpt lat="48.63506" lon="2.0355">
        <ele>163</ele>
        <time>2010-03-19T12:16:51Z</time>
      </trkpt>
      <trkpt lat="48.63499" lon="2.03554">
        <ele>163</ele>
        <time>2010-03-19T12:16:52Z</time>
      </trkpt>
      <trkpt lat="48.63493" lon="2.03558">
        <ele>163</ele>
        <time>2010-03-19T12:16:53Z</time>
      </trkpt>
      <trkpt lat="48.63486" lon="2.03563">
        <ele>163</ele>
        <time>2010-03-19T12:16:54Z</time>
      </trkpt>
      <trkpt lat="48.63479" lon="2.03568">
        <ele>163</ele>
        <time>2010-03-19T12:16:55Z</time>
      </trkpt>
      <trkpt lat="48.63472" lon="2.03572">
        <ele>163</ele>
        <time>2010-03-19T12:16:56Z</time>
      </trkpt>
      <trkpt lat="48.63465" lon="2.03578">
        <ele>163</ele>
        <time>2010-03-19T12:16:57Z</time>
      </trkpt>
      <trkpt lat="48.63457" lon="2.03583">
        <ele>163</ele>
        <time>2010-03-19T12:16:58Z</time>
      </trkpt>
      <trkpt lat="48.6345" lon="2.03589">
        <ele>163</ele>
        <time>2010-03-19T12:16:59Z</time>
      </trkpt>
      <trkpt lat="48.63442" lon="2.03595">
        <ele>164</ele>
        <time>2010-03-19T12:17:00Z</time>
      </trkpt>
      <trkpt lat="48.63434" lon="2.036">
        <ele>164</ele>
        <time>2010-03-19T12:17:01Z</time>
      </trkpt>
      <trkpt lat="48.63426" lon="2.03605">
        <ele>164</ele>
        <time>2010-03-19T12:17:02Z</time>
      </trkpt>
      <trkpt lat="48.63418" lon="2.0361">
        <ele>164</ele>
        <time>2010-03-19T12:17:03Z</time>
      </trkpt>
      <trkpt lat="48.63411" lon="2.03615">
        <ele>164</ele>
        <time>2010-03-19T12:17:04Z</time>
      </trkpt>
      <trkpt lat="48.63403" lon="2.03621">
        <ele>164</ele>
        <time>2010-03-19T12:17:05Z</time>
      </trkpt>
      <trkpt lat="48.63395" lon="2.03627">
        <ele>164</ele>
        <time>2010-03-19T12:17:06Z</time>
      </trkpt>
      <trkpt lat="48.63388" lon="2.03632">
        <ele>164</ele>
        <time>2010-03-19T12:17:07Z</time>
      </trkpt>
      <trkpt lat="48.63382" lon="2.03637">
        <ele>164</ele>
        <time>2010-03-19T12:17:08Z</time>
      </trkpt>
      <trkpt lat="48.63376" lon="2.03642">
        <ele>164</ele>
        <time>2010-03-19T12:17:09Z</time>
      </trkpt>
      <trkpt lat="48.6337" lon="2.03646">
        <ele>164</ele>
        <time>2010-03-19T12:17:10Z</time>
      </trkpt>
      <trkpt lat="48.63364" lon="2.0365">
        <ele>164</ele>
        <time>2010-03-19T12:17:11Z</time>
      </trkpt>
      <trkpt lat="48.63359" lon="2.03655">
        <ele>164</ele>
        <time>2010-03-19T12:17:12Z</time>
      </trkpt>
      <trkpt lat="48.63355" lon="2.03659">
        <ele>164</ele>
        <time>2010-03-19T12:17:13Z</time>
      </trkpt>
      <trkpt lat="48.63351" lon="2.03663">
        <ele>164</ele>
        <time>2010-03-19T12:17:14Z</time>
      </trkpt>
      <trkpt lat="48.63347" lon="2.03666">
        <ele>164</ele>
        <time>2010-03-19T12:17:15Z</time>
      </trkpt>
      <trkpt lat="48.63343" lon="2.0367">
        <ele>164</ele>
        <time>2010-03-19T12:17:16Z</time>
      </trkpt>
      <trkpt lat="48.63339" lon="2.03673">
        <ele>164</ele>
        <time>2010-03-19T12:17:17Z</time>
      </trkpt>
      <trkpt lat="48.63335" lon="2.03676">
        <ele>164</ele>
        <time>2010-03-19T12:17:18Z</time>
      </trkpt>
      <trkpt lat="48.63333" lon="2.03678">
        <ele>164</ele>
        <time>2010-03-19T12:17:19Z</time>
      </trkpt>
      <trkpt lat="48.6333" lon="2.0368">
        <ele>164</ele>
        <time>2010-03-19T12:17:20Z</time>
      </trkpt>
      <trkpt lat="48.63328" lon="2.03683">
        <ele>164</ele>
        <time>2010-03-19T12:17:21Z</time>
      </trkpt>
      <trkpt lat="48.63326" lon="2.03685">
        <ele>164</ele>
        <time>2010-03-19T12:17:22Z</time>
      </trkpt>
      <trkpt lat="48.63324" lon="2.03686">
        <ele>164</ele>
        <time>2010-03-19T12:17:23Z</time>
      </trkpt>
      <trkpt lat="48.63323" lon="2.03688">
        <ele>164</ele>
        <time>2010-03-19T12:17:24Z</time>
      </trkpt>
      <trkpt lat="48.63321" lon="2.0369">
        <ele>164</ele>
        <time>2010-03-19T12:17:25Z</time>
      </trkpt>
      <trkpt lat="48.63321" lon="2.03692">
        <ele>164</ele>
        <time>2010-03-19T12:17:26Z</time>
      </trkpt>
      <trkpt lat="48.63319" lon="2.03693">
        <ele>164</ele>
        <time>2010-03-19T12:17:27Z</time>
      </trkpt>
      <trkpt lat="48.63318" lon="2.03695">
        <ele>164</ele>
        <time>2010-03-19T12:17:28Z</time>
      </trkpt>
      <trkpt lat="48.63317" lon="2.03697">
        <ele>164</ele>
        <time>2010-03-19T12:17:29Z</time>
      </trkpt>
      <trkpt lat="48.63316" lon="2.03698">
        <ele>164</ele>
        <time>2010-03-19T12:17:30Z</time>
      </trkpt>
      <trkpt lat="48.63314" lon="2.03701">
        <ele>164</ele>
        <time>2010-03-19T12:17:32Z</time>
      </trkpt>
      <trkpt lat="48.63313" lon="2.03703">
        <ele>164</ele>
        <time>2010-03-19T12:17:33Z</time>
      </trkpt>
      <trkpt lat="48.63311" lon="2.03705">
        <ele>164</ele>
        <time>2010-03-19T12:17:34Z</time>
      </trkpt>
      <trkpt lat="48.63309" lon="2.03707">
        <ele>164</ele>
        <time>2010-03-19T12:17:35Z</time>
      </trkpt>
      <trkpt lat="48.63308" lon="2.03709">
        <ele>164</ele>
        <time>2010-03-19T12:17:36Z</time>
      </trkpt>
      <trkpt lat="48.63307" lon="2.03711">
        <ele>164</ele>
        <time>2010-03-19T12:17:37Z</time>
      </trkpt>
      <trkpt lat="48.63306" lon="2.03713">
        <ele>164</ele>
        <time>2010-03-19T12:17:38Z</time>
      </trkpt>
      <trkpt lat="48.63305" lon="2.03714">
        <ele>164</ele>
        <time>2010-03-19T12:17:39Z</time>
      </trkpt>
      <trkpt lat="48.63304" lon="2.03716">
        <ele>164</ele>
        <time>2010-03-19T12:17:40Z</time>
      </trkpt>
      <trkpt lat="48.63302" lon="2.03718">
        <ele>164</ele>
        <time>2010-03-19T12:17:41Z</time>
      </trkpt>
      <trkpt lat="48.63301" lon="2.03719">
        <ele>164</ele>
        <time>2010-03-19T12:17:42Z</time>
      </trkpt>
      <trkpt lat="48.633" lon="2.03721">
        <ele>164</ele>
        <time>2010-03-19T12:17:43Z</time>
      </trkpt>
      <trkpt lat="48.63298" lon="2.03723">
        <ele>164</ele>
        <time>2010-03-19T12:17:44Z</time>
      </trkpt>
      <trkpt lat="48.63297" lon="2.03725">
        <ele>164</ele>
        <time>2010-03-19T12:17:45Z</time>
      </trkpt>
      <trkpt lat="48.63296" lon="2.03727">
        <ele>164</ele>
        <time>2010-03-19T12:17:46Z</time>
      </trkpt>
      <trkpt lat="48.63294" lon="2.03728">
        <ele>164</ele>
        <time>2010-03-19T12:17:47Z</time>
      </trkpt>
      <trkpt lat="48.63293" lon="2.0373">
        <ele>164</ele>
        <time>2010-03-19T12:17:48Z</time>
      </trkpt>
      <trkpt lat="48.63292" lon="2.03732">
        <ele>164</ele>
        <time>2010-03-19T12:17:49Z</time>
      </trkpt>
      <trkpt lat="48.63291" lon="2.03734">
        <ele>164</ele>
        <time>2010-03-19T12:17:50Z</time>
      </trkpt>
      <trkpt lat="48.6329" lon="2.03736">
        <ele>164</ele>
        <time>2010-03-19T12:17:51Z</time>
      </trkpt>
      <trkpt lat="48.63289" lon="2.03737">
        <ele>164</ele>
        <time>2010-03-19T12:17:52Z</time>
      </trkpt>
      <trkpt lat="48.63288" lon="2.0374">
        <ele>164</ele>
        <time>2010-03-19T12:17:53Z</time>
      </trkpt>
      <trkpt lat="48.63287" lon="2.03742">
        <ele>164</ele>
        <time>2010-03-19T12:17:54Z</time>
      </trkpt>
      <trkpt lat="48.63285" lon="2.03744">
        <ele>164</ele>
        <time>2010-03-19T12:17:55Z</time>
      </trkpt>
      <trkpt lat="48.63284" lon="2.03745">
        <ele>164</ele>
        <time>2010-03-19T12:17:56Z</time>
      </trkpt>
      <trkpt lat="48.63282" lon="2.03747">
        <ele>164</ele>
        <time>2010-03-19T12:17:57Z</time>
      </trkpt>
      <trkpt lat="48.63281" lon="2.03748">
        <ele>164</ele>
        <time>2010-03-19T12:17:58Z</time>
      </trkpt>
      <trkpt lat="48.6328" lon="2.0375">
        <ele>164</ele>
        <time>2010-03-19T12:17:59Z</time>
      </trkpt>
      <trkpt lat="48.63279" lon="2.03752">
        <ele>164</ele>
        <time>2010-03-19T12:18:00Z</time>
      </trkpt>
      <trkpt lat="48.63277" lon="2.03753">
        <ele>164</ele>
        <time>2010-03-19T12:18:01Z</time>
      </trkpt>
      <trkpt lat="48.63275" lon="2.03755">
        <ele>164</ele>
        <time>2010-03-19T12:18:02Z</time>
      </trkpt>
      <trkpt lat="48.63274" lon="2.03757">
        <ele>164</ele>
        <time>2010-03-19T12:18:03Z</time>
      </trkpt>
      <trkpt lat="48.63273" lon="2.03759">
        <ele>164</ele>
        <time>2010-03-19T12:18:04Z</time>
      </trkpt>
      <trkpt lat="48.63272" lon="2.03761">
        <ele>164</ele>
        <time>2010-03-19T12:18:05Z</time>
      </trkpt>
      <trkpt lat="48.63271" lon="2.03763">
        <ele>164</ele>
        <time>2010-03-19T12:18:06Z</time>
      </trkpt>
      <trkpt lat="48.63269" lon="2.03764">
        <ele>164</ele>
        <time>2010-03-19T12:18:07Z</time>
      </trkpt>
      <trkpt lat="48.63268" lon="2.03766">
        <ele>164</ele>
        <time>2010-03-19T12:18:08Z</time>
      </trkpt>
      <trkpt lat="48.63267" lon="2.03769">
        <ele>164</ele>
        <time>2010-03-19T12:18:09Z</time>
      </trkpt>
      <trkpt lat="48.63266" lon="2.03771">
        <ele>164</ele>
        <time>2010-03-19T12:18:10Z</time>
      </trkpt>
      <trkpt lat="48.63265" lon="2.03774">
        <ele>164</ele>
        <time>2010-03-19T12:18:11Z</time>
      </trkpt>
      <trkpt lat="48.63265" lon="2.03777">
        <ele>164</ele>
        <time>2010-03-19T12:18:12Z</time>
      </trkpt>
      <trkpt lat="48.63265" lon="2.03779">
        <ele>164</ele>
        <time>2010-03-19T12:18:13Z</time>
      </trkpt>
      <trkpt lat="48.63264" lon="2.03782">
        <ele>164</ele>
        <time>2010-03-19T12:18:14Z</time>
      </trkpt>
      <trkpt lat="48.63264" lon="2.03785">
        <ele>164</ele>
        <time>2010-03-19T12:18:15Z</time>
      </trkpt>
      <trkpt lat="48.63263" lon="2.03788">
        <ele>164</ele>
        <time>2010-03-19T12:18:16Z</time>
      </trkpt>
      <trkpt lat="48.63263" lon="2.0379">
        <ele>164</ele>
        <time>2010-03-19T12:18:17Z</time>
      </trkpt>
      <trkpt lat="48.63263" lon="2.03793">
        <ele>164</ele>
        <time>2010-03-19T12:18:18Z</time>
      </trkpt>
      <trkpt lat="48.63263" lon="2.03795">
        <ele>164</ele>
        <time>2010-03-19T12:18:19Z</time>
      </trkpt>
      <trkpt lat="48.63263" lon="2.03798">
        <ele>164</ele>
        <time>2010-03-19T12:18:20Z</time>
      </trkpt>
      <trkpt lat="48.63261" lon="2.03801">
        <ele>164</ele>
        <time>2010-03-19T12:18:21Z</time>
      </trkpt>
      <trkpt lat="48.63261" lon="2.03804">
        <ele>164</ele>
        <time>2010-03-19T12:18:22Z</time>
      </trkpt>
      <trkpt lat="48.63261" lon="2.03807">
        <ele>164</ele>
        <time>2010-03-19T12:18:23Z</time>
      </trkpt>
      <trkpt lat="48.63261" lon="2.0381">
        <ele>164</ele>
        <time>2010-03-19T12:18:24Z</time>
      </trkpt>
      <trkpt lat="48.63261" lon="2.03813">
        <ele>164</ele>
        <time>2010-03-19T12:18:25Z</time>
      </trkpt>
      <trkpt lat="48.63261" lon="2.03815">
        <ele>164</ele>
        <time>2010-03-19T12:18:26Z</time>
      </trkpt>
      <trkpt lat="48.63261" lon="2.03818">
        <ele>164</ele>
        <time>2010-03-19T12:18:27Z</time>
      </trkpt>
      <trkpt lat="48.63261" lon="2.03821">
        <ele>164</ele>
        <time>2010-03-19T12:18:28Z</time>
      </trkpt>
      <trkpt lat="48.63261" lon="2.03823">
        <ele>164</ele>
        <time>2010-03-19T12:18:29Z</time>
      </trkpt>
      <trkpt lat="48.6326" lon="2.03826">
        <ele>164</ele>
        <time>2010-03-19T12:18:30Z</time>
      </trkpt>
      <trkpt lat="48.6326" lon="2.03829">
        <ele>164</ele>
        <time>2010-03-19T12:18:31Z</time>
      </trkpt>
      <trkpt lat="48.6326" lon="2.03831">
        <ele>164</ele>
        <time>2010-03-19T12:18:32Z</time>
      </trkpt>
      <trkpt lat="48.63259" lon="2.03834">
        <ele>164</ele>
        <time>2010-03-19T12:18:33Z</time>
      </trkpt>
      <trkpt lat="48.63259" lon="2.03836">
        <ele>164</ele>
        <time>2010-03-19T12:18:34Z</time>
      </trkpt>
      <trkpt lat="48.63259" lon="2.03838">
        <ele>164</ele>
        <time>2010-03-19T12:18:35Z</time>
      </trkpt>
      <trkpt lat="48.63258" lon="2.03841">
        <ele>164</ele>
        <time>2010-03-19T12:18:36Z</time>
      </trkpt>
      <trkpt lat="48.63258" lon="2.03843">
        <ele>164</ele>
        <time>2010-03-19T12:18:37Z</time>
      </trkpt>
      <trkpt lat="48.63257" lon="2.03846">
        <ele>164</ele>
        <time>2010-03-19T12:18:38Z</time>
      </trkpt>
      <trkpt lat="48.63256" lon="2.03848">
        <ele>164</ele>
        <time>2010-03-19T12:18:39Z</time>
      </trkpt>
      <trkpt lat="48.63255" lon="2.03851">
        <ele>164</ele>
        <time>2010-03-19T12:18:40Z</time>
      </trkpt>
      <trkpt lat="48.63255" lon="2.03853">
        <ele>164</ele>
        <time>2010-03-19T12:18:41Z</time>
      </trkpt>
      <trkpt lat="48.63254" lon="2.03855">
        <ele>164</ele>
        <time>2010-03-19T12:18:42Z</time>
      </trkpt>
      <trkpt lat="48.63253" lon="2.03857">
        <ele>164</ele>
        <time>2010-03-19T12:18:43Z</time>
      </trkpt>
      <trkpt lat="48.63251" lon="2.0386">
        <ele>164</ele>
        <time>2010-03-19T12:18:45Z</time>
      </trkpt>
      <trkpt lat="48.6325" lon="2.03861">
        <ele>164</ele>
        <time>2010-03-19T12:18:46Z</time>
      </trkpt>
      <trkpt lat="48.63248" lon="2.03863">
        <ele>164</ele>
        <time>2010-03-19T12:18:47Z</time>
      </trkpt>
      <trkpt lat="48.63247" lon="2.03865">
        <ele>164</ele>
        <time>2010-03-19T12:18:48Z</time>
      </trkpt>
      <trkpt lat="48.63246" lon="2.03867">
        <ele>164</ele>
        <time>2010-03-19T12:18:49Z</time>
      </trkpt>
      <trkpt lat="48.63245" lon="2.03869">
        <ele>164</ele>
        <time>2010-03-19T12:18:50Z</time>
      </trkpt>
      <trkpt lat="48.63243" lon="2.03871">
        <ele>164</ele>
        <time>2010-03-19T12:18:51Z</time>
      </trkpt>
      <trkpt lat="48.63242" lon="2.03872">
        <ele>164</ele>
        <time>2010-03-19T12:18:52Z</time>
      </trkpt>
      <trkpt lat="48.63241" lon="2.03874">
        <ele>164</ele>
        <time>2010-03-19T12:18:53Z</time>
      </trkpt>
      <trkpt lat="48.6324" lon="2.03875">
        <ele>164</ele>
        <time>2010-03-19T12:18:54Z</time>
      </trkpt>
      <trkpt lat="48.63239" lon="2.03877">
        <ele>164</ele>
        <time>2010-03-19T12:18:55Z</time>
      </trkpt>
      <trkpt lat="48.63237" lon="2.03878">
        <ele>164</ele>
        <time>2010-03-19T12:18:56Z</time>
      </trkpt>
      <trkpt lat="48.63236" lon="2.0388">
        <ele>164</ele>
        <time>2010-03-19T12:18:57Z</time>
      </trkpt>
      <trkpt lat="48.63234" lon="2.03882">
        <ele>164</ele>
        <time>2010-03-19T12:18:58Z</time>
      </trkpt>
      <trkpt lat="48.63233" lon="2.03884">
        <ele>164</ele>
        <time>2010-03-19T12:18:59Z</time>
      </trkpt>
      <trkpt lat="48.63232" lon="2.03885">
        <ele>164</ele>
        <time>2010-03-19T12:19:00Z</time>
      </trkpt>
      <trkpt lat="48.63231" lon="2.03887">
        <ele>164</ele>
        <time>2010-03-19T12:19:01Z</time>
      </trkpt>
      <trkpt lat="48.63229" lon="2.03889">
        <ele>164</ele>
        <time>2010-03-19T12:19:02Z</time>
      </trkpt>
      <trkpt lat="48.63228" lon="2.0389">
        <ele>164</ele>
        <time>2010-03-19T12:19:03Z</time>
      </trkpt>
      <trkpt lat="48.63227" lon="2.03892">
        <ele>164</ele>
        <time>2010-03-19T12:19:04Z</time>
      </trkpt>
      <trkpt lat="48.63225" lon="2.03895">
        <ele>164</ele>
        <time>2010-03-19T12:19:06Z</time>
      </trkpt>
      <trkpt lat="48.63223" lon="2.03896">
        <ele>164</ele>
        <time>2010-03-19T12:19:07Z</time>
      </trkpt>
      <trkpt lat="48.63222" lon="2.03898">
        <ele>164</ele>
        <time>2010-03-19T12:19:08Z</time>
      </trkpt>
      <trkpt lat="48.6322" lon="2.039">
        <ele>164</ele>
        <time>2010-03-19T12:19:09Z</time>
      </trkpt>
      <trkpt lat="48.63219" lon="2.03902">
        <ele>164</ele>
        <time>2010-03-19T12:19:10Z</time>
      </trkpt>
      <trkpt lat="48.63218" lon="2.03904">
        <ele>164</ele>
        <time>2010-03-19T12:19:11Z</time>
      </trkpt>
      <trkpt lat="48.63216" lon="2.03906">
        <ele>164</ele>
        <time>2010-03-19T12:19:12Z</time>
      </trkpt>
      <trkpt lat="48.63215" lon="2.03908">
        <ele>164</ele>
        <time>2010-03-19T12:19:13Z</time>
      </trkpt>
      <trkpt lat="48.63214" lon="2.0391">
        <ele>164</ele>
        <time>2010-03-19T12:19:14Z</time>
      </trkpt>
      <trkpt lat="48.63213" lon="2.03912">
        <ele>164</ele>
        <time>2010-03-19T12:19:15Z</time>
      </trkpt>
      <trkpt lat="48.63211" lon="2.03914">
        <ele>164</ele>
        <time>2010-03-19T12:19:16Z</time>
      </trkpt>
      <trkpt lat="48.6321" lon="2.03916">
        <ele>164</ele>
        <time>2010-03-19T12:19:17Z</time>
      </trkpt>
      <trkpt lat="48.63209" lon="2.03918">
        <ele>164</ele>
        <time>2010-03-19T12:19:18Z</time>
      </trkpt>
      <trkpt lat="48.63208" lon="2.0392">
        <ele>164</ele>
        <time>2010-03-19T12:19:19Z</time>
      </trkpt>
      <trkpt lat="48.63207" lon="2.03922">
        <ele>164</ele>
        <time>2010-03-19T12:19:20Z</time>
      </trkpt>
      <trkpt lat="48.63206" lon="2.03924">
        <ele>164</ele>
        <time>2010-03-19T12:19:21Z</time>
      </trkpt>
      <trkpt lat="48.63206" lon="2.03927">
        <ele>164</ele>
        <time>2010-03-19T12:19:22Z</time>
      </trkpt>
      <trkpt lat="48.63205" lon="2.03929">
        <ele>164</ele>
        <time>2010-03-19T12:19:23Z</time>
      </trkpt>
      <trkpt lat="48.63205" lon="2.03932">
        <ele>164</ele>
        <time>2010-03-19T12:19:24Z</time>
      </trkpt>
      <trkpt lat="48.63203" lon="2.03934">
        <ele>164</ele>
        <time>2010-03-19T12:19:25Z</time>
      </trkpt>
      <trkpt lat="48.63203" lon="2.03937">
        <ele>164</ele>
        <time>2010-03-19T12:19:26Z</time>
      </trkpt>
      <trkpt lat="48.63202" lon="2.03939">
        <ele>164</ele>
        <time>2010-03-19T12:19:27Z</time>
      </trkpt>
      <trkpt lat="48.63202" lon="2.03941">
        <ele>163</ele>
        <time>2010-03-19T12:19:28Z</time>
      </trkpt>
      <trkpt lat="48.63201" lon="2.03943">
        <ele>163</ele>
        <time>2010-03-19T12:19:29Z</time>
      </trkpt>
      <trkpt lat="48.632" lon="2.03945">
        <ele>163</ele>
        <time>2010-03-19T12:19:30Z</time>
      </trkpt>
      <trkpt lat="48.632" lon="2.03948">
        <ele>163</ele>
        <time>2010-03-19T12:19:31Z</time>
      </trkpt>
      <trkpt lat="48.63199" lon="2.0395">
        <ele>163</ele>
        <time>2010-03-19T12:19:32Z</time>
      </trkpt>
      <trkpt lat="48.63199" lon="2.03953">
        <ele>163</ele>
        <time>2010-03-19T12:19:33Z</time>
      </trkpt>
      <trkpt lat="48.63198" lon="2.03955">
        <ele>163</ele>
        <time>2010-03-19T12:19:34Z</time>
      </trkpt>
      <trkpt lat="48.63198" lon="2.03958">
        <ele>163</ele>
        <time>2010-03-19T12:19:35Z</time>
      </trkpt>
      <trkpt lat="48.63197" lon="2.0396">
        <ele>163</ele>
        <time>2010-03-19T12:19:36Z</time>
      </trkpt>
      <trkpt lat="48.63197" lon="2.03963">
        <ele>163</ele>
        <time>2010-03-19T12:19:37Z</time>
      </trkpt>
      <trkpt lat="48.63195" lon="2.03965">
        <ele>162</ele>
        <time>2010-03-19T12:19:38Z</time>
      </trkpt>
      <trkpt lat="48.63195" lon="2.03967">
        <ele>162</ele>
        <time>2010-03-19T12:19:39Z</time>
      </trkpt>
      <trkpt lat="48.63194" lon="2.0397">
        <ele>162</ele>
        <time>2010-03-19T12:19:40Z</time>
      </trkpt>
      <trkpt lat="48.63194" lon="2.03973">
        <ele>162</ele>
        <time>2010-03-19T12:19:41Z</time>
      </trkpt>
      <trkpt lat="48.63193" lon="2.03975">
        <ele>162</ele>
        <time>2010-03-19T12:19:42Z</time>
      </trkpt>
      <trkpt lat="48.63193" lon="2.03978">
        <ele>162</ele>
        <time>2010-03-19T12:19:43Z</time>
      </trkpt>
      <trkpt lat="48.63193" lon="2.0398">
        <ele>162</ele>
        <time>2010-03-19T12:19:44Z</time>
      </trkpt>
      <trkpt lat="48.63192" lon="2.03983">
        <ele>162</ele>
        <time>2010-03-19T12:19:45Z</time>
      </trkpt>
      <trkpt lat="48.63192" lon="2.03986">
        <ele>162</ele>
        <time>2010-03-19T12:19:46Z</time>
      </trkpt>
      <trkpt lat="48.63191" lon="2.03988">
        <ele>162</ele>
        <time>2010-03-19T12:19:47Z</time>
      </trkpt>
      <trkpt lat="48.63191" lon="2.03991">
        <ele>161</ele>
        <time>2010-03-19T12:19:48Z</time>
      </trkpt>
      <trkpt lat="48.6319" lon="2.03992">
        <ele>161</ele>
        <time>2010-03-19T12:19:49Z</time>
      </trkpt>
      <trkpt lat="48.6319" lon="2.03994">
        <ele>161</ele>
        <time>2010-03-19T12:19:50Z</time>
      </trkpt>
      <trkpt lat="48.63189" lon="2.03996">
        <ele>161</ele>
        <time>2010-03-19T12:19:51Z</time>
      </trkpt>
      <trkpt lat="48.63189" lon="2.03999">
        <ele>161</ele>
        <time>2010-03-19T12:19:52Z</time>
      </trkpt>
      <trkpt lat="48.63188" lon="2.04001">
        <ele>161</ele>
        <time>2010-03-19T12:19:53Z</time>
      </trkpt>
      <trkpt lat="48.63188" lon="2.04004">
        <ele>161</ele>
        <time>2010-03-19T12:19:54Z</time>
      </trkpt>
      <trkpt lat="48.63187" lon="2.04006">
        <ele>160</ele>
        <time>2010-03-19T12:19:55Z</time>
      </trkpt>
      <trkpt lat="48.63187" lon="2.04009">
        <ele>160</ele>
        <time>2010-03-19T12:19:56Z</time>
      </trkpt>
      <trkpt lat="48.63186" lon="2.04011">
        <ele>160</ele>
        <time>2010-03-19T12:19:57Z</time>
      </trkpt>
      <trkpt lat="48.63186" lon="2.04013">
        <ele>160</ele>
        <time>2010-03-19T12:19:58Z</time>
      </trkpt>
      <trkpt lat="48.63185" lon="2.04015">
        <ele>160</ele>
        <time>2010-03-19T12:19:59Z</time>
      </trkpt>
      <trkpt lat="48.63185" lon="2.04018">
        <ele>160</ele>
        <time>2010-03-19T12:20:00Z</time>
      </trkpt>
      <trkpt lat="48.63184" lon="2.0402">
        <ele>160</ele>
        <time>2010-03-19T12:20:01Z</time>
      </trkpt>
      <trkpt lat="48.63184" lon="2.04023">
        <ele>160</ele>
        <time>2010-03-19T12:20:02Z</time>
      </trkpt>
      <trkpt lat="48.63184" lon="2.04025">
        <ele>160</ele>
        <time>2010-03-19T12:20:03Z</time>
      </trkpt>
      <trkpt lat="48.63184" lon="2.04027">
        <ele>159</ele>
        <time>2010-03-19T12:20:04Z</time>
      </trkpt>
      <trkpt lat="48.63184" lon="2.04029">
        <ele>159</ele>
        <time>2010-03-19T12:20:05Z</time>
      </trkpt>
      <trkpt lat="48.63183" lon="2.04032">
        <ele>159</ele>
        <time>2010-03-19T12:20:06Z</time>
      </trkpt>
      <trkpt lat="48.63183" lon="2.04034">
        <ele>159</ele>
        <time>2010-03-19T12:20:07Z</time>
      </trkpt>
      <trkpt lat="48.63183" lon="2.04036">
        <ele>158</ele>
        <time>2010-03-19T12:20:08Z</time>
      </trkpt>
      <trkpt lat="48.63182" lon="2.04039">
        <ele>158</ele>
        <time>2010-03-19T12:20:09Z</time>
      </trkpt>
      <trkpt lat="48.63182" lon="2.04041">
        <ele>158</ele>
        <time>2010-03-19T12:20:10Z</time>
      </trkpt>
      <trkpt lat="48.63182" lon="2.04043">
        <ele>158</ele>
        <time>2010-03-19T12:20:11Z</time>
      </trkpt>
      <trkpt lat="48.63182" lon="2.04045">
        <ele>158</ele>
        <time>2010-03-19T12:20:12Z</time>
      </trkpt>
      <trkpt lat="48.63181" lon="2.04047">
        <ele>157</ele>
        <time>2010-03-19T12:20:13Z</time>
      </trkpt>
      <trkpt lat="48.63181" lon="2.0405">
        <ele>157</ele>
        <time>2010-03-19T12:20:14Z</time>
      </trkpt>
      <trkpt lat="48.63181" lon="2.04052">
        <ele>157</ele>
        <time>2010-03-19T12:20:15Z</time>
      </trkpt>
      <trkpt lat="48.63181" lon="2.04054">
        <ele>157</ele>
        <time>2010-03-19T12:20:16Z</time>
      </trkpt>
      <trkpt lat="48.63181" lon="2.04057">
        <ele>157</ele>
        <time>2010-03-19T12:20:17Z</time>
      </trkpt>
      <trkpt lat="48.63181" lon="2.04059">
        <ele>156</ele>
        <time>2010-03-19T12:20:18Z</time>
      </trkpt>
      <trkpt lat="48.63181" lon="2.04061">
        <ele>156</ele>
        <time>2010-03-19T12:20:19Z</time>
      </trkpt>
      <trkpt lat="48.63181" lon="2.04063">
        <ele>156</ele>
        <time>2010-03-19T12:20:20Z</time>
      </trkpt>
      <trkpt lat="48.63181" lon="2.04066">
        <ele>156</ele>
        <time>2010-03-19T12:20:21Z</time>
      </trkpt>
      <trkpt lat="48.63181" lon="2.04068">
        <ele>156</ele>
        <time>2010-03-19T12:20:22Z</time>
      </trkpt>
      <trkpt lat="48.63182" lon="2.04071">
        <ele>156</ele>
        <time>2010-03-19T12:20:23Z</time>
      </trkpt>
      <trkpt lat="48.63182" lon="2.04073">
        <ele>156</ele>
        <time>2010-03-19T12:20:24Z</time>
      </trkpt>
      <trkpt lat="48.63182" lon="2.04075">
        <ele>155</ele>
        <time>2010-03-19T12:20:25Z</time>
      </trkpt>
      <trkpt lat="48.63183" lon="2.04078">
        <ele>155</ele>
        <time>2010-03-19T12:20:26Z</time>
      </trkpt>
      <trkpt lat="48.63183" lon="2.0408">
        <ele>155</ele>
        <time>2010-03-19T12:20:27Z</time>
      </trkpt>
      <trkpt lat="48.63183" lon="2.04083">
        <ele>155</ele>
        <time>2010-03-19T12:20:28Z</time>
      </trkpt>
      <trkpt lat="48.63183" lon="2.04086">
        <ele>155</ele>
        <time>2010-03-19T12:20:29Z</time>
      </trkpt>
      <trkpt lat="48.63183" lon="2.04088">
        <ele>155</ele>
        <time>2010-03-19T12:20:30Z</time>
      </trkpt>
      <trkpt lat="48.63183" lon="2.04091">
        <ele>155</ele>
        <time>2010-03-19T12:20:31Z</time>
      </trkpt>
      <trkpt lat="48.63183" lon="2.04093">
        <ele>155</ele>
        <time>2010-03-19T12:20:32Z</time>
      </trkpt>
      <trkpt lat="48.63183" lon="2.04096">
        <ele>154</ele>
        <time>2010-03-19T12:20:33Z</time>
      </trkpt>
      <trkpt lat="48.63183" lon="2.04098">
        <ele>154</ele>
        <time>2010-03-19T12:20:34Z</time>
      </trkpt>
      <trkpt lat="48.63183" lon="2.041">
        <ele>154</ele>
        <time>2010-03-19T12:20:35Z</time>
      </trkpt>
      <trkpt lat="48.63183" lon="2.04103">
        <ele>154</ele>
        <time>2010-03-19T12:20:36Z</time>
      </trkpt>
      <trkpt lat="48.63183" lon="2.04106">
        <ele>154</ele>
        <time>2010-03-19T12:20:37Z</time>
      </trkpt>
      <trkpt lat="48.63183" lon="2.04109">
        <ele>154</ele>
        <time>2010-03-19T12:20:38Z</time>
      </trkpt>
      <trkpt lat="48.63183" lon="2.04111">
        <ele>154</ele>
        <time>2010-03-19T12:20:39Z</time>
      </trkpt>
      <trkpt lat="48.63183" lon="2.04114">
        <ele>154</ele>
        <time>2010-03-19T12:20:40Z</time>
      </trkpt>
      <trkpt lat="48.63183" lon="2.04116">
        <ele>153</ele>
        <time>2010-03-19T12:20:41Z</time>
      </trkpt>
      <trkpt lat="48.63182" lon="2.04118">
        <ele>153</ele>
        <time>2010-03-19T12:20:42Z</time>
      </trkpt>
      <trkpt lat="48.63182" lon="2.04121">
        <ele>153</ele>
        <time>2010-03-19T12:20:43Z</time>
      </trkpt>
      <trkpt lat="48.63182" lon="2.04123">
        <ele>153</ele>
        <time>2010-03-19T12:20:44Z</time>
      </trkpt>
      <trkpt lat="48.63181" lon="2.04126">
        <ele>153</ele>
        <time>2010-03-19T12:20:45Z</time>
      </trkpt>
      <trkpt lat="48.63181" lon="2.04128">
        <ele>153</ele>
        <time>2010-03-19T12:20:46Z</time>
      </trkpt>
      <trkpt lat="48.63181" lon="2.04131">
        <ele>153</ele>
        <time>2010-03-19T12:20:47Z</time>
      </trkpt>
      <trkpt lat="48.6318" lon="2.04133">
        <ele>153</ele>
        <time>2010-03-19T12:20:48Z</time>
      </trkpt>
      <trkpt lat="48.6318" lon="2.04135">
        <ele>152</ele>
        <time>2010-03-19T12:20:49Z</time>
      </trkpt>
      <trkpt lat="48.63179" lon="2.04138">
        <ele>152</ele>
        <time>2010-03-19T12:20:50Z</time>
      </trkpt>
      <trkpt lat="48.63178" lon="2.0414">
        <ele>152</ele>
        <time>2010-03-19T12:20:51Z</time>
      </trkpt>
      <trkpt lat="48.63177" lon="2.04143">
        <ele>152</ele>
        <time>2010-03-19T12:20:52Z</time>
      </trkpt>
      <trkpt lat="48.63176" lon="2.04145">
        <ele>152</ele>
        <time>2010-03-19T12:20:53Z</time>
      </trkpt>
      <trkpt lat="48.63176" lon="2.04147">
        <ele>152</ele>
        <time>2010-03-19T12:20:54Z</time>
      </trkpt>
      <trkpt lat="48.63175" lon="2.0415">
        <ele>152</ele>
        <time>2010-03-19T12:20:55Z</time>
      </trkpt>
      <trkpt lat="48.63174" lon="2.04152">
        <ele>152</ele>
        <time>2010-03-19T12:20:56Z</time>
      </trkpt>
      <trkpt lat="48.63173" lon="2.04154">
        <ele>152</ele>
        <time>2010-03-19T12:20:57Z</time>
      </trkpt>
      <trkpt lat="48.63172" lon="2.04156">
        <ele>152</ele>
        <time>2010-03-19T12:20:58Z</time>
      </trkpt>
      <trkpt lat="48.6317" lon="2.04158">
        <ele>152</ele>
        <time>2010-03-19T12:20:59Z</time>
      </trkpt>
      <trkpt lat="48.63169" lon="2.04159">
        <ele>152</ele>
        <time>2010-03-19T12:21:00Z</time>
      </trkpt>
      <trkpt lat="48.63168" lon="2.04161">
        <ele>152</ele>
        <time>2010-03-19T12:21:01Z</time>
      </trkpt>
      <trkpt lat="48.63166" lon="2.04163">
        <ele>152</ele>
        <time>2010-03-19T12:21:02Z</time>
      </trkpt>
      <trkpt lat="48.63165" lon="2.04164">
        <ele>151</ele>
        <time>2010-03-19T12:21:03Z</time>
      </trkpt>
      <trkpt lat="48.63163" lon="2.04165">
        <ele>151</ele>
        <time>2010-03-19T12:21:04Z</time>
      </trkpt>
      <trkpt lat="48.63161" lon="2.04167">
        <ele>151</ele>
        <time>2010-03-19T12:21:05Z</time>
      </trkpt>
      <trkpt lat="48.6316" lon="2.04168">
        <ele>151</ele>
        <time>2010-03-19T12:21:06Z</time>
      </trkpt>
      <trkpt lat="48.63158" lon="2.04169">
        <ele>151</ele>
        <time>2010-03-19T12:21:07Z</time>
      </trkpt>
      <trkpt lat="48.63157" lon="2.0417">
        <ele>151</ele>
        <time>2010-03-19T12:21:08Z</time>
      </trkpt>
      <trkpt lat="48.63155" lon="2.04171">
        <ele>151</ele>
        <time>2010-03-19T12:21:09Z</time>
      </trkpt>
      <trkpt lat="48.63153" lon="2.04171">
        <ele>151</ele>
        <time>2010-03-19T12:21:10Z</time>
      </trkpt>
      <trkpt lat="48.63152" lon="2.04172">
        <ele>151</ele>
        <time>2010-03-19T12:21:11Z</time>
      </trkpt>
      <trkpt lat="48.6315" lon="2.04172">
        <ele>151</ele>
        <time>2010-03-19T12:21:12Z</time>
      </trkpt>
      <trkpt lat="48.63148" lon="2.04172">
        <ele>151</ele>
        <time>2010-03-19T12:21:13Z</time>
      </trkpt>
      <trkpt lat="48.63147" lon="2.04172">
        <ele>150</ele>
        <time>2010-03-19T12:21:14Z</time>
      </trkpt>
      <trkpt lat="48.63145" lon="2.04172">
        <ele>150</ele>
        <time>2010-03-19T12:21:15Z</time>
      </trkpt>
      <trkpt lat="48.63143" lon="2.04172">
        <ele>150</ele>
        <time>2010-03-19T12:21:16Z</time>
      </trkpt>
      <trkpt lat="48.63142" lon="2.04172">
        <ele>150</ele>
        <time>2010-03-19T12:21:17Z</time>
      </trkpt>
      <trkpt lat="48.6314" lon="2.04172">
        <ele>150</ele>
        <time>2010-03-19T12:21:18Z</time>
      </trkpt>
      <trkpt lat="48.63139" lon="2.04172">
        <ele>150</ele>
        <time>2010-03-19T12:21:19Z</time>
      </trkpt>
      <trkpt lat="48.63136" lon="2.04172">
        <ele>150</ele>
        <time>2010-03-19T12:21:20Z</time>
      </trkpt>
      <trkpt lat="48.63135" lon="2.04172">
        <ele>150</ele>
        <time>2010-03-19T12:21:21Z</time>
      </trkpt>
      <trkpt lat="48.63133" lon="2.04172">
        <ele>150</ele>
        <time>2010-03-19T12:21:22Z</time>
      </trkpt>
      <trkpt lat="48.63132" lon="2.04172">
        <ele>150</ele>
        <time>2010-03-19T12:21:23Z</time>
      </trkpt>
      <trkpt lat="48.63129" lon="2.04172">
        <ele>150</ele>
        <time>2010-03-19T12:21:24Z</time>
      </trkpt>
      <trkpt lat="48.63128" lon="2.04171">
        <ele>150</ele>
        <time>2010-03-19T12:21:25Z</time>
      </trkpt>
      <trkpt lat="48.63126" lon="2.04171">
        <ele>150</ele>
        <time>2010-03-19T12:21:26Z</time>
      </trkpt>
      <trkpt lat="48.63124" lon="2.04171">
        <ele>150</ele>
        <time>2010-03-19T12:21:27Z</time>
      </trkpt>
      <trkpt lat="48.63123" lon="2.04171">
        <ele>150</ele>
        <time>2010-03-19T12:21:28Z</time>
      </trkpt>
      <trkpt lat="48.63121" lon="2.0417">
        <ele>150</ele>
        <time>2010-03-19T12:21:29Z</time>
      </trkpt>
      <trkpt lat="48.63119" lon="2.04171">
        <ele>150</ele>
        <time>2010-03-19T12:21:30Z</time>
      </trkpt>
      <trkpt lat="48.63118" lon="2.04171">
        <ele>150</ele>
        <time>2010-03-19T12:21:31Z</time>
      </trkpt>
      <trkpt lat="48.63116" lon="2.04172">
        <ele>150</ele>
        <time>2010-03-19T12:21:32Z</time>
      </trkpt>
      <trkpt lat="48.63115" lon="2.04172">
        <ele>150</ele>
        <time>2010-03-19T12:21:33Z</time>
      </trkpt>
      <trkpt lat="48.63112" lon="2.04172">
        <ele>150</ele>
        <time>2010-03-19T12:21:34Z</time>
      </trkpt>
      <trkpt lat="48.63111" lon="2.04173">
        <ele>150</ele>
        <time>2010-03-19T12:21:35Z</time>
      </trkpt>
      <trkpt lat="48.63109" lon="2.04174">
        <ele>150</ele>
        <time>2010-03-19T12:21:36Z</time>
      </trkpt>
      <trkpt lat="48.63108" lon="2.04175">
        <ele>150</ele>
        <time>2010-03-19T12:21:37Z</time>
      </trkpt>
      <trkpt lat="48.63106" lon="2.04175">
        <ele>150</ele>
        <time>2010-03-19T12:21:38Z</time>
      </trkpt>
      <trkpt lat="48.63104" lon="2.04176">
        <ele>150</ele>
        <time>2010-03-19T12:21:39Z</time>
      </trkpt>
      <trkpt lat="48.63102" lon="2.04177">
        <ele>150</ele>
        <time>2010-03-19T12:21:40Z</time>
      </trkpt>
      <trkpt lat="48.631" lon="2.04178">
        <ele>150</ele>
        <time>2010-03-19T12:21:41Z</time>
      </trkpt>
      <trkpt lat="48.63099" lon="2.0418">
        <ele>150</ele>
        <time>2010-03-19T12:21:42Z</time>
      </trkpt>
      <trkpt lat="48.63097" lon="2.04181">
        <ele>150</ele>
        <time>2010-03-19T12:21:43Z</time>
      </trkpt>
      <trkpt lat="48.63096" lon="2.04182">
        <ele>150</ele>
        <time>2010-03-19T12:21:44Z</time>
      </trkpt>
      <trkpt lat="48.63095" lon="2.04184">
        <ele>150</ele>
        <time>2010-03-19T12:21:45Z</time>
      </trkpt>
      <trkpt lat="48.63094" lon="2.04186">
        <ele>150</ele>
        <time>2010-03-19T12:21:46Z</time>
      </trkpt>
      <trkpt lat="48.63092" lon="2.04188">
        <ele>150</ele>
        <time>2010-03-19T12:21:47Z</time>
      </trkpt>
      <trkpt lat="48.63092" lon="2.0419">
        <ele>150</ele>
        <time>2010-03-19T12:21:48Z</time>
      </trkpt>
      <trkpt lat="48.63091" lon="2.04192">
        <ele>150</ele>
        <time>2010-03-19T12:21:49Z</time>
      </trkpt>
      <trkpt lat="48.6309" lon="2.04193">
        <ele>150</ele>
        <time>2010-03-19T12:21:50Z</time>
      </trkpt>
      <trkpt lat="48.63089" lon="2.04195">
        <ele>150</ele>
        <time>2010-03-19T12:21:51Z</time>
      </trkpt>
      <trkpt lat="48.63087" lon="2.04198">
        <ele>150</ele>
        <time>2010-03-19T12:21:52Z</time>
      </trkpt>
      <trkpt lat="48.63087" lon="2.042">
        <ele>150</ele>
        <time>2010-03-19T12:21:53Z</time>
      </trkpt>
      <trkpt lat="48.63086" lon="2.04202">
        <ele>150</ele>
        <time>2010-03-19T12:21:54Z</time>
      </trkpt>
      <trkpt lat="48.63085" lon="2.04204">
        <ele>150</ele>
        <time>2010-03-19T12:21:55Z</time>
      </trkpt>
      <trkpt lat="48.63084" lon="2.04206">
        <ele>150</ele>
        <time>2010-03-19T12:21:56Z</time>
      </trkpt>
      <trkpt lat="48.63083" lon="2.04208">
        <ele>150</ele>
        <time>2010-03-19T12:21:57Z</time>
      </trkpt>
      <trkpt lat="48.63082" lon="2.0421">
        <ele>150</ele>
        <time>2010-03-19T12:21:58Z</time>
      </trkpt>
      <trkpt lat="48.63081" lon="2.04212">
        <ele>150</ele>
        <time>2010-03-19T12:21:59Z</time>
      </trkpt>
      <trkpt lat="48.6308" lon="2.04214">
        <ele>150</ele>
        <time>2010-03-19T12:22:00Z</time>
      </trkpt>
      <trkpt lat="48.63079" lon="2.04216">
        <ele>150</ele>
        <time>2010-03-19T12:22:01Z</time>
      </trkpt>
      <trkpt lat="48.63078" lon="2.04218">
        <ele>150</ele>
        <time>2010-03-19T12:22:02Z</time>
      </trkpt>
      <trkpt lat="48.63077" lon="2.0422">
        <ele>150</ele>
        <time>2010-03-19T12:22:03Z</time>
      </trkpt>
      <trkpt lat="48.63076" lon="2.04222">
        <ele>150</ele>
        <time>2010-03-19T12:22:04Z</time>
      </trkpt>
      <trkpt lat="48.63074" lon="2.04224">
        <ele>150</ele>
        <time>2010-03-19T12:22:05Z</time>
      </trkpt>
      <trkpt lat="48.63073" lon="2.04226">
        <ele>150</ele>
        <time>2010-03-19T12:22:06Z</time>
      </trkpt>
      <trkpt lat="48.63072" lon="2.04228">
        <ele>150</ele>
        <time>2010-03-19T12:22:07Z</time>
      </trkpt>
      <trkpt lat="48.6307" lon="2.04229">
        <ele>150</ele>
        <time>2010-03-19T12:22:08Z</time>
      </trkpt>
      <trkpt lat="48.63068" lon="2.0423">
        <ele>150</ele>
        <time>2010-03-19T12:22:09Z</time>
      </trkpt>
      <trkpt lat="48.63066" lon="2.04231">
        <ele>150</ele>
        <time>2010-03-19T12:22:10Z</time>
      </trkpt>
      <trkpt lat="48.63065" lon="2.04233">
        <ele>150</ele>
        <time>2010-03-19T12:22:11Z</time>
      </trkpt>
      <trkpt lat="48.63065" lon="2.04235">
        <ele>150</ele>
        <time>2010-03-19T12:22:12Z</time>
      </trkpt>
      <trkpt lat="48.63064" lon="2.04237">
        <ele>150</ele>
        <time>2010-03-19T12:22:13Z</time>
      </trkpt>
      <trkpt lat="48.63063" lon="2.04239">
        <ele>150</ele>
        <time>2010-03-19T12:22:14Z</time>
      </trkpt>
      <trkpt lat="48.63063" lon="2.04241">
        <ele>150</ele>
        <time>2010-03-19T12:22:15Z</time>
      </trkpt>
      <trkpt lat="48.63062" lon="2.04243">
        <ele>150</ele>
        <time>2010-03-19T12:22:16Z</time>
      </trkpt>
      <trkpt lat="48.63061" lon="2.04245">
        <ele>150</ele>
        <time>2010-03-19T12:22:17Z</time>
      </trkpt>
      <trkpt lat="48.6306" lon="2.04246">
        <ele>150</ele>
        <time>2010-03-19T12:22:18Z</time>
      </trkpt>
      <trkpt lat="48.63059" lon="2.04246">
        <ele>150</ele>
        <time>2010-03-19T12:22:19Z</time>
      </trkpt>
      <trkpt lat="48.63058" lon="2.04245">
        <ele>150</ele>
        <time>2010-03-19T12:22:20Z</time>
      </trkpt>
      <trkpt lat="48.63057" lon="2.04242">
        <ele>150</ele>
        <time>2010-03-19T12:22:22Z</time>
      </trkpt>
      <trkpt lat="48.63057" lon="2.04241">
        <ele>150</ele>
        <time>2010-03-19T12:22:23Z</time>
      </trkpt>
      <trkpt lat="48.63058" lon="2.04242">
        <ele>150</ele>
        <time>2010-03-19T12:22:25Z</time>
      </trkpt>
      <trkpt lat="48.63059" lon="2.04245">
        <ele>150</ele>
        <time>2010-03-19T12:22:26Z</time>
      </trkpt>
      <trkpt lat="48.63058" lon="2.04249">
        <ele>150</ele>
        <time>2010-03-19T12:22:27Z</time>
      </trkpt>
      <trkpt lat="48.63057" lon="2.04253">
        <ele>150</ele>
        <time>2010-03-19T12:22:28Z</time>
      </trkpt>
      <trkpt lat="48.63056" lon="2.04257">
        <ele>150</ele>
        <time>2010-03-19T12:22:29Z</time>
      </trkpt>
      <trkpt lat="48.63054" lon="2.0426">
        <ele>150</ele>
        <time>2010-03-19T12:22:30Z</time>
      </trkpt>
      <trkpt lat="48.63053" lon="2.04263">
        <ele>150</ele>
        <time>2010-03-19T12:22:31Z</time>
      </trkpt>
      <trkpt lat="48.63052" lon="2.04266">
        <ele>150</ele>
        <time>2010-03-19T12:22:32Z</time>
      </trkpt>
      <trkpt lat="48.63051" lon="2.04268">
        <ele>150</ele>
        <time>2010-03-19T12:22:33Z</time>
      </trkpt>
      <trkpt lat="48.6305" lon="2.0427">
        <ele>150</ele>
        <time>2010-03-19T12:22:34Z</time>
      </trkpt>
      <trkpt lat="48.6305" lon="2.04272">
        <ele>150</ele>
        <time>2010-03-19T12:22:35Z</time>
      </trkpt>
      <trkpt lat="48.63049" lon="2.04274">
        <ele>150</ele>
        <time>2010-03-19T12:22:36Z</time>
      </trkpt>
      <trkpt lat="48.63048" lon="2.04276">
        <ele>150</ele>
        <time>2010-03-19T12:22:37Z</time>
      </trkpt>
      <trkpt lat="48.63047" lon="2.04278">
        <ele>150</ele>
        <time>2010-03-19T12:22:38Z</time>
      </trkpt>
      <trkpt lat="48.63046" lon="2.0428">
        <ele>150</ele>
        <time>2010-03-19T12:22:39Z</time>
      </trkpt>
      <trkpt lat="48.63046" lon="2.04282">
        <ele>150</ele>
        <time>2010-03-19T12:22:40Z</time>
      </trkpt>
      <trkpt lat="48.63045" lon="2.04284">
        <ele>150</ele>
        <time>2010-03-19T12:22:41Z</time>
      </trkpt>
      <trkpt lat="48.63044" lon="2.04286">
        <ele>150</ele>
        <time>2010-03-19T12:22:42Z</time>
      </trkpt>
      <trkpt lat="48.63043" lon="2.04288">
        <ele>150</ele>
        <time>2010-03-19T12:22:43Z</time>
      </trkpt>
      <trkpt lat="48.63043" lon="2.0429">
        <ele>150</ele>
        <time>2010-03-19T12:22:44Z</time>
      </trkpt>
      <trkpt lat="48.63042" lon="2.04292">
        <ele>150</ele>
        <time>2010-03-19T12:22:45Z</time>
      </trkpt>
      <trkpt lat="48.63041" lon="2.04294">
        <ele>150</ele>
        <time>2010-03-19T12:22:46Z</time>
      </trkpt>
      <trkpt lat="48.6304" lon="2.04296">
        <ele>150</ele>
        <time>2010-03-19T12:22:47Z</time>
      </trkpt>
      <trkpt lat="48.63039" lon="2.04298">
        <ele>150</ele>
        <time>2010-03-19T12:22:48Z</time>
      </trkpt>
      <trkpt lat="48.63038" lon="2.043">
        <ele>150</ele>
        <time>2010-03-19T12:22:49Z</time>
      </trkpt>
      <trkpt lat="48.63038" lon="2.04303">
        <ele>150</ele>
        <time>2010-03-19T12:22:50Z</time>
      </trkpt>
      <trkpt lat="48.63037" lon="2.04305">
        <ele>150</ele>
        <time>2010-03-19T12:22:51Z</time>
      </trkpt>
      <trkpt lat="48.63036" lon="2.04307">
        <ele>150</ele>
        <time>2010-03-19T12:22:52Z</time>
      </trkpt>
      <trkpt lat="48.63036" lon="2.04309">
        <ele>150</ele>
        <time>2010-03-19T12:22:53Z</time>
      </trkpt>
      <trkpt lat="48.63035" lon="2.04311">
        <ele>150</ele>
        <time>2010-03-19T12:22:54Z</time>
      </trkpt>
      <trkpt lat="48.63034" lon="2.04313">
        <ele>149</ele>
        <time>2010-03-19T12:22:55Z</time>
      </trkpt>
      <trkpt lat="48.63033" lon="2.04315">
        <ele>149</ele>
        <time>2010-03-19T12:22:56Z</time>
      </trkpt>
      <trkpt lat="48.63033" lon="2.04317">
        <ele>149</ele>
        <time>2010-03-19T12:22:57Z</time>
      </trkpt>
      <trkpt lat="48.63032" lon="2.04319">
        <ele>148</ele>
        <time>2010-03-19T12:22:58Z</time>
      </trkpt>
      <trkpt lat="48.63031" lon="2.04321">
        <ele>148</ele>
        <time>2010-03-19T12:22:59Z</time>
      </trkpt>
      <trkpt lat="48.6303" lon="2.04323">
        <ele>148</ele>
        <time>2010-03-19T12:23:00Z</time>
      </trkpt>
      <trkpt lat="48.63029" lon="2.04325">
        <ele>148</ele>
        <time>2010-03-19T12:23:01Z</time>
      </trkpt>
      <trkpt lat="48.63029" lon="2.04327">
        <ele>147</ele>
        <time>2010-03-19T12:23:02Z</time>
      </trkpt>
      <trkpt lat="48.63028" lon="2.04329">
        <ele>147</ele>
        <time>2010-03-19T12:23:03Z</time>
      </trkpt>
      <trkpt lat="48.63028" lon="2.0433">
        <ele>147</ele>
        <time>2010-03-19T12:23:04Z</time>
      </trkpt>
      <trkpt lat="48.63027" lon="2.04332">
        <ele>147</ele>
        <time>2010-03-19T12:23:05Z</time>
      </trkpt>
      <trkpt lat="48.63026" lon="2.04334">
        <ele>146</ele>
        <time>2010-03-19T12:23:06Z</time>
      </trkpt>
      <trkpt lat="48.63026" lon="2.04336">
        <ele>146</ele>
        <time>2010-03-19T12:23:07Z</time>
      </trkpt>
      <trkpt lat="48.63025" lon="2.04338">
        <ele>146</ele>
        <time>2010-03-19T12:23:08Z</time>
      </trkpt>
      <trkpt lat="48.63024" lon="2.04341">
        <ele>146</ele>
        <time>2010-03-19T12:23:09Z</time>
      </trkpt>
      <trkpt lat="48.63023" lon="2.04343">
        <ele>146</ele>
        <time>2010-03-19T12:23:10Z</time>
      </trkpt>
      <trkpt lat="48.63022" lon="2.04345">
        <ele>146</ele>
        <time>2010-03-19T12:23:11Z</time>
      </trkpt>
      <trkpt lat="48.63021" lon="2.04347">
        <ele>146</ele>
        <time>2010-03-19T12:23:12Z</time>
      </trkpt>
      <trkpt lat="48.6302" lon="2.04349">
        <ele>146</ele>
        <time>2010-03-19T12:23:13Z</time>
      </trkpt>
      <trkpt lat="48.6302" lon="2.04351">
        <ele>146</ele>
        <time>2010-03-19T12:23:14Z</time>
      </trkpt>
      <trkpt lat="48.63019" lon="2.04354">
        <ele>146</ele>
        <time>2010-03-19T12:23:15Z</time>
      </trkpt>
      <trkpt lat="48.63018" lon="2.04356">
        <ele>146</ele>
        <time>2010-03-19T12:23:16Z</time>
      </trkpt>
      <trkpt lat="48.63017" lon="2.04359">
        <ele>146</ele>
        <time>2010-03-19T12:23:17Z</time>
      </trkpt>
      <trkpt lat="48.63016" lon="2.04361">
        <ele>146</ele>
        <time>2010-03-19T12:23:18Z</time>
      </trkpt>
      <trkpt lat="48.63015" lon="2.04363">
        <ele>146</ele>
        <time>2010-03-19T12:23:19Z</time>
      </trkpt>
      <trkpt lat="48.63014" lon="2.04366">
        <ele>146</ele>
        <time>2010-03-19T12:23:20Z</time>
      </trkpt>
      <trkpt lat="48.63014" lon="2.04368">
        <ele>146</ele>
        <time>2010-03-19T12:23:21Z</time>
      </trkpt>
      <trkpt lat="48.63013" lon="2.0437">
        <ele>146</ele>
        <time>2010-03-19T12:23:22Z</time>
      </trkpt>
      <trkpt lat="48.63012" lon="2.04372">
        <ele>146</ele>
        <time>2010-03-19T12:23:23Z</time>
      </trkpt>
      <trkpt lat="48.63012" lon="2.04375">
        <ele>146</ele>
        <time>2010-03-19T12:23:24Z</time>
      </trkpt>
      <trkpt lat="48.6301" lon="2.04377">
        <ele>146</ele>
        <time>2010-03-19T12:23:25Z</time>
      </trkpt>
      <trkpt lat="48.63009" lon="2.0438">
        <ele>146</ele>
        <time>2010-03-19T12:23:26Z</time>
      </trkpt>
      <trkpt lat="48.63008" lon="2.04382">
        <ele>146</ele>
        <time>2010-03-19T12:23:27Z</time>
      </trkpt>
      <trkpt lat="48.63006" lon="2.04384">
        <ele>146</ele>
        <time>2010-03-19T12:23:28Z</time>
      </trkpt>
      <trkpt lat="48.63005" lon="2.04387">
        <ele>146</ele>
        <time>2010-03-19T12:23:29Z</time>
      </trkpt>
      <trkpt lat="48.63005" lon="2.04389">
        <ele>146</ele>
        <time>2010-03-19T12:23:30Z</time>
      </trkpt>
      <trkpt lat="48.63004" lon="2.04392">
        <ele>145</ele>
        <time>2010-03-19T12:23:31Z</time>
      </trkpt>
      <trkpt lat="48.63002" lon="2.04394">
        <ele>145</ele>
        <time>2010-03-19T12:23:32Z</time>
      </trkpt>
      <trkpt lat="48.63002" lon="2.04396">
        <ele>145</ele>
        <time>2010-03-19T12:23:33Z</time>
      </trkpt>
      <trkpt lat="48.63" lon="2.04398">
        <ele>145</ele>
        <time>2010-03-19T12:23:34Z</time>
      </trkpt>
      <trkpt lat="48.62999" lon="2.044">
        <ele>145</ele>
        <time>2010-03-19T12:23:35Z</time>
      </trkpt>
      <trkpt lat="48.62998" lon="2.04402">
        <ele>145</ele>
        <time>2010-03-19T12:23:36Z</time>
      </trkpt>
      <trkpt lat="48.62997" lon="2.04404">
        <ele>144</ele>
        <time>2010-03-19T12:23:37Z</time>
      </trkpt>
      <trkpt lat="48.62996" lon="2.04406">
        <ele>144</ele>
        <time>2010-03-19T12:23:38Z</time>
      </trkpt>
      <trkpt lat="48.62996" lon="2.04409">
        <ele>144</ele>
        <time>2010-03-19T12:23:39Z</time>
      </trkpt>
      <trkpt lat="48.62994" lon="2.04411">
        <ele>144</ele>
        <time>2010-03-19T12:23:40Z</time>
      </trkpt>
      <trkpt lat="48.62993" lon="2.04413">
        <ele>143</ele>
        <time>2010-03-19T12:23:41Z</time>
      </trkpt>
      <trkpt lat="48.62992" lon="2.04415">
        <ele>143</ele>
        <time>2010-03-19T12:23:42Z</time>
      </trkpt>
      <trkpt lat="48.62991" lon="2.04417">
        <ele>143</ele>
        <time>2010-03-19T12:23:43Z</time>
      </trkpt>
      <trkpt lat="48.62991" lon="2.0442">
        <ele>143</ele>
        <time>2010-03-19T12:23:44Z</time>
      </trkpt>
      <trkpt lat="48.62989" lon="2.04422">
        <ele>143</ele>
        <time>2010-03-19T12:23:45Z</time>
      </trkpt>
      <trkpt lat="48.62988" lon="2.04425">
        <ele>142</ele>
        <time>2010-03-19T12:23:46Z</time>
      </trkpt>
      <trkpt lat="48.62987" lon="2.04427">
        <ele>142</ele>
        <time>2010-03-19T12:23:47Z</time>
      </trkpt>
      <trkpt lat="48.62986" lon="2.04429">
        <ele>142</ele>
        <time>2010-03-19T12:23:48Z</time>
      </trkpt>
      <trkpt lat="48.62986" lon="2.04431">
        <ele>142</ele>
        <time>2010-03-19T12:23:49Z</time>
      </trkpt>
      <trkpt lat="48.62985" lon="2.04434">
        <ele>142</ele>
        <time>2010-03-19T12:23:50Z</time>
      </trkpt>
      <trkpt lat="48.62984" lon="2.04436">
        <ele>142</ele>
        <time>2010-03-19T12:23:51Z</time>
      </trkpt>
      <trkpt lat="48.62983" lon="2.04438">
        <ele>142</ele>
        <time>2010-03-19T12:23:52Z</time>
      </trkpt>
      <trkpt lat="48.62983" lon="2.04441">
        <ele>142</ele>
        <time>2010-03-19T12:23:53Z</time>
      </trkpt>
      <trkpt lat="48.62981" lon="2.04443">
        <ele>142</ele>
        <time>2010-03-19T12:23:54Z</time>
      </trkpt>
      <trkpt lat="48.6298" lon="2.04445">
        <ele>142</ele>
        <time>2010-03-19T12:23:55Z</time>
      </trkpt>
      <trkpt lat="48.62979" lon="2.04447">
        <ele>142</ele>
        <time>2010-03-19T12:23:56Z</time>
      </trkpt>
      <trkpt lat="48.62978" lon="2.04449">
        <ele>141</ele>
        <time>2010-03-19T12:23:57Z</time>
      </trkpt>
      <trkpt lat="48.62978" lon="2.04451">
        <ele>141</ele>
        <time>2010-03-19T12:23:58Z</time>
      </trkpt>
      <trkpt lat="48.62977" lon="2.04453">
        <ele>141</ele>
        <time>2010-03-19T12:23:59Z</time>
      </trkpt>
      <trkpt lat="48.62976" lon="2.04456">
        <ele>141</ele>
        <time>2010-03-19T12:24:00Z</time>
      </trkpt>
      <trkpt lat="48.62975" lon="2.04458">
        <ele>141</ele>
        <time>2010-03-19T12:24:01Z</time>
      </trkpt>
      <trkpt lat="48.62975" lon="2.0446">
        <ele>141</ele>
        <time>2010-03-19T12:24:02Z</time>
      </trkpt>
      <trkpt lat="48.62973" lon="2.04463">
        <ele>140</ele>
        <time>2010-03-19T12:24:03Z</time>
      </trkpt>
      <trkpt lat="48.62972" lon="2.04465">
        <ele>140</ele>
        <time>2010-03-19T12:24:04Z</time>
      </trkpt>
      <trkpt lat="48.62971" lon="2.04467">
        <ele>140</ele>
        <time>2010-03-19T12:24:05Z</time>
      </trkpt>
      <trkpt lat="48.6297" lon="2.04469">
        <ele>140</ele>
        <time>2010-03-19T12:24:06Z</time>
      </trkpt>
      <trkpt lat="48.62969" lon="2.04471">
        <ele>140</ele>
        <time>2010-03-19T12:24:07Z</time>
      </trkpt>
      <trkpt lat="48.62968" lon="2.04474">
        <ele>140</ele>
        <time>2010-03-19T12:24:08Z</time>
      </trkpt>
      <trkpt lat="48.62967" lon="2.04476">
        <ele>139</ele>
        <time>2010-03-19T12:24:09Z</time>
      </trkpt>
      <trkpt lat="48.62967" lon="2.04477">
        <ele>139</ele>
        <time>2010-03-19T12:24:10Z</time>
      </trkpt>
      <trkpt lat="48.62965" lon="2.04479">
        <ele>139</ele>
        <time>2010-03-19T12:24:11Z</time>
      </trkpt>
      <trkpt lat="48.62964" lon="2.04481">
        <ele>139</ele>
        <time>2010-03-19T12:24:12Z</time>
      </trkpt>
      <trkpt lat="48.62964" lon="2.04483">
        <ele>139</ele>
        <time>2010-03-19T12:24:13Z</time>
      </trkpt>
      <trkpt lat="48.62963" lon="2.04486">
        <ele>138</ele>
        <time>2010-03-19T12:24:14Z</time>
      </trkpt>
      <trkpt lat="48.62962" lon="2.04488">
        <ele>138</ele>
        <time>2010-03-19T12:24:15Z</time>
      </trkpt>
      <trkpt lat="48.62961" lon="2.0449">
        <ele>138</ele>
        <time>2010-03-19T12:24:16Z</time>
      </trkpt>
      <trkpt lat="48.6296" lon="2.04492">
        <ele>138</ele>
        <time>2010-03-19T12:24:17Z</time>
      </trkpt>
      <trkpt lat="48.62959" lon="2.04494">
        <ele>138</ele>
        <time>2010-03-19T12:24:18Z</time>
      </trkpt>
      <trkpt lat="48.62959" lon="2.04496">
        <ele>138</ele>
        <time>2010-03-19T12:24:19Z</time>
      </trkpt>
      <trkpt lat="48.62958" lon="2.04498">
        <ele>138</ele>
        <time>2010-03-19T12:24:20Z</time>
      </trkpt>
      <trkpt lat="48.62956" lon="2.04501">
        <ele>137</ele>
        <time>2010-03-19T12:24:21Z</time>
      </trkpt>
      <trkpt lat="48.62955" lon="2.04503">
        <ele>137</ele>
        <time>2010-03-19T12:24:22Z</time>
      </trkpt>
      <trkpt lat="48.62955" lon="2.04505">
        <ele>137</ele>
        <time>2010-03-19T12:24:23Z</time>
      </trkpt>
      <trkpt lat="48.62955" lon="2.04507">
        <ele>137</ele>
        <time>2010-03-19T12:24:24Z</time>
      </trkpt>
      <trkpt lat="48.62954" lon="2.04509">
        <ele>137</ele>
        <time>2010-03-19T12:24:25Z</time>
      </trkpt>
      <trkpt lat="48.62953" lon="2.04512">
        <ele>136</ele>
        <time>2010-03-19T12:24:26Z</time>
      </trkpt>
      <trkpt lat="48.62952" lon="2.04514">
        <ele>136</ele>
        <time>2010-03-19T12:24:27Z</time>
      </trkpt>
      <trkpt lat="48.62951" lon="2.04516">
        <ele>136</ele>
        <time>2010-03-19T12:24:28Z</time>
      </trkpt>
      <trkpt lat="48.6295" lon="2.04518">
        <ele>136</ele>
        <time>2010-03-19T12:24:29Z</time>
      </trkpt>
      <trkpt lat="48.6295" lon="2.0452">
        <ele>135</ele>
        <time>2010-03-19T12:24:30Z</time>
      </trkpt>
      <trkpt lat="48.62948" lon="2.04522">
        <ele>135</ele>
        <time>2010-03-19T12:24:31Z</time>
      </trkpt>
      <trkpt lat="48.62947" lon="2.04524">
        <ele>135</ele>
        <time>2010-03-19T12:24:32Z</time>
      </trkpt>
      <trkpt lat="48.62946" lon="2.04526">
        <ele>135</ele>
        <time>2010-03-19T12:24:33Z</time>
      </trkpt>
      <trkpt lat="48.62946" lon="2.04528">
        <ele>135</ele>
        <time>2010-03-19T12:24:34Z</time>
      </trkpt>
      <trkpt lat="48.62945" lon="2.0453">
        <ele>135</ele>
        <time>2010-03-19T12:24:35Z</time>
      </trkpt>
      <trkpt lat="48.62944" lon="2.04532">
        <ele>135</ele>
        <time>2010-03-19T12:24:36Z</time>
      </trkpt>
      <trkpt lat="48.62944" lon="2.04535">
        <ele>135</ele>
        <time>2010-03-19T12:24:37Z</time>
      </trkpt>
      <trkpt lat="48.62943" lon="2.04536">
        <ele>135</ele>
        <time>2010-03-19T12:24:38Z</time>
      </trkpt>
      <trkpt lat="48.62942" lon="2.04538">
        <ele>135</ele>
        <time>2010-03-19T12:24:39Z</time>
      </trkpt>
      <trkpt lat="48.6294" lon="2.0454">
        <ele>135</ele>
        <time>2010-03-19T12:24:40Z</time>
      </trkpt>
      <trkpt lat="48.62939" lon="2.04542">
        <ele>134</ele>
        <time>2010-03-19T12:24:41Z</time>
      </trkpt>
      <trkpt lat="48.62939" lon="2.04545">
        <ele>134</ele>
        <time>2010-03-19T12:24:42Z</time>
      </trkpt>
      <trkpt lat="48.62938" lon="2.04547">
        <ele>134</ele>
        <time>2010-03-19T12:24:43Z</time>
      </trkpt>
      <trkpt lat="48.62938" lon="2.04549">
        <ele>134</ele>
        <time>2010-03-19T12:24:44Z</time>
      </trkpt>
      <trkpt lat="48.62937" lon="2.04552">
        <ele>134</ele>
        <time>2010-03-19T12:24:45Z</time>
      </trkpt>
      <trkpt lat="48.62936" lon="2.04554">
        <ele>133</ele>
        <time>2010-03-19T12:24:46Z</time>
      </trkpt>
      <trkpt lat="48.62934" lon="2.04556">
        <ele>133</ele>
        <time>2010-03-19T12:24:47Z</time>
      </trkpt>
      <trkpt lat="48.62934" lon="2.04558">
        <ele>133</ele>
        <time>2010-03-19T12:24:48Z</time>
      </trkpt>
      <trkpt lat="48.62933" lon="2.0456">
        <ele>133</ele>
        <time>2010-03-19T12:24:49Z</time>
      </trkpt>
      <trkpt lat="48.62932" lon="2.04562">
        <ele>132</ele>
        <time>2010-03-19T12:24:50Z</time>
      </trkpt>
      <trkpt lat="48.62931" lon="2.04564">
        <ele>132</ele>
        <time>2010-03-19T12:24:51Z</time>
      </trkpt>
      <trkpt lat="48.6293" lon="2.04567">
        <ele>132</ele>
        <time>2010-03-19T12:24:52Z</time>
      </trkpt>
      <trkpt lat="48.62929" lon="2.04569">
        <ele>132</ele>
        <time>2010-03-19T12:24:53Z</time>
      </trkpt>
      <trkpt lat="48.62928" lon="2.04571">
        <ele>131</ele>
        <time>2010-03-19T12:24:54Z</time>
      </trkpt>
      <trkpt lat="48.62928" lon="2.04573">
        <ele>131</ele>
        <time>2010-03-19T12:24:55Z</time>
      </trkpt>
      <trkpt lat="48.62927" lon="2.04575">
        <ele>131</ele>
        <time>2010-03-19T12:24:56Z</time>
      </trkpt>
      <trkpt lat="48.62926" lon="2.04577">
        <ele>131</ele>
        <time>2010-03-19T12:24:57Z</time>
      </trkpt>
      <trkpt lat="48.62926" lon="2.0458">
        <ele>131</ele>
        <time>2010-03-19T12:24:58Z</time>
      </trkpt>
      <trkpt lat="48.62925" lon="2.04582">
        <ele>130</ele>
        <time>2010-03-19T12:24:59Z</time>
      </trkpt>
      <trkpt lat="48.62925" lon="2.04585">
        <ele>130</ele>
        <time>2010-03-19T12:25:00Z</time>
      </trkpt>
      <trkpt lat="48.62924" lon="2.04587">
        <ele>130</ele>
        <time>2010-03-19T12:25:01Z</time>
      </trkpt>
      <trkpt lat="48.62923" lon="2.0459">
        <ele>130</ele>
        <time>2010-03-19T12:25:02Z</time>
      </trkpt>
      <trkpt lat="48.62922" lon="2.04592">
        <ele>130</ele>
        <time>2010-03-19T12:25:03Z</time>
      </trkpt>
      <trkpt lat="48.62921" lon="2.04594">
        <ele>130</ele>
        <time>2010-03-19T12:25:04Z</time>
      </trkpt>
      <trkpt lat="48.6292" lon="2.04597">
        <ele>130</ele>
        <time>2010-03-19T12:25:05Z</time>
      </trkpt>
      <trkpt lat="48.6292" lon="2.04599">
        <ele>130</ele>
        <time>2010-03-19T12:25:06Z</time>
      </trkpt>
      <trkpt lat="48.62919" lon="2.04601">
        <ele>130</ele>
        <time>2010-03-19T12:25:07Z</time>
      </trkpt>
      <trkpt lat="48.62918" lon="2.04604">
        <ele>130</ele>
        <time>2010-03-19T12:25:08Z</time>
      </trkpt>
      <trkpt lat="48.62918" lon="2.04606">
        <ele>129</ele>
        <time>2010-03-19T12:25:09Z</time>
      </trkpt>
      <trkpt lat="48.62917" lon="2.04608">
        <ele>129</ele>
        <time>2010-03-19T12:25:10Z</time>
      </trkpt>
      <trkpt lat="48.62917" lon="2.0461">
        <ele>129</ele>
        <time>2010-03-19T12:25:11Z</time>
      </trkpt>
      <trkpt lat="48.62915" lon="2.04612">
        <ele>129</ele>
        <time>2010-03-19T12:25:12Z</time>
      </trkpt>
      <trkpt lat="48.62915" lon="2.04615">
        <ele>129</ele>
        <time>2010-03-19T12:25:13Z</time>
      </trkpt>
      <trkpt lat="48.62914" lon="2.04617">
        <ele>129</ele>
        <time>2010-03-19T12:25:14Z</time>
      </trkpt>
      <trkpt lat="48.62914" lon="2.04619">
        <ele>129</ele>
        <time>2010-03-19T12:25:15Z</time>
      </trkpt>
      <trkpt lat="48.62913" lon="2.04622">
        <ele>129</ele>
        <time>2010-03-19T12:25:16Z</time>
      </trkpt>
      <trkpt lat="48.62912" lon="2.04624">
        <ele>129</ele>
        <time>2010-03-19T12:25:17Z</time>
      </trkpt>
      <trkpt lat="48.62912" lon="2.04626">
        <ele>129</ele>
        <time>2010-03-19T12:25:18Z</time>
      </trkpt>
      <trkpt lat="48.62911" lon="2.04628">
        <ele>128</ele>
        <time>2010-03-19T12:25:19Z</time>
      </trkpt>
      <trkpt lat="48.6291" lon="2.04629">
        <ele>128</ele>
        <time>2010-03-19T12:25:20Z</time>
      </trkpt>
      <trkpt lat="48.6291" lon="2.04632">
        <ele>128</ele>
        <time>2010-03-19T12:25:22Z</time>
      </trkpt>
      <trkpt lat="48.6291" lon="2.04635">
        <ele>128</ele>
        <time>2010-03-19T12:25:24Z</time>
      </trkpt>
      <trkpt lat="48.6291" lon="2.04637">
        <ele>128</ele>
        <time>2010-03-19T12:25:25Z</time>
      </trkpt>
      <trkpt lat="48.62911" lon="2.0464">
        <ele>128</ele>
        <time>2010-03-19T12:25:26Z</time>
      </trkpt>
      <trkpt lat="48.62911" lon="2.04642">
        <ele>128</ele>
        <time>2010-03-19T12:25:27Z</time>
      </trkpt>
      <trkpt lat="48.62911" lon="2.04645">
        <ele>128</ele>
        <time>2010-03-19T12:25:28Z</time>
      </trkpt>
      <trkpt lat="48.62911" lon="2.04647">
        <ele>128</ele>
        <time>2010-03-19T12:25:29Z</time>
      </trkpt>
      <trkpt lat="48.62912" lon="2.04649">
        <ele>128</ele>
        <time>2010-03-19T12:25:30Z</time>
      </trkpt>
      <trkpt lat="48.62913" lon="2.04652">
        <ele>128</ele>
        <time>2010-03-19T12:25:31Z</time>
      </trkpt>
      <trkpt lat="48.62914" lon="2.04654">
        <ele>128</ele>
        <time>2010-03-19T12:25:32Z</time>
      </trkpt>
      <trkpt lat="48.62915" lon="2.04656">
        <ele>128</ele>
        <time>2010-03-19T12:25:33Z</time>
      </trkpt>
      <trkpt lat="48.62917" lon="2.04657">
        <ele>128</ele>
        <time>2010-03-19T12:25:34Z</time>
      </trkpt>
      <trkpt lat="48.62918" lon="2.04659">
        <ele>128</ele>
        <time>2010-03-19T12:25:35Z</time>
      </trkpt>
      <trkpt lat="48.62919" lon="2.04661">
        <ele>128</ele>
        <time>2010-03-19T12:25:36Z</time>
      </trkpt>
      <trkpt lat="48.6292" lon="2.04662">
        <ele>128</ele>
        <time>2010-03-19T12:25:37Z</time>
      </trkpt>
      <trkpt lat="48.62922" lon="2.04664">
        <ele>128</ele>
        <time>2010-03-19T12:25:38Z</time>
      </trkpt>
      <trkpt lat="48.62923" lon="2.04665">
        <ele>128</ele>
        <time>2010-03-19T12:25:39Z</time>
      </trkpt>
      <trkpt lat="48.62924" lon="2.04667">
        <ele>128</ele>
        <time>2010-03-19T12:25:40Z</time>
      </trkpt>
      <trkpt lat="48.62926" lon="2.04669">
        <ele>128</ele>
        <time>2010-03-19T12:25:41Z</time>
      </trkpt>
      <trkpt lat="48.62927" lon="2.04671">
        <ele>128</ele>
        <time>2010-03-19T12:25:42Z</time>
      </trkpt>
      <trkpt lat="48.62928" lon="2.04672">
        <ele>128</ele>
        <time>2010-03-19T12:25:43Z</time>
      </trkpt>
      <trkpt lat="48.62929" lon="2.04674">
        <ele>128</ele>
        <time>2010-03-19T12:25:44Z</time>
      </trkpt>
      <trkpt lat="48.6293" lon="2.04676">
        <ele>128</ele>
        <time>2010-03-19T12:25:45Z</time>
      </trkpt>
      <trkpt lat="48.62931" lon="2.04678">
        <ele>128</ele>
        <time>2010-03-19T12:25:46Z</time>
      </trkpt>
      <trkpt lat="48.62933" lon="2.04679">
        <ele>128</ele>
        <time>2010-03-19T12:25:47Z</time>
      </trkpt>
      <trkpt lat="48.62934" lon="2.04681">
        <ele>128</ele>
        <time>2010-03-19T12:25:48Z</time>
      </trkpt>
      <trkpt lat="48.62935" lon="2.04683">
        <ele>128</ele>
        <time>2010-03-19T12:25:49Z</time>
      </trkpt>
      <trkpt lat="48.62936" lon="2.04685">
        <ele>128</ele>
        <time>2010-03-19T12:25:50Z</time>
      </trkpt>
      <trkpt lat="48.62938" lon="2.04687">
        <ele>128</ele>
        <time>2010-03-19T12:25:51Z</time>
      </trkpt>
      <trkpt lat="48.62939" lon="2.04689">
        <ele>128</ele>
        <time>2010-03-19T12:25:52Z</time>
      </trkpt>
      <trkpt lat="48.6294" lon="2.0469">
        <ele>128</ele>
        <time>2010-03-19T12:25:53Z</time>
      </trkpt>
      <trkpt lat="48.62942" lon="2.04691">
        <ele>127</ele>
        <time>2010-03-19T12:25:54Z</time>
      </trkpt>
      <trkpt lat="48.62943" lon="2.04693">
        <ele>127</ele>
        <time>2010-03-19T12:25:55Z</time>
      </trkpt>
      <trkpt lat="48.62944" lon="2.04695">
        <ele>127</ele>
        <time>2010-03-19T12:25:56Z</time>
      </trkpt>
      <trkpt lat="48.62946" lon="2.04696">
        <ele>127</ele>
        <time>2010-03-19T12:25:57Z</time>
      </trkpt>
      <trkpt lat="48.62947" lon="2.04698">
        <ele>127</ele>
        <time>2010-03-19T12:25:58Z</time>
      </trkpt>
      <trkpt lat="48.62948" lon="2.04699">
        <ele>127</ele>
        <time>2010-03-19T12:25:59Z</time>
      </trkpt>
      <trkpt lat="48.6295" lon="2.04701">
        <ele>127</ele>
        <time>2010-03-19T12:26:00Z</time>
      </trkpt>
      <trkpt lat="48.62951" lon="2.04702">
        <ele>127</ele>
        <time>2010-03-19T12:26:01Z</time>
      </trkpt>
      <trkpt lat="48.62952" lon="2.04704">
        <ele>127</ele>
        <time>2010-03-19T12:26:02Z</time>
      </trkpt>
      <trkpt lat="48.62954" lon="2.04707">
        <ele>127</ele>
        <time>2010-03-19T12:26:03Z</time>
      </trkpt>
      <trkpt lat="48.62954" lon="2.04709">
        <ele>127</ele>
        <time>2010-03-19T12:26:04Z</time>
      </trkpt>
      <trkpt lat="48.62955" lon="2.04711">
        <ele>127</ele>
        <time>2010-03-19T12:26:05Z</time>
      </trkpt>
      <trkpt lat="48.62956" lon="2.04714">
        <ele>126</ele>
        <time>2010-03-19T12:26:06Z</time>
      </trkpt>
      <trkpt lat="48.62956" lon="2.04716">
        <ele>126</ele>
        <time>2010-03-19T12:26:07Z</time>
      </trkpt>
      <trkpt lat="48.62957" lon="2.04718">
        <ele>126</ele>
        <time>2010-03-19T12:26:08Z</time>
      </trkpt>
      <trkpt lat="48.62957" lon="2.04721">
        <ele>126</ele>
        <time>2010-03-19T12:26:09Z</time>
      </trkpt>
      <trkpt lat="48.62957" lon="2.04724">
        <ele>126</ele>
        <time>2010-03-19T12:26:10Z</time>
      </trkpt>
      <trkpt lat="48.62957" lon="2.04726">
        <ele>126</ele>
        <time>2010-03-19T12:26:11Z</time>
      </trkpt>
      <trkpt lat="48.62956" lon="2.04729">
        <ele>126</ele>
        <time>2010-03-19T12:26:12Z</time>
      </trkpt>
      <trkpt lat="48.62956" lon="2.04731">
        <ele>125</ele>
        <time>2010-03-19T12:26:13Z</time>
      </trkpt>
      <trkpt lat="48.62956" lon="2.04734">
        <ele>125</ele>
        <time>2010-03-19T12:26:14Z</time>
      </trkpt>
      <trkpt lat="48.62956" lon="2.04736">
        <ele>125</ele>
        <time>2010-03-19T12:26:15Z</time>
      </trkpt>
      <trkpt lat="48.62956" lon="2.04739">
        <ele>125</ele>
        <time>2010-03-19T12:26:16Z</time>
      </trkpt>
      <trkpt lat="48.62956" lon="2.04742">
        <ele>125</ele>
        <time>2010-03-19T12:26:17Z</time>
      </trkpt>
      <trkpt lat="48.62956" lon="2.04744">
        <ele>125</ele>
        <time>2010-03-19T12:26:18Z</time>
      </trkpt>
      <trkpt lat="48.62957" lon="2.04747">
        <ele>125</ele>
        <time>2010-03-19T12:26:19Z</time>
      </trkpt>
      <trkpt lat="48.62958" lon="2.04749">
        <ele>125</ele>
        <time>2010-03-19T12:26:20Z</time>
      </trkpt>
      <trkpt lat="48.62958" lon="2.04752">
        <ele>125</ele>
        <time>2010-03-19T12:26:21Z</time>
      </trkpt>
      <trkpt lat="48.62958" lon="2.04754">
        <ele>124</ele>
        <time>2010-03-19T12:26:22Z</time>
      </trkpt>
      <trkpt lat="48.62958" lon="2.04757">
        <ele>124</ele>
        <time>2010-03-19T12:26:23Z</time>
      </trkpt>
      <trkpt lat="48.62958" lon="2.04759">
        <ele>124</ele>
        <time>2010-03-19T12:26:24Z</time>
      </trkpt>
      <trkpt lat="48.62959" lon="2.04762">
        <ele>124</ele>
        <time>2010-03-19T12:26:25Z</time>
      </trkpt>
      <trkpt lat="48.62959" lon="2.04764">
        <ele>124</ele>
        <time>2010-03-19T12:26:26Z</time>
      </trkpt>
      <trkpt lat="48.62959" lon="2.04767">
        <ele>124</ele>
        <time>2010-03-19T12:26:27Z</time>
      </trkpt>
      <trkpt lat="48.62959" lon="2.04769">
        <ele>124</ele>
        <time>2010-03-19T12:26:28Z</time>
      </trkpt>
      <trkpt lat="48.62959" lon="2.04772">
        <ele>124</ele>
        <time>2010-03-19T12:26:29Z</time>
      </trkpt>
      <trkpt lat="48.62959" lon="2.04774">
        <ele>124</ele>
        <time>2010-03-19T12:26:30Z</time>
      </trkpt>
      <trkpt lat="48.62959" lon="2.04777">
        <ele>124</ele>
        <time>2010-03-19T12:26:31Z</time>
      </trkpt>
      <trkpt lat="48.62959" lon="2.0478">
        <ele>124</ele>
        <time>2010-03-19T12:26:32Z</time>
      </trkpt>
      <trkpt lat="48.62959" lon="2.04782">
        <ele>123</ele>
        <time>2010-03-19T12:26:33Z</time>
      </trkpt>
      <trkpt lat="48.62959" lon="2.04785">
        <ele>123</ele>
        <time>2010-03-19T12:26:34Z</time>
      </trkpt>
      <trkpt lat="48.62959" lon="2.04787">
        <ele>123</ele>
        <time>2010-03-19T12:26:35Z</time>
      </trkpt>
      <trkpt lat="48.6296" lon="2.0479">
        <ele>123</ele>
        <time>2010-03-19T12:26:36Z</time>
      </trkpt>
      <trkpt lat="48.6296" lon="2.04793">
        <ele>123</ele>
        <time>2010-03-19T12:26:37Z</time>
      </trkpt>
      <trkpt lat="48.6296" lon="2.04796">
        <ele>123</ele>
        <time>2010-03-19T12:26:38Z</time>
      </trkpt>
      <trkpt lat="48.62961" lon="2.04799">
        <ele>123</ele>
        <time>2010-03-19T12:26:39Z</time>
      </trkpt>
      <trkpt lat="48.62961" lon="2.04802">
        <ele>123</ele>
        <time>2010-03-19T12:26:40Z</time>
      </trkpt>
      <trkpt lat="48.62962" lon="2.04805">
        <ele>123</ele>
        <time>2010-03-19T12:26:41Z</time>
      </trkpt>
      <trkpt lat="48.62962" lon="2.04808">
        <ele>123</ele>
        <time>2010-03-19T12:26:42Z</time>
      </trkpt>
      <trkpt lat="48.62963" lon="2.04811">
        <ele>123</ele>
        <time>2010-03-19T12:26:43Z</time>
      </trkpt>
      <trkpt lat="48.62963" lon="2.04813">
        <ele>123</ele>
        <time>2010-03-19T12:26:44Z</time>
      </trkpt>
      <trkpt lat="48.62963" lon="2.04816">
        <ele>123</ele>
        <time>2010-03-19T12:26:45Z</time>
      </trkpt>
      <trkpt lat="48.62963" lon="2.04819">
        <ele>123</ele>
        <time>2010-03-19T12:26:46Z</time>
      </trkpt>
      <trkpt lat="48.62962" lon="2.04821">
        <ele>123</ele>
        <time>2010-03-19T12:26:47Z</time>
      </trkpt>
      <trkpt lat="48.62962" lon="2.04824">
        <ele>123</ele>
        <time>2010-03-19T12:26:48Z</time>
      </trkpt>
      <trkpt lat="48.62961" lon="2.04826">
        <ele>123</ele>
        <time>2010-03-19T12:26:49Z</time>
      </trkpt>
      <trkpt lat="48.6296" lon="2.04829">
        <ele>123</ele>
        <time>2010-03-19T12:26:50Z</time>
      </trkpt>
      <trkpt lat="48.62959" lon="2.04831">
        <ele>123</ele>
        <time>2010-03-19T12:26:51Z</time>
      </trkpt>
      <trkpt lat="48.62959" lon="2.04834">
        <ele>123</ele>
        <time>2010-03-19T12:26:52Z</time>
      </trkpt>
      <trkpt lat="48.62957" lon="2.04835">
        <ele>123</ele>
        <time>2010-03-19T12:26:53Z</time>
      </trkpt>
      <trkpt lat="48.62955" lon="2.04837">
        <ele>123</ele>
        <time>2010-03-19T12:26:54Z</time>
      </trkpt>
      <trkpt lat="48.62954" lon="2.04838">
        <ele>123</ele>
        <time>2010-03-19T12:26:55Z</time>
      </trkpt>
      <trkpt lat="48.62952" lon="2.04839">
        <ele>123</ele>
        <time>2010-03-19T12:26:56Z</time>
      </trkpt>
      <trkpt lat="48.62951" lon="2.0484">
        <ele>123</ele>
        <time>2010-03-19T12:26:57Z</time>
      </trkpt>
      <trkpt lat="48.62949" lon="2.04841">
        <ele>123</ele>
        <time>2010-03-19T12:26:58Z</time>
      </trkpt>
      <trkpt lat="48.62947" lon="2.04841">
        <ele>123</ele>
        <time>2010-03-19T12:26:59Z</time>
      </trkpt>
      <trkpt lat="48.62946" lon="2.04842">
        <ele>123</ele>
        <time>2010-03-19T12:27:00Z</time>
      </trkpt>
      <trkpt lat="48.62944" lon="2.04842">
        <ele>123</ele>
        <time>2010-03-19T12:27:01Z</time>
      </trkpt>
      <trkpt lat="48.62943" lon="2.04842">
        <ele>123</ele>
        <time>2010-03-19T12:27:02Z</time>
      </trkpt>
      <trkpt lat="48.62941" lon="2.04842">
        <ele>123</ele>
        <time>2010-03-19T12:27:03Z</time>
      </trkpt>
      <trkpt lat="48.62939" lon="2.04842">
        <ele>123</ele>
        <time>2010-03-19T12:27:04Z</time>
      </trkpt>
      <trkpt lat="48.62938" lon="2.04842">
        <ele>123</ele>
        <time>2010-03-19T12:27:05Z</time>
      </trkpt>
      <trkpt lat="48.62936" lon="2.04842">
        <ele>123</ele>
        <time>2010-03-19T12:27:06Z</time>
      </trkpt>
      <trkpt lat="48.62935" lon="2.04842">
        <ele>123</ele>
        <time>2010-03-19T12:27:07Z</time>
      </trkpt>
      <trkpt lat="48.62933" lon="2.04843">
        <ele>123</ele>
        <time>2010-03-19T12:27:08Z</time>
      </trkpt>
      <trkpt lat="48.62932" lon="2.04843">
        <ele>123</ele>
        <time>2010-03-19T12:27:09Z</time>
      </trkpt>
      <trkpt lat="48.6293" lon="2.04844">
        <ele>122</ele>
        <time>2010-03-19T12:27:10Z</time>
      </trkpt>
      <trkpt lat="48.62929" lon="2.04844">
        <ele>122</ele>
        <time>2010-03-19T12:27:11Z</time>
      </trkpt>
      <trkpt lat="48.62927" lon="2.04845">
        <ele>122</ele>
        <time>2010-03-19T12:27:12Z</time>
      </trkpt>
      <trkpt lat="48.62925" lon="2.04846">
        <ele>122</ele>
        <time>2010-03-19T12:27:13Z</time>
      </trkpt>
      <trkpt lat="48.62923" lon="2.04847">
        <ele>122</ele>
        <time>2010-03-19T12:27:14Z</time>
      </trkpt>
      <trkpt lat="48.62922" lon="2.04847">
        <ele>122</ele>
        <time>2010-03-19T12:27:15Z</time>
      </trkpt>
      <trkpt lat="48.6292" lon="2.04847">
        <ele>122</ele>
        <time>2010-03-19T12:27:16Z</time>
      </trkpt>
      <trkpt lat="48.62919" lon="2.04847">
        <ele>122</ele>
        <time>2010-03-19T12:27:17Z</time>
      </trkpt>
      <trkpt lat="48.62917" lon="2.04848">
        <ele>122</ele>
        <time>2010-03-19T12:27:18Z</time>
      </trkpt>
      <trkpt lat="48.62915" lon="2.04848">
        <ele>122</ele>
        <time>2010-03-19T12:27:19Z</time>
      </trkpt>
      <trkpt lat="48.62914" lon="2.04848">
        <ele>122</ele>
        <time>2010-03-19T12:27:20Z</time>
      </trkpt>
      <trkpt lat="48.62912" lon="2.04848">
        <ele>122</ele>
        <time>2010-03-19T12:27:21Z</time>
      </trkpt>
      <trkpt lat="48.6291" lon="2.04848">
        <ele>122</ele>
        <time>2010-03-19T12:27:22Z</time>
      </trkpt>
      <trkpt lat="48.62909" lon="2.04849">
        <ele>122</ele>
        <time>2010-03-19T12:27:23Z</time>
      </trkpt>
      <trkpt lat="48.62907" lon="2.04849">
        <ele>122</ele>
        <time>2010-03-19T12:27:24Z</time>
      </trkpt>
      <trkpt lat="48.62905" lon="2.0485">
        <ele>122</ele>
        <time>2010-03-19T12:27:25Z</time>
      </trkpt>
      <trkpt lat="48.62904" lon="2.04851">
        <ele>122</ele>
        <time>2010-03-19T12:27:26Z</time>
      </trkpt>
      <trkpt lat="48.62902" lon="2.04851">
        <ele>122</ele>
        <time>2010-03-19T12:27:27Z</time>
      </trkpt>
      <trkpt lat="48.629" lon="2.04852">
        <ele>122</ele>
        <time>2010-03-19T12:27:28Z</time>
      </trkpt>
      <trkpt lat="48.62898" lon="2.04853">
        <ele>122</ele>
        <time>2010-03-19T12:27:29Z</time>
      </trkpt>
      <trkpt lat="48.62897" lon="2.04854">
        <ele>122</ele>
        <time>2010-03-19T12:27:30Z</time>
      </trkpt>
      <trkpt lat="48.62895" lon="2.04855">
        <ele>122</ele>
        <time>2010-03-19T12:27:31Z</time>
      </trkpt>
      <trkpt lat="48.62893" lon="2.04855">
        <ele>122</ele>
        <time>2010-03-19T12:27:32Z</time>
      </trkpt>
      <trkpt lat="48.62892" lon="2.04855">
        <ele>122</ele>
        <time>2010-03-19T12:27:33Z</time>
      </trkpt>
      <trkpt lat="48.62889" lon="2.04856">
        <ele>122</ele>
        <time>2010-03-19T12:27:34Z</time>
      </trkpt>
      <trkpt lat="48.62888" lon="2.04856">
        <ele>122</ele>
        <time>2010-03-19T12:27:35Z</time>
      </trkpt>
      <trkpt lat="48.62886" lon="2.04857">
        <ele>122</ele>
        <time>2010-03-19T12:27:36Z</time>
      </trkpt>
      <trkpt lat="48.62885" lon="2.04857">
        <ele>122</ele>
        <time>2010-03-19T12:27:37Z</time>
      </trkpt>
      <trkpt lat="48.62883" lon="2.04858">
        <ele>122</ele>
        <time>2010-03-19T12:27:38Z</time>
      </trkpt>
      <trkpt lat="48.62881" lon="2.04859">
        <ele>122</ele>
        <time>2010-03-19T12:27:39Z</time>
      </trkpt>
      <trkpt lat="48.6288" lon="2.04859">
        <ele>122</ele>
        <time>2010-03-19T12:27:40Z</time>
      </trkpt>
      <trkpt lat="48.62878" lon="2.0486">
        <ele>122</ele>
        <time>2010-03-19T12:27:41Z</time>
      </trkpt>
      <trkpt lat="48.62876" lon="2.04861">
        <ele>122</ele>
        <time>2010-03-19T12:27:42Z</time>
      </trkpt>
      <trkpt lat="48.62875" lon="2.04862">
        <ele>122</ele>
        <time>2010-03-19T12:27:43Z</time>
      </trkpt>
      <trkpt lat="48.62873" lon="2.04863">
        <ele>122</ele>
        <time>2010-03-19T12:27:44Z</time>
      </trkpt>
      <trkpt lat="48.62872" lon="2.04864">
        <ele>122</ele>
        <time>2010-03-19T12:27:45Z</time>
      </trkpt>
      <trkpt lat="48.6287" lon="2.04866">
        <ele>122</ele>
        <time>2010-03-19T12:27:47Z</time>
      </trkpt>
      <trkpt lat="48.62868" lon="2.04868">
        <ele>121</ele>
        <time>2010-03-19T12:27:48Z</time>
      </trkpt>
      <trkpt lat="48.62867" lon="2.04869">
        <ele>121</ele>
        <time>2010-03-19T12:27:49Z</time>
      </trkpt>
      <trkpt lat="48.62865" lon="2.0487">
        <ele>121</ele>
        <time>2010-03-19T12:27:50Z</time>
      </trkpt>
      <trkpt lat="48.62864" lon="2.04873">
        <ele>121</ele>
        <time>2010-03-19T12:27:52Z</time>
      </trkpt>
      <trkpt lat="48.62862" lon="2.04875">
        <ele>121</ele>
        <time>2010-03-19T12:27:53Z</time>
      </trkpt>
      <trkpt lat="48.6286" lon="2.04877">
        <ele>121</ele>
        <time>2010-03-19T12:27:54Z</time>
      </trkpt>
      <trkpt lat="48.62859" lon="2.04879">
        <ele>121</ele>
        <time>2010-03-19T12:27:55Z</time>
      </trkpt>
      <trkpt lat="48.62857" lon="2.04881">
        <ele>121</ele>
        <time>2010-03-19T12:27:57Z</time>
      </trkpt>
      <trkpt lat="48.62856" lon="2.04883">
        <ele>120</ele>
        <time>2010-03-19T12:27:58Z</time>
      </trkpt>
      <trkpt lat="48.62855" lon="2.04885">
        <ele>120</ele>
        <time>2010-03-19T12:27:59Z</time>
      </trkpt>
      <trkpt lat="48.62854" lon="2.04887">
        <ele>120</ele>
        <time>2010-03-19T12:28:00Z</time>
      </trkpt>
      <trkpt lat="48.62852" lon="2.04889">
        <ele>120</ele>
        <time>2010-03-19T12:28:01Z</time>
      </trkpt>
      <trkpt lat="48.62851" lon="2.04891">
        <ele>120</ele>
        <time>2010-03-19T12:28:02Z</time>
      </trkpt>
      <trkpt lat="48.62851" lon="2.04894">
        <ele>120</ele>
        <time>2010-03-19T12:28:03Z</time>
      </trkpt>
      <trkpt lat="48.62848" lon="2.04896">
        <ele>120</ele>
        <time>2010-03-19T12:28:04Z</time>
      </trkpt>
      <trkpt lat="48.62847" lon="2.04899">
        <ele>120</ele>
        <time>2010-03-19T12:28:05Z</time>
      </trkpt>
      <trkpt lat="48.62846" lon="2.04901">
        <ele>120</ele>
        <time>2010-03-19T12:28:06Z</time>
      </trkpt>
      <trkpt lat="48.62844" lon="2.04904">
        <ele>120</ele>
        <time>2010-03-19T12:28:07Z</time>
      </trkpt>
      <trkpt lat="48.62844" lon="2.04905">
        <ele>120</ele>
        <time>2010-03-19T12:28:08Z</time>
      </trkpt>
      <trkpt lat="48.62843" lon="2.04908">
        <ele>120</ele>
        <time>2010-03-19T12:28:09Z</time>
      </trkpt>
      <trkpt lat="48.62841" lon="2.0491">
        <ele>120</ele>
        <time>2010-03-19T12:28:10Z</time>
      </trkpt>
      <trkpt lat="48.6284" lon="2.04913">
        <ele>120</ele>
        <time>2010-03-19T12:28:11Z</time>
      </trkpt>
      <trkpt lat="48.62838" lon="2.04915">
        <ele>120</ele>
        <time>2010-03-19T12:28:12Z</time>
      </trkpt>
      <trkpt lat="48.62838" lon="2.04918">
        <ele>120</ele>
        <time>2010-03-19T12:28:13Z</time>
      </trkpt>
      <trkpt lat="48.62836" lon="2.04921">
        <ele>120</ele>
        <time>2010-03-19T12:28:14Z</time>
      </trkpt>
      <trkpt lat="48.62835" lon="2.04923">
        <ele>120</ele>
        <time>2010-03-19T12:28:15Z</time>
      </trkpt>
      <trkpt lat="48.62835" lon="2.04926">
        <ele>120</ele>
        <time>2010-03-19T12:28:16Z</time>
      </trkpt>
      <trkpt lat="48.62833" lon="2.04928">
        <ele>120</ele>
        <time>2010-03-19T12:28:17Z</time>
      </trkpt>
      <trkpt lat="48.62832" lon="2.04931">
        <ele>120</ele>
        <time>2010-03-19T12:28:18Z</time>
      </trkpt>
      <trkpt lat="48.62831" lon="2.04933">
        <ele>120</ele>
        <time>2010-03-19T12:28:19Z</time>
      </trkpt>
      <trkpt lat="48.6283" lon="2.04935">
        <ele>120</ele>
        <time>2010-03-19T12:28:20Z</time>
      </trkpt>
      <trkpt lat="48.6283" lon="2.04938">
        <ele>120</ele>
        <time>2010-03-19T12:28:21Z</time>
      </trkpt>
      <trkpt lat="48.62829" lon="2.04941">
        <ele>120</ele>
        <time>2010-03-19T12:28:22Z</time>
      </trkpt>
      <trkpt lat="48.62829" lon="2.04943">
        <ele>120</ele>
        <time>2010-03-19T12:28:23Z</time>
      </trkpt>
      <trkpt lat="48.62828" lon="2.04945">
        <ele>120</ele>
        <time>2010-03-19T12:28:24Z</time>
      </trkpt>
      <trkpt lat="48.62828" lon="2.04948">
        <ele>120</ele>
        <time>2010-03-19T12:28:25Z</time>
      </trkpt>
      <trkpt lat="48.62827" lon="2.0495">
        <ele>120</ele>
        <time>2010-03-19T12:28:26Z</time>
      </trkpt>
      <trkpt lat="48.62826" lon="2.04953">
        <ele>120</ele>
        <time>2010-03-19T12:28:27Z</time>
      </trkpt>
      <trkpt lat="48.62825" lon="2.04955">
        <ele>120</ele>
        <time>2010-03-19T12:28:28Z</time>
      </trkpt>
      <trkpt lat="48.62825" lon="2.04957">
        <ele>120</ele>
        <time>2010-03-19T12:28:29Z</time>
      </trkpt>
      <trkpt lat="48.62824" lon="2.0496">
        <ele>120</ele>
        <time>2010-03-19T12:28:30Z</time>
      </trkpt>
      <trkpt lat="48.62823" lon="2.04962">
        <ele>120</ele>
        <time>2010-03-19T12:28:31Z</time>
      </trkpt>
      <trkpt lat="48.62822" lon="2.04965">
        <ele>120</ele>
        <time>2010-03-19T12:28:32Z</time>
      </trkpt>
      <trkpt lat="48.62822" lon="2.04967">
        <ele>120</ele>
        <time>2010-03-19T12:28:33Z</time>
      </trkpt>
      <trkpt lat="48.62821" lon="2.0497">
        <ele>120</ele>
        <time>2010-03-19T12:28:34Z</time>
      </trkpt>
      <trkpt lat="48.62821" lon="2.04972">
        <ele>120</ele>
        <time>2010-03-19T12:28:35Z</time>
      </trkpt>
      <trkpt lat="48.6282" lon="2.04975">
        <ele>120</ele>
        <time>2010-03-19T12:28:36Z</time>
      </trkpt>
      <trkpt lat="48.62819" lon="2.04977">
        <ele>120</ele>
        <time>2010-03-19T12:28:37Z</time>
      </trkpt>
      <trkpt lat="48.62819" lon="2.0498">
        <ele>120</ele>
        <time>2010-03-19T12:28:38Z</time>
      </trkpt>
      <trkpt lat="48.62818" lon="2.04982">
        <ele>120</ele>
        <time>2010-03-19T12:28:39Z</time>
      </trkpt>
      <trkpt lat="48.62817" lon="2.04985">
        <ele>120</ele>
        <time>2010-03-19T12:28:40Z</time>
      </trkpt>
      <trkpt lat="48.62816" lon="2.04988">
        <ele>120</ele>
        <time>2010-03-19T12:28:41Z</time>
      </trkpt>
      <trkpt lat="48.62815" lon="2.0499">
        <ele>121</ele>
        <time>2010-03-19T12:28:42Z</time>
      </trkpt>
      <trkpt lat="48.62815" lon="2.04993">
        <ele>121</ele>
        <time>2010-03-19T12:28:43Z</time>
      </trkpt>
      <trkpt lat="48.62815" lon="2.04996">
        <ele>121</ele>
        <time>2010-03-19T12:28:44Z</time>
      </trkpt>
      <trkpt lat="48.62814" lon="2.04998">
        <ele>121</ele>
        <time>2010-03-19T12:28:45Z</time>
      </trkpt>
      <trkpt lat="48.62814" lon="2.05001">
        <ele>122</ele>
        <time>2010-03-19T12:28:46Z</time>
      </trkpt>
      <trkpt lat="48.62814" lon="2.05004">
        <ele>122</ele>
        <time>2010-03-19T12:28:47Z</time>
      </trkpt>
      <trkpt lat="48.62813" lon="2.05006">
        <ele>122</ele>
        <time>2010-03-19T12:28:48Z</time>
      </trkpt>
      <trkpt lat="48.62813" lon="2.05009">
        <ele>122</ele>
        <time>2010-03-19T12:28:49Z</time>
      </trkpt>
      <trkpt lat="48.62812" lon="2.05012">
        <ele>122</ele>
        <time>2010-03-19T12:28:50Z</time>
      </trkpt>
      <trkpt lat="48.62812" lon="2.05014">
        <ele>123</ele>
        <time>2010-03-19T12:28:51Z</time>
      </trkpt>
      <trkpt lat="48.62811" lon="2.05016">
        <ele>123</ele>
        <time>2010-03-19T12:28:52Z</time>
      </trkpt>
      <trkpt lat="48.62811" lon="2.05019">
        <ele>123</ele>
        <time>2010-03-19T12:28:53Z</time>
      </trkpt>
      <trkpt lat="48.6281" lon="2.05022">
        <ele>123</ele>
        <time>2010-03-19T12:28:54Z</time>
      </trkpt>
      <trkpt lat="48.6281" lon="2.05024">
        <ele>123</ele>
        <time>2010-03-19T12:28:55Z</time>
      </trkpt>
      <trkpt lat="48.6281" lon="2.05027">
        <ele>123</ele>
        <time>2010-03-19T12:28:56Z</time>
      </trkpt>
      <trkpt lat="48.6281" lon="2.05029">
        <ele>123</ele>
        <time>2010-03-19T12:28:57Z</time>
      </trkpt>
      <trkpt lat="48.62809" lon="2.05031">
        <ele>123</ele>
        <time>2010-03-19T12:28:58Z</time>
      </trkpt>
      <trkpt lat="48.62809" lon="2.05034">
        <ele>123</ele>
        <time>2010-03-19T12:28:59Z</time>
      </trkpt>
      <trkpt lat="48.62808" lon="2.05036">
        <ele>123</ele>
        <time>2010-03-19T12:29:00Z</time>
      </trkpt>
      <trkpt lat="48.62808" lon="2.05039">
        <ele>123</ele>
        <time>2010-03-19T12:29:01Z</time>
      </trkpt>
      <trkpt lat="48.62807" lon="2.05042">
        <ele>123</ele>
        <time>2010-03-19T12:29:02Z</time>
      </trkpt>
      <trkpt lat="48.62806" lon="2.05044">
        <ele>123</ele>
        <time>2010-03-19T12:29:03Z</time>
      </trkpt>
      <trkpt lat="48.62805" lon="2.05047">
        <ele>123</ele>
        <time>2010-03-19T12:29:04Z</time>
      </trkpt>
      <trkpt lat="48.62805" lon="2.05049">
        <ele>123</ele>
        <time>2010-03-19T12:29:05Z</time>
      </trkpt>
      <trkpt lat="48.62804" lon="2.05052">
        <ele>124</ele>
        <time>2010-03-19T12:29:06Z</time>
      </trkpt>
      <trkpt lat="48.62803" lon="2.05054">
        <ele>124</ele>
        <time>2010-03-19T12:29:07Z</time>
      </trkpt>
      <trkpt lat="48.62803" lon="2.05057">
        <ele>124</ele>
        <time>2010-03-19T12:29:08Z</time>
      </trkpt>
      <trkpt lat="48.62801" lon="2.05059">
        <ele>125</ele>
        <time>2010-03-19T12:29:09Z</time>
      </trkpt>
      <trkpt lat="48.628" lon="2.05062">
        <ele>125</ele>
        <time>2010-03-19T12:29:10Z</time>
      </trkpt>
      <trkpt lat="48.62799" lon="2.05064">
        <ele>125</ele>
        <time>2010-03-19T12:29:11Z</time>
      </trkpt>
      <trkpt lat="48.62798" lon="2.05066">
        <ele>125</ele>
        <time>2010-03-19T12:29:12Z</time>
      </trkpt>
      <trkpt lat="48.62798" lon="2.05068">
        <ele>125</ele>
        <time>2010-03-19T12:29:13Z</time>
      </trkpt>
      <trkpt lat="48.62797" lon="2.05071">
        <ele>125</ele>
        <time>2010-03-19T12:29:14Z</time>
      </trkpt>
      <trkpt lat="48.62797" lon="2.05073">
        <ele>126</ele>
        <time>2010-03-19T12:29:15Z</time>
      </trkpt>
      <trkpt lat="48.62796" lon="2.05075">
        <ele>126</ele>
        <time>2010-03-19T12:29:16Z</time>
      </trkpt>
      <trkpt lat="48.62795" lon="2.05078">
        <ele>126</ele>
        <time>2010-03-19T12:29:17Z</time>
      </trkpt>
      <trkpt lat="48.62795" lon="2.0508">
        <ele>126</ele>
        <time>2010-03-19T12:29:18Z</time>
      </trkpt>
      <trkpt lat="48.62794" lon="2.05083">
        <ele>126</ele>
        <time>2010-03-19T12:29:19Z</time>
      </trkpt>
      <trkpt lat="48.62794" lon="2.05085">
        <ele>127</ele>
        <time>2010-03-19T12:29:20Z</time>
      </trkpt>
      <trkpt lat="48.62793" lon="2.05087">
        <ele>127</ele>
        <time>2010-03-19T12:29:21Z</time>
      </trkpt>
      <trkpt lat="48.62792" lon="2.0509">
        <ele>128</ele>
        <time>2010-03-19T12:29:22Z</time>
      </trkpt>
      <trkpt lat="48.62791" lon="2.05092">
        <ele>128</ele>
        <time>2010-03-19T12:29:23Z</time>
      </trkpt>
      <trkpt lat="48.6279" lon="2.05093">
        <ele>129</ele>
        <time>2010-03-19T12:29:24Z</time>
      </trkpt>
      <trkpt lat="48.62789" lon="2.05095">
        <ele>129</ele>
        <time>2010-03-19T12:29:25Z</time>
      </trkpt>
      <trkpt lat="48.62788" lon="2.05096">
        <ele>129</ele>
        <time>2010-03-19T12:29:26Z</time>
      </trkpt>
      <trkpt lat="48.62786" lon="2.05098">
        <ele>129</ele>
        <time>2010-03-19T12:29:27Z</time>
      </trkpt>
      <trkpt lat="48.62785" lon="2.051">
        <ele>130</ele>
        <time>2010-03-19T12:29:28Z</time>
      </trkpt>
      <trkpt lat="48.62783" lon="2.05101">
        <ele>130</ele>
        <time>2010-03-19T12:29:29Z</time>
      </trkpt>
      <trkpt lat="48.62782" lon="2.05102">
        <ele>130</ele>
        <time>2010-03-19T12:29:30Z</time>
      </trkpt>
      <trkpt lat="48.6278" lon="2.05104">
        <ele>130</ele>
        <time>2010-03-19T12:29:31Z</time>
      </trkpt>
      <trkpt lat="48.62778" lon="2.05105">
        <ele>130</ele>
        <time>2010-03-19T12:29:32Z</time>
      </trkpt>
      <trkpt lat="48.62777" lon="2.05106">
        <ele>130</ele>
        <time>2010-03-19T12:29:33Z</time>
      </trkpt>
      <trkpt lat="48.62775" lon="2.05107">
        <ele>130</ele>
        <time>2010-03-19T12:29:34Z</time>
      </trkpt>
      <trkpt lat="48.62773" lon="2.05108">
        <ele>130</ele>
        <time>2010-03-19T12:29:35Z</time>
      </trkpt>
      <trkpt lat="48.62771" lon="2.0511">
        <ele>130</ele>
        <time>2010-03-19T12:29:36Z</time>
      </trkpt>
      <trkpt lat="48.62769" lon="2.05111">
        <ele>130</ele>
        <time>2010-03-19T12:29:37Z</time>
      </trkpt>
      <trkpt lat="48.62767" lon="2.05112">
        <ele>130</ele>
        <time>2010-03-19T12:29:38Z</time>
      </trkpt>
      <trkpt lat="48.62765" lon="2.05112">
        <ele>131</ele>
        <time>2010-03-19T12:29:39Z</time>
      </trkpt>
      <trkpt lat="48.62763" lon="2.05113">
        <ele>131</ele>
        <time>2010-03-19T12:29:40Z</time>
      </trkpt>
      <trkpt lat="48.62762" lon="2.05114">
        <ele>132</ele>
        <time>2010-03-19T12:29:41Z</time>
      </trkpt>
      <trkpt lat="48.6276" lon="2.05114">
        <ele>132</ele>
        <time>2010-03-19T12:29:42Z</time>
      </trkpt>
      <trkpt lat="48.62759" lon="2.05114">
        <ele>132</ele>
        <time>2010-03-19T12:29:43Z</time>
      </trkpt>
      <trkpt lat="48.62757" lon="2.05114">
        <ele>133</ele>
        <time>2010-03-19T12:29:45Z</time>
      </trkpt>
      <trkpt lat="48.62756" lon="2.05114">
        <ele>133</ele>
        <time>2010-03-19T12:29:47Z</time>
      </trkpt>
      <trkpt lat="48.62754" lon="2.05114">
        <ele>133</ele>
        <time>2010-03-19T12:29:48Z</time>
      </trkpt>
      <trkpt lat="48.62753" lon="2.05114">
        <ele>133</ele>
        <time>2010-03-19T12:29:49Z</time>
      </trkpt>
      <trkpt lat="48.62751" lon="2.05114">
        <ele>133</ele>
        <time>2010-03-19T12:29:50Z</time>
      </trkpt>
      <trkpt lat="48.62749" lon="2.05114">
        <ele>133</ele>
        <time>2010-03-19T12:29:51Z</time>
      </trkpt>
      <trkpt lat="48.62748" lon="2.05114">
        <ele>133</ele>
        <time>2010-03-19T12:29:52Z</time>
      </trkpt>
      <trkpt lat="48.62747" lon="2.05114">
        <ele>133</ele>
        <time>2010-03-19T12:29:53Z</time>
      </trkpt>
      <trkpt lat="48.62745" lon="2.05114">
        <ele>133</ele>
        <time>2010-03-19T12:29:54Z</time>
      </trkpt>
      <trkpt lat="48.62744" lon="2.05114">
        <ele>133</ele>
        <time>2010-03-19T12:29:55Z</time>
      </trkpt>
      <trkpt lat="48.62742" lon="2.05114">
        <ele>133</ele>
        <time>2010-03-19T12:29:56Z</time>
      </trkpt>
      <trkpt lat="48.6274" lon="2.05114">
        <ele>133</ele>
        <time>2010-03-19T12:29:57Z</time>
      </trkpt>
      <trkpt lat="48.62739" lon="2.05114">
        <ele>133</ele>
        <time>2010-03-19T12:29:58Z</time>
      </trkpt>
      <trkpt lat="48.62737" lon="2.05113">
        <ele>133</ele>
        <time>2010-03-19T12:29:59Z</time>
      </trkpt>
      <trkpt lat="48.62736" lon="2.05112">
        <ele>133</ele>
        <time>2010-03-19T12:30:00Z</time>
      </trkpt>
      <trkpt lat="48.62734" lon="2.05111">
        <ele>133</ele>
        <time>2010-03-19T12:30:01Z</time>
      </trkpt>
      <trkpt lat="48.62731" lon="2.05114">
        <ele>133</ele>
        <time>2010-03-19T12:30:02Z</time>
      </trkpt>
      <trkpt lat="48.62729" lon="2.05115">
        <ele>133</ele>
        <time>2010-03-19T12:30:03Z</time>
      </trkpt>
      <trkpt lat="48.62727" lon="2.05115">
        <ele>133</ele>
        <time>2010-03-19T12:30:04Z</time>
      </trkpt>
      <trkpt lat="48.62725" lon="2.05114">
        <ele>133</ele>
        <time>2010-03-19T12:30:05Z</time>
      </trkpt>
      <trkpt lat="48.62724" lon="2.05114">
        <ele>132</ele>
        <time>2010-03-19T12:30:06Z</time>
      </trkpt>
      <trkpt lat="48.62723" lon="2.05113">
        <ele>132</ele>
        <time>2010-03-19T12:30:07Z</time>
      </trkpt>
      <trkpt lat="48.62721" lon="2.05113">
        <ele>132</ele>
        <time>2010-03-19T12:30:08Z</time>
      </trkpt>
      <trkpt lat="48.6272" lon="2.05112">
        <ele>132</ele>
        <time>2010-03-19T12:30:09Z</time>
      </trkpt>
      <trkpt lat="48.62717" lon="2.05111">
        <ele>132</ele>
        <time>2010-03-19T12:30:10Z</time>
      </trkpt>
      <trkpt lat="48.62716" lon="2.0511">
        <ele>131</ele>
        <time>2010-03-19T12:30:11Z</time>
      </trkpt>
      <trkpt lat="48.62714" lon="2.0511">
        <ele>131</ele>
        <time>2010-03-19T12:30:12Z</time>
      </trkpt>
      <trkpt lat="48.62712" lon="2.05109">
        <ele>131</ele>
        <time>2010-03-19T12:30:13Z</time>
      </trkpt>
      <trkpt lat="48.62711" lon="2.05108">
        <ele>131</ele>
        <time>2010-03-19T12:30:14Z</time>
      </trkpt>
      <trkpt lat="48.62709" lon="2.05107">
        <ele>131</ele>
        <time>2010-03-19T12:30:15Z</time>
      </trkpt>
      <trkpt lat="48.62708" lon="2.05106">
        <ele>131</ele>
        <time>2010-03-19T12:30:16Z</time>
      </trkpt>
      <trkpt lat="48.62707" lon="2.05105">
        <ele>131</ele>
        <time>2010-03-19T12:30:17Z</time>
      </trkpt>
      <trkpt lat="48.62705" lon="2.05104">
        <ele>131</ele>
        <time>2010-03-19T12:30:18Z</time>
      </trkpt>
      <trkpt lat="48.62704" lon="2.05103">
        <ele>130</ele>
        <time>2010-03-19T12:30:19Z</time>
      </trkpt>
      <trkpt lat="48.62703" lon="2.05102">
        <ele>130</ele>
        <time>2010-03-19T12:30:20Z</time>
      </trkpt>
      <trkpt lat="48.62701" lon="2.051">
        <ele>130</ele>
        <time>2010-03-19T12:30:21Z</time>
      </trkpt>
      <trkpt lat="48.627" lon="2.05099">
        <ele>130</ele>
        <time>2010-03-19T12:30:22Z</time>
      </trkpt>
      <trkpt lat="48.62698" lon="2.05098">
        <ele>130</ele>
        <time>2010-03-19T12:30:23Z</time>
      </trkpt>
      <trkpt lat="48.62697" lon="2.05097">
        <ele>130</ele>
        <time>2010-03-19T12:30:24Z</time>
      </trkpt>
      <trkpt lat="48.62696" lon="2.05097">
        <ele>130</ele>
        <time>2010-03-19T12:30:25Z</time>
      </trkpt>
      <trkpt lat="48.62694" lon="2.05096">
        <ele>130</ele>
        <time>2010-03-19T12:30:26Z</time>
      </trkpt>
      <trkpt lat="48.62692" lon="2.05095">
        <ele>130</ele>
        <time>2010-03-19T12:30:27Z</time>
      </trkpt>
      <trkpt lat="48.62691" lon="2.05095">
        <ele>130</ele>
        <time>2010-03-19T12:30:28Z</time>
      </trkpt>
      <trkpt lat="48.62689" lon="2.05095">
        <ele>130</ele>
        <time>2010-03-19T12:30:29Z</time>
      </trkpt>
      <trkpt lat="48.62687" lon="2.05094">
        <ele>130</ele>
        <time>2010-03-19T12:30:30Z</time>
      </trkpt>
      <trkpt lat="48.62685" lon="2.05094">
        <ele>130</ele>
        <time>2010-03-19T12:30:31Z</time>
      </trkpt>
      <trkpt lat="48.62683" lon="2.05093">
        <ele>130</ele>
        <time>2010-03-19T12:30:32Z</time>
      </trkpt>
      <trkpt lat="48.62682" lon="2.05092">
        <ele>130</ele>
        <time>2010-03-19T12:30:33Z</time>
      </trkpt>
      <trkpt lat="48.6268" lon="2.05091">
        <ele>130</ele>
        <time>2010-03-19T12:30:34Z</time>
      </trkpt>
      <trkpt lat="48.62679" lon="2.05091">
        <ele>130</ele>
        <time>2010-03-19T12:30:35Z</time>
      </trkpt>
      <trkpt lat="48.62677" lon="2.0509">
        <ele>130</ele>
        <time>2010-03-19T12:30:36Z</time>
      </trkpt>
      <trkpt lat="48.62675" lon="2.05089">
        <ele>130</ele>
        <time>2010-03-19T12:30:37Z</time>
      </trkpt>
      <trkpt lat="48.62674" lon="2.05088">
        <ele>130</ele>
        <time>2010-03-19T12:30:38Z</time>
      </trkpt>
      <trkpt lat="48.62673" lon="2.05087">
        <ele>130</ele>
        <time>2010-03-19T12:30:39Z</time>
      </trkpt>
      <trkpt lat="48.62671" lon="2.05087">
        <ele>130</ele>
        <time>2010-03-19T12:30:40Z</time>
      </trkpt>
      <trkpt lat="48.62669" lon="2.05086">
        <ele>130</ele>
        <time>2010-03-19T12:30:41Z</time>
      </trkpt>
      <trkpt lat="48.62667" lon="2.05086">
        <ele>130</ele>
        <time>2010-03-19T12:30:42Z</time>
      </trkpt>
      <trkpt lat="48.62666" lon="2.05085">
        <ele>130</ele>
        <time>2010-03-19T12:30:43Z</time>
      </trkpt>
      <trkpt lat="48.62665" lon="2.05084">
        <ele>130</ele>
        <time>2010-03-19T12:30:44Z</time>
      </trkpt>
      <trkpt lat="48.62663" lon="2.05084">
        <ele>130</ele>
        <time>2010-03-19T12:30:45Z</time>
      </trkpt>
      <trkpt lat="48.6266" lon="2.05083">
        <ele>130</ele>
        <time>2010-03-19T12:30:46Z</time>
      </trkpt>
      <trkpt lat="48.62659" lon="2.05082">
        <ele>130</ele>
        <time>2010-03-19T12:30:47Z</time>
      </trkpt>
      <trkpt lat="48.62657" lon="2.05081">
        <ele>130</ele>
        <time>2010-03-19T12:30:48Z</time>
      </trkpt>
      <trkpt lat="48.62655" lon="2.05081">
        <ele>130</ele>
        <time>2010-03-19T12:30:49Z</time>
      </trkpt>
      <trkpt lat="48.62654" lon="2.0508">
        <ele>130</ele>
        <time>2010-03-19T12:30:50Z</time>
      </trkpt>
      <trkpt lat="48.62653" lon="2.05079">
        <ele>130</ele>
        <time>2010-03-19T12:30:51Z</time>
      </trkpt>
      <trkpt lat="48.62651" lon="2.05079">
        <ele>130</ele>
        <time>2010-03-19T12:30:52Z</time>
      </trkpt>
      <trkpt lat="48.6265" lon="2.05078">
        <ele>130</ele>
        <time>2010-03-19T12:30:53Z</time>
      </trkpt>
      <trkpt lat="48.62648" lon="2.05078">
        <ele>130</ele>
        <time>2010-03-19T12:30:54Z</time>
      </trkpt>
      <trkpt lat="48.62647" lon="2.05078">
        <ele>130</ele>
        <time>2010-03-19T12:30:55Z</time>
      </trkpt>
      <trkpt lat="48.62646" lon="2.05077">
        <ele>130</ele>
        <time>2010-03-19T12:30:56Z</time>
      </trkpt>
      <trkpt lat="48.62644" lon="2.05076">
        <ele>130</ele>
        <time>2010-03-19T12:30:57Z</time>
      </trkpt>
      <trkpt lat="48.62643" lon="2.05076">
        <ele>130</ele>
        <time>2010-03-19T12:30:58Z</time>
      </trkpt>
      <trkpt lat="48.62641" lon="2.05076">
        <ele>130</ele>
        <time>2010-03-19T12:30:59Z</time>
      </trkpt>
      <trkpt lat="48.62639" lon="2.05075">
        <ele>130</ele>
        <time>2010-03-19T12:31:00Z</time>
      </trkpt>
      <trkpt lat="48.62638" lon="2.05075">
        <ele>130</ele>
        <time>2010-03-19T12:31:01Z</time>
      </trkpt>
      <trkpt lat="48.62636" lon="2.05075">
        <ele>130</ele>
        <time>2010-03-19T12:31:02Z</time>
      </trkpt>
      <trkpt lat="48.62635" lon="2.05075">
        <ele>130</ele>
        <time>2010-03-19T12:31:03Z</time>
      </trkpt>
      <trkpt lat="48.62633" lon="2.05075">
        <ele>130</ele>
        <time>2010-03-19T12:31:04Z</time>
      </trkpt>
      <trkpt lat="48.62632" lon="2.05074">
        <ele>130</ele>
        <time>2010-03-19T12:31:05Z</time>
      </trkpt>
      <trkpt lat="48.6263" lon="2.05074">
        <ele>130</ele>
        <time>2010-03-19T12:31:06Z</time>
      </trkpt>
      <trkpt lat="48.62629" lon="2.05074">
        <ele>130</ele>
        <time>2010-03-19T12:31:07Z</time>
      </trkpt>
      <trkpt lat="48.62627" lon="2.05074">
        <ele>130</ele>
        <time>2010-03-19T12:31:08Z</time>
      </trkpt>
      <trkpt lat="48.62625" lon="2.05075">
        <ele>130</ele>
        <time>2010-03-19T12:31:09Z</time>
      </trkpt>
      <trkpt lat="48.62624" lon="2.05075">
        <ele>130</ele>
        <time>2010-03-19T12:31:10Z</time>
      </trkpt>
      <trkpt lat="48.62622" lon="2.05075">
        <ele>130</ele>
        <time>2010-03-19T12:31:11Z</time>
      </trkpt>
      <trkpt lat="48.62621" lon="2.05075">
        <ele>130</ele>
        <time>2010-03-19T12:31:12Z</time>
      </trkpt>
      <trkpt lat="48.62619" lon="2.05075">
        <ele>130</ele>
        <time>2010-03-19T12:31:13Z</time>
      </trkpt>
      <trkpt lat="48.62617" lon="2.05075">
        <ele>130</ele>
        <time>2010-03-19T12:31:14Z</time>
      </trkpt>
      <trkpt lat="48.62616" lon="2.05075">
        <ele>130</ele>
        <time>2010-03-19T12:31:15Z</time>
      </trkpt>
      <trkpt lat="48.62614" lon="2.05075">
        <ele>130</ele>
        <time>2010-03-19T12:31:16Z</time>
      </trkpt>
      <trkpt lat="48.62613" lon="2.05075">
        <ele>130</ele>
        <time>2010-03-19T12:31:17Z</time>
      </trkpt>
      <trkpt lat="48.62611" lon="2.05075">
        <ele>130</ele>
        <time>2010-03-19T12:31:18Z</time>
      </trkpt>
      <trkpt lat="48.62609" lon="2.05075">
        <ele>130</ele>
        <time>2010-03-19T12:31:19Z</time>
      </trkpt>
      <trkpt lat="48.62607" lon="2.05075">
        <ele>130</ele>
        <time>2010-03-19T12:31:20Z</time>
      </trkpt>
      <trkpt lat="48.62605" lon="2.05074">
        <ele>130</ele>
        <time>2010-03-19T12:31:21Z</time>
      </trkpt>
      <trkpt lat="48.62604" lon="2.05074">
        <ele>130</ele>
        <time>2010-03-19T12:31:22Z</time>
      </trkpt>
      <trkpt lat="48.62602" lon="2.05073">
        <ele>130</ele>
        <time>2010-03-19T12:31:23Z</time>
      </trkpt>
      <trkpt lat="48.62601" lon="2.05072">
        <ele>130</ele>
        <time>2010-03-19T12:31:24Z</time>
      </trkpt>
      <trkpt lat="48.62599" lon="2.05072">
        <ele>130</ele>
        <time>2010-03-19T12:31:25Z</time>
      </trkpt>
      <trkpt lat="48.62597" lon="2.05071">
        <ele>130</ele>
        <time>2010-03-19T12:31:26Z</time>
      </trkpt>
      <trkpt lat="48.62596" lon="2.05071">
        <ele>130</ele>
        <time>2010-03-19T12:31:27Z</time>
      </trkpt>
      <trkpt lat="48.62593" lon="2.05071">
        <ele>130</ele>
        <time>2010-03-19T12:31:28Z</time>
      </trkpt>
      <trkpt lat="48.62592" lon="2.05071">
        <ele>130</ele>
        <time>2010-03-19T12:31:29Z</time>
      </trkpt>
      <trkpt lat="48.6259" lon="2.0507">
        <ele>130</ele>
        <time>2010-03-19T12:31:30Z</time>
      </trkpt>
      <trkpt lat="48.62588" lon="2.0507">
        <ele>130</ele>
        <time>2010-03-19T12:31:31Z</time>
      </trkpt>
      <trkpt lat="48.62586" lon="2.05069">
        <ele>130</ele>
        <time>2010-03-19T12:31:32Z</time>
      </trkpt>
      <trkpt lat="48.62584" lon="2.05069">
        <ele>130</ele>
        <time>2010-03-19T12:31:33Z</time>
      </trkpt>
      <trkpt lat="48.62582" lon="2.05068">
        <ele>130</ele>
        <time>2010-03-19T12:31:34Z</time>
      </trkpt>
      <trkpt lat="48.62581" lon="2.05068">
        <ele>130</ele>
        <time>2010-03-19T12:31:35Z</time>
      </trkpt>
      <trkpt lat="48.62579" lon="2.05067">
        <ele>130</ele>
        <time>2010-03-19T12:31:36Z</time>
      </trkpt>
      <trkpt lat="48.62577" lon="2.05067">
        <ele>130</ele>
        <time>2010-03-19T12:31:37Z</time>
      </trkpt>
      <trkpt lat="48.62575" lon="2.05066">
        <ele>130</ele>
        <time>2010-03-19T12:31:38Z</time>
      </trkpt>
      <trkpt lat="48.62574" lon="2.05066">
        <ele>130</ele>
        <time>2010-03-19T12:31:39Z</time>
      </trkpt>
      <trkpt lat="48.62572" lon="2.05065">
        <ele>130</ele>
        <time>2010-03-19T12:31:40Z</time>
      </trkpt>
      <trkpt lat="48.62569" lon="2.05064">
        <ele>130</ele>
        <time>2010-03-19T12:31:41Z</time>
      </trkpt>
      <trkpt lat="48.62568" lon="2.05063">
        <ele>130</ele>
        <time>2010-03-19T12:31:42Z</time>
      </trkpt>
      <trkpt lat="48.62566" lon="2.05063">
        <ele>130</ele>
        <time>2010-03-19T12:31:43Z</time>
      </trkpt>
      <trkpt lat="48.62564" lon="2.05062">
        <ele>130</ele>
        <time>2010-03-19T12:31:44Z</time>
      </trkpt>
      <trkpt lat="48.62562" lon="2.05062">
        <ele>130</ele>
        <time>2010-03-19T12:31:45Z</time>
      </trkpt>
      <trkpt lat="48.6256" lon="2.05061">
        <ele>130</ele>
        <time>2010-03-19T12:31:46Z</time>
      </trkpt>
      <trkpt lat="48.62558" lon="2.0506">
        <ele>130</ele>
        <time>2010-03-19T12:31:47Z</time>
      </trkpt>
      <trkpt lat="48.62557" lon="2.05059">
        <ele>130</ele>
        <time>2010-03-19T12:31:48Z</time>
      </trkpt>
      <trkpt lat="48.62555" lon="2.05059">
        <ele>130</ele>
        <time>2010-03-19T12:31:49Z</time>
      </trkpt>
      <trkpt lat="48.62554" lon="2.05058">
        <ele>130</ele>
        <time>2010-03-19T12:31:50Z</time>
      </trkpt>
      <trkpt lat="48.62551" lon="2.05057">
        <ele>130</ele>
        <time>2010-03-19T12:31:51Z</time>
      </trkpt>
      <trkpt lat="48.6255" lon="2.05056">
        <ele>130</ele>
        <time>2010-03-19T12:31:52Z</time>
      </trkpt>
      <trkpt lat="48.62548" lon="2.05055">
        <ele>130</ele>
        <time>2010-03-19T12:31:53Z</time>
      </trkpt>
      <trkpt lat="48.62547" lon="2.05054">
        <ele>130</ele>
        <time>2010-03-19T12:31:54Z</time>
      </trkpt>
      <trkpt lat="48.62545" lon="2.05053">
        <ele>130</ele>
        <time>2010-03-19T12:31:55Z</time>
      </trkpt>
      <trkpt lat="48.62543" lon="2.05052">
        <ele>130</ele>
        <time>2010-03-19T12:31:56Z</time>
      </trkpt>
      <trkpt lat="48.62541" lon="2.05051">
        <ele>130</ele>
        <time>2010-03-19T12:31:57Z</time>
      </trkpt>
      <trkpt lat="48.62539" lon="2.05049">
        <ele>130</ele>
        <time>2010-03-19T12:31:58Z</time>
      </trkpt>
      <trkpt lat="48.62538" lon="2.05048">
        <ele>130</ele>
        <time>2010-03-19T12:31:59Z</time>
      </trkpt>
      <trkpt lat="48.62536" lon="2.05047">
        <ele>130</ele>
        <time>2010-03-19T12:32:00Z</time>
      </trkpt>
      <trkpt lat="48.62534" lon="2.05046">
        <ele>130</ele>
        <time>2010-03-19T12:32:01Z</time>
      </trkpt>
      <trkpt lat="48.62533" lon="2.05045">
        <ele>130</ele>
        <time>2010-03-19T12:32:02Z</time>
      </trkpt>
      <trkpt lat="48.62531" lon="2.05044">
        <ele>130</ele>
        <time>2010-03-19T12:32:03Z</time>
      </trkpt>
      <trkpt lat="48.62529" lon="2.05043">
        <ele>130</ele>
        <time>2010-03-19T12:32:04Z</time>
      </trkpt>
      <trkpt lat="48.62527" lon="2.05042">
        <ele>130</ele>
        <time>2010-03-19T12:32:05Z</time>
      </trkpt>
      <trkpt lat="48.62526" lon="2.05041">
        <ele>130</ele>
        <time>2010-03-19T12:32:06Z</time>
      </trkpt>
      <trkpt lat="48.62524" lon="2.05039">
        <ele>130</ele>
        <time>2010-03-19T12:32:07Z</time>
      </trkpt>
      <trkpt lat="48.62522" lon="2.05038">
        <ele>130</ele>
        <time>2010-03-19T12:32:08Z</time>
      </trkpt>
      <trkpt lat="48.6252" lon="2.05036">
        <ele>130</ele>
        <time>2010-03-19T12:32:09Z</time>
      </trkpt>
      <trkpt lat="48.62519" lon="2.05035">
        <ele>130</ele>
        <time>2010-03-19T12:32:10Z</time>
      </trkpt>
      <trkpt lat="48.62517" lon="2.05034">
        <ele>130</ele>
        <time>2010-03-19T12:32:11Z</time>
      </trkpt>
      <trkpt lat="48.62516" lon="2.05033">
        <ele>130</ele>
        <time>2010-03-19T12:32:12Z</time>
      </trkpt>
      <trkpt lat="48.62514" lon="2.05032">
        <ele>130</ele>
        <time>2010-03-19T12:32:13Z</time>
      </trkpt>
      <trkpt lat="48.62512" lon="2.05031">
        <ele>130</ele>
        <time>2010-03-19T12:32:14Z</time>
      </trkpt>
      <trkpt lat="48.6251" lon="2.0503">
        <ele>130</ele>
        <time>2010-03-19T12:32:15Z</time>
      </trkpt>
      <trkpt lat="48.62509" lon="2.05029">
        <ele>130</ele>
        <time>2010-03-19T12:32:16Z</time>
      </trkpt>
      <trkpt lat="48.62507" lon="2.05028">
        <ele>130</ele>
        <time>2010-03-19T12:32:17Z</time>
      </trkpt>
      <trkpt lat="48.62506" lon="2.05027">
        <ele>130</ele>
        <time>2010-03-19T12:32:18Z</time>
      </trkpt>
      <trkpt lat="48.62504" lon="2.05026">
        <ele>130</ele>
        <time>2010-03-19T12:32:19Z</time>
      </trkpt>
      <trkpt lat="48.62502" lon="2.05025">
        <ele>130</ele>
        <time>2010-03-19T12:32:20Z</time>
      </trkpt>
      <trkpt lat="48.625" lon="2.05025">
        <ele>130</ele>
        <time>2010-03-19T12:32:21Z</time>
      </trkpt>
      <trkpt lat="48.62499" lon="2.05024">
        <ele>130</ele>
        <time>2010-03-19T12:32:22Z</time>
      </trkpt>
      <trkpt lat="48.62497" lon="2.05023">
        <ele>130</ele>
        <time>2010-03-19T12:32:23Z</time>
      </trkpt>
      <trkpt lat="48.62495" lon="2.05022">
        <ele>130</ele>
        <time>2010-03-19T12:32:24Z</time>
      </trkpt>
      <trkpt lat="48.62494" lon="2.05021">
        <ele>130</ele>
        <time>2010-03-19T12:32:25Z</time>
      </trkpt>
      <trkpt lat="48.62492" lon="2.0502">
        <ele>130</ele>
        <time>2010-03-19T12:32:26Z</time>
      </trkpt>
      <trkpt lat="48.6249" lon="2.05019">
        <ele>130</ele>
        <time>2010-03-19T12:32:27Z</time>
      </trkpt>
      <trkpt lat="48.62489" lon="2.05018">
        <ele>130</ele>
        <time>2010-03-19T12:32:28Z</time>
      </trkpt>
      <trkpt lat="48.62487" lon="2.05018">
        <ele>130</ele>
        <time>2010-03-19T12:32:29Z</time>
      </trkpt>
      <trkpt lat="48.62485" lon="2.05017">
        <ele>130</ele>
        <time>2010-03-19T12:32:30Z</time>
      </trkpt>
      <trkpt lat="48.62484" lon="2.05016">
        <ele>130</ele>
        <time>2010-03-19T12:32:31Z</time>
      </trkpt>
      <trkpt lat="48.62482" lon="2.05016">
        <ele>130</ele>
        <time>2010-03-19T12:32:32Z</time>
      </trkpt>
      <trkpt lat="48.62481" lon="2.05015">
        <ele>130</ele>
        <time>2010-03-19T12:32:33Z</time>
      </trkpt>
      <trkpt lat="48.62479" lon="2.05015">
        <ele>130</ele>
        <time>2010-03-19T12:32:34Z</time>
      </trkpt>
      <trkpt lat="48.62477" lon="2.05014">
        <ele>130</ele>
        <time>2010-03-19T12:32:35Z</time>
      </trkpt>
      <trkpt lat="48.62476" lon="2.05013">
        <ele>130</ele>
        <time>2010-03-19T12:32:36Z</time>
      </trkpt>
      <trkpt lat="48.62474" lon="2.05013">
        <ele>130</ele>
        <time>2010-03-19T12:32:37Z</time>
      </trkpt>
      <trkpt lat="48.62473" lon="2.05012">
        <ele>130</ele>
        <time>2010-03-19T12:32:38Z</time>
      </trkpt>
      <trkpt lat="48.62471" lon="2.05011">
        <ele>130</ele>
        <time>2010-03-19T12:32:39Z</time>
      </trkpt>
      <trkpt lat="48.6247" lon="2.0501">
        <ele>130</ele>
        <time>2010-03-19T12:32:40Z</time>
      </trkpt>
      <trkpt lat="48.62469" lon="2.0501">
        <ele>130</ele>
        <time>2010-03-19T12:32:41Z</time>
      </trkpt>
      <trkpt lat="48.62467" lon="2.05009">
        <ele>130</ele>
        <time>2010-03-19T12:32:42Z</time>
      </trkpt>
      <trkpt lat="48.62466" lon="2.05008">
        <ele>130</ele>
        <time>2010-03-19T12:32:43Z</time>
      </trkpt>
      <trkpt lat="48.62464" lon="2.05007">
        <ele>130</ele>
        <time>2010-03-19T12:32:44Z</time>
      </trkpt>
      <trkpt lat="48.62462" lon="2.05006">
        <ele>130</ele>
        <time>2010-03-19T12:32:45Z</time>
      </trkpt>
      <trkpt lat="48.6246" lon="2.05006">
        <ele>130</ele>
        <time>2010-03-19T12:32:46Z</time>
      </trkpt>
      <trkpt lat="48.62458" lon="2.05005">
        <ele>130</ele>
        <time>2010-03-19T12:32:47Z</time>
      </trkpt>
      <trkpt lat="48.62457" lon="2.05004">
        <ele>130</ele>
        <time>2010-03-19T12:32:48Z</time>
      </trkpt>
      <trkpt lat="48.62455" lon="2.05003">
        <ele>130</ele>
        <time>2010-03-19T12:32:49Z</time>
      </trkpt>
      <trkpt lat="48.62453" lon="2.05002">
        <ele>130</ele>
        <time>2010-03-19T12:32:50Z</time>
      </trkpt>
      <trkpt lat="48.62452" lon="2.05001">
        <ele>130</ele>
        <time>2010-03-19T12:32:51Z</time>
      </trkpt>
      <trkpt lat="48.62451" lon="2.05">
        <ele>130</ele>
        <time>2010-03-19T12:32:52Z</time>
      </trkpt>
      <trkpt lat="48.62449" lon="2.04999">
        <ele>130</ele>
        <time>2010-03-19T12:32:53Z</time>
      </trkpt>
      <trkpt lat="48.62448" lon="2.04998">
        <ele>130</ele>
        <time>2010-03-19T12:32:54Z</time>
      </trkpt>
      <trkpt lat="48.62446" lon="2.04997">
        <ele>130</ele>
        <time>2010-03-19T12:32:55Z</time>
      </trkpt>
      <trkpt lat="48.62445" lon="2.04996">
        <ele>130</ele>
        <time>2010-03-19T12:32:56Z</time>
      </trkpt>
      <trkpt lat="48.62444" lon="2.04995">
        <ele>130</ele>
        <time>2010-03-19T12:32:57Z</time>
      </trkpt>
      <trkpt lat="48.62442" lon="2.04994">
        <ele>130</ele>
        <time>2010-03-19T12:32:59Z</time>
      </trkpt>
      <trkpt lat="48.62441" lon="2.04993">
        <ele>130</ele>
        <time>2010-03-19T12:33:01Z</time>
      </trkpt>
      <trkpt lat="48.6244" lon="2.04991">
        <ele>130</ele>
        <time>2010-03-19T12:33:03Z</time>
      </trkpt>
      <trkpt lat="48.62437" lon="2.0499">
        <ele>131</ele>
        <time>2010-03-19T12:33:09Z</time>
      </trkpt>
      <trkpt lat="48.62436" lon="2.04988">
        <ele>131</ele>
        <time>2010-03-19T12:33:11Z</time>
      </trkpt>
      <trkpt lat="48.62434" lon="2.04987">
        <ele>131</ele>
        <time>2010-03-19T12:33:14Z</time>
      </trkpt>
      <trkpt lat="48.62432" lon="2.04987">
        <ele>131</ele>
        <time>2010-03-19T12:33:17Z</time>
      </trkpt>
      <trkpt lat="48.62431" lon="2.04986">
        <ele>131</ele>
        <time>2010-03-19T12:33:18Z</time>
      </trkpt>
      <trkpt lat="48.62429" lon="2.04985">
        <ele>131</ele>
        <time>2010-03-19T12:33:19Z</time>
      </trkpt>
      <trkpt lat="48.62428" lon="2.04984">
        <ele>131</ele>
        <time>2010-03-19T12:33:20Z</time>
      </trkpt>
      <trkpt lat="48.62427" lon="2.04982">
        <ele>131</ele>
        <time>2010-03-19T12:33:23Z</time>
      </trkpt>
      <trkpt lat="48.62426" lon="2.04982">
        <ele>131</ele>
        <time>2010-03-19T12:33:28Z</time>
      </trkpt>
      <trkpt lat="48.62424" lon="2.04982">
        <ele>131</ele>
        <time>2010-03-19T12:33:29Z</time>
      </trkpt>
      <trkpt lat="48.62423" lon="2.04982">
        <ele>131</ele>
        <time>2010-03-19T12:33:30Z</time>
      </trkpt>
      <trkpt lat="48.62421" lon="2.04981">
        <ele>131</ele>
        <time>2010-03-19T12:33:31Z</time>
      </trkpt>
      <trkpt lat="48.6242" lon="2.04981">
        <ele>131</ele>
        <time>2010-03-19T12:33:32Z</time>
      </trkpt>
      <trkpt lat="48.62418" lon="2.04981">
        <ele>131</ele>
        <time>2010-03-19T12:33:35Z</time>
      </trkpt>
      <trkpt lat="48.62416" lon="2.04981">
        <ele>131</ele>
        <time>2010-03-19T12:33:37Z</time>
      </trkpt>
      <trkpt lat="48.62415" lon="2.04981">
        <ele>132</ele>
        <time>2010-03-19T12:33:38Z</time>
      </trkpt>
      <trkpt lat="48.62413" lon="2.04982">
        <ele>132</ele>
        <time>2010-03-19T12:33:39Z</time>
      </trkpt>
      <trkpt lat="48.62411" lon="2.04982">
        <ele>132</ele>
        <time>2010-03-19T12:33:40Z</time>
      </trkpt>
      <trkpt lat="48.62409" lon="2.04981">
        <ele>132</ele>
        <time>2010-03-19T12:33:41Z</time>
      </trkpt>
      <trkpt lat="48.62408" lon="2.04981">
        <ele>132</ele>
        <time>2010-03-19T12:33:42Z</time>
      </trkpt>
      <trkpt lat="48.62406" lon="2.04981">
        <ele>132</ele>
        <time>2010-03-19T12:33:43Z</time>
      </trkpt>
      <trkpt lat="48.62404" lon="2.04981">
        <ele>132</ele>
        <time>2010-03-19T12:33:44Z</time>
      </trkpt>
      <trkpt lat="48.62402" lon="2.04981">
        <ele>132</ele>
        <time>2010-03-19T12:33:45Z</time>
      </trkpt>
      <trkpt lat="48.624" lon="2.0498">
        <ele>132</ele>
        <time>2010-03-19T12:33:46Z</time>
      </trkpt>
      <trkpt lat="48.62399" lon="2.0498">
        <ele>132</ele>
        <time>2010-03-19T12:33:47Z</time>
      </trkpt>
      <trkpt lat="48.62397" lon="2.0498">
        <ele>132</ele>
        <time>2010-03-19T12:33:48Z</time>
      </trkpt>
      <trkpt lat="48.62395" lon="2.0498">
        <ele>132</ele>
        <time>2010-03-19T12:33:49Z</time>
      </trkpt>
      <trkpt lat="48.62394" lon="2.04979">
        <ele>132</ele>
        <time>2010-03-19T12:33:50Z</time>
      </trkpt>
      <trkpt lat="48.62393" lon="2.04979">
        <ele>132</ele>
        <time>2010-03-19T12:33:51Z</time>
      </trkpt>
      <trkpt lat="48.62391" lon="2.04979">
        <ele>132</ele>
        <time>2010-03-19T12:33:53Z</time>
      </trkpt>
      <trkpt lat="48.62389" lon="2.04979">
        <ele>132</ele>
        <time>2010-03-19T12:33:58Z</time>
      </trkpt>
      <trkpt lat="48.62387" lon="2.04979">
        <ele>132</ele>
        <time>2010-03-19T12:33:59Z</time>
      </trkpt>
      <trkpt lat="48.62386" lon="2.04979">
        <ele>132</ele>
        <time>2010-03-19T12:34:00Z</time>
      </trkpt>
      <trkpt lat="48.62385" lon="2.04979">
        <ele>132</ele>
        <time>2010-03-19T12:34:02Z</time>
      </trkpt>
      <trkpt lat="48.62383" lon="2.04979">
        <ele>132</ele>
        <time>2010-03-19T12:34:05Z</time>
      </trkpt>
      <trkpt lat="48.62382" lon="2.04979">
        <ele>132</ele>
        <time>2010-03-19T12:34:06Z</time>
      </trkpt>
      <trkpt lat="48.6238" lon="2.04979">
        <ele>132</ele>
        <time>2010-03-19T12:34:07Z</time>
      </trkpt>
      <trkpt lat="48.62378" lon="2.04981">
        <ele>132</ele>
        <time>2010-03-19T12:34:09Z</time>
      </trkpt>
      <trkpt lat="48.62377" lon="2.04982">
        <ele>132</ele>
        <time>2010-03-19T12:34:10Z</time>
      </trkpt>
      <trkpt lat="48.62376" lon="2.04983">
        <ele>132</ele>
        <time>2010-03-19T12:34:11Z</time>
      </trkpt>
      <trkpt lat="48.62374" lon="2.04984">
        <ele>132</ele>
        <time>2010-03-19T12:34:12Z</time>
      </trkpt>
      <trkpt lat="48.62373" lon="2.04985">
        <ele>132</ele>
        <time>2010-03-19T12:34:13Z</time>
      </trkpt>
      <trkpt lat="48.62371" lon="2.04987">
        <ele>132</ele>
        <time>2010-03-19T12:34:14Z</time>
      </trkpt>
      <trkpt lat="48.62369" lon="2.04989">
        <ele>132</ele>
        <time>2010-03-19T12:34:15Z</time>
      </trkpt>
      <trkpt lat="48.62366" lon="2.04992">
        <ele>132</ele>
        <time>2010-03-19T12:34:16Z</time>
      </trkpt>
      <trkpt lat="48.62362" lon="2.04995">
        <ele>132</ele>
        <time>2010-03-19T12:34:17Z</time>
      </trkpt>
      <trkpt lat="48.6236" lon="2.04997">
        <ele>132</ele>
        <time>2010-03-19T12:34:18Z</time>
      </trkpt>
      <trkpt lat="48.62357" lon="2.05">
        <ele>132</ele>
        <time>2010-03-19T12:34:19Z</time>
      </trkpt>
      <trkpt lat="48.62354" lon="2.05002">
        <ele>132</ele>
        <time>2010-03-19T12:34:20Z</time>
      </trkpt>
      <trkpt lat="48.62352" lon="2.05004">
        <ele>132</ele>
        <time>2010-03-19T12:34:21Z</time>
      </trkpt>
      <trkpt lat="48.62349" lon="2.05006">
        <ele>132</ele>
        <time>2010-03-19T12:34:22Z</time>
      </trkpt>
      <trkpt lat="48.62347" lon="2.05007">
        <ele>132</ele>
        <time>2010-03-19T12:34:23Z</time>
      </trkpt>
      <trkpt lat="48.62346" lon="2.05008">
        <ele>132</ele>
        <time>2010-03-19T12:34:24Z</time>
      </trkpt>
      <trkpt lat="48.62344" lon="2.05009">
        <ele>132</ele>
        <time>2010-03-19T12:34:25Z</time>
      </trkpt>
      <trkpt lat="48.62343" lon="2.0501">
        <ele>132</ele>
        <time>2010-03-19T12:34:26Z</time>
      </trkpt>
      <trkpt lat="48.62341" lon="2.05011">
        <ele>132</ele>
        <time>2010-03-19T12:34:27Z</time>
      </trkpt>
      <trkpt lat="48.6234" lon="2.05012">
        <ele>132</ele>
        <time>2010-03-19T12:34:28Z</time>
      </trkpt>
      <trkpt lat="48.62339" lon="2.05012">
        <ele>132</ele>
        <time>2010-03-19T12:34:29Z</time>
      </trkpt>
      <trkpt lat="48.62336" lon="2.05013">
        <ele>132</ele>
        <time>2010-03-19T12:34:30Z</time>
      </trkpt>
      <trkpt lat="48.62335" lon="2.05014">
        <ele>132</ele>
        <time>2010-03-19T12:34:31Z</time>
      </trkpt>
      <trkpt lat="48.62333" lon="2.05014">
        <ele>132</ele>
        <time>2010-03-19T12:34:32Z</time>
      </trkpt>
      <trkpt lat="48.62332" lon="2.05015">
        <ele>132</ele>
        <time>2010-03-19T12:34:33Z</time>
      </trkpt>
      <trkpt lat="48.6233" lon="2.05016">
        <ele>132</ele>
        <time>2010-03-19T12:34:34Z</time>
      </trkpt>
      <trkpt lat="48.62328" lon="2.05017">
        <ele>132</ele>
        <time>2010-03-19T12:34:35Z</time>
      </trkpt>
      <trkpt lat="48.62326" lon="2.05017">
        <ele>132</ele>
        <time>2010-03-19T12:34:36Z</time>
      </trkpt>
      <trkpt lat="48.62325" lon="2.05018">
        <ele>132</ele>
        <time>2010-03-19T12:34:37Z</time>
      </trkpt>
      <trkpt lat="48.62324" lon="2.05019">
        <ele>132</ele>
        <time>2010-03-19T12:34:38Z</time>
      </trkpt>
      <trkpt lat="48.62322" lon="2.05019">
        <ele>132</ele>
        <time>2010-03-19T12:34:39Z</time>
      </trkpt>
      <trkpt lat="48.62321" lon="2.0502">
        <ele>132</ele>
        <time>2010-03-19T12:34:40Z</time>
      </trkpt>
      <trkpt lat="48.62319" lon="2.05022">
        <ele>132</ele>
        <time>2010-03-19T12:34:41Z</time>
      </trkpt>
      <trkpt lat="48.62317" lon="2.05022">
        <ele>132</ele>
        <time>2010-03-19T12:34:42Z</time>
      </trkpt>
      <trkpt lat="48.62315" lon="2.05023">
        <ele>132</ele>
        <time>2010-03-19T12:34:43Z</time>
      </trkpt>
      <trkpt lat="48.62313" lon="2.05025">
        <ele>132</ele>
        <time>2010-03-19T12:34:45Z</time>
      </trkpt>
      <trkpt lat="48.62311" lon="2.05027">
        <ele>132</ele>
        <time>2010-03-19T12:34:47Z</time>
      </trkpt>
      <trkpt lat="48.62309" lon="2.05029">
        <ele>132</ele>
        <time>2010-03-19T12:34:49Z</time>
      </trkpt>
      <trkpt lat="48.62308" lon="2.0503">
        <ele>132</ele>
        <time>2010-03-19T12:34:50Z</time>
      </trkpt>
      <trkpt lat="48.62307" lon="2.05031">
        <ele>132</ele>
        <time>2010-03-19T12:34:51Z</time>
      </trkpt>
      <trkpt lat="48.62305" lon="2.05032">
        <ele>132</ele>
        <time>2010-03-19T12:34:52Z</time>
      </trkpt>
      <trkpt lat="48.62304" lon="2.05033">
        <ele>132</ele>
        <time>2010-03-19T12:34:53Z</time>
      </trkpt>
      <trkpt lat="48.62302" lon="2.05034">
        <ele>132</ele>
        <time>2010-03-19T12:34:54Z</time>
      </trkpt>
      <trkpt lat="48.623" lon="2.05035">
        <ele>132</ele>
        <time>2010-03-19T12:34:55Z</time>
      </trkpt>
      <trkpt lat="48.62299" lon="2.05036">
        <ele>132</ele>
        <time>2010-03-19T12:34:56Z</time>
      </trkpt>
      <trkpt lat="48.62297" lon="2.05037">
        <ele>132</ele>
        <time>2010-03-19T12:34:57Z</time>
      </trkpt>
      <trkpt lat="48.62295" lon="2.05038">
        <ele>132</ele>
        <time>2010-03-19T12:34:58Z</time>
      </trkpt>
      <trkpt lat="48.62294" lon="2.0504">
        <ele>132</ele>
        <time>2010-03-19T12:34:59Z</time>
      </trkpt>
      <trkpt lat="48.62292" lon="2.05042">
        <ele>132</ele>
        <time>2010-03-19T12:35:00Z</time>
      </trkpt>
      <trkpt lat="48.62291" lon="2.05044">
        <ele>132</ele>
        <time>2010-03-19T12:35:01Z</time>
      </trkpt>
      <trkpt lat="48.62289" lon="2.05047">
        <ele>132</ele>
        <time>2010-03-19T12:35:02Z</time>
      </trkpt>
      <trkpt lat="48.62289" lon="2.05049">
        <ele>132</ele>
        <time>2010-03-19T12:35:03Z</time>
      </trkpt>
      <trkpt lat="48.62288" lon="2.05052">
        <ele>132</ele>
        <time>2010-03-19T12:35:04Z</time>
      </trkpt>
      <trkpt lat="48.62288" lon="2.05055">
        <ele>132</ele>
        <time>2010-03-19T12:35:05Z</time>
      </trkpt>
      <trkpt lat="48.62287" lon="2.05058">
        <ele>133</ele>
        <time>2010-03-19T12:35:06Z</time>
      </trkpt>
      <trkpt lat="48.62286" lon="2.05061">
        <ele>134</ele>
        <time>2010-03-19T12:35:07Z</time>
      </trkpt>
      <trkpt lat="48.62286" lon="2.05065">
        <ele>134</ele>
        <time>2010-03-19T12:35:08Z</time>
      </trkpt>
      <trkpt lat="48.62285" lon="2.05068">
        <ele>135</ele>
        <time>2010-03-19T12:35:09Z</time>
      </trkpt>
      <trkpt lat="48.62284" lon="2.05071">
        <ele>136</ele>
        <time>2010-03-19T12:35:10Z</time>
      </trkpt>
      <trkpt lat="48.62284" lon="2.05073">
        <ele>137</ele>
        <time>2010-03-19T12:35:11Z</time>
      </trkpt>
      <trkpt lat="48.62283" lon="2.05076">
        <ele>138</ele>
        <time>2010-03-19T12:35:12Z</time>
      </trkpt>
      <trkpt lat="48.62283" lon="2.05079">
        <ele>139</ele>
        <time>2010-03-19T12:35:13Z</time>
      </trkpt>
      <trkpt lat="48.62281" lon="2.05082">
        <ele>140</ele>
        <time>2010-03-19T12:35:14Z</time>
      </trkpt>
      <trkpt lat="48.62281" lon="2.05084">
        <ele>141</ele>
        <time>2010-03-19T12:35:15Z</time>
      </trkpt>
      <trkpt lat="48.62281" lon="2.05087">
        <ele>142</ele>
        <time>2010-03-19T12:35:16Z</time>
      </trkpt>
      <trkpt lat="48.62281" lon="2.05089">
        <ele>143</ele>
        <time>2010-03-19T12:35:17Z</time>
      </trkpt>
      <trkpt lat="48.62281" lon="2.05092">
        <ele>143</ele>
        <time>2010-03-19T12:35:18Z</time>
      </trkpt>
      <trkpt lat="48.62282" lon="2.05095">
        <ele>144</ele>
        <time>2010-03-19T12:35:19Z</time>
      </trkpt>
      <trkpt lat="48.62283" lon="2.05098">
        <ele>144</ele>
        <time>2010-03-19T12:35:20Z</time>
      </trkpt>
      <trkpt lat="48.62283" lon="2.051">
        <ele>145</ele>
        <time>2010-03-19T12:35:21Z</time>
      </trkpt>
      <trkpt lat="48.62284" lon="2.05102">
        <ele>145</ele>
        <time>2010-03-19T12:35:22Z</time>
      </trkpt>
      <trkpt lat="48.62284" lon="2.05105">
        <ele>145</ele>
        <time>2010-03-19T12:35:23Z</time>
      </trkpt>
      <trkpt lat="48.62284" lon="2.05107">
        <ele>145</ele>
        <time>2010-03-19T12:35:24Z</time>
      </trkpt>
      <trkpt lat="48.62284" lon="2.0511">
        <ele>145</ele>
        <time>2010-03-19T12:35:25Z</time>
      </trkpt>
      <trkpt lat="48.62284" lon="2.05113">
        <ele>145</ele>
        <time>2010-03-19T12:35:26Z</time>
      </trkpt>
      <trkpt lat="48.62284" lon="2.05116">
        <ele>145</ele>
        <time>2010-03-19T12:35:27Z</time>
      </trkpt>
      <trkpt lat="48.62284" lon="2.05119">
        <ele>145</ele>
        <time>2010-03-19T12:35:28Z</time>
      </trkpt>
      <trkpt lat="48.62284" lon="2.05121">
        <ele>145</ele>
        <time>2010-03-19T12:35:29Z</time>
      </trkpt>
      <trkpt lat="48.62284" lon="2.05124">
        <ele>145</ele>
        <time>2010-03-19T12:35:30Z</time>
      </trkpt>
      <trkpt lat="48.62284" lon="2.05127">
        <ele>145</ele>
        <time>2010-03-19T12:35:31Z</time>
      </trkpt>
      <trkpt lat="48.62284" lon="2.0513">
        <ele>145</ele>
        <time>2010-03-19T12:35:32Z</time>
      </trkpt>
      <trkpt lat="48.62284" lon="2.05132">
        <ele>145</ele>
        <time>2010-03-19T12:35:33Z</time>
      </trkpt>
      <trkpt lat="48.62284" lon="2.05135">
        <ele>145</ele>
        <time>2010-03-19T12:35:34Z</time>
      </trkpt>
      <trkpt lat="48.62284" lon="2.05138">
        <ele>145</ele>
        <time>2010-03-19T12:35:35Z</time>
      </trkpt>
      <trkpt lat="48.62284" lon="2.0514">
        <ele>145</ele>
        <time>2010-03-19T12:35:36Z</time>
      </trkpt>
      <trkpt lat="48.62284" lon="2.05143">
        <ele>145</ele>
        <time>2010-03-19T12:35:37Z</time>
      </trkpt>
      <trkpt lat="48.62283" lon="2.05146">
        <ele>146</ele>
        <time>2010-03-19T12:35:38Z</time>
      </trkpt>
      <trkpt lat="48.62283" lon="2.05149">
        <ele>146</ele>
        <time>2010-03-19T12:35:39Z</time>
      </trkpt>
      <trkpt lat="48.62283" lon="2.05151">
        <ele>146</ele>
        <time>2010-03-19T12:35:40Z</time>
      </trkpt>
      <trkpt lat="48.62283" lon="2.05154">
        <ele>147</ele>
        <time>2010-03-19T12:35:41Z</time>
      </trkpt>
      <trkpt lat="48.62283" lon="2.05157">
        <ele>147</ele>
        <time>2010-03-19T12:35:42Z</time>
      </trkpt>
      <trkpt lat="48.62283" lon="2.0516">
        <ele>148</ele>
        <time>2010-03-19T12:35:43Z</time>
      </trkpt>
      <trkpt lat="48.62284" lon="2.05163">
        <ele>149</ele>
        <time>2010-03-19T12:35:44Z</time>
      </trkpt>
      <trkpt lat="48.62284" lon="2.05165">
        <ele>150</ele>
        <time>2010-03-19T12:35:45Z</time>
      </trkpt>
      <trkpt lat="48.62283" lon="2.05168">
        <ele>151</ele>
        <time>2010-03-19T12:35:46Z</time>
      </trkpt>
      <trkpt lat="48.62283" lon="2.0517">
        <ele>152</ele>
        <time>2010-03-19T12:35:47Z</time>
      </trkpt>
      <trkpt lat="48.62283" lon="2.05173">
        <ele>152</ele>
        <time>2010-03-19T12:35:48Z</time>
      </trkpt>
      <trkpt lat="48.62283" lon="2.05176">
        <ele>153</ele>
        <time>2010-03-19T12:35:49Z</time>
      </trkpt>
      <trkpt lat="48.62283" lon="2.05179">
        <ele>154</ele>
        <time>2010-03-19T12:35:50Z</time>
      </trkpt>
      <trkpt lat="48.62283" lon="2.05182">
        <ele>154</ele>
        <time>2010-03-19T12:35:51Z</time>
      </trkpt>
      <trkpt lat="48.62281" lon="2.05185">
        <ele>155</ele>
        <time>2010-03-19T12:35:52Z</time>
      </trkpt>
      <trkpt lat="48.62281" lon="2.05188">
        <ele>155</ele>
        <time>2010-03-19T12:35:53Z</time>
      </trkpt>
      <trkpt lat="48.62281" lon="2.0519">
        <ele>155</ele>
        <time>2010-03-19T12:35:54Z</time>
      </trkpt>
      <trkpt lat="48.62281" lon="2.05192">
        <ele>156</ele>
        <time>2010-03-19T12:35:55Z</time>
      </trkpt>
      <trkpt lat="48.62281" lon="2.05195">
        <ele>156</ele>
        <time>2010-03-19T12:35:56Z</time>
      </trkpt>
      <trkpt lat="48.62281" lon="2.05198">
        <ele>156</ele>
        <time>2010-03-19T12:35:57Z</time>
      </trkpt>
      <trkpt lat="48.62281" lon="2.052">
        <ele>156</ele>
        <time>2010-03-19T12:35:58Z</time>
      </trkpt>
      <trkpt lat="48.62281" lon="2.05202">
        <ele>156</ele>
        <time>2010-03-19T12:35:59Z</time>
      </trkpt>
      <trkpt lat="48.62281" lon="2.05204">
        <ele>156</ele>
        <time>2010-03-19T12:36:00Z</time>
      </trkpt>
      <trkpt lat="48.62283" lon="2.05207">
        <ele>156</ele>
        <time>2010-03-19T12:36:02Z</time>
      </trkpt>
      <trkpt lat="48.62281" lon="2.0521">
        <ele>156</ele>
        <time>2010-03-19T12:36:03Z</time>
      </trkpt>
      <trkpt lat="48.62281" lon="2.05213">
        <ele>156</ele>
        <time>2010-03-19T12:36:04Z</time>
      </trkpt>
      <trkpt lat="48.62281" lon="2.05216">
        <ele>156</ele>
        <time>2010-03-19T12:36:05Z</time>
      </trkpt>
      <trkpt lat="48.62281" lon="2.05219">
        <ele>156</ele>
        <time>2010-03-19T12:36:06Z</time>
      </trkpt>
      <trkpt lat="48.62281" lon="2.05222">
        <ele>156</ele>
        <time>2010-03-19T12:36:07Z</time>
      </trkpt>
      <trkpt lat="48.62281" lon="2.05225">
        <ele>156</ele>
        <time>2010-03-19T12:36:08Z</time>
      </trkpt>
      <trkpt lat="48.62281" lon="2.05227">
        <ele>156</ele>
        <time>2010-03-19T12:36:09Z</time>
      </trkpt>
      <trkpt lat="48.62281" lon="2.0523">
        <ele>156</ele>
        <time>2010-03-19T12:36:10Z</time>
      </trkpt>
      <trkpt lat="48.6228" lon="2.05233">
        <ele>156</ele>
        <time>2010-03-19T12:36:11Z</time>
      </trkpt>
      <trkpt lat="48.6228" lon="2.05236">
        <ele>156</ele>
        <time>2010-03-19T12:36:12Z</time>
      </trkpt>
      <trkpt lat="48.6228" lon="2.05238">
        <ele>156</ele>
        <time>2010-03-19T12:36:13Z</time>
      </trkpt>
      <trkpt lat="48.6228" lon="2.05241">
        <ele>156</ele>
        <time>2010-03-19T12:36:14Z</time>
      </trkpt>
      <trkpt lat="48.6228" lon="2.05244">
        <ele>156</ele>
        <time>2010-03-19T12:36:15Z</time>
      </trkpt>
      <trkpt lat="48.62279" lon="2.05246">
        <ele>156</ele>
        <time>2010-03-19T12:36:16Z</time>
      </trkpt>
      <trkpt lat="48.62278" lon="2.0525">
        <ele>156</ele>
        <time>2010-03-19T12:36:17Z</time>
      </trkpt>
      <trkpt lat="48.62278" lon="2.05253">
        <ele>156</ele>
        <time>2010-03-19T12:36:18Z</time>
      </trkpt>
      <trkpt lat="48.62277" lon="2.05255">
        <ele>156</ele>
        <time>2010-03-19T12:36:19Z</time>
      </trkpt>
      <trkpt lat="48.62277" lon="2.05258">
        <ele>156</ele>
        <time>2010-03-19T12:36:20Z</time>
      </trkpt>
      <trkpt lat="48.62277" lon="2.0526">
        <ele>156</ele>
        <time>2010-03-19T12:36:21Z</time>
      </trkpt>
      <trkpt lat="48.62277" lon="2.05262">
        <ele>156</ele>
        <time>2010-03-19T12:36:22Z</time>
      </trkpt>
      <trkpt lat="48.62276" lon="2.05265">
        <ele>156</ele>
        <time>2010-03-19T12:36:23Z</time>
      </trkpt>
      <trkpt lat="48.62275" lon="2.05268">
        <ele>156</ele>
        <time>2010-03-19T12:36:24Z</time>
      </trkpt>
      <trkpt lat="48.62275" lon="2.0527">
        <ele>156</ele>
        <time>2010-03-19T12:36:25Z</time>
      </trkpt>
      <trkpt lat="48.62273" lon="2.05273">
        <ele>156</ele>
        <time>2010-03-19T12:36:26Z</time>
      </trkpt>
      <trkpt lat="48.62272" lon="2.05276">
        <ele>156</ele>
        <time>2010-03-19T12:36:27Z</time>
      </trkpt>
      <trkpt lat="48.62271" lon="2.05278">
        <ele>157</ele>
        <time>2010-03-19T12:36:28Z</time>
      </trkpt>
      <trkpt lat="48.6227" lon="2.05281">
        <ele>157</ele>
        <time>2010-03-19T12:36:29Z</time>
      </trkpt>
      <trkpt lat="48.62269" lon="2.05283">
        <ele>158</ele>
        <time>2010-03-19T12:36:30Z</time>
      </trkpt>
      <trkpt lat="48.62268" lon="2.05286">
        <ele>158</ele>
        <time>2010-03-19T12:36:31Z</time>
      </trkpt>
      <trkpt lat="48.62268" lon="2.05288">
        <ele>158</ele>
        <time>2010-03-19T12:36:32Z</time>
      </trkpt>
      <trkpt lat="48.62268" lon="2.0529">
        <ele>158</ele>
        <time>2010-03-19T12:36:33Z</time>
      </trkpt>
      <trkpt lat="48.62267" lon="2.05293">
        <ele>158</ele>
        <time>2010-03-19T12:36:34Z</time>
      </trkpt>
      <trkpt lat="48.62267" lon="2.05296">
        <ele>158</ele>
        <time>2010-03-19T12:36:35Z</time>
      </trkpt>
      <trkpt lat="48.62267" lon="2.05299">
        <ele>158</ele>
        <time>2010-03-19T12:36:36Z</time>
      </trkpt>
      <trkpt lat="48.62267" lon="2.05301">
        <ele>158</ele>
        <time>2010-03-19T12:36:37Z</time>
      </trkpt>
      <trkpt lat="48.62267" lon="2.05303">
        <ele>158</ele>
        <time>2010-03-19T12:36:38Z</time>
      </trkpt>
      <trkpt lat="48.62267" lon="2.05306">
        <ele>158</ele>
        <time>2010-03-19T12:36:39Z</time>
      </trkpt>
      <trkpt lat="48.62267" lon="2.05308">
        <ele>158</ele>
        <time>2010-03-19T12:36:40Z</time>
      </trkpt>
      <trkpt lat="48.62267" lon="2.05311">
        <ele>158</ele>
        <time>2010-03-19T12:36:41Z</time>
      </trkpt>
      <trkpt lat="48.62266" lon="2.05314">
        <ele>158</ele>
        <time>2010-03-19T12:36:42Z</time>
      </trkpt>
      <trkpt lat="48.62266" lon="2.05317">
        <ele>158</ele>
        <time>2010-03-19T12:36:43Z</time>
      </trkpt>
      <trkpt lat="48.62265" lon="2.05321">
        <ele>158</ele>
        <time>2010-03-19T12:36:44Z</time>
      </trkpt>
      <trkpt lat="48.62265" lon="2.05326">
        <ele>158</ele>
        <time>2010-03-19T12:36:45Z</time>
      </trkpt>
      <trkpt lat="48.62263" lon="2.05332">
        <ele>158</ele>
        <time>2010-03-19T12:36:46Z</time>
      </trkpt>
      <trkpt lat="48.62263" lon="2.05338">
        <ele>158</ele>
        <time>2010-03-19T12:36:47Z</time>
      </trkpt>
      <trkpt lat="48.62262" lon="2.05344">
        <ele>158</ele>
        <time>2010-03-19T12:36:48Z</time>
      </trkpt>
      <trkpt lat="48.62262" lon="2.0535">
        <ele>158</ele>
        <time>2010-03-19T12:36:49Z</time>
      </trkpt>
      <trkpt lat="48.62262" lon="2.05357">
        <ele>158</ele>
        <time>2010-03-19T12:36:50Z</time>
      </trkpt>
      <trkpt lat="48.62261" lon="2.05363">
        <ele>158</ele>
        <time>2010-03-19T12:36:51Z</time>
      </trkpt>
      <trkpt lat="48.62261" lon="2.05371">
        <ele>158</ele>
        <time>2010-03-19T12:36:52Z</time>
      </trkpt>
      <trkpt lat="48.6226" lon="2.05378">
        <ele>158</ele>
        <time>2010-03-19T12:36:53Z</time>
      </trkpt>
      <trkpt lat="48.62259" lon="2.05384">
        <ele>158</ele>
        <time>2010-03-19T12:36:54Z</time>
      </trkpt>
      <trkpt lat="48.62258" lon="2.05392">
        <ele>158</ele>
        <time>2010-03-19T12:36:55Z</time>
      </trkpt>
      <trkpt lat="48.62257" lon="2.05399">
        <ele>158</ele>
        <time>2010-03-19T12:36:56Z</time>
      </trkpt>
      <trkpt lat="48.62256" lon="2.05407">
        <ele>157</ele>
        <time>2010-03-19T12:36:57Z</time>
      </trkpt>
      <trkpt lat="48.62255" lon="2.05414">
        <ele>157</ele>
        <time>2010-03-19T12:36:58Z</time>
      </trkpt>
      <trkpt lat="48.62255" lon="2.05421">
        <ele>156</ele>
        <time>2010-03-19T12:36:59Z</time>
      </trkpt>
      <trkpt lat="48.62251" lon="2.0543">
        <ele>156</ele>
        <time>2010-03-19T12:37:00Z</time>
      </trkpt>
      <trkpt lat="48.6225" lon="2.05436">
        <ele>156</ele>
        <time>2010-03-19T12:37:01Z</time>
      </trkpt>
      <trkpt lat="48.62249" lon="2.05441">
        <ele>156</ele>
        <time>2010-03-19T12:37:02Z</time>
      </trkpt>
      <trkpt lat="48.62248" lon="2.05447">
        <ele>156</ele>
        <time>2010-03-19T12:37:03Z</time>
      </trkpt>
      <trkpt lat="48.62247" lon="2.05453">
        <ele>156</ele>
        <time>2010-03-19T12:37:04Z</time>
      </trkpt>
      <trkpt lat="48.62247" lon="2.05458">
        <ele>156</ele>
        <time>2010-03-19T12:37:05Z</time>
      </trkpt>
      <trkpt lat="48.62245" lon="2.05465">
        <ele>156</ele>
        <time>2010-03-19T12:37:06Z</time>
      </trkpt>
      <trkpt lat="48.62245" lon="2.05472">
        <ele>156</ele>
        <time>2010-03-19T12:37:07Z</time>
      </trkpt>
      <trkpt lat="48.62244" lon="2.05479">
        <ele>156</ele>
        <time>2010-03-19T12:37:08Z</time>
      </trkpt>
      <trkpt lat="48.62243" lon="2.05486">
        <ele>156</ele>
        <time>2010-03-19T12:37:09Z</time>
      </trkpt>
      <trkpt lat="48.62243" lon="2.05493">
        <ele>156</ele>
        <time>2010-03-19T12:37:10Z</time>
      </trkpt>
      <trkpt lat="48.62242" lon="2.05501">
        <ele>156</ele>
        <time>2010-03-19T12:37:11Z</time>
      </trkpt>
      <trkpt lat="48.62241" lon="2.05508">
        <ele>156</ele>
        <time>2010-03-19T12:37:12Z</time>
      </trkpt>
      <trkpt lat="48.62241" lon="2.05514">
        <ele>156</ele>
        <time>2010-03-19T12:37:13Z</time>
      </trkpt>
      <trkpt lat="48.62241" lon="2.05521">
        <ele>156</ele>
        <time>2010-03-19T12:37:14Z</time>
      </trkpt>
      <trkpt lat="48.62239" lon="2.05529">
        <ele>156</ele>
        <time>2010-03-19T12:37:15Z</time>
      </trkpt>
      <trkpt lat="48.62239" lon="2.05537">
        <ele>156</ele>
        <time>2010-03-19T12:37:16Z</time>
      </trkpt>
      <trkpt lat="48.62238" lon="2.05545">
        <ele>156</ele>
        <time>2010-03-19T12:37:17Z</time>
      </trkpt>
      <trkpt lat="48.62237" lon="2.05553">
        <ele>156</ele>
        <time>2010-03-19T12:37:18Z</time>
      </trkpt>
      <trkpt lat="48.62236" lon="2.0556">
        <ele>157</ele>
        <time>2010-03-19T12:37:19Z</time>
      </trkpt>
      <trkpt lat="48.62236" lon="2.05566">
        <ele>157</ele>
        <time>2010-03-19T12:37:20Z</time>
      </trkpt>
      <trkpt lat="48.62236" lon="2.05572">
        <ele>158</ele>
        <time>2010-03-19T12:37:21Z</time>
      </trkpt>
      <trkpt lat="48.62235" lon="2.05576">
        <ele>159</ele>
        <time>2010-03-19T12:37:22Z</time>
      </trkpt>
      <trkpt lat="48.62234" lon="2.05581">
        <ele>160</ele>
        <time>2010-03-19T12:37:23Z</time>
      </trkpt>
      <trkpt lat="48.62233" lon="2.05587">
        <ele>160</ele>
        <time>2010-03-19T12:37:24Z</time>
      </trkpt>
      <trkpt lat="48.62233" lon="2.05591">
        <ele>161</ele>
        <time>2010-03-19T12:37:25Z</time>
      </trkpt>
      <trkpt lat="48.62233" lon="2.05595">
        <ele>161</ele>
        <time>2010-03-19T12:37:26Z</time>
      </trkpt>
      <trkpt lat="48.62232" lon="2.056">
        <ele>162</ele>
        <time>2010-03-19T12:37:27Z</time>
      </trkpt>
      <trkpt lat="48.62231" lon="2.05603">
        <ele>162</ele>
        <time>2010-03-19T12:37:28Z</time>
      </trkpt>
      <trkpt lat="48.62231" lon="2.05606">
        <ele>162</ele>
        <time>2010-03-19T12:37:29Z</time>
      </trkpt>
      <trkpt lat="48.6223" lon="2.05609">
        <ele>162</ele>
        <time>2010-03-19T12:37:30Z</time>
      </trkpt>
      <trkpt lat="48.62229" lon="2.05613">
        <ele>162</ele>
        <time>2010-03-19T12:37:31Z</time>
      </trkpt>
      <trkpt lat="48.62228" lon="2.05616">
        <ele>162</ele>
        <time>2010-03-19T12:37:32Z</time>
      </trkpt>
      <trkpt lat="48.62228" lon="2.05619">
        <ele>162</ele>
        <time>2010-03-19T12:37:33Z</time>
      </trkpt>
      <trkpt lat="48.62229" lon="2.05621">
        <ele>162</ele>
        <time>2010-03-19T12:37:34Z</time>
      </trkpt>
      <trkpt lat="48.62229" lon="2.05623">
        <ele>162</ele>
        <time>2010-03-19T12:37:35Z</time>
      </trkpt>
      <trkpt lat="48.62229" lon="2.05627">
        <ele>162</ele>
        <time>2010-03-19T12:37:36Z</time>
      </trkpt>
      <trkpt lat="48.62228" lon="2.0563">
        <ele>162</ele>
        <time>2010-03-19T12:37:37Z</time>
      </trkpt>
      <trkpt lat="48.62228" lon="2.05633">
        <ele>162</ele>
        <time>2010-03-19T12:37:38Z</time>
      </trkpt>
      <trkpt lat="48.62228" lon="2.05635">
        <ele>162</ele>
        <time>2010-03-19T12:37:39Z</time>
      </trkpt>
      <trkpt lat="48.62227" lon="2.05639">
        <ele>162</ele>
        <time>2010-03-19T12:37:40Z</time>
      </trkpt>
      <trkpt lat="48.62226" lon="2.05641">
        <ele>162</ele>
        <time>2010-03-19T12:37:41Z</time>
      </trkpt>
      <trkpt lat="48.62226" lon="2.05643">
        <ele>162</ele>
        <time>2010-03-19T12:37:42Z</time>
      </trkpt>
      <trkpt lat="48.62226" lon="2.05645">
        <ele>162</ele>
        <time>2010-03-19T12:37:43Z</time>
      </trkpt>
      <trkpt lat="48.62226" lon="2.05648">
        <ele>162</ele>
        <time>2010-03-19T12:37:44Z</time>
      </trkpt>
      <trkpt lat="48.62226" lon="2.05651">
        <ele>162</ele>
        <time>2010-03-19T12:37:45Z</time>
      </trkpt>
      <trkpt lat="48.62226" lon="2.05654">
        <ele>162</ele>
        <time>2010-03-19T12:37:46Z</time>
      </trkpt>
      <trkpt lat="48.62226" lon="2.05657">
        <ele>162</ele>
        <time>2010-03-19T12:37:47Z</time>
      </trkpt>
      <trkpt lat="48.62226" lon="2.05659">
        <ele>162</ele>
        <time>2010-03-19T12:37:48Z</time>
      </trkpt>
      <trkpt lat="48.62226" lon="2.05662">
        <ele>161</ele>
        <time>2010-03-19T12:37:49Z</time>
      </trkpt>
      <trkpt lat="48.62226" lon="2.05664">
        <ele>161</ele>
        <time>2010-03-19T12:37:50Z</time>
      </trkpt>
      <trkpt lat="48.62226" lon="2.05667">
        <ele>160</ele>
        <time>2010-03-19T12:37:51Z</time>
      </trkpt>
      <trkpt lat="48.62226" lon="2.05669">
        <ele>160</ele>
        <time>2010-03-19T12:37:52Z</time>
      </trkpt>
      <trkpt lat="48.62226" lon="2.05672">
        <ele>160</ele>
        <time>2010-03-19T12:37:53Z</time>
      </trkpt>
      <trkpt lat="48.62226" lon="2.05675">
        <ele>159</ele>
        <time>2010-03-19T12:37:54Z</time>
      </trkpt>
      <trkpt lat="48.62226" lon="2.05677">
        <ele>159</ele>
        <time>2010-03-19T12:37:55Z</time>
      </trkpt>
      <trkpt lat="48.62226" lon="2.05679">
        <ele>159</ele>
        <time>2010-03-19T12:37:56Z</time>
      </trkpt>
      <trkpt lat="48.62226" lon="2.05681">
        <ele>159</ele>
        <time>2010-03-19T12:37:57Z</time>
      </trkpt>
      <trkpt lat="48.62226" lon="2.05683">
        <ele>159</ele>
        <time>2010-03-19T12:37:58Z</time>
      </trkpt>
      <trkpt lat="48.62226" lon="2.05686">
        <ele>159</ele>
        <time>2010-03-19T12:37:59Z</time>
      </trkpt>
      <trkpt lat="48.62225" lon="2.05689">
        <ele>159</ele>
        <time>2010-03-19T12:38:00Z</time>
      </trkpt>
      <trkpt lat="48.62225" lon="2.05691">
        <ele>159</ele>
        <time>2010-03-19T12:38:01Z</time>
      </trkpt>
      <trkpt lat="48.62224" lon="2.05694">
        <ele>159</ele>
        <time>2010-03-19T12:38:02Z</time>
      </trkpt>
      <trkpt lat="48.62223" lon="2.05697">
        <ele>159</ele>
        <time>2010-03-19T12:38:03Z</time>
      </trkpt>
      <trkpt lat="48.62223" lon="2.057">
        <ele>159</ele>
        <time>2010-03-19T12:38:04Z</time>
      </trkpt>
      <trkpt lat="48.62222" lon="2.05703">
        <ele>159</ele>
        <time>2010-03-19T12:38:05Z</time>
      </trkpt>
      <trkpt lat="48.62222" lon="2.05705">
        <ele>159</ele>
        <time>2010-03-19T12:38:06Z</time>
      </trkpt>
      <trkpt lat="48.62222" lon="2.05708">
        <ele>159</ele>
        <time>2010-03-19T12:38:07Z</time>
      </trkpt>
      <trkpt lat="48.62222" lon="2.0571">
        <ele>159</ele>
        <time>2010-03-19T12:38:08Z</time>
      </trkpt>
      <trkpt lat="48.62222" lon="2.05712">
        <ele>159</ele>
        <time>2010-03-19T12:38:09Z</time>
      </trkpt>
      <trkpt lat="48.62222" lon="2.05715">
        <ele>159</ele>
        <time>2010-03-19T12:38:10Z</time>
      </trkpt>
      <trkpt lat="48.62222" lon="2.05718">
        <ele>159</ele>
        <time>2010-03-19T12:38:11Z</time>
      </trkpt>
      <trkpt lat="48.62221" lon="2.0572">
        <ele>159</ele>
        <time>2010-03-19T12:38:12Z</time>
      </trkpt>
      <trkpt lat="48.62221" lon="2.05723">
        <ele>159</ele>
        <time>2010-03-19T12:38:13Z</time>
      </trkpt>
      <trkpt lat="48.6222" lon="2.05726">
        <ele>159</ele>
        <time>2010-03-19T12:38:14Z</time>
      </trkpt>
      <trkpt lat="48.6222" lon="2.05729">
        <ele>159</ele>
        <time>2010-03-19T12:38:15Z</time>
      </trkpt>
      <trkpt lat="48.6222" lon="2.05732">
        <ele>159</ele>
        <time>2010-03-19T12:38:16Z</time>
      </trkpt>
      <trkpt lat="48.62219" lon="2.05735">
        <ele>159</ele>
        <time>2010-03-19T12:38:17Z</time>
      </trkpt>
      <trkpt lat="48.62219" lon="2.05737">
        <ele>159</ele>
        <time>2010-03-19T12:38:18Z</time>
      </trkpt>
      <trkpt lat="48.62219" lon="2.0574">
        <ele>159</ele>
        <time>2010-03-19T12:38:19Z</time>
      </trkpt>
      <trkpt lat="48.6222" lon="2.05742">
        <ele>159</ele>
        <time>2010-03-19T12:38:20Z</time>
      </trkpt>
      <trkpt lat="48.6222" lon="2.05745">
        <ele>159</ele>
        <time>2010-03-19T12:38:21Z</time>
      </trkpt>
      <trkpt lat="48.6222" lon="2.05747">
        <ele>159</ele>
        <time>2010-03-19T12:38:22Z</time>
      </trkpt>
      <trkpt lat="48.6222" lon="2.0575">
        <ele>159</ele>
        <time>2010-03-19T12:38:23Z</time>
      </trkpt>
      <trkpt lat="48.6222" lon="2.05752">
        <ele>158</ele>
        <time>2010-03-19T12:38:24Z</time>
      </trkpt>
      <trkpt lat="48.62221" lon="2.05754">
        <ele>158</ele>
        <time>2010-03-19T12:38:25Z</time>
      </trkpt>
      <trkpt lat="48.62222" lon="2.05757">
        <ele>158</ele>
        <time>2010-03-19T12:38:26Z</time>
      </trkpt>
      <trkpt lat="48.62223" lon="2.0576">
        <ele>158</ele>
        <time>2010-03-19T12:38:27Z</time>
      </trkpt>
      <trkpt lat="48.62223" lon="2.05763">
        <ele>158</ele>
        <time>2010-03-19T12:38:28Z</time>
      </trkpt>
      <trkpt lat="48.62224" lon="2.05765">
        <ele>157</ele>
        <time>2010-03-19T12:38:29Z</time>
      </trkpt>
      <trkpt lat="48.62224" lon="2.05768">
        <ele>157</ele>
        <time>2010-03-19T12:38:30Z</time>
      </trkpt>
      <trkpt lat="48.62225" lon="2.0577">
        <ele>157</ele>
        <time>2010-03-19T12:38:31Z</time>
      </trkpt>
      <trkpt lat="48.62225" lon="2.05772">
        <ele>157</ele>
        <time>2010-03-19T12:38:32Z</time>
      </trkpt>
      <trkpt lat="48.62225" lon="2.05775">
        <ele>157</ele>
        <time>2010-03-19T12:38:33Z</time>
      </trkpt>
      <trkpt lat="48.62226" lon="2.05778">
        <ele>157</ele>
        <time>2010-03-19T12:38:34Z</time>
      </trkpt>
      <trkpt lat="48.62226" lon="2.0578">
        <ele>157</ele>
        <time>2010-03-19T12:38:35Z</time>
      </trkpt>
      <trkpt lat="48.62227" lon="2.05782">
        <ele>157</ele>
        <time>2010-03-19T12:38:36Z</time>
      </trkpt>
      <trkpt lat="48.62227" lon="2.05784">
        <ele>157</ele>
        <time>2010-03-19T12:38:37Z</time>
      </trkpt>
      <trkpt lat="48.62228" lon="2.05786">
        <ele>157</ele>
        <time>2010-03-19T12:38:38Z</time>
      </trkpt>
      <trkpt lat="48.62229" lon="2.05788">
        <ele>157</ele>
        <time>2010-03-19T12:38:39Z</time>
      </trkpt>
      <trkpt lat="48.6223" lon="2.0579">
        <ele>157</ele>
        <time>2010-03-19T12:38:40Z</time>
      </trkpt>
      <trkpt lat="48.62231" lon="2.05792">
        <ele>157</ele>
        <time>2010-03-19T12:38:41Z</time>
      </trkpt>
      <trkpt lat="48.62231" lon="2.05794">
        <ele>157</ele>
        <time>2010-03-19T12:38:42Z</time>
      </trkpt>
      <trkpt lat="48.62232" lon="2.05796">
        <ele>157</ele>
        <time>2010-03-19T12:38:43Z</time>
      </trkpt>
      <trkpt lat="48.62233" lon="2.05798">
        <ele>157</ele>
        <time>2010-03-19T12:38:44Z</time>
      </trkpt>
      <trkpt lat="48.62234" lon="2.05801">
        <ele>157</ele>
        <time>2010-03-19T12:38:45Z</time>
      </trkpt>
      <trkpt lat="48.62235" lon="2.05803">
        <ele>157</ele>
        <time>2010-03-19T12:38:46Z</time>
      </trkpt>
      <trkpt lat="48.62235" lon="2.05806">
        <ele>157</ele>
        <time>2010-03-19T12:38:47Z</time>
      </trkpt>
      <trkpt lat="48.62236" lon="2.05808">
        <ele>157</ele>
        <time>2010-03-19T12:38:48Z</time>
      </trkpt>
      <trkpt lat="48.62237" lon="2.05809">
        <ele>157</ele>
        <time>2010-03-19T12:38:49Z</time>
      </trkpt>
      <trkpt lat="48.62237" lon="2.05812">
        <ele>157</ele>
        <time>2010-03-19T12:38:50Z</time>
      </trkpt>
      <trkpt lat="48.62238" lon="2.05814">
        <ele>157</ele>
        <time>2010-03-19T12:38:51Z</time>
      </trkpt>
      <trkpt lat="48.62239" lon="2.05816">
        <ele>157</ele>
        <time>2010-03-19T12:38:52Z</time>
      </trkpt>
      <trkpt lat="48.6224" lon="2.05818">
        <ele>157</ele>
        <time>2010-03-19T12:38:53Z</time>
      </trkpt>
      <trkpt lat="48.62241" lon="2.0582">
        <ele>157</ele>
        <time>2010-03-19T12:38:54Z</time>
      </trkpt>
      <trkpt lat="48.62242" lon="2.05822">
        <ele>157</ele>
        <time>2010-03-19T12:38:55Z</time>
      </trkpt>
      <trkpt lat="48.62243" lon="2.05825">
        <ele>157</ele>
        <time>2010-03-19T12:38:56Z</time>
      </trkpt>
      <trkpt lat="48.62244" lon="2.05827">
        <ele>157</ele>
        <time>2010-03-19T12:38:57Z</time>
      </trkpt>
      <trkpt lat="48.62245" lon="2.0583">
        <ele>157</ele>
        <time>2010-03-19T12:38:58Z</time>
      </trkpt>
      <trkpt lat="48.62246" lon="2.05832">
        <ele>157</ele>
        <time>2010-03-19T12:38:59Z</time>
      </trkpt>
      <trkpt lat="48.62247" lon="2.05834">
        <ele>157</ele>
        <time>2010-03-19T12:39:00Z</time>
      </trkpt>
      <trkpt lat="48.62247" lon="2.05836">
        <ele>157</ele>
        <time>2010-03-19T12:39:01Z</time>
      </trkpt>
      <trkpt lat="48.62249" lon="2.05838">
        <ele>157</ele>
        <time>2010-03-19T12:39:02Z</time>
      </trkpt>
      <trkpt lat="48.6225" lon="2.0584">
        <ele>157</ele>
        <time>2010-03-19T12:39:03Z</time>
      </trkpt>
      <trkpt lat="48.62251" lon="2.05842">
        <ele>157</ele>
        <time>2010-03-19T12:39:04Z</time>
      </trkpt>
      <trkpt lat="48.62252" lon="2.05845">
        <ele>157</ele>
        <time>2010-03-19T12:39:05Z</time>
      </trkpt>
      <trkpt lat="48.62252" lon="2.05847">
        <ele>157</ele>
        <time>2010-03-19T12:39:06Z</time>
      </trkpt>
      <trkpt lat="48.62253" lon="2.05849">
        <ele>157</ele>
        <time>2010-03-19T12:39:07Z</time>
      </trkpt>
      <trkpt lat="48.62254" lon="2.05851">
        <ele>157</ele>
        <time>2010-03-19T12:39:08Z</time>
      </trkpt>
      <trkpt lat="48.62255" lon="2.05853">
        <ele>157</ele>
        <time>2010-03-19T12:39:09Z</time>
      </trkpt>
      <trkpt lat="48.62255" lon="2.05856">
        <ele>157</ele>
        <time>2010-03-19T12:39:10Z</time>
      </trkpt>
      <trkpt lat="48.62257" lon="2.05858">
        <ele>157</ele>
        <time>2010-03-19T12:39:11Z</time>
      </trkpt>
      <trkpt lat="48.62258" lon="2.05861">
        <ele>157</ele>
        <time>2010-03-19T12:39:12Z</time>
      </trkpt>
      <trkpt lat="48.62259" lon="2.05863">
        <ele>157</ele>
        <time>2010-03-19T12:39:13Z</time>
      </trkpt>
      <trkpt lat="48.6226" lon="2.05866">
        <ele>157</ele>
        <time>2010-03-19T12:39:14Z</time>
      </trkpt>
      <trkpt lat="48.6226" lon="2.05868">
        <ele>157</ele>
        <time>2010-03-19T12:39:15Z</time>
      </trkpt>
      <trkpt lat="48.62261" lon="2.0587">
        <ele>157</ele>
        <time>2010-03-19T12:39:16Z</time>
      </trkpt>
      <trkpt lat="48.62262" lon="2.05873">
        <ele>157</ele>
        <time>2010-03-19T12:39:17Z</time>
      </trkpt>
      <trkpt lat="48.62263" lon="2.05875">
        <ele>157</ele>
        <time>2010-03-19T12:39:18Z</time>
      </trkpt>
      <trkpt lat="48.62264" lon="2.05877">
        <ele>157</ele>
        <time>2010-03-19T12:39:19Z</time>
      </trkpt>
      <trkpt lat="48.62265" lon="2.0588">
        <ele>157</ele>
        <time>2010-03-19T12:39:20Z</time>
      </trkpt>
      <trkpt lat="48.62267" lon="2.05882">
        <ele>157</ele>
        <time>2010-03-19T12:39:21Z</time>
      </trkpt>
      <trkpt lat="48.62267" lon="2.05885">
        <ele>157</ele>
        <time>2010-03-19T12:39:22Z</time>
      </trkpt>
      <trkpt lat="48.62268" lon="2.05887">
        <ele>157</ele>
        <time>2010-03-19T12:39:23Z</time>
      </trkpt>
      <trkpt lat="48.62269" lon="2.05889">
        <ele>157</ele>
        <time>2010-03-19T12:39:24Z</time>
      </trkpt>
      <trkpt lat="48.6227" lon="2.05891">
        <ele>157</ele>
        <time>2010-03-19T12:39:25Z</time>
      </trkpt>
      <trkpt lat="48.62271" lon="2.05893">
        <ele>157</ele>
        <time>2010-03-19T12:39:26Z</time>
      </trkpt>
      <trkpt lat="48.62272" lon="2.05895">
        <ele>157</ele>
        <time>2010-03-19T12:39:27Z</time>
      </trkpt>
      <trkpt lat="48.62273" lon="2.05898">
        <ele>157</ele>
        <time>2010-03-19T12:39:28Z</time>
      </trkpt>
      <trkpt lat="48.62274" lon="2.059">
        <ele>157</ele>
        <time>2010-03-19T12:39:29Z</time>
      </trkpt>
      <trkpt lat="48.62275" lon="2.05902">
        <ele>157</ele>
        <time>2010-03-19T12:39:30Z</time>
      </trkpt>
      <trkpt lat="48.62275" lon="2.05904">
        <ele>157</ele>
        <time>2010-03-19T12:39:31Z</time>
      </trkpt>
      <trkpt lat="48.62276" lon="2.05907">
        <ele>157</ele>
        <time>2010-03-19T12:39:32Z</time>
      </trkpt>
      <trkpt lat="48.62277" lon="2.05909">
        <ele>157</ele>
        <time>2010-03-19T12:39:33Z</time>
      </trkpt>
      <trkpt lat="48.62278" lon="2.05912">
        <ele>157</ele>
        <time>2010-03-19T12:39:34Z</time>
      </trkpt>
      <trkpt lat="48.62278" lon="2.05915">
        <ele>157</ele>
        <time>2010-03-19T12:39:35Z</time>
      </trkpt>
      <trkpt lat="48.6228" lon="2.05918">
        <ele>157</ele>
        <time>2010-03-19T12:39:36Z</time>
      </trkpt>
      <trkpt lat="48.6228" lon="2.0592">
        <ele>157</ele>
        <time>2010-03-19T12:39:37Z</time>
      </trkpt>
      <trkpt lat="48.62281" lon="2.05923">
        <ele>157</ele>
        <time>2010-03-19T12:39:38Z</time>
      </trkpt>
      <trkpt lat="48.62281" lon="2.05925">
        <ele>157</ele>
        <time>2010-03-19T12:39:39Z</time>
      </trkpt>
      <trkpt lat="48.62282" lon="2.05928">
        <ele>157</ele>
        <time>2010-03-19T12:39:40Z</time>
      </trkpt>
      <trkpt lat="48.62283" lon="2.0593">
        <ele>157</ele>
        <time>2010-03-19T12:39:41Z</time>
      </trkpt>
      <trkpt lat="48.62283" lon="2.05931">
        <ele>157</ele>
        <time>2010-03-19T12:39:42Z</time>
      </trkpt>
      <trkpt lat="48.62283" lon="2.05934">
        <ele>157</ele>
        <time>2010-03-19T12:39:44Z</time>
      </trkpt>
      <trkpt lat="48.62284" lon="2.05937">
        <ele>157</ele>
        <time>2010-03-19T12:39:46Z</time>
      </trkpt>
      <trkpt lat="48.62284" lon="2.05939">
        <ele>157</ele>
        <time>2010-03-19T12:39:47Z</time>
      </trkpt>
      <trkpt lat="48.62285" lon="2.05941">
        <ele>157</ele>
        <time>2010-03-19T12:39:48Z</time>
      </trkpt>
      <trkpt lat="48.62285" lon="2.05943">
        <ele>157</ele>
        <time>2010-03-19T12:39:49Z</time>
      </trkpt>
      <trkpt lat="48.62285" lon="2.05945">
        <ele>157</ele>
        <time>2010-03-19T12:39:50Z</time>
      </trkpt>
      <trkpt lat="48.62286" lon="2.05947">
        <ele>157</ele>
        <time>2010-03-19T12:39:51Z</time>
      </trkpt>
      <trkpt lat="48.62287" lon="2.05949">
        <ele>157</ele>
        <time>2010-03-19T12:39:52Z</time>
      </trkpt>
      <trkpt lat="48.62288" lon="2.05951">
        <ele>157</ele>
        <time>2010-03-19T12:39:53Z</time>
      </trkpt>
      <trkpt lat="48.62288" lon="2.05954">
        <ele>157</ele>
        <time>2010-03-19T12:39:54Z</time>
      </trkpt>
      <trkpt lat="48.62289" lon="2.05956">
        <ele>157</ele>
        <time>2010-03-19T12:39:55Z</time>
      </trkpt>
      <trkpt lat="48.62289" lon="2.05959">
        <ele>157</ele>
        <time>2010-03-19T12:39:56Z</time>
      </trkpt>
      <trkpt lat="48.62291" lon="2.05961">
        <ele>157</ele>
        <time>2010-03-19T12:39:57Z</time>
      </trkpt>
      <trkpt lat="48.62291" lon="2.05963">
        <ele>157</ele>
        <time>2010-03-19T12:39:58Z</time>
      </trkpt>
      <trkpt lat="48.62292" lon="2.05966">
        <ele>157</ele>
        <time>2010-03-19T12:39:59Z</time>
      </trkpt>
      <trkpt lat="48.62292" lon="2.05969">
        <ele>157</ele>
        <time>2010-03-19T12:40:00Z</time>
      </trkpt>
      <trkpt lat="48.62293" lon="2.05971">
        <ele>157</ele>
        <time>2010-03-19T12:40:01Z</time>
      </trkpt>
      <trkpt lat="48.62294" lon="2.05974">
        <ele>157</ele>
        <time>2010-03-19T12:40:02Z</time>
      </trkpt>
      <trkpt lat="48.62294" lon="2.05976">
        <ele>157</ele>
        <time>2010-03-19T12:40:03Z</time>
      </trkpt>
      <trkpt lat="48.62295" lon="2.05978">
        <ele>157</ele>
        <time>2010-03-19T12:40:04Z</time>
      </trkpt>
      <trkpt lat="48.62296" lon="2.0598">
        <ele>157</ele>
        <time>2010-03-19T12:40:05Z</time>
      </trkpt>
      <trkpt lat="48.62297" lon="2.05983">
        <ele>157</ele>
        <time>2010-03-19T12:40:06Z</time>
      </trkpt>
      <trkpt lat="48.62297" lon="2.05986">
        <ele>157</ele>
        <time>2010-03-19T12:40:07Z</time>
      </trkpt>
      <trkpt lat="48.62299" lon="2.05988">
        <ele>157</ele>
        <time>2010-03-19T12:40:08Z</time>
      </trkpt>
      <trkpt lat="48.623" lon="2.05991">
        <ele>157</ele>
        <time>2010-03-19T12:40:09Z</time>
      </trkpt>
      <trkpt lat="48.623" lon="2.05993">
        <ele>157</ele>
        <time>2010-03-19T12:40:10Z</time>
      </trkpt>
      <trkpt lat="48.623" lon="2.05996">
        <ele>157</ele>
        <time>2010-03-19T12:40:11Z</time>
      </trkpt>
      <trkpt lat="48.62301" lon="2.05999">
        <ele>157</ele>
        <time>2010-03-19T12:40:12Z</time>
      </trkpt>
      <trkpt lat="48.62302" lon="2.06001">
        <ele>157</ele>
        <time>2010-03-19T12:40:13Z</time>
      </trkpt>
      <trkpt lat="48.62302" lon="2.06003">
        <ele>157</ele>
        <time>2010-03-19T12:40:14Z</time>
      </trkpt>
      <trkpt lat="48.62303" lon="2.06005">
        <ele>157</ele>
        <time>2010-03-19T12:40:15Z</time>
      </trkpt>
      <trkpt lat="48.62304" lon="2.06006">
        <ele>157</ele>
        <time>2010-03-19T12:40:16Z</time>
      </trkpt>
      <trkpt lat="48.62305" lon="2.06008">
        <ele>157</ele>
        <time>2010-03-19T12:40:17Z</time>
      </trkpt>
      <trkpt lat="48.62307" lon="2.06011">
        <ele>157</ele>
        <time>2010-03-19T12:40:18Z</time>
      </trkpt>
      <trkpt lat="48.62308" lon="2.06013">
        <ele>157</ele>
        <time>2010-03-19T12:40:19Z</time>
      </trkpt>
      <trkpt lat="48.62309" lon="2.06015">
        <ele>157</ele>
        <time>2010-03-19T12:40:20Z</time>
      </trkpt>
      <trkpt lat="48.6231" lon="2.06017">
        <ele>157</ele>
        <time>2010-03-19T12:40:21Z</time>
      </trkpt>
      <trkpt lat="48.62311" lon="2.06018">
        <ele>157</ele>
        <time>2010-03-19T12:40:22Z</time>
      </trkpt>
      <trkpt lat="48.62312" lon="2.06021">
        <ele>157</ele>
        <time>2010-03-19T12:40:23Z</time>
      </trkpt>
      <trkpt lat="48.62313" lon="2.06024">
        <ele>157</ele>
        <time>2010-03-19T12:40:24Z</time>
      </trkpt>
      <trkpt lat="48.62313" lon="2.06026">
        <ele>157</ele>
        <time>2010-03-19T12:40:25Z</time>
      </trkpt>
      <trkpt lat="48.62314" lon="2.06028">
        <ele>157</ele>
        <time>2010-03-19T12:40:26Z</time>
      </trkpt>
      <trkpt lat="48.62315" lon="2.0603">
        <ele>158</ele>
        <time>2010-03-19T12:40:27Z</time>
      </trkpt>
      <trkpt lat="48.62317" lon="2.06033">
        <ele>158</ele>
        <time>2010-03-19T12:40:28Z</time>
      </trkpt>
      <trkpt lat="48.62317" lon="2.06035">
        <ele>158</ele>
        <time>2010-03-19T12:40:29Z</time>
      </trkpt>
      <trkpt lat="48.62318" lon="2.06037">
        <ele>158</ele>
        <time>2010-03-19T12:40:30Z</time>
      </trkpt>
      <trkpt lat="48.62318" lon="2.0604">
        <ele>158</ele>
        <time>2010-03-19T12:40:31Z</time>
      </trkpt>
      <trkpt lat="48.62319" lon="2.06043">
        <ele>159</ele>
        <time>2010-03-19T12:40:32Z</time>
      </trkpt>
      <trkpt lat="48.62319" lon="2.06045">
        <ele>159</ele>
        <time>2010-03-19T12:40:33Z</time>
      </trkpt>
      <trkpt lat="48.6232" lon="2.06048">
        <ele>159</ele>
        <time>2010-03-19T12:40:34Z</time>
      </trkpt>
      <trkpt lat="48.6232" lon="2.0605">
        <ele>159</ele>
        <time>2010-03-19T12:40:35Z</time>
      </trkpt>
      <trkpt lat="48.62321" lon="2.06053">
        <ele>159</ele>
        <time>2010-03-19T12:40:36Z</time>
      </trkpt>
      <trkpt lat="48.62321" lon="2.06055">
        <ele>159</ele>
        <time>2010-03-19T12:40:37Z</time>
      </trkpt>
      <trkpt lat="48.62323" lon="2.06058">
        <ele>159</ele>
        <time>2010-03-19T12:40:38Z</time>
      </trkpt>
      <trkpt lat="48.62324" lon="2.0606">
        <ele>159</ele>
        <time>2010-03-19T12:40:39Z</time>
      </trkpt>
      <trkpt lat="48.62324" lon="2.06062">
        <ele>159</ele>
        <time>2010-03-19T12:40:40Z</time>
      </trkpt>
      <trkpt lat="48.62325" lon="2.06064">
        <ele>159</ele>
        <time>2010-03-19T12:40:41Z</time>
      </trkpt>
      <trkpt lat="48.62326" lon="2.06067">
        <ele>159</ele>
        <time>2010-03-19T12:40:42Z</time>
      </trkpt>
      <trkpt lat="48.62327" lon="2.06069">
        <ele>159</ele>
        <time>2010-03-19T12:40:43Z</time>
      </trkpt>
      <trkpt lat="48.62328" lon="2.06071">
        <ele>159</ele>
        <time>2010-03-19T12:40:44Z</time>
      </trkpt>
      <trkpt lat="48.62329" lon="2.06073">
        <ele>159</ele>
        <time>2010-03-19T12:40:45Z</time>
      </trkpt>
      <trkpt lat="48.62329" lon="2.06076">
        <ele>159</ele>
        <time>2010-03-19T12:40:46Z</time>
      </trkpt>
      <trkpt lat="48.6233" lon="2.06079">
        <ele>159</ele>
        <time>2010-03-19T12:40:47Z</time>
      </trkpt>
      <trkpt lat="48.62331" lon="2.06081">
        <ele>159</ele>
        <time>2010-03-19T12:40:48Z</time>
      </trkpt>
      <trkpt lat="48.62332" lon="2.06084">
        <ele>159</ele>
        <time>2010-03-19T12:40:49Z</time>
      </trkpt>
      <trkpt lat="48.62333" lon="2.06087">
        <ele>159</ele>
        <time>2010-03-19T12:40:50Z</time>
      </trkpt>
      <trkpt lat="48.62333" lon="2.06089">
        <ele>159</ele>
        <time>2010-03-19T12:40:51Z</time>
      </trkpt>
      <trkpt lat="48.62334" lon="2.06093">
        <ele>159</ele>
        <time>2010-03-19T12:40:52Z</time>
      </trkpt>
      <trkpt lat="48.62334" lon="2.06097">
        <ele>159</ele>
        <time>2010-03-19T12:40:53Z</time>
      </trkpt>
      <trkpt lat="48.62335" lon="2.06101">
        <ele>159</ele>
        <time>2010-03-19T12:40:54Z</time>
      </trkpt>
      <trkpt lat="48.62335" lon="2.06104">
        <ele>159</ele>
        <time>2010-03-19T12:40:55Z</time>
      </trkpt>
      <trkpt lat="48.62334" lon="2.06107">
        <ele>159</ele>
        <time>2010-03-19T12:40:56Z</time>
      </trkpt>
      <trkpt lat="48.62334" lon="2.06109">
        <ele>159</ele>
        <time>2010-03-19T12:40:57Z</time>
      </trkpt>
      <trkpt lat="48.62333" lon="2.06112">
        <ele>159</ele>
        <time>2010-03-19T12:40:58Z</time>
      </trkpt>
      <trkpt lat="48.62333" lon="2.06114">
        <ele>159</ele>
        <time>2010-03-19T12:40:59Z</time>
      </trkpt>
      <trkpt lat="48.62332" lon="2.06116">
        <ele>159</ele>
        <time>2010-03-19T12:41:00Z</time>
      </trkpt>
      <trkpt lat="48.62332" lon="2.06118">
        <ele>159</ele>
        <time>2010-03-19T12:41:01Z</time>
      </trkpt>
      <trkpt lat="48.62331" lon="2.06119">
        <ele>159</ele>
        <time>2010-03-19T12:41:02Z</time>
      </trkpt>
      <trkpt lat="48.62329" lon="2.06119">
        <ele>159</ele>
        <time>2010-03-19T12:41:04Z</time>
      </trkpt>
      <trkpt lat="48.62328" lon="2.06117">
        <ele>159</ele>
        <time>2010-03-19T12:41:06Z</time>
      </trkpt>
      <trkpt lat="48.62328" lon="2.06115">
        <ele>159</ele>
        <time>2010-03-19T12:41:08Z</time>
      </trkpt>
      <trkpt lat="48.62329" lon="2.06115">
        <ele>159</ele>
        <time>2010-03-19T12:41:10Z</time>
      </trkpt>
      <trkpt lat="48.62329" lon="2.06116">
        <ele>159</ele>
        <time>2010-03-19T12:41:11Z</time>
      </trkpt>
      <trkpt lat="48.62329" lon="2.06118">
        <ele>159</ele>
        <time>2010-03-19T12:41:12Z</time>
      </trkpt>
      <trkpt lat="48.6233" lon="2.06123">
        <ele>159</ele>
        <time>2010-03-19T12:41:18Z</time>
      </trkpt>
      <trkpt lat="48.6233" lon="2.06126">
        <ele>159</ele>
        <time>2010-03-19T12:41:19Z</time>
      </trkpt>
      <trkpt lat="48.62329" lon="2.06129">
        <ele>159</ele>
        <time>2010-03-19T12:41:20Z</time>
      </trkpt>
      <trkpt lat="48.62329" lon="2.06132">
        <ele>159</ele>
        <time>2010-03-19T12:41:21Z</time>
      </trkpt>
      <trkpt lat="48.62329" lon="2.06134">
        <ele>159</ele>
        <time>2010-03-19T12:41:22Z</time>
      </trkpt>
      <trkpt lat="48.62329" lon="2.06136">
        <ele>159</ele>
        <time>2010-03-19T12:41:23Z</time>
      </trkpt>
      <trkpt lat="48.62328" lon="2.06138">
        <ele>159</ele>
        <time>2010-03-19T12:41:24Z</time>
      </trkpt>
      <trkpt lat="48.62327" lon="2.0614">
        <ele>159</ele>
        <time>2010-03-19T12:41:25Z</time>
      </trkpt>
      <trkpt lat="48.62326" lon="2.06142">
        <ele>159</ele>
        <time>2010-03-19T12:41:26Z</time>
      </trkpt>
      <trkpt lat="48.62326" lon="2.06144">
        <ele>159</ele>
        <time>2010-03-19T12:41:27Z</time>
      </trkpt>
      <trkpt lat="48.62325" lon="2.06146">
        <ele>159</ele>
        <time>2010-03-19T12:41:28Z</time>
      </trkpt>
      <trkpt lat="48.62324" lon="2.06148">
        <ele>159</ele>
        <time>2010-03-19T12:41:29Z</time>
      </trkpt>
      <trkpt lat="48.62323" lon="2.0615">
        <ele>159</ele>
        <time>2010-03-19T12:41:30Z</time>
      </trkpt>
      <trkpt lat="48.62323" lon="2.06152">
        <ele>159</ele>
        <time>2010-03-19T12:41:31Z</time>
      </trkpt>
      <trkpt lat="48.62322" lon="2.06154">
        <ele>159</ele>
        <time>2010-03-19T12:41:32Z</time>
      </trkpt>
      <trkpt lat="48.62321" lon="2.06156">
        <ele>159</ele>
        <time>2010-03-19T12:41:33Z</time>
      </trkpt>
      <trkpt lat="48.62321" lon="2.06159">
        <ele>159</ele>
        <time>2010-03-19T12:41:34Z</time>
      </trkpt>
      <trkpt lat="48.6232" lon="2.06161">
        <ele>159</ele>
        <time>2010-03-19T12:41:35Z</time>
      </trkpt>
      <trkpt lat="48.6232" lon="2.06164">
        <ele>159</ele>
        <time>2010-03-19T12:41:36Z</time>
      </trkpt>
      <trkpt lat="48.62319" lon="2.06166">
        <ele>159</ele>
        <time>2010-03-19T12:41:37Z</time>
      </trkpt>
      <trkpt lat="48.62318" lon="2.06169">
        <ele>159</ele>
        <time>2010-03-19T12:41:38Z</time>
      </trkpt>
      <trkpt lat="48.62317" lon="2.06171">
        <ele>159</ele>
        <time>2010-03-19T12:41:39Z</time>
      </trkpt>
      <trkpt lat="48.62316" lon="2.06174">
        <ele>159</ele>
        <time>2010-03-19T12:41:40Z</time>
      </trkpt>
      <trkpt lat="48.62316" lon="2.06177">
        <ele>159</ele>
        <time>2010-03-19T12:41:41Z</time>
      </trkpt>
      <trkpt lat="48.62315" lon="2.06181">
        <ele>159</ele>
        <time>2010-03-19T12:41:42Z</time>
      </trkpt>
      <trkpt lat="48.62314" lon="2.06183">
        <ele>159</ele>
        <time>2010-03-19T12:41:43Z</time>
      </trkpt>
      <trkpt lat="48.62313" lon="2.06186">
        <ele>159</ele>
        <time>2010-03-19T12:41:44Z</time>
      </trkpt>
      <trkpt lat="48.62313" lon="2.06188">
        <ele>159</ele>
        <time>2010-03-19T12:41:45Z</time>
      </trkpt>
      <trkpt lat="48.62312" lon="2.0619">
        <ele>159</ele>
        <time>2010-03-19T12:41:46Z</time>
      </trkpt>
      <trkpt lat="48.62312" lon="2.06192">
        <ele>159</ele>
        <time>2010-03-19T12:41:47Z</time>
      </trkpt>
      <trkpt lat="48.62311" lon="2.06195">
        <ele>159</ele>
        <time>2010-03-19T12:41:48Z</time>
      </trkpt>
      <trkpt lat="48.62311" lon="2.06197">
        <ele>159</ele>
        <time>2010-03-19T12:41:49Z</time>
      </trkpt>
      <trkpt lat="48.6231" lon="2.06199">
        <ele>159</ele>
        <time>2010-03-19T12:41:50Z</time>
      </trkpt>
      <trkpt lat="48.62309" lon="2.06201">
        <ele>159</ele>
        <time>2010-03-19T12:41:51Z</time>
      </trkpt>
      <trkpt lat="48.62309" lon="2.06203">
        <ele>159</ele>
        <time>2010-03-19T12:41:52Z</time>
      </trkpt>
      <trkpt lat="48.62308" lon="2.06205">
        <ele>159</ele>
        <time>2010-03-19T12:41:53Z</time>
      </trkpt>
      <trkpt lat="48.62307" lon="2.06207">
        <ele>159</ele>
        <time>2010-03-19T12:41:54Z</time>
      </trkpt>
      <trkpt lat="48.62306" lon="2.06211">
        <ele>159</ele>
        <time>2010-03-19T12:41:55Z</time>
      </trkpt>
      <trkpt lat="48.62305" lon="2.06214">
        <ele>159</ele>
        <time>2010-03-19T12:41:56Z</time>
      </trkpt>
      <trkpt lat="48.62305" lon="2.06217">
        <ele>159</ele>
        <time>2010-03-19T12:41:57Z</time>
      </trkpt>
      <trkpt lat="48.62304" lon="2.06221">
        <ele>159</ele>
        <time>2010-03-19T12:41:58Z</time>
      </trkpt>
      <trkpt lat="48.62303" lon="2.06223">
        <ele>159</ele>
        <time>2010-03-19T12:41:59Z</time>
      </trkpt>
      <trkpt lat="48.62302" lon="2.06226">
        <ele>159</ele>
        <time>2010-03-19T12:42:00Z</time>
      </trkpt>
      <trkpt lat="48.62302" lon="2.06228">
        <ele>159</ele>
        <time>2010-03-19T12:42:01Z</time>
      </trkpt>
      <trkpt lat="48.62301" lon="2.06231">
        <ele>159</ele>
        <time>2010-03-19T12:42:02Z</time>
      </trkpt>
      <trkpt lat="48.623" lon="2.06234">
        <ele>159</ele>
        <time>2010-03-19T12:42:03Z</time>
      </trkpt>
      <trkpt lat="48.623" lon="2.06236">
        <ele>159</ele>
        <time>2010-03-19T12:42:04Z</time>
      </trkpt>
      <trkpt lat="48.62299" lon="2.06239">
        <ele>159</ele>
        <time>2010-03-19T12:42:05Z</time>
      </trkpt>
      <trkpt lat="48.62298" lon="2.06242">
        <ele>159</ele>
        <time>2010-03-19T12:42:06Z</time>
      </trkpt>
      <trkpt lat="48.62297" lon="2.06244">
        <ele>159</ele>
        <time>2010-03-19T12:42:07Z</time>
      </trkpt>
      <trkpt lat="48.62297" lon="2.06245">
        <ele>159</ele>
        <time>2010-03-19T12:42:08Z</time>
      </trkpt>
      <trkpt lat="48.62296" lon="2.06249">
        <ele>159</ele>
        <time>2010-03-19T12:42:10Z</time>
      </trkpt>
      <trkpt lat="48.62295" lon="2.06251">
        <ele>159</ele>
        <time>2010-03-19T12:42:11Z</time>
      </trkpt>
      <trkpt lat="48.62294" lon="2.06253">
        <ele>159</ele>
        <time>2010-03-19T12:42:12Z</time>
      </trkpt>
      <trkpt lat="48.62294" lon="2.06255">
        <ele>159</ele>
        <time>2010-03-19T12:42:13Z</time>
      </trkpt>
      <trkpt lat="48.62293" lon="2.06257">
        <ele>159</ele>
        <time>2010-03-19T12:42:14Z</time>
      </trkpt>
      <trkpt lat="48.62292" lon="2.06259">
        <ele>159</ele>
        <time>2010-03-19T12:42:15Z</time>
      </trkpt>
      <trkpt lat="48.62292" lon="2.06262">
        <ele>159</ele>
        <time>2010-03-19T12:42:16Z</time>
      </trkpt>
      <trkpt lat="48.62291" lon="2.06264">
        <ele>159</ele>
        <time>2010-03-19T12:42:17Z</time>
      </trkpt>
      <trkpt lat="48.62289" lon="2.06267">
        <ele>159</ele>
        <time>2010-03-19T12:42:18Z</time>
      </trkpt>
      <trkpt lat="48.62289" lon="2.0627">
        <ele>159</ele>
        <time>2010-03-19T12:42:19Z</time>
      </trkpt>
      <trkpt lat="48.62288" lon="2.06272">
        <ele>159</ele>
        <time>2010-03-19T12:42:20Z</time>
      </trkpt>
      <trkpt lat="48.62288" lon="2.06274">
        <ele>159</ele>
        <time>2010-03-19T12:42:21Z</time>
      </trkpt>
      <trkpt lat="48.62287" lon="2.06276">
        <ele>159</ele>
        <time>2010-03-19T12:42:22Z</time>
      </trkpt>
      <trkpt lat="48.62287" lon="2.06279">
        <ele>159</ele>
        <time>2010-03-19T12:42:23Z</time>
      </trkpt>
      <trkpt lat="48.62286" lon="2.06281">
        <ele>159</ele>
        <time>2010-03-19T12:42:24Z</time>
      </trkpt>
      <trkpt lat="48.62285" lon="2.06283">
        <ele>159</ele>
        <time>2010-03-19T12:42:25Z</time>
      </trkpt>
      <trkpt lat="48.62284" lon="2.06285">
        <ele>159</ele>
        <time>2010-03-19T12:42:26Z</time>
      </trkpt>
      <trkpt lat="48.62283" lon="2.06287">
        <ele>159</ele>
        <time>2010-03-19T12:42:27Z</time>
      </trkpt>
      <trkpt lat="48.62283" lon="2.06289">
        <ele>159</ele>
        <time>2010-03-19T12:42:29Z</time>
      </trkpt>
      <trkpt lat="48.62283" lon="2.06288">
        <ele>159</ele>
        <time>2010-03-19T12:42:42Z</time>
      </trkpt>
      <trkpt lat="48.62283" lon="2.0629">
        <ele>159</ele>
        <time>2010-03-19T12:42:49Z</time>
      </trkpt>
      <trkpt lat="48.62283" lon="2.06292">
        <ele>159</ele>
        <time>2010-03-19T12:42:50Z</time>
      </trkpt>
      <trkpt lat="48.62281" lon="2.06294">
        <ele>159</ele>
        <time>2010-03-19T12:42:51Z</time>
      </trkpt>
      <trkpt lat="48.6228" lon="2.06296">
        <ele>159</ele>
        <time>2010-03-19T12:42:52Z</time>
      </trkpt>
      <trkpt lat="48.6228" lon="2.06298">
        <ele>159</ele>
        <time>2010-03-19T12:42:53Z</time>
      </trkpt>
      <trkpt lat="48.62279" lon="2.063">
        <ele>159</ele>
        <time>2010-03-19T12:42:54Z</time>
      </trkpt>
      <trkpt lat="48.62279" lon="2.06303">
        <ele>159</ele>
        <time>2010-03-19T12:42:55Z</time>
      </trkpt>
      <trkpt lat="48.62278" lon="2.06305">
        <ele>159</ele>
        <time>2010-03-19T12:42:56Z</time>
      </trkpt>
      <trkpt lat="48.62278" lon="2.06307">
        <ele>159</ele>
        <time>2010-03-19T12:42:57Z</time>
      </trkpt>
      <trkpt lat="48.62277" lon="2.06309">
        <ele>159</ele>
        <time>2010-03-19T12:42:58Z</time>
      </trkpt>
      <trkpt lat="48.62276" lon="2.06312">
        <ele>159</ele>
        <time>2010-03-19T12:42:59Z</time>
      </trkpt>
      <trkpt lat="48.62276" lon="2.06314">
        <ele>159</ele>
        <time>2010-03-19T12:43:00Z</time>
      </trkpt>
      <trkpt lat="48.62275" lon="2.06316">
        <ele>159</ele>
        <time>2010-03-19T12:43:01Z</time>
      </trkpt>
      <trkpt lat="48.62274" lon="2.06319">
        <ele>159</ele>
        <time>2010-03-19T12:43:02Z</time>
      </trkpt>
      <trkpt lat="48.62274" lon="2.06321">
        <ele>159</ele>
        <time>2010-03-19T12:43:03Z</time>
      </trkpt>
      <trkpt lat="48.62273" lon="2.06324">
        <ele>159</ele>
        <time>2010-03-19T12:43:04Z</time>
      </trkpt>
      <trkpt lat="48.62271" lon="2.06326">
        <ele>159</ele>
        <time>2010-03-19T12:43:05Z</time>
      </trkpt>
      <trkpt lat="48.62271" lon="2.06328">
        <ele>159</ele>
        <time>2010-03-19T12:43:06Z</time>
      </trkpt>
      <trkpt lat="48.6227" lon="2.06329">
        <ele>159</ele>
        <time>2010-03-19T12:43:09Z</time>
      </trkpt>
      <trkpt lat="48.6227" lon="2.06331">
        <ele>159</ele>
        <time>2010-03-19T12:43:11Z</time>
      </trkpt>
      <trkpt lat="48.6227" lon="2.06333">
        <ele>159</ele>
        <time>2010-03-19T12:43:12Z</time>
      </trkpt>
      <trkpt lat="48.62269" lon="2.06335">
        <ele>159</ele>
        <time>2010-03-19T12:43:13Z</time>
      </trkpt>
      <trkpt lat="48.62268" lon="2.06338">
        <ele>159</ele>
        <time>2010-03-19T12:43:14Z</time>
      </trkpt>
      <trkpt lat="48.62267" lon="2.0634">
        <ele>159</ele>
        <time>2010-03-19T12:43:15Z</time>
      </trkpt>
      <trkpt lat="48.62267" lon="2.06343">
        <ele>159</ele>
        <time>2010-03-19T12:43:16Z</time>
      </trkpt>
      <trkpt lat="48.62267" lon="2.06345">
        <ele>159</ele>
        <time>2010-03-19T12:43:17Z</time>
      </trkpt>
      <trkpt lat="48.62266" lon="2.06347">
        <ele>159</ele>
        <time>2010-03-19T12:43:18Z</time>
      </trkpt>
      <trkpt lat="48.62265" lon="2.06349">
        <ele>159</ele>
        <time>2010-03-19T12:43:19Z</time>
      </trkpt>
      <trkpt lat="48.62263" lon="2.06352">
        <ele>159</ele>
        <time>2010-03-19T12:43:20Z</time>
      </trkpt>
      <trkpt lat="48.62263" lon="2.06354">
        <ele>159</ele>
        <time>2010-03-19T12:43:21Z</time>
      </trkpt>
      <trkpt lat="48.62262" lon="2.06357">
        <ele>159</ele>
        <time>2010-03-19T12:43:22Z</time>
      </trkpt>
      <trkpt lat="48.62262" lon="2.06359">
        <ele>159</ele>
        <time>2010-03-19T12:43:23Z</time>
      </trkpt>
      <trkpt lat="48.62261" lon="2.06362">
        <ele>159</ele>
        <time>2010-03-19T12:43:24Z</time>
      </trkpt>
      <trkpt lat="48.6226" lon="2.06364">
        <ele>159</ele>
        <time>2010-03-19T12:43:25Z</time>
      </trkpt>
      <trkpt lat="48.62259" lon="2.06366">
        <ele>159</ele>
        <time>2010-03-19T12:43:26Z</time>
      </trkpt>
      <trkpt lat="48.62259" lon="2.06369">
        <ele>159</ele>
        <time>2010-03-19T12:43:27Z</time>
      </trkpt>
      <trkpt lat="48.62258" lon="2.0637">
        <ele>159</ele>
        <time>2010-03-19T12:43:28Z</time>
      </trkpt>
      <trkpt lat="48.62258" lon="2.06372">
        <ele>159</ele>
        <time>2010-03-19T12:43:35Z</time>
      </trkpt>
      <trkpt lat="48.62257" lon="2.06374">
        <ele>159</ele>
        <time>2010-03-19T12:43:41Z</time>
      </trkpt>
      <trkpt lat="48.62256" lon="2.06377">
        <ele>159</ele>
        <time>2010-03-19T12:43:43Z</time>
      </trkpt>
      <trkpt lat="48.62255" lon="2.06379">
        <ele>159</ele>
        <time>2010-03-19T12:43:44Z</time>
      </trkpt>
      <trkpt lat="48.62255" lon="2.06381">
        <ele>159</ele>
        <time>2010-03-19T12:43:45Z</time>
      </trkpt>
      <trkpt lat="48.62255" lon="2.06383">
        <ele>159</ele>
        <time>2010-03-19T12:43:46Z</time>
      </trkpt>
      <trkpt lat="48.62255" lon="2.06386">
        <ele>159</ele>
        <time>2010-03-19T12:43:47Z</time>
      </trkpt>
      <trkpt lat="48.62255" lon="2.06389">
        <ele>159</ele>
        <time>2010-03-19T12:43:48Z</time>
      </trkpt>
      <trkpt lat="48.62255" lon="2.06391">
        <ele>159</ele>
        <time>2010-03-19T12:43:49Z</time>
      </trkpt>
      <trkpt lat="48.62255" lon="2.06394">
        <ele>159</ele>
        <time>2010-03-19T12:43:50Z</time>
      </trkpt>
      <trkpt lat="48.62254" lon="2.06396">
        <ele>159</ele>
        <time>2010-03-19T12:43:51Z</time>
      </trkpt>
      <trkpt lat="48.62254" lon="2.06399">
        <ele>159</ele>
        <time>2010-03-19T12:43:52Z</time>
      </trkpt>
      <trkpt lat="48.62254" lon="2.06401">
        <ele>159</ele>
        <time>2010-03-19T12:43:53Z</time>
      </trkpt>
      <trkpt lat="48.62253" lon="2.06403">
        <ele>159</ele>
        <time>2010-03-19T12:43:54Z</time>
      </trkpt>
      <trkpt lat="48.62253" lon="2.06406">
        <ele>159</ele>
        <time>2010-03-19T12:43:55Z</time>
      </trkpt>
      <trkpt lat="48.62252" lon="2.06408">
        <ele>159</ele>
        <time>2010-03-19T12:43:56Z</time>
      </trkpt>
      <trkpt lat="48.62253" lon="2.06411">
        <ele>159</ele>
        <time>2010-03-19T12:43:57Z</time>
      </trkpt>
      <trkpt lat="48.62252" lon="2.06414">
        <ele>159</ele>
        <time>2010-03-19T12:43:58Z</time>
      </trkpt>
      <trkpt lat="48.62252" lon="2.06416">
        <ele>159</ele>
        <time>2010-03-19T12:43:59Z</time>
      </trkpt>
      <trkpt lat="48.62251" lon="2.06418">
        <ele>159</ele>
        <time>2010-03-19T12:44:00Z</time>
      </trkpt>
      <trkpt lat="48.62251" lon="2.0642">
        <ele>159</ele>
        <time>2010-03-19T12:44:01Z</time>
      </trkpt>
      <trkpt lat="48.62251" lon="2.06423">
        <ele>159</ele>
        <time>2010-03-19T12:44:02Z</time>
      </trkpt>
      <trkpt lat="48.62249" lon="2.06425">
        <ele>159</ele>
        <time>2010-03-19T12:44:03Z</time>
      </trkpt>
      <trkpt lat="48.62249" lon="2.06427">
        <ele>159</ele>
        <time>2010-03-19T12:44:04Z</time>
      </trkpt>
      <trkpt lat="48.62248" lon="2.0643">
        <ele>159</ele>
        <time>2010-03-19T12:44:05Z</time>
      </trkpt>
      <trkpt lat="48.62247" lon="2.06432">
        <ele>159</ele>
        <time>2010-03-19T12:44:06Z</time>
      </trkpt>
      <trkpt lat="48.62246" lon="2.06434">
        <ele>159</ele>
        <time>2010-03-19T12:44:07Z</time>
      </trkpt>
      <trkpt lat="48.62245" lon="2.06436">
        <ele>159</ele>
        <time>2010-03-19T12:44:08Z</time>
      </trkpt>
      <trkpt lat="48.62244" lon="2.06438">
        <ele>159</ele>
        <time>2010-03-19T12:44:09Z</time>
      </trkpt>
      <trkpt lat="48.62244" lon="2.06442">
        <ele>159</ele>
        <time>2010-03-19T12:44:11Z</time>
      </trkpt>
      <trkpt lat="48.62243" lon="2.06444">
        <ele>159</ele>
        <time>2010-03-19T12:44:12Z</time>
      </trkpt>
      <trkpt lat="48.62243" lon="2.06446">
        <ele>159</ele>
        <time>2010-03-19T12:44:13Z</time>
      </trkpt>
      <trkpt lat="48.62243" lon="2.06449">
        <ele>159</ele>
        <time>2010-03-19T12:44:14Z</time>
      </trkpt>
      <trkpt lat="48.62243" lon="2.06451">
        <ele>159</ele>
        <time>2010-03-19T12:44:15Z</time>
      </trkpt>
      <trkpt lat="48.62243" lon="2.06454">
        <ele>159</ele>
        <time>2010-03-19T12:44:16Z</time>
      </trkpt>
      <trkpt lat="48.62243" lon="2.06456">
        <ele>159</ele>
        <time>2010-03-19T12:44:17Z</time>
      </trkpt>
      <trkpt lat="48.62243" lon="2.06459">
        <ele>159</ele>
        <time>2010-03-19T12:44:18Z</time>
      </trkpt>
      <trkpt lat="48.62244" lon="2.06461">
        <ele>159</ele>
        <time>2010-03-19T12:44:19Z</time>
      </trkpt>
      <trkpt lat="48.62244" lon="2.06464">
        <ele>159</ele>
        <time>2010-03-19T12:44:20Z</time>
      </trkpt>
      <trkpt lat="48.62245" lon="2.06466">
        <ele>159</ele>
        <time>2010-03-19T12:44:21Z</time>
      </trkpt>
      <trkpt lat="48.62246" lon="2.06468">
        <ele>159</ele>
        <time>2010-03-19T12:44:22Z</time>
      </trkpt>
      <trkpt lat="48.62247" lon="2.06469">
        <ele>159</ele>
        <time>2010-03-19T12:44:23Z</time>
      </trkpt>
      <trkpt lat="48.62249" lon="2.06471">
        <ele>159</ele>
        <time>2010-03-19T12:44:24Z</time>
      </trkpt>
      <trkpt lat="48.62251" lon="2.06472">
        <ele>159</ele>
        <time>2010-03-19T12:44:25Z</time>
      </trkpt>
      <trkpt lat="48.62252" lon="2.06472">
        <ele>159</ele>
        <time>2010-03-19T12:44:27Z</time>
      </trkpt>
      <trkpt lat="48.62253" lon="2.06472">
        <ele>159</ele>
        <time>2010-03-19T12:44:38Z</time>
      </trkpt>
      <trkpt lat="48.62254" lon="2.06473">
        <ele>160</ele>
        <time>2010-03-19T12:44:46Z</time>
      </trkpt>
      <trkpt lat="48.62255" lon="2.06474">
        <ele>162</ele>
        <time>2010-03-19T12:44:58Z</time>
      </trkpt>
      <trkpt lat="48.62256" lon="2.06477">
        <ele>163</ele>
        <time>2010-03-19T12:45:07Z</time>
      </trkpt>
      <trkpt lat="48.62258" lon="2.06478">
        <ele>163</ele>
        <time>2010-03-19T12:45:08Z</time>
      </trkpt>
      <trkpt lat="48.62259" lon="2.06479">
        <ele>163</ele>
        <time>2010-03-19T12:45:09Z</time>
      </trkpt>
      <trkpt lat="48.62261" lon="2.06479">
        <ele>163</ele>
        <time>2010-03-19T12:45:10Z</time>
      </trkpt>
      <trkpt lat="48.62262" lon="2.0648">
        <ele>163</ele>
        <time>2010-03-19T12:45:11Z</time>
      </trkpt>
      <trkpt lat="48.62264" lon="2.06482">
        <ele>163</ele>
        <time>2010-03-19T12:45:12Z</time>
      </trkpt>
      <trkpt lat="48.62266" lon="2.06483">
        <ele>163</ele>
        <time>2010-03-19T12:45:13Z</time>
      </trkpt>
      <trkpt lat="48.62267" lon="2.06484">
        <ele>163</ele>
        <time>2010-03-19T12:45:14Z</time>
      </trkpt>
      <trkpt lat="48.62268" lon="2.06485">
        <ele>163</ele>
        <time>2010-03-19T12:45:15Z</time>
      </trkpt>
      <trkpt lat="48.6227" lon="2.06487">
        <ele>163</ele>
        <time>2010-03-19T12:45:27Z</time>
      </trkpt>
      <trkpt lat="48.62271" lon="2.06488">
        <ele>163</ele>
        <time>2010-03-19T12:45:28Z</time>
      </trkpt>
      <trkpt lat="48.62272" lon="2.0649">
        <ele>163</ele>
        <time>2010-03-19T12:45:29Z</time>
      </trkpt>
      <trkpt lat="48.62273" lon="2.06492">
        <ele>163</ele>
        <time>2010-03-19T12:45:32Z</time>
      </trkpt>
      <trkpt lat="48.62273" lon="2.06494">
        <ele>163</ele>
        <time>2010-03-19T12:45:38Z</time>
      </trkpt>
      <trkpt lat="48.62273" lon="2.06496">
        <ele>163</ele>
        <time>2010-03-19T12:45:39Z</time>
      </trkpt>
      <trkpt lat="48.62274" lon="2.06498">
        <ele>163</ele>
        <time>2010-03-19T12:45:40Z</time>
      </trkpt>
      <trkpt lat="48.62274" lon="2.065">
        <ele>163</ele>
        <time>2010-03-19T12:45:41Z</time>
      </trkpt>
      <trkpt lat="48.62275" lon="2.06502">
        <ele>163</ele>
        <time>2010-03-19T12:45:42Z</time>
      </trkpt>
      <trkpt lat="48.62274" lon="2.06505">
        <ele>163</ele>
        <time>2010-03-19T12:45:43Z</time>
      </trkpt>
      <trkpt lat="48.62274" lon="2.06507">
        <ele>163</ele>
        <time>2010-03-19T12:45:44Z</time>
      </trkpt>
      <trkpt lat="48.62273" lon="2.0651">
        <ele>163</ele>
        <time>2010-03-19T12:45:45Z</time>
      </trkpt>
      <trkpt lat="48.62273" lon="2.06512">
        <ele>163</ele>
        <time>2010-03-19T12:45:46Z</time>
      </trkpt>
      <trkpt lat="48.62273" lon="2.06515">
        <ele>163</ele>
        <time>2010-03-19T12:45:47Z</time>
      </trkpt>
      <trkpt lat="48.62273" lon="2.06517">
        <ele>163</ele>
        <time>2010-03-19T12:45:48Z</time>
      </trkpt>
      <trkpt lat="48.62272" lon="2.0652">
        <ele>163</ele>
        <time>2010-03-19T12:45:49Z</time>
      </trkpt>
      <trkpt lat="48.62272" lon="2.06522">
        <ele>163</ele>
        <time>2010-03-19T12:45:50Z</time>
      </trkpt>
      <trkpt lat="48.62272" lon="2.06525">
        <ele>163</ele>
        <time>2010-03-19T12:45:51Z</time>
      </trkpt>
      <trkpt lat="48.62272" lon="2.06528">
        <ele>163</ele>
        <time>2010-03-19T12:45:52Z</time>
      </trkpt>
      <trkpt lat="48.62273" lon="2.06531">
        <ele>163</ele>
        <time>2010-03-19T12:45:53Z</time>
      </trkpt>
      <trkpt lat="48.62274" lon="2.06534">
        <ele>163</ele>
        <time>2010-03-19T12:45:54Z</time>
      </trkpt>
      <trkpt lat="48.62273" lon="2.06536">
        <ele>163</ele>
        <time>2010-03-19T12:45:55Z</time>
      </trkpt>
      <trkpt lat="48.62273" lon="2.06539">
        <ele>163</ele>
        <time>2010-03-19T12:45:56Z</time>
      </trkpt>
      <trkpt lat="48.62273" lon="2.06541">
        <ele>163</ele>
        <time>2010-03-19T12:45:57Z</time>
      </trkpt>
      <trkpt lat="48.62274" lon="2.06543">
        <ele>163</ele>
        <time>2010-03-19T12:45:58Z</time>
      </trkpt>
      <trkpt lat="48.62274" lon="2.06546">
        <ele>163</ele>
        <time>2010-03-19T12:45:59Z</time>
      </trkpt>
      <trkpt lat="48.62274" lon="2.06549">
        <ele>163</ele>
        <time>2010-03-19T12:46:00Z</time>
      </trkpt>
      <trkpt lat="48.62274" lon="2.06552">
        <ele>163</ele>
        <time>2010-03-19T12:46:01Z</time>
      </trkpt>
      <trkpt lat="48.62274" lon="2.06554">
        <ele>163</ele>
        <time>2010-03-19T12:46:02Z</time>
      </trkpt>
      <trkpt lat="48.62274" lon="2.06556">
        <ele>163</ele>
        <time>2010-03-19T12:46:03Z</time>
      </trkpt>
      <trkpt lat="48.62275" lon="2.06558">
        <ele>164</ele>
        <time>2010-03-19T12:46:05Z</time>
      </trkpt>
      <trkpt lat="48.62275" lon="2.06562">
        <ele>164</ele>
        <time>2010-03-19T12:46:13Z</time>
      </trkpt>
      <trkpt lat="48.62275" lon="2.06564">
        <ele>164</ele>
        <time>2010-03-19T12:46:14Z</time>
      </trkpt>
      <trkpt lat="48.62275" lon="2.06566">
        <ele>164</ele>
        <time>2010-03-19T12:46:15Z</time>
      </trkpt>
      <trkpt lat="48.62275" lon="2.06569">
        <ele>164</ele>
        <time>2010-03-19T12:46:22Z</time>
      </trkpt>
      <trkpt lat="48.62276" lon="2.0657">
        <ele>164</ele>
        <time>2010-03-19T12:46:30Z</time>
      </trkpt>
      <trkpt lat="48.62276" lon="2.06572">
        <ele>164</ele>
        <time>2010-03-19T12:46:39Z</time>
      </trkpt>
      <trkpt lat="48.62276" lon="2.06574">
        <ele>164</ele>
        <time>2010-03-19T12:46:41Z</time>
      </trkpt>
      <trkpt lat="48.62275" lon="2.06576">
        <ele>164</ele>
        <time>2010-03-19T12:46:42Z</time>
      </trkpt>
      <trkpt lat="48.62275" lon="2.06578">
        <ele>164</ele>
        <time>2010-03-19T12:46:43Z</time>
      </trkpt>
      <trkpt lat="48.62275" lon="2.06581">
        <ele>164</ele>
        <time>2010-03-19T12:46:44Z</time>
      </trkpt>
      <trkpt lat="48.62274" lon="2.06583">
        <ele>164</ele>
        <time>2010-03-19T12:46:45Z</time>
      </trkpt>
      <trkpt lat="48.62275" lon="2.06585">
        <ele>164</ele>
        <time>2010-03-19T12:46:46Z</time>
      </trkpt>
      <trkpt lat="48.62274" lon="2.06588">
        <ele>164</ele>
        <time>2010-03-19T12:46:47Z</time>
      </trkpt>
      <trkpt lat="48.62273" lon="2.0659">
        <ele>164</ele>
        <time>2010-03-19T12:46:48Z</time>
      </trkpt>
      <trkpt lat="48.62273" lon="2.06592">
        <ele>164</ele>
        <time>2010-03-19T12:46:49Z</time>
      </trkpt>
      <trkpt lat="48.62272" lon="2.06594">
        <ele>164</ele>
        <time>2010-03-19T12:46:50Z</time>
      </trkpt>
      <trkpt lat="48.62272" lon="2.06596">
        <ele>164</ele>
        <time>2010-03-19T12:46:51Z</time>
      </trkpt>
      <trkpt lat="48.62272" lon="2.06599">
        <ele>164</ele>
        <time>2010-03-19T12:46:52Z</time>
      </trkpt>
      <trkpt lat="48.62272" lon="2.06601">
        <ele>164</ele>
        <time>2010-03-19T12:46:53Z</time>
      </trkpt>
      <trkpt lat="48.62272" lon="2.06603">
        <ele>164</ele>
        <time>2010-03-19T12:46:54Z</time>
      </trkpt>
      <trkpt lat="48.62272" lon="2.06606">
        <ele>164</ele>
        <time>2010-03-19T12:46:55Z</time>
      </trkpt>
      <trkpt lat="48.62272" lon="2.06608">
        <ele>164</ele>
        <time>2010-03-19T12:46:56Z</time>
      </trkpt>
      <trkpt lat="48.62272" lon="2.0661">
        <ele>164</ele>
        <time>2010-03-19T12:46:57Z</time>
      </trkpt>
      <trkpt lat="48.62272" lon="2.06613">
        <ele>164</ele>
        <time>2010-03-19T12:46:58Z</time>
      </trkpt>
      <trkpt lat="48.62272" lon="2.06616">
        <ele>164</ele>
        <time>2010-03-19T12:46:59Z</time>
      </trkpt>
      <trkpt lat="48.62272" lon="2.06618">
        <ele>164</ele>
        <time>2010-03-19T12:47:00Z</time>
      </trkpt>
      <trkpt lat="48.62272" lon="2.06621">
        <ele>164</ele>
        <time>2010-03-19T12:47:01Z</time>
      </trkpt>
      <trkpt lat="48.62272" lon="2.06623">
        <ele>164</ele>
        <time>2010-03-19T12:47:02Z</time>
      </trkpt>
      <trkpt lat="48.62272" lon="2.06626">
        <ele>164</ele>
        <time>2010-03-19T12:47:03Z</time>
      </trkpt>
      <trkpt lat="48.62272" lon="2.06628">
        <ele>164</ele>
        <time>2010-03-19T12:47:04Z</time>
      </trkpt>
      <trkpt lat="48.62272" lon="2.06631">
        <ele>164</ele>
        <time>2010-03-19T12:47:05Z</time>
      </trkpt>
      <trkpt lat="48.62272" lon="2.06633">
        <ele>164</ele>
        <time>2010-03-19T12:47:06Z</time>
      </trkpt>
      <trkpt lat="48.62272" lon="2.06636">
        <ele>164</ele>
        <time>2010-03-19T12:47:07Z</time>
      </trkpt>
      <trkpt lat="48.62272" lon="2.06638">
        <ele>164</ele>
        <time>2010-03-19T12:47:08Z</time>
      </trkpt>
      <trkpt lat="48.62272" lon="2.06641">
        <ele>164</ele>
        <time>2010-03-19T12:47:09Z</time>
      </trkpt>
      <trkpt lat="48.62272" lon="2.06643">
        <ele>164</ele>
        <time>2010-03-19T12:47:10Z</time>
      </trkpt>
      <trkpt lat="48.62272" lon="2.06645">
        <ele>164</ele>
        <time>2010-03-19T12:47:11Z</time>
      </trkpt>
      <trkpt lat="48.62272" lon="2.06648">
        <ele>164</ele>
        <time>2010-03-19T12:47:12Z</time>
      </trkpt>
      <trkpt lat="48.62272" lon="2.0665">
        <ele>164</ele>
        <time>2010-03-19T12:47:13Z</time>
      </trkpt>
      <trkpt lat="48.62272" lon="2.06653">
        <ele>164</ele>
        <time>2010-03-19T12:47:14Z</time>
      </trkpt>
      <trkpt lat="48.62272" lon="2.06656">
        <ele>164</ele>
        <time>2010-03-19T12:47:15Z</time>
      </trkpt>
      <trkpt lat="48.62272" lon="2.06658">
        <ele>164</ele>
        <time>2010-03-19T12:47:16Z</time>
      </trkpt>
      <trkpt lat="48.62272" lon="2.06661">
        <ele>164</ele>
        <time>2010-03-19T12:47:17Z</time>
      </trkpt>
      <trkpt lat="48.62272" lon="2.06663">
        <ele>164</ele>
        <time>2010-03-19T12:47:18Z</time>
      </trkpt>
      <trkpt lat="48.62272" lon="2.06666">
        <ele>164</ele>
        <time>2010-03-19T12:47:19Z</time>
      </trkpt>
      <trkpt lat="48.62271" lon="2.06668">
        <ele>164</ele>
        <time>2010-03-19T12:47:20Z</time>
      </trkpt>
      <trkpt lat="48.62271" lon="2.06671">
        <ele>164</ele>
        <time>2010-03-19T12:47:21Z</time>
      </trkpt>
      <trkpt lat="48.62271" lon="2.06673">
        <ele>164</ele>
        <time>2010-03-19T12:47:22Z</time>
      </trkpt>
      <trkpt lat="48.62271" lon="2.06676">
        <ele>164</ele>
        <time>2010-03-19T12:47:23Z</time>
      </trkpt>
      <trkpt lat="48.62271" lon="2.06679">
        <ele>164</ele>
        <time>2010-03-19T12:47:24Z</time>
      </trkpt>
      <trkpt lat="48.62271" lon="2.06681">
        <ele>164</ele>
        <time>2010-03-19T12:47:25Z</time>
      </trkpt>
      <trkpt lat="48.62271" lon="2.06683">
        <ele>164</ele>
        <time>2010-03-19T12:47:26Z</time>
      </trkpt>
      <trkpt lat="48.62271" lon="2.06686">
        <ele>164</ele>
        <time>2010-03-19T12:47:27Z</time>
      </trkpt>
      <trkpt lat="48.62271" lon="2.06689">
        <ele>164</ele>
        <time>2010-03-19T12:47:28Z</time>
      </trkpt>
      <trkpt lat="48.62271" lon="2.06693">
        <ele>164</ele>
        <time>2010-03-19T12:47:29Z</time>
      </trkpt>
      <trkpt lat="48.62271" lon="2.06698">
        <ele>164</ele>
        <time>2010-03-19T12:47:30Z</time>
      </trkpt>
      <trkpt lat="48.62271" lon="2.06702">
        <ele>164</ele>
        <time>2010-03-19T12:47:31Z</time>
      </trkpt>
      <trkpt lat="48.62271" lon="2.06707">
        <ele>164</ele>
        <time>2010-03-19T12:47:32Z</time>
      </trkpt>
      <trkpt lat="48.62271" lon="2.06711">
        <ele>164</ele>
        <time>2010-03-19T12:47:33Z</time>
      </trkpt>
      <trkpt lat="48.62271" lon="2.06715">
        <ele>164</ele>
        <time>2010-03-19T12:47:34Z</time>
      </trkpt>
      <trkpt lat="48.62271" lon="2.06718">
        <ele>164</ele>
        <time>2010-03-19T12:47:35Z</time>
      </trkpt>
      <trkpt lat="48.62271" lon="2.06722">
        <ele>164</ele>
        <time>2010-03-19T12:47:36Z</time>
      </trkpt>
      <trkpt lat="48.62271" lon="2.06725">
        <ele>164</ele>
        <time>2010-03-19T12:47:37Z</time>
      </trkpt>
      <trkpt lat="48.62271" lon="2.06728">
        <ele>164</ele>
        <time>2010-03-19T12:47:38Z</time>
      </trkpt>
      <trkpt lat="48.62271" lon="2.0673">
        <ele>164</ele>
        <time>2010-03-19T12:47:39Z</time>
      </trkpt>
      <trkpt lat="48.62271" lon="2.06733">
        <ele>164</ele>
        <time>2010-03-19T12:47:40Z</time>
      </trkpt>
      <trkpt lat="48.62271" lon="2.06736">
        <ele>164</ele>
        <time>2010-03-19T12:47:41Z</time>
      </trkpt>
      <trkpt lat="48.62271" lon="2.06738">
        <ele>164</ele>
        <time>2010-03-19T12:47:42Z</time>
      </trkpt>
      <trkpt lat="48.62271" lon="2.06741">
        <ele>164</ele>
        <time>2010-03-19T12:47:43Z</time>
      </trkpt>
      <trkpt lat="48.62271" lon="2.06744">
        <ele>164</ele>
        <time>2010-03-19T12:47:44Z</time>
      </trkpt>
      <trkpt lat="48.62271" lon="2.06746">
        <ele>164</ele>
        <time>2010-03-19T12:47:45Z</time>
      </trkpt>
      <trkpt lat="48.6227" lon="2.06749">
        <ele>164</ele>
        <time>2010-03-19T12:47:46Z</time>
      </trkpt>
      <trkpt lat="48.6227" lon="2.06751">
        <ele>164</ele>
        <time>2010-03-19T12:47:47Z</time>
      </trkpt>
      <trkpt lat="48.6227" lon="2.06754">
        <ele>164</ele>
        <time>2010-03-19T12:47:48Z</time>
      </trkpt>
      <trkpt lat="48.6227" lon="2.06756">
        <ele>164</ele>
        <time>2010-03-19T12:47:49Z</time>
      </trkpt>
      <trkpt lat="48.6227" lon="2.06759">
        <ele>164</ele>
        <time>2010-03-19T12:47:50Z</time>
      </trkpt>
      <trkpt lat="48.6227" lon="2.06762">
        <ele>164</ele>
        <time>2010-03-19T12:47:51Z</time>
      </trkpt>
      <trkpt lat="48.6227" lon="2.06764">
        <ele>164</ele>
        <time>2010-03-19T12:47:52Z</time>
      </trkpt>
      <trkpt lat="48.6227" lon="2.06767">
        <ele>164</ele>
        <time>2010-03-19T12:47:53Z</time>
      </trkpt>
      <trkpt lat="48.6227" lon="2.06769">
        <ele>164</ele>
        <time>2010-03-19T12:47:54Z</time>
      </trkpt>
      <trkpt lat="48.6227" lon="2.06772">
        <ele>164</ele>
        <time>2010-03-19T12:47:55Z</time>
      </trkpt>
      <trkpt lat="48.6227" lon="2.06775">
        <ele>164</ele>
        <time>2010-03-19T12:47:56Z</time>
      </trkpt>
      <trkpt lat="48.6227" lon="2.06777">
        <ele>164</ele>
        <time>2010-03-19T12:47:57Z</time>
      </trkpt>
      <trkpt lat="48.6227" lon="2.0678">
        <ele>164</ele>
        <time>2010-03-19T12:47:58Z</time>
      </trkpt>
      <trkpt lat="48.6227" lon="2.06783">
        <ele>164</ele>
        <time>2010-03-19T12:47:59Z</time>
      </trkpt>
      <trkpt lat="48.6227" lon="2.06785">
        <ele>164</ele>
        <time>2010-03-19T12:48:00Z</time>
      </trkpt>
      <trkpt lat="48.6227" lon="2.06787">
        <ele>164</ele>
        <time>2010-03-19T12:48:01Z</time>
      </trkpt>
      <trkpt lat="48.6227" lon="2.0679">
        <ele>164</ele>
        <time>2010-03-19T12:48:02Z</time>
      </trkpt>
      <trkpt lat="48.6227" lon="2.06792">
        <ele>164</ele>
        <time>2010-03-19T12:48:03Z</time>
      </trkpt>
      <trkpt lat="48.6227" lon="2.06795">
        <ele>164</ele>
        <time>2010-03-19T12:48:04Z</time>
      </trkpt>
      <trkpt lat="48.6227" lon="2.06799">
        <ele>164</ele>
        <time>2010-03-19T12:48:05Z</time>
      </trkpt>
      <trkpt lat="48.6227" lon="2.06801">
        <ele>164</ele>
        <time>2010-03-19T12:48:06Z</time>
      </trkpt>
      <trkpt lat="48.6227" lon="2.06803">
        <ele>164</ele>
        <time>2010-03-19T12:48:07Z</time>
      </trkpt>
      <trkpt lat="48.6227" lon="2.06805">
        <ele>164</ele>
        <time>2010-03-19T12:48:08Z</time>
      </trkpt>
      <trkpt lat="48.6227" lon="2.06808">
        <ele>164</ele>
        <time>2010-03-19T12:48:09Z</time>
      </trkpt>
      <trkpt lat="48.6227" lon="2.06811">
        <ele>164</ele>
        <time>2010-03-19T12:48:10Z</time>
      </trkpt>
      <trkpt lat="48.6227" lon="2.06813">
        <ele>164</ele>
        <time>2010-03-19T12:48:11Z</time>
      </trkpt>
      <trkpt lat="48.62269" lon="2.06816">
        <ele>164</ele>
        <time>2010-03-19T12:48:12Z</time>
      </trkpt>
      <trkpt lat="48.62269" lon="2.06819">
        <ele>164</ele>
        <time>2010-03-19T12:48:13Z</time>
      </trkpt>
      <trkpt lat="48.6227" lon="2.0682">
        <ele>164</ele>
        <time>2010-03-19T12:48:14Z</time>
      </trkpt>
      <trkpt lat="48.6227" lon="2.06822">
        <ele>164</ele>
        <time>2010-03-19T12:48:15Z</time>
      </trkpt>
      <trkpt lat="48.6227" lon="2.06825">
        <ele>164</ele>
        <time>2010-03-19T12:48:16Z</time>
      </trkpt>
      <trkpt lat="48.62269" lon="2.06827">
        <ele>164</ele>
        <time>2010-03-19T12:48:17Z</time>
      </trkpt>
      <trkpt lat="48.62269" lon="2.0683">
        <ele>164</ele>
        <time>2010-03-19T12:48:18Z</time>
      </trkpt>
      <trkpt lat="48.62269" lon="2.06832">
        <ele>164</ele>
        <time>2010-03-19T12:48:19Z</time>
      </trkpt>
      <trkpt lat="48.62268" lon="2.06834">
        <ele>164</ele>
        <time>2010-03-19T12:48:20Z</time>
      </trkpt>
      <trkpt lat="48.62268" lon="2.06837">
        <ele>164</ele>
        <time>2010-03-19T12:48:21Z</time>
      </trkpt>
      <trkpt lat="48.62268" lon="2.0684">
        <ele>164</ele>
        <time>2010-03-19T12:48:22Z</time>
      </trkpt>
      <trkpt lat="48.62268" lon="2.06842">
        <ele>164</ele>
        <time>2010-03-19T12:48:23Z</time>
      </trkpt>
      <trkpt lat="48.62268" lon="2.06845">
        <ele>164</ele>
        <time>2010-03-19T12:48:24Z</time>
      </trkpt>
      <trkpt lat="48.62268" lon="2.06848">
        <ele>164</ele>
        <time>2010-03-19T12:48:25Z</time>
      </trkpt>
      <trkpt lat="48.62267" lon="2.0685">
        <ele>164</ele>
        <time>2010-03-19T12:48:26Z</time>
      </trkpt>
      <trkpt lat="48.62267" lon="2.06853">
        <ele>164</ele>
        <time>2010-03-19T12:48:27Z</time>
      </trkpt>
      <trkpt lat="48.62267" lon="2.06855">
        <ele>164</ele>
        <time>2010-03-19T12:48:28Z</time>
      </trkpt>
      <trkpt lat="48.62267" lon="2.06858">
        <ele>164</ele>
        <time>2010-03-19T12:48:29Z</time>
      </trkpt>
      <trkpt lat="48.62267" lon="2.0686">
        <ele>164</ele>
        <time>2010-03-19T12:48:30Z</time>
      </trkpt>
      <trkpt lat="48.62267" lon="2.06863">
        <ele>164</ele>
        <time>2010-03-19T12:48:31Z</time>
      </trkpt>
      <trkpt lat="48.62267" lon="2.06866">
        <ele>164</ele>
        <time>2010-03-19T12:48:32Z</time>
      </trkpt>
      <trkpt lat="48.62267" lon="2.06869">
        <ele>164</ele>
        <time>2010-03-19T12:48:33Z</time>
      </trkpt>
      <trkpt lat="48.62267" lon="2.06871">
        <ele>164</ele>
        <time>2010-03-19T12:48:34Z</time>
      </trkpt>
      <trkpt lat="48.62267" lon="2.06874">
        <ele>164</ele>
        <time>2010-03-19T12:48:35Z</time>
      </trkpt>
      <trkpt lat="48.62267" lon="2.06877">
        <ele>164</ele>
        <time>2010-03-19T12:48:36Z</time>
      </trkpt>
      <trkpt lat="48.62267" lon="2.0688">
        <ele>164</ele>
        <time>2010-03-19T12:48:37Z</time>
      </trkpt>
      <trkpt lat="48.62267" lon="2.06882">
        <ele>164</ele>
        <time>2010-03-19T12:48:38Z</time>
      </trkpt>
      <trkpt lat="48.62266" lon="2.06885">
        <ele>164</ele>
        <time>2010-03-19T12:48:39Z</time>
      </trkpt>
      <trkpt lat="48.62266" lon="2.06887">
        <ele>164</ele>
        <time>2010-03-19T12:48:40Z</time>
      </trkpt>
      <trkpt lat="48.62266" lon="2.06889">
        <ele>164</ele>
        <time>2010-03-19T12:48:41Z</time>
      </trkpt>
      <trkpt lat="48.62266" lon="2.06892">
        <ele>164</ele>
        <time>2010-03-19T12:48:42Z</time>
      </trkpt>
      <trkpt lat="48.62266" lon="2.06895">
        <ele>164</ele>
        <time>2010-03-19T12:48:43Z</time>
      </trkpt>
      <trkpt lat="48.62266" lon="2.06897">
        <ele>164</ele>
        <time>2010-03-19T12:48:44Z</time>
      </trkpt>
      <trkpt lat="48.62266" lon="2.069">
        <ele>164</ele>
        <time>2010-03-19T12:48:45Z</time>
      </trkpt>
      <trkpt lat="48.62266" lon="2.06902">
        <ele>164</ele>
        <time>2010-03-19T12:48:46Z</time>
      </trkpt>
      <trkpt lat="48.62266" lon="2.06905">
        <ele>164</ele>
        <time>2010-03-19T12:48:47Z</time>
      </trkpt>
      <trkpt lat="48.62265" lon="2.06907">
        <ele>164</ele>
        <time>2010-03-19T12:48:48Z</time>
      </trkpt>
      <trkpt lat="48.62265" lon="2.06909">
        <ele>164</ele>
        <time>2010-03-19T12:48:49Z</time>
      </trkpt>
      <trkpt lat="48.62264" lon="2.06912">
        <ele>164</ele>
        <time>2010-03-19T12:48:50Z</time>
      </trkpt>
      <trkpt lat="48.62264" lon="2.06914">
        <ele>164</ele>
        <time>2010-03-19T12:48:51Z</time>
      </trkpt>
      <trkpt lat="48.62264" lon="2.06917">
        <ele>164</ele>
        <time>2010-03-19T12:48:52Z</time>
      </trkpt>
      <trkpt lat="48.62264" lon="2.0692">
        <ele>164</ele>
        <time>2010-03-19T12:48:53Z</time>
      </trkpt>
      <trkpt lat="48.62264" lon="2.06922">
        <ele>164</ele>
        <time>2010-03-19T12:48:54Z</time>
      </trkpt>
      <trkpt lat="48.62264" lon="2.06924">
        <ele>164</ele>
        <time>2010-03-19T12:48:55Z</time>
      </trkpt>
      <trkpt lat="48.62264" lon="2.06927">
        <ele>164</ele>
        <time>2010-03-19T12:48:56Z</time>
      </trkpt>
      <trkpt lat="48.62264" lon="2.06929">
        <ele>164</ele>
        <time>2010-03-19T12:48:57Z</time>
      </trkpt>
      <trkpt lat="48.62264" lon="2.06931">
        <ele>164</ele>
        <time>2010-03-19T12:48:58Z</time>
      </trkpt>
      <trkpt lat="48.62264" lon="2.06934">
        <ele>164</ele>
        <time>2010-03-19T12:48:59Z</time>
      </trkpt>
      <trkpt lat="48.62264" lon="2.06937">
        <ele>164</ele>
        <time>2010-03-19T12:49:00Z</time>
      </trkpt>
      <trkpt lat="48.62264" lon="2.06939">
        <ele>164</ele>
        <time>2010-03-19T12:49:01Z</time>
      </trkpt>
      <trkpt lat="48.62264" lon="2.06942">
        <ele>164</ele>
        <time>2010-03-19T12:49:02Z</time>
      </trkpt>
      <trkpt lat="48.62264" lon="2.06945">
        <ele>164</ele>
        <time>2010-03-19T12:49:03Z</time>
      </trkpt>
      <trkpt lat="48.62264" lon="2.06948">
        <ele>164</ele>
        <time>2010-03-19T12:49:04Z</time>
      </trkpt>
      <trkpt lat="48.62264" lon="2.06951">
        <ele>164</ele>
        <time>2010-03-19T12:49:05Z</time>
      </trkpt>
      <trkpt lat="48.62264" lon="2.06954">
        <ele>164</ele>
        <time>2010-03-19T12:49:06Z</time>
      </trkpt>
      <trkpt lat="48.62264" lon="2.06956">
        <ele>164</ele>
        <time>2010-03-19T12:49:07Z</time>
      </trkpt>
      <trkpt lat="48.62264" lon="2.06959">
        <ele>164</ele>
        <time>2010-03-19T12:49:08Z</time>
      </trkpt>
      <trkpt lat="48.62264" lon="2.06961">
        <ele>164</ele>
        <time>2010-03-19T12:49:09Z</time>
      </trkpt>
      <trkpt lat="48.62264" lon="2.06963">
        <ele>164</ele>
        <time>2010-03-19T12:49:10Z</time>
      </trkpt>
      <trkpt lat="48.62264" lon="2.06965">
        <ele>164</ele>
        <time>2010-03-19T12:49:11Z</time>
      </trkpt>
      <trkpt lat="48.62264" lon="2.06966">
        <ele>164</ele>
        <time>2010-03-19T12:49:12Z</time>
      </trkpt>
      <trkpt lat="48.62263" lon="2.06968">
        <ele>164</ele>
        <time>2010-03-19T12:49:13Z</time>
      </trkpt>
      <trkpt lat="48.62263" lon="2.06971">
        <ele>164</ele>
        <time>2010-03-19T12:49:14Z</time>
      </trkpt>
      <trkpt lat="48.62263" lon="2.06973">
        <ele>164</ele>
        <time>2010-03-19T12:49:15Z</time>
      </trkpt>
      <trkpt lat="48.62263" lon="2.06975">
        <ele>164</ele>
        <time>2010-03-19T12:49:17Z</time>
      </trkpt>
      <trkpt lat="48.62263" lon="2.06978">
        <ele>164</ele>
        <time>2010-03-19T12:49:20Z</time>
      </trkpt>
      <trkpt lat="48.62263" lon="2.06979">
        <ele>164</ele>
        <time>2010-03-19T12:49:21Z</time>
      </trkpt>
      <trkpt lat="48.62263" lon="2.06981">
        <ele>164</ele>
        <time>2010-03-19T12:49:22Z</time>
      </trkpt>
      <trkpt lat="48.62263" lon="2.06983">
        <ele>164</ele>
        <time>2010-03-19T12:49:23Z</time>
      </trkpt>
      <trkpt lat="48.62263" lon="2.06985">
        <ele>164</ele>
        <time>2010-03-19T12:49:24Z</time>
      </trkpt>
      <trkpt lat="48.62263" lon="2.06987">
        <ele>164</ele>
        <time>2010-03-19T12:49:25Z</time>
      </trkpt>
      <trkpt lat="48.62263" lon="2.06989">
        <ele>164</ele>
        <time>2010-03-19T12:49:26Z</time>
      </trkpt>
      <trkpt lat="48.62263" lon="2.0699">
        <ele>164</ele>
        <time>2010-03-19T12:49:27Z</time>
      </trkpt>
      <trkpt lat="48.62263" lon="2.06992">
        <ele>164</ele>
        <time>2010-03-19T12:49:28Z</time>
      </trkpt>
      <trkpt lat="48.62263" lon="2.06995">
        <ele>164</ele>
        <time>2010-03-19T12:49:30Z</time>
      </trkpt>
      <trkpt lat="48.62263" lon="2.06997">
        <ele>164</ele>
        <time>2010-03-19T12:49:31Z</time>
      </trkpt>
      <trkpt lat="48.62262" lon="2.06998">
        <ele>164</ele>
        <time>2010-03-19T12:49:32Z</time>
      </trkpt>
      <trkpt lat="48.62262" lon="2.07">
        <ele>164</ele>
        <time>2010-03-19T12:49:33Z</time>
      </trkpt>
      <trkpt lat="48.62262" lon="2.07002">
        <ele>164</ele>
        <time>2010-03-19T12:49:34Z</time>
      </trkpt>
      <trkpt lat="48.62262" lon="2.07004">
        <ele>164</ele>
        <time>2010-03-19T12:49:35Z</time>
      </trkpt>
      <trkpt lat="48.62262" lon="2.07007">
        <ele>164</ele>
        <time>2010-03-19T12:49:36Z</time>
      </trkpt>
      <trkpt lat="48.62262" lon="2.0701">
        <ele>164</ele>
        <time>2010-03-19T12:49:37Z</time>
      </trkpt>
      <trkpt lat="48.62262" lon="2.07012">
        <ele>164</ele>
        <time>2010-03-19T12:49:38Z</time>
      </trkpt>
      <trkpt lat="48.62262" lon="2.07014">
        <ele>164</ele>
        <time>2010-03-19T12:49:39Z</time>
      </trkpt>
      <trkpt lat="48.62262" lon="2.07017">
        <ele>164</ele>
        <time>2010-03-19T12:49:40Z</time>
      </trkpt>
      <trkpt lat="48.62263" lon="2.0702">
        <ele>164</ele>
        <time>2010-03-19T12:49:41Z</time>
      </trkpt>
      <trkpt lat="48.62263" lon="2.07023">
        <ele>164</ele>
        <time>2010-03-19T12:49:42Z</time>
      </trkpt>
      <trkpt lat="48.62263" lon="2.07026">
        <ele>164</ele>
        <time>2010-03-19T12:49:43Z</time>
      </trkpt>
      <trkpt lat="48.62262" lon="2.07028">
        <ele>164</ele>
        <time>2010-03-19T12:49:44Z</time>
      </trkpt>
      <trkpt lat="48.62262" lon="2.07031">
        <ele>164</ele>
        <time>2010-03-19T12:49:45Z</time>
      </trkpt>
      <trkpt lat="48.62262" lon="2.07033">
        <ele>164</ele>
        <time>2010-03-19T12:49:46Z</time>
      </trkpt>
      <trkpt lat="48.62262" lon="2.07035">
        <ele>164</ele>
        <time>2010-03-19T12:49:47Z</time>
      </trkpt>
      <trkpt lat="48.62262" lon="2.07038">
        <ele>164</ele>
        <time>2010-03-19T12:49:48Z</time>
      </trkpt>
      <trkpt lat="48.62262" lon="2.07041">
        <ele>164</ele>
        <time>2010-03-19T12:49:49Z</time>
      </trkpt>
      <trkpt lat="48.62262" lon="2.07043">
        <ele>164</ele>
        <time>2010-03-19T12:49:50Z</time>
      </trkpt>
      <trkpt lat="48.62262" lon="2.07046">
        <ele>164</ele>
        <time>2010-03-19T12:49:51Z</time>
      </trkpt>
      <trkpt lat="48.62261" lon="2.07048">
        <ele>164</ele>
        <time>2010-03-19T12:49:52Z</time>
      </trkpt>
      <trkpt lat="48.62261" lon="2.07049">
        <ele>164</ele>
        <time>2010-03-19T12:49:53Z</time>
      </trkpt>
      <trkpt lat="48.62261" lon="2.07051">
        <ele>164</ele>
        <time>2010-03-19T12:49:54Z</time>
      </trkpt>
      <trkpt lat="48.62261" lon="2.07053">
        <ele>164</ele>
        <time>2010-03-19T12:49:55Z</time>
      </trkpt>
      <trkpt lat="48.62261" lon="2.07055">
        <ele>164</ele>
        <time>2010-03-19T12:49:56Z</time>
      </trkpt>
      <trkpt lat="48.62261" lon="2.07058">
        <ele>164</ele>
        <time>2010-03-19T12:49:57Z</time>
      </trkpt>
      <trkpt lat="48.62261" lon="2.0706">
        <ele>164</ele>
        <time>2010-03-19T12:49:58Z</time>
      </trkpt>
      <trkpt lat="48.6226" lon="2.07063">
        <ele>164</ele>
        <time>2010-03-19T12:50:00Z</time>
      </trkpt>
      <trkpt lat="48.6226" lon="2.07066">
        <ele>164</ele>
        <time>2010-03-19T12:50:01Z</time>
      </trkpt>
      <trkpt lat="48.6226" lon="2.07067">
        <ele>164</ele>
        <time>2010-03-19T12:50:02Z</time>
      </trkpt>
      <trkpt lat="48.6226" lon="2.07069">
        <ele>164</ele>
        <time>2010-03-19T12:50:05Z</time>
      </trkpt>
      <trkpt lat="48.6226" lon="2.07073">
        <ele>164</ele>
        <time>2010-03-19T12:50:07Z</time>
      </trkpt>
      <trkpt lat="48.6226" lon="2.07075">
        <ele>164</ele>
        <time>2010-03-19T12:50:08Z</time>
      </trkpt>
      <trkpt lat="48.6226" lon="2.07077">
        <ele>164</ele>
        <time>2010-03-19T12:50:10Z</time>
      </trkpt>
      <trkpt lat="48.6226" lon="2.0708">
        <ele>164</ele>
        <time>2010-03-19T12:50:12Z</time>
      </trkpt>
      <trkpt lat="48.6226" lon="2.07083">
        <ele>164</ele>
        <time>2010-03-19T12:50:14Z</time>
      </trkpt>
      <trkpt lat="48.6226" lon="2.07085">
        <ele>164</ele>
        <time>2010-03-19T12:50:16Z</time>
      </trkpt>
      <trkpt lat="48.62259" lon="2.07087">
        <ele>164</ele>
        <time>2010-03-19T12:50:17Z</time>
      </trkpt>
      <trkpt lat="48.62257" lon="2.0709">
        <ele>164</ele>
        <time>2010-03-19T12:50:19Z</time>
      </trkpt>
      <trkpt lat="48.62255" lon="2.07091">
        <ele>164</ele>
        <time>2010-03-19T12:50:20Z</time>
      </trkpt>
      <trkpt lat="48.62254" lon="2.07092">
        <ele>164</ele>
        <time>2010-03-19T12:50:21Z</time>
      </trkpt>
      <trkpt lat="48.62252" lon="2.07093">
        <ele>164</ele>
        <time>2010-03-19T12:50:22Z</time>
      </trkpt>
      <trkpt lat="48.62251" lon="2.07094">
        <ele>164</ele>
        <time>2010-03-19T12:50:23Z</time>
      </trkpt>
      <trkpt lat="48.6225" lon="2.07095">
        <ele>164</ele>
        <time>2010-03-19T12:50:24Z</time>
      </trkpt>
      <trkpt lat="48.62248" lon="2.07096">
        <ele>164</ele>
        <time>2010-03-19T12:50:25Z</time>
      </trkpt>
      <trkpt lat="48.62247" lon="2.07096">
        <ele>164</ele>
        <time>2010-03-19T12:50:26Z</time>
      </trkpt>
      <trkpt lat="48.62246" lon="2.07097">
        <ele>164</ele>
        <time>2010-03-19T12:50:27Z</time>
      </trkpt>
      <trkpt lat="48.62244" lon="2.07097">
        <ele>164</ele>
        <time>2010-03-19T12:50:28Z</time>
      </trkpt>
      <trkpt lat="48.62243" lon="2.07098">
        <ele>164</ele>
        <time>2010-03-19T12:50:29Z</time>
      </trkpt>
      <trkpt lat="48.62241" lon="2.07099">
        <ele>164</ele>
        <time>2010-03-19T12:50:31Z</time>
      </trkpt>
      <trkpt lat="48.62239" lon="2.071">
        <ele>164</ele>
        <time>2010-03-19T12:50:32Z</time>
      </trkpt>
      <trkpt lat="48.62238" lon="2.07101">
        <ele>164</ele>
        <time>2010-03-19T12:50:33Z</time>
      </trkpt>
      <trkpt lat="48.62237" lon="2.07101">
        <ele>164</ele>
        <time>2010-03-19T12:50:34Z</time>
      </trkpt>
      <trkpt lat="48.62236" lon="2.07102">
        <ele>164</ele>
        <time>2010-03-19T12:50:35Z</time>
      </trkpt>
      <trkpt lat="48.62235" lon="2.07103">
        <ele>164</ele>
        <time>2010-03-19T12:50:36Z</time>
      </trkpt>
      <trkpt lat="48.62233" lon="2.07104">
        <ele>164</ele>
        <time>2010-03-19T12:50:37Z</time>
      </trkpt>
      <trkpt lat="48.62232" lon="2.07105">
        <ele>164</ele>
        <time>2010-03-19T12:50:38Z</time>
      </trkpt>
      <trkpt lat="48.6223" lon="2.07106">
        <ele>164</ele>
        <time>2010-03-19T12:50:40Z</time>
      </trkpt>
      <trkpt lat="48.62229" lon="2.07106">
        <ele>164</ele>
        <time>2010-03-19T12:50:41Z</time>
      </trkpt>
      <trkpt lat="48.62228" lon="2.07107">
        <ele>164</ele>
        <time>2010-03-19T12:50:42Z</time>
      </trkpt>
      <trkpt lat="48.62227" lon="2.07108">
        <ele>164</ele>
        <time>2010-03-19T12:50:43Z</time>
      </trkpt>
      <trkpt lat="48.62225" lon="2.07109">
        <ele>164</ele>
        <time>2010-03-19T12:50:44Z</time>
      </trkpt>
      <trkpt lat="48.62224" lon="2.0711">
        <ele>164</ele>
        <time>2010-03-19T12:50:45Z</time>
      </trkpt>
      <trkpt lat="48.62222" lon="2.07111">
        <ele>164</ele>
        <time>2010-03-19T12:50:46Z</time>
      </trkpt>
      <trkpt lat="48.62221" lon="2.07112">
        <ele>164</ele>
        <time>2010-03-19T12:50:47Z</time>
      </trkpt>
      <trkpt lat="48.62219" lon="2.07112">
        <ele>164</ele>
        <time>2010-03-19T12:50:48Z</time>
      </trkpt>
      <trkpt lat="48.62218" lon="2.07113">
        <ele>164</ele>
        <time>2010-03-19T12:50:49Z</time>
      </trkpt>
      <trkpt lat="48.62216" lon="2.07114">
        <ele>163</ele>
        <time>2010-03-19T12:50:50Z</time>
      </trkpt>
      <trkpt lat="48.62214" lon="2.07114">
        <ele>163</ele>
        <time>2010-03-19T12:50:51Z</time>
      </trkpt>
      <trkpt lat="48.62213" lon="2.07115">
        <ele>163</ele>
        <time>2010-03-19T12:50:52Z</time>
      </trkpt>
      <trkpt lat="48.62211" lon="2.07116">
        <ele>163</ele>
        <time>2010-03-19T12:50:53Z</time>
      </trkpt>
      <trkpt lat="48.6221" lon="2.07117">
        <ele>163</ele>
        <time>2010-03-19T12:50:54Z</time>
      </trkpt>
      <trkpt lat="48.62209" lon="2.07118">
        <ele>162</ele>
        <time>2010-03-19T12:50:55Z</time>
      </trkpt>
      <trkpt lat="48.62207" lon="2.07119">
        <ele>162</ele>
        <time>2010-03-19T12:50:56Z</time>
      </trkpt>
      <trkpt lat="48.62206" lon="2.0712">
        <ele>162</ele>
        <time>2010-03-19T12:50:57Z</time>
      </trkpt>
      <trkpt lat="48.62204" lon="2.07121">
        <ele>162</ele>
        <time>2010-03-19T12:50:58Z</time>
      </trkpt>
      <trkpt lat="48.62203" lon="2.07122">
        <ele>162</ele>
        <time>2010-03-19T12:50:59Z</time>
      </trkpt>
      <trkpt lat="48.62201" lon="2.07123">
        <ele>162</ele>
        <time>2010-03-19T12:51:00Z</time>
      </trkpt>
      <trkpt lat="48.62199" lon="2.07124">
        <ele>162</ele>
        <time>2010-03-19T12:51:01Z</time>
      </trkpt>
      <trkpt lat="48.62197" lon="2.07125">
        <ele>162</ele>
        <time>2010-03-19T12:51:02Z</time>
      </trkpt>
      <trkpt lat="48.62195" lon="2.07126">
        <ele>162</ele>
        <time>2010-03-19T12:51:03Z</time>
      </trkpt>
      <trkpt lat="48.62193" lon="2.07127">
        <ele>162</ele>
        <time>2010-03-19T12:51:04Z</time>
      </trkpt>
      <trkpt lat="48.62192" lon="2.07128">
        <ele>162</ele>
        <time>2010-03-19T12:51:05Z</time>
      </trkpt>
      <trkpt lat="48.6219" lon="2.07129">
        <ele>162</ele>
        <time>2010-03-19T12:51:06Z</time>
      </trkpt>
      <trkpt lat="48.62188" lon="2.0713">
        <ele>162</ele>
        <time>2010-03-19T12:51:07Z</time>
      </trkpt>
      <trkpt lat="48.62187" lon="2.0713">
        <ele>162</ele>
        <time>2010-03-19T12:51:08Z</time>
      </trkpt>
      <trkpt lat="48.62185" lon="2.07131">
        <ele>162</ele>
        <time>2010-03-19T12:51:09Z</time>
      </trkpt>
      <trkpt lat="48.62184" lon="2.07132">
        <ele>162</ele>
        <time>2010-03-19T12:51:10Z</time>
      </trkpt>
      <trkpt lat="48.62182" lon="2.07133">
        <ele>162</ele>
        <time>2010-03-19T12:51:11Z</time>
      </trkpt>
      <trkpt lat="48.6218" lon="2.07134">
        <ele>162</ele>
        <time>2010-03-19T12:51:12Z</time>
      </trkpt>
      <trkpt lat="48.62179" lon="2.07134">
        <ele>162</ele>
        <time>2010-03-19T12:51:13Z</time>
      </trkpt>
      <trkpt lat="48.62178" lon="2.07135">
        <ele>162</ele>
        <time>2010-03-19T12:51:14Z</time>
      </trkpt>
      <trkpt lat="48.62176" lon="2.07136">
        <ele>162</ele>
        <time>2010-03-19T12:51:15Z</time>
      </trkpt>
      <trkpt lat="48.62174" lon="2.07137">
        <ele>162</ele>
        <time>2010-03-19T12:51:16Z</time>
      </trkpt>
      <trkpt lat="48.62172" lon="2.07138">
        <ele>162</ele>
        <time>2010-03-19T12:51:17Z</time>
      </trkpt>
      <trkpt lat="48.6217" lon="2.07139">
        <ele>162</ele>
        <time>2010-03-19T12:51:18Z</time>
      </trkpt>
      <trkpt lat="48.62169" lon="2.0714">
        <ele>162</ele>
        <time>2010-03-19T12:51:19Z</time>
      </trkpt>
      <trkpt lat="48.62167" lon="2.07141">
        <ele>162</ele>
        <time>2010-03-19T12:51:20Z</time>
      </trkpt>
      <trkpt lat="48.62165" lon="2.07142">
        <ele>162</ele>
        <time>2010-03-19T12:51:21Z</time>
      </trkpt>
      <trkpt lat="48.62164" lon="2.07143">
        <ele>162</ele>
        <time>2010-03-19T12:51:22Z</time>
      </trkpt>
      <trkpt lat="48.62162" lon="2.07144">
        <ele>162</ele>
        <time>2010-03-19T12:51:23Z</time>
      </trkpt>
      <trkpt lat="48.6216" lon="2.07146">
        <ele>162</ele>
        <time>2010-03-19T12:51:24Z</time>
      </trkpt>
      <trkpt lat="48.62159" lon="2.07147">
        <ele>162</ele>
        <time>2010-03-19T12:51:25Z</time>
      </trkpt>
      <trkpt lat="48.62157" lon="2.07147">
        <ele>162</ele>
        <time>2010-03-19T12:51:26Z</time>
      </trkpt>
      <trkpt lat="48.62155" lon="2.07148">
        <ele>162</ele>
        <time>2010-03-19T12:51:27Z</time>
      </trkpt>
      <trkpt lat="48.62153" lon="2.07149">
        <ele>162</ele>
        <time>2010-03-19T12:51:28Z</time>
      </trkpt>
      <trkpt lat="48.62152" lon="2.0715">
        <ele>162</ele>
        <time>2010-03-19T12:51:29Z</time>
      </trkpt>
      <trkpt lat="48.62151" lon="2.07151">
        <ele>162</ele>
        <time>2010-03-19T12:51:30Z</time>
      </trkpt>
      <trkpt lat="48.62149" lon="2.07152">
        <ele>162</ele>
        <time>2010-03-19T12:51:31Z</time>
      </trkpt>
      <trkpt lat="48.62148" lon="2.07153">
        <ele>162</ele>
        <time>2010-03-19T12:51:32Z</time>
      </trkpt>
      <trkpt lat="48.62146" lon="2.07154">
        <ele>162</ele>
        <time>2010-03-19T12:51:33Z</time>
      </trkpt>
      <trkpt lat="48.62144" lon="2.07154">
        <ele>162</ele>
        <time>2010-03-19T12:51:34Z</time>
      </trkpt>
      <trkpt lat="48.62143" lon="2.07155">
        <ele>162</ele>
        <time>2010-03-19T12:51:35Z</time>
      </trkpt>
      <trkpt lat="48.62141" lon="2.07156">
        <ele>162</ele>
        <time>2010-03-19T12:51:36Z</time>
      </trkpt>
      <trkpt lat="48.6214" lon="2.07157">
        <ele>162</ele>
        <time>2010-03-19T12:51:37Z</time>
      </trkpt>
      <trkpt lat="48.62139" lon="2.07158">
        <ele>162</ele>
        <time>2010-03-19T12:51:38Z</time>
      </trkpt>
      <trkpt lat="48.62137" lon="2.07159">
        <ele>162</ele>
        <time>2010-03-19T12:51:39Z</time>
      </trkpt>
      <trkpt lat="48.62136" lon="2.0716">
        <ele>162</ele>
        <time>2010-03-19T12:51:40Z</time>
      </trkpt>
      <trkpt lat="48.62135" lon="2.07161">
        <ele>162</ele>
        <time>2010-03-19T12:51:41Z</time>
      </trkpt>
      <trkpt lat="48.62133" lon="2.07162">
        <ele>162</ele>
        <time>2010-03-19T12:51:42Z</time>
      </trkpt>
      <trkpt lat="48.62132" lon="2.07163">
        <ele>162</ele>
        <time>2010-03-19T12:51:43Z</time>
      </trkpt>
      <trkpt lat="48.6213" lon="2.07164">
        <ele>162</ele>
        <time>2010-03-19T12:51:44Z</time>
      </trkpt>
      <trkpt lat="48.62129" lon="2.07164">
        <ele>162</ele>
        <time>2010-03-19T12:51:45Z</time>
      </trkpt>
      <trkpt lat="48.62127" lon="2.07165">
        <ele>162</ele>
        <time>2010-03-19T12:51:46Z</time>
      </trkpt>
      <trkpt lat="48.62126" lon="2.07166">
        <ele>162</ele>
        <time>2010-03-19T12:51:47Z</time>
      </trkpt>
      <trkpt lat="48.62124" lon="2.07167">
        <ele>162</ele>
        <time>2010-03-19T12:51:48Z</time>
      </trkpt>
      <trkpt lat="48.62122" lon="2.07168">
        <ele>162</ele>
        <time>2010-03-19T12:51:49Z</time>
      </trkpt>
      <trkpt lat="48.6212" lon="2.07169">
        <ele>162</ele>
        <time>2010-03-19T12:51:50Z</time>
      </trkpt>
      <trkpt lat="48.62119" lon="2.07169">
        <ele>162</ele>
        <time>2010-03-19T12:51:51Z</time>
      </trkpt>
      <trkpt lat="48.62117" lon="2.0717">
        <ele>162</ele>
        <time>2010-03-19T12:51:52Z</time>
      </trkpt>
      <trkpt lat="48.62115" lon="2.07171">
        <ele>162</ele>
        <time>2010-03-19T12:51:53Z</time>
      </trkpt>
      <trkpt lat="48.62114" lon="2.07172">
        <ele>162</ele>
        <time>2010-03-19T12:51:54Z</time>
      </trkpt>
      <trkpt lat="48.62112" lon="2.07172">
        <ele>162</ele>
        <time>2010-03-19T12:51:55Z</time>
      </trkpt>
      <trkpt lat="48.62111" lon="2.07173">
        <ele>162</ele>
        <time>2010-03-19T12:51:56Z</time>
      </trkpt>
      <trkpt lat="48.62109" lon="2.07174">
        <ele>162</ele>
        <time>2010-03-19T12:51:57Z</time>
      </trkpt>
      <trkpt lat="48.62108" lon="2.07175">
        <ele>162</ele>
        <time>2010-03-19T12:51:58Z</time>
      </trkpt>
      <trkpt lat="48.62106" lon="2.07176">
        <ele>162</ele>
        <time>2010-03-19T12:51:59Z</time>
      </trkpt>
      <trkpt lat="48.62105" lon="2.07177">
        <ele>162</ele>
        <time>2010-03-19T12:52:00Z</time>
      </trkpt>
      <trkpt lat="48.62104" lon="2.07177">
        <ele>162</ele>
        <time>2010-03-19T12:52:01Z</time>
      </trkpt>
      <trkpt lat="48.62101" lon="2.07179">
        <ele>162</ele>
        <time>2010-03-19T12:52:02Z</time>
      </trkpt>
      <trkpt lat="48.62099" lon="2.0718">
        <ele>162</ele>
        <time>2010-03-19T12:52:03Z</time>
      </trkpt>
      <trkpt lat="48.62098" lon="2.07181">
        <ele>162</ele>
        <time>2010-03-19T12:52:04Z</time>
      </trkpt>
      <trkpt lat="48.62097" lon="2.07181">
        <ele>162</ele>
        <time>2010-03-19T12:52:05Z</time>
      </trkpt>
      <trkpt lat="48.62095" lon="2.07182">
        <ele>162</ele>
        <time>2010-03-19T12:52:06Z</time>
      </trkpt>
      <trkpt lat="48.62094" lon="2.07183">
        <ele>162</ele>
        <time>2010-03-19T12:52:07Z</time>
      </trkpt>
      <trkpt lat="48.62092" lon="2.07184">
        <ele>162</ele>
        <time>2010-03-19T12:52:08Z</time>
      </trkpt>
      <trkpt lat="48.6209" lon="2.07185">
        <ele>162</ele>
        <time>2010-03-19T12:52:09Z</time>
      </trkpt>
      <trkpt lat="48.62089" lon="2.07186">
        <ele>162</ele>
        <time>2010-03-19T12:52:10Z</time>
      </trkpt>
      <trkpt lat="48.62088" lon="2.07187">
        <ele>162</ele>
        <time>2010-03-19T12:52:11Z</time>
      </trkpt>
      <trkpt lat="48.62086" lon="2.07188">
        <ele>162</ele>
        <time>2010-03-19T12:52:12Z</time>
      </trkpt>
      <trkpt lat="48.62085" lon="2.07189">
        <ele>162</ele>
        <time>2010-03-19T12:52:13Z</time>
      </trkpt>
      <trkpt lat="48.62083" lon="2.0719">
        <ele>162</ele>
        <time>2010-03-19T12:52:14Z</time>
      </trkpt>
      <trkpt lat="48.62081" lon="2.07191">
        <ele>162</ele>
        <time>2010-03-19T12:52:15Z</time>
      </trkpt>
      <trkpt lat="48.6208" lon="2.07192">
        <ele>162</ele>
        <time>2010-03-19T12:52:16Z</time>
      </trkpt>
      <trkpt lat="48.62078" lon="2.07193">
        <ele>162</ele>
        <time>2010-03-19T12:52:17Z</time>
      </trkpt>
      <trkpt lat="48.62077" lon="2.07194">
        <ele>162</ele>
        <time>2010-03-19T12:52:18Z</time>
      </trkpt>
      <trkpt lat="48.62075" lon="2.07195">
        <ele>162</ele>
        <time>2010-03-19T12:52:19Z</time>
      </trkpt>
      <trkpt lat="48.62073" lon="2.07195">
        <ele>162</ele>
        <time>2010-03-19T12:52:20Z</time>
      </trkpt>
      <trkpt lat="48.62071" lon="2.07196">
        <ele>162</ele>
        <time>2010-03-19T12:52:21Z</time>
      </trkpt>
      <trkpt lat="48.6207" lon="2.07197">
        <ele>162</ele>
        <time>2010-03-19T12:52:22Z</time>
      </trkpt>
      <trkpt lat="48.62068" lon="2.07198">
        <ele>162</ele>
        <time>2010-03-19T12:52:23Z</time>
      </trkpt>
      <trkpt lat="48.62066" lon="2.07199">
        <ele>162</ele>
        <time>2010-03-19T12:52:24Z</time>
      </trkpt>
      <trkpt lat="48.62065" lon="2.072">
        <ele>162</ele>
        <time>2010-03-19T12:52:25Z</time>
      </trkpt>
      <trkpt lat="48.62064" lon="2.07201">
        <ele>162</ele>
        <time>2010-03-19T12:52:26Z</time>
      </trkpt>
      <trkpt lat="48.62062" lon="2.07203">
        <ele>162</ele>
        <time>2010-03-19T12:52:27Z</time>
      </trkpt>
      <trkpt lat="48.62061" lon="2.07204">
        <ele>162</ele>
        <time>2010-03-19T12:52:28Z</time>
      </trkpt>
      <trkpt lat="48.62059" lon="2.07205">
        <ele>162</ele>
        <time>2010-03-19T12:52:29Z</time>
      </trkpt>
      <trkpt lat="48.62057" lon="2.07206">
        <ele>162</ele>
        <time>2010-03-19T12:52:30Z</time>
      </trkpt>
      <trkpt lat="48.62056" lon="2.07206">
        <ele>162</ele>
        <time>2010-03-19T12:52:31Z</time>
      </trkpt>
      <trkpt lat="48.62054" lon="2.07207">
        <ele>162</ele>
        <time>2010-03-19T12:52:32Z</time>
      </trkpt>
      <trkpt lat="48.62053" lon="2.07208">
        <ele>162</ele>
        <time>2010-03-19T12:52:33Z</time>
      </trkpt>
      <trkpt lat="48.62051" lon="2.07209">
        <ele>162</ele>
        <time>2010-03-19T12:52:34Z</time>
      </trkpt>
      <trkpt lat="48.6205" lon="2.0721">
        <ele>162</ele>
        <time>2010-03-19T12:52:35Z</time>
      </trkpt>
      <trkpt lat="48.62049" lon="2.0721">
        <ele>162</ele>
        <time>2010-03-19T12:52:36Z</time>
      </trkpt>
      <trkpt lat="48.62047" lon="2.07211">
        <ele>162</ele>
        <time>2010-03-19T12:52:37Z</time>
      </trkpt>
      <trkpt lat="48.62046" lon="2.07212">
        <ele>162</ele>
        <time>2010-03-19T12:52:38Z</time>
      </trkpt>
      <trkpt lat="48.62045" lon="2.07213">
        <ele>162</ele>
        <time>2010-03-19T12:52:39Z</time>
      </trkpt>
      <trkpt lat="48.62044" lon="2.07214">
        <ele>162</ele>
        <time>2010-03-19T12:52:40Z</time>
      </trkpt>
      <trkpt lat="48.62042" lon="2.07215">
        <ele>161</ele>
        <time>2010-03-19T12:52:41Z</time>
      </trkpt>
      <trkpt lat="48.6204" lon="2.07216">
        <ele>161</ele>
        <time>2010-03-19T12:52:42Z</time>
      </trkpt>
      <trkpt lat="48.62039" lon="2.07217">
        <ele>161</ele>
        <time>2010-03-19T12:52:43Z</time>
      </trkpt>
      <trkpt lat="48.62037" lon="2.07217">
        <ele>161</ele>
        <time>2010-03-19T12:52:44Z</time>
      </trkpt>
      <trkpt lat="48.62036" lon="2.07218">
        <ele>161</ele>
        <time>2010-03-19T12:52:45Z</time>
      </trkpt>
      <trkpt lat="48.62035" lon="2.07219">
        <ele>160</ele>
        <time>2010-03-19T12:52:46Z</time>
      </trkpt>
      <trkpt lat="48.62033" lon="2.0722">
        <ele>160</ele>
        <time>2010-03-19T12:52:47Z</time>
      </trkpt>
      <trkpt lat="48.62032" lon="2.0722">
        <ele>160</ele>
        <time>2010-03-19T12:52:48Z</time>
      </trkpt>
      <trkpt lat="48.62031" lon="2.07221">
        <ele>160</ele>
        <time>2010-03-19T12:52:49Z</time>
      </trkpt>
      <trkpt lat="48.62029" lon="2.07222">
        <ele>159</ele>
        <time>2010-03-19T12:52:50Z</time>
      </trkpt>
      <trkpt lat="48.62028" lon="2.07223">
        <ele>159</ele>
        <time>2010-03-19T12:52:51Z</time>
      </trkpt>
      <trkpt lat="48.62026" lon="2.07224">
        <ele>159</ele>
        <time>2010-03-19T12:52:52Z</time>
      </trkpt>
      <trkpt lat="48.62025" lon="2.07225">
        <ele>159</ele>
        <time>2010-03-19T12:52:53Z</time>
      </trkpt>
      <trkpt lat="48.62023" lon="2.07225">
        <ele>159</ele>
        <time>2010-03-19T12:52:54Z</time>
      </trkpt>
      <trkpt lat="48.62022" lon="2.07226">
        <ele>159</ele>
        <time>2010-03-19T12:52:55Z</time>
      </trkpt>
      <trkpt lat="48.6202" lon="2.07227">
        <ele>159</ele>
        <time>2010-03-19T12:52:56Z</time>
      </trkpt>
      <trkpt lat="48.62019" lon="2.07228">
        <ele>159</ele>
        <time>2010-03-19T12:52:57Z</time>
      </trkpt>
      <trkpt lat="48.62017" lon="2.07229">
        <ele>158</ele>
        <time>2010-03-19T12:52:58Z</time>
      </trkpt>
      <trkpt lat="48.62016" lon="2.07229">
        <ele>158</ele>
        <time>2010-03-19T12:52:59Z</time>
      </trkpt>
      <trkpt lat="48.62014" lon="2.0723">
        <ele>158</ele>
        <time>2010-03-19T12:53:00Z</time>
      </trkpt>
      <trkpt lat="48.62012" lon="2.07231">
        <ele>158</ele>
        <time>2010-03-19T12:53:01Z</time>
      </trkpt>
      <trkpt lat="48.62011" lon="2.07232">
        <ele>158</ele>
        <time>2010-03-19T12:53:02Z</time>
      </trkpt>
      <trkpt lat="48.62009" lon="2.07233">
        <ele>158</ele>
        <time>2010-03-19T12:53:03Z</time>
      </trkpt>
      <trkpt lat="48.62008" lon="2.07234">
        <ele>157</ele>
        <time>2010-03-19T12:53:04Z</time>
      </trkpt>
      <trkpt lat="48.62006" lon="2.07235">
        <ele>157</ele>
        <time>2010-03-19T12:53:05Z</time>
      </trkpt>
      <trkpt lat="48.62004" lon="2.07236">
        <ele>157</ele>
        <time>2010-03-19T12:53:06Z</time>
      </trkpt>
      <trkpt lat="48.62003" lon="2.07237">
        <ele>157</ele>
        <time>2010-03-19T12:53:07Z</time>
      </trkpt>
      <trkpt lat="48.62001" lon="2.07238">
        <ele>157</ele>
        <time>2010-03-19T12:53:08Z</time>
      </trkpt>
      <trkpt lat="48.62" lon="2.07239">
        <ele>157</ele>
        <time>2010-03-19T12:53:09Z</time>
      </trkpt>
      <trkpt lat="48.61998" lon="2.0724">
        <ele>157</ele>
        <time>2010-03-19T12:53:10Z</time>
      </trkpt>
      <trkpt lat="48.61996" lon="2.0724">
        <ele>157</ele>
        <time>2010-03-19T12:53:11Z</time>
      </trkpt>
      <trkpt lat="48.61995" lon="2.07242">
        <ele>157</ele>
        <time>2010-03-19T12:53:12Z</time>
      </trkpt>
      <trkpt lat="48.61993" lon="2.07243">
        <ele>157</ele>
        <time>2010-03-19T12:53:13Z</time>
      </trkpt>
      <trkpt lat="48.61992" lon="2.07244">
        <ele>157</ele>
        <time>2010-03-19T12:53:14Z</time>
      </trkpt>
      <trkpt lat="48.6199" lon="2.07245">
        <ele>157</ele>
        <time>2010-03-19T12:53:15Z</time>
      </trkpt>
      <trkpt lat="48.61988" lon="2.07246">
        <ele>157</ele>
        <time>2010-03-19T12:53:16Z</time>
      </trkpt>
      <trkpt lat="48.61987" lon="2.07247">
        <ele>157</ele>
        <time>2010-03-19T12:53:17Z</time>
      </trkpt>
      <trkpt lat="48.61985" lon="2.07248">
        <ele>157</ele>
        <time>2010-03-19T12:53:18Z</time>
      </trkpt>
      <trkpt lat="48.61983" lon="2.07249">
        <ele>157</ele>
        <time>2010-03-19T12:53:19Z</time>
      </trkpt>
      <trkpt lat="48.61982" lon="2.0725">
        <ele>157</ele>
        <time>2010-03-19T12:53:20Z</time>
      </trkpt>
      <trkpt lat="48.6198" lon="2.07251">
        <ele>157</ele>
        <time>2010-03-19T12:53:21Z</time>
      </trkpt>
      <trkpt lat="48.61979" lon="2.07252">
        <ele>157</ele>
        <time>2010-03-19T12:53:22Z</time>
      </trkpt>
      <trkpt lat="48.61977" lon="2.07253">
        <ele>157</ele>
        <time>2010-03-19T12:53:23Z</time>
      </trkpt>
      <trkpt lat="48.61975" lon="2.07254">
        <ele>157</ele>
        <time>2010-03-19T12:53:24Z</time>
      </trkpt>
      <trkpt lat="48.61974" lon="2.07255">
        <ele>157</ele>
        <time>2010-03-19T12:53:25Z</time>
      </trkpt>
      <trkpt lat="48.61972" lon="2.07256">
        <ele>157</ele>
        <time>2010-03-19T12:53:26Z</time>
      </trkpt>
      <trkpt lat="48.61971" lon="2.07258">
        <ele>157</ele>
        <time>2010-03-19T12:53:27Z</time>
      </trkpt>
      <trkpt lat="48.61969" lon="2.07259">
        <ele>157</ele>
        <time>2010-03-19T12:53:28Z</time>
      </trkpt>
      <trkpt lat="48.61967" lon="2.0726">
        <ele>157</ele>
        <time>2010-03-19T12:53:29Z</time>
      </trkpt>
      <trkpt lat="48.61966" lon="2.07261">
        <ele>157</ele>
        <time>2010-03-19T12:53:30Z</time>
      </trkpt>
      <trkpt lat="48.61964" lon="2.07262">
        <ele>157</ele>
        <time>2010-03-19T12:53:31Z</time>
      </trkpt>
      <trkpt lat="48.61963" lon="2.07263">
        <ele>157</ele>
        <time>2010-03-19T12:53:32Z</time>
      </trkpt>
      <trkpt lat="48.61961" lon="2.07264">
        <ele>157</ele>
        <time>2010-03-19T12:53:33Z</time>
      </trkpt>
      <trkpt lat="48.61959" lon="2.07265">
        <ele>157</ele>
        <time>2010-03-19T12:53:34Z</time>
      </trkpt>
      <trkpt lat="48.61957" lon="2.07266">
        <ele>157</ele>
        <time>2010-03-19T12:53:35Z</time>
      </trkpt>
      <trkpt lat="48.61956" lon="2.07267">
        <ele>157</ele>
        <time>2010-03-19T12:53:36Z</time>
      </trkpt>
      <trkpt lat="48.61954" lon="2.07268">
        <ele>157</ele>
        <time>2010-03-19T12:53:37Z</time>
      </trkpt>
      <trkpt lat="48.61952" lon="2.07269">
        <ele>157</ele>
        <time>2010-03-19T12:53:38Z</time>
      </trkpt>
      <trkpt lat="48.61951" lon="2.0727">
        <ele>157</ele>
        <time>2010-03-19T12:53:39Z</time>
      </trkpt>
      <trkpt lat="48.61949" lon="2.07271">
        <ele>157</ele>
        <time>2010-03-19T12:53:40Z</time>
      </trkpt>
      <trkpt lat="48.61948" lon="2.07271">
        <ele>157</ele>
        <time>2010-03-19T12:53:41Z</time>
      </trkpt>
      <trkpt lat="48.61946" lon="2.07272">
        <ele>157</ele>
        <time>2010-03-19T12:53:42Z</time>
      </trkpt>
      <trkpt lat="48.61945" lon="2.07273">
        <ele>157</ele>
        <time>2010-03-19T12:53:43Z</time>
      </trkpt>
      <trkpt lat="48.61943" lon="2.07274">
        <ele>157</ele>
        <time>2010-03-19T12:53:44Z</time>
      </trkpt>
      <trkpt lat="48.61942" lon="2.07274">
        <ele>157</ele>
        <time>2010-03-19T12:53:45Z</time>
      </trkpt>
      <trkpt lat="48.6194" lon="2.07275">
        <ele>157</ele>
        <time>2010-03-19T12:53:46Z</time>
      </trkpt>
      <trkpt lat="48.61939" lon="2.07276">
        <ele>157</ele>
        <time>2010-03-19T12:53:47Z</time>
      </trkpt>
      <trkpt lat="48.61937" lon="2.07277">
        <ele>157</ele>
        <time>2010-03-19T12:53:48Z</time>
      </trkpt>
      <trkpt lat="48.61935" lon="2.07278">
        <ele>157</ele>
        <time>2010-03-19T12:53:49Z</time>
      </trkpt>
      <trkpt lat="48.61933" lon="2.07279">
        <ele>157</ele>
        <time>2010-03-19T12:53:50Z</time>
      </trkpt>
      <trkpt lat="48.61931" lon="2.07279">
        <ele>157</ele>
        <time>2010-03-19T12:53:51Z</time>
      </trkpt>
      <trkpt lat="48.61929" lon="2.0728">
        <ele>157</ele>
        <time>2010-03-19T12:53:52Z</time>
      </trkpt>
      <trkpt lat="48.61927" lon="2.07281">
        <ele>157</ele>
        <time>2010-03-19T12:53:53Z</time>
      </trkpt>
      <trkpt lat="48.61925" lon="2.07281">
        <ele>157</ele>
        <time>2010-03-19T12:53:54Z</time>
      </trkpt>
      <trkpt lat="48.61924" lon="2.07282">
        <ele>157</ele>
        <time>2010-03-19T12:53:55Z</time>
      </trkpt>
      <trkpt lat="48.61922" lon="2.07282">
        <ele>157</ele>
        <time>2010-03-19T12:53:56Z</time>
      </trkpt>
      <trkpt lat="48.61921" lon="2.07283">
        <ele>157</ele>
        <time>2010-03-19T12:53:57Z</time>
      </trkpt>
      <trkpt lat="48.61919" lon="2.07284">
        <ele>157</ele>
        <time>2010-03-19T12:53:58Z</time>
      </trkpt>
      <trkpt lat="48.61917" lon="2.07284">
        <ele>157</ele>
        <time>2010-03-19T12:53:59Z</time>
      </trkpt>
      <trkpt lat="48.61916" lon="2.07285">
        <ele>157</ele>
        <time>2010-03-19T12:54:00Z</time>
      </trkpt>
      <trkpt lat="48.61914" lon="2.07286">
        <ele>157</ele>
        <time>2010-03-19T12:54:01Z</time>
      </trkpt>
      <trkpt lat="48.61913" lon="2.07286">
        <ele>157</ele>
        <time>2010-03-19T12:54:02Z</time>
      </trkpt>
      <trkpt lat="48.61912" lon="2.07287">
        <ele>157</ele>
        <time>2010-03-19T12:54:03Z</time>
      </trkpt>
      <trkpt lat="48.6191" lon="2.07288">
        <ele>157</ele>
        <time>2010-03-19T12:54:04Z</time>
      </trkpt>
      <trkpt lat="48.61908" lon="2.07289">
        <ele>157</ele>
        <time>2010-03-19T12:54:05Z</time>
      </trkpt>
      <trkpt lat="48.61906" lon="2.07291">
        <ele>157</ele>
        <time>2010-03-19T12:54:06Z</time>
      </trkpt>
      <trkpt lat="48.61904" lon="2.07294">
        <ele>157</ele>
        <time>2010-03-19T12:54:07Z</time>
      </trkpt>
      <trkpt lat="48.61901" lon="2.07297">
        <ele>157</ele>
        <time>2010-03-19T12:54:08Z</time>
      </trkpt>
      <trkpt lat="48.619" lon="2.07299">
        <ele>157</ele>
        <time>2010-03-19T12:54:09Z</time>
      </trkpt>
      <trkpt lat="48.619" lon="2.07301">
        <ele>157</ele>
        <time>2010-03-19T12:54:10Z</time>
      </trkpt>
      <trkpt lat="48.61899" lon="2.07303">
        <ele>157</ele>
        <time>2010-03-19T12:54:11Z</time>
      </trkpt>
      <trkpt lat="48.61899" lon="2.07305">
        <ele>157</ele>
        <time>2010-03-19T12:54:12Z</time>
      </trkpt>
      <trkpt lat="48.61898" lon="2.07307">
        <ele>157</ele>
        <time>2010-03-19T12:54:13Z</time>
      </trkpt>
      <trkpt lat="48.61897" lon="2.0731">
        <ele>157</ele>
        <time>2010-03-19T12:54:15Z</time>
      </trkpt>
      <trkpt lat="48.61897" lon="2.07312">
        <ele>157</ele>
        <time>2010-03-19T12:54:16Z</time>
      </trkpt>
      <trkpt lat="48.61897" lon="2.07314">
        <ele>157</ele>
        <time>2010-03-19T12:54:17Z</time>
      </trkpt>
      <trkpt lat="48.61898" lon="2.07317">
        <ele>157</ele>
        <time>2010-03-19T12:54:18Z</time>
      </trkpt>
      <trkpt lat="48.61898" lon="2.0732">
        <ele>157</ele>
        <time>2010-03-19T12:54:19Z</time>
      </trkpt>
      <trkpt lat="48.61899" lon="2.07321">
        <ele>157</ele>
        <time>2010-03-19T12:54:20Z</time>
      </trkpt>
      <trkpt lat="48.619" lon="2.07324">
        <ele>157</ele>
        <time>2010-03-19T12:54:21Z</time>
      </trkpt>
      <trkpt lat="48.619" lon="2.07326">
        <ele>157</ele>
        <time>2010-03-19T12:54:22Z</time>
      </trkpt>
      <trkpt lat="48.619" lon="2.07328">
        <ele>157</ele>
        <time>2010-03-19T12:54:23Z</time>
      </trkpt>
      <trkpt lat="48.61901" lon="2.0733">
        <ele>157</ele>
        <time>2010-03-19T12:54:24Z</time>
      </trkpt>
      <trkpt lat="48.61901" lon="2.07331">
        <ele>157</ele>
        <time>2010-03-19T12:54:25Z</time>
      </trkpt>
      <trkpt lat="48.61902" lon="2.07334">
        <ele>157</ele>
        <time>2010-03-19T12:54:26Z</time>
      </trkpt>
      <trkpt lat="48.61903" lon="2.07336">
        <ele>157</ele>
        <time>2010-03-19T12:54:27Z</time>
      </trkpt>
      <trkpt lat="48.61903" lon="2.07339">
        <ele>157</ele>
        <time>2010-03-19T12:54:28Z</time>
      </trkpt>
      <trkpt lat="48.61904" lon="2.07341">
        <ele>157</ele>
        <time>2010-03-19T12:54:29Z</time>
      </trkpt>
      <trkpt lat="48.61905" lon="2.07344">
        <ele>157</ele>
        <time>2010-03-19T12:54:30Z</time>
      </trkpt>
      <trkpt lat="48.61905" lon="2.07346">
        <ele>157</ele>
        <time>2010-03-19T12:54:31Z</time>
      </trkpt>
      <trkpt lat="48.61905" lon="2.07348">
        <ele>157</ele>
        <time>2010-03-19T12:54:32Z</time>
      </trkpt>
      <trkpt lat="48.61906" lon="2.0735">
        <ele>157</ele>
        <time>2010-03-19T12:54:33Z</time>
      </trkpt>
      <trkpt lat="48.61906" lon="2.07352">
        <ele>157</ele>
        <time>2010-03-19T12:54:34Z</time>
      </trkpt>
      <trkpt lat="48.61907" lon="2.07354">
        <ele>157</ele>
        <time>2010-03-19T12:54:35Z</time>
      </trkpt>
      <trkpt lat="48.61907" lon="2.07356">
        <ele>157</ele>
        <time>2010-03-19T12:54:36Z</time>
      </trkpt>
      <trkpt lat="48.61908" lon="2.07358">
        <ele>157</ele>
        <time>2010-03-19T12:54:37Z</time>
      </trkpt>
      <trkpt lat="48.61909" lon="2.0736">
        <ele>157</ele>
        <time>2010-03-19T12:54:38Z</time>
      </trkpt>
      <trkpt lat="48.61909" lon="2.07362">
        <ele>157</ele>
        <time>2010-03-19T12:54:39Z</time>
      </trkpt>
      <trkpt lat="48.6191" lon="2.07364">
        <ele>157</ele>
        <time>2010-03-19T12:54:40Z</time>
      </trkpt>
      <trkpt lat="48.61911" lon="2.07366">
        <ele>157</ele>
        <time>2010-03-19T12:54:41Z</time>
      </trkpt>
      <trkpt lat="48.61912" lon="2.07368">
        <ele>157</ele>
        <time>2010-03-19T12:54:42Z</time>
      </trkpt>
      <trkpt lat="48.61912" lon="2.0737">
        <ele>157</ele>
        <time>2010-03-19T12:54:43Z</time>
      </trkpt>
      <trkpt lat="48.61912" lon="2.07372">
        <ele>157</ele>
        <time>2010-03-19T12:54:44Z</time>
      </trkpt>
      <trkpt lat="48.61913" lon="2.07374">
        <ele>157</ele>
        <time>2010-03-19T12:54:45Z</time>
      </trkpt>
      <trkpt lat="48.61913" lon="2.07377">
        <ele>157</ele>
        <time>2010-03-19T12:54:46Z</time>
      </trkpt>
      <trkpt lat="48.61913" lon="2.07379">
        <ele>157</ele>
        <time>2010-03-19T12:54:47Z</time>
      </trkpt>
      <trkpt lat="48.61913" lon="2.07381">
        <ele>157</ele>
        <time>2010-03-19T12:54:48Z</time>
      </trkpt>
      <trkpt lat="48.61913" lon="2.07384">
        <ele>157</ele>
        <time>2010-03-19T12:54:49Z</time>
      </trkpt>
      <trkpt lat="48.61913" lon="2.07386">
        <ele>157</ele>
        <time>2010-03-19T12:54:50Z</time>
      </trkpt>
      <trkpt lat="48.61913" lon="2.07388">
        <ele>157</ele>
        <time>2010-03-19T12:54:51Z</time>
      </trkpt>
      <trkpt lat="48.61914" lon="2.07391">
        <ele>157</ele>
        <time>2010-03-19T12:54:52Z</time>
      </trkpt>
      <trkpt lat="48.61914" lon="2.07393">
        <ele>157</ele>
        <time>2010-03-19T12:54:53Z</time>
      </trkpt>
      <trkpt lat="48.61915" lon="2.07395">
        <ele>157</ele>
        <time>2010-03-19T12:54:54Z</time>
      </trkpt>
      <trkpt lat="48.61915" lon="2.07398">
        <ele>157</ele>
        <time>2010-03-19T12:54:55Z</time>
      </trkpt>
      <trkpt lat="48.61915" lon="2.074">
        <ele>157</ele>
        <time>2010-03-19T12:54:56Z</time>
      </trkpt>
      <trkpt lat="48.61916" lon="2.07403">
        <ele>157</ele>
        <time>2010-03-19T12:54:57Z</time>
      </trkpt>
      <trkpt lat="48.61917" lon="2.07405">
        <ele>157</ele>
        <time>2010-03-19T12:54:58Z</time>
      </trkpt>
      <trkpt lat="48.61918" lon="2.07408">
        <ele>157</ele>
        <time>2010-03-19T12:54:59Z</time>
      </trkpt>
      <trkpt lat="48.61918" lon="2.0741">
        <ele>157</ele>
        <time>2010-03-19T12:55:00Z</time>
      </trkpt>
      <trkpt lat="48.61919" lon="2.07412">
        <ele>157</ele>
        <time>2010-03-19T12:55:01Z</time>
      </trkpt>
      <trkpt lat="48.61919" lon="2.07414">
        <ele>157</ele>
        <time>2010-03-19T12:55:02Z</time>
      </trkpt>
      <trkpt lat="48.61919" lon="2.07416">
        <ele>157</ele>
        <time>2010-03-19T12:55:03Z</time>
      </trkpt>
      <trkpt lat="48.61919" lon="2.07418">
        <ele>157</ele>
        <time>2010-03-19T12:55:04Z</time>
      </trkpt>
      <trkpt lat="48.6192" lon="2.0742">
        <ele>157</ele>
        <time>2010-03-19T12:55:05Z</time>
      </trkpt>
      <trkpt lat="48.61921" lon="2.07422">
        <ele>157</ele>
        <time>2010-03-19T12:55:06Z</time>
      </trkpt>
      <trkpt lat="48.61921" lon="2.07424">
        <ele>157</ele>
        <time>2010-03-19T12:55:07Z</time>
      </trkpt>
      <trkpt lat="48.61922" lon="2.07427">
        <ele>158</ele>
        <time>2010-03-19T12:55:08Z</time>
      </trkpt>
      <trkpt lat="48.61922" lon="2.07429">
        <ele>158</ele>
        <time>2010-03-19T12:55:09Z</time>
      </trkpt>
      <trkpt lat="48.61922" lon="2.0743">
        <ele>158</ele>
        <time>2010-03-19T12:55:10Z</time>
      </trkpt>
      <trkpt lat="48.61923" lon="2.07432">
        <ele>158</ele>
        <time>2010-03-19T12:55:11Z</time>
      </trkpt>
      <trkpt lat="48.61923" lon="2.07434">
        <ele>159</ele>
        <time>2010-03-19T12:55:12Z</time>
      </trkpt>
      <trkpt lat="48.61924" lon="2.07436">
        <ele>159</ele>
        <time>2010-03-19T12:55:13Z</time>
      </trkpt>
      <trkpt lat="48.61924" lon="2.07439">
        <ele>159</ele>
        <time>2010-03-19T12:55:14Z</time>
      </trkpt>
      <trkpt lat="48.61925" lon="2.07441">
        <ele>160</ele>
        <time>2010-03-19T12:55:15Z</time>
      </trkpt>
      <trkpt lat="48.61925" lon="2.07443">
        <ele>160</ele>
        <time>2010-03-19T12:55:16Z</time>
      </trkpt>
      <trkpt lat="48.61925" lon="2.07445">
        <ele>160</ele>
        <time>2010-03-19T12:55:17Z</time>
      </trkpt>
      <trkpt lat="48.61925" lon="2.07448">
        <ele>160</ele>
        <time>2010-03-19T12:55:18Z</time>
      </trkpt>
      <trkpt lat="48.61925" lon="2.0745">
        <ele>161</ele>
        <time>2010-03-19T12:55:19Z</time>
      </trkpt>
      <trkpt lat="48.61926" lon="2.07453">
        <ele>161</ele>
        <time>2010-03-19T12:55:20Z</time>
      </trkpt>
      <trkpt lat="48.61926" lon="2.07455">
        <ele>161</ele>
        <time>2010-03-19T12:55:21Z</time>
      </trkpt>
      <trkpt lat="48.61926" lon="2.07458">
        <ele>161</ele>
        <time>2010-03-19T12:55:22Z</time>
      </trkpt>
      <trkpt lat="48.61926" lon="2.0746">
        <ele>162</ele>
        <time>2010-03-19T12:55:23Z</time>
      </trkpt>
      <trkpt lat="48.61926" lon="2.07463">
        <ele>162</ele>
        <time>2010-03-19T12:55:24Z</time>
      </trkpt>
      <trkpt lat="48.61926" lon="2.07466">
        <ele>162</ele>
        <time>2010-03-19T12:55:25Z</time>
      </trkpt>
      <trkpt lat="48.61926" lon="2.07468">
        <ele>162</ele>
        <time>2010-03-19T12:55:26Z</time>
      </trkpt>
      <trkpt lat="48.61926" lon="2.0747">
        <ele>162</ele>
        <time>2010-03-19T12:55:27Z</time>
      </trkpt>
      <trkpt lat="48.61927" lon="2.07473">
        <ele>162</ele>
        <time>2010-03-19T12:55:28Z</time>
      </trkpt>
      <trkpt lat="48.61927" lon="2.07475">
        <ele>162</ele>
        <time>2010-03-19T12:55:29Z</time>
      </trkpt>
      <trkpt lat="48.61927" lon="2.07477">
        <ele>162</ele>
        <time>2010-03-19T12:55:30Z</time>
      </trkpt>
      <trkpt lat="48.61927" lon="2.07479">
        <ele>162</ele>
        <time>2010-03-19T12:55:31Z</time>
      </trkpt>
      <trkpt lat="48.61927" lon="2.07481">
        <ele>162</ele>
        <time>2010-03-19T12:55:32Z</time>
      </trkpt>
      <trkpt lat="48.61927" lon="2.07483">
        <ele>162</ele>
        <time>2010-03-19T12:55:33Z</time>
      </trkpt>
      <trkpt lat="48.61928" lon="2.07485">
        <ele>162</ele>
        <time>2010-03-19T12:55:34Z</time>
      </trkpt>
      <trkpt lat="48.61929" lon="2.07487">
        <ele>162</ele>
        <time>2010-03-19T12:55:35Z</time>
      </trkpt>
      <trkpt lat="48.61929" lon="2.07489">
        <ele>162</ele>
        <time>2010-03-19T12:55:36Z</time>
      </trkpt>
      <trkpt lat="48.61929" lon="2.07492">
        <ele>162</ele>
        <time>2010-03-19T12:55:37Z</time>
      </trkpt>
      <trkpt lat="48.61929" lon="2.07494">
        <ele>162</ele>
        <time>2010-03-19T12:55:38Z</time>
      </trkpt>
      <trkpt lat="48.61929" lon="2.07496">
        <ele>162</ele>
        <time>2010-03-19T12:55:39Z</time>
      </trkpt>
      <trkpt lat="48.61929" lon="2.07498">
        <ele>162</ele>
        <time>2010-03-19T12:55:40Z</time>
      </trkpt>
      <trkpt lat="48.6193" lon="2.075">
        <ele>162</ele>
        <time>2010-03-19T12:55:41Z</time>
      </trkpt>
      <trkpt lat="48.6193" lon="2.07502">
        <ele>162</ele>
        <time>2010-03-19T12:55:42Z</time>
      </trkpt>
      <trkpt lat="48.6193" lon="2.07504">
        <ele>162</ele>
        <time>2010-03-19T12:55:43Z</time>
      </trkpt>
      <trkpt lat="48.61931" lon="2.07507">
        <ele>162</ele>
        <time>2010-03-19T12:55:45Z</time>
      </trkpt>
      <trkpt lat="48.61932" lon="2.07509">
        <ele>162</ele>
        <time>2010-03-19T12:55:47Z</time>
      </trkpt>
      <trkpt lat="48.61932" lon="2.07511">
        <ele>162</ele>
        <time>2010-03-19T12:55:48Z</time>
      </trkpt>
      <trkpt lat="48.61932" lon="2.07513">
        <ele>162</ele>
        <time>2010-03-19T12:55:49Z</time>
      </trkpt>
      <trkpt lat="48.61933" lon="2.07515">
        <ele>162</ele>
        <time>2010-03-19T12:55:50Z</time>
      </trkpt>
      <trkpt lat="48.61933" lon="2.07517">
        <ele>162</ele>
        <time>2010-03-19T12:55:51Z</time>
      </trkpt>
      <trkpt lat="48.61934" lon="2.07519">
        <ele>162</ele>
        <time>2010-03-19T12:55:52Z</time>
      </trkpt>
      <trkpt lat="48.61933" lon="2.0752">
        <ele>162</ele>
        <time>2010-03-19T12:55:53Z</time>
      </trkpt>
      <trkpt lat="48.61932" lon="2.07522">
        <ele>162</ele>
        <time>2010-03-19T12:55:54Z</time>
      </trkpt>
      <trkpt lat="48.61932" lon="2.07524">
        <ele>162</ele>
        <time>2010-03-19T12:55:55Z</time>
      </trkpt>
      <trkpt lat="48.61931" lon="2.07526">
        <ele>162</ele>
        <time>2010-03-19T12:55:56Z</time>
      </trkpt>
      <trkpt lat="48.6193" lon="2.07528">
        <ele>162</ele>
        <time>2010-03-19T12:55:57Z</time>
      </trkpt>
      <trkpt lat="48.61929" lon="2.0753">
        <ele>162</ele>
        <time>2010-03-19T12:55:58Z</time>
      </trkpt>
      <trkpt lat="48.61928" lon="2.07531">
        <ele>162</ele>
        <time>2010-03-19T12:55:59Z</time>
      </trkpt>
      <trkpt lat="48.61927" lon="2.07533">
        <ele>162</ele>
        <time>2010-03-19T12:56:00Z</time>
      </trkpt>
      <trkpt lat="48.61927" lon="2.07535">
        <ele>162</ele>
        <time>2010-03-19T12:56:01Z</time>
      </trkpt>
      <trkpt lat="48.61926" lon="2.07537">
        <ele>162</ele>
        <time>2010-03-19T12:56:02Z</time>
      </trkpt>
      <trkpt lat="48.61926" lon="2.0754">
        <ele>162</ele>
        <time>2010-03-19T12:56:03Z</time>
      </trkpt>
      <trkpt lat="48.61925" lon="2.07542">
        <ele>162</ele>
        <time>2010-03-19T12:56:04Z</time>
      </trkpt>
      <trkpt lat="48.61925" lon="2.07544">
        <ele>162</ele>
        <time>2010-03-19T12:56:05Z</time>
      </trkpt>
      <trkpt lat="48.61925" lon="2.07546">
        <ele>162</ele>
        <time>2010-03-19T12:56:06Z</time>
      </trkpt>
      <trkpt lat="48.61924" lon="2.07549">
        <ele>162</ele>
        <time>2010-03-19T12:56:07Z</time>
      </trkpt>
      <trkpt lat="48.61924" lon="2.07551">
        <ele>162</ele>
        <time>2010-03-19T12:56:08Z</time>
      </trkpt>
      <trkpt lat="48.61923" lon="2.07554">
        <ele>162</ele>
        <time>2010-03-19T12:56:09Z</time>
      </trkpt>
      <trkpt lat="48.61922" lon="2.07556">
        <ele>162</ele>
        <time>2010-03-19T12:56:10Z</time>
      </trkpt>
      <trkpt lat="48.61921" lon="2.07558">
        <ele>162</ele>
        <time>2010-03-19T12:56:11Z</time>
      </trkpt>
      <trkpt lat="48.61921" lon="2.0756">
        <ele>162</ele>
        <time>2010-03-19T12:56:12Z</time>
      </trkpt>
      <trkpt lat="48.6192" lon="2.07563">
        <ele>162</ele>
        <time>2010-03-19T12:56:13Z</time>
      </trkpt>
      <trkpt lat="48.6192" lon="2.07565">
        <ele>162</ele>
        <time>2010-03-19T12:56:14Z</time>
      </trkpt>
      <trkpt lat="48.61918" lon="2.07567">
        <ele>162</ele>
        <time>2010-03-19T12:56:15Z</time>
      </trkpt>
      <trkpt lat="48.61917" lon="2.07569">
        <ele>162</ele>
        <time>2010-03-19T12:56:16Z</time>
      </trkpt>
      <trkpt lat="48.61916" lon="2.07571">
        <ele>162</ele>
        <time>2010-03-19T12:56:17Z</time>
      </trkpt>
      <trkpt lat="48.61915" lon="2.07574">
        <ele>162</ele>
        <time>2010-03-19T12:56:18Z</time>
      </trkpt>
      <trkpt lat="48.61914" lon="2.07576">
        <ele>162</ele>
        <time>2010-03-19T12:56:19Z</time>
      </trkpt>
      <trkpt lat="48.61913" lon="2.07579">
        <ele>162</ele>
        <time>2010-03-19T12:56:20Z</time>
      </trkpt>
      <trkpt lat="48.61912" lon="2.07581">
        <ele>162</ele>
        <time>2010-03-19T12:56:21Z</time>
      </trkpt>
      <trkpt lat="48.6191" lon="2.07584">
        <ele>163</ele>
        <time>2010-03-19T12:56:22Z</time>
      </trkpt>
      <trkpt lat="48.61909" lon="2.07587">
        <ele>164</ele>
        <time>2010-03-19T12:56:23Z</time>
      </trkpt>
      <trkpt lat="48.61908" lon="2.07589">
        <ele>165</ele>
        <time>2010-03-19T12:56:24Z</time>
      </trkpt>
      <trkpt lat="48.61907" lon="2.07592">
        <ele>165</ele>
        <time>2010-03-19T12:56:25Z</time>
      </trkpt>
      <trkpt lat="48.61906" lon="2.07593">
        <ele>166</ele>
        <time>2010-03-19T12:56:26Z</time>
      </trkpt>
      <trkpt lat="48.61905" lon="2.07595">
        <ele>166</ele>
        <time>2010-03-19T12:56:27Z</time>
      </trkpt>
      <trkpt lat="48.61904" lon="2.07597">
        <ele>166</ele>
        <time>2010-03-19T12:56:28Z</time>
      </trkpt>
      <trkpt lat="48.61904" lon="2.076">
        <ele>166</ele>
        <time>2010-03-19T12:56:29Z</time>
      </trkpt>
      <trkpt lat="48.61904" lon="2.07601">
        <ele>166</ele>
        <time>2010-03-19T12:56:30Z</time>
      </trkpt>
      <trkpt lat="48.61903" lon="2.07604">
        <ele>166</ele>
        <time>2010-03-19T12:56:31Z</time>
      </trkpt>
      <trkpt lat="48.61902" lon="2.07606">
        <ele>166</ele>
        <time>2010-03-19T12:56:32Z</time>
      </trkpt>
      <trkpt lat="48.61901" lon="2.07609">
        <ele>166</ele>
        <time>2010-03-19T12:56:33Z</time>
      </trkpt>
      <trkpt lat="48.619" lon="2.07611">
        <ele>166</ele>
        <time>2010-03-19T12:56:34Z</time>
      </trkpt>
      <trkpt lat="48.619" lon="2.07612">
        <ele>166</ele>
        <time>2010-03-19T12:56:35Z</time>
      </trkpt>
      <trkpt lat="48.619" lon="2.07614">
        <ele>166</ele>
        <time>2010-03-19T12:56:36Z</time>
      </trkpt>
      <trkpt lat="48.61899" lon="2.07617">
        <ele>167</ele>
        <time>2010-03-19T12:56:38Z</time>
      </trkpt>
      <trkpt lat="48.61898" lon="2.07619">
        <ele>167</ele>
        <time>2010-03-19T12:56:40Z</time>
      </trkpt>
      <trkpt lat="48.61898" lon="2.07622">
        <ele>167</ele>
        <time>2010-03-19T12:56:42Z</time>
      </trkpt>
      <trkpt lat="48.61896" lon="2.07625">
        <ele>167</ele>
        <time>2010-03-19T12:56:44Z</time>
      </trkpt>
      <trkpt lat="48.61895" lon="2.07627">
        <ele>167</ele>
        <time>2010-03-19T12:56:45Z</time>
      </trkpt>
      <trkpt lat="48.61894" lon="2.07629">
        <ele>167</ele>
        <time>2010-03-19T12:56:46Z</time>
      </trkpt>
      <trkpt lat="48.61893" lon="2.07631">
        <ele>167</ele>
        <time>2010-03-19T12:56:47Z</time>
      </trkpt>
      <trkpt lat="48.61892" lon="2.07633">
        <ele>167</ele>
        <time>2010-03-19T12:56:48Z</time>
      </trkpt>
      <trkpt lat="48.61892" lon="2.07636">
        <ele>167</ele>
        <time>2010-03-19T12:56:49Z</time>
      </trkpt>
      <trkpt lat="48.61891" lon="2.07638">
        <ele>167</ele>
        <time>2010-03-19T12:56:50Z</time>
      </trkpt>
      <trkpt lat="48.6189" lon="2.0764">
        <ele>167</ele>
        <time>2010-03-19T12:56:51Z</time>
      </trkpt>
      <trkpt lat="48.61889" lon="2.07642">
        <ele>167</ele>
        <time>2010-03-19T12:56:52Z</time>
      </trkpt>
      <trkpt lat="48.61888" lon="2.07645">
        <ele>167</ele>
        <time>2010-03-19T12:56:53Z</time>
      </trkpt>
      <trkpt lat="48.61886" lon="2.07648">
        <ele>167</ele>
        <time>2010-03-19T12:56:55Z</time>
      </trkpt>
      <trkpt lat="48.61885" lon="2.0765">
        <ele>167</ele>
        <time>2010-03-19T12:56:56Z</time>
      </trkpt>
      <trkpt lat="48.61885" lon="2.07652">
        <ele>167</ele>
        <time>2010-03-19T12:56:57Z</time>
      </trkpt>
      <trkpt lat="48.61884" lon="2.07654">
        <ele>167</ele>
        <time>2010-03-19T12:56:58Z</time>
      </trkpt>
      <trkpt lat="48.61884" lon="2.07656">
        <ele>167</ele>
        <time>2010-03-19T12:56:59Z</time>
      </trkpt>
      <trkpt lat="48.61883" lon="2.07659">
        <ele>167</ele>
        <time>2010-03-19T12:57:00Z</time>
      </trkpt>
      <trkpt lat="48.61883" lon="2.07661">
        <ele>166</ele>
        <time>2010-03-19T12:57:01Z</time>
      </trkpt>
      <trkpt lat="48.61882" lon="2.07663">
        <ele>166</ele>
        <time>2010-03-19T12:57:02Z</time>
      </trkpt>
      <trkpt lat="48.61881" lon="2.07665">
        <ele>166</ele>
        <time>2010-03-19T12:57:03Z</time>
      </trkpt>
      <trkpt lat="48.61881" lon="2.07667">
        <ele>166</ele>
        <time>2010-03-19T12:57:04Z</time>
      </trkpt>
      <trkpt lat="48.61881" lon="2.07669">
        <ele>166</ele>
        <time>2010-03-19T12:57:05Z</time>
      </trkpt>
      <trkpt lat="48.6188" lon="2.07671">
        <ele>165</ele>
        <time>2010-03-19T12:57:06Z</time>
      </trkpt>
      <trkpt lat="48.6188" lon="2.07673">
        <ele>165</ele>
        <time>2010-03-19T12:57:07Z</time>
      </trkpt>
      <trkpt lat="48.61879" lon="2.07675">
        <ele>165</ele>
        <time>2010-03-19T12:57:08Z</time>
      </trkpt>
      <trkpt lat="48.61879" lon="2.07677">
        <ele>165</ele>
        <time>2010-03-19T12:57:09Z</time>
      </trkpt>
      <trkpt lat="48.61879" lon="2.07679">
        <ele>164</ele>
        <time>2010-03-19T12:57:10Z</time>
      </trkpt>
      <trkpt lat="48.61877" lon="2.07681">
        <ele>164</ele>
        <time>2010-03-19T12:57:11Z</time>
      </trkpt>
      <trkpt lat="48.61876" lon="2.07683">
        <ele>164</ele>
        <time>2010-03-19T12:57:12Z</time>
      </trkpt>
      <trkpt lat="48.61876" lon="2.07686">
        <ele>164</ele>
        <time>2010-03-19T12:57:13Z</time>
      </trkpt>
      <trkpt lat="48.61876" lon="2.07688">
        <ele>164</ele>
        <time>2010-03-19T12:57:14Z</time>
      </trkpt>
      <trkpt lat="48.61876" lon="2.0769">
        <ele>164</ele>
        <time>2010-03-19T12:57:15Z</time>
      </trkpt>
      <trkpt lat="48.61875" lon="2.07692">
        <ele>164</ele>
        <time>2010-03-19T12:57:16Z</time>
      </trkpt>
      <trkpt lat="48.61874" lon="2.07694">
        <ele>164</ele>
        <time>2010-03-19T12:57:17Z</time>
      </trkpt>
      <trkpt lat="48.61874" lon="2.07696">
        <ele>164</ele>
        <time>2010-03-19T12:57:18Z</time>
      </trkpt>
      <trkpt lat="48.61873" lon="2.07698">
        <ele>164</ele>
        <time>2010-03-19T12:57:19Z</time>
      </trkpt>
      <trkpt lat="48.61873" lon="2.077">
        <ele>164</ele>
        <time>2010-03-19T12:57:20Z</time>
      </trkpt>
      <trkpt lat="48.61872" lon="2.07702">
        <ele>164</ele>
        <time>2010-03-19T12:57:21Z</time>
      </trkpt>
      <trkpt lat="48.61871" lon="2.07704">
        <ele>164</ele>
        <time>2010-03-19T12:57:22Z</time>
      </trkpt>
      <trkpt lat="48.61871" lon="2.07707">
        <ele>164</ele>
        <time>2010-03-19T12:57:23Z</time>
      </trkpt>
      <trkpt lat="48.61869" lon="2.07709">
        <ele>164</ele>
        <time>2010-03-19T12:57:24Z</time>
      </trkpt>
      <trkpt lat="48.61869" lon="2.07711">
        <ele>164</ele>
        <time>2010-03-19T12:57:25Z</time>
      </trkpt>
      <trkpt lat="48.61868" lon="2.07713">
        <ele>164</ele>
        <time>2010-03-19T12:57:26Z</time>
      </trkpt>
      <trkpt lat="48.61867" lon="2.07715">
        <ele>164</ele>
        <time>2010-03-19T12:57:27Z</time>
      </trkpt>
      <trkpt lat="48.61866" lon="2.07717">
        <ele>164</ele>
        <time>2010-03-19T12:57:28Z</time>
      </trkpt>
      <trkpt lat="48.61866" lon="2.07719">
        <ele>164</ele>
        <time>2010-03-19T12:57:29Z</time>
      </trkpt>
      <trkpt lat="48.61865" lon="2.0772">
        <ele>164</ele>
        <time>2010-03-19T12:57:30Z</time>
      </trkpt>
      <trkpt lat="48.61864" lon="2.07722">
        <ele>164</ele>
        <time>2010-03-19T12:57:31Z</time>
      </trkpt>
      <trkpt lat="48.61864" lon="2.07726">
        <ele>164</ele>
        <time>2010-03-19T12:57:33Z</time>
      </trkpt>
      <trkpt lat="48.61863" lon="2.07728">
        <ele>164</ele>
        <time>2010-03-19T12:57:34Z</time>
      </trkpt>
      <trkpt lat="48.61861" lon="2.07731">
        <ele>164</ele>
        <time>2010-03-19T12:57:35Z</time>
      </trkpt>
      <trkpt lat="48.61861" lon="2.07733">
        <ele>164</ele>
        <time>2010-03-19T12:57:36Z</time>
      </trkpt>
      <trkpt lat="48.6186" lon="2.07735">
        <ele>164</ele>
        <time>2010-03-19T12:57:37Z</time>
      </trkpt>
      <trkpt lat="48.61859" lon="2.07737">
        <ele>164</ele>
        <time>2010-03-19T12:57:38Z</time>
      </trkpt>
      <trkpt lat="48.61859" lon="2.0774">
        <ele>164</ele>
        <time>2010-03-19T12:57:39Z</time>
      </trkpt>
      <trkpt lat="48.61858" lon="2.07742">
        <ele>164</ele>
        <time>2010-03-19T12:57:40Z</time>
      </trkpt>
      <trkpt lat="48.61858" lon="2.07744">
        <ele>164</ele>
        <time>2010-03-19T12:57:41Z</time>
      </trkpt>
      <trkpt lat="48.61857" lon="2.07746">
        <ele>164</ele>
        <time>2010-03-19T12:57:42Z</time>
      </trkpt>
      <trkpt lat="48.61856" lon="2.07748">
        <ele>164</ele>
        <time>2010-03-19T12:57:43Z</time>
      </trkpt>
      <trkpt lat="48.61855" lon="2.0775">
        <ele>164</ele>
        <time>2010-03-19T12:57:44Z</time>
      </trkpt>
      <trkpt lat="48.61855" lon="2.07752">
        <ele>164</ele>
        <time>2010-03-19T12:57:45Z</time>
      </trkpt>
      <trkpt lat="48.61854" lon="2.07754">
        <ele>164</ele>
        <time>2010-03-19T12:57:46Z</time>
      </trkpt>
      <trkpt lat="48.61853" lon="2.07756">
        <ele>164</ele>
        <time>2010-03-19T12:57:47Z</time>
      </trkpt>
      <trkpt lat="48.61852" lon="2.07759">
        <ele>164</ele>
        <time>2010-03-19T12:57:48Z</time>
      </trkpt>
      <trkpt lat="48.61852" lon="2.07762">
        <ele>164</ele>
        <time>2010-03-19T12:57:49Z</time>
      </trkpt>
      <trkpt lat="48.61851" lon="2.07764">
        <ele>164</ele>
        <time>2010-03-19T12:57:50Z</time>
      </trkpt>
      <trkpt lat="48.6185" lon="2.07766">
        <ele>164</ele>
        <time>2010-03-19T12:57:51Z</time>
      </trkpt>
      <trkpt lat="48.6185" lon="2.07768">
        <ele>164</ele>
        <time>2010-03-19T12:57:52Z</time>
      </trkpt>
      <trkpt lat="48.61849" lon="2.0777">
        <ele>164</ele>
        <time>2010-03-19T12:57:53Z</time>
      </trkpt>
      <trkpt lat="48.61848" lon="2.07772">
        <ele>164</ele>
        <time>2010-03-19T12:57:54Z</time>
      </trkpt>
      <trkpt lat="48.61848" lon="2.07774">
        <ele>164</ele>
        <time>2010-03-19T12:57:55Z</time>
      </trkpt>
      <trkpt lat="48.61847" lon="2.07776">
        <ele>164</ele>
        <time>2010-03-19T12:57:56Z</time>
      </trkpt>
      <trkpt lat="48.61846" lon="2.07778">
        <ele>164</ele>
        <time>2010-03-19T12:57:57Z</time>
      </trkpt>
      <trkpt lat="48.61845" lon="2.0778">
        <ele>164</ele>
        <time>2010-03-19T12:57:58Z</time>
      </trkpt>
      <trkpt lat="48.61844" lon="2.07783">
        <ele>164</ele>
        <time>2010-03-19T12:57:59Z</time>
      </trkpt>
      <trkpt lat="48.61843" lon="2.07785">
        <ele>164</ele>
        <time>2010-03-19T12:58:00Z</time>
      </trkpt>
      <trkpt lat="48.61842" lon="2.07786">
        <ele>164</ele>
        <time>2010-03-19T12:58:01Z</time>
      </trkpt>
      <trkpt lat="48.61841" lon="2.07788">
        <ele>164</ele>
        <time>2010-03-19T12:58:02Z</time>
      </trkpt>
      <trkpt lat="48.6184" lon="2.0779">
        <ele>164</ele>
        <time>2010-03-19T12:58:03Z</time>
      </trkpt>
      <trkpt lat="48.61839" lon="2.07791">
        <ele>164</ele>
        <time>2010-03-19T12:58:04Z</time>
      </trkpt>
      <trkpt lat="48.61838" lon="2.07793">
        <ele>164</ele>
        <time>2010-03-19T12:58:05Z</time>
      </trkpt>
      <trkpt lat="48.61836" lon="2.07795">
        <ele>164</ele>
        <time>2010-03-19T12:58:06Z</time>
      </trkpt>
      <trkpt lat="48.61835" lon="2.07798">
        <ele>164</ele>
        <time>2010-03-19T12:58:07Z</time>
      </trkpt>
      <trkpt lat="48.61833" lon="2.078">
        <ele>164</ele>
        <time>2010-03-19T12:58:08Z</time>
      </trkpt>
      <trkpt lat="48.61832" lon="2.07803">
        <ele>164</ele>
        <time>2010-03-19T12:58:09Z</time>
      </trkpt>
      <trkpt lat="48.61831" lon="2.07804">
        <ele>164</ele>
        <time>2010-03-19T12:58:10Z</time>
      </trkpt>
      <trkpt lat="48.61828" lon="2.07806">
        <ele>164</ele>
        <time>2010-03-19T12:58:11Z</time>
      </trkpt>
      <trkpt lat="48.61827" lon="2.07808">
        <ele>164</ele>
        <time>2010-03-19T12:58:12Z</time>
      </trkpt>
      <trkpt lat="48.61826" lon="2.0781">
        <ele>164</ele>
        <time>2010-03-19T12:58:13Z</time>
      </trkpt>
      <trkpt lat="48.61825" lon="2.07812">
        <ele>165</ele>
        <time>2010-03-19T12:58:14Z</time>
      </trkpt>
      <trkpt lat="48.61823" lon="2.07815">
        <ele>166</ele>
        <time>2010-03-19T12:58:15Z</time>
      </trkpt>
      <trkpt lat="48.61822" lon="2.07817">
        <ele>167</ele>
        <time>2010-03-19T12:58:16Z</time>
      </trkpt>
      <trkpt lat="48.6182" lon="2.0782">
        <ele>168</ele>
        <time>2010-03-19T12:58:17Z</time>
      </trkpt>
      <trkpt lat="48.6182" lon="2.07821">
        <ele>169</ele>
        <time>2010-03-19T12:58:19Z</time>
      </trkpt>
      <trkpt lat="48.61819" lon="2.07823">
        <ele>169</ele>
        <time>2010-03-19T12:58:21Z</time>
      </trkpt>
      <trkpt lat="48.61819" lon="2.07825">
        <ele>169</ele>
        <time>2010-03-19T12:58:22Z</time>
      </trkpt>
      <trkpt lat="48.61819" lon="2.07827">
        <ele>169</ele>
        <time>2010-03-19T12:58:24Z</time>
      </trkpt>
      <trkpt lat="48.61817" lon="2.07831">
        <ele>169</ele>
        <time>2010-03-19T12:58:26Z</time>
      </trkpt>
      <trkpt lat="48.61816" lon="2.07833">
        <ele>169</ele>
        <time>2010-03-19T12:58:28Z</time>
      </trkpt>
      <trkpt lat="48.61815" lon="2.07835">
        <ele>169</ele>
        <time>2010-03-19T12:58:30Z</time>
      </trkpt>
      <trkpt lat="48.61814" lon="2.07837">
        <ele>168</ele>
        <time>2010-03-19T12:58:32Z</time>
      </trkpt>
      <trkpt lat="48.61812" lon="2.0784">
        <ele>167</ele>
        <time>2010-03-19T12:58:34Z</time>
      </trkpt>
      <trkpt lat="48.61811" lon="2.07842">
        <ele>167</ele>
        <time>2010-03-19T12:58:36Z</time>
      </trkpt>
      <trkpt lat="48.61809" lon="2.07845">
        <ele>166</ele>
        <time>2010-03-19T12:58:38Z</time>
      </trkpt>
      <trkpt lat="48.61808" lon="2.07848">
        <ele>166</ele>
        <time>2010-03-19T12:58:40Z</time>
      </trkpt>
      <trkpt lat="48.61806" lon="2.07851">
        <ele>165</ele>
        <time>2010-03-19T12:58:42Z</time>
      </trkpt>
      <trkpt lat="48.61806" lon="2.07852">
        <ele>165</ele>
        <time>2010-03-19T12:58:43Z</time>
      </trkpt>
      <trkpt lat="48.61804" lon="2.07855">
        <ele>164</ele>
        <time>2010-03-19T12:58:45Z</time>
      </trkpt>
      <trkpt lat="48.61803" lon="2.07857">
        <ele>164</ele>
        <time>2010-03-19T12:58:46Z</time>
      </trkpt>
      <trkpt lat="48.61801" lon="2.07861">
        <ele>164</ele>
        <time>2010-03-19T12:58:48Z</time>
      </trkpt>
      <trkpt lat="48.618" lon="2.07864">
        <ele>164</ele>
        <time>2010-03-19T12:58:50Z</time>
      </trkpt>
      <trkpt lat="48.61798" lon="2.07866">
        <ele>164</ele>
        <time>2010-03-19T12:58:51Z</time>
      </trkpt>
      <trkpt lat="48.61798" lon="2.07868">
        <ele>164</ele>
        <time>2010-03-19T12:58:52Z</time>
      </trkpt>
      <trkpt lat="48.61797" lon="2.0787">
        <ele>164</ele>
        <time>2010-03-19T12:58:53Z</time>
      </trkpt>
      <trkpt lat="48.61796" lon="2.07872">
        <ele>164</ele>
        <time>2010-03-19T12:58:54Z</time>
      </trkpt>
      <trkpt lat="48.61795" lon="2.07874">
        <ele>163</ele>
        <time>2010-03-19T12:58:55Z</time>
      </trkpt>
      <trkpt lat="48.61794" lon="2.07875">
        <ele>163</ele>
        <time>2010-03-19T12:58:56Z</time>
      </trkpt>
      <trkpt lat="48.61793" lon="2.07877">
        <ele>163</ele>
        <time>2010-03-19T12:58:57Z</time>
      </trkpt>
      <trkpt lat="48.61792" lon="2.07879">
        <ele>163</ele>
        <time>2010-03-19T12:58:58Z</time>
      </trkpt>
      <trkpt lat="48.61791" lon="2.07881">
        <ele>163</ele>
        <time>2010-03-19T12:58:59Z</time>
      </trkpt>
      <trkpt lat="48.6179" lon="2.07883">
        <ele>163</ele>
        <time>2010-03-19T12:59:00Z</time>
      </trkpt>
      <trkpt lat="48.6179" lon="2.07885">
        <ele>163</ele>
        <time>2010-03-19T12:59:01Z</time>
      </trkpt>
      <trkpt lat="48.61789" lon="2.07887">
        <ele>163</ele>
        <time>2010-03-19T12:59:02Z</time>
      </trkpt>
      <trkpt lat="48.61788" lon="2.0789">
        <ele>163</ele>
        <time>2010-03-19T12:59:04Z</time>
      </trkpt>
      <trkpt lat="48.61787" lon="2.07892">
        <ele>162</ele>
        <time>2010-03-19T12:59:06Z</time>
      </trkpt>
      <trkpt lat="48.61786" lon="2.07895">
        <ele>162</ele>
        <time>2010-03-19T12:59:07Z</time>
      </trkpt>
      <trkpt lat="48.61785" lon="2.07897">
        <ele>162</ele>
        <time>2010-03-19T12:59:08Z</time>
      </trkpt>
      <trkpt lat="48.61783" lon="2.079">
        <ele>162</ele>
        <time>2010-03-19T12:59:09Z</time>
      </trkpt>
      <trkpt lat="48.61782" lon="2.07902">
        <ele>162</ele>
        <time>2010-03-19T12:59:10Z</time>
      </trkpt>
      <trkpt lat="48.61781" lon="2.07904">
        <ele>162</ele>
        <time>2010-03-19T12:59:11Z</time>
      </trkpt>
      <trkpt lat="48.61781" lon="2.07905">
        <ele>162</ele>
        <time>2010-03-19T12:59:12Z</time>
      </trkpt>
      <trkpt lat="48.6178" lon="2.07907">
        <ele>162</ele>
        <time>2010-03-19T12:59:13Z</time>
      </trkpt>
      <trkpt lat="48.61778" lon="2.07909">
        <ele>161</ele>
        <time>2010-03-19T12:59:14Z</time>
      </trkpt>
      <trkpt lat="48.61777" lon="2.07912">
        <ele>161</ele>
        <time>2010-03-19T12:59:15Z</time>
      </trkpt>
      <trkpt lat="48.61777" lon="2.07914">
        <ele>161</ele>
        <time>2010-03-19T12:59:16Z</time>
      </trkpt>
      <trkpt lat="48.61776" lon="2.07916">
        <ele>161</ele>
        <time>2010-03-19T12:59:17Z</time>
      </trkpt>
      <trkpt lat="48.61775" lon="2.07917">
        <ele>161</ele>
        <time>2010-03-19T12:59:18Z</time>
      </trkpt>
      <trkpt lat="48.61774" lon="2.07919">
        <ele>161</ele>
        <time>2010-03-19T12:59:19Z</time>
      </trkpt>
      <trkpt lat="48.61774" lon="2.07921">
        <ele>161</ele>
        <time>2010-03-19T12:59:20Z</time>
      </trkpt>
      <trkpt lat="48.61773" lon="2.07923">
        <ele>161</ele>
        <time>2010-03-19T12:59:21Z</time>
      </trkpt>
      <trkpt lat="48.61772" lon="2.07926">
        <ele>161</ele>
        <time>2010-03-19T12:59:22Z</time>
      </trkpt>
      <trkpt lat="48.61771" lon="2.07927">
        <ele>161</ele>
        <time>2010-03-19T12:59:23Z</time>
      </trkpt>
      <trkpt lat="48.6177" lon="2.07929">
        <ele>161</ele>
        <time>2010-03-19T12:59:24Z</time>
      </trkpt>
      <trkpt lat="48.61769" lon="2.07931">
        <ele>161</ele>
        <time>2010-03-19T12:59:25Z</time>
      </trkpt>
      <trkpt lat="48.61768" lon="2.07933">
        <ele>161</ele>
        <time>2010-03-19T12:59:26Z</time>
      </trkpt>
      <trkpt lat="48.61766" lon="2.07935">
        <ele>161</ele>
        <time>2010-03-19T12:59:27Z</time>
      </trkpt>
      <trkpt lat="48.61766" lon="2.07937">
        <ele>161</ele>
        <time>2010-03-19T12:59:28Z</time>
      </trkpt>
      <trkpt lat="48.61765" lon="2.07938">
        <ele>161</ele>
        <time>2010-03-19T12:59:29Z</time>
      </trkpt>
      <trkpt lat="48.61764" lon="2.0794">
        <ele>161</ele>
        <time>2010-03-19T12:59:30Z</time>
      </trkpt>
      <trkpt lat="48.61763" lon="2.07942">
        <ele>161</ele>
        <time>2010-03-19T12:59:31Z</time>
      </trkpt>
      <trkpt lat="48.61761" lon="2.07944">
        <ele>161</ele>
        <time>2010-03-19T12:59:32Z</time>
      </trkpt>
      <trkpt lat="48.61761" lon="2.07946">
        <ele>161</ele>
        <time>2010-03-19T12:59:33Z</time>
      </trkpt>
      <trkpt lat="48.6176" lon="2.07948">
        <ele>161</ele>
        <time>2010-03-19T12:59:34Z</time>
      </trkpt>
      <trkpt lat="48.61759" lon="2.0795">
        <ele>161</ele>
        <time>2010-03-19T12:59:35Z</time>
      </trkpt>
      <trkpt lat="48.61758" lon="2.07952">
        <ele>161</ele>
        <time>2010-03-19T12:59:36Z</time>
      </trkpt>
      <trkpt lat="48.61757" lon="2.07955">
        <ele>161</ele>
        <time>2010-03-19T12:59:37Z</time>
      </trkpt>
      <trkpt lat="48.61756" lon="2.07957">
        <ele>161</ele>
        <time>2010-03-19T12:59:38Z</time>
      </trkpt>
      <trkpt lat="48.61755" lon="2.07959">
        <ele>161</ele>
        <time>2010-03-19T12:59:39Z</time>
      </trkpt>
      <trkpt lat="48.61754" lon="2.07961">
        <ele>161</ele>
        <time>2010-03-19T12:59:40Z</time>
      </trkpt>
      <trkpt lat="48.61752" lon="2.07963">
        <ele>161</ele>
        <time>2010-03-19T12:59:41Z</time>
      </trkpt>
      <trkpt lat="48.61751" lon="2.07965">
        <ele>161</ele>
        <time>2010-03-19T12:59:42Z</time>
      </trkpt>
      <trkpt lat="48.6175" lon="2.07968">
        <ele>161</ele>
        <time>2010-03-19T12:59:43Z</time>
      </trkpt>
      <trkpt lat="48.61749" lon="2.0797">
        <ele>161</ele>
        <time>2010-03-19T12:59:44Z</time>
      </trkpt>
      <trkpt lat="48.61747" lon="2.07973">
        <ele>161</ele>
        <time>2010-03-19T12:59:45Z</time>
      </trkpt>
      <trkpt lat="48.61746" lon="2.07974">
        <ele>161</ele>
        <time>2010-03-19T12:59:46Z</time>
      </trkpt>
      <trkpt lat="48.61745" lon="2.07976">
        <ele>161</ele>
        <time>2010-03-19T12:59:47Z</time>
      </trkpt>
      <trkpt lat="48.61744" lon="2.07978">
        <ele>161</ele>
        <time>2010-03-19T12:59:48Z</time>
      </trkpt>
      <trkpt lat="48.61743" lon="2.0798">
        <ele>162</ele>
        <time>2010-03-19T12:59:49Z</time>
      </trkpt>
      <trkpt lat="48.61742" lon="2.07981">
        <ele>162</ele>
        <time>2010-03-19T12:59:50Z</time>
      </trkpt>
      <trkpt lat="48.61741" lon="2.07983">
        <ele>163</ele>
        <time>2010-03-19T12:59:51Z</time>
      </trkpt>
      <trkpt lat="48.61741" lon="2.07986">
        <ele>163</ele>
        <time>2010-03-19T12:59:53Z</time>
      </trkpt>
      <trkpt lat="48.6174" lon="2.07988">
        <ele>164</ele>
        <time>2010-03-19T12:59:54Z</time>
      </trkpt>
      <trkpt lat="48.61739" lon="2.07991">
        <ele>164</ele>
        <time>2010-03-19T12:59:56Z</time>
      </trkpt>
      <trkpt lat="48.61739" lon="2.07993">
        <ele>164</ele>
        <time>2010-03-19T12:59:57Z</time>
      </trkpt>
      <trkpt lat="48.61739" lon="2.07995">
        <ele>164</ele>
        <time>2010-03-19T12:59:58Z</time>
      </trkpt>
      <trkpt lat="48.61737" lon="2.07998">
        <ele>164</ele>
        <time>2010-03-19T12:59:59Z</time>
      </trkpt>
      <trkpt lat="48.61737" lon="2.08">
        <ele>164</ele>
        <time>2010-03-19T13:00:00Z</time>
      </trkpt>
      <trkpt lat="48.61736" lon="2.08003">
        <ele>164</ele>
        <time>2010-03-19T13:00:01Z</time>
      </trkpt>
      <trkpt lat="48.61735" lon="2.08006">
        <ele>164</ele>
        <time>2010-03-19T13:00:02Z</time>
      </trkpt>
      <trkpt lat="48.61734" lon="2.08008">
        <ele>164</ele>
        <time>2010-03-19T13:00:03Z</time>
      </trkpt>
      <trkpt lat="48.61734" lon="2.08011">
        <ele>164</ele>
        <time>2010-03-19T13:00:04Z</time>
      </trkpt>
      <trkpt lat="48.61734" lon="2.08013">
        <ele>164</ele>
        <time>2010-03-19T13:00:05Z</time>
      </trkpt>
      <trkpt lat="48.61734" lon="2.08015">
        <ele>164</ele>
        <time>2010-03-19T13:00:06Z</time>
      </trkpt>
      <trkpt lat="48.61732" lon="2.08018">
        <ele>164</ele>
        <time>2010-03-19T13:00:07Z</time>
      </trkpt>
      <trkpt lat="48.61732" lon="2.0802">
        <ele>164</ele>
        <time>2010-03-19T13:00:08Z</time>
      </trkpt>
      <trkpt lat="48.61731" lon="2.08022">
        <ele>164</ele>
        <time>2010-03-19T13:00:09Z</time>
      </trkpt>
      <trkpt lat="48.61731" lon="2.08025">
        <ele>164</ele>
        <time>2010-03-19T13:00:10Z</time>
      </trkpt>
      <trkpt lat="48.6173" lon="2.08028">
        <ele>164</ele>
        <time>2010-03-19T13:00:11Z</time>
      </trkpt>
      <trkpt lat="48.61729" lon="2.0803">
        <ele>164</ele>
        <time>2010-03-19T13:00:12Z</time>
      </trkpt>
      <trkpt lat="48.61729" lon="2.08032">
        <ele>163</ele>
        <time>2010-03-19T13:00:13Z</time>
      </trkpt>
      <trkpt lat="48.61729" lon="2.08034">
        <ele>163</ele>
        <time>2010-03-19T13:00:14Z</time>
      </trkpt>
      <trkpt lat="48.61728" lon="2.08036">
        <ele>162</ele>
        <time>2010-03-19T13:00:15Z</time>
      </trkpt>
      <trkpt lat="48.61728" lon="2.08038">
        <ele>162</ele>
        <time>2010-03-19T13:00:16Z</time>
      </trkpt>
      <trkpt lat="48.61728" lon="2.0804">
        <ele>162</ele>
        <time>2010-03-19T13:00:17Z</time>
      </trkpt>
      <trkpt lat="48.61728" lon="2.08043">
        <ele>161</ele>
        <time>2010-03-19T13:00:18Z</time>
      </trkpt>
      <trkpt lat="48.61727" lon="2.08045">
        <ele>161</ele>
        <time>2010-03-19T13:00:19Z</time>
      </trkpt>
      <trkpt lat="48.61727" lon="2.08047">
        <ele>161</ele>
        <time>2010-03-19T13:00:20Z</time>
      </trkpt>
      <trkpt lat="48.61727" lon="2.08049">
        <ele>161</ele>
        <time>2010-03-19T13:00:21Z</time>
      </trkpt>
      <trkpt lat="48.61727" lon="2.08051">
        <ele>160</ele>
        <time>2010-03-19T13:00:22Z</time>
      </trkpt>
      <trkpt lat="48.61726" lon="2.08053">
        <ele>160</ele>
        <time>2010-03-19T13:00:23Z</time>
      </trkpt>
      <trkpt lat="48.61726" lon="2.08055">
        <ele>160</ele>
        <time>2010-03-19T13:00:24Z</time>
      </trkpt>
      <trkpt lat="48.61726" lon="2.08057">
        <ele>160</ele>
        <time>2010-03-19T13:00:25Z</time>
      </trkpt>
      <trkpt lat="48.61726" lon="2.08059">
        <ele>160</ele>
        <time>2010-03-19T13:00:26Z</time>
      </trkpt>
      <trkpt lat="48.61725" lon="2.08062">
        <ele>160</ele>
        <time>2010-03-19T13:00:27Z</time>
      </trkpt>
      <trkpt lat="48.61725" lon="2.08064">
        <ele>160</ele>
        <time>2010-03-19T13:00:28Z</time>
      </trkpt>
      <trkpt lat="48.61724" lon="2.08066">
        <ele>160</ele>
        <time>2010-03-19T13:00:29Z</time>
      </trkpt>
      <trkpt lat="48.61724" lon="2.08068">
        <ele>160</ele>
        <time>2010-03-19T13:00:30Z</time>
      </trkpt>
      <trkpt lat="48.61724" lon="2.0807">
        <ele>160</ele>
        <time>2010-03-19T13:00:31Z</time>
      </trkpt>
      <trkpt lat="48.61724" lon="2.08073">
        <ele>160</ele>
        <time>2010-03-19T13:00:32Z</time>
      </trkpt>
      <trkpt lat="48.61723" lon="2.08075">
        <ele>160</ele>
        <time>2010-03-19T13:00:33Z</time>
      </trkpt>
      <trkpt lat="48.61723" lon="2.08077">
        <ele>160</ele>
        <time>2010-03-19T13:00:34Z</time>
      </trkpt>
      <trkpt lat="48.61723" lon="2.0808">
        <ele>160</ele>
        <time>2010-03-19T13:00:35Z</time>
      </trkpt>
      <trkpt lat="48.61721" lon="2.08082">
        <ele>160</ele>
        <time>2010-03-19T13:00:36Z</time>
      </trkpt>
      <trkpt lat="48.61721" lon="2.08085">
        <ele>160</ele>
        <time>2010-03-19T13:00:37Z</time>
      </trkpt>
      <trkpt lat="48.61721" lon="2.08088">
        <ele>160</ele>
        <time>2010-03-19T13:00:38Z</time>
      </trkpt>
      <trkpt lat="48.61721" lon="2.0809">
        <ele>160</ele>
        <time>2010-03-19T13:00:39Z</time>
      </trkpt>
      <trkpt lat="48.61721" lon="2.08092">
        <ele>160</ele>
        <time>2010-03-19T13:00:40Z</time>
      </trkpt>
      <trkpt lat="48.61721" lon="2.08095">
        <ele>160</ele>
        <time>2010-03-19T13:00:41Z</time>
      </trkpt>
      <trkpt lat="48.61721" lon="2.08097">
        <ele>160</ele>
        <time>2010-03-19T13:00:42Z</time>
      </trkpt>
      <trkpt lat="48.61721" lon="2.081">
        <ele>160</ele>
        <time>2010-03-19T13:00:43Z</time>
      </trkpt>
      <trkpt lat="48.61721" lon="2.08102">
        <ele>160</ele>
        <time>2010-03-19T13:00:44Z</time>
      </trkpt>
      <trkpt lat="48.61721" lon="2.08105">
        <ele>160</ele>
        <time>2010-03-19T13:00:45Z</time>
      </trkpt>
      <trkpt lat="48.61721" lon="2.08108">
        <ele>160</ele>
        <time>2010-03-19T13:00:46Z</time>
      </trkpt>
      <trkpt lat="48.6172" lon="2.0811">
        <ele>160</ele>
        <time>2010-03-19T13:00:47Z</time>
      </trkpt>
      <trkpt lat="48.61719" lon="2.08113">
        <ele>160</ele>
        <time>2010-03-19T13:00:48Z</time>
      </trkpt>
      <trkpt lat="48.61719" lon="2.08115">
        <ele>160</ele>
        <time>2010-03-19T13:00:49Z</time>
      </trkpt>
      <trkpt lat="48.61718" lon="2.08117">
        <ele>160</ele>
        <time>2010-03-19T13:00:50Z</time>
      </trkpt>
      <trkpt lat="48.61718" lon="2.0812">
        <ele>160</ele>
        <time>2010-03-19T13:00:51Z</time>
      </trkpt>
      <trkpt lat="48.61718" lon="2.08122">
        <ele>160</ele>
        <time>2010-03-19T13:00:52Z</time>
      </trkpt>
      <trkpt lat="48.61718" lon="2.08125">
        <ele>160</ele>
        <time>2010-03-19T13:00:53Z</time>
      </trkpt>
      <trkpt lat="48.61718" lon="2.08128">
        <ele>160</ele>
        <time>2010-03-19T13:00:54Z</time>
      </trkpt>
      <trkpt lat="48.61718" lon="2.08131">
        <ele>160</ele>
        <time>2010-03-19T13:00:55Z</time>
      </trkpt>
      <trkpt lat="48.61718" lon="2.08134">
        <ele>160</ele>
        <time>2010-03-19T13:00:56Z</time>
      </trkpt>
      <trkpt lat="48.61717" lon="2.08137">
        <ele>160</ele>
        <time>2010-03-19T13:00:57Z</time>
      </trkpt>
      <trkpt lat="48.61717" lon="2.0814">
        <ele>160</ele>
        <time>2010-03-19T13:00:58Z</time>
      </trkpt>
      <trkpt lat="48.61716" lon="2.08142">
        <ele>160</ele>
        <time>2010-03-19T13:00:59Z</time>
      </trkpt>
      <trkpt lat="48.61716" lon="2.08144">
        <ele>160</ele>
        <time>2010-03-19T13:01:00Z</time>
      </trkpt>
      <trkpt lat="48.61716" lon="2.08146">
        <ele>160</ele>
        <time>2010-03-19T13:01:01Z</time>
      </trkpt>
      <trkpt lat="48.61716" lon="2.08149">
        <ele>160</ele>
        <time>2010-03-19T13:01:02Z</time>
      </trkpt>
      <trkpt lat="48.61716" lon="2.08152">
        <ele>160</ele>
        <time>2010-03-19T13:01:03Z</time>
      </trkpt>
      <trkpt lat="48.61716" lon="2.08154">
        <ele>160</ele>
        <time>2010-03-19T13:01:04Z</time>
      </trkpt>
      <trkpt lat="48.61716" lon="2.08156">
        <ele>160</ele>
        <time>2010-03-19T13:01:05Z</time>
      </trkpt>
      <trkpt lat="48.61716" lon="2.08159">
        <ele>160</ele>
        <time>2010-03-19T13:01:06Z</time>
      </trkpt>
      <trkpt lat="48.61716" lon="2.08161">
        <ele>160</ele>
        <time>2010-03-19T13:01:07Z</time>
      </trkpt>
      <trkpt lat="48.61716" lon="2.08163">
        <ele>160</ele>
        <time>2010-03-19T13:01:08Z</time>
      </trkpt>
      <trkpt lat="48.61716" lon="2.08166">
        <ele>160</ele>
        <time>2010-03-19T13:01:09Z</time>
      </trkpt>
      <trkpt lat="48.61716" lon="2.08168">
        <ele>160</ele>
        <time>2010-03-19T13:01:10Z</time>
      </trkpt>
      <trkpt lat="48.61715" lon="2.0817">
        <ele>160</ele>
        <time>2010-03-19T13:01:11Z</time>
      </trkpt>
      <trkpt lat="48.61715" lon="2.08172">
        <ele>160</ele>
        <time>2010-03-19T13:01:12Z</time>
      </trkpt>
      <trkpt lat="48.61713" lon="2.08174">
        <ele>160</ele>
        <time>2010-03-19T13:01:13Z</time>
      </trkpt>
      <trkpt lat="48.61713" lon="2.08176">
        <ele>160</ele>
        <time>2010-03-19T13:01:14Z</time>
      </trkpt>
      <trkpt lat="48.61713" lon="2.08178">
        <ele>160</ele>
        <time>2010-03-19T13:01:15Z</time>
      </trkpt>
      <trkpt lat="48.61713" lon="2.08181">
        <ele>160</ele>
        <time>2010-03-19T13:01:16Z</time>
      </trkpt>
      <trkpt lat="48.61713" lon="2.08184">
        <ele>160</ele>
        <time>2010-03-19T13:01:17Z</time>
      </trkpt>
      <trkpt lat="48.61713" lon="2.08186">
        <ele>160</ele>
        <time>2010-03-19T13:01:18Z</time>
      </trkpt>
      <trkpt lat="48.61713" lon="2.08188">
        <ele>160</ele>
        <time>2010-03-19T13:01:19Z</time>
      </trkpt>
      <trkpt lat="48.61713" lon="2.0819">
        <ele>160</ele>
        <time>2010-03-19T13:01:20Z</time>
      </trkpt>
      <trkpt lat="48.61712" lon="2.08194">
        <ele>160</ele>
        <time>2010-03-19T13:01:21Z</time>
      </trkpt>
      <trkpt lat="48.61712" lon="2.08196">
        <ele>160</ele>
        <time>2010-03-19T13:01:22Z</time>
      </trkpt>
      <trkpt lat="48.61712" lon="2.08198">
        <ele>160</ele>
        <time>2010-03-19T13:01:23Z</time>
      </trkpt>
      <trkpt lat="48.6171" lon="2.082">
        <ele>160</ele>
        <time>2010-03-19T13:01:24Z</time>
      </trkpt>
      <trkpt lat="48.6171" lon="2.08203">
        <ele>160</ele>
        <time>2010-03-19T13:01:25Z</time>
      </trkpt>
      <trkpt lat="48.6171" lon="2.08205">
        <ele>160</ele>
        <time>2010-03-19T13:01:26Z</time>
      </trkpt>
      <trkpt lat="48.61709" lon="2.08207">
        <ele>160</ele>
        <time>2010-03-19T13:01:27Z</time>
      </trkpt>
      <trkpt lat="48.61708" lon="2.0821">
        <ele>160</ele>
        <time>2010-03-19T13:01:28Z</time>
      </trkpt>
      <trkpt lat="48.61707" lon="2.08212">
        <ele>160</ele>
        <time>2010-03-19T13:01:29Z</time>
      </trkpt>
      <trkpt lat="48.61705" lon="2.08214">
        <ele>160</ele>
        <time>2010-03-19T13:01:30Z</time>
      </trkpt>
      <trkpt lat="48.61703" lon="2.08216">
        <ele>160</ele>
        <time>2010-03-19T13:01:31Z</time>
      </trkpt>
      <trkpt lat="48.61702" lon="2.08218">
        <ele>160</ele>
        <time>2010-03-19T13:01:32Z</time>
      </trkpt>
      <trkpt lat="48.61701" lon="2.0822">
        <ele>160</ele>
        <time>2010-03-19T13:01:33Z</time>
      </trkpt>
      <trkpt lat="48.617" lon="2.08222">
        <ele>160</ele>
        <time>2010-03-19T13:01:34Z</time>
      </trkpt>
      <trkpt lat="48.61699" lon="2.08223">
        <ele>160</ele>
        <time>2010-03-19T13:01:35Z</time>
      </trkpt>
      <trkpt lat="48.61697" lon="2.08224">
        <ele>160</ele>
        <time>2010-03-19T13:01:36Z</time>
      </trkpt>
      <trkpt lat="48.61695" lon="2.08226">
        <ele>160</ele>
        <time>2010-03-19T13:01:37Z</time>
      </trkpt>
      <trkpt lat="48.61693" lon="2.08227">
        <ele>160</ele>
        <time>2010-03-19T13:01:38Z</time>
      </trkpt>
      <trkpt lat="48.61692" lon="2.08229">
        <ele>161</ele>
        <time>2010-03-19T13:01:39Z</time>
      </trkpt>
      <trkpt lat="48.6169" lon="2.0823">
        <ele>161</ele>
        <time>2010-03-19T13:01:40Z</time>
      </trkpt>
      <trkpt lat="48.61688" lon="2.08233">
        <ele>161</ele>
        <time>2010-03-19T13:01:41Z</time>
      </trkpt>
      <trkpt lat="48.61686" lon="2.08235">
        <ele>161</ele>
        <time>2010-03-19T13:01:42Z</time>
      </trkpt>
      <trkpt lat="48.61684" lon="2.08236">
        <ele>162</ele>
        <time>2010-03-19T13:01:43Z</time>
      </trkpt>
      <trkpt lat="48.61683" lon="2.08238">
        <ele>162</ele>
        <time>2010-03-19T13:01:44Z</time>
      </trkpt>
      <trkpt lat="48.61682" lon="2.08239">
        <ele>162</ele>
        <time>2010-03-19T13:01:45Z</time>
      </trkpt>
      <trkpt lat="48.6168" lon="2.0824">
        <ele>162</ele>
        <time>2010-03-19T13:01:46Z</time>
      </trkpt>
      <trkpt lat="48.61679" lon="2.08242">
        <ele>163</ele>
        <time>2010-03-19T13:01:47Z</time>
      </trkpt>
      <trkpt lat="48.61678" lon="2.08245">
        <ele>163</ele>
        <time>2010-03-19T13:01:49Z</time>
      </trkpt>
      <trkpt lat="48.61676" lon="2.08247">
        <ele>163</ele>
        <time>2010-03-19T13:01:51Z</time>
      </trkpt>
      <trkpt lat="48.61675" lon="2.08248">
        <ele>163</ele>
        <time>2010-03-19T13:01:52Z</time>
      </trkpt>
      <trkpt lat="48.61674" lon="2.0825">
        <ele>163</ele>
        <time>2010-03-19T13:01:53Z</time>
      </trkpt>
      <trkpt lat="48.61672" lon="2.08252">
        <ele>163</ele>
        <time>2010-03-19T13:01:54Z</time>
      </trkpt>
      <trkpt lat="48.6167" lon="2.08253">
        <ele>163</ele>
        <time>2010-03-19T13:01:55Z</time>
      </trkpt>
      <trkpt lat="48.61669" lon="2.08255">
        <ele>163</ele>
        <time>2010-03-19T13:01:56Z</time>
      </trkpt>
      <trkpt lat="48.61668" lon="2.08257">
        <ele>163</ele>
        <time>2010-03-19T13:01:57Z</time>
      </trkpt>
      <trkpt lat="48.61666" lon="2.0826">
        <ele>163</ele>
        <time>2010-03-19T13:01:59Z</time>
      </trkpt>
      <trkpt lat="48.61666" lon="2.08262">
        <ele>163</ele>
        <time>2010-03-19T13:02:00Z</time>
      </trkpt>
      <trkpt lat="48.61664" lon="2.08265">
        <ele>163</ele>
        <time>2010-03-19T13:02:02Z</time>
      </trkpt>
      <trkpt lat="48.61663" lon="2.08267">
        <ele>163</ele>
        <time>2010-03-19T13:02:03Z</time>
      </trkpt>
      <trkpt lat="48.61662" lon="2.08268">
        <ele>163</ele>
        <time>2010-03-19T13:02:04Z</time>
      </trkpt>
      <trkpt lat="48.6166" lon="2.0827">
        <ele>163</ele>
        <time>2010-03-19T13:02:05Z</time>
      </trkpt>
      <trkpt lat="48.61659" lon="2.08272">
        <ele>163</ele>
        <time>2010-03-19T13:02:06Z</time>
      </trkpt>
      <trkpt lat="48.61658" lon="2.08274">
        <ele>163</ele>
        <time>2010-03-19T13:02:07Z</time>
      </trkpt>
      <trkpt lat="48.61657" lon="2.08276">
        <ele>163</ele>
        <time>2010-03-19T13:02:08Z</time>
      </trkpt>
      <trkpt lat="48.61656" lon="2.08278">
        <ele>163</ele>
        <time>2010-03-19T13:02:09Z</time>
      </trkpt>
      <trkpt lat="48.61654" lon="2.0828">
        <ele>162</ele>
        <time>2010-03-19T13:02:11Z</time>
      </trkpt>
      <trkpt lat="48.61654" lon="2.08282">
        <ele>161</ele>
        <time>2010-03-19T13:02:12Z</time>
      </trkpt>
      <trkpt lat="48.61652" lon="2.08284">
        <ele>161</ele>
        <time>2010-03-19T13:02:13Z</time>
      </trkpt>
      <trkpt lat="48.6165" lon="2.08287">
        <ele>161</ele>
        <time>2010-03-19T13:02:14Z</time>
      </trkpt>
      <trkpt lat="48.61649" lon="2.08289">
        <ele>161</ele>
        <time>2010-03-19T13:02:15Z</time>
      </trkpt>
      <trkpt lat="48.61646" lon="2.08291">
        <ele>161</ele>
        <time>2010-03-19T13:02:16Z</time>
      </trkpt>
      <trkpt lat="48.61644" lon="2.08292">
        <ele>161</ele>
        <time>2010-03-19T13:02:17Z</time>
      </trkpt>
      <trkpt lat="48.61643" lon="2.08294">
        <ele>161</ele>
        <time>2010-03-19T13:02:18Z</time>
      </trkpt>
      <trkpt lat="48.61641" lon="2.08295">
        <ele>161</ele>
        <time>2010-03-19T13:02:19Z</time>
      </trkpt>
      <trkpt lat="48.6164" lon="2.08296">
        <ele>161</ele>
        <time>2010-03-19T13:02:20Z</time>
      </trkpt>
      <trkpt lat="48.61637" lon="2.08298">
        <ele>161</ele>
        <time>2010-03-19T13:02:21Z</time>
      </trkpt>
      <trkpt lat="48.61634" lon="2.083">
        <ele>161</ele>
        <time>2010-03-19T13:02:22Z</time>
      </trkpt>
      <trkpt lat="48.61632" lon="2.08302">
        <ele>161</ele>
        <time>2010-03-19T13:02:23Z</time>
      </trkpt>
      <trkpt lat="48.61629" lon="2.08304">
        <ele>161</ele>
        <time>2010-03-19T13:02:24Z</time>
      </trkpt>
      <trkpt lat="48.61627" lon="2.08308">
        <ele>161</ele>
        <time>2010-03-19T13:02:25Z</time>
      </trkpt>
      <trkpt lat="48.61625" lon="2.0831">
        <ele>161</ele>
        <time>2010-03-19T13:02:26Z</time>
      </trkpt>
      <trkpt lat="48.61623" lon="2.08312">
        <ele>161</ele>
        <time>2010-03-19T13:02:27Z</time>
      </trkpt>
      <trkpt lat="48.61621" lon="2.08315">
        <ele>160</ele>
        <time>2010-03-19T13:02:29Z</time>
      </trkpt>
      <trkpt lat="48.6162" lon="2.08315">
        <ele>160</ele>
        <time>2010-03-19T13:02:30Z</time>
      </trkpt>
      <trkpt lat="48.61618" lon="2.08317">
        <ele>159</ele>
        <time>2010-03-19T13:02:31Z</time>
      </trkpt>
      <trkpt lat="48.61617" lon="2.08319">
        <ele>158</ele>
        <time>2010-03-19T13:02:33Z</time>
      </trkpt>
      <trkpt lat="48.61615" lon="2.08321">
        <ele>158</ele>
        <time>2010-03-19T13:02:35Z</time>
      </trkpt>
      <trkpt lat="48.61613" lon="2.08323">
        <ele>157</ele>
        <time>2010-03-19T13:02:37Z</time>
      </trkpt>
      <trkpt lat="48.61611" lon="2.08324">
        <ele>157</ele>
        <time>2010-03-19T13:02:38Z</time>
      </trkpt>
      <trkpt lat="48.6161" lon="2.08326">
        <ele>157</ele>
        <time>2010-03-19T13:02:39Z</time>
      </trkpt>
      <trkpt lat="48.61609" lon="2.08328">
        <ele>156</ele>
        <time>2010-03-19T13:02:40Z</time>
      </trkpt>
      <trkpt lat="48.61606" lon="2.08331">
        <ele>155</ele>
        <time>2010-03-19T13:02:42Z</time>
      </trkpt>
      <trkpt lat="48.61605" lon="2.08332">
        <ele>155</ele>
        <time>2010-03-19T13:02:43Z</time>
      </trkpt>
      <trkpt lat="48.61604" lon="2.08333">
        <ele>155</ele>
        <time>2010-03-19T13:02:44Z</time>
      </trkpt>
      <trkpt lat="48.61602" lon="2.08334">
        <ele>154</ele>
        <time>2010-03-19T13:02:45Z</time>
      </trkpt>
      <trkpt lat="48.61602" lon="2.08336">
        <ele>154</ele>
        <time>2010-03-19T13:02:46Z</time>
      </trkpt>
      <trkpt lat="48.616" lon="2.08338">
        <ele>154</ele>
        <time>2010-03-19T13:02:47Z</time>
      </trkpt>
      <trkpt lat="48.61599" lon="2.0834">
        <ele>154</ele>
        <time>2010-03-19T13:02:48Z</time>
      </trkpt>
      <trkpt lat="48.61597" lon="2.08342">
        <ele>153</ele>
        <time>2010-03-19T13:02:49Z</time>
      </trkpt>
      <trkpt lat="48.61595" lon="2.08345">
        <ele>153</ele>
        <time>2010-03-19T13:02:51Z</time>
      </trkpt>
      <trkpt lat="48.61594" lon="2.08347">
        <ele>153</ele>
        <time>2010-03-19T13:02:52Z</time>
      </trkpt>
      <trkpt lat="48.61592" lon="2.08348">
        <ele>153</ele>
        <time>2010-03-19T13:02:53Z</time>
      </trkpt>
      <trkpt lat="48.61591" lon="2.0835">
        <ele>153</ele>
        <time>2010-03-19T13:02:54Z</time>
      </trkpt>
      <trkpt lat="48.61589" lon="2.08353">
        <ele>153</ele>
        <time>2010-03-19T13:02:56Z</time>
      </trkpt>
      <trkpt lat="48.61587" lon="2.08356">
        <ele>153</ele>
        <time>2010-03-19T13:02:58Z</time>
      </trkpt>
      <trkpt lat="48.61586" lon="2.08357">
        <ele>153</ele>
        <time>2010-03-19T13:02:59Z</time>
      </trkpt>
      <trkpt lat="48.61584" lon="2.08359">
        <ele>152</ele>
        <time>2010-03-19T13:03:01Z</time>
      </trkpt>
      <trkpt lat="48.61582" lon="2.08362">
        <ele>152</ele>
        <time>2010-03-19T13:03:03Z</time>
      </trkpt>
      <trkpt lat="48.6158" lon="2.08365">
        <ele>151</ele>
        <time>2010-03-19T13:03:05Z</time>
      </trkpt>
      <trkpt lat="48.61579" lon="2.08367">
        <ele>151</ele>
        <time>2010-03-19T13:03:06Z</time>
      </trkpt>
      <trkpt lat="48.61578" lon="2.08369">
        <ele>151</ele>
        <time>2010-03-19T13:03:07Z</time>
      </trkpt>
      <trkpt lat="48.61576" lon="2.08372">
        <ele>150</ele>
        <time>2010-03-19T13:03:09Z</time>
      </trkpt>
      <trkpt lat="48.61576" lon="2.08373">
        <ele>150</ele>
        <time>2010-03-19T13:03:10Z</time>
      </trkpt>
      <trkpt lat="48.61575" lon="2.08375">
        <ele>150</ele>
        <time>2010-03-19T13:03:11Z</time>
      </trkpt>
      <trkpt lat="48.61573" lon="2.08378">
        <ele>149</ele>
        <time>2010-03-19T13:03:12Z</time>
      </trkpt>
      <trkpt lat="48.61573" lon="2.0838">
        <ele>149</ele>
        <time>2010-03-19T13:03:13Z</time>
      </trkpt>
      <trkpt lat="48.61572" lon="2.08382">
        <ele>149</ele>
        <time>2010-03-19T13:03:14Z</time>
      </trkpt>
      <trkpt lat="48.61572" lon="2.08383">
        <ele>149</ele>
        <time>2010-03-19T13:03:15Z</time>
      </trkpt>
      <trkpt lat="48.61571" lon="2.08386">
        <ele>148</ele>
        <time>2010-03-19T13:03:16Z</time>
      </trkpt>
      <trkpt lat="48.6157" lon="2.08388">
        <ele>148</ele>
        <time>2010-03-19T13:03:17Z</time>
      </trkpt>
      <trkpt lat="48.6157" lon="2.0839">
        <ele>147</ele>
        <time>2010-03-19T13:03:18Z</time>
      </trkpt>
      <trkpt lat="48.61569" lon="2.08392">
        <ele>147</ele>
        <time>2010-03-19T13:03:19Z</time>
      </trkpt>
      <trkpt lat="48.61569" lon="2.08394">
        <ele>147</ele>
        <time>2010-03-19T13:03:20Z</time>
      </trkpt>
      <trkpt lat="48.61568" lon="2.08396">
        <ele>147</ele>
        <time>2010-03-19T13:03:21Z</time>
      </trkpt>
      <trkpt lat="48.61567" lon="2.08398">
        <ele>147</ele>
        <time>2010-03-19T13:03:22Z</time>
      </trkpt>
      <trkpt lat="48.61566" lon="2.084">
        <ele>147</ele>
        <time>2010-03-19T13:03:23Z</time>
      </trkpt>
      <trkpt lat="48.61564" lon="2.08402">
        <ele>147</ele>
        <time>2010-03-19T13:03:24Z</time>
      </trkpt>
      <trkpt lat="48.61563" lon="2.08404">
        <ele>147</ele>
        <time>2010-03-19T13:03:25Z</time>
      </trkpt>
      <trkpt lat="48.61562" lon="2.08407">
        <ele>147</ele>
        <time>2010-03-19T13:03:26Z</time>
      </trkpt>
      <trkpt lat="48.61561" lon="2.08409">
        <ele>147</ele>
        <time>2010-03-19T13:03:27Z</time>
      </trkpt>
      <trkpt lat="48.6156" lon="2.08412">
        <ele>147</ele>
        <time>2010-03-19T13:03:28Z</time>
      </trkpt>
      <trkpt lat="48.61558" lon="2.08414">
        <ele>147</ele>
        <time>2010-03-19T13:03:29Z</time>
      </trkpt>
      <trkpt lat="48.61556" lon="2.08417">
        <ele>147</ele>
        <time>2010-03-19T13:03:30Z</time>
      </trkpt>
      <trkpt lat="48.61555" lon="2.08419">
        <ele>147</ele>
        <time>2010-03-19T13:03:31Z</time>
      </trkpt>
      <trkpt lat="48.61553" lon="2.08422">
        <ele>147</ele>
        <time>2010-03-19T13:03:32Z</time>
      </trkpt>
      <trkpt lat="48.61553" lon="2.08424">
        <ele>147</ele>
        <time>2010-03-19T13:03:33Z</time>
      </trkpt>
      <trkpt lat="48.61551" lon="2.08426">
        <ele>147</ele>
        <time>2010-03-19T13:03:34Z</time>
      </trkpt>
      <trkpt lat="48.61552" lon="2.08428">
        <ele>147</ele>
        <time>2010-03-19T13:03:35Z</time>
      </trkpt>
      <trkpt lat="48.61551" lon="2.08432">
        <ele>147</ele>
        <time>2010-03-19T13:03:37Z</time>
      </trkpt>
      <trkpt lat="48.61551" lon="2.08434">
        <ele>147</ele>
        <time>2010-03-19T13:03:38Z</time>
      </trkpt>
      <trkpt lat="48.6155" lon="2.08437">
        <ele>147</ele>
        <time>2010-03-19T13:03:39Z</time>
      </trkpt>
      <trkpt lat="48.6155" lon="2.08439">
        <ele>147</ele>
        <time>2010-03-19T13:03:40Z</time>
      </trkpt>
      <trkpt lat="48.61548" lon="2.08441">
        <ele>147</ele>
        <time>2010-03-19T13:03:41Z</time>
      </trkpt>
      <trkpt lat="48.61547" lon="2.08443">
        <ele>147</ele>
        <time>2010-03-19T13:03:42Z</time>
      </trkpt>
      <trkpt lat="48.61546" lon="2.08445">
        <ele>147</ele>
        <time>2010-03-19T13:03:43Z</time>
      </trkpt>
      <trkpt lat="48.61545" lon="2.08447">
        <ele>147</ele>
        <time>2010-03-19T13:03:44Z</time>
      </trkpt>
      <trkpt lat="48.61544" lon="2.0845">
        <ele>147</ele>
        <time>2010-03-19T13:03:45Z</time>
      </trkpt>
      <trkpt lat="48.61543" lon="2.08452">
        <ele>147</ele>
        <time>2010-03-19T13:03:46Z</time>
      </trkpt>
      <trkpt lat="48.61542" lon="2.08454">
        <ele>147</ele>
        <time>2010-03-19T13:03:47Z</time>
      </trkpt>
      <trkpt lat="48.61541" lon="2.08456">
        <ele>147</ele>
        <time>2010-03-19T13:03:48Z</time>
      </trkpt>
      <trkpt lat="48.6154" lon="2.08458">
        <ele>147</ele>
        <time>2010-03-19T13:03:49Z</time>
      </trkpt>
      <trkpt lat="48.61539" lon="2.0846">
        <ele>147</ele>
        <time>2010-03-19T13:03:50Z</time>
      </trkpt>
      <trkpt lat="48.61538" lon="2.08463">
        <ele>147</ele>
        <time>2010-03-19T13:03:52Z</time>
      </trkpt>
      <trkpt lat="48.61538" lon="2.08465">
        <ele>147</ele>
        <time>2010-03-19T13:03:53Z</time>
      </trkpt>
      <trkpt lat="48.61537" lon="2.08467">
        <ele>147</ele>
        <time>2010-03-19T13:03:54Z</time>
      </trkpt>
      <trkpt lat="48.61537" lon="2.0847">
        <ele>147</ele>
        <time>2010-03-19T13:03:55Z</time>
      </trkpt>
      <trkpt lat="48.61537" lon="2.08472">
        <ele>147</ele>
        <time>2010-03-19T13:03:56Z</time>
      </trkpt>
      <trkpt lat="48.61537" lon="2.08474">
        <ele>147</ele>
        <time>2010-03-19T13:03:57Z</time>
      </trkpt>
      <trkpt lat="48.61536" lon="2.08475">
        <ele>147</ele>
        <time>2010-03-19T13:03:58Z</time>
      </trkpt>
      <trkpt lat="48.61535" lon="2.08477">
        <ele>147</ele>
        <time>2010-03-19T13:03:59Z</time>
      </trkpt>
      <trkpt lat="48.61535" lon="2.08479">
        <ele>147</ele>
        <time>2010-03-19T13:04:00Z</time>
      </trkpt>
      <trkpt lat="48.61533" lon="2.08482">
        <ele>147</ele>
        <time>2010-03-19T13:04:01Z</time>
      </trkpt>
      <trkpt lat="48.61531" lon="2.08485">
        <ele>147</ele>
        <time>2010-03-19T13:04:03Z</time>
      </trkpt>
      <trkpt lat="48.6153" lon="2.08487">
        <ele>147</ele>
        <time>2010-03-19T13:04:04Z</time>
      </trkpt>
      <trkpt lat="48.6153" lon="2.08488">
        <ele>147</ele>
        <time>2010-03-19T13:04:05Z</time>
      </trkpt>
      <trkpt lat="48.6153" lon="2.08491">
        <ele>146</ele>
        <time>2010-03-19T13:04:06Z</time>
      </trkpt>
      <trkpt lat="48.61529" lon="2.08493">
        <ele>146</ele>
        <time>2010-03-19T13:04:07Z</time>
      </trkpt>
      <trkpt lat="48.61528" lon="2.08494">
        <ele>146</ele>
        <time>2010-03-19T13:04:08Z</time>
      </trkpt>
      <trkpt lat="48.61526" lon="2.08494">
        <ele>146</ele>
        <time>2010-03-19T13:04:13Z</time>
      </trkpt>
      <trkpt lat="48.61525" lon="2.08496">
        <ele>146</ele>
        <time>2010-03-19T13:04:16Z</time>
      </trkpt>
      <trkpt lat="48.61524" lon="2.08498">
        <ele>146</ele>
        <time>2010-03-19T13:04:25Z</time>
      </trkpt>
      <trkpt lat="48.61525" lon="2.08499">
        <ele>146</ele>
        <time>2010-03-19T13:04:29Z</time>
      </trkpt>
      <trkpt lat="48.61526" lon="2.08502">
        <ele>146</ele>
        <time>2010-03-19T13:04:31Z</time>
      </trkpt>
      <trkpt lat="48.61525" lon="2.08505">
        <ele>146</ele>
        <time>2010-03-19T13:04:32Z</time>
      </trkpt>
      <trkpt lat="48.61524" lon="2.08508">
        <ele>146</ele>
        <time>2010-03-19T13:04:33Z</time>
      </trkpt>
      <trkpt lat="48.61523" lon="2.0851">
        <ele>146</ele>
        <time>2010-03-19T13:04:34Z</time>
      </trkpt>
      <trkpt lat="48.61522" lon="2.08512">
        <ele>146</ele>
        <time>2010-03-19T13:04:35Z</time>
      </trkpt>
      <trkpt lat="48.61521" lon="2.08514">
        <ele>146</ele>
        <time>2010-03-19T13:04:36Z</time>
      </trkpt>
      <trkpt lat="48.6152" lon="2.08517">
        <ele>146</ele>
        <time>2010-03-19T13:04:37Z</time>
      </trkpt>
      <trkpt lat="48.61519" lon="2.08519">
        <ele>146</ele>
        <time>2010-03-19T13:04:38Z</time>
      </trkpt>
      <trkpt lat="48.61518" lon="2.08521">
        <ele>146</ele>
        <time>2010-03-19T13:04:39Z</time>
      </trkpt>
      <trkpt lat="48.61517" lon="2.08523">
        <ele>146</ele>
        <time>2010-03-19T13:04:40Z</time>
      </trkpt>
      <trkpt lat="48.61515" lon="2.08525">
        <ele>146</ele>
        <time>2010-03-19T13:04:41Z</time>
      </trkpt>
      <trkpt lat="48.61514" lon="2.08528">
        <ele>146</ele>
        <time>2010-03-19T13:04:42Z</time>
      </trkpt>
      <trkpt lat="48.61514" lon="2.0853">
        <ele>146</ele>
        <time>2010-03-19T13:04:43Z</time>
      </trkpt>
      <trkpt lat="48.61512" lon="2.08533">
        <ele>146</ele>
        <time>2010-03-19T13:04:44Z</time>
      </trkpt>
      <trkpt lat="48.61511" lon="2.08535">
        <ele>146</ele>
        <time>2010-03-19T13:04:45Z</time>
      </trkpt>
      <trkpt lat="48.6151" lon="2.08537">
        <ele>146</ele>
        <time>2010-03-19T13:04:46Z</time>
      </trkpt>
      <trkpt lat="48.6151" lon="2.08539">
        <ele>146</ele>
        <time>2010-03-19T13:04:47Z</time>
      </trkpt>
      <trkpt lat="48.61509" lon="2.08541">
        <ele>146</ele>
        <time>2010-03-19T13:04:48Z</time>
      </trkpt>
      <trkpt lat="48.61507" lon="2.08543">
        <ele>146</ele>
        <time>2010-03-19T13:04:49Z</time>
      </trkpt>
      <trkpt lat="48.61506" lon="2.08545">
        <ele>146</ele>
        <time>2010-03-19T13:04:50Z</time>
      </trkpt>
      <trkpt lat="48.61506" lon="2.08547">
        <ele>146</ele>
        <time>2010-03-19T13:04:51Z</time>
      </trkpt>
      <trkpt lat="48.61504" lon="2.08549">
        <ele>146</ele>
        <time>2010-03-19T13:04:52Z</time>
      </trkpt>
      <trkpt lat="48.61503" lon="2.0855">
        <ele>146</ele>
        <time>2010-03-19T13:04:53Z</time>
      </trkpt>
      <trkpt lat="48.61502" lon="2.08552">
        <ele>146</ele>
        <time>2010-03-19T13:04:54Z</time>
      </trkpt>
      <trkpt lat="48.61501" lon="2.08554">
        <ele>146</ele>
        <time>2010-03-19T13:04:55Z</time>
      </trkpt>
      <trkpt lat="48.61499" lon="2.08556">
        <ele>146</ele>
        <time>2010-03-19T13:04:56Z</time>
      </trkpt>
      <trkpt lat="48.61497" lon="2.08558">
        <ele>146</ele>
        <time>2010-03-19T13:04:57Z</time>
      </trkpt>
      <trkpt lat="48.61496" lon="2.0856">
        <ele>146</ele>
        <time>2010-03-19T13:04:58Z</time>
      </trkpt>
      <trkpt lat="48.61495" lon="2.08562">
        <ele>146</ele>
        <time>2010-03-19T13:04:59Z</time>
      </trkpt>
      <trkpt lat="48.61494" lon="2.08564">
        <ele>145</ele>
        <time>2010-03-19T13:05:00Z</time>
      </trkpt>
      <trkpt lat="48.61492" lon="2.08566">
        <ele>145</ele>
        <time>2010-03-19T13:05:01Z</time>
      </trkpt>
      <trkpt lat="48.61491" lon="2.08568">
        <ele>145</ele>
        <time>2010-03-19T13:05:02Z</time>
      </trkpt>
      <trkpt lat="48.61489" lon="2.0857">
        <ele>145</ele>
        <time>2010-03-19T13:05:03Z</time>
      </trkpt>
      <trkpt lat="48.61487" lon="2.08572">
        <ele>145</ele>
        <time>2010-03-19T13:05:04Z</time>
      </trkpt>
      <trkpt lat="48.61485" lon="2.08574">
        <ele>145</ele>
        <time>2010-03-19T13:05:05Z</time>
      </trkpt>
      <trkpt lat="48.61483" lon="2.08575">
        <ele>145</ele>
        <time>2010-03-19T13:05:06Z</time>
      </trkpt>
      <trkpt lat="48.61481" lon="2.08576">
        <ele>145</ele>
        <time>2010-03-19T13:05:07Z</time>
      </trkpt>
      <trkpt lat="48.61479" lon="2.08577">
        <ele>145</ele>
        <time>2010-03-19T13:05:08Z</time>
      </trkpt>
      <trkpt lat="48.61477" lon="2.08578">
        <ele>145</ele>
        <time>2010-03-19T13:05:09Z</time>
      </trkpt>
      <trkpt lat="48.61474" lon="2.08579">
        <ele>145</ele>
        <time>2010-03-19T13:05:10Z</time>
      </trkpt>
      <trkpt lat="48.61472" lon="2.08581">
        <ele>145</ele>
        <time>2010-03-19T13:05:11Z</time>
      </trkpt>
      <trkpt lat="48.6147" lon="2.08581">
        <ele>145</ele>
        <time>2010-03-19T13:05:12Z</time>
      </trkpt>
      <trkpt lat="48.61468" lon="2.08582">
        <ele>146</ele>
        <time>2010-03-19T13:05:13Z</time>
      </trkpt>
      <trkpt lat="48.61465" lon="2.08583">
        <ele>147</ele>
        <time>2010-03-19T13:05:14Z</time>
      </trkpt>
      <trkpt lat="48.61464" lon="2.08584">
        <ele>148</ele>
        <time>2010-03-19T13:05:15Z</time>
      </trkpt>
      <trkpt lat="48.61462" lon="2.08584">
        <ele>149</ele>
        <time>2010-03-19T13:05:16Z</time>
      </trkpt>
      <trkpt lat="48.61461" lon="2.08585">
        <ele>150</ele>
        <time>2010-03-19T13:05:17Z</time>
      </trkpt>
      <trkpt lat="48.61459" lon="2.08586">
        <ele>151</ele>
        <time>2010-03-19T13:05:18Z</time>
      </trkpt>
      <trkpt lat="48.61457" lon="2.08587">
        <ele>152</ele>
        <time>2010-03-19T13:05:19Z</time>
      </trkpt>
      <trkpt lat="48.61455" lon="2.08589">
        <ele>152</ele>
        <time>2010-03-19T13:05:21Z</time>
      </trkpt>
      <trkpt lat="48.61453" lon="2.0859">
        <ele>152</ele>
        <time>2010-03-19T13:05:22Z</time>
      </trkpt>
      <trkpt lat="48.61451" lon="2.08592">
        <ele>152</ele>
        <time>2010-03-19T13:05:23Z</time>
      </trkpt>
      <trkpt lat="48.61451" lon="2.08593">
        <ele>152</ele>
        <time>2010-03-19T13:05:24Z</time>
      </trkpt>
      <trkpt lat="48.61448" lon="2.08596">
        <ele>152</ele>
        <time>2010-03-19T13:05:26Z</time>
      </trkpt>
      <trkpt lat="48.61447" lon="2.08598">
        <ele>152</ele>
        <time>2010-03-19T13:05:27Z</time>
      </trkpt>
      <trkpt lat="48.61445" lon="2.08599">
        <ele>152</ele>
        <time>2010-03-19T13:05:29Z</time>
      </trkpt>
      <trkpt lat="48.61444" lon="2.08601">
        <ele>152</ele>
        <time>2010-03-19T13:05:31Z</time>
      </trkpt>
      <trkpt lat="48.61441" lon="2.08602">
        <ele>152</ele>
        <time>2010-03-19T13:05:33Z</time>
      </trkpt>
      <trkpt lat="48.6144" lon="2.08604">
        <ele>152</ele>
        <time>2010-03-19T13:05:34Z</time>
      </trkpt>
      <trkpt lat="48.61438" lon="2.08605">
        <ele>152</ele>
        <time>2010-03-19T13:05:35Z</time>
      </trkpt>
      <trkpt lat="48.61437" lon="2.08606">
        <ele>152</ele>
        <time>2010-03-19T13:05:36Z</time>
      </trkpt>
      <trkpt lat="48.61436" lon="2.08608">
        <ele>152</ele>
        <time>2010-03-19T13:05:37Z</time>
      </trkpt>
      <trkpt lat="48.61435" lon="2.08609">
        <ele>152</ele>
        <time>2010-03-19T13:05:38Z</time>
      </trkpt>
      <trkpt lat="48.61433" lon="2.0861">
        <ele>151</ele>
        <time>2010-03-19T13:05:39Z</time>
      </trkpt>
      <trkpt lat="48.61432" lon="2.08611">
        <ele>151</ele>
        <time>2010-03-19T13:05:40Z</time>
      </trkpt>
      <trkpt lat="48.6143" lon="2.08612">
        <ele>151</ele>
        <time>2010-03-19T13:05:41Z</time>
      </trkpt>
      <trkpt lat="48.61428" lon="2.08614">
        <ele>151</ele>
        <time>2010-03-19T13:05:42Z</time>
      </trkpt>
      <trkpt lat="48.61427" lon="2.08615">
        <ele>151</ele>
        <time>2010-03-19T13:05:43Z</time>
      </trkpt>
      <trkpt lat="48.61426" lon="2.08616">
        <ele>151</ele>
        <time>2010-03-19T13:05:44Z</time>
      </trkpt>
      <trkpt lat="48.61424" lon="2.08618">
        <ele>151</ele>
        <time>2010-03-19T13:05:45Z</time>
      </trkpt>
      <trkpt lat="48.61423" lon="2.08619">
        <ele>151</ele>
        <time>2010-03-19T13:05:46Z</time>
      </trkpt>
      <trkpt lat="48.61422" lon="2.08621">
        <ele>151</ele>
        <time>2010-03-19T13:05:47Z</time>
      </trkpt>
      <trkpt lat="48.6142" lon="2.08622">
        <ele>151</ele>
        <time>2010-03-19T13:05:48Z</time>
      </trkpt>
      <trkpt lat="48.61419" lon="2.08624">
        <ele>151</ele>
        <time>2010-03-19T13:05:49Z</time>
      </trkpt>
      <trkpt lat="48.61418" lon="2.08625">
        <ele>151</ele>
        <time>2010-03-19T13:05:50Z</time>
      </trkpt>
      <trkpt lat="48.61415" lon="2.08628">
        <ele>151</ele>
        <time>2010-03-19T13:05:52Z</time>
      </trkpt>
      <trkpt lat="48.61414" lon="2.08631">
        <ele>150</ele>
        <time>2010-03-19T13:05:54Z</time>
      </trkpt>
      <trkpt lat="48.61414" lon="2.08633">
        <ele>150</ele>
        <time>2010-03-19T13:05:55Z</time>
      </trkpt>
      <trkpt lat="48.61414" lon="2.08635">
        <ele>149</ele>
        <time>2010-03-19T13:05:56Z</time>
      </trkpt>
      <trkpt lat="48.61413" lon="2.08637">
        <ele>148</ele>
        <time>2010-03-19T13:05:57Z</time>
      </trkpt>
      <trkpt lat="48.61413" lon="2.08639">
        <ele>148</ele>
        <time>2010-03-19T13:05:58Z</time>
      </trkpt>
      <trkpt lat="48.61413" lon="2.08642">
        <ele>147</ele>
        <time>2010-03-19T13:05:59Z</time>
      </trkpt>
      <trkpt lat="48.61412" lon="2.08644">
        <ele>146</ele>
        <time>2010-03-19T13:06:00Z</time>
      </trkpt>
      <trkpt lat="48.61411" lon="2.08647">
        <ele>146</ele>
        <time>2010-03-19T13:06:01Z</time>
      </trkpt>
      <trkpt lat="48.61411" lon="2.08649">
        <ele>146</ele>
        <time>2010-03-19T13:06:02Z</time>
      </trkpt>
      <trkpt lat="48.61409" lon="2.08652">
        <ele>146</ele>
        <time>2010-03-19T13:06:03Z</time>
      </trkpt>
      <trkpt lat="48.61407" lon="2.08654">
        <ele>146</ele>
        <time>2010-03-19T13:06:04Z</time>
      </trkpt>
      <trkpt lat="48.61407" lon="2.08656">
        <ele>146</ele>
        <time>2010-03-19T13:06:05Z</time>
      </trkpt>
      <trkpt lat="48.61406" lon="2.08658">
        <ele>146</ele>
        <time>2010-03-19T13:06:06Z</time>
      </trkpt>
      <trkpt lat="48.61404" lon="2.08661">
        <ele>145</ele>
        <time>2010-03-19T13:06:08Z</time>
      </trkpt>
      <trkpt lat="48.61403" lon="2.08663">
        <ele>145</ele>
        <time>2010-03-19T13:06:09Z</time>
      </trkpt>
      <trkpt lat="48.61403" lon="2.08665">
        <ele>145</ele>
        <time>2010-03-19T13:06:10Z</time>
      </trkpt>
      <trkpt lat="48.61402" lon="2.08667">
        <ele>145</ele>
        <time>2010-03-19T13:06:11Z</time>
      </trkpt>
      <trkpt lat="48.61401" lon="2.08669">
        <ele>145</ele>
        <time>2010-03-19T13:06:12Z</time>
      </trkpt>
      <trkpt lat="48.614" lon="2.08671">
        <ele>145</ele>
        <time>2010-03-19T13:06:13Z</time>
      </trkpt>
      <trkpt lat="48.61399" lon="2.08673">
        <ele>145</ele>
        <time>2010-03-19T13:06:14Z</time>
      </trkpt>
      <trkpt lat="48.61398" lon="2.08675">
        <ele>145</ele>
        <time>2010-03-19T13:06:15Z</time>
      </trkpt>
      <trkpt lat="48.61397" lon="2.08677">
        <ele>144</ele>
        <time>2010-03-19T13:06:16Z</time>
      </trkpt>
      <trkpt lat="48.61396" lon="2.08679">
        <ele>144</ele>
        <time>2010-03-19T13:06:17Z</time>
      </trkpt>
      <trkpt lat="48.61395" lon="2.08681">
        <ele>144</ele>
        <time>2010-03-19T13:06:18Z</time>
      </trkpt>
      <trkpt lat="48.61394" lon="2.08683">
        <ele>144</ele>
        <time>2010-03-19T13:06:19Z</time>
      </trkpt>
      <trkpt lat="48.61392" lon="2.08685">
        <ele>144</ele>
        <time>2010-03-19T13:06:20Z</time>
      </trkpt>
      <trkpt lat="48.61391" lon="2.08687">
        <ele>144</ele>
        <time>2010-03-19T13:06:21Z</time>
      </trkpt>
      <trkpt lat="48.6139" lon="2.08689">
        <ele>144</ele>
        <time>2010-03-19T13:06:22Z</time>
      </trkpt>
      <trkpt lat="48.6139" lon="2.08692">
        <ele>144</ele>
        <time>2010-03-19T13:06:23Z</time>
      </trkpt>
      <trkpt lat="48.61388" lon="2.08694">
        <ele>144</ele>
        <time>2010-03-19T13:06:24Z</time>
      </trkpt>
      <trkpt lat="48.61387" lon="2.08697">
        <ele>144</ele>
        <time>2010-03-19T13:06:25Z</time>
      </trkpt>
      <trkpt lat="48.61386" lon="2.08699">
        <ele>144</ele>
        <time>2010-03-19T13:06:26Z</time>
      </trkpt>
      <trkpt lat="48.61385" lon="2.08702">
        <ele>144</ele>
        <time>2010-03-19T13:06:27Z</time>
      </trkpt>
      <trkpt lat="48.61384" lon="2.08704">
        <ele>144</ele>
        <time>2010-03-19T13:06:28Z</time>
      </trkpt>
      <trkpt lat="48.61383" lon="2.08707">
        <ele>144</ele>
        <time>2010-03-19T13:06:29Z</time>
      </trkpt>
      <trkpt lat="48.61382" lon="2.08709">
        <ele>144</ele>
        <time>2010-03-19T13:06:30Z</time>
      </trkpt>
      <trkpt lat="48.61381" lon="2.08712">
        <ele>144</ele>
        <time>2010-03-19T13:06:31Z</time>
      </trkpt>
      <trkpt lat="48.6138" lon="2.08714">
        <ele>144</ele>
        <time>2010-03-19T13:06:32Z</time>
      </trkpt>
      <trkpt lat="48.61379" lon="2.08716">
        <ele>144</ele>
        <time>2010-03-19T13:06:33Z</time>
      </trkpt>
      <trkpt lat="48.61378" lon="2.08719">
        <ele>144</ele>
        <time>2010-03-19T13:06:34Z</time>
      </trkpt>
      <trkpt lat="48.61376" lon="2.08722">
        <ele>144</ele>
        <time>2010-03-19T13:06:35Z</time>
      </trkpt>
      <trkpt lat="48.61374" lon="2.08726">
        <ele>144</ele>
        <time>2010-03-19T13:06:36Z</time>
      </trkpt>
      <trkpt lat="48.61374" lon="2.08728">
        <ele>144</ele>
        <time>2010-03-19T13:06:37Z</time>
      </trkpt>
      <trkpt lat="48.61374" lon="2.0873">
        <ele>144</ele>
        <time>2010-03-19T13:06:39Z</time>
      </trkpt>
      <trkpt lat="48.61373" lon="2.08733">
        <ele>144</ele>
        <time>2010-03-19T13:06:40Z</time>
      </trkpt>
      <trkpt lat="48.61372" lon="2.08735">
        <ele>144</ele>
        <time>2010-03-19T13:06:41Z</time>
      </trkpt>
      <trkpt lat="48.61371" lon="2.08738">
        <ele>144</ele>
        <time>2010-03-19T13:06:42Z</time>
      </trkpt>
      <trkpt lat="48.6137" lon="2.0874">
        <ele>144</ele>
        <time>2010-03-19T13:06:43Z</time>
      </trkpt>
      <trkpt lat="48.6137" lon="2.08744">
        <ele>144</ele>
        <time>2010-03-19T13:06:45Z</time>
      </trkpt>
      <trkpt lat="48.61369" lon="2.08746">
        <ele>144</ele>
        <time>2010-03-19T13:06:46Z</time>
      </trkpt>
      <trkpt lat="48.61368" lon="2.08749">
        <ele>144</ele>
        <time>2010-03-19T13:06:47Z</time>
      </trkpt>
      <trkpt lat="48.61367" lon="2.08751">
        <ele>144</ele>
        <time>2010-03-19T13:06:48Z</time>
      </trkpt>
      <trkpt lat="48.61366" lon="2.08753">
        <ele>144</ele>
        <time>2010-03-19T13:06:49Z</time>
      </trkpt>
      <trkpt lat="48.61366" lon="2.08755">
        <ele>144</ele>
        <time>2010-03-19T13:06:50Z</time>
      </trkpt>
      <trkpt lat="48.61366" lon="2.08757">
        <ele>144</ele>
        <time>2010-03-19T13:06:51Z</time>
      </trkpt>
      <trkpt lat="48.61366" lon="2.08759">
        <ele>144</ele>
        <time>2010-03-19T13:06:52Z</time>
      </trkpt>
      <trkpt lat="48.61365" lon="2.08761">
        <ele>144</ele>
        <time>2010-03-19T13:06:53Z</time>
      </trkpt>
      <trkpt lat="48.61364" lon="2.08764">
        <ele>144</ele>
        <time>2010-03-19T13:06:54Z</time>
      </trkpt>
      <trkpt lat="48.61364" lon="2.08766">
        <ele>144</ele>
        <time>2010-03-19T13:06:55Z</time>
      </trkpt>
      <trkpt lat="48.61363" lon="2.08768">
        <ele>144</ele>
        <time>2010-03-19T13:06:56Z</time>
      </trkpt>
      <trkpt lat="48.61362" lon="2.0877">
        <ele>144</ele>
        <time>2010-03-19T13:06:57Z</time>
      </trkpt>
      <trkpt lat="48.61362" lon="2.08773">
        <ele>143</ele>
        <time>2010-03-19T13:06:58Z</time>
      </trkpt>
      <trkpt lat="48.61361" lon="2.08775">
        <ele>143</ele>
        <time>2010-03-19T13:06:59Z</time>
      </trkpt>
      <trkpt lat="48.61361" lon="2.08777">
        <ele>143</ele>
        <time>2010-03-19T13:07:00Z</time>
      </trkpt>
      <trkpt lat="48.61361" lon="2.0878">
        <ele>143</ele>
        <time>2010-03-19T13:07:01Z</time>
      </trkpt>
      <trkpt lat="48.6136" lon="2.08782">
        <ele>142</ele>
        <time>2010-03-19T13:07:02Z</time>
      </trkpt>
      <trkpt lat="48.61359" lon="2.08785">
        <ele>142</ele>
        <time>2010-03-19T13:07:03Z</time>
      </trkpt>
      <trkpt lat="48.61359" lon="2.08787">
        <ele>142</ele>
        <time>2010-03-19T13:07:04Z</time>
      </trkpt>
      <trkpt lat="48.61358" lon="2.08789">
        <ele>142</ele>
        <time>2010-03-19T13:07:05Z</time>
      </trkpt>
      <trkpt lat="48.61357" lon="2.08792">
        <ele>141</ele>
        <time>2010-03-19T13:07:06Z</time>
      </trkpt>
      <trkpt lat="48.61357" lon="2.08794">
        <ele>141</ele>
        <time>2010-03-19T13:07:07Z</time>
      </trkpt>
      <trkpt lat="48.61357" lon="2.08797">
        <ele>141</ele>
        <time>2010-03-19T13:07:08Z</time>
      </trkpt>
      <trkpt lat="48.61357" lon="2.08799">
        <ele>141</ele>
        <time>2010-03-19T13:07:09Z</time>
      </trkpt>
      <trkpt lat="48.61357" lon="2.08801">
        <ele>141</ele>
        <time>2010-03-19T13:07:10Z</time>
      </trkpt>
      <trkpt lat="48.61357" lon="2.08804">
        <ele>141</ele>
        <time>2010-03-19T13:07:11Z</time>
      </trkpt>
      <trkpt lat="48.61357" lon="2.08807">
        <ele>141</ele>
        <time>2010-03-19T13:07:12Z</time>
      </trkpt>
      <trkpt lat="48.61357" lon="2.0881">
        <ele>141</ele>
        <time>2010-03-19T13:07:13Z</time>
      </trkpt>
      <trkpt lat="48.61357" lon="2.08814">
        <ele>141</ele>
        <time>2010-03-19T13:07:14Z</time>
      </trkpt>
      <trkpt lat="48.61358" lon="2.08818">
        <ele>141</ele>
        <time>2010-03-19T13:07:15Z</time>
      </trkpt>
      <trkpt lat="48.61359" lon="2.08823">
        <ele>140</ele>
        <time>2010-03-19T13:07:16Z</time>
      </trkpt>
      <trkpt lat="48.61359" lon="2.08827">
        <ele>140</ele>
        <time>2010-03-19T13:07:17Z</time>
      </trkpt>
      <trkpt lat="48.61359" lon="2.08833">
        <ele>140</ele>
        <time>2010-03-19T13:07:18Z</time>
      </trkpt>
      <trkpt lat="48.6136" lon="2.08837">
        <ele>140</ele>
        <time>2010-03-19T13:07:19Z</time>
      </trkpt>
      <trkpt lat="48.6136" lon="2.08842">
        <ele>140</ele>
        <time>2010-03-19T13:07:20Z</time>
      </trkpt>
      <trkpt lat="48.61361" lon="2.08846">
        <ele>140</ele>
        <time>2010-03-19T13:07:21Z</time>
      </trkpt>
      <trkpt lat="48.61361" lon="2.08851">
        <ele>139</ele>
        <time>2010-03-19T13:07:22Z</time>
      </trkpt>
      <trkpt lat="48.61362" lon="2.08856">
        <ele>139</ele>
        <time>2010-03-19T13:07:23Z</time>
      </trkpt>
      <trkpt lat="48.61362" lon="2.08861">
        <ele>139</ele>
        <time>2010-03-19T13:07:24Z</time>
      </trkpt>
      <trkpt lat="48.61363" lon="2.08866">
        <ele>139</ele>
        <time>2010-03-19T13:07:25Z</time>
      </trkpt>
      <trkpt lat="48.61364" lon="2.08871">
        <ele>139</ele>
        <time>2010-03-19T13:07:26Z</time>
      </trkpt>
      <trkpt lat="48.61365" lon="2.08877">
        <ele>139</ele>
        <time>2010-03-19T13:07:27Z</time>
      </trkpt>
      <trkpt lat="48.61366" lon="2.08883">
        <ele>139</ele>
        <time>2010-03-19T13:07:28Z</time>
      </trkpt>
      <trkpt lat="48.61366" lon="2.0889">
        <ele>138</ele>
        <time>2010-03-19T13:07:29Z</time>
      </trkpt>
      <trkpt lat="48.61367" lon="2.08896">
        <ele>138</ele>
        <time>2010-03-19T13:07:30Z</time>
      </trkpt>
      <trkpt lat="48.61368" lon="2.08902">
        <ele>138</ele>
        <time>2010-03-19T13:07:31Z</time>
      </trkpt>
      <trkpt lat="48.61369" lon="2.08908">
        <ele>138</ele>
        <time>2010-03-19T13:07:32Z</time>
      </trkpt>
      <trkpt lat="48.6137" lon="2.08914">
        <ele>138</ele>
        <time>2010-03-19T13:07:33Z</time>
      </trkpt>
      <trkpt lat="48.61371" lon="2.0892">
        <ele>138</ele>
        <time>2010-03-19T13:07:34Z</time>
      </trkpt>
      <trkpt lat="48.61372" lon="2.08926">
        <ele>138</ele>
        <time>2010-03-19T13:07:35Z</time>
      </trkpt>
      <trkpt lat="48.61372" lon="2.08932">
        <ele>137</ele>
        <time>2010-03-19T13:07:36Z</time>
      </trkpt>
      <trkpt lat="48.61372" lon="2.08939">
        <ele>137</ele>
        <time>2010-03-19T13:07:37Z</time>
      </trkpt>
      <trkpt lat="48.61372" lon="2.08944">
        <ele>137</ele>
        <time>2010-03-19T13:07:38Z</time>
      </trkpt>
      <trkpt lat="48.61371" lon="2.0895">
        <ele>137</ele>
        <time>2010-03-19T13:07:39Z</time>
      </trkpt>
      <trkpt lat="48.61369" lon="2.08955">
        <ele>137</ele>
        <time>2010-03-19T13:07:40Z</time>
      </trkpt>
      <trkpt lat="48.61367" lon="2.0896">
        <ele>137</ele>
        <time>2010-03-19T13:07:41Z</time>
      </trkpt>
      <trkpt lat="48.61365" lon="2.08964">
        <ele>137</ele>
        <time>2010-03-19T13:07:42Z</time>
      </trkpt>
      <trkpt lat="48.61363" lon="2.08969">
        <ele>137</ele>
        <time>2010-03-19T13:07:43Z</time>
      </trkpt>
      <trkpt lat="48.61361" lon="2.08973">
        <ele>137</ele>
        <time>2010-03-19T13:07:44Z</time>
      </trkpt>
      <trkpt lat="48.61359" lon="2.08976">
        <ele>137</ele>
        <time>2010-03-19T13:07:45Z</time>
      </trkpt>
      <trkpt lat="48.61357" lon="2.0898">
        <ele>136</ele>
        <time>2010-03-19T13:07:46Z</time>
      </trkpt>
      <trkpt lat="48.61355" lon="2.08983">
        <ele>136</ele>
        <time>2010-03-19T13:07:47Z</time>
      </trkpt>
      <trkpt lat="48.61353" lon="2.08987">
        <ele>136</ele>
        <time>2010-03-19T13:07:48Z</time>
      </trkpt>
      <trkpt lat="48.61352" lon="2.08992">
        <ele>136</ele>
        <time>2010-03-19T13:07:49Z</time>
      </trkpt>
      <trkpt lat="48.6135" lon="2.08997">
        <ele>136</ele>
        <time>2010-03-19T13:07:50Z</time>
      </trkpt>
      <trkpt lat="48.61349" lon="2.09003">
        <ele>136</ele>
        <time>2010-03-19T13:07:51Z</time>
      </trkpt>
      <trkpt lat="48.61349" lon="2.09009">
        <ele>136</ele>
        <time>2010-03-19T13:07:52Z</time>
      </trkpt>
      <trkpt lat="48.61348" lon="2.09015">
        <ele>136</ele>
        <time>2010-03-19T13:07:53Z</time>
      </trkpt>
      <trkpt lat="48.61348" lon="2.09021">
        <ele>136</ele>
        <time>2010-03-19T13:07:54Z</time>
      </trkpt>
      <trkpt lat="48.61348" lon="2.09027">
        <ele>136</ele>
        <time>2010-03-19T13:07:55Z</time>
      </trkpt>
      <trkpt lat="48.61348" lon="2.09032">
        <ele>136</ele>
        <time>2010-03-19T13:07:56Z</time>
      </trkpt>
      <trkpt lat="48.61348" lon="2.09037">
        <ele>136</ele>
        <time>2010-03-19T13:07:57Z</time>
      </trkpt>
      <trkpt lat="48.61348" lon="2.09041">
        <ele>136</ele>
        <time>2010-03-19T13:07:58Z</time>
      </trkpt>
      <trkpt lat="48.61348" lon="2.09046">
        <ele>136</ele>
        <time>2010-03-19T13:07:59Z</time>
      </trkpt>
      <trkpt lat="48.61349" lon="2.09051">
        <ele>135</ele>
        <time>2010-03-19T13:08:00Z</time>
      </trkpt>
      <trkpt lat="48.61349" lon="2.09056">
        <ele>135</ele>
        <time>2010-03-19T13:08:01Z</time>
      </trkpt>
      <trkpt lat="48.6135" lon="2.09061">
        <ele>135</ele>
        <time>2010-03-19T13:08:02Z</time>
      </trkpt>
      <trkpt lat="48.61351" lon="2.09066">
        <ele>135</ele>
        <time>2010-03-19T13:08:03Z</time>
      </trkpt>
      <trkpt lat="48.61352" lon="2.09071">
        <ele>135</ele>
        <time>2010-03-19T13:08:04Z</time>
      </trkpt>
      <trkpt lat="48.61352" lon="2.09077">
        <ele>135</ele>
        <time>2010-03-19T13:08:05Z</time>
      </trkpt>
      <trkpt lat="48.61352" lon="2.09083">
        <ele>135</ele>
        <time>2010-03-19T13:08:06Z</time>
      </trkpt>
      <trkpt lat="48.61353" lon="2.09089">
        <ele>135</ele>
        <time>2010-03-19T13:08:07Z</time>
      </trkpt>
      <trkpt lat="48.61354" lon="2.09096">
        <ele>134</ele>
        <time>2010-03-19T13:08:08Z</time>
      </trkpt>
      <trkpt lat="48.61355" lon="2.09103">
        <ele>134</ele>
        <time>2010-03-19T13:08:09Z</time>
      </trkpt>
      <trkpt lat="48.61356" lon="2.09109">
        <ele>134</ele>
        <time>2010-03-19T13:08:10Z</time>
      </trkpt>
      <trkpt lat="48.61356" lon="2.09116">
        <ele>134</ele>
        <time>2010-03-19T13:08:11Z</time>
      </trkpt>
      <trkpt lat="48.61358" lon="2.09122">
        <ele>134</ele>
        <time>2010-03-19T13:08:12Z</time>
      </trkpt>
      <trkpt lat="48.6136" lon="2.09128">
        <ele>134</ele>
        <time>2010-03-19T13:08:13Z</time>
      </trkpt>
      <trkpt lat="48.61361" lon="2.09135">
        <ele>134</ele>
        <time>2010-03-19T13:08:14Z</time>
      </trkpt>
      <trkpt lat="48.61361" lon="2.09141">
        <ele>134</ele>
        <time>2010-03-19T13:08:15Z</time>
      </trkpt>
      <trkpt lat="48.61362" lon="2.09148">
        <ele>134</ele>
        <time>2010-03-19T13:08:16Z</time>
      </trkpt>
      <trkpt lat="48.61363" lon="2.09153">
        <ele>134</ele>
        <time>2010-03-19T13:08:17Z</time>
      </trkpt>
      <trkpt lat="48.61364" lon="2.09159">
        <ele>134</ele>
        <time>2010-03-19T13:08:18Z</time>
      </trkpt>
      <trkpt lat="48.61364" lon="2.09164">
        <ele>134</ele>
        <time>2010-03-19T13:08:19Z</time>
      </trkpt>
      <trkpt lat="48.61365" lon="2.09169">
        <ele>134</ele>
        <time>2010-03-19T13:08:20Z</time>
      </trkpt>
      <trkpt lat="48.61366" lon="2.09175">
        <ele>134</ele>
        <time>2010-03-19T13:08:21Z</time>
      </trkpt>
      <trkpt lat="48.61366" lon="2.0918">
        <ele>134</ele>
        <time>2010-03-19T13:08:22Z</time>
      </trkpt>
      <trkpt lat="48.61367" lon="2.09186">
        <ele>134</ele>
        <time>2010-03-19T13:08:23Z</time>
      </trkpt>
      <trkpt lat="48.61367" lon="2.09191">
        <ele>134</ele>
        <time>2010-03-19T13:08:24Z</time>
      </trkpt>
      <trkpt lat="48.61368" lon="2.09196">
        <ele>134</ele>
        <time>2010-03-19T13:08:25Z</time>
      </trkpt>
      <trkpt lat="48.61369" lon="2.09201">
        <ele>133</ele>
        <time>2010-03-19T13:08:26Z</time>
      </trkpt>
      <trkpt lat="48.6137" lon="2.09206">
        <ele>133</ele>
        <time>2010-03-19T13:08:27Z</time>
      </trkpt>
      <trkpt lat="48.61371" lon="2.09211">
        <ele>133</ele>
        <time>2010-03-19T13:08:28Z</time>
      </trkpt>
      <trkpt lat="48.61374" lon="2.09215">
        <ele>133</ele>
        <time>2010-03-19T13:08:29Z</time>
      </trkpt>
      <trkpt lat="48.61376" lon="2.09217">
        <ele>133</ele>
        <time>2010-03-19T13:08:30Z</time>
      </trkpt>
      <trkpt lat="48.61379" lon="2.09217">
        <ele>133</ele>
        <time>2010-03-19T13:08:31Z</time>
      </trkpt>
      <trkpt lat="48.61382" lon="2.09216">
        <ele>133</ele>
        <time>2010-03-19T13:08:32Z</time>
      </trkpt>
      <trkpt lat="48.61385" lon="2.09214">
        <ele>133</ele>
        <time>2010-03-19T13:08:33Z</time>
      </trkpt>
      <trkpt lat="48.61389" lon="2.09212">
        <ele>133</ele>
        <time>2010-03-19T13:08:34Z</time>
      </trkpt>
      <trkpt lat="48.61393" lon="2.0921">
        <ele>133</ele>
        <time>2010-03-19T13:08:35Z</time>
      </trkpt>
      <trkpt lat="48.61397" lon="2.09208">
        <ele>133</ele>
        <time>2010-03-19T13:08:36Z</time>
      </trkpt>
      <trkpt lat="48.61401" lon="2.09207">
        <ele>133</ele>
        <time>2010-03-19T13:08:37Z</time>
      </trkpt>
      <trkpt lat="48.61405" lon="2.09205">
        <ele>133</ele>
        <time>2010-03-19T13:08:38Z</time>
      </trkpt>
      <trkpt lat="48.61409" lon="2.09203">
        <ele>133</ele>
        <time>2010-03-19T13:08:39Z</time>
      </trkpt>
      <trkpt lat="48.61412" lon="2.09202">
        <ele>133</ele>
        <time>2010-03-19T13:08:40Z</time>
      </trkpt>
      <trkpt lat="48.61415" lon="2.092">
        <ele>133</ele>
        <time>2010-03-19T13:08:41Z</time>
      </trkpt>
      <trkpt lat="48.61419" lon="2.09199">
        <ele>133</ele>
        <time>2010-03-19T13:08:42Z</time>
      </trkpt>
      <trkpt lat="48.61421" lon="2.09198">
        <ele>133</ele>
        <time>2010-03-19T13:08:43Z</time>
      </trkpt>
      <trkpt lat="48.61425" lon="2.09197">
        <ele>133</ele>
        <time>2010-03-19T13:08:44Z</time>
      </trkpt>
      <trkpt lat="48.61428" lon="2.09196">
        <ele>133</ele>
        <time>2010-03-19T13:08:45Z</time>
      </trkpt>
      <trkpt lat="48.61432" lon="2.09196">
        <ele>133</ele>
        <time>2010-03-19T13:08:46Z</time>
      </trkpt>
      <trkpt lat="48.61435" lon="2.09196">
        <ele>133</ele>
        <time>2010-03-19T13:08:47Z</time>
      </trkpt>
      <trkpt lat="48.61437" lon="2.09196">
        <ele>133</ele>
        <time>2010-03-19T13:08:48Z</time>
      </trkpt>
      <trkpt lat="48.6144" lon="2.09196">
        <ele>133</ele>
        <time>2010-03-19T13:08:49Z</time>
      </trkpt>
      <trkpt lat="48.61443" lon="2.09196">
        <ele>133</ele>
        <time>2010-03-19T13:08:50Z</time>
      </trkpt>
      <trkpt lat="48.61446" lon="2.09196">
        <ele>133</ele>
        <time>2010-03-19T13:08:51Z</time>
      </trkpt>
      <trkpt lat="48.61448" lon="2.09196">
        <ele>133</ele>
        <time>2010-03-19T13:08:52Z</time>
      </trkpt>
      <trkpt lat="48.61451" lon="2.09196">
        <ele>133</ele>
        <time>2010-03-19T13:08:53Z</time>
      </trkpt>
      <trkpt lat="48.61452" lon="2.09196">
        <ele>133</ele>
        <time>2010-03-19T13:08:54Z</time>
      </trkpt>
      <trkpt lat="48.61454" lon="2.09196">
        <ele>133</ele>
        <time>2010-03-19T13:08:55Z</time>
      </trkpt>
      <trkpt lat="48.61455" lon="2.09197">
        <ele>133</ele>
        <time>2010-03-19T13:08:56Z</time>
      </trkpt>
      <trkpt lat="48.61457" lon="2.09198">
        <ele>133</ele>
        <time>2010-03-19T13:08:57Z</time>
      </trkpt>
      <trkpt lat="48.61459" lon="2.09199">
        <ele>133</ele>
        <time>2010-03-19T13:08:58Z</time>
      </trkpt>
      <trkpt lat="48.6146" lon="2.092">
        <ele>133</ele>
        <time>2010-03-19T13:08:59Z</time>
      </trkpt>
      <trkpt lat="48.61461" lon="2.09201">
        <ele>133</ele>
        <time>2010-03-19T13:09:00Z</time>
      </trkpt>
      <trkpt lat="48.61463" lon="2.09204">
        <ele>133</ele>
        <time>2010-03-19T13:09:02Z</time>
      </trkpt>
      <trkpt lat="48.61464" lon="2.09206">
        <ele>133</ele>
        <time>2010-03-19T13:09:06Z</time>
      </trkpt>
      <trkpt lat="48.61463" lon="2.09207">
        <ele>133</ele>
        <time>2010-03-19T13:09:13Z</time>
      </trkpt>
      <trkpt lat="48.61462" lon="2.09207">
        <ele>133</ele>
        <time>2010-03-19T13:09:31Z</time>
      </trkpt>
      <trkpt lat="48.61463" lon="2.09209">
        <ele>133</ele>
        <time>2010-03-19T13:09:49Z</time>
      </trkpt>
      <trkpt lat="48.61464" lon="2.09211">
        <ele>133</ele>
        <time>2010-03-19T13:09:52Z</time>
      </trkpt>
      <trkpt lat="48.61465" lon="2.09214">
        <ele>133</ele>
        <time>2010-03-19T13:09:54Z</time>
      </trkpt>
      <trkpt lat="48.61465" lon="2.09216">
        <ele>133</ele>
        <time>2010-03-19T13:09:55Z</time>
      </trkpt>
      <trkpt lat="48.61465" lon="2.09219">
        <ele>133</ele>
        <time>2010-03-19T13:09:57Z</time>
      </trkpt>
      <trkpt lat="48.61465" lon="2.09221">
        <ele>133</ele>
        <time>2010-03-19T13:09:58Z</time>
      </trkpt>
      <trkpt lat="48.61465" lon="2.09223">
        <ele>133</ele>
        <time>2010-03-19T13:09:59Z</time>
      </trkpt>
      <trkpt lat="48.61465" lon="2.09224">
        <ele>133</ele>
        <time>2010-03-19T13:10:00Z</time>
      </trkpt>
      <trkpt lat="48.61465" lon="2.09226">
        <ele>133</ele>
        <time>2010-03-19T13:10:01Z</time>
      </trkpt>
      <trkpt lat="48.61465" lon="2.09228">
        <ele>133</ele>
        <time>2010-03-19T13:10:02Z</time>
      </trkpt>
      <trkpt lat="48.61465" lon="2.09229">
        <ele>133</ele>
        <time>2010-03-19T13:10:03Z</time>
      </trkpt>
      <trkpt lat="48.61466" lon="2.09231">
        <ele>133</ele>
        <time>2010-03-19T13:10:04Z</time>
      </trkpt>
      <trkpt lat="48.61467" lon="2.09234">
        <ele>133</ele>
        <time>2010-03-19T13:10:06Z</time>
      </trkpt>
      <trkpt lat="48.61467" lon="2.09236">
        <ele>133</ele>
        <time>2010-03-19T13:10:07Z</time>
      </trkpt>
      <trkpt lat="48.61468" lon="2.09239">
        <ele>133</ele>
        <time>2010-03-19T13:10:09Z</time>
      </trkpt>
      <trkpt lat="48.61468" lon="2.09241">
        <ele>133</ele>
        <time>2010-03-19T13:10:10Z</time>
      </trkpt>
      <trkpt lat="48.61468" lon="2.09243">
        <ele>133</ele>
        <time>2010-03-19T13:10:11Z</time>
      </trkpt>
      <trkpt lat="48.61468" lon="2.09245">
        <ele>133</ele>
        <time>2010-03-19T13:10:13Z</time>
      </trkpt>
      <trkpt lat="48.61469" lon="2.09248">
        <ele>133</ele>
        <time>2010-03-19T13:10:15Z</time>
      </trkpt>
      <trkpt lat="48.6147" lon="2.09252">
        <ele>133</ele>
        <time>2010-03-19T13:10:17Z</time>
      </trkpt>
      <trkpt lat="48.6147" lon="2.09254">
        <ele>133</ele>
        <time>2010-03-19T13:10:18Z</time>
      </trkpt>
      <trkpt lat="48.6147" lon="2.09256">
        <ele>133</ele>
        <time>2010-03-19T13:10:19Z</time>
      </trkpt>
      <trkpt lat="48.61471" lon="2.09258">
        <ele>133</ele>
        <time>2010-03-19T13:10:20Z</time>
      </trkpt>
      <trkpt lat="48.61471" lon="2.0926">
        <ele>133</ele>
        <time>2010-03-19T13:10:21Z</time>
      </trkpt>
      <trkpt lat="48.61472" lon="2.09261">
        <ele>133</ele>
        <time>2010-03-19T13:10:22Z</time>
      </trkpt>
      <trkpt lat="48.61472" lon="2.09263">
        <ele>133</ele>
        <time>2010-03-19T13:10:23Z</time>
      </trkpt>
      <trkpt lat="48.61472" lon="2.09265">
        <ele>133</ele>
        <time>2010-03-19T13:10:24Z</time>
      </trkpt>
      <trkpt lat="48.61473" lon="2.09268">
        <ele>133</ele>
        <time>2010-03-19T13:10:26Z</time>
      </trkpt>
      <trkpt lat="48.61474" lon="2.09269">
        <ele>133</ele>
        <time>2010-03-19T13:10:27Z</time>
      </trkpt>
      <trkpt lat="48.61474" lon="2.09271">
        <ele>133</ele>
        <time>2010-03-19T13:10:28Z</time>
      </trkpt>
      <trkpt lat="48.61475" lon="2.09273">
        <ele>133</ele>
        <time>2010-03-19T13:10:29Z</time>
      </trkpt>
      <trkpt lat="48.61475" lon="2.09275">
        <ele>133</ele>
        <time>2010-03-19T13:10:30Z</time>
      </trkpt>
      <trkpt lat="48.61475" lon="2.09277">
        <ele>133</ele>
        <time>2010-03-19T13:10:31Z</time>
      </trkpt>
      <trkpt lat="48.61476" lon="2.09278">
        <ele>133</ele>
        <time>2010-03-19T13:10:32Z</time>
      </trkpt>
      <trkpt lat="48.61477" lon="2.09281">
        <ele>133</ele>
        <time>2010-03-19T13:10:33Z</time>
      </trkpt>
      <trkpt lat="48.61477" lon="2.09283">
        <ele>133</ele>
        <time>2010-03-19T13:10:34Z</time>
      </trkpt>
      <trkpt lat="48.61477" lon="2.09285">
        <ele>133</ele>
        <time>2010-03-19T13:10:35Z</time>
      </trkpt>
      <trkpt lat="48.61477" lon="2.09287">
        <ele>133</ele>
        <time>2010-03-19T13:10:36Z</time>
      </trkpt>
      <trkpt lat="48.61478" lon="2.09289">
        <ele>133</ele>
        <time>2010-03-19T13:10:37Z</time>
      </trkpt>
      <trkpt lat="48.61478" lon="2.09291">
        <ele>133</ele>
        <time>2010-03-19T13:10:38Z</time>
      </trkpt>
      <trkpt lat="48.61478" lon="2.09293">
        <ele>133</ele>
        <time>2010-03-19T13:10:39Z</time>
      </trkpt>
      <trkpt lat="48.61479" lon="2.09295">
        <ele>133</ele>
        <time>2010-03-19T13:10:40Z</time>
      </trkpt>
      <trkpt lat="48.61479" lon="2.09296">
        <ele>133</ele>
        <time>2010-03-19T13:10:41Z</time>
      </trkpt>
      <trkpt lat="48.61479" lon="2.09298">
        <ele>133</ele>
        <time>2010-03-19T13:10:42Z</time>
      </trkpt>
      <trkpt lat="48.6148" lon="2.093">
        <ele>133</ele>
        <time>2010-03-19T13:10:43Z</time>
      </trkpt>
      <trkpt lat="48.6148" lon="2.09302">
        <ele>132</ele>
        <time>2010-03-19T13:10:44Z</time>
      </trkpt>
      <trkpt lat="48.61481" lon="2.09303">
        <ele>132</ele>
        <time>2010-03-19T13:10:45Z</time>
      </trkpt>
      <trkpt lat="48.61481" lon="2.09306">
        <ele>132</ele>
        <time>2010-03-19T13:10:46Z</time>
      </trkpt>
      <trkpt lat="48.61482" lon="2.09307">
        <ele>132</ele>
        <time>2010-03-19T13:10:47Z</time>
      </trkpt>
      <trkpt lat="48.61483" lon="2.0931">
        <ele>132</ele>
        <time>2010-03-19T13:10:48Z</time>
      </trkpt>
      <trkpt lat="48.61484" lon="2.09312">
        <ele>132</ele>
        <time>2010-03-19T13:10:49Z</time>
      </trkpt>
      <trkpt lat="48.61486" lon="2.09313">
        <ele>132</ele>
        <time>2010-03-19T13:10:50Z</time>
      </trkpt>
      <trkpt lat="48.61486" lon="2.09315">
        <ele>132</ele>
        <time>2010-03-19T13:10:51Z</time>
      </trkpt>
      <trkpt lat="48.61486" lon="2.09317">
        <ele>132</ele>
        <time>2010-03-19T13:10:52Z</time>
      </trkpt>
      <trkpt lat="48.61487" lon="2.09319">
        <ele>132</ele>
        <time>2010-03-19T13:10:53Z</time>
      </trkpt>
      <trkpt lat="48.61488" lon="2.09321">
        <ele>132</ele>
        <time>2010-03-19T13:10:54Z</time>
      </trkpt>
      <trkpt lat="48.61488" lon="2.09323">
        <ele>132</ele>
        <time>2010-03-19T13:10:55Z</time>
      </trkpt>
      <trkpt lat="48.61488" lon="2.09326">
        <ele>132</ele>
        <time>2010-03-19T13:10:56Z</time>
      </trkpt>
      <trkpt lat="48.61489" lon="2.09328">
        <ele>132</ele>
        <time>2010-03-19T13:10:57Z</time>
      </trkpt>
      <trkpt lat="48.61489" lon="2.0933">
        <ele>132</ele>
        <time>2010-03-19T13:10:58Z</time>
      </trkpt>
      <trkpt lat="48.61489" lon="2.09332">
        <ele>132</ele>
        <time>2010-03-19T13:10:59Z</time>
      </trkpt>
      <trkpt lat="48.6149" lon="2.09334">
        <ele>132</ele>
        <time>2010-03-19T13:11:00Z</time>
      </trkpt>
      <trkpt lat="48.61491" lon="2.09336">
        <ele>132</ele>
        <time>2010-03-19T13:11:01Z</time>
      </trkpt>
      <trkpt lat="48.61492" lon="2.09338">
        <ele>132</ele>
        <time>2010-03-19T13:11:02Z</time>
      </trkpt>
      <trkpt lat="48.61492" lon="2.09339">
        <ele>132</ele>
        <time>2010-03-19T13:11:03Z</time>
      </trkpt>
      <trkpt lat="48.61493" lon="2.09342">
        <ele>132</ele>
        <time>2010-03-19T13:11:04Z</time>
      </trkpt>
      <trkpt lat="48.61493" lon="2.09343">
        <ele>132</ele>
        <time>2010-03-19T13:11:05Z</time>
      </trkpt>
      <trkpt lat="48.61494" lon="2.09345">
        <ele>132</ele>
        <time>2010-03-19T13:11:06Z</time>
      </trkpt>
      <trkpt lat="48.61494" lon="2.09347">
        <ele>132</ele>
        <time>2010-03-19T13:11:07Z</time>
      </trkpt>
      <trkpt lat="48.61494" lon="2.09349">
        <ele>132</ele>
        <time>2010-03-19T13:11:08Z</time>
      </trkpt>
      <trkpt lat="48.61494" lon="2.09351">
        <ele>132</ele>
        <time>2010-03-19T13:11:09Z</time>
      </trkpt>
      <trkpt lat="48.61494" lon="2.09353">
        <ele>132</ele>
        <time>2010-03-19T13:11:10Z</time>
      </trkpt>
      <trkpt lat="48.61494" lon="2.09355">
        <ele>132</ele>
        <time>2010-03-19T13:11:11Z</time>
      </trkpt>
      <trkpt lat="48.61495" lon="2.09357">
        <ele>132</ele>
        <time>2010-03-19T13:11:12Z</time>
      </trkpt>
      <trkpt lat="48.61495" lon="2.09359">
        <ele>132</ele>
        <time>2010-03-19T13:11:13Z</time>
      </trkpt>
      <trkpt lat="48.61496" lon="2.09361">
        <ele>132</ele>
        <time>2010-03-19T13:11:14Z</time>
      </trkpt>
      <trkpt lat="48.61496" lon="2.09363">
        <ele>132</ele>
        <time>2010-03-19T13:11:15Z</time>
      </trkpt>
      <trkpt lat="48.61496" lon="2.09366">
        <ele>132</ele>
        <time>2010-03-19T13:11:16Z</time>
      </trkpt>
      <trkpt lat="48.61497" lon="2.09367">
        <ele>132</ele>
        <time>2010-03-19T13:11:17Z</time>
      </trkpt>
      <trkpt lat="48.61497" lon="2.0937">
        <ele>132</ele>
        <time>2010-03-19T13:11:18Z</time>
      </trkpt>
      <trkpt lat="48.61497" lon="2.09371">
        <ele>132</ele>
        <time>2010-03-19T13:11:19Z</time>
      </trkpt>
      <trkpt lat="48.61498" lon="2.09373">
        <ele>132</ele>
        <time>2010-03-19T13:11:20Z</time>
      </trkpt>
      <trkpt lat="48.615" lon="2.09374">
        <ele>132</ele>
        <time>2010-03-19T13:11:21Z</time>
      </trkpt>
      <trkpt lat="48.61501" lon="2.09377">
        <ele>132</ele>
        <time>2010-03-19T13:11:22Z</time>
      </trkpt>
      <trkpt lat="48.61501" lon="2.09379">
        <ele>132</ele>
        <time>2010-03-19T13:11:23Z</time>
      </trkpt>
      <trkpt lat="48.61502" lon="2.09381">
        <ele>132</ele>
        <time>2010-03-19T13:11:24Z</time>
      </trkpt>
      <trkpt lat="48.61502" lon="2.09383">
        <ele>132</ele>
        <time>2010-03-19T13:11:25Z</time>
      </trkpt>
      <trkpt lat="48.61503" lon="2.09385">
        <ele>132</ele>
        <time>2010-03-19T13:11:26Z</time>
      </trkpt>
      <trkpt lat="48.61504" lon="2.09387">
        <ele>132</ele>
        <time>2010-03-19T13:11:27Z</time>
      </trkpt>
      <trkpt lat="48.61504" lon="2.09389">
        <ele>132</ele>
        <time>2010-03-19T13:11:28Z</time>
      </trkpt>
      <trkpt lat="48.61505" lon="2.09391">
        <ele>132</ele>
        <time>2010-03-19T13:11:29Z</time>
      </trkpt>
      <trkpt lat="48.61506" lon="2.09394">
        <ele>132</ele>
        <time>2010-03-19T13:11:30Z</time>
      </trkpt>
      <trkpt lat="48.61506" lon="2.09396">
        <ele>132</ele>
        <time>2010-03-19T13:11:31Z</time>
      </trkpt>
      <trkpt lat="48.61506" lon="2.09398">
        <ele>132</ele>
        <time>2010-03-19T13:11:32Z</time>
      </trkpt>
      <trkpt lat="48.61506" lon="2.09401">
        <ele>132</ele>
        <time>2010-03-19T13:11:33Z</time>
      </trkpt>
      <trkpt lat="48.61507" lon="2.09403">
        <ele>132</ele>
        <time>2010-03-19T13:11:34Z</time>
      </trkpt>
      <trkpt lat="48.61507" lon="2.09405">
        <ele>132</ele>
        <time>2010-03-19T13:11:35Z</time>
      </trkpt>
      <trkpt lat="48.61507" lon="2.09407">
        <ele>132</ele>
        <time>2010-03-19T13:11:36Z</time>
      </trkpt>
      <trkpt lat="48.61508" lon="2.09409">
        <ele>131</ele>
        <time>2010-03-19T13:11:37Z</time>
      </trkpt>
      <trkpt lat="48.61509" lon="2.09411">
        <ele>131</ele>
        <time>2010-03-19T13:11:38Z</time>
      </trkpt>
      <trkpt lat="48.61509" lon="2.09413">
        <ele>131</ele>
        <time>2010-03-19T13:11:39Z</time>
      </trkpt>
      <trkpt lat="48.6151" lon="2.09416">
        <ele>131</ele>
        <time>2010-03-19T13:11:40Z</time>
      </trkpt>
      <trkpt lat="48.6151" lon="2.09418">
        <ele>131</ele>
        <time>2010-03-19T13:11:41Z</time>
      </trkpt>
      <trkpt lat="48.61511" lon="2.0942">
        <ele>131</ele>
        <time>2010-03-19T13:11:42Z</time>
      </trkpt>
      <trkpt lat="48.61511" lon="2.09422">
        <ele>131</ele>
        <time>2010-03-19T13:11:43Z</time>
      </trkpt>
      <trkpt lat="48.61511" lon="2.09424">
        <ele>130</ele>
        <time>2010-03-19T13:11:44Z</time>
      </trkpt>
      <trkpt lat="48.61511" lon="2.09426">
        <ele>130</ele>
        <time>2010-03-19T13:11:45Z</time>
      </trkpt>
      <trkpt lat="48.61511" lon="2.09429">
        <ele>130</ele>
        <time>2010-03-19T13:11:46Z</time>
      </trkpt>
      <trkpt lat="48.61511" lon="2.09431">
        <ele>130</ele>
        <time>2010-03-19T13:11:47Z</time>
      </trkpt>
      <trkpt lat="48.61512" lon="2.09433">
        <ele>130</ele>
        <time>2010-03-19T13:11:48Z</time>
      </trkpt>
      <trkpt lat="48.61512" lon="2.09435">
        <ele>130</ele>
        <time>2010-03-19T13:11:49Z</time>
      </trkpt>
      <trkpt lat="48.61513" lon="2.09437">
        <ele>130</ele>
        <time>2010-03-19T13:11:50Z</time>
      </trkpt>
      <trkpt lat="48.61513" lon="2.0944">
        <ele>130</ele>
        <time>2010-03-19T13:11:51Z</time>
      </trkpt>
      <trkpt lat="48.61514" lon="2.09442">
        <ele>129</ele>
        <time>2010-03-19T13:11:52Z</time>
      </trkpt>
      <trkpt lat="48.61514" lon="2.09444">
        <ele>129</ele>
        <time>2010-03-19T13:11:53Z</time>
      </trkpt>
      <trkpt lat="48.61514" lon="2.09446">
        <ele>129</ele>
        <time>2010-03-19T13:11:54Z</time>
      </trkpt>
      <trkpt lat="48.61515" lon="2.09448">
        <ele>129</ele>
        <time>2010-03-19T13:11:55Z</time>
      </trkpt>
      <trkpt lat="48.61515" lon="2.0945">
        <ele>128</ele>
        <time>2010-03-19T13:11:56Z</time>
      </trkpt>
      <trkpt lat="48.61515" lon="2.09453">
        <ele>128</ele>
        <time>2010-03-19T13:11:57Z</time>
      </trkpt>
      <trkpt lat="48.61516" lon="2.09455">
        <ele>128</ele>
        <time>2010-03-19T13:11:58Z</time>
      </trkpt>
      <trkpt lat="48.61517" lon="2.09457">
        <ele>128</ele>
        <time>2010-03-19T13:11:59Z</time>
      </trkpt>
      <trkpt lat="48.61517" lon="2.09459">
        <ele>127</ele>
        <time>2010-03-19T13:12:00Z</time>
      </trkpt>
      <trkpt lat="48.61517" lon="2.09461">
        <ele>127</ele>
        <time>2010-03-19T13:12:01Z</time>
      </trkpt>
      <trkpt lat="48.61517" lon="2.09463">
        <ele>127</ele>
        <time>2010-03-19T13:12:02Z</time>
      </trkpt>
      <trkpt lat="48.61518" lon="2.09465">
        <ele>127</ele>
        <time>2010-03-19T13:12:03Z</time>
      </trkpt>
      <trkpt lat="48.61518" lon="2.09468">
        <ele>127</ele>
        <time>2010-03-19T13:12:04Z</time>
      </trkpt>
      <trkpt lat="48.61518" lon="2.0947">
        <ele>127</ele>
        <time>2010-03-19T13:12:05Z</time>
      </trkpt>
      <trkpt lat="48.61519" lon="2.09472">
        <ele>126</ele>
        <time>2010-03-19T13:12:06Z</time>
      </trkpt>
      <trkpt lat="48.61519" lon="2.09474">
        <ele>126</ele>
        <time>2010-03-19T13:12:07Z</time>
      </trkpt>
      <trkpt lat="48.61519" lon="2.09476">
        <ele>126</ele>
        <time>2010-03-19T13:12:08Z</time>
      </trkpt>
      <trkpt lat="48.6152" lon="2.09479">
        <ele>126</ele>
        <time>2010-03-19T13:12:10Z</time>
      </trkpt>
      <trkpt lat="48.6152" lon="2.09483">
        <ele>126</ele>
        <time>2010-03-19T13:12:12Z</time>
      </trkpt>
      <trkpt lat="48.6152" lon="2.09484">
        <ele>126</ele>
        <time>2010-03-19T13:12:13Z</time>
      </trkpt>
      <trkpt lat="48.61521" lon="2.09486">
        <ele>126</ele>
        <time>2010-03-19T13:12:14Z</time>
      </trkpt>
      <trkpt lat="48.61521" lon="2.09488">
        <ele>126</ele>
        <time>2010-03-19T13:12:15Z</time>
      </trkpt>
      <trkpt lat="48.61522" lon="2.0949">
        <ele>126</ele>
        <time>2010-03-19T13:12:16Z</time>
      </trkpt>
      <trkpt lat="48.61523" lon="2.09491">
        <ele>125</ele>
        <time>2010-03-19T13:12:17Z</time>
      </trkpt>
      <trkpt lat="48.61523" lon="2.09494">
        <ele>125</ele>
        <time>2010-03-19T13:12:18Z</time>
      </trkpt>
      <trkpt lat="48.61523" lon="2.09496">
        <ele>125</ele>
        <time>2010-03-19T13:12:19Z</time>
      </trkpt>
      <trkpt lat="48.61524" lon="2.09498">
        <ele>125</ele>
        <time>2010-03-19T13:12:20Z</time>
      </trkpt>
      <trkpt lat="48.61525" lon="2.095">
        <ele>125</ele>
        <time>2010-03-19T13:12:21Z</time>
      </trkpt>
      <trkpt lat="48.61525" lon="2.09502">
        <ele>125</ele>
        <time>2010-03-19T13:12:22Z</time>
      </trkpt>
      <trkpt lat="48.61525" lon="2.09503">
        <ele>125</ele>
        <time>2010-03-19T13:12:23Z</time>
      </trkpt>
      <trkpt lat="48.61526" lon="2.09505">
        <ele>125</ele>
        <time>2010-03-19T13:12:24Z</time>
      </trkpt>
      <trkpt lat="48.61526" lon="2.09507">
        <ele>125</ele>
        <time>2010-03-19T13:12:25Z</time>
      </trkpt>
      <trkpt lat="48.61527" lon="2.09509">
        <ele>125</ele>
        <time>2010-03-19T13:12:26Z</time>
      </trkpt>
      <trkpt lat="48.61527" lon="2.0951">
        <ele>125</ele>
        <time>2010-03-19T13:12:27Z</time>
      </trkpt>
      <trkpt lat="48.61528" lon="2.09512">
        <ele>125</ele>
        <time>2010-03-19T13:12:28Z</time>
      </trkpt>
      <trkpt lat="48.61529" lon="2.09515">
        <ele>125</ele>
        <time>2010-03-19T13:12:29Z</time>
      </trkpt>
      <trkpt lat="48.6153" lon="2.09517">
        <ele>125</ele>
        <time>2010-03-19T13:12:30Z</time>
      </trkpt>
      <trkpt lat="48.6153" lon="2.09519">
        <ele>125</ele>
        <time>2010-03-19T13:12:31Z</time>
      </trkpt>
      <trkpt lat="48.6153" lon="2.09521">
        <ele>125</ele>
        <time>2010-03-19T13:12:32Z</time>
      </trkpt>
      <trkpt lat="48.6153" lon="2.09523">
        <ele>125</ele>
        <time>2010-03-19T13:12:33Z</time>
      </trkpt>
      <trkpt lat="48.61531" lon="2.09525">
        <ele>125</ele>
        <time>2010-03-19T13:12:34Z</time>
      </trkpt>
      <trkpt lat="48.61531" lon="2.09527">
        <ele>125</ele>
        <time>2010-03-19T13:12:35Z</time>
      </trkpt>
      <trkpt lat="48.61532" lon="2.09529">
        <ele>125</ele>
        <time>2010-03-19T13:12:36Z</time>
      </trkpt>
      <trkpt lat="48.61532" lon="2.09531">
        <ele>125</ele>
        <time>2010-03-19T13:12:37Z</time>
      </trkpt>
      <trkpt lat="48.61533" lon="2.09533">
        <ele>125</ele>
        <time>2010-03-19T13:12:38Z</time>
      </trkpt>
      <trkpt lat="48.61533" lon="2.09535">
        <ele>125</ele>
        <time>2010-03-19T13:12:39Z</time>
      </trkpt>
      <trkpt lat="48.61533" lon="2.09537">
        <ele>125</ele>
        <time>2010-03-19T13:12:40Z</time>
      </trkpt>
      <trkpt lat="48.61533" lon="2.09539">
        <ele>125</ele>
        <time>2010-03-19T13:12:41Z</time>
      </trkpt>
      <trkpt lat="48.61533" lon="2.09541">
        <ele>125</ele>
        <time>2010-03-19T13:12:42Z</time>
      </trkpt>
      <trkpt lat="48.61533" lon="2.09542">
        <ele>125</ele>
        <time>2010-03-19T13:12:43Z</time>
      </trkpt>
      <trkpt lat="48.61534" lon="2.09546">
        <ele>125</ele>
        <time>2010-03-19T13:12:45Z</time>
      </trkpt>
      <trkpt lat="48.61535" lon="2.09548">
        <ele>125</ele>
        <time>2010-03-19T13:12:46Z</time>
      </trkpt>
      <trkpt lat="48.61535" lon="2.0955">
        <ele>125</ele>
        <time>2010-03-19T13:12:47Z</time>
      </trkpt>
      <trkpt lat="48.61535" lon="2.09552">
        <ele>125</ele>
        <time>2010-03-19T13:12:48Z</time>
      </trkpt>
      <trkpt lat="48.61536" lon="2.09554">
        <ele>125</ele>
        <time>2010-03-19T13:12:49Z</time>
      </trkpt>
      <trkpt lat="48.61536" lon="2.09555">
        <ele>125</ele>
        <time>2010-03-19T13:12:50Z</time>
      </trkpt>
      <trkpt lat="48.61537" lon="2.09557">
        <ele>125</ele>
        <time>2010-03-19T13:12:51Z</time>
      </trkpt>
      <trkpt lat="48.61537" lon="2.09559">
        <ele>125</ele>
        <time>2010-03-19T13:12:52Z</time>
      </trkpt>
      <trkpt lat="48.61538" lon="2.09561">
        <ele>125</ele>
        <time>2010-03-19T13:12:53Z</time>
      </trkpt>
      <trkpt lat="48.61538" lon="2.09563">
        <ele>125</ele>
        <time>2010-03-19T13:12:54Z</time>
      </trkpt>
      <trkpt lat="48.61538" lon="2.09565">
        <ele>125</ele>
        <time>2010-03-19T13:12:55Z</time>
      </trkpt>
      <trkpt lat="48.61539" lon="2.09567">
        <ele>125</ele>
        <time>2010-03-19T13:12:56Z</time>
      </trkpt>
      <trkpt lat="48.61539" lon="2.09569">
        <ele>125</ele>
        <time>2010-03-19T13:12:57Z</time>
      </trkpt>
      <trkpt lat="48.6154" lon="2.09571">
        <ele>125</ele>
        <time>2010-03-19T13:12:58Z</time>
      </trkpt>
      <trkpt lat="48.61541" lon="2.09573">
        <ele>125</ele>
        <time>2010-03-19T13:12:59Z</time>
      </trkpt>
      <trkpt lat="48.61541" lon="2.09575">
        <ele>125</ele>
        <time>2010-03-19T13:13:00Z</time>
      </trkpt>
      <trkpt lat="48.61542" lon="2.09577">
        <ele>125</ele>
        <time>2010-03-19T13:13:01Z</time>
      </trkpt>
      <trkpt lat="48.61543" lon="2.09578">
        <ele>125</ele>
        <time>2010-03-19T13:13:02Z</time>
      </trkpt>
      <trkpt lat="48.61543" lon="2.0958">
        <ele>125</ele>
        <time>2010-03-19T13:13:03Z</time>
      </trkpt>
      <trkpt lat="48.61544" lon="2.09583">
        <ele>125</ele>
        <time>2010-03-19T13:13:04Z</time>
      </trkpt>
      <trkpt lat="48.61544" lon="2.09585">
        <ele>125</ele>
        <time>2010-03-19T13:13:05Z</time>
      </trkpt>
      <trkpt lat="48.61544" lon="2.09588">
        <ele>125</ele>
        <time>2010-03-19T13:13:06Z</time>
      </trkpt>
      <trkpt lat="48.61545" lon="2.0959">
        <ele>125</ele>
        <time>2010-03-19T13:13:07Z</time>
      </trkpt>
      <trkpt lat="48.61545" lon="2.09592">
        <ele>125</ele>
        <time>2010-03-19T13:13:08Z</time>
      </trkpt>
      <trkpt lat="48.61546" lon="2.09594">
        <ele>125</ele>
        <time>2010-03-19T13:13:09Z</time>
      </trkpt>
      <trkpt lat="48.61546" lon="2.09596">
        <ele>125</ele>
        <time>2010-03-19T13:13:10Z</time>
      </trkpt>
      <trkpt lat="48.61547" lon="2.09598">
        <ele>125</ele>
        <time>2010-03-19T13:13:11Z</time>
      </trkpt>
      <trkpt lat="48.61547" lon="2.096">
        <ele>125</ele>
        <time>2010-03-19T13:13:12Z</time>
      </trkpt>
      <trkpt lat="48.61548" lon="2.09602">
        <ele>125</ele>
        <time>2010-03-19T13:13:13Z</time>
      </trkpt>
      <trkpt lat="48.61548" lon="2.09604">
        <ele>125</ele>
        <time>2010-03-19T13:13:14Z</time>
      </trkpt>
      <trkpt lat="48.61549" lon="2.09606">
        <ele>125</ele>
        <time>2010-03-19T13:13:15Z</time>
      </trkpt>
      <trkpt lat="48.61551" lon="2.09608">
        <ele>125</ele>
        <time>2010-03-19T13:13:16Z</time>
      </trkpt>
      <trkpt lat="48.61551" lon="2.0961">
        <ele>125</ele>
        <time>2010-03-19T13:13:17Z</time>
      </trkpt>
      <trkpt lat="48.61552" lon="2.09613">
        <ele>125</ele>
        <time>2010-03-19T13:13:19Z</time>
      </trkpt>
      <trkpt lat="48.61553" lon="2.09615">
        <ele>125</ele>
        <time>2010-03-19T13:13:20Z</time>
      </trkpt>
      <trkpt lat="48.61553" lon="2.09617">
        <ele>125</ele>
        <time>2010-03-19T13:13:21Z</time>
      </trkpt>
      <trkpt lat="48.61554" lon="2.09619">
        <ele>125</ele>
        <time>2010-03-19T13:13:22Z</time>
      </trkpt>
      <trkpt lat="48.61554" lon="2.09621">
        <ele>125</ele>
        <time>2010-03-19T13:13:23Z</time>
      </trkpt>
      <trkpt lat="48.61554" lon="2.09624">
        <ele>125</ele>
        <time>2010-03-19T13:13:24Z</time>
      </trkpt>
      <trkpt lat="48.61554" lon="2.09625">
        <ele>125</ele>
        <time>2010-03-19T13:13:25Z</time>
      </trkpt>
      <trkpt lat="48.61554" lon="2.09627">
        <ele>125</ele>
        <time>2010-03-19T13:13:26Z</time>
      </trkpt>
      <trkpt lat="48.61555" lon="2.09629">
        <ele>125</ele>
        <time>2010-03-19T13:13:27Z</time>
      </trkpt>
      <trkpt lat="48.61555" lon="2.09631">
        <ele>125</ele>
        <time>2010-03-19T13:13:28Z</time>
      </trkpt>
      <trkpt lat="48.61555" lon="2.09633">
        <ele>125</ele>
        <time>2010-03-19T13:13:29Z</time>
      </trkpt>
      <trkpt lat="48.61556" lon="2.09635">
        <ele>125</ele>
        <time>2010-03-19T13:13:30Z</time>
      </trkpt>
      <trkpt lat="48.61556" lon="2.09637">
        <ele>125</ele>
        <time>2010-03-19T13:13:31Z</time>
      </trkpt>
      <trkpt lat="48.61557" lon="2.09639">
        <ele>125</ele>
        <time>2010-03-19T13:13:32Z</time>
      </trkpt>
      <trkpt lat="48.61557" lon="2.09641">
        <ele>125</ele>
        <time>2010-03-19T13:13:33Z</time>
      </trkpt>
      <trkpt lat="48.61558" lon="2.09643">
        <ele>125</ele>
        <time>2010-03-19T13:13:34Z</time>
      </trkpt>
      <trkpt lat="48.61558" lon="2.09645">
        <ele>125</ele>
        <time>2010-03-19T13:13:35Z</time>
      </trkpt>
      <trkpt lat="48.61558" lon="2.09647">
        <ele>125</ele>
        <time>2010-03-19T13:13:36Z</time>
      </trkpt>
      <trkpt lat="48.61559" lon="2.09649">
        <ele>125</ele>
        <time>2010-03-19T13:13:37Z</time>
      </trkpt>
      <trkpt lat="48.61559" lon="2.09651">
        <ele>125</ele>
        <time>2010-03-19T13:13:38Z</time>
      </trkpt>
      <trkpt lat="48.61559" lon="2.09653">
        <ele>125</ele>
        <time>2010-03-19T13:13:39Z</time>
      </trkpt>
      <trkpt lat="48.6156" lon="2.09655">
        <ele>125</ele>
        <time>2010-03-19T13:13:40Z</time>
      </trkpt>
      <trkpt lat="48.6156" lon="2.09657">
        <ele>125</ele>
        <time>2010-03-19T13:13:41Z</time>
      </trkpt>
      <trkpt lat="48.6156" lon="2.09659">
        <ele>125</ele>
        <time>2010-03-19T13:13:42Z</time>
      </trkpt>
      <trkpt lat="48.61561" lon="2.09661">
        <ele>125</ele>
        <time>2010-03-19T13:13:43Z</time>
      </trkpt>
      <trkpt lat="48.61561" lon="2.09663">
        <ele>125</ele>
        <time>2010-03-19T13:13:44Z</time>
      </trkpt>
      <trkpt lat="48.61562" lon="2.09665">
        <ele>125</ele>
        <time>2010-03-19T13:13:45Z</time>
      </trkpt>
      <trkpt lat="48.61562" lon="2.09667">
        <ele>125</ele>
        <time>2010-03-19T13:13:46Z</time>
      </trkpt>
      <trkpt lat="48.61562" lon="2.09669">
        <ele>125</ele>
        <time>2010-03-19T13:13:47Z</time>
      </trkpt>
      <trkpt lat="48.61562" lon="2.09671">
        <ele>125</ele>
        <time>2010-03-19T13:13:48Z</time>
      </trkpt>
      <trkpt lat="48.61563" lon="2.09674">
        <ele>125</ele>
        <time>2010-03-19T13:13:49Z</time>
      </trkpt>
      <trkpt lat="48.61563" lon="2.09676">
        <ele>125</ele>
        <time>2010-03-19T13:13:50Z</time>
      </trkpt>
      <trkpt lat="48.61563" lon="2.09678">
        <ele>125</ele>
        <time>2010-03-19T13:13:51Z</time>
      </trkpt>
      <trkpt lat="48.61564" lon="2.0968">
        <ele>125</ele>
        <time>2010-03-19T13:13:52Z</time>
      </trkpt>
      <trkpt lat="48.61564" lon="2.09682">
        <ele>125</ele>
        <time>2010-03-19T13:13:53Z</time>
      </trkpt>
      <trkpt lat="48.61565" lon="2.09684">
        <ele>125</ele>
        <time>2010-03-19T13:13:54Z</time>
      </trkpt>
      <trkpt lat="48.61566" lon="2.09686">
        <ele>125</ele>
        <time>2010-03-19T13:13:55Z</time>
      </trkpt>
      <trkpt lat="48.61566" lon="2.09688">
        <ele>125</ele>
        <time>2010-03-19T13:13:56Z</time>
      </trkpt>
      <trkpt lat="48.61567" lon="2.0969">
        <ele>125</ele>
        <time>2010-03-19T13:13:57Z</time>
      </trkpt>
      <trkpt lat="48.61567" lon="2.09692">
        <ele>125</ele>
        <time>2010-03-19T13:13:58Z</time>
      </trkpt>
      <trkpt lat="48.61568" lon="2.09694">
        <ele>125</ele>
        <time>2010-03-19T13:13:59Z</time>
      </trkpt>
      <trkpt lat="48.61568" lon="2.09696">
        <ele>125</ele>
        <time>2010-03-19T13:14:00Z</time>
      </trkpt>
      <trkpt lat="48.61568" lon="2.09698">
        <ele>125</ele>
        <time>2010-03-19T13:14:01Z</time>
      </trkpt>
      <trkpt lat="48.61569" lon="2.097">
        <ele>125</ele>
        <time>2010-03-19T13:14:02Z</time>
      </trkpt>
      <trkpt lat="48.6157" lon="2.09702">
        <ele>125</ele>
        <time>2010-03-19T13:14:03Z</time>
      </trkpt>
      <trkpt lat="48.6157" lon="2.09705">
        <ele>125</ele>
        <time>2010-03-19T13:14:04Z</time>
      </trkpt>
      <trkpt lat="48.6157" lon="2.09707">
        <ele>125</ele>
        <time>2010-03-19T13:14:05Z</time>
      </trkpt>
      <trkpt lat="48.6157" lon="2.0971">
        <ele>125</ele>
        <time>2010-03-19T13:14:06Z</time>
      </trkpt>
      <trkpt lat="48.6157" lon="2.09712">
        <ele>125</ele>
        <time>2010-03-19T13:14:07Z</time>
      </trkpt>
      <trkpt lat="48.61571" lon="2.09714">
        <ele>125</ele>
        <time>2010-03-19T13:14:08Z</time>
      </trkpt>
      <trkpt lat="48.61571" lon="2.09716">
        <ele>124</ele>
        <time>2010-03-19T13:14:09Z</time>
      </trkpt>
      <trkpt lat="48.61571" lon="2.09718">
        <ele>124</ele>
        <time>2010-03-19T13:14:10Z</time>
      </trkpt>
      <trkpt lat="48.61572" lon="2.0972">
        <ele>124</ele>
        <time>2010-03-19T13:14:11Z</time>
      </trkpt>
      <trkpt lat="48.61572" lon="2.09722">
        <ele>124</ele>
        <time>2010-03-19T13:14:12Z</time>
      </trkpt>
      <trkpt lat="48.61572" lon="2.09724">
        <ele>123</ele>
        <time>2010-03-19T13:14:13Z</time>
      </trkpt>
      <trkpt lat="48.61572" lon="2.09726">
        <ele>123</ele>
        <time>2010-03-19T13:14:14Z</time>
      </trkpt>
      <trkpt lat="48.61572" lon="2.09727">
        <ele>123</ele>
        <time>2010-03-19T13:14:15Z</time>
      </trkpt>
      <trkpt lat="48.61573" lon="2.0973">
        <ele>123</ele>
        <time>2010-03-19T13:14:17Z</time>
      </trkpt>
      <trkpt lat="48.61573" lon="2.09732">
        <ele>123</ele>
        <time>2010-03-19T13:14:19Z</time>
      </trkpt>
      <trkpt lat="48.61573" lon="2.09735">
        <ele>123</ele>
        <time>2010-03-19T13:14:21Z</time>
      </trkpt>
      <trkpt lat="48.61573" lon="2.09738">
        <ele>123</ele>
        <time>2010-03-19T13:14:23Z</time>
      </trkpt>
      <trkpt lat="48.61573" lon="2.09741">
        <ele>123</ele>
        <time>2010-03-19T13:14:25Z</time>
      </trkpt>
      <trkpt lat="48.61573" lon="2.09743">
        <ele>123</ele>
        <time>2010-03-19T13:14:26Z</time>
      </trkpt>
      <trkpt lat="48.61573" lon="2.09745">
        <ele>123</ele>
        <time>2010-03-19T13:14:27Z</time>
      </trkpt>
      <trkpt lat="48.61573" lon="2.09747">
        <ele>123</ele>
        <time>2010-03-19T13:14:28Z</time>
      </trkpt>
      <trkpt lat="48.61575" lon="2.09749">
        <ele>123</ele>
        <time>2010-03-19T13:14:29Z</time>
      </trkpt>
      <trkpt lat="48.61575" lon="2.09751">
        <ele>123</ele>
        <time>2010-03-19T13:14:30Z</time>
      </trkpt>
      <trkpt lat="48.61575" lon="2.09753">
        <ele>123</ele>
        <time>2010-03-19T13:14:31Z</time>
      </trkpt>
      <trkpt lat="48.61575" lon="2.09755">
        <ele>123</ele>
        <time>2010-03-19T13:14:32Z</time>
      </trkpt>
      <trkpt lat="48.61576" lon="2.09757">
        <ele>122</ele>
        <time>2010-03-19T13:14:33Z</time>
      </trkpt>
      <trkpt lat="48.61576" lon="2.09759">
        <ele>122</ele>
        <time>2010-03-19T13:14:34Z</time>
      </trkpt>
      <trkpt lat="48.61577" lon="2.09763">
        <ele>122</ele>
        <time>2010-03-19T13:14:36Z</time>
      </trkpt>
      <trkpt lat="48.61577" lon="2.09765">
        <ele>121</ele>
        <time>2010-03-19T13:14:38Z</time>
      </trkpt>
      <trkpt lat="48.61578" lon="2.09769">
        <ele>121</ele>
        <time>2010-03-19T13:14:40Z</time>
      </trkpt>
      <trkpt lat="48.61578" lon="2.0977">
        <ele>121</ele>
        <time>2010-03-19T13:14:41Z</time>
      </trkpt>
      <trkpt lat="48.61577" lon="2.09772">
        <ele>121</ele>
        <time>2010-03-19T13:14:55Z</time>
      </trkpt>
      <trkpt lat="48.61576" lon="2.09773">
        <ele>121</ele>
        <time>2010-03-19T13:14:57Z</time>
      </trkpt>
      <trkpt lat="48.61577" lon="2.09776">
        <ele>121</ele>
        <time>2010-03-19T13:14:59Z</time>
      </trkpt>
      <trkpt lat="48.61577" lon="2.09778">
        <ele>121</ele>
        <time>2010-03-19T13:15:00Z</time>
      </trkpt>
      <trkpt lat="48.61577" lon="2.0978">
        <ele>121</ele>
        <time>2010-03-19T13:15:01Z</time>
      </trkpt>
      <trkpt lat="48.61578" lon="2.09782">
        <ele>121</ele>
        <time>2010-03-19T13:15:02Z</time>
      </trkpt>
      <trkpt lat="48.61578" lon="2.09784">
        <ele>121</ele>
        <time>2010-03-19T13:15:03Z</time>
      </trkpt>
      <trkpt lat="48.61578" lon="2.09785">
        <ele>121</ele>
        <time>2010-03-19T13:15:04Z</time>
      </trkpt>
      <trkpt lat="48.61578" lon="2.09787">
        <ele>121</ele>
        <time>2010-03-19T13:15:05Z</time>
      </trkpt>
      <trkpt lat="48.61578" lon="2.09789">
        <ele>121</ele>
        <time>2010-03-19T13:15:06Z</time>
      </trkpt>
      <trkpt lat="48.61578" lon="2.09792">
        <ele>121</ele>
        <time>2010-03-19T13:15:08Z</time>
      </trkpt>
      <trkpt lat="48.61578" lon="2.09795">
        <ele>121</ele>
        <time>2010-03-19T13:15:10Z</time>
      </trkpt>
      <trkpt lat="48.61578" lon="2.09797">
        <ele>121</ele>
        <time>2010-03-19T13:15:11Z</time>
      </trkpt>
      <trkpt lat="48.61578" lon="2.09798">
        <ele>121</ele>
        <time>2010-03-19T13:15:12Z</time>
      </trkpt>
      <trkpt lat="48.61578" lon="2.09802">
        <ele>121</ele>
        <time>2010-03-19T13:15:14Z</time>
      </trkpt>
      <trkpt lat="48.61578" lon="2.09803">
        <ele>121</ele>
        <time>2010-03-19T13:15:15Z</time>
      </trkpt>
      <trkpt lat="48.61578" lon="2.09805">
        <ele>121</ele>
        <time>2010-03-19T13:15:16Z</time>
      </trkpt>
      <trkpt lat="48.61578" lon="2.09807">
        <ele>121</ele>
        <time>2010-03-19T13:15:17Z</time>
      </trkpt>
      <trkpt lat="48.61578" lon="2.09808">
        <ele>121</ele>
        <time>2010-03-19T13:15:18Z</time>
      </trkpt>
      <trkpt lat="48.61578" lon="2.0981">
        <ele>121</ele>
        <time>2010-03-19T13:15:19Z</time>
      </trkpt>
      <trkpt lat="48.61578" lon="2.09812">
        <ele>121</ele>
        <time>2010-03-19T13:15:21Z</time>
      </trkpt>
      <trkpt lat="48.61579" lon="2.09814">
        <ele>121</ele>
        <time>2010-03-19T13:15:23Z</time>
      </trkpt>
      <trkpt lat="48.61578" lon="2.09816">
        <ele>121</ele>
        <time>2010-03-19T13:15:24Z</time>
      </trkpt>
      <trkpt lat="48.61579" lon="2.09818">
        <ele>121</ele>
        <time>2010-03-19T13:15:25Z</time>
      </trkpt>
      <trkpt lat="48.61579" lon="2.0982">
        <ele>121</ele>
        <time>2010-03-19T13:15:26Z</time>
      </trkpt>
      <trkpt lat="48.61579" lon="2.09822">
        <ele>121</ele>
        <time>2010-03-19T13:15:27Z</time>
      </trkpt>
      <trkpt lat="48.61579" lon="2.09824">
        <ele>121</ele>
        <time>2010-03-19T13:15:28Z</time>
      </trkpt>
      <trkpt lat="48.61579" lon="2.09826">
        <ele>121</ele>
        <time>2010-03-19T13:15:29Z</time>
      </trkpt>
      <trkpt lat="48.61579" lon="2.09828">
        <ele>121</ele>
        <time>2010-03-19T13:15:30Z</time>
      </trkpt>
      <trkpt lat="48.61579" lon="2.0983">
        <ele>121</ele>
        <time>2010-03-19T13:15:31Z</time>
      </trkpt>
      <trkpt lat="48.61579" lon="2.09832">
        <ele>121</ele>
        <time>2010-03-19T13:15:32Z</time>
      </trkpt>
      <trkpt lat="48.6158" lon="2.09834">
        <ele>121</ele>
        <time>2010-03-19T13:15:33Z</time>
      </trkpt>
      <trkpt lat="48.6158" lon="2.09836">
        <ele>121</ele>
        <time>2010-03-19T13:15:34Z</time>
      </trkpt>
      <trkpt lat="48.6158" lon="2.09838">
        <ele>121</ele>
        <time>2010-03-19T13:15:35Z</time>
      </trkpt>
      <trkpt lat="48.6158" lon="2.0984">
        <ele>121</ele>
        <time>2010-03-19T13:15:36Z</time>
      </trkpt>
      <trkpt lat="48.6158" lon="2.09842">
        <ele>121</ele>
        <time>2010-03-19T13:15:37Z</time>
      </trkpt>
      <trkpt lat="48.6158" lon="2.09844">
        <ele>121</ele>
        <time>2010-03-19T13:15:38Z</time>
      </trkpt>
      <trkpt lat="48.6158" lon="2.09846">
        <ele>121</ele>
        <time>2010-03-19T13:15:39Z</time>
      </trkpt>
      <trkpt lat="48.6158" lon="2.09848">
        <ele>121</ele>
        <time>2010-03-19T13:15:40Z</time>
      </trkpt>
      <trkpt lat="48.61581" lon="2.0985">
        <ele>121</ele>
        <time>2010-03-19T13:15:41Z</time>
      </trkpt>
      <trkpt lat="48.61581" lon="2.09852">
        <ele>121</ele>
        <time>2010-03-19T13:15:42Z</time>
      </trkpt>
      <trkpt lat="48.61581" lon="2.09854">
        <ele>121</ele>
        <time>2010-03-19T13:15:43Z</time>
      </trkpt>
      <trkpt lat="48.61581" lon="2.09856">
        <ele>121</ele>
        <time>2010-03-19T13:15:44Z</time>
      </trkpt>
      <trkpt lat="48.61583" lon="2.09858">
        <ele>121</ele>
        <time>2010-03-19T13:15:45Z</time>
      </trkpt>
      <trkpt lat="48.61583" lon="2.0986">
        <ele>121</ele>
        <time>2010-03-19T13:15:46Z</time>
      </trkpt>
      <trkpt lat="48.61583" lon="2.09862">
        <ele>121</ele>
        <time>2010-03-19T13:15:47Z</time>
      </trkpt>
      <trkpt lat="48.61582" lon="2.09864">
        <ele>121</ele>
        <time>2010-03-19T13:15:48Z</time>
      </trkpt>
      <trkpt lat="48.61581" lon="2.09866">
        <ele>121</ele>
        <time>2010-03-19T13:15:49Z</time>
      </trkpt>
      <trkpt lat="48.61581" lon="2.09868">
        <ele>121</ele>
        <time>2010-03-19T13:15:50Z</time>
      </trkpt>
      <trkpt lat="48.61581" lon="2.0987">
        <ele>121</ele>
        <time>2010-03-19T13:15:51Z</time>
      </trkpt>
      <trkpt lat="48.61581" lon="2.09872">
        <ele>121</ele>
        <time>2010-03-19T13:15:52Z</time>
      </trkpt>
      <trkpt lat="48.61582" lon="2.09875">
        <ele>121</ele>
        <time>2010-03-19T13:15:53Z</time>
      </trkpt>
      <trkpt lat="48.61583" lon="2.09876">
        <ele>121</ele>
        <time>2010-03-19T13:15:54Z</time>
      </trkpt>
      <trkpt lat="48.61583" lon="2.09878">
        <ele>121</ele>
        <time>2010-03-19T13:15:55Z</time>
      </trkpt>
      <trkpt lat="48.61583" lon="2.0988">
        <ele>121</ele>
        <time>2010-03-19T13:15:56Z</time>
      </trkpt>
      <trkpt lat="48.61583" lon="2.09882">
        <ele>121</ele>
        <time>2010-03-19T13:15:57Z</time>
      </trkpt>
      <trkpt lat="48.61583" lon="2.09885">
        <ele>121</ele>
        <time>2010-03-19T13:15:58Z</time>
      </trkpt>
      <trkpt lat="48.61583" lon="2.09886">
        <ele>121</ele>
        <time>2010-03-19T13:15:59Z</time>
      </trkpt>
      <trkpt lat="48.61584" lon="2.09888">
        <ele>121</ele>
        <time>2010-03-19T13:16:00Z</time>
      </trkpt>
      <trkpt lat="48.61584" lon="2.0989">
        <ele>121</ele>
        <time>2010-03-19T13:16:01Z</time>
      </trkpt>
      <trkpt lat="48.61584" lon="2.09892">
        <ele>121</ele>
        <time>2010-03-19T13:16:02Z</time>
      </trkpt>
      <trkpt lat="48.61584" lon="2.09894">
        <ele>121</ele>
        <time>2010-03-19T13:16:03Z</time>
      </trkpt>
      <trkpt lat="48.61584" lon="2.09896">
        <ele>121</ele>
        <time>2010-03-19T13:16:04Z</time>
      </trkpt>
      <trkpt lat="48.61584" lon="2.09898">
        <ele>121</ele>
        <time>2010-03-19T13:16:05Z</time>
      </trkpt>
      <trkpt lat="48.61583" lon="2.099">
        <ele>121</ele>
        <time>2010-03-19T13:16:06Z</time>
      </trkpt>
      <trkpt lat="48.61583" lon="2.09903">
        <ele>121</ele>
        <time>2010-03-19T13:16:07Z</time>
      </trkpt>
      <trkpt lat="48.61583" lon="2.09905">
        <ele>121</ele>
        <time>2010-03-19T13:16:08Z</time>
      </trkpt>
      <trkpt lat="48.61583" lon="2.09907">
        <ele>121</ele>
        <time>2010-03-19T13:16:09Z</time>
      </trkpt>
      <trkpt lat="48.61583" lon="2.09909">
        <ele>121</ele>
        <time>2010-03-19T13:16:10Z</time>
      </trkpt>
      <trkpt lat="48.61583" lon="2.09911">
        <ele>121</ele>
        <time>2010-03-19T13:16:11Z</time>
      </trkpt>
      <trkpt lat="48.61583" lon="2.09913">
        <ele>121</ele>
        <time>2010-03-19T13:16:12Z</time>
      </trkpt>
      <trkpt lat="48.61583" lon="2.09915">
        <ele>121</ele>
        <time>2010-03-19T13:16:13Z</time>
      </trkpt>
      <trkpt lat="48.61583" lon="2.09917">
        <ele>121</ele>
        <time>2010-03-19T13:16:14Z</time>
      </trkpt>
      <trkpt lat="48.61583" lon="2.09919">
        <ele>121</ele>
        <time>2010-03-19T13:16:15Z</time>
      </trkpt>
      <trkpt lat="48.61583" lon="2.09921">
        <ele>121</ele>
        <time>2010-03-19T13:16:16Z</time>
      </trkpt>
      <trkpt lat="48.61583" lon="2.09924">
        <ele>121</ele>
        <time>2010-03-19T13:16:17Z</time>
      </trkpt>
      <trkpt lat="48.61583" lon="2.09926">
        <ele>121</ele>
        <time>2010-03-19T13:16:18Z</time>
      </trkpt>
      <trkpt lat="48.61583" lon="2.09928">
        <ele>121</ele>
        <time>2010-03-19T13:16:19Z</time>
      </trkpt>
      <trkpt lat="48.61582" lon="2.0993">
        <ele>121</ele>
        <time>2010-03-19T13:16:20Z</time>
      </trkpt>
      <trkpt lat="48.61582" lon="2.09932">
        <ele>120</ele>
        <time>2010-03-19T13:16:21Z</time>
      </trkpt>
      <trkpt lat="48.61582" lon="2.09934">
        <ele>120</ele>
        <time>2010-03-19T13:16:22Z</time>
      </trkpt>
      <trkpt lat="48.61581" lon="2.09936">
        <ele>120</ele>
        <time>2010-03-19T13:16:23Z</time>
      </trkpt>
      <trkpt lat="48.61581" lon="2.09938">
        <ele>120</ele>
        <time>2010-03-19T13:16:24Z</time>
      </trkpt>
      <trkpt lat="48.61581" lon="2.0994">
        <ele>120</ele>
        <time>2010-03-19T13:16:25Z</time>
      </trkpt>
      <trkpt lat="48.61581" lon="2.09943">
        <ele>120</ele>
        <time>2010-03-19T13:16:26Z</time>
      </trkpt>
      <trkpt lat="48.61581" lon="2.09945">
        <ele>120</ele>
        <time>2010-03-19T13:16:27Z</time>
      </trkpt>
      <trkpt lat="48.61581" lon="2.09947">
        <ele>120</ele>
        <time>2010-03-19T13:16:28Z</time>
      </trkpt>
      <trkpt lat="48.6158" lon="2.09949">
        <ele>120</ele>
        <time>2010-03-19T13:16:29Z</time>
      </trkpt>
      <trkpt lat="48.6158" lon="2.09951">
        <ele>120</ele>
        <time>2010-03-19T13:16:30Z</time>
      </trkpt>
      <trkpt lat="48.6158" lon="2.09953">
        <ele>119</ele>
        <time>2010-03-19T13:16:31Z</time>
      </trkpt>
      <trkpt lat="48.6158" lon="2.09955">
        <ele>119</ele>
        <time>2010-03-19T13:16:32Z</time>
      </trkpt>
      <trkpt lat="48.6158" lon="2.09957">
        <ele>119</ele>
        <time>2010-03-19T13:16:33Z</time>
      </trkpt>
      <trkpt lat="48.6158" lon="2.09959">
        <ele>119</ele>
        <time>2010-03-19T13:16:34Z</time>
      </trkpt>
      <trkpt lat="48.6158" lon="2.09962">
        <ele>119</ele>
        <time>2010-03-19T13:16:35Z</time>
      </trkpt>
      <trkpt lat="48.6158" lon="2.09964">
        <ele>119</ele>
        <time>2010-03-19T13:16:36Z</time>
      </trkpt>
      <trkpt lat="48.6158" lon="2.09966">
        <ele>119</ele>
        <time>2010-03-19T13:16:37Z</time>
      </trkpt>
      <trkpt lat="48.6158" lon="2.09968">
        <ele>119</ele>
        <time>2010-03-19T13:16:38Z</time>
      </trkpt>
      <trkpt lat="48.6158" lon="2.0997">
        <ele>119</ele>
        <time>2010-03-19T13:16:39Z</time>
      </trkpt>
      <trkpt lat="48.6158" lon="2.09972">
        <ele>119</ele>
        <time>2010-03-19T13:16:40Z</time>
      </trkpt>
      <trkpt lat="48.61579" lon="2.09974">
        <ele>118</ele>
        <time>2010-03-19T13:16:41Z</time>
      </trkpt>
      <trkpt lat="48.61579" lon="2.09976">
        <ele>118</ele>
        <time>2010-03-19T13:16:42Z</time>
      </trkpt>
      <trkpt lat="48.61579" lon="2.09978">
        <ele>118</ele>
        <time>2010-03-19T13:16:43Z</time>
      </trkpt>
      <trkpt lat="48.61578" lon="2.09981">
        <ele>118</ele>
        <time>2010-03-19T13:16:44Z</time>
      </trkpt>
      <trkpt lat="48.61578" lon="2.09982">
        <ele>118</ele>
        <time>2010-03-19T13:16:45Z</time>
      </trkpt>
      <trkpt lat="48.61578" lon="2.09984">
        <ele>118</ele>
        <time>2010-03-19T13:16:46Z</time>
      </trkpt>
      <trkpt lat="48.61578" lon="2.09987">
        <ele>118</ele>
        <time>2010-03-19T13:16:47Z</time>
      </trkpt>
      <trkpt lat="48.61578" lon="2.09989">
        <ele>118</ele>
        <time>2010-03-19T13:16:48Z</time>
      </trkpt>
      <trkpt lat="48.61578" lon="2.09991">
        <ele>118</ele>
        <time>2010-03-19T13:16:49Z</time>
      </trkpt>
      <trkpt lat="48.61578" lon="2.09993">
        <ele>117</ele>
        <time>2010-03-19T13:16:50Z</time>
      </trkpt>
      <trkpt lat="48.61578" lon="2.09995">
        <ele>117</ele>
        <time>2010-03-19T13:16:51Z</time>
      </trkpt>
      <trkpt lat="48.61578" lon="2.09997">
        <ele>117</ele>
        <time>2010-03-19T13:16:52Z</time>
      </trkpt>
      <trkpt lat="48.61578" lon="2.09999">
        <ele>117</ele>
        <time>2010-03-19T13:16:53Z</time>
      </trkpt>
      <trkpt lat="48.61577" lon="2.10001">
        <ele>117</ele>
        <time>2010-03-19T13:16:54Z</time>
      </trkpt>
      <trkpt lat="48.61577" lon="2.10003">
        <ele>116</ele>
        <time>2010-03-19T13:16:55Z</time>
      </trkpt>
      <trkpt lat="48.61577" lon="2.10005">
        <ele>116</ele>
        <time>2010-03-19T13:16:56Z</time>
      </trkpt>
      <trkpt lat="48.61577" lon="2.10008">
        <ele>116</ele>
        <time>2010-03-19T13:16:57Z</time>
      </trkpt>
      <trkpt lat="48.61576" lon="2.1001">
        <ele>116</ele>
        <time>2010-03-19T13:16:58Z</time>
      </trkpt>
      <trkpt lat="48.61576" lon="2.10011">
        <ele>115</ele>
        <time>2010-03-19T13:16:59Z</time>
      </trkpt>
      <trkpt lat="48.61576" lon="2.10014">
        <ele>115</ele>
        <time>2010-03-19T13:17:00Z</time>
      </trkpt>
      <trkpt lat="48.61576" lon="2.10016">
        <ele>115</ele>
        <time>2010-03-19T13:17:01Z</time>
      </trkpt>
      <trkpt lat="48.61576" lon="2.10018">
        <ele>115</ele>
        <time>2010-03-19T13:17:02Z</time>
      </trkpt>
      <trkpt lat="48.61576" lon="2.1002">
        <ele>115</ele>
        <time>2010-03-19T13:17:03Z</time>
      </trkpt>
      <trkpt lat="48.61576" lon="2.10022">
        <ele>115</ele>
        <time>2010-03-19T13:17:04Z</time>
      </trkpt>
      <trkpt lat="48.61576" lon="2.10025">
        <ele>115</ele>
        <time>2010-03-19T13:17:05Z</time>
      </trkpt>
      <trkpt lat="48.61576" lon="2.10027">
        <ele>115</ele>
        <time>2010-03-19T13:17:06Z</time>
      </trkpt>
      <trkpt lat="48.61576" lon="2.10029">
        <ele>115</ele>
        <time>2010-03-19T13:17:07Z</time>
      </trkpt>
      <trkpt lat="48.61576" lon="2.10031">
        <ele>115</ele>
        <time>2010-03-19T13:17:08Z</time>
      </trkpt>
      <trkpt lat="48.61576" lon="2.10033">
        <ele>115</ele>
        <time>2010-03-19T13:17:09Z</time>
      </trkpt>
      <trkpt lat="48.61576" lon="2.10035">
        <ele>114</ele>
        <time>2010-03-19T13:17:10Z</time>
      </trkpt>
      <trkpt lat="48.61576" lon="2.10037">
        <ele>114</ele>
        <time>2010-03-19T13:17:11Z</time>
      </trkpt>
      <trkpt lat="48.61575" lon="2.10039">
        <ele>114</ele>
        <time>2010-03-19T13:17:12Z</time>
      </trkpt>
      <trkpt lat="48.61575" lon="2.10041">
        <ele>114</ele>
        <time>2010-03-19T13:17:13Z</time>
      </trkpt>
      <trkpt lat="48.61575" lon="2.10043">
        <ele>114</ele>
        <time>2010-03-19T13:17:14Z</time>
      </trkpt>
      <trkpt lat="48.61575" lon="2.10045">
        <ele>113</ele>
        <time>2010-03-19T13:17:15Z</time>
      </trkpt>
      <trkpt lat="48.61573" lon="2.10047">
        <ele>113</ele>
        <time>2010-03-19T13:17:16Z</time>
      </trkpt>
      <trkpt lat="48.61573" lon="2.10049">
        <ele>113</ele>
        <time>2010-03-19T13:17:17Z</time>
      </trkpt>
      <trkpt lat="48.61573" lon="2.10051">
        <ele>113</ele>
        <time>2010-03-19T13:17:18Z</time>
      </trkpt>
      <trkpt lat="48.61573" lon="2.10052">
        <ele>113</ele>
        <time>2010-03-19T13:17:19Z</time>
      </trkpt>
      <trkpt lat="48.61573" lon="2.10054">
        <ele>113</ele>
        <time>2010-03-19T13:17:20Z</time>
      </trkpt>
      <trkpt lat="48.61573" lon="2.10056">
        <ele>113</ele>
        <time>2010-03-19T13:17:21Z</time>
      </trkpt>
      <trkpt lat="48.61573" lon="2.10059">
        <ele>113</ele>
        <time>2010-03-19T13:17:22Z</time>
      </trkpt>
      <trkpt lat="48.61572" lon="2.10061">
        <ele>113</ele>
        <time>2010-03-19T13:17:23Z</time>
      </trkpt>
      <trkpt lat="48.61572" lon="2.10063">
        <ele>113</ele>
        <time>2010-03-19T13:17:24Z</time>
      </trkpt>
      <trkpt lat="48.61572" lon="2.10065">
        <ele>113</ele>
        <time>2010-03-19T13:17:25Z</time>
      </trkpt>
      <trkpt lat="48.61572" lon="2.10067">
        <ele>113</ele>
        <time>2010-03-19T13:17:26Z</time>
      </trkpt>
      <trkpt lat="48.61572" lon="2.10069">
        <ele>113</ele>
        <time>2010-03-19T13:17:27Z</time>
      </trkpt>
      <trkpt lat="48.61571" lon="2.10071">
        <ele>113</ele>
        <time>2010-03-19T13:17:28Z</time>
      </trkpt>
      <trkpt lat="48.61571" lon="2.10073">
        <ele>113</ele>
        <time>2010-03-19T13:17:29Z</time>
      </trkpt>
      <trkpt lat="48.6157" lon="2.10075">
        <ele>113</ele>
        <time>2010-03-19T13:17:30Z</time>
      </trkpt>
      <trkpt lat="48.61571" lon="2.10077">
        <ele>113</ele>
        <time>2010-03-19T13:17:31Z</time>
      </trkpt>
      <trkpt lat="48.61571" lon="2.10079">
        <ele>113</ele>
        <time>2010-03-19T13:17:32Z</time>
      </trkpt>
      <trkpt lat="48.6157" lon="2.10081">
        <ele>113</ele>
        <time>2010-03-19T13:17:33Z</time>
      </trkpt>
      <trkpt lat="48.6157" lon="2.10083">
        <ele>113</ele>
        <time>2010-03-19T13:17:34Z</time>
      </trkpt>
      <trkpt lat="48.6157" lon="2.10085">
        <ele>113</ele>
        <time>2010-03-19T13:17:35Z</time>
      </trkpt>
      <trkpt lat="48.6157" lon="2.10087">
        <ele>113</ele>
        <time>2010-03-19T13:17:36Z</time>
      </trkpt>
      <trkpt lat="48.61569" lon="2.10089">
        <ele>113</ele>
        <time>2010-03-19T13:17:37Z</time>
      </trkpt>
      <trkpt lat="48.61569" lon="2.10091">
        <ele>113</ele>
        <time>2010-03-19T13:17:38Z</time>
      </trkpt>
      <trkpt lat="48.61569" lon="2.10093">
        <ele>113</ele>
        <time>2010-03-19T13:17:39Z</time>
      </trkpt>
      <trkpt lat="48.61569" lon="2.10096">
        <ele>113</ele>
        <time>2010-03-19T13:17:40Z</time>
      </trkpt>
      <trkpt lat="48.61569" lon="2.10098">
        <ele>113</ele>
        <time>2010-03-19T13:17:41Z</time>
      </trkpt>
      <trkpt lat="48.61569" lon="2.101">
        <ele>113</ele>
        <time>2010-03-19T13:17:42Z</time>
      </trkpt>
      <trkpt lat="48.61569" lon="2.10102">
        <ele>113</ele>
        <time>2010-03-19T13:17:43Z</time>
      </trkpt>
      <trkpt lat="48.61568" lon="2.10104">
        <ele>113</ele>
        <time>2010-03-19T13:17:44Z</time>
      </trkpt>
      <trkpt lat="48.61568" lon="2.10106">
        <ele>113</ele>
        <time>2010-03-19T13:17:45Z</time>
      </trkpt>
      <trkpt lat="48.61568" lon="2.10108">
        <ele>113</ele>
        <time>2010-03-19T13:17:46Z</time>
      </trkpt>
      <trkpt lat="48.61568" lon="2.1011">
        <ele>113</ele>
        <time>2010-03-19T13:17:47Z</time>
      </trkpt>
      <trkpt lat="48.61568" lon="2.10113">
        <ele>113</ele>
        <time>2010-03-19T13:17:48Z</time>
      </trkpt>
      <trkpt lat="48.61568" lon="2.10115">
        <ele>113</ele>
        <time>2010-03-19T13:17:49Z</time>
      </trkpt>
      <trkpt lat="48.61568" lon="2.10117">
        <ele>113</ele>
        <time>2010-03-19T13:17:50Z</time>
      </trkpt>
      <trkpt lat="48.61568" lon="2.10119">
        <ele>113</ele>
        <time>2010-03-19T13:17:51Z</time>
      </trkpt>
      <trkpt lat="48.61567" lon="2.10121">
        <ele>113</ele>
        <time>2010-03-19T13:17:52Z</time>
      </trkpt>
      <trkpt lat="48.61567" lon="2.10123">
        <ele>113</ele>
        <time>2010-03-19T13:17:53Z</time>
      </trkpt>
      <trkpt lat="48.61567" lon="2.10125">
        <ele>113</ele>
        <time>2010-03-19T13:17:54Z</time>
      </trkpt>
      <trkpt lat="48.61567" lon="2.10127">
        <ele>113</ele>
        <time>2010-03-19T13:17:55Z</time>
      </trkpt>
      <trkpt lat="48.61567" lon="2.10129">
        <ele>113</ele>
        <time>2010-03-19T13:17:56Z</time>
      </trkpt>
      <trkpt lat="48.61567" lon="2.10132">
        <ele>113</ele>
        <time>2010-03-19T13:17:57Z</time>
      </trkpt>
      <trkpt lat="48.61566" lon="2.10134">
        <ele>113</ele>
        <time>2010-03-19T13:17:58Z</time>
      </trkpt>
      <trkpt lat="48.61566" lon="2.10136">
        <ele>113</ele>
        <time>2010-03-19T13:17:59Z</time>
      </trkpt>
      <trkpt lat="48.61566" lon="2.10138">
        <ele>113</ele>
        <time>2010-03-19T13:18:00Z</time>
      </trkpt>
      <trkpt lat="48.61565" lon="2.1014">
        <ele>113</ele>
        <time>2010-03-19T13:18:01Z</time>
      </trkpt>
      <trkpt lat="48.61565" lon="2.10142">
        <ele>113</ele>
        <time>2010-03-19T13:18:02Z</time>
      </trkpt>
      <trkpt lat="48.61565" lon="2.10144">
        <ele>113</ele>
        <time>2010-03-19T13:18:03Z</time>
      </trkpt>
      <trkpt lat="48.61564" lon="2.10148">
        <ele>113</ele>
        <time>2010-03-19T13:18:05Z</time>
      </trkpt>
      <trkpt lat="48.61563" lon="2.1015">
        <ele>113</ele>
        <time>2010-03-19T13:18:06Z</time>
      </trkpt>
      <trkpt lat="48.61563" lon="2.10152">
        <ele>113</ele>
        <time>2010-03-19T13:18:07Z</time>
      </trkpt>
      <trkpt lat="48.61563" lon="2.10154">
        <ele>113</ele>
        <time>2010-03-19T13:18:08Z</time>
      </trkpt>
      <trkpt lat="48.61563" lon="2.10156">
        <ele>113</ele>
        <time>2010-03-19T13:18:09Z</time>
      </trkpt>
      <trkpt lat="48.61562" lon="2.10159">
        <ele>113</ele>
        <time>2010-03-19T13:18:10Z</time>
      </trkpt>
      <trkpt lat="48.61562" lon="2.10161">
        <ele>113</ele>
        <time>2010-03-19T13:18:11Z</time>
      </trkpt>
      <trkpt lat="48.61562" lon="2.10163">
        <ele>113</ele>
        <time>2010-03-19T13:18:12Z</time>
      </trkpt>
      <trkpt lat="48.61561" lon="2.10165">
        <ele>112</ele>
        <time>2010-03-19T13:18:13Z</time>
      </trkpt>
      <trkpt lat="48.6156" lon="2.10167">
        <ele>112</ele>
        <time>2010-03-19T13:18:14Z</time>
      </trkpt>
      <trkpt lat="48.61559" lon="2.10169">
        <ele>112</ele>
        <time>2010-03-19T13:18:15Z</time>
      </trkpt>
      <trkpt lat="48.61559" lon="2.10172">
        <ele>112</ele>
        <time>2010-03-19T13:18:16Z</time>
      </trkpt>
      <trkpt lat="48.61559" lon="2.10174">
        <ele>112</ele>
        <time>2010-03-19T13:18:17Z</time>
      </trkpt>
      <trkpt lat="48.61558" lon="2.10175">
        <ele>112</ele>
        <time>2010-03-19T13:18:18Z</time>
      </trkpt>
      <trkpt lat="48.61558" lon="2.10177">
        <ele>112</ele>
        <time>2010-03-19T13:18:19Z</time>
      </trkpt>
      <trkpt lat="48.61557" lon="2.10179">
        <ele>112</ele>
        <time>2010-03-19T13:18:20Z</time>
      </trkpt>
      <trkpt lat="48.61556" lon="2.10181">
        <ele>112</ele>
        <time>2010-03-19T13:18:22Z</time>
      </trkpt>
      <trkpt lat="48.61555" lon="2.10184">
        <ele>112</ele>
        <time>2010-03-19T13:18:23Z</time>
      </trkpt>
      <trkpt lat="48.61555" lon="2.10186">
        <ele>112</ele>
        <time>2010-03-19T13:18:24Z</time>
      </trkpt>
      <trkpt lat="48.61555" lon="2.10188">
        <ele>112</ele>
        <time>2010-03-19T13:18:25Z</time>
      </trkpt>
      <trkpt lat="48.61554" lon="2.1019">
        <ele>112</ele>
        <time>2010-03-19T13:18:26Z</time>
      </trkpt>
      <trkpt lat="48.61554" lon="2.10192">
        <ele>112</ele>
        <time>2010-03-19T13:18:27Z</time>
      </trkpt>
      <trkpt lat="48.61554" lon="2.10194">
        <ele>112</ele>
        <time>2010-03-19T13:18:28Z</time>
      </trkpt>
      <trkpt lat="48.61553" lon="2.10196">
        <ele>112</ele>
        <time>2010-03-19T13:18:29Z</time>
      </trkpt>
      <trkpt lat="48.61552" lon="2.10198">
        <ele>112</ele>
        <time>2010-03-19T13:18:30Z</time>
      </trkpt>
      <trkpt lat="48.61552" lon="2.102">
        <ele>112</ele>
        <time>2010-03-19T13:18:31Z</time>
      </trkpt>
      <trkpt lat="48.6155" lon="2.10202">
        <ele>112</ele>
        <time>2010-03-19T13:18:33Z</time>
      </trkpt>
      <trkpt lat="48.61547" lon="2.10206">
        <ele>112</ele>
        <time>2010-03-19T13:18:35Z</time>
      </trkpt>
      <trkpt lat="48.61546" lon="2.10209">
        <ele>112</ele>
        <time>2010-03-19T13:18:37Z</time>
      </trkpt>
      <trkpt lat="48.61546" lon="2.1021">
        <ele>112</ele>
        <time>2010-03-19T13:18:38Z</time>
      </trkpt>
      <trkpt lat="48.61546" lon="2.10213">
        <ele>112</ele>
        <time>2010-03-19T13:18:39Z</time>
      </trkpt>
      <trkpt lat="48.61545" lon="2.10215">
        <ele>112</ele>
        <time>2010-03-19T13:18:40Z</time>
      </trkpt>
      <trkpt lat="48.61545" lon="2.10217">
        <ele>112</ele>
        <time>2010-03-19T13:18:41Z</time>
      </trkpt>
      <trkpt lat="48.61544" lon="2.10219">
        <ele>112</ele>
        <time>2010-03-19T13:18:42Z</time>
      </trkpt>
      <trkpt lat="48.61544" lon="2.10221">
        <ele>112</ele>
        <time>2010-03-19T13:18:43Z</time>
      </trkpt>
      <trkpt lat="48.61544" lon="2.10224">
        <ele>112</ele>
        <time>2010-03-19T13:18:45Z</time>
      </trkpt>
      <trkpt lat="48.61543" lon="2.10226">
        <ele>112</ele>
        <time>2010-03-19T13:18:46Z</time>
      </trkpt>
      <trkpt lat="48.61543" lon="2.10229">
        <ele>112</ele>
        <time>2010-03-19T13:18:47Z</time>
      </trkpt>
      <trkpt lat="48.61542" lon="2.1023">
        <ele>112</ele>
        <time>2010-03-19T13:18:48Z</time>
      </trkpt>
      <trkpt lat="48.61541" lon="2.10232">
        <ele>112</ele>
        <time>2010-03-19T13:18:49Z</time>
      </trkpt>
      <trkpt lat="48.61541" lon="2.10235">
        <ele>112</ele>
        <time>2010-03-19T13:18:50Z</time>
      </trkpt>
      <trkpt lat="48.6154" lon="2.10237">
        <ele>112</ele>
        <time>2010-03-19T13:18:51Z</time>
      </trkpt>
      <trkpt lat="48.6154" lon="2.10239">
        <ele>112</ele>
        <time>2010-03-19T13:18:52Z</time>
      </trkpt>
      <trkpt lat="48.6154" lon="2.10241">
        <ele>112</ele>
        <time>2010-03-19T13:18:53Z</time>
      </trkpt>
      <trkpt lat="48.61539" lon="2.10243">
        <ele>112</ele>
        <time>2010-03-19T13:18:54Z</time>
      </trkpt>
      <trkpt lat="48.61539" lon="2.10244">
        <ele>112</ele>
        <time>2010-03-19T13:18:55Z</time>
      </trkpt>
      <trkpt lat="48.61538" lon="2.10246">
        <ele>112</ele>
        <time>2010-03-19T13:18:56Z</time>
      </trkpt>
      <trkpt lat="48.61538" lon="2.10248">
        <ele>112</ele>
        <time>2010-03-19T13:18:57Z</time>
      </trkpt>
      <trkpt lat="48.61538" lon="2.1025">
        <ele>112</ele>
        <time>2010-03-19T13:18:58Z</time>
      </trkpt>
      <trkpt lat="48.61538" lon="2.10252">
        <ele>112</ele>
        <time>2010-03-19T13:18:59Z</time>
      </trkpt>
      <trkpt lat="48.61537" lon="2.10255">
        <ele>112</ele>
        <time>2010-03-19T13:19:00Z</time>
      </trkpt>
      <trkpt lat="48.61536" lon="2.10257">
        <ele>112</ele>
        <time>2010-03-19T13:19:01Z</time>
      </trkpt>
      <trkpt lat="48.61536" lon="2.10259">
        <ele>112</ele>
        <time>2010-03-19T13:19:02Z</time>
      </trkpt>
      <trkpt lat="48.61535" lon="2.1026">
        <ele>112</ele>
        <time>2010-03-19T13:19:03Z</time>
      </trkpt>
      <trkpt lat="48.61535" lon="2.10262">
        <ele>112</ele>
        <time>2010-03-19T13:19:04Z</time>
      </trkpt>
      <trkpt lat="48.61534" lon="2.10265">
        <ele>112</ele>
        <time>2010-03-19T13:19:06Z</time>
      </trkpt>
      <trkpt lat="48.61533" lon="2.10267">
        <ele>112</ele>
        <time>2010-03-19T13:19:07Z</time>
      </trkpt>
      <trkpt lat="48.61533" lon="2.10269">
        <ele>112</ele>
        <time>2010-03-19T13:19:08Z</time>
      </trkpt>
      <trkpt lat="48.61532" lon="2.10271">
        <ele>112</ele>
        <time>2010-03-19T13:19:09Z</time>
      </trkpt>
      <trkpt lat="48.61531" lon="2.10274">
        <ele>112</ele>
        <time>2010-03-19T13:19:11Z</time>
      </trkpt>
      <trkpt lat="48.61531" lon="2.10276">
        <ele>112</ele>
        <time>2010-03-19T13:19:12Z</time>
      </trkpt>
      <trkpt lat="48.61531" lon="2.10278">
        <ele>112</ele>
        <time>2010-03-19T13:19:13Z</time>
      </trkpt>
      <trkpt lat="48.6153" lon="2.10281">
        <ele>112</ele>
        <time>2010-03-19T13:19:15Z</time>
      </trkpt>
      <trkpt lat="48.6153" lon="2.10283">
        <ele>112</ele>
        <time>2010-03-19T13:19:16Z</time>
      </trkpt>
      <trkpt lat="48.61529" lon="2.10284">
        <ele>112</ele>
        <time>2010-03-19T13:19:17Z</time>
      </trkpt>
      <trkpt lat="48.61528" lon="2.10287">
        <ele>112</ele>
        <time>2010-03-19T13:19:19Z</time>
      </trkpt>
      <trkpt lat="48.61528" lon="2.10289">
        <ele>112</ele>
        <time>2010-03-19T13:19:20Z</time>
      </trkpt>
      <trkpt lat="48.61527" lon="2.10291">
        <ele>112</ele>
        <time>2010-03-19T13:19:21Z</time>
      </trkpt>
      <trkpt lat="48.61527" lon="2.10293">
        <ele>112</ele>
        <time>2010-03-19T13:19:22Z</time>
      </trkpt>
      <trkpt lat="48.61526" lon="2.10295">
        <ele>112</ele>
        <time>2010-03-19T13:19:23Z</time>
      </trkpt>
      <trkpt lat="48.61526" lon="2.10297">
        <ele>112</ele>
        <time>2010-03-19T13:19:24Z</time>
      </trkpt>
      <trkpt lat="48.61526" lon="2.10299">
        <ele>112</ele>
        <time>2010-03-19T13:19:25Z</time>
      </trkpt>
      <trkpt lat="48.61525" lon="2.10301">
        <ele>112</ele>
        <time>2010-03-19T13:19:26Z</time>
      </trkpt>
      <trkpt lat="48.61525" lon="2.10303">
        <ele>112</ele>
        <time>2010-03-19T13:19:27Z</time>
      </trkpt>
      <trkpt lat="48.61524" lon="2.10306">
        <ele>112</ele>
        <time>2010-03-19T13:19:28Z</time>
      </trkpt>
      <trkpt lat="48.61523" lon="2.10308">
        <ele>112</ele>
        <time>2010-03-19T13:19:29Z</time>
      </trkpt>
      <trkpt lat="48.61522" lon="2.10312">
        <ele>112</ele>
        <time>2010-03-19T13:19:31Z</time>
      </trkpt>
      <trkpt lat="48.61522" lon="2.10314">
        <ele>112</ele>
        <time>2010-03-19T13:19:32Z</time>
      </trkpt>
      <trkpt lat="48.61521" lon="2.10316">
        <ele>112</ele>
        <time>2010-03-19T13:19:33Z</time>
      </trkpt>
      <trkpt lat="48.61521" lon="2.10317">
        <ele>112</ele>
        <time>2010-03-19T13:19:34Z</time>
      </trkpt>
      <trkpt lat="48.6152" lon="2.10319">
        <ele>112</ele>
        <time>2010-03-19T13:19:35Z</time>
      </trkpt>
      <trkpt lat="48.61519" lon="2.10322">
        <ele>112</ele>
        <time>2010-03-19T13:19:37Z</time>
      </trkpt>
      <trkpt lat="48.61518" lon="2.10326">
        <ele>112</ele>
        <time>2010-03-19T13:19:39Z</time>
      </trkpt>
      <trkpt lat="48.61518" lon="2.10328">
        <ele>112</ele>
        <time>2010-03-19T13:19:40Z</time>
      </trkpt>
      <trkpt lat="48.61517" lon="2.10329">
        <ele>112</ele>
        <time>2010-03-19T13:19:41Z</time>
      </trkpt>
      <trkpt lat="48.61517" lon="2.10331">
        <ele>112</ele>
        <time>2010-03-19T13:19:42Z</time>
      </trkpt>
      <trkpt lat="48.61515" lon="2.10333">
        <ele>112</ele>
        <time>2010-03-19T13:19:43Z</time>
      </trkpt>
      <trkpt lat="48.61515" lon="2.10334">
        <ele>112</ele>
        <time>2010-03-19T13:19:44Z</time>
      </trkpt>
      <trkpt lat="48.61514" lon="2.10336">
        <ele>112</ele>
        <time>2010-03-19T13:19:45Z</time>
      </trkpt>
      <trkpt lat="48.61513" lon="2.10338">
        <ele>112</ele>
        <time>2010-03-19T13:19:46Z</time>
      </trkpt>
      <trkpt lat="48.61512" lon="2.10341">
        <ele>112</ele>
        <time>2010-03-19T13:19:48Z</time>
      </trkpt>
      <trkpt lat="48.61511" lon="2.10343">
        <ele>112</ele>
        <time>2010-03-19T13:19:49Z</time>
      </trkpt>
      <trkpt lat="48.6151" lon="2.10345">
        <ele>112</ele>
        <time>2010-03-19T13:19:50Z</time>
      </trkpt>
      <trkpt lat="48.61509" lon="2.10347">
        <ele>112</ele>
        <time>2010-03-19T13:19:51Z</time>
      </trkpt>
      <trkpt lat="48.61507" lon="2.10348">
        <ele>112</ele>
        <time>2010-03-19T13:19:52Z</time>
      </trkpt>
      <trkpt lat="48.61507" lon="2.1035">
        <ele>112</ele>
        <time>2010-03-19T13:19:53Z</time>
      </trkpt>
      <trkpt lat="48.61506" lon="2.10352">
        <ele>112</ele>
        <time>2010-03-19T13:19:54Z</time>
      </trkpt>
      <trkpt lat="48.61505" lon="2.10354">
        <ele>112</ele>
        <time>2010-03-19T13:19:55Z</time>
      </trkpt>
      <trkpt lat="48.61503" lon="2.10357">
        <ele>112</ele>
        <time>2010-03-19T13:19:57Z</time>
      </trkpt>
      <trkpt lat="48.61502" lon="2.10359">
        <ele>112</ele>
        <time>2010-03-19T13:19:58Z</time>
      </trkpt>
      <trkpt lat="48.61501" lon="2.10361">
        <ele>112</ele>
        <time>2010-03-19T13:19:59Z</time>
      </trkpt>
      <trkpt lat="48.615" lon="2.10362">
        <ele>112</ele>
        <time>2010-03-19T13:20:00Z</time>
      </trkpt>
      <trkpt lat="48.61499" lon="2.10365">
        <ele>112</ele>
        <time>2010-03-19T13:20:01Z</time>
      </trkpt>
      <trkpt lat="48.61498" lon="2.10366">
        <ele>112</ele>
        <time>2010-03-19T13:20:02Z</time>
      </trkpt>
      <trkpt lat="48.61497" lon="2.10368">
        <ele>112</ele>
        <time>2010-03-19T13:20:03Z</time>
      </trkpt>
      <trkpt lat="48.61496" lon="2.1037">
        <ele>112</ele>
        <time>2010-03-19T13:20:04Z</time>
      </trkpt>
      <trkpt lat="48.61495" lon="2.10373">
        <ele>112</ele>
        <time>2010-03-19T13:20:05Z</time>
      </trkpt>
      <trkpt lat="48.61494" lon="2.10374">
        <ele>112</ele>
        <time>2010-03-19T13:20:06Z</time>
      </trkpt>
      <trkpt lat="48.61493" lon="2.10377">
        <ele>111</ele>
        <time>2010-03-19T13:20:08Z</time>
      </trkpt>
      <trkpt lat="48.61491" lon="2.10379">
        <ele>111</ele>
        <time>2010-03-19T13:20:09Z</time>
      </trkpt>
      <trkpt lat="48.6149" lon="2.10381">
        <ele>111</ele>
        <time>2010-03-19T13:20:10Z</time>
      </trkpt>
      <trkpt lat="48.61489" lon="2.10383">
        <ele>111</ele>
        <time>2010-03-19T13:20:11Z</time>
      </trkpt>
      <trkpt lat="48.61488" lon="2.10385">
        <ele>111</ele>
        <time>2010-03-19T13:20:12Z</time>
      </trkpt>
      <trkpt lat="48.61487" lon="2.10387">
        <ele>111</ele>
        <time>2010-03-19T13:20:13Z</time>
      </trkpt>
      <trkpt lat="48.61486" lon="2.1039">
        <ele>111</ele>
        <time>2010-03-19T13:20:14Z</time>
      </trkpt>
      <trkpt lat="48.61485" lon="2.10392">
        <ele>111</ele>
        <time>2010-03-19T13:20:15Z</time>
      </trkpt>
      <trkpt lat="48.61483" lon="2.10395">
        <ele>111</ele>
        <time>2010-03-19T13:20:17Z</time>
      </trkpt>
      <trkpt lat="48.61482" lon="2.10397">
        <ele>111</ele>
        <time>2010-03-19T13:20:18Z</time>
      </trkpt>
      <trkpt lat="48.6148" lon="2.104">
        <ele>111</ele>
        <time>2010-03-19T13:20:20Z</time>
      </trkpt>
      <trkpt lat="48.61479" lon="2.10402">
        <ele>111</ele>
        <time>2010-03-19T13:20:21Z</time>
      </trkpt>
      <trkpt lat="48.61477" lon="2.10405">
        <ele>111</ele>
        <time>2010-03-19T13:20:23Z</time>
      </trkpt>
      <trkpt lat="48.61475" lon="2.10408">
        <ele>111</ele>
        <time>2010-03-19T13:20:25Z</time>
      </trkpt>
      <trkpt lat="48.61474" lon="2.1041">
        <ele>111</ele>
        <time>2010-03-19T13:20:26Z</time>
      </trkpt>
      <trkpt lat="48.61473" lon="2.10412">
        <ele>111</ele>
        <time>2010-03-19T13:20:27Z</time>
      </trkpt>
      <trkpt lat="48.61471" lon="2.10414">
        <ele>111</ele>
        <time>2010-03-19T13:20:29Z</time>
      </trkpt>
      <trkpt lat="48.61469" lon="2.10417">
        <ele>111</ele>
        <time>2010-03-19T13:20:31Z</time>
      </trkpt>
      <trkpt lat="48.61467" lon="2.10419">
        <ele>110</ele>
        <time>2010-03-19T13:20:33Z</time>
      </trkpt>
      <trkpt lat="48.61465" lon="2.10421">
        <ele>110</ele>
        <time>2010-03-19T13:20:34Z</time>
      </trkpt>
      <trkpt lat="48.61464" lon="2.10424">
        <ele>110</ele>
        <time>2010-03-19T13:20:36Z</time>
      </trkpt>
      <trkpt lat="48.61463" lon="2.10426">
        <ele>110</ele>
        <time>2010-03-19T13:20:37Z</time>
      </trkpt>
      <trkpt lat="48.61461" lon="2.1043">
        <ele>110</ele>
        <time>2010-03-19T13:20:39Z</time>
      </trkpt>
      <trkpt lat="48.61459" lon="2.10432">
        <ele>109</ele>
        <time>2010-03-19T13:20:41Z</time>
      </trkpt>
      <trkpt lat="48.61456" lon="2.10435">
        <ele>109</ele>
        <time>2010-03-19T13:20:43Z</time>
      </trkpt>
      <trkpt lat="48.61455" lon="2.10438">
        <ele>109</ele>
        <time>2010-03-19T13:20:45Z</time>
      </trkpt>
      <trkpt lat="48.61454" lon="2.10439">
        <ele>109</ele>
        <time>2010-03-19T13:20:46Z</time>
      </trkpt>
      <trkpt lat="48.61453" lon="2.10441">
        <ele>109</ele>
        <time>2010-03-19T13:20:47Z</time>
      </trkpt>
      <trkpt lat="48.61451" lon="2.10444">
        <ele>109</ele>
        <time>2010-03-19T13:20:49Z</time>
      </trkpt>
      <trkpt lat="48.61449" lon="2.10447">
        <ele>109</ele>
        <time>2010-03-19T13:20:51Z</time>
      </trkpt>
      <trkpt lat="48.61448" lon="2.10449">
        <ele>109</ele>
        <time>2010-03-19T13:20:52Z</time>
      </trkpt>
      <trkpt lat="48.61447" lon="2.1045">
        <ele>109</ele>
        <time>2010-03-19T13:20:53Z</time>
      </trkpt>
      <trkpt lat="48.61446" lon="2.10452">
        <ele>109</ele>
        <time>2010-03-19T13:20:54Z</time>
      </trkpt>
      <trkpt lat="48.61445" lon="2.10455">
        <ele>109</ele>
        <time>2010-03-19T13:20:56Z</time>
      </trkpt>
      <trkpt lat="48.61444" lon="2.10457">
        <ele>109</ele>
        <time>2010-03-19T13:20:57Z</time>
      </trkpt>
      <trkpt lat="48.61442" lon="2.1046">
        <ele>109</ele>
        <time>2010-03-19T13:20:59Z</time>
      </trkpt>
      <trkpt lat="48.6144" lon="2.10463">
        <ele>109</ele>
        <time>2010-03-19T13:21:01Z</time>
      </trkpt>
      <trkpt lat="48.61438" lon="2.10466">
        <ele>109</ele>
        <time>2010-03-19T13:21:03Z</time>
      </trkpt>
      <trkpt lat="48.61437" lon="2.10469">
        <ele>109</ele>
        <time>2010-03-19T13:21:05Z</time>
      </trkpt>
      <trkpt lat="48.61436" lon="2.10471">
        <ele>109</ele>
        <time>2010-03-19T13:21:06Z</time>
      </trkpt>
      <trkpt lat="48.61435" lon="2.10473">
        <ele>109</ele>
        <time>2010-03-19T13:21:07Z</time>
      </trkpt>
      <trkpt lat="48.61435" lon="2.10475">
        <ele>109</ele>
        <time>2010-03-19T13:21:08Z</time>
      </trkpt>
      <trkpt lat="48.61433" lon="2.10478">
        <ele>109</ele>
        <time>2010-03-19T13:21:09Z</time>
      </trkpt>
      <trkpt lat="48.61433" lon="2.1048">
        <ele>109</ele>
        <time>2010-03-19T13:21:10Z</time>
      </trkpt>
      <trkpt lat="48.61433" lon="2.10482">
        <ele>109</ele>
        <time>2010-03-19T13:21:11Z</time>
      </trkpt>
      <trkpt lat="48.61432" lon="2.10484">
        <ele>109</ele>
        <time>2010-03-19T13:21:12Z</time>
      </trkpt>
      <trkpt lat="48.61432" lon="2.10486">
        <ele>109</ele>
        <time>2010-03-19T13:21:13Z</time>
      </trkpt>
      <trkpt lat="48.61432" lon="2.10488">
        <ele>109</ele>
        <time>2010-03-19T13:21:14Z</time>
      </trkpt>
      <trkpt lat="48.61431" lon="2.1049">
        <ele>109</ele>
        <time>2010-03-19T13:21:15Z</time>
      </trkpt>
      <trkpt lat="48.61431" lon="2.10491">
        <ele>109</ele>
        <time>2010-03-19T13:21:16Z</time>
      </trkpt>
      <trkpt lat="48.6143" lon="2.10494">
        <ele>109</ele>
        <time>2010-03-19T13:21:18Z</time>
      </trkpt>
      <trkpt lat="48.61429" lon="2.10496">
        <ele>109</ele>
        <time>2010-03-19T13:21:19Z</time>
      </trkpt>
      <trkpt lat="48.61428" lon="2.10498">
        <ele>109</ele>
        <time>2010-03-19T13:21:20Z</time>
      </trkpt>
      <trkpt lat="48.61428" lon="2.105">
        <ele>109</ele>
        <time>2010-03-19T13:21:21Z</time>
      </trkpt>
      <trkpt lat="48.61427" lon="2.10502">
        <ele>109</ele>
        <time>2010-03-19T13:21:22Z</time>
      </trkpt>
      <trkpt lat="48.61427" lon="2.10503">
        <ele>109</ele>
        <time>2010-03-19T13:21:23Z</time>
      </trkpt>
      <trkpt lat="48.61426" lon="2.10505">
        <ele>109</ele>
        <time>2010-03-19T13:21:24Z</time>
      </trkpt>
      <trkpt lat="48.61425" lon="2.10507">
        <ele>109</ele>
        <time>2010-03-19T13:21:25Z</time>
      </trkpt>
      <trkpt lat="48.61424" lon="2.10509">
        <ele>109</ele>
        <time>2010-03-19T13:21:26Z</time>
      </trkpt>
      <trkpt lat="48.61423" lon="2.10511">
        <ele>109</ele>
        <time>2010-03-19T13:21:27Z</time>
      </trkpt>
      <trkpt lat="48.61423" lon="2.10513">
        <ele>108</ele>
        <time>2010-03-19T13:21:28Z</time>
      </trkpt>
      <trkpt lat="48.61422" lon="2.10515">
        <ele>108</ele>
        <time>2010-03-19T13:21:29Z</time>
      </trkpt>
      <trkpt lat="48.61421" lon="2.10518">
        <ele>108</ele>
        <time>2010-03-19T13:21:30Z</time>
      </trkpt>
      <trkpt lat="48.61421" lon="2.1052">
        <ele>108</ele>
        <time>2010-03-19T13:21:31Z</time>
      </trkpt>
      <trkpt lat="48.6142" lon="2.10523">
        <ele>108</ele>
        <time>2010-03-19T13:21:33Z</time>
      </trkpt>
      <trkpt lat="48.6142" lon="2.10525">
        <ele>108</ele>
        <time>2010-03-19T13:21:34Z</time>
      </trkpt>
      <trkpt lat="48.6142" lon="2.10527">
        <ele>108</ele>
        <time>2010-03-19T13:21:35Z</time>
      </trkpt>
      <trkpt lat="48.61419" lon="2.10529">
        <ele>108</ele>
        <time>2010-03-19T13:21:36Z</time>
      </trkpt>
      <trkpt lat="48.61419" lon="2.10531">
        <ele>108</ele>
        <time>2010-03-19T13:21:37Z</time>
      </trkpt>
      <trkpt lat="48.61418" lon="2.10534">
        <ele>108</ele>
        <time>2010-03-19T13:21:38Z</time>
      </trkpt>
      <trkpt lat="48.61418" lon="2.10536">
        <ele>108</ele>
        <time>2010-03-19T13:21:39Z</time>
      </trkpt>
      <trkpt lat="48.61417" lon="2.10538">
        <ele>108</ele>
        <time>2010-03-19T13:21:40Z</time>
      </trkpt>
      <trkpt lat="48.61417" lon="2.1054">
        <ele>108</ele>
        <time>2010-03-19T13:21:41Z</time>
      </trkpt>
      <trkpt lat="48.61417" lon="2.10543">
        <ele>108</ele>
        <time>2010-03-19T13:21:43Z</time>
      </trkpt>
      <trkpt lat="48.61416" lon="2.10545">
        <ele>108</ele>
        <time>2010-03-19T13:21:44Z</time>
      </trkpt>
      <trkpt lat="48.61416" lon="2.10547">
        <ele>107</ele>
        <time>2010-03-19T13:21:45Z</time>
      </trkpt>
      <trkpt lat="48.61416" lon="2.10549">
        <ele>107</ele>
        <time>2010-03-19T13:21:46Z</time>
      </trkpt>
      <trkpt lat="48.61416" lon="2.10551">
        <ele>107</ele>
        <time>2010-03-19T13:21:47Z</time>
      </trkpt>
      <trkpt lat="48.61416" lon="2.10554">
        <ele>107</ele>
        <time>2010-03-19T13:21:49Z</time>
      </trkpt>
      <trkpt lat="48.61415" lon="2.10556">
        <ele>107</ele>
        <time>2010-03-19T13:21:50Z</time>
      </trkpt>
      <trkpt lat="48.61415" lon="2.10558">
        <ele>107</ele>
        <time>2010-03-19T13:21:51Z</time>
      </trkpt>
      <trkpt lat="48.61415" lon="2.1056">
        <ele>107</ele>
        <time>2010-03-19T13:21:52Z</time>
      </trkpt>
      <trkpt lat="48.61415" lon="2.10562">
        <ele>107</ele>
        <time>2010-03-19T13:21:53Z</time>
      </trkpt>
      <trkpt lat="48.61415" lon="2.10564">
        <ele>107</ele>
        <time>2010-03-19T13:21:54Z</time>
      </trkpt>
      <trkpt lat="48.61415" lon="2.10566">
        <ele>107</ele>
        <time>2010-03-19T13:21:55Z</time>
      </trkpt>
      <trkpt lat="48.61415" lon="2.1057">
        <ele>107</ele>
        <time>2010-03-19T13:21:57Z</time>
      </trkpt>
      <trkpt lat="48.61414" lon="2.10571">
        <ele>107</ele>
        <time>2010-03-19T13:21:58Z</time>
      </trkpt>
      <trkpt lat="48.61414" lon="2.10574">
        <ele>107</ele>
        <time>2010-03-19T13:21:59Z</time>
      </trkpt>
      <trkpt lat="48.61414" lon="2.10576">
        <ele>107</ele>
        <time>2010-03-19T13:22:00Z</time>
      </trkpt>
      <trkpt lat="48.61414" lon="2.10579">
        <ele>107</ele>
        <time>2010-03-19T13:22:01Z</time>
      </trkpt>
      <trkpt lat="48.61415" lon="2.10581">
        <ele>107</ele>
        <time>2010-03-19T13:22:02Z</time>
      </trkpt>
      <trkpt lat="48.61415" lon="2.10583">
        <ele>107</ele>
        <time>2010-03-19T13:22:03Z</time>
      </trkpt>
      <trkpt lat="48.61415" lon="2.10586">
        <ele>107</ele>
        <time>2010-03-19T13:22:04Z</time>
      </trkpt>
      <trkpt lat="48.61415" lon="2.10588">
        <ele>107</ele>
        <time>2010-03-19T13:22:05Z</time>
      </trkpt>
      <trkpt lat="48.61416" lon="2.1059">
        <ele>107</ele>
        <time>2010-03-19T13:22:06Z</time>
      </trkpt>
      <trkpt lat="48.61416" lon="2.10592">
        <ele>107</ele>
        <time>2010-03-19T13:22:07Z</time>
      </trkpt>
      <trkpt lat="48.61417" lon="2.10594">
        <ele>107</ele>
        <time>2010-03-19T13:22:08Z</time>
      </trkpt>
      <trkpt lat="48.61419" lon="2.10597">
        <ele>107</ele>
        <time>2010-03-19T13:22:10Z</time>
      </trkpt>
      <trkpt lat="48.61419" lon="2.10599">
        <ele>107</ele>
        <time>2010-03-19T13:22:11Z</time>
      </trkpt>
      <trkpt lat="48.6142" lon="2.106">
        <ele>107</ele>
        <time>2010-03-19T13:22:12Z</time>
      </trkpt>
      <trkpt lat="48.61422" lon="2.10603">
        <ele>107</ele>
        <time>2010-03-19T13:22:14Z</time>
      </trkpt>
      <trkpt lat="48.61423" lon="2.10606">
        <ele>106</ele>
        <time>2010-03-19T13:22:16Z</time>
      </trkpt>
      <trkpt lat="48.61425" lon="2.10609">
        <ele>106</ele>
        <time>2010-03-19T13:22:18Z</time>
      </trkpt>
      <trkpt lat="48.61427" lon="2.1061">
        <ele>106</ele>
        <time>2010-03-19T13:22:19Z</time>
      </trkpt>
      <trkpt lat="48.61428" lon="2.10612">
        <ele>106</ele>
        <time>2010-03-19T13:22:20Z</time>
      </trkpt>
      <trkpt lat="48.61429" lon="2.10615">
        <ele>106</ele>
        <time>2010-03-19T13:22:22Z</time>
      </trkpt>
      <trkpt lat="48.6143" lon="2.10617">
        <ele>106</ele>
        <time>2010-03-19T13:22:23Z</time>
      </trkpt>
      <trkpt lat="48.6143" lon="2.10619">
        <ele>106</ele>
        <time>2010-03-19T13:22:24Z</time>
      </trkpt>
      <trkpt lat="48.61431" lon="2.10622">
        <ele>106</ele>
        <time>2010-03-19T13:22:26Z</time>
      </trkpt>
      <trkpt lat="48.61433" lon="2.10625">
        <ele>106</ele>
        <time>2010-03-19T13:22:28Z</time>
      </trkpt>
      <trkpt lat="48.61435" lon="2.10627">
        <ele>106</ele>
        <time>2010-03-19T13:22:30Z</time>
      </trkpt>
      <trkpt lat="48.61437" lon="2.1063">
        <ele>106</ele>
        <time>2010-03-19T13:22:32Z</time>
      </trkpt>
      <trkpt lat="48.61438" lon="2.10632">
        <ele>106</ele>
        <time>2010-03-19T13:22:34Z</time>
      </trkpt>
      <trkpt lat="48.6144" lon="2.10634">
        <ele>106</ele>
        <time>2010-03-19T13:22:35Z</time>
      </trkpt>
      <trkpt lat="48.61441" lon="2.10636">
        <ele>106</ele>
        <time>2010-03-19T13:22:36Z</time>
      </trkpt>
      <trkpt lat="48.61443" lon="2.10637">
        <ele>106</ele>
        <time>2010-03-19T13:22:37Z</time>
      </trkpt>
      <trkpt lat="48.61444" lon="2.1064">
        <ele>106</ele>
        <time>2010-03-19T13:22:39Z</time>
      </trkpt>
      <trkpt lat="48.61446" lon="2.10643">
        <ele>106</ele>
        <time>2010-03-19T13:22:41Z</time>
      </trkpt>
      <trkpt lat="48.61448" lon="2.10646">
        <ele>106</ele>
        <time>2010-03-19T13:22:43Z</time>
      </trkpt>
      <trkpt lat="48.61451" lon="2.10649">
        <ele>106</ele>
        <time>2010-03-19T13:22:45Z</time>
      </trkpt>
      <trkpt lat="48.61451" lon="2.10651">
        <ele>106</ele>
        <time>2010-03-19T13:22:46Z</time>
      </trkpt>
      <trkpt lat="48.61453" lon="2.10653">
        <ele>106</ele>
        <time>2010-03-19T13:22:48Z</time>
      </trkpt>
      <trkpt lat="48.61455" lon="2.10656">
        <ele>106</ele>
        <time>2010-03-19T13:22:50Z</time>
      </trkpt>
      <trkpt lat="48.61457" lon="2.1066">
        <ele>106</ele>
        <time>2010-03-19T13:22:52Z</time>
      </trkpt>
      <trkpt lat="48.61459" lon="2.10661">
        <ele>106</ele>
        <time>2010-03-19T13:22:53Z</time>
      </trkpt>
      <trkpt lat="48.6146" lon="2.10663">
        <ele>106</ele>
        <time>2010-03-19T13:22:55Z</time>
      </trkpt>
      <trkpt lat="48.61461" lon="2.10666">
        <ele>106</ele>
        <time>2010-03-19T13:22:57Z</time>
      </trkpt>
      <trkpt lat="48.61462" lon="2.10667">
        <ele>106</ele>
        <time>2010-03-19T13:22:58Z</time>
      </trkpt>
      <trkpt lat="48.61465" lon="2.1067">
        <ele>106</ele>
        <time>2010-03-19T13:23:00Z</time>
      </trkpt>
      <trkpt lat="48.61466" lon="2.10672">
        <ele>106</ele>
        <time>2010-03-19T13:23:01Z</time>
      </trkpt>
      <trkpt lat="48.61468" lon="2.10673">
        <ele>106</ele>
        <time>2010-03-19T13:23:02Z</time>
      </trkpt>
      <trkpt lat="48.6147" lon="2.10676">
        <ele>106</ele>
        <time>2010-03-19T13:23:04Z</time>
      </trkpt>
      <trkpt lat="48.61471" lon="2.10679">
        <ele>106</ele>
        <time>2010-03-19T13:23:06Z</time>
      </trkpt>
      <trkpt lat="48.61472" lon="2.1068">
        <ele>106</ele>
        <time>2010-03-19T13:23:07Z</time>
      </trkpt>
      <trkpt lat="48.61473" lon="2.10682">
        <ele>106</ele>
        <time>2010-03-19T13:23:08Z</time>
      </trkpt>
      <trkpt lat="48.61474" lon="2.10684">
        <ele>106</ele>
        <time>2010-03-19T13:23:09Z</time>
      </trkpt>
      <trkpt lat="48.61477" lon="2.10687">
        <ele>106</ele>
        <time>2010-03-19T13:23:11Z</time>
      </trkpt>
      <trkpt lat="48.61478" lon="2.10688">
        <ele>106</ele>
        <time>2010-03-19T13:23:12Z</time>
      </trkpt>
      <trkpt lat="48.61479" lon="2.1069">
        <ele>106</ele>
        <time>2010-03-19T13:23:13Z</time>
      </trkpt>
      <trkpt lat="48.6148" lon="2.10691">
        <ele>106</ele>
        <time>2010-03-19T13:23:14Z</time>
      </trkpt>
      <trkpt lat="48.61481" lon="2.10692">
        <ele>106</ele>
        <time>2010-03-19T13:23:15Z</time>
      </trkpt>
      <trkpt lat="48.61482" lon="2.10693">
        <ele>106</ele>
        <time>2010-03-19T13:23:16Z</time>
      </trkpt>
      <trkpt lat="48.61484" lon="2.10695">
        <ele>106</ele>
        <time>2010-03-19T13:23:17Z</time>
      </trkpt>
      <trkpt lat="48.61486" lon="2.10696">
        <ele>106</ele>
        <time>2010-03-19T13:23:19Z</time>
      </trkpt>
      <trkpt lat="48.61487" lon="2.10697">
        <ele>106</ele>
        <time>2010-03-19T13:23:20Z</time>
      </trkpt>
      <trkpt lat="48.61488" lon="2.10697">
        <ele>106</ele>
        <time>2010-03-19T13:23:21Z</time>
      </trkpt>
      <trkpt lat="48.61489" lon="2.10698">
        <ele>106</ele>
        <time>2010-03-19T13:23:22Z</time>
      </trkpt>
      <trkpt lat="48.61491" lon="2.10699">
        <ele>106</ele>
        <time>2010-03-19T13:23:24Z</time>
      </trkpt>
      <trkpt lat="48.61493" lon="2.107">
        <ele>106</ele>
        <time>2010-03-19T13:23:25Z</time>
      </trkpt>
      <trkpt lat="48.61494" lon="2.107">
        <ele>106</ele>
        <time>2010-03-19T13:23:27Z</time>
      </trkpt>
      <trkpt lat="48.61497" lon="2.10701">
        <ele>106</ele>
        <time>2010-03-19T13:23:29Z</time>
      </trkpt>
      <trkpt lat="48.61497" lon="2.10701">
        <ele>106</ele>
        <time>2010-03-19T13:23:30Z</time>
      </trkpt>
      <trkpt lat="48.61499" lon="2.10702">
        <ele>106</ele>
        <time>2010-03-19T13:23:31Z</time>
      </trkpt>
      <trkpt lat="48.61501" lon="2.10703">
        <ele>106</ele>
        <time>2010-03-19T13:23:32Z</time>
      </trkpt>
      <trkpt lat="48.61502" lon="2.10704">
        <ele>106</ele>
        <time>2010-03-19T13:23:33Z</time>
      </trkpt>
      <trkpt lat="48.61503" lon="2.10704">
        <ele>106</ele>
        <time>2010-03-19T13:23:34Z</time>
      </trkpt>
      <trkpt lat="48.61504" lon="2.10705">
        <ele>106</ele>
        <time>2010-03-19T13:23:35Z</time>
      </trkpt>
      <trkpt lat="48.61506" lon="2.10707">
        <ele>106</ele>
        <time>2010-03-19T13:23:37Z</time>
      </trkpt>
      <trkpt lat="48.61507" lon="2.1071">
        <ele>106</ele>
        <time>2010-03-19T13:23:39Z</time>
      </trkpt>
      <trkpt lat="48.61509" lon="2.10713">
        <ele>106</ele>
        <time>2010-03-19T13:23:41Z</time>
      </trkpt>
      <trkpt lat="48.61509" lon="2.10715">
        <ele>106</ele>
        <time>2010-03-19T13:23:42Z</time>
      </trkpt>
      <trkpt lat="48.61509" lon="2.10717">
        <ele>106</ele>
        <time>2010-03-19T13:23:43Z</time>
      </trkpt>
      <trkpt lat="48.61509" lon="2.10718">
        <ele>106</ele>
        <time>2010-03-19T13:23:44Z</time>
      </trkpt>
      <trkpt lat="48.61508" lon="2.1072">
        <ele>106</ele>
        <time>2010-03-19T13:23:45Z</time>
      </trkpt>
      <trkpt lat="48.61507" lon="2.10722">
        <ele>106</ele>
        <time>2010-03-19T13:23:46Z</time>
      </trkpt>
      <trkpt lat="48.61506" lon="2.10724">
        <ele>106</ele>
        <time>2010-03-19T13:23:47Z</time>
      </trkpt>
      <trkpt lat="48.61506" lon="2.10726">
        <ele>106</ele>
        <time>2010-03-19T13:23:48Z</time>
      </trkpt>
      <trkpt lat="48.61506" lon="2.10728">
        <ele>106</ele>
        <time>2010-03-19T13:23:49Z</time>
      </trkpt>
      <trkpt lat="48.61505" lon="2.1073">
        <ele>105</ele>
        <time>2010-03-19T13:23:50Z</time>
      </trkpt>
      <trkpt lat="48.61505" lon="2.10732">
        <ele>105</ele>
        <time>2010-03-19T13:23:51Z</time>
      </trkpt>
      <trkpt lat="48.61505" lon="2.10734">
        <ele>105</ele>
        <time>2010-03-19T13:23:52Z</time>
      </trkpt>
      <trkpt lat="48.61504" lon="2.10736">
        <ele>105</ele>
        <time>2010-03-19T13:23:53Z</time>
      </trkpt>
      <trkpt lat="48.61504" lon="2.10738">
        <ele>104</ele>
        <time>2010-03-19T13:23:54Z</time>
      </trkpt>
      <trkpt lat="48.61504" lon="2.1074">
        <ele>104</ele>
        <time>2010-03-19T13:23:55Z</time>
      </trkpt>
      <trkpt lat="48.61503" lon="2.10741">
        <ele>104</ele>
        <time>2010-03-19T13:23:56Z</time>
      </trkpt>
      <trkpt lat="48.61503" lon="2.10743">
        <ele>104</ele>
        <time>2010-03-19T13:23:57Z</time>
      </trkpt>
      <trkpt lat="48.61502" lon="2.10745">
        <ele>104</ele>
        <time>2010-03-19T13:23:58Z</time>
      </trkpt>
      <trkpt lat="48.61502" lon="2.10747">
        <ele>104</ele>
        <time>2010-03-19T13:23:59Z</time>
      </trkpt>
      <trkpt lat="48.61502" lon="2.10749">
        <ele>104</ele>
        <time>2010-03-19T13:24:00Z</time>
      </trkpt>
      <trkpt lat="48.61501" lon="2.10752">
        <ele>104</ele>
        <time>2010-03-19T13:24:01Z</time>
      </trkpt>
      <trkpt lat="48.61501" lon="2.10754">
        <ele>104</ele>
        <time>2010-03-19T13:24:02Z</time>
      </trkpt>
      <trkpt lat="48.61501" lon="2.10756">
        <ele>104</ele>
        <time>2010-03-19T13:24:03Z</time>
      </trkpt>
      <trkpt lat="48.615" lon="2.10758">
        <ele>104</ele>
        <time>2010-03-19T13:24:04Z</time>
      </trkpt>
      <trkpt lat="48.615" lon="2.1076">
        <ele>103</ele>
        <time>2010-03-19T13:24:05Z</time>
      </trkpt>
      <trkpt lat="48.61499" lon="2.10763">
        <ele>103</ele>
        <time>2010-03-19T13:24:06Z</time>
      </trkpt>
      <trkpt lat="48.61498" lon="2.10765">
        <ele>103</ele>
        <time>2010-03-19T13:24:07Z</time>
      </trkpt>
      <trkpt lat="48.61498" lon="2.10768">
        <ele>103</ele>
        <time>2010-03-19T13:24:08Z</time>
      </trkpt>
      <trkpt lat="48.61497" lon="2.1077">
        <ele>103</ele>
        <time>2010-03-19T13:24:09Z</time>
      </trkpt>
      <trkpt lat="48.61497" lon="2.10772">
        <ele>103</ele>
        <time>2010-03-19T13:24:10Z</time>
      </trkpt>
      <trkpt lat="48.61497" lon="2.10774">
        <ele>102</ele>
        <time>2010-03-19T13:24:11Z</time>
      </trkpt>
      <trkpt lat="48.61496" lon="2.10777">
        <ele>102</ele>
        <time>2010-03-19T13:24:12Z</time>
      </trkpt>
      <trkpt lat="48.61496" lon="2.10779">
        <ele>102</ele>
        <time>2010-03-19T13:24:13Z</time>
      </trkpt>
      <trkpt lat="48.61496" lon="2.10781">
        <ele>102</ele>
        <time>2010-03-19T13:24:14Z</time>
      </trkpt>
      <trkpt lat="48.61495" lon="2.10783">
        <ele>101</ele>
        <time>2010-03-19T13:24:15Z</time>
      </trkpt>
      <trkpt lat="48.61495" lon="2.10787">
        <ele>101</ele>
        <time>2010-03-19T13:24:17Z</time>
      </trkpt>
      <trkpt lat="48.61495" lon="2.10788">
        <ele>100</ele>
        <time>2010-03-19T13:24:18Z</time>
      </trkpt>
      <trkpt lat="48.61494" lon="2.10791">
        <ele>99</ele>
        <time>2010-03-19T13:24:20Z</time>
      </trkpt>
      <trkpt lat="48.61493" lon="2.10793">
        <ele>99</ele>
        <time>2010-03-19T13:24:21Z</time>
      </trkpt>
      <trkpt lat="48.61493" lon="2.10795">
        <ele>98</ele>
        <time>2010-03-19T13:24:22Z</time>
      </trkpt>
      <trkpt lat="48.61493" lon="2.10797">
        <ele>98</ele>
        <time>2010-03-19T13:24:23Z</time>
      </trkpt>
      <trkpt lat="48.61493" lon="2.108">
        <ele>98</ele>
        <time>2010-03-19T13:24:25Z</time>
      </trkpt>
      <trkpt lat="48.61494" lon="2.10801">
        <ele>97</ele>
        <time>2010-03-19T13:24:28Z</time>
      </trkpt>
      <trkpt lat="48.61496" lon="2.10801">
        <ele>97</ele>
        <time>2010-03-19T13:24:31Z</time>
      </trkpt>
      <trkpt lat="48.61497" lon="2.10802">
        <ele>97</ele>
        <time>2010-03-19T13:24:33Z</time>
      </trkpt>
      <trkpt lat="48.615" lon="2.10802">
        <ele>97</ele>
        <time>2010-03-19T13:24:35Z</time>
      </trkpt>
      <trkpt lat="48.61501" lon="2.10802">
        <ele>97</ele>
        <time>2010-03-19T13:24:37Z</time>
      </trkpt>
      <trkpt lat="48.61501" lon="2.10804">
        <ele>97</ele>
        <time>2010-03-19T13:24:39Z</time>
      </trkpt>
      <trkpt lat="48.615" lon="2.10806">
        <ele>97</ele>
        <time>2010-03-19T13:24:44Z</time>
      </trkpt>
      <trkpt lat="48.615" lon="2.10805">
        <ele>100</ele>
        <time>2010-03-19T13:25:11Z</time>
      </trkpt>
      <trkpt lat="48.61499" lon="2.10806">
        <ele>100</ele>
        <time>2010-03-19T13:25:15Z</time>
      </trkpt>
      <trkpt lat="48.61498" lon="2.10807">
        <ele>101</ele>
        <time>2010-03-19T13:25:25Z</time>
      </trkpt>
      <trkpt lat="48.61497" lon="2.10811">
        <ele>103</ele>
        <time>2010-03-19T13:25:28Z</time>
      </trkpt>
      <trkpt lat="48.61496" lon="2.10813">
        <ele>104</ele>
        <time>2010-03-19T13:25:29Z</time>
      </trkpt>
      <trkpt lat="48.61495" lon="2.10816">
        <ele>105</ele>
        <time>2010-03-19T13:25:30Z</time>
      </trkpt>
      <trkpt lat="48.61496" lon="2.10817">
        <ele>109</ele>
        <time>2010-03-19T13:25:34Z</time>
      </trkpt>
      <trkpt lat="48.61497" lon="2.10818">
        <ele>111</ele>
        <time>2010-03-19T13:25:37Z</time>
      </trkpt>
      <trkpt lat="48.61496" lon="2.10816">
        <ele>114</ele>
        <time>2010-03-19T13:25:49Z</time>
      </trkpt>
      <trkpt lat="48.61495" lon="2.10816">
        <ele>114</ele>
        <time>2010-03-19T13:25:51Z</time>
      </trkpt>
    </trkseg>
  </trk>
</gpx>